<?xml version='1.0' encoding='UTF-8'?><gpx version="1.1" creator="JPX - https://github.com/jenetics/jpx" xmlns="http://www.topografix.com/GPX/1/1"><trk><trkseg><trkpt lat="43.9661833" lon="12.7633883"><ele>2.0</ele><time>2026-04-25T07:20:02.548Z</time></trkpt><trkpt lat="43.9661717" lon="12.7632883"><ele>1.9999999999999998</ele><time>2026-04-25T07:20:04.549Z</time></trkpt><trkpt lat="43.9661717" lon="12.7631883"><ele>2.0</ele><time>2026-04-25T07:20:07.548Z</time></trkpt><trkpt lat="43.9661783" lon="12.7630617"><ele>2.0</ele><time>2026-04-25T07:20:10.548Z</time></trkpt><trkpt lat="43.966185" lon="12.7629583"><ele>1.9999999999999998</ele><time>2026-04-25T07:20:13.549Z</time></trkpt><trkpt lat="43.9661883" lon="12.762865"><ele>2.0</ele><time>2026-04-25T07:20:16.549Z</time></trkpt><trkpt lat="43.9662" lon="12.7627683"><ele>2.0</ele><time>2026-04-25T07:20:18.549Z</time></trkpt><trkpt lat="43.9662117" lon="12.7626467"><ele>2.1666666666666665</ele><time>2026-04-25T07:20:20.549Z</time></trkpt><trkpt lat="43.9662067" lon="12.7625017"><ele>2.333333333333333</ele><time>2026-04-25T07:20:22.549Z</time></trkpt><trkpt lat="43.9661833" lon="12.76242"><ele>2.5</ele><time>2026-04-25T07:20:23.549Z</time></trkpt><trkpt lat="43.9661433" lon="12.76232"><ele>2.6666666666666665</ele><time>2026-04-25T07:20:24.549Z</time></trkpt><trkpt lat="43.9660917" lon="12.7622083"><ele>2.8333333333333335</ele><time>2026-04-25T07:20:25.549Z</time></trkpt><trkpt lat="43.9660467" lon="12.7620983"><ele>3.0</ele><time>2026-04-25T07:20:26.548Z</time></trkpt><trkpt lat="43.9660233" lon="12.7619883"><ele>3.0</ele><time>2026-04-25T07:20:27.548Z</time></trkpt><trkpt lat="43.9660133" lon="12.7618817"><ele>3.0</ele><time>2026-04-25T07:20:28.549Z</time></trkpt><trkpt lat="43.9660167" lon="12.76177"><ele>3.0</ele><time>2026-04-25T07:20:29.549Z</time></trkpt><trkpt lat="43.96602" lon="12.7616783"><ele>3.0</ele><time>2026-04-25T07:20:30.549Z</time></trkpt><trkpt lat="43.965995" lon="12.76158"><ele>3.0</ele><time>2026-04-25T07:20:32.549Z</time></trkpt><trkpt lat="43.9659333" lon="12.7616517"><ele>3.0</ele><time>2026-04-25T07:20:43.549Z</time></trkpt><trkpt lat="43.9658933" lon="12.76184"><ele>5.333333333333334</ele><time>2026-04-25T07:20:45.548Z</time></trkpt><trkpt lat="43.96586" lon="12.7619517"><ele>7.666666666666667</ele><time>2026-04-25T07:20:46.549Z</time></trkpt><trkpt lat="43.96582" lon="12.7620783"><ele>10.0</ele><time>2026-04-25T07:20:47.549Z</time></trkpt><trkpt lat="43.965785" lon="12.7621917"><ele>12.333333333333334</ele><time>2026-04-25T07:20:48.548Z</time></trkpt><trkpt lat="43.96575" lon="12.7622983"><ele>14.666666666666668</ele><time>2026-04-25T07:20:49.549Z</time></trkpt><trkpt lat="43.9657267" lon="12.7624067"><ele>17.0</ele><time>2026-04-25T07:20:50.549Z</time></trkpt><trkpt lat="43.9656933" lon="12.7625167"><ele>17.0</ele><time>2026-04-25T07:20:51.549Z</time></trkpt><trkpt lat="43.96567" lon="12.762625"><ele>17.0</ele><time>2026-04-25T07:20:52.549Z</time></trkpt><trkpt lat="43.9656517" lon="12.76272"><ele>17.0</ele><time>2026-04-25T07:20:53.548Z</time></trkpt><trkpt lat="43.9656317" lon="12.762805"><ele>17.0</ele><time>2026-04-25T07:20:54.549Z</time></trkpt><trkpt lat="43.9656" lon="12.7629083"><ele>17.0</ele><time>2026-04-25T07:20:56.548Z</time></trkpt><trkpt lat="43.96553" lon="12.7629617"><ele>17.0</ele><time>2026-04-25T07:20:59.549Z</time></trkpt><trkpt lat="43.9654233" lon="12.762925"><ele>17.0</ele><time>2026-04-25T07:21:01.549Z</time></trkpt><trkpt lat="43.9653217" lon="12.76287"><ele>17.0</ele><time>2026-04-25T07:21:03.549Z</time></trkpt><trkpt lat="43.9652567" lon="12.7628283"><ele>17.0</ele><time>2026-04-25T07:21:05.549Z</time></trkpt><trkpt lat="43.965215" lon="12.7627283"><ele>17.0</ele><time>2026-04-25T07:21:08.549Z</time></trkpt><trkpt lat="43.9652517" lon="12.7625433"><ele>17.0</ele><time>2026-04-25T07:21:10.549Z</time></trkpt><trkpt lat="43.9652933" lon="12.7624083"><ele>17.0</ele><time>2026-04-25T07:21:11.549Z</time></trkpt><trkpt lat="43.96535" lon="12.7622417"><ele>17.0</ele><time>2026-04-25T07:21:12.549Z</time></trkpt><trkpt lat="43.9654" lon="12.7620767"><ele>17.0</ele><time>2026-04-25T07:21:13.549Z</time></trkpt><trkpt lat="43.9654467" lon="12.7619117"><ele>17.0</ele><time>2026-04-25T07:21:14.549Z</time></trkpt><trkpt lat="43.96549" lon="12.7617583"><ele>17.5</ele><time>2026-04-25T07:21:15.549Z</time></trkpt><trkpt lat="43.9655367" lon="12.7615883"><ele>18.0</ele><time>2026-04-25T07:21:16.548Z</time></trkpt><trkpt lat="43.965585" lon="12.7613883"><ele>18.5</ele><time>2026-04-25T07:21:17.549Z</time></trkpt><trkpt lat="43.9656467" lon="12.7611783"><ele>19.0</ele><time>2026-04-25T07:21:18.549Z</time></trkpt><trkpt lat="43.9656983" lon="12.7609533"><ele>19.333333333333332</ele><time>2026-04-25T07:21:19.549Z</time></trkpt><trkpt lat="43.965755" lon="12.7607533"><ele>19.666666666666668</ele><time>2026-04-25T07:21:20.549Z</time></trkpt><trkpt lat="43.965805" lon="12.7605567"><ele>20.0</ele><time>2026-04-25T07:21:21.549Z</time></trkpt><trkpt lat="43.965855" lon="12.7603583"><ele>15.0</ele><time>2026-04-25T07:21:22.549Z</time></trkpt><trkpt lat="43.9659133" lon="12.7601567"><ele>10.0</ele><time>2026-04-25T07:21:23.549Z</time></trkpt><trkpt lat="43.9659683" lon="12.7599467"><ele>5.0</ele><time>2026-04-25T07:21:24.549Z</time></trkpt><trkpt lat="43.9660117" lon="12.7597283"><ele>5.0</ele><time>2026-04-25T07:21:25.549Z</time></trkpt><trkpt lat="43.96607" lon="12.7595183"><ele>5.0</ele><time>2026-04-25T07:21:26.547Z</time></trkpt><trkpt lat="43.9661217" lon="12.7593117"><ele>5.0</ele><time>2026-04-25T07:21:27.547Z</time></trkpt><trkpt lat="43.9661633" lon="12.7591117"><ele>5.6</ele><time>2026-04-25T07:21:28.548Z</time></trkpt><trkpt lat="43.9661983" lon="12.7589417"><ele>6.2</ele><time>2026-04-25T07:21:29.547Z</time></trkpt><trkpt lat="43.9662317" lon="12.7588067"><ele>6.800000000000001</ele><time>2026-04-25T07:21:30.547Z</time></trkpt><trkpt lat="43.9662633" lon="12.758685"><ele>7.4</ele><time>2026-04-25T07:21:31.548Z</time></trkpt><trkpt lat="43.9662917" lon="12.75856"><ele>8.0</ele><time>2026-04-25T07:21:32.548Z</time></trkpt><trkpt lat="43.96633" lon="12.7584033"><ele>8.25</ele><time>2026-04-25T07:21:33.548Z</time></trkpt><trkpt lat="43.9663667" lon="12.7582433"><ele>8.5</ele><time>2026-04-25T07:21:34.547Z</time></trkpt><trkpt lat="43.9664067" lon="12.7580833"><ele>8.75</ele><time>2026-04-25T07:21:35.548Z</time></trkpt><trkpt lat="43.9664467" lon="12.7579233"><ele>9.0</ele><time>2026-04-25T07:21:36.548Z</time></trkpt><trkpt lat="43.9664867" lon="12.75777"><ele>9.0</ele><time>2026-04-25T07:21:37.547Z</time></trkpt><trkpt lat="43.9665183" lon="12.7576117"><ele>9.0</ele><time>2026-04-25T07:21:38.547Z</time></trkpt><trkpt lat="43.96656" lon="12.7574583"><ele>9.0</ele><time>2026-04-25T07:21:39.548Z</time></trkpt><trkpt lat="43.9666117" lon="12.757285"><ele>9.0</ele><time>2026-04-25T07:21:40.548Z</time></trkpt><trkpt lat="43.9666617" lon="12.7570967"><ele>7.75</ele><time>2026-04-25T07:21:41.548Z</time></trkpt><trkpt lat="43.966705" lon="12.756915"><ele>6.5</ele><time>2026-04-25T07:21:42.547Z</time></trkpt><trkpt lat="43.96675" lon="12.756755"><ele>5.25</ele><time>2026-04-25T07:21:43.548Z</time></trkpt><trkpt lat="43.96679" lon="12.75661"><ele>4.0</ele><time>2026-04-25T07:21:44.547Z</time></trkpt><trkpt lat="43.9668267" lon="12.756485"><ele>3.9999999999999996</ele><time>2026-04-25T07:21:45.547Z</time></trkpt><trkpt lat="43.9668467" lon="12.7563667"><ele>4.0</ele><time>2026-04-25T07:21:46.548Z</time></trkpt><trkpt lat="43.9668483" lon="12.7562683"><ele>4.0</ele><time>2026-04-25T07:21:47.548Z</time></trkpt><trkpt lat="43.9668183" lon="12.7561883"><ele>4.0</ele><time>2026-04-25T07:21:48.548Z</time></trkpt><trkpt lat="43.9667717" lon="12.7561083"><ele>3.9999999999999996</ele><time>2026-04-25T07:21:49.548Z</time></trkpt><trkpt lat="43.9667083" lon="12.7560383"><ele>4.0</ele><time>2026-04-25T07:21:50.547Z</time></trkpt><trkpt lat="43.9666167" lon="12.7559617"><ele>4.75</ele><time>2026-04-25T07:21:51.548Z</time></trkpt><trkpt lat="43.9665183" lon="12.7558733"><ele>5.5</ele><time>2026-04-25T07:21:52.548Z</time></trkpt><trkpt lat="43.9664183" lon="12.755785"><ele>6.25</ele><time>2026-04-25T07:21:53.548Z</time></trkpt><trkpt lat="43.9663167" lon="12.7557017"><ele>7.0</ele><time>2026-04-25T07:21:54.547Z</time></trkpt><trkpt lat="43.9662117" lon="12.755615"><ele>7.0</ele><time>2026-04-25T07:21:55.548Z</time></trkpt><trkpt lat="43.9661167" lon="12.75553"><ele>7.0</ele><time>2026-04-25T07:21:56.548Z</time></trkpt><trkpt lat="43.9660183" lon="12.75545"><ele>7.0</ele><time>2026-04-25T07:21:57.548Z</time></trkpt><trkpt lat="43.96591" lon="12.75537"><ele>7.0</ele><time>2026-04-25T07:21:58.547Z</time></trkpt><trkpt lat="43.965795" lon="12.75528"><ele>7.25</ele><time>2026-04-25T07:21:59.547Z</time></trkpt><trkpt lat="43.9656833" lon="12.7551683"><ele>7.5</ele><time>2026-04-25T07:22:00.548Z</time></trkpt><trkpt lat="43.9655783" lon="12.755065"><ele>7.75</ele><time>2026-04-25T07:22:01.548Z</time></trkpt><trkpt lat="43.9654867" lon="12.7549833"><ele>8.0</ele><time>2026-04-25T07:22:02.548Z</time></trkpt><trkpt lat="43.965405" lon="12.754905"><ele>8.0</ele><time>2026-04-25T07:22:03.548Z</time></trkpt><trkpt lat="43.9653233" lon="12.7548317"><ele>8.0</ele><time>2026-04-25T07:22:04.548Z</time></trkpt><trkpt lat="43.96525" lon="12.75475"><ele>8.0</ele><time>2026-04-25T07:22:05.547Z</time></trkpt><trkpt lat="43.96517" lon="12.7546517"><ele>8.0</ele><time>2026-04-25T07:22:06.547Z</time></trkpt><trkpt lat="43.96508" lon="12.7545333"><ele>8.0</ele><time>2026-04-25T07:22:07.548Z</time></trkpt><trkpt lat="43.9649833" lon="12.7544133"><ele>6.75</ele><time>2026-04-25T07:22:08.547Z</time></trkpt><trkpt lat="43.9648867" lon="12.754285"><ele>5.5</ele><time>2026-04-25T07:22:09.547Z</time></trkpt><trkpt lat="43.9647717" lon="12.7541683"><ele>4.25</ele><time>2026-04-25T07:22:10.548Z</time></trkpt><trkpt lat="43.9646633" lon="12.7540583"><ele>3.0</ele><time>2026-04-25T07:22:11.547Z</time></trkpt><trkpt lat="43.9645567" lon="12.75397"><ele>3.0</ele><time>2026-04-25T07:22:12.548Z</time></trkpt><trkpt lat="43.9644667" lon="12.7538867"><ele>3.0</ele><time>2026-04-25T07:22:13.547Z</time></trkpt><trkpt lat="43.9643717" lon="12.7537917"><ele>3.0</ele><time>2026-04-25T07:22:14.548Z</time></trkpt><trkpt lat="43.9642683" lon="12.7536917"><ele>3.0</ele><time>2026-04-25T07:22:15.548Z</time></trkpt><trkpt lat="43.9641633" lon="12.7535933"><ele>4.0</ele><time>2026-04-25T07:22:16.548Z</time></trkpt><trkpt lat="43.9640667" lon="12.7535017"><ele>5.0</ele><time>2026-04-25T07:22:17.548Z</time></trkpt><trkpt lat="43.963975" lon="12.7534217"><ele>6.000000000000001</ele><time>2026-04-25T07:22:18.548Z</time></trkpt><trkpt lat="43.9638883" lon="12.7533483"><ele>7.0</ele><time>2026-04-25T07:22:19.547Z</time></trkpt><trkpt lat="43.9638083" lon="12.7532783"><ele>8.0</ele><time>2026-04-25T07:22:20.547Z</time></trkpt><trkpt lat="43.963735" lon="12.7532083"><ele>7.999999999999999</ele><time>2026-04-25T07:22:21.548Z</time></trkpt><trkpt lat="43.9636717" lon="12.7531483"><ele>8.0</ele><time>2026-04-25T07:22:22.548Z</time></trkpt><trkpt lat="43.963615" lon="12.7530967"><ele>8.0</ele><time>2026-04-25T07:22:23.548Z</time></trkpt><trkpt lat="43.9635583" lon="12.7530533"><ele>8.0</ele><time>2026-04-25T07:22:24.547Z</time></trkpt><trkpt lat="43.9634683" lon="12.7529717"><ele>7.999999999999999</ele><time>2026-04-25T07:22:26.548Z</time></trkpt><trkpt lat="43.9634117" lon="12.7529217"><ele>8.0</ele><time>2026-04-25T07:22:27.548Z</time></trkpt><trkpt lat="43.9633383" lon="12.752855"><ele>8.200000000000001</ele><time>2026-04-25T07:22:28.547Z</time></trkpt><trkpt lat="43.9632467" lon="12.7527817"><ele>8.4</ele><time>2026-04-25T07:22:29.548Z</time></trkpt><trkpt lat="43.9631617" lon="12.7527033"><ele>8.600000000000001</ele><time>2026-04-25T07:22:30.548Z</time></trkpt><trkpt lat="43.9630817" lon="12.7526333"><ele>8.8</ele><time>2026-04-25T07:22:31.548Z</time></trkpt><trkpt lat="43.963" lon="12.752565"><ele>9.0</ele><time>2026-04-25T07:22:32.548Z</time></trkpt><trkpt lat="43.9629167" lon="12.7524883"><ele>9.0</ele><time>2026-04-25T07:22:33.548Z</time></trkpt><trkpt lat="43.9628417" lon="12.7524167"><ele>9.0</ele><time>2026-04-25T07:22:34.548Z</time></trkpt><trkpt lat="43.9627733" lon="12.7523533"><ele>9.0</ele><time>2026-04-25T07:22:35.548Z</time></trkpt><trkpt lat="43.9627067" lon="12.7522967"><ele>9.0</ele><time>2026-04-25T07:22:36.548Z</time></trkpt><trkpt lat="43.962635" lon="12.75224"><ele>9.0</ele><time>2026-04-25T07:22:37.548Z</time></trkpt><trkpt lat="43.9625583" lon="12.752185"><ele>9.0</ele><time>2026-04-25T07:22:38.548Z</time></trkpt><trkpt lat="43.9624917" lon="12.7521267"><ele>9.000000000000002</ele><time>2026-04-25T07:22:39.548Z</time></trkpt><trkpt lat="43.9624317" lon="12.7520733"><ele>9.0</ele><time>2026-04-25T07:22:40.547Z</time></trkpt><trkpt lat="43.962375" lon="12.752025"><ele>9.0</ele><time>2026-04-25T07:22:41.547Z</time></trkpt><trkpt lat="43.9623217" lon="12.7519717"><ele>9.0</ele><time>2026-04-25T07:22:42.548Z</time></trkpt><trkpt lat="43.9622583" lon="12.751915"><ele>9.0</ele><time>2026-04-25T07:22:43.548Z</time></trkpt><trkpt lat="43.96219" lon="12.7518517"><ele>9.000000000000002</ele><time>2026-04-25T07:22:44.548Z</time></trkpt><trkpt lat="43.9621167" lon="12.7517867"><ele>9.0</ele><time>2026-04-25T07:22:45.548Z</time></trkpt><trkpt lat="43.9620383" lon="12.7517183"><ele>9.0</ele><time>2026-04-25T07:22:46.548Z</time></trkpt><trkpt lat="43.9619617" lon="12.7516483"><ele>9.0</ele><time>2026-04-25T07:22:47.548Z</time></trkpt><trkpt lat="43.9618917" lon="12.7515883"><ele>9.0</ele><time>2026-04-25T07:22:48.548Z</time></trkpt><trkpt lat="43.961825" lon="12.7515267"><ele>9.0</ele><time>2026-04-25T07:22:49.547Z</time></trkpt><trkpt lat="43.9617683" lon="12.75146"><ele>9.0</ele><time>2026-04-25T07:22:50.548Z</time></trkpt><trkpt lat="43.9617083" lon="12.7514067"><ele>9.0</ele><time>2026-04-25T07:22:51.547Z</time></trkpt><trkpt lat="43.96164" lon="12.75134"><ele>9.0</ele><time>2026-04-25T07:22:52.548Z</time></trkpt><trkpt lat="43.961565" lon="12.7512733"><ele>9.0</ele><time>2026-04-25T07:22:53.548Z</time></trkpt><trkpt lat="43.9614933" lon="12.75121"><ele>9.0</ele><time>2026-04-25T07:22:54.548Z</time></trkpt><trkpt lat="43.96142" lon="12.7511467"><ele>9.0</ele><time>2026-04-25T07:22:55.548Z</time></trkpt><trkpt lat="43.9613417" lon="12.7510767"><ele>9.0</ele><time>2026-04-25T07:22:56.548Z</time></trkpt><trkpt lat="43.9612617" lon="12.751005"><ele>9.0</ele><time>2026-04-25T07:22:57.548Z</time></trkpt><trkpt lat="43.96118" lon="12.7509367"><ele>9.0</ele><time>2026-04-25T07:22:58.548Z</time></trkpt><trkpt lat="43.9610933" lon="12.7508817"><ele>9.0</ele><time>2026-04-25T07:22:59.547Z</time></trkpt><trkpt lat="43.9609983" lon="12.750845"><ele>9.0</ele><time>2026-04-25T07:23:00.548Z</time></trkpt><trkpt lat="43.9608967" lon="12.7508233"><ele>9.0</ele><time>2026-04-25T07:23:01.548Z</time></trkpt><trkpt lat="43.960795" lon="12.750815"><ele>9.0</ele><time>2026-04-25T07:23:02.548Z</time></trkpt><trkpt lat="43.9606833" lon="12.7508167"><ele>9.0</ele><time>2026-04-25T07:23:03.548Z</time></trkpt><trkpt lat="43.9605983" lon="12.7507933"><ele>9.0</ele><time>2026-04-25T07:23:04.548Z</time></trkpt><trkpt lat="43.9605233" lon="12.7507617"><ele>9.0</ele><time>2026-04-25T07:23:05.548Z</time></trkpt><trkpt lat="43.960455" lon="12.7507267"><ele>9.0</ele><time>2026-04-25T07:23:06.548Z</time></trkpt><trkpt lat="43.9603617" lon="12.7506633"><ele>9.0</ele><time>2026-04-25T07:23:08.548Z</time></trkpt><trkpt lat="43.9602917" lon="12.7506133"><ele>9.0</ele><time>2026-04-25T07:23:11.547Z</time></trkpt><trkpt lat="43.9602233" lon="12.75057"><ele>9.0</ele><time>2026-04-25T07:23:14.547Z</time></trkpt><trkpt lat="43.9601667" lon="12.7505117"><ele>9.0</ele><time>2026-04-25T07:23:17.548Z</time></trkpt><trkpt lat="43.9601633" lon="12.75042"><ele>9.0</ele><time>2026-04-25T07:23:19.548Z</time></trkpt><trkpt lat="43.9601817" lon="12.7503017"><ele>9.0</ele><time>2026-04-25T07:23:21.548Z</time></trkpt><trkpt lat="43.960205" lon="12.7501933"><ele>9.0</ele><time>2026-04-25T07:23:23.547Z</time></trkpt><trkpt lat="43.960225" lon="12.7500767"><ele>9.0</ele><time>2026-04-25T07:23:25.548Z</time></trkpt><trkpt lat="43.9602333" lon="12.7499833"><ele>9.4</ele><time>2026-04-25T07:23:26.547Z</time></trkpt><trkpt lat="43.96024" lon="12.749865"><ele>9.8</ele><time>2026-04-25T07:23:27.548Z</time></trkpt><trkpt lat="43.9602483" lon="12.7497333"><ele>10.200000000000001</ele><time>2026-04-25T07:23:28.548Z</time></trkpt><trkpt lat="43.9602717" lon="12.7496017"><ele>10.600000000000001</ele><time>2026-04-25T07:23:29.547Z</time></trkpt><trkpt lat="43.9603" lon="12.7494633"><ele>11.0</ele><time>2026-04-25T07:23:30.548Z</time></trkpt><trkpt lat="43.9603317" lon="12.7493183"><ele>11.0</ele><time>2026-04-25T07:23:31.548Z</time></trkpt><trkpt lat="43.9603667" lon="12.7491633"><ele>11.0</ele><time>2026-04-25T07:23:32.548Z</time></trkpt><trkpt lat="43.9604067" lon="12.749005"><ele>11.0</ele><time>2026-04-25T07:23:33.547Z</time></trkpt><trkpt lat="43.9604467" lon="12.7488533"><ele>11.0</ele><time>2026-04-25T07:23:34.547Z</time></trkpt><trkpt lat="43.9604867" lon="12.7487067"><ele>11.0</ele><time>2026-04-25T07:23:35.547Z</time></trkpt><trkpt lat="43.9605333" lon="12.74857"><ele>11.0</ele><time>2026-04-25T07:23:36.547Z</time></trkpt><trkpt lat="43.9605833" lon="12.7484333"><ele>11.0</ele><time>2026-04-25T07:23:37.547Z</time></trkpt><trkpt lat="43.9606383" lon="12.7482967"><ele>11.0</ele><time>2026-04-25T07:23:38.547Z</time></trkpt><trkpt lat="43.9606917" lon="12.7481617"><ele>11.0</ele><time>2026-04-25T07:23:39.548Z</time></trkpt><trkpt lat="43.960735" lon="12.748035"><ele>11.0</ele><time>2026-04-25T07:23:40.548Z</time></trkpt><trkpt lat="43.9607717" lon="12.7479283"><ele>11.0</ele><time>2026-04-25T07:23:41.548Z</time></trkpt><trkpt lat="43.9608117" lon="12.7478317"><ele>11.0</ele><time>2026-04-25T07:23:42.547Z</time></trkpt><trkpt lat="43.9608567" lon="12.7477267"><ele>11.0</ele><time>2026-04-25T07:23:43.547Z</time></trkpt><trkpt lat="43.9609" lon="12.7476083"><ele>11.0</ele><time>2026-04-25T07:23:44.548Z</time></trkpt><trkpt lat="43.96096" lon="12.7474783"><ele>11.0</ele><time>2026-04-25T07:23:45.548Z</time></trkpt><trkpt lat="43.961005" lon="12.7473333"><ele>11.0</ele><time>2026-04-25T07:23:46.548Z</time></trkpt><trkpt lat="43.9610533" lon="12.7471933"><ele>11.0</ele><time>2026-04-25T07:23:47.548Z</time></trkpt><trkpt lat="43.9611" lon="12.747055"><ele>11.0</ele><time>2026-04-25T07:23:48.548Z</time></trkpt><trkpt lat="43.961145" lon="12.7469367"><ele>11.0</ele><time>2026-04-25T07:23:49.548Z</time></trkpt><trkpt lat="43.96118" lon="12.7468233"><ele>11.0</ele><time>2026-04-25T07:23:50.548Z</time></trkpt><trkpt lat="43.9612233" lon="12.7467083"><ele>11.0</ele><time>2026-04-25T07:23:51.547Z</time></trkpt><trkpt lat="43.9612583" lon="12.74661"><ele>11.0</ele><time>2026-04-25T07:23:52.548Z</time></trkpt><trkpt lat="43.9612983" lon="12.7465117"><ele>11.0</ele><time>2026-04-25T07:23:53.548Z</time></trkpt><trkpt lat="43.96134" lon="12.746405"><ele>11.0</ele><time>2026-04-25T07:23:54.548Z</time></trkpt><trkpt lat="43.9613767" lon="12.7463067"><ele>11.0</ele><time>2026-04-25T07:23:55.547Z</time></trkpt><trkpt lat="43.96141" lon="12.7462217"><ele>11.0</ele><time>2026-04-25T07:23:56.548Z</time></trkpt><trkpt lat="43.96145" lon="12.7461183"><ele>11.0</ele><time>2026-04-25T07:23:57.548Z</time></trkpt><trkpt lat="43.9614983" lon="12.746"><ele>11.0</ele><time>2026-04-25T07:23:58.548Z</time></trkpt><trkpt lat="43.96154" lon="12.7458867"><ele>11.0</ele><time>2026-04-25T07:23:59.548Z</time></trkpt><trkpt lat="43.961585" lon="12.7457683"><ele>11.0</ele><time>2026-04-25T07:24:00.547Z</time></trkpt><trkpt lat="43.9616283" lon="12.7456467"><ele>11.200000000000001</ele><time>2026-04-25T07:24:01.548Z</time></trkpt><trkpt lat="43.9616667" lon="12.7455217"><ele>11.4</ele><time>2026-04-25T07:24:02.547Z</time></trkpt><trkpt lat="43.9617133" lon="12.7453833"><ele>11.6</ele><time>2026-04-25T07:24:03.548Z</time></trkpt><trkpt lat="43.9617533" lon="12.745265"><ele>11.8</ele><time>2026-04-25T07:24:04.548Z</time></trkpt><trkpt lat="43.96179" lon="12.74516"><ele>12.0</ele><time>2026-04-25T07:24:05.548Z</time></trkpt><trkpt lat="43.9618267" lon="12.74506"><ele>11.666666666666666</ele><time>2026-04-25T07:24:06.548Z</time></trkpt><trkpt lat="43.9618667" lon="12.7449667"><ele>11.333333333333334</ele><time>2026-04-25T07:24:07.548Z</time></trkpt><trkpt lat="43.9619017" lon="12.74487"><ele>11.0</ele><time>2026-04-25T07:24:08.548Z</time></trkpt><trkpt lat="43.9619417" lon="12.7447717"><ele>10.666666666666668</ele><time>2026-04-25T07:24:09.547Z</time></trkpt><trkpt lat="43.9619867" lon="12.744675"><ele>10.333333333333334</ele><time>2026-04-25T07:24:10.548Z</time></trkpt><trkpt lat="43.9620267" lon="12.74457"><ele>10.0</ele><time>2026-04-25T07:24:11.548Z</time></trkpt><trkpt lat="43.9620717" lon="12.744475"><ele>10.0</ele><time>2026-04-25T07:24:12.548Z</time></trkpt><trkpt lat="43.962115" lon="12.74438"><ele>10.0</ele><time>2026-04-25T07:24:13.548Z</time></trkpt><trkpt lat="43.9621633" lon="12.7442933"><ele>10.0</ele><time>2026-04-25T07:24:14.547Z</time></trkpt><trkpt lat="43.9622167" lon="12.744205"><ele>10.0</ele><time>2026-04-25T07:24:15.548Z</time></trkpt><trkpt lat="43.9622533" lon="12.7441267"><ele>10.0</ele><time>2026-04-25T07:24:16.548Z</time></trkpt><trkpt lat="43.962295" lon="12.7440283"><ele>10.0</ele><time>2026-04-25T07:24:18.547Z</time></trkpt><trkpt lat="43.962345" lon="12.743935"><ele>10.0</ele><time>2026-04-25T07:24:21.548Z</time></trkpt><trkpt lat="43.9623883" lon="12.7438617"><ele>10.0</ele><time>2026-04-25T07:24:25.548Z</time></trkpt><trkpt lat="43.9624467" lon="12.7437383"><ele>10.0</ele><time>2026-04-25T07:24:28.548Z</time></trkpt><trkpt lat="43.9624917" lon="12.74366"><ele>10.0</ele><time>2026-04-25T07:24:30.548Z</time></trkpt><trkpt lat="43.9625383" lon="12.7435983"><ele>10.0</ele><time>2026-04-25T07:24:35.548Z</time></trkpt><trkpt lat="43.962585" lon="12.7435267"><ele>10.0</ele><time>2026-04-25T07:24:37.548Z</time></trkpt><trkpt lat="43.9626133" lon="12.743435"><ele>10.2</ele><time>2026-04-25T07:24:39.548Z</time></trkpt><trkpt lat="43.9626083" lon="12.7432683"><ele>10.4</ele><time>2026-04-25T07:24:41.548Z</time></trkpt><trkpt lat="43.96261" lon="12.7431567"><ele>10.600000000000001</ele><time>2026-04-25T07:24:42.548Z</time></trkpt><trkpt lat="43.962625" lon="12.7430133"><ele>10.8</ele><time>2026-04-25T07:24:43.548Z</time></trkpt><trkpt lat="43.96266" lon="12.7428433"><ele>11.0</ele><time>2026-04-25T07:24:44.547Z</time></trkpt><trkpt lat="43.962695" lon="12.74267"><ele>11.0</ele><time>2026-04-25T07:24:45.548Z</time></trkpt><trkpt lat="43.9627317" lon="12.7425117"><ele>11.0</ele><time>2026-04-25T07:24:46.548Z</time></trkpt><trkpt lat="43.96276" lon="12.7423633"><ele>11.0</ele><time>2026-04-25T07:24:47.548Z</time></trkpt><trkpt lat="43.962785" lon="12.74222"><ele>11.0</ele><time>2026-04-25T07:24:48.547Z</time></trkpt><trkpt lat="43.962805" lon="12.742085"><ele>11.0</ele><time>2026-04-25T07:24:49.548Z</time></trkpt><trkpt lat="43.962825" lon="12.7419617"><ele>10.600000000000001</ele><time>2026-04-25T07:24:50.548Z</time></trkpt><trkpt lat="43.9628417" lon="12.7418467"><ele>10.200000000000001</ele><time>2026-04-25T07:24:51.548Z</time></trkpt><trkpt lat="43.9628567" lon="12.7417433"><ele>9.8</ele><time>2026-04-25T07:24:52.548Z</time></trkpt><trkpt lat="43.9628833" lon="12.74158"><ele>9.4</ele><time>2026-04-25T07:24:54.547Z</time></trkpt><trkpt lat="43.9629067" lon="12.741425"><ele>9.0</ele><time>2026-04-25T07:24:56.548Z</time></trkpt><trkpt lat="43.9629333" lon="12.7412617"><ele>9.0</ele><time>2026-04-25T07:24:58.547Z</time></trkpt><trkpt lat="43.9629517" lon="12.741145"><ele>9.0</ele><time>2026-04-25T07:24:59.548Z</time></trkpt><trkpt lat="43.9629733" lon="12.7410067"><ele>9.0</ele><time>2026-04-25T07:25:00.548Z</time></trkpt><trkpt lat="43.9629983" lon="12.7408617"><ele>9.0</ele><time>2026-04-25T07:25:01.547Z</time></trkpt><trkpt lat="43.9630317" lon="12.7407233"><ele>9.0</ele><time>2026-04-25T07:25:02.547Z</time></trkpt><trkpt lat="43.9630583" lon="12.7405867"><ele>8.25</ele><time>2026-04-25T07:25:03.548Z</time></trkpt><trkpt lat="43.963085" lon="12.7404417"><ele>7.5</ele><time>2026-04-25T07:25:04.548Z</time></trkpt><trkpt lat="43.963105" lon="12.7402833"><ele>6.75</ele><time>2026-04-25T07:25:05.547Z</time></trkpt><trkpt lat="43.9631283" lon="12.7401183"><ele>6.0</ele><time>2026-04-25T07:25:06.548Z</time></trkpt><trkpt lat="43.9631483" lon="12.7399667"><ele>6.0</ele><time>2026-04-25T07:25:07.547Z</time></trkpt><trkpt lat="43.96316" lon="12.7398233"><ele>6.0</ele><time>2026-04-25T07:25:08.548Z</time></trkpt><trkpt lat="43.96319" lon="12.7396783"><ele>6.0</ele><time>2026-04-25T07:25:09.547Z</time></trkpt><trkpt lat="43.9632117" lon="12.7395433"><ele>6.0</ele><time>2026-04-25T07:25:10.547Z</time></trkpt><trkpt lat="43.9632333" lon="12.7394167"><ele>6.0</ele><time>2026-04-25T07:25:11.548Z</time></trkpt><trkpt lat="43.9632533" lon="12.7393083"><ele>5.833333333333333</ele><time>2026-04-25T07:25:12.547Z</time></trkpt><trkpt lat="43.9632617" lon="12.7392"><ele>5.666666666666667</ele><time>2026-04-25T07:25:13.548Z</time></trkpt><trkpt lat="43.9632667" lon="12.7391033"><ele>5.5</ele><time>2026-04-25T07:25:14.548Z</time></trkpt><trkpt lat="43.96328" lon="12.7390083"><ele>5.333333333333334</ele><time>2026-04-25T07:25:15.547Z</time></trkpt><trkpt lat="43.963295" lon="12.7389233"><ele>5.166666666666667</ele><time>2026-04-25T07:25:16.548Z</time></trkpt><trkpt lat="43.9633233" lon="12.7387883"><ele>5.0</ele><time>2026-04-25T07:25:18.548Z</time></trkpt><trkpt lat="43.96335" lon="12.738685"><ele>5.2</ele><time>2026-04-25T07:25:20.547Z</time></trkpt><trkpt lat="43.9633883" lon="12.7385983"><ele>5.4</ele><time>2026-04-25T07:25:24.548Z</time></trkpt><trkpt lat="43.9634467" lon="12.7385217"><ele>5.6</ele><time>2026-04-25T07:25:26.548Z</time></trkpt><trkpt lat="43.9635" lon="12.7384017"><ele>5.8</ele><time>2026-04-25T07:25:28.548Z</time></trkpt><trkpt lat="43.9634967" lon="12.7382083"><ele>6.0</ele><time>2026-04-25T07:25:30.548Z</time></trkpt><trkpt lat="43.963495" lon="12.7380667"><ele>6.0</ele><time>2026-04-25T07:25:31.548Z</time></trkpt><trkpt lat="43.9634967" lon="12.737895"><ele>6.0</ele><time>2026-04-25T07:25:32.548Z</time></trkpt><trkpt lat="43.963485" lon="12.737725"><ele>6.0</ele><time>2026-04-25T07:25:33.547Z</time></trkpt><trkpt lat="43.9634467" lon="12.7375567"><ele>6.0</ele><time>2026-04-25T07:25:34.547Z</time></trkpt><trkpt lat="43.9633867" lon="12.7374167"><ele>5.75</ele><time>2026-04-25T07:25:35.548Z</time></trkpt><trkpt lat="43.9633117" lon="12.737275"><ele>5.5</ele><time>2026-04-25T07:25:36.547Z</time></trkpt><trkpt lat="43.96326" lon="12.737105"><ele>5.25</ele><time>2026-04-25T07:25:37.548Z</time></trkpt><trkpt lat="43.9632017" lon="12.7369483"><ele>5.0</ele><time>2026-04-25T07:25:38.548Z</time></trkpt><trkpt lat="43.9631567" lon="12.7367933"><ele>4.75</ele><time>2026-04-25T07:25:39.548Z</time></trkpt><trkpt lat="43.963135" lon="12.73662"><ele>4.5</ele><time>2026-04-25T07:25:40.548Z</time></trkpt><trkpt lat="43.96314" lon="12.736445"><ele>4.25</ele><time>2026-04-25T07:25:41.548Z</time></trkpt><trkpt lat="43.9631667" lon="12.7362567"><ele>4.0</ele><time>2026-04-25T07:25:42.548Z</time></trkpt><trkpt lat="43.963205" lon="12.7360683"><ele>4.0</ele><time>2026-04-25T07:25:43.548Z</time></trkpt><trkpt lat="43.9632483" lon="12.7359067"><ele>4.0</ele><time>2026-04-25T07:25:44.548Z</time></trkpt><trkpt lat="43.9632833" lon="12.7357417"><ele>4.0</ele><time>2026-04-25T07:25:45.548Z</time></trkpt><trkpt lat="43.96332" lon="12.7355883"><ele>4.0</ele><time>2026-04-25T07:25:46.548Z</time></trkpt><trkpt lat="43.9633483" lon="12.73543"><ele>4.2</ele><time>2026-04-25T07:25:47.548Z</time></trkpt><trkpt lat="43.96337" lon="12.73528"><ele>4.4</ele><time>2026-04-25T07:25:48.548Z</time></trkpt><trkpt lat="43.96338" lon="12.7351367"><ele>4.6</ele><time>2026-04-25T07:25:49.548Z</time></trkpt><trkpt lat="43.9633817" lon="12.7350017"><ele>4.8</ele><time>2026-04-25T07:25:50.547Z</time></trkpt><trkpt lat="43.963375" lon="12.7348767"><ele>5.0</ele><time>2026-04-25T07:25:51.548Z</time></trkpt><trkpt lat="43.96337" lon="12.7347617"><ele>5.0</ele><time>2026-04-25T07:25:52.548Z</time></trkpt><trkpt lat="43.9633633" lon="12.7346583"><ele>5.0</ele><time>2026-04-25T07:25:53.547Z</time></trkpt><trkpt lat="43.96335" lon="12.7345183"><ele>5.0</ele><time>2026-04-25T07:25:55.548Z</time></trkpt><trkpt lat="43.9633333" lon="12.7344167"><ele>5.0</ele><time>2026-04-25T07:25:58.548Z</time></trkpt><trkpt lat="43.9633183" lon="12.73432"><ele>5.0</ele><time>2026-04-25T07:26:04.548Z</time></trkpt><trkpt lat="43.96332" lon="12.7342067"><ele>5.0</ele><time>2026-04-25T07:26:06.548Z</time></trkpt><trkpt lat="43.9632917" lon="12.734095"><ele>5.0</ele><time>2026-04-25T07:26:08.548Z</time></trkpt><trkpt lat="43.96322" lon="12.7340417"><ele>5.0</ele><time>2026-04-25T07:26:10.547Z</time></trkpt><trkpt lat="43.9630783" lon="12.7340667"><ele>5.0</ele><time>2026-04-25T07:26:12.548Z</time></trkpt><trkpt lat="43.9629783" lon="12.7340767"><ele>5.0</ele><time>2026-04-25T07:26:13.548Z</time></trkpt><trkpt lat="43.962865" lon="12.7340817"><ele>5.0</ele><time>2026-04-25T07:26:14.548Z</time></trkpt><trkpt lat="43.9627383" lon="12.7340767"><ele>5.0</ele><time>2026-04-25T07:26:15.548Z</time></trkpt><trkpt lat="43.962595" lon="12.7340667"><ele>5.0</ele><time>2026-04-25T07:26:16.548Z</time></trkpt><trkpt lat="43.9624517" lon="12.73404"><ele>5.0</ele><time>2026-04-25T07:26:17.547Z</time></trkpt><trkpt lat="43.962295" lon="12.734015"><ele>5.0</ele><time>2026-04-25T07:26:18.548Z</time></trkpt><trkpt lat="43.9621383" lon="12.7340033"><ele>5.75</ele><time>2026-04-25T07:26:19.548Z</time></trkpt><trkpt lat="43.9619883" lon="12.7339967"><ele>6.5</ele><time>2026-04-25T07:26:20.547Z</time></trkpt><trkpt lat="43.961845" lon="12.7339867"><ele>7.25</ele><time>2026-04-25T07:26:21.548Z</time></trkpt><trkpt lat="43.9617067" lon="12.7339717"><ele>8.0</ele><time>2026-04-25T07:26:22.548Z</time></trkpt><trkpt lat="43.9615433" lon="12.733955"><ele>8.666666666666666</ele><time>2026-04-25T07:26:23.548Z</time></trkpt><trkpt lat="43.9613817" lon="12.733935"><ele>9.333333333333334</ele><time>2026-04-25T07:26:24.548Z</time></trkpt><trkpt lat="43.9612217" lon="12.7339033"><ele>10.0</ele><time>2026-04-25T07:26:25.547Z</time></trkpt><trkpt lat="43.9610783" lon="12.733875"><ele>10.0</ele><time>2026-04-25T07:26:26.547Z</time></trkpt><trkpt lat="43.960925" lon="12.733865"><ele>10.0</ele><time>2026-04-25T07:26:27.548Z</time></trkpt><trkpt lat="43.9607583" lon="12.7338567"><ele>10.0</ele><time>2026-04-25T07:26:28.548Z</time></trkpt><trkpt lat="43.9605833" lon="12.7338267"><ele>10.666666666666668</ele><time>2026-04-25T07:26:29.547Z</time></trkpt><trkpt lat="43.960405" lon="12.733795"><ele>11.333333333333334</ele><time>2026-04-25T07:26:30.548Z</time></trkpt><trkpt lat="43.9602367" lon="12.7337533"><ele>12.0</ele><time>2026-04-25T07:26:31.548Z</time></trkpt><trkpt lat="43.9600833" lon="12.7336867"><ele>12.0</ele><time>2026-04-25T07:26:32.547Z</time></trkpt><trkpt lat="43.959925" lon="12.73364"><ele>12.0</ele><time>2026-04-25T07:26:33.548Z</time></trkpt><trkpt lat="43.9597917" lon="12.73357"><ele>12.0</ele><time>2026-04-25T07:26:34.547Z</time></trkpt><trkpt lat="43.9596517" lon="12.7335"><ele>12.0</ele><time>2026-04-25T07:26:35.547Z</time></trkpt><trkpt lat="43.9595233" lon="12.7334333"><ele>12.0</ele><time>2026-04-25T07:26:36.548Z</time></trkpt><trkpt lat="43.959395" lon="12.7333467"><ele>12.0</ele><time>2026-04-25T07:26:37.548Z</time></trkpt><trkpt lat="43.9592733" lon="12.7332633"><ele>12.0</ele><time>2026-04-25T07:26:38.548Z</time></trkpt><trkpt lat="43.9591633" lon="12.733175"><ele>12.0</ele><time>2026-04-25T07:26:39.548Z</time></trkpt><trkpt lat="43.9590533" lon="12.7330917"><ele>12.0</ele><time>2026-04-25T07:26:40.548Z</time></trkpt><trkpt lat="43.9589583" lon="12.73299"><ele>12.0</ele><time>2026-04-25T07:26:41.547Z</time></trkpt><trkpt lat="43.9588633" lon="12.7329017"><ele>12.0</ele><time>2026-04-25T07:26:42.548Z</time></trkpt><trkpt lat="43.9587783" lon="12.7327933"><ele>11.8</ele><time>2026-04-25T07:26:43.548Z</time></trkpt><trkpt lat="43.9586833" lon="12.732715"><ele>11.6</ele><time>2026-04-25T07:26:44.547Z</time></trkpt><trkpt lat="43.95861" lon="12.73261"><ele>11.4</ele><time>2026-04-25T07:26:45.548Z</time></trkpt><trkpt lat="43.9585217" lon="12.7325033"><ele>11.200000000000001</ele><time>2026-04-25T07:26:46.547Z</time></trkpt><trkpt lat="43.9584483" lon="12.7323933"><ele>11.0</ele><time>2026-04-25T07:26:47.548Z</time></trkpt><trkpt lat="43.9583833" lon="12.732295"><ele>11.333333333333332</ele><time>2026-04-25T07:26:48.548Z</time></trkpt><trkpt lat="43.95831" lon="12.7322067"><ele>11.666666666666666</ele><time>2026-04-25T07:26:49.547Z</time></trkpt><trkpt lat="43.9582583" lon="12.73212"><ele>12.0</ele><time>2026-04-25T07:26:50.547Z</time></trkpt><trkpt lat="43.9582133" lon="12.7320267"><ele>12.333333333333332</ele><time>2026-04-25T07:26:51.547Z</time></trkpt><trkpt lat="43.9581633" lon="12.73194"><ele>12.666666666666666</ele><time>2026-04-25T07:26:52.547Z</time></trkpt><trkpt lat="43.95812" lon="12.7318467"><ele>13.0</ele><time>2026-04-25T07:26:53.548Z</time></trkpt><trkpt lat="43.9580683" lon="12.7317433"><ele>13.166666666666666</ele><time>2026-04-25T07:26:54.548Z</time></trkpt><trkpt lat="43.95802" lon="12.7316467"><ele>13.333333333333332</ele><time>2026-04-25T07:26:55.547Z</time></trkpt><trkpt lat="43.957965" lon="12.73154"><ele>13.5</ele><time>2026-04-25T07:26:56.548Z</time></trkpt><trkpt lat="43.9579067" lon="12.7314383"><ele>13.666666666666668</ele><time>2026-04-25T07:26:57.547Z</time></trkpt><trkpt lat="43.9578533" lon="12.7313433"><ele>13.833333333333334</ele><time>2026-04-25T07:26:58.547Z</time></trkpt><trkpt lat="43.957805" lon="12.73124"><ele>14.0</ele><time>2026-04-25T07:26:59.547Z</time></trkpt><trkpt lat="43.9577833" lon="12.7311417"><ele>14.0</ele><time>2026-04-25T07:27:00.547Z</time></trkpt><trkpt lat="43.9577433" lon="12.7310667"><ele>14.0</ele><time>2026-04-25T07:27:01.547Z</time></trkpt><trkpt lat="43.9577033" lon="12.7309933"><ele>14.0</ele><time>2026-04-25T07:27:02.548Z</time></trkpt><trkpt lat="43.9576633" lon="12.730915"><ele>14.0</ele><time>2026-04-25T07:27:03.548Z</time></trkpt><trkpt lat="43.9576217" lon="12.7308283"><ele>14.0</ele><time>2026-04-25T07:27:04.547Z</time></trkpt><trkpt lat="43.957575" lon="12.7307333"><ele>14.0</ele><time>2026-04-25T07:27:05.548Z</time></trkpt><trkpt lat="43.9575183" lon="12.730645"><ele>14.0</ele><time>2026-04-25T07:27:06.548Z</time></trkpt><trkpt lat="43.9574683" lon="12.73057"><ele>13.833333333333334</ele><time>2026-04-25T07:27:07.547Z</time></trkpt><trkpt lat="43.9574233" lon="12.7305083"><ele>13.666666666666668</ele><time>2026-04-25T07:27:08.548Z</time></trkpt><trkpt lat="43.9573617" lon="12.7304017"><ele>13.5</ele><time>2026-04-25T07:27:10.548Z</time></trkpt><trkpt lat="43.9573267" lon="12.7303233"><ele>13.333333333333332</ele><time>2026-04-25T07:27:12.547Z</time></trkpt><trkpt lat="43.9572983" lon="12.7302433"><ele>13.166666666666666</ele><time>2026-04-25T07:27:14.548Z</time></trkpt><trkpt lat="43.9572667" lon="12.73012"><ele>13.0</ele><time>2026-04-25T07:27:16.548Z</time></trkpt><trkpt lat="43.957215" lon="12.7299633"><ele>13.4</ele><time>2026-04-25T07:27:18.548Z</time></trkpt><trkpt lat="43.95716" lon="12.7298917"><ele>13.8</ele><time>2026-04-25T07:27:19.548Z</time></trkpt><trkpt lat="43.9570883" lon="12.7298233"><ele>14.2</ele><time>2026-04-25T07:27:20.547Z</time></trkpt><trkpt lat="43.9570233" lon="12.7297333"><ele>14.6</ele><time>2026-04-25T07:27:21.547Z</time></trkpt><trkpt lat="43.9569583" lon="12.729615"><ele>15.0</ele><time>2026-04-25T07:27:22.548Z</time></trkpt><trkpt lat="43.9568933" lon="12.7294783"><ele>15.0</ele><time>2026-04-25T07:27:23.548Z</time></trkpt><trkpt lat="43.9568233" lon="12.729325"><ele>15.0</ele><time>2026-04-25T07:27:24.548Z</time></trkpt><trkpt lat="43.9567383" lon="12.7291667"><ele>15.0</ele><time>2026-04-25T07:27:25.548Z</time></trkpt><trkpt lat="43.9566333" lon="12.7289883"><ele>15.0</ele><time>2026-04-25T07:27:26.548Z</time></trkpt><trkpt lat="43.9565183" lon="12.7287933"><ele>15.0</ele><time>2026-04-25T07:27:27.547Z</time></trkpt><trkpt lat="43.9563917" lon="12.7285817"><ele>15.0</ele><time>2026-04-25T07:27:28.547Z</time></trkpt><trkpt lat="43.95627" lon="12.7283867"><ele>15.0</ele><time>2026-04-25T07:27:29.548Z</time></trkpt><trkpt lat="43.956155" lon="12.728215"><ele>15.0</ele><time>2026-04-25T07:27:30.548Z</time></trkpt><trkpt lat="43.9560333" lon="12.728045"><ele>15.0</ele><time>2026-04-25T07:27:31.548Z</time></trkpt><trkpt lat="43.955895" lon="12.7278567"><ele>15.0</ele><time>2026-04-25T07:27:32.548Z</time></trkpt><trkpt lat="43.955765" lon="12.7276783"><ele>15.333333333333332</ele><time>2026-04-25T07:27:33.548Z</time></trkpt><trkpt lat="43.9556433" lon="12.7275117"><ele>15.666666666666666</ele><time>2026-04-25T07:27:34.547Z</time></trkpt><trkpt lat="43.9555217" lon="12.727355"><ele>16.0</ele><time>2026-04-25T07:27:35.548Z</time></trkpt><trkpt lat="43.9554017" lon="12.7272"><ele>16.0</ele><time>2026-04-25T07:27:36.548Z</time></trkpt><trkpt lat="43.955285" lon="12.7270617"><ele>16.0</ele><time>2026-04-25T07:27:37.547Z</time></trkpt><trkpt lat="43.9551733" lon="12.72694"><ele>16.0</ele><time>2026-04-25T07:27:38.548Z</time></trkpt><trkpt lat="43.9550617" lon="12.7268283"><ele>16.0</ele><time>2026-04-25T07:27:39.547Z</time></trkpt><trkpt lat="43.9549483" lon="12.7267233"><ele>16.0</ele><time>2026-04-25T07:27:40.548Z</time></trkpt><trkpt lat="43.9548317" lon="12.72663"><ele>16.0</ele><time>2026-04-25T07:27:41.547Z</time></trkpt><trkpt lat="43.954725" lon="12.7265467"><ele>16.0</ele><time>2026-04-25T07:27:42.548Z</time></trkpt><trkpt lat="43.95463" lon="12.7264783"><ele>16.0</ele><time>2026-04-25T07:27:43.548Z</time></trkpt><trkpt lat="43.9545467" lon="12.72642"><ele>15.999999999999998</ele><time>2026-04-25T07:27:44.547Z</time></trkpt><trkpt lat="43.9544733" lon="12.7263667"><ele>16.0</ele><time>2026-04-25T07:27:45.548Z</time></trkpt><trkpt lat="43.9544167" lon="12.7263033"><ele>16.0</ele><time>2026-04-25T07:27:46.548Z</time></trkpt><trkpt lat="43.9543717" lon="12.7262283"><ele>16.0</ele><time>2026-04-25T07:27:47.547Z</time></trkpt><trkpt lat="43.9543383" lon="12.7261383"><ele>15.999999999999998</ele><time>2026-04-25T07:27:48.548Z</time></trkpt><trkpt lat="43.9543267" lon="12.7260317"><ele>16.0</ele><time>2026-04-25T07:27:49.548Z</time></trkpt><trkpt lat="43.954315" lon="12.7259183"><ele>15.857142857142856</ele><time>2026-04-25T07:27:50.547Z</time></trkpt><trkpt lat="43.95429" lon="12.7258333"><ele>15.714285714285712</ele><time>2026-04-25T07:27:51.548Z</time></trkpt><trkpt lat="43.95424" lon="12.725775"><ele>15.571428571428571</ele><time>2026-04-25T07:27:52.548Z</time></trkpt><trkpt lat="43.9541733" lon="12.7257433"><ele>15.428571428571427</ele><time>2026-04-25T07:27:53.547Z</time></trkpt><trkpt lat="43.9540967" lon="12.7257467"><ele>15.285714285714285</ele><time>2026-04-25T07:27:54.548Z</time></trkpt><trkpt lat="43.9540217" lon="12.7257733"><ele>15.142857142857142</ele><time>2026-04-25T07:27:55.547Z</time></trkpt><trkpt lat="43.9539433" lon="12.7258017"><ele>15.0</ele><time>2026-04-25T07:27:56.548Z</time></trkpt><trkpt lat="43.9538617" lon="12.7258117"><ele>15.75</ele><time>2026-04-25T07:27:57.547Z</time></trkpt><trkpt lat="43.95376" lon="12.72579"><ele>16.5</ele><time>2026-04-25T07:27:58.548Z</time></trkpt><trkpt lat="43.9536317" lon="12.7257433"><ele>17.25</ele><time>2026-04-25T07:27:59.548Z</time></trkpt><trkpt lat="43.9534883" lon="12.7256833"><ele>18.0</ele><time>2026-04-25T07:28:00.547Z</time></trkpt><trkpt lat="43.9533233" lon="12.7256217"><ele>18.666666666666668</ele><time>2026-04-25T07:28:01.548Z</time></trkpt><trkpt lat="43.95314" lon="12.72555"><ele>19.333333333333336</ele><time>2026-04-25T07:28:02.547Z</time></trkpt><trkpt lat="43.9529567" lon="12.7254733"><ele>20.0</ele><time>2026-04-25T07:28:03.548Z</time></trkpt><trkpt lat="43.9527933" lon="12.7254017"><ele>20.0</ele><time>2026-04-25T07:28:04.548Z</time></trkpt><trkpt lat="43.95265" lon="12.72534"><ele>20.0</ele><time>2026-04-25T07:28:05.547Z</time></trkpt><trkpt lat="43.9525133" lon="12.7252867"><ele>20.0</ele><time>2026-04-25T07:28:06.548Z</time></trkpt><trkpt lat="43.9523667" lon="12.7252333"><ele>20.0</ele><time>2026-04-25T07:28:07.548Z</time></trkpt><trkpt lat="43.9522267" lon="12.7251767"><ele>20.25</ele><time>2026-04-25T07:28:08.547Z</time></trkpt><trkpt lat="43.9520883" lon="12.7251217"><ele>20.5</ele><time>2026-04-25T07:28:09.547Z</time></trkpt><trkpt lat="43.95195" lon="12.7250667"><ele>20.75</ele><time>2026-04-25T07:28:10.547Z</time></trkpt><trkpt lat="43.9518183" lon="12.7250133"><ele>21.0</ele><time>2026-04-25T07:28:11.547Z</time></trkpt><trkpt lat="43.9516917" lon="12.7249583"><ele>21.0</ele><time>2026-04-25T07:28:12.548Z</time></trkpt><trkpt lat="43.9515667" lon="12.7249067"><ele>21.0</ele><time>2026-04-25T07:28:13.547Z</time></trkpt><trkpt lat="43.951445" lon="12.724855"><ele>21.0</ele><time>2026-04-25T07:28:14.548Z</time></trkpt><trkpt lat="43.9513167" lon="12.7248017"><ele>21.0</ele><time>2026-04-25T07:28:15.548Z</time></trkpt><trkpt lat="43.9511983" lon="12.72475"><ele>21.0</ele><time>2026-04-25T07:28:16.548Z</time></trkpt><trkpt lat="43.951085" lon="12.7247033"><ele>21.0</ele><time>2026-04-25T07:28:17.547Z</time></trkpt><trkpt lat="43.950975" lon="12.7246583"><ele>21.0</ele><time>2026-04-25T07:28:18.548Z</time></trkpt><trkpt lat="43.9508833" lon="12.7246183"><ele>21.0</ele><time>2026-04-25T07:28:19.548Z</time></trkpt><trkpt lat="43.9508033" lon="12.724585"><ele>21.0</ele><time>2026-04-25T07:28:20.548Z</time></trkpt><trkpt lat="43.95074" lon="12.7245533"><ele>20.666666666666668</ele><time>2026-04-25T07:28:21.547Z</time></trkpt><trkpt lat="43.9506783" lon="12.7245217"><ele>20.333333333333332</ele><time>2026-04-25T07:28:22.548Z</time></trkpt><trkpt lat="43.95057" lon="12.7244333"><ele>20.0</ele><time>2026-04-25T07:28:24.548Z</time></trkpt><trkpt lat="43.9505183" lon="12.724355"><ele>19.666666666666664</ele><time>2026-04-25T07:28:25.547Z</time></trkpt><trkpt lat="43.9504633" lon="12.7242717"><ele>19.333333333333332</ele><time>2026-04-25T07:28:26.548Z</time></trkpt><trkpt lat="43.950405" lon="12.7242017"><ele>19.0</ele><time>2026-04-25T07:28:27.547Z</time></trkpt><trkpt lat="43.950345" lon="12.72416"><ele>18.833333333333332</ele><time>2026-04-25T07:28:28.548Z</time></trkpt><trkpt lat="43.9502733" lon="12.7241383"><ele>18.666666666666664</ele><time>2026-04-25T07:28:29.547Z</time></trkpt><trkpt lat="43.9501933" lon="12.72412"><ele>18.5</ele><time>2026-04-25T07:28:30.547Z</time></trkpt><trkpt lat="43.9501167" lon="12.724085"><ele>18.333333333333332</ele><time>2026-04-25T07:28:31.548Z</time></trkpt><trkpt lat="43.950035" lon="12.7240367"><ele>18.166666666666668</ele><time>2026-04-25T07:28:32.548Z</time></trkpt><trkpt lat="43.949945" lon="12.72396"><ele>18.0</ele><time>2026-04-25T07:28:33.548Z</time></trkpt><trkpt lat="43.949855" lon="12.723865"><ele>18.25</ele><time>2026-04-25T07:28:34.548Z</time></trkpt><trkpt lat="43.9497667" lon="12.72375"><ele>18.5</ele><time>2026-04-25T07:28:35.547Z</time></trkpt><trkpt lat="43.94966" lon="12.7236233"><ele>18.75</ele><time>2026-04-25T07:28:36.548Z</time></trkpt><trkpt lat="43.94956" lon="12.7235017"><ele>19.0</ele><time>2026-04-25T07:28:37.548Z</time></trkpt><trkpt lat="43.9494617" lon="12.723385"><ele>19.0</ele><time>2026-04-25T07:28:38.548Z</time></trkpt><trkpt lat="43.9493583" lon="12.72326"><ele>19.0</ele><time>2026-04-25T07:28:39.547Z</time></trkpt><trkpt lat="43.94926" lon="12.7231333"><ele>19.0</ele><time>2026-04-25T07:28:40.548Z</time></trkpt><trkpt lat="43.9491667" lon="12.7230117"><ele>19.0</ele><time>2026-04-25T07:28:41.548Z</time></trkpt><trkpt lat="43.9490767" lon="12.7228967"><ele>19.25</ele><time>2026-04-25T07:28:42.548Z</time></trkpt><trkpt lat="43.9489817" lon="12.7227883"><ele>19.5</ele><time>2026-04-25T07:28:43.548Z</time></trkpt><trkpt lat="43.9488833" lon="12.7226683"><ele>19.75</ele><time>2026-04-25T07:28:44.548Z</time></trkpt><trkpt lat="43.9487833" lon="12.7225467"><ele>20.0</ele><time>2026-04-25T07:28:45.547Z</time></trkpt><trkpt lat="43.9486883" lon="12.7224333"><ele>20.0</ele><time>2026-04-25T07:28:46.548Z</time></trkpt><trkpt lat="43.9485983" lon="12.722325"><ele>20.0</ele><time>2026-04-25T07:28:47.548Z</time></trkpt><trkpt lat="43.9485083" lon="12.7222167"><ele>20.0</ele><time>2026-04-25T07:28:48.548Z</time></trkpt><trkpt lat="43.948415" lon="12.7221"><ele>20.0</ele><time>2026-04-25T07:28:49.548Z</time></trkpt><trkpt lat="43.9483133" lon="12.7219883"><ele>20.6</ele><time>2026-04-25T07:28:50.548Z</time></trkpt><trkpt lat="43.9482233" lon="12.7218717"><ele>21.2</ele><time>2026-04-25T07:28:51.548Z</time></trkpt><trkpt lat="43.9481367" lon="12.7217733"><ele>21.799999999999997</ele><time>2026-04-25T07:28:52.547Z</time></trkpt><trkpt lat="43.9480667" lon="12.721675"><ele>22.4</ele><time>2026-04-25T07:28:53.547Z</time></trkpt><trkpt lat="43.9480067" lon="12.721585"><ele>23.0</ele><time>2026-04-25T07:28:54.548Z</time></trkpt><trkpt lat="43.9479633" lon="12.7214917"><ele>23.0</ele><time>2026-04-25T07:28:55.548Z</time></trkpt><trkpt lat="43.947925" lon="12.721395"><ele>23.0</ele><time>2026-04-25T07:28:56.548Z</time></trkpt><trkpt lat="43.947885" lon="12.7213033"><ele>23.0</ele><time>2026-04-25T07:28:57.548Z</time></trkpt><trkpt lat="43.9478283" lon="12.721225"><ele>23.0</ele><time>2026-04-25T07:28:58.547Z</time></trkpt><trkpt lat="43.9477567" lon="12.721165"><ele>23.0</ele><time>2026-04-25T07:28:59.547Z</time></trkpt><trkpt lat="43.9476567" lon="12.7211117"><ele>23.0</ele><time>2026-04-25T07:29:00.548Z</time></trkpt><trkpt lat="43.9475417" lon="12.72105"><ele>23.333333333333336</ele><time>2026-04-25T07:29:01.547Z</time></trkpt><trkpt lat="43.9474117" lon="12.7209533"><ele>23.666666666666668</ele><time>2026-04-25T07:29:02.548Z</time></trkpt><trkpt lat="43.9472783" lon="12.7208217"><ele>24.0</ele><time>2026-04-25T07:29:03.548Z</time></trkpt><trkpt lat="43.947155" lon="12.72069"><ele>24.0</ele><time>2026-04-25T07:29:04.547Z</time></trkpt><trkpt lat="43.94704" lon="12.720565"><ele>24.0</ele><time>2026-04-25T07:29:05.548Z</time></trkpt><trkpt lat="43.946925" lon="12.720445"><ele>24.0</ele><time>2026-04-25T07:29:06.548Z</time></trkpt><trkpt lat="43.9467967" lon="12.7203117"><ele>24.0</ele><time>2026-04-25T07:29:07.547Z</time></trkpt><trkpt lat="43.946665" lon="12.7201783"><ele>24.0</ele><time>2026-04-25T07:29:08.548Z</time></trkpt><trkpt lat="43.946535" lon="12.7200533"><ele>24.0</ele><time>2026-04-25T07:29:09.547Z</time></trkpt><trkpt lat="43.9464217" lon="12.7199367"><ele>24.0</ele><time>2026-04-25T07:29:10.548Z</time></trkpt><trkpt lat="43.9463" lon="12.7198167"><ele>24.0</ele><time>2026-04-25T07:29:11.548Z</time></trkpt><trkpt lat="43.9461767" lon="12.719695"><ele>24.0</ele><time>2026-04-25T07:29:12.548Z</time></trkpt><trkpt lat="43.9460417" lon="12.7195617"><ele>24.0</ele><time>2026-04-25T07:29:13.548Z</time></trkpt><trkpt lat="43.945915" lon="12.7194367"><ele>24.0</ele><time>2026-04-25T07:29:14.548Z</time></trkpt><trkpt lat="43.945795" lon="12.7193217"><ele>24.0</ele><time>2026-04-25T07:29:15.548Z</time></trkpt><trkpt lat="43.9456833" lon="12.7192033"><ele>24.0</ele><time>2026-04-25T07:29:16.547Z</time></trkpt><trkpt lat="43.9455483" lon="12.7190833"><ele>24.666666666666664</ele><time>2026-04-25T07:29:17.548Z</time></trkpt><trkpt lat="43.945395" lon="12.7189367"><ele>25.333333333333332</ele><time>2026-04-25T07:29:18.548Z</time></trkpt><trkpt lat="43.945235" lon="12.7187867"><ele>26.0</ele><time>2026-04-25T07:29:19.548Z</time></trkpt><trkpt lat="43.9450917" lon="12.7186317"><ele>25.666666666666664</ele><time>2026-04-25T07:29:20.548Z</time></trkpt><trkpt lat="43.94496" lon="12.7184917"><ele>25.333333333333336</ele><time>2026-04-25T07:29:21.548Z</time></trkpt><trkpt lat="43.9448483" lon="12.7183533"><ele>25.0</ele><time>2026-04-25T07:29:22.548Z</time></trkpt><trkpt lat="43.9447417" lon="12.718235"><ele>25.0</ele><time>2026-04-25T07:29:23.547Z</time></trkpt><trkpt lat="43.944655" lon="12.7181183"><ele>25.0</ele><time>2026-04-25T07:29:24.548Z</time></trkpt><trkpt lat="43.944575" lon="12.7180083"><ele>25.0</ele><time>2026-04-25T07:29:25.547Z</time></trkpt><trkpt lat="43.9445" lon="12.717895"><ele>25.0</ele><time>2026-04-25T07:29:26.548Z</time></trkpt><trkpt lat="43.9444267" lon="12.717765"><ele>25.0</ele><time>2026-04-25T07:29:27.548Z</time></trkpt><trkpt lat="43.944355" lon="12.7176217"><ele>25.0</ele><time>2026-04-25T07:29:28.548Z</time></trkpt><trkpt lat="43.94429" lon="12.71747"><ele>25.0</ele><time>2026-04-25T07:29:29.548Z</time></trkpt><trkpt lat="43.944225" lon="12.7173117"><ele>25.0</ele><time>2026-04-25T07:29:30.547Z</time></trkpt><trkpt lat="43.9441733" lon="12.7171483"><ele>24.75</ele><time>2026-04-25T07:29:31.548Z</time></trkpt><trkpt lat="43.9441317" lon="12.71698"><ele>24.5</ele><time>2026-04-25T07:29:32.548Z</time></trkpt><trkpt lat="43.9440983" lon="12.7167983"><ele>24.25</ele><time>2026-04-25T07:29:33.548Z</time></trkpt><trkpt lat="43.9440717" lon="12.7166083"><ele>24.0</ele><time>2026-04-25T07:29:34.548Z</time></trkpt><trkpt lat="43.94406" lon="12.716405"><ele>24.0</ele><time>2026-04-25T07:29:35.548Z</time></trkpt><trkpt lat="43.9440633" lon="12.7161683"><ele>24.0</ele><time>2026-04-25T07:29:36.548Z</time></trkpt><trkpt lat="43.9440633" lon="12.71592"><ele>24.0</ele><time>2026-04-25T07:29:37.548Z</time></trkpt><trkpt lat="43.9440767" lon="12.7156717"><ele>24.333333333333336</ele><time>2026-04-25T07:29:38.548Z</time></trkpt><trkpt lat="43.94408" lon="12.7154117"><ele>24.666666666666668</ele><time>2026-04-25T07:29:39.548Z</time></trkpt><trkpt lat="43.944085" lon="12.7151283"><ele>25.0</ele><time>2026-04-25T07:29:40.548Z</time></trkpt><trkpt lat="43.9440983" lon="12.7148533"><ele>25.0</ele><time>2026-04-25T07:29:41.547Z</time></trkpt><trkpt lat="43.9441" lon="12.7145767"><ele>25.0</ele><time>2026-04-25T07:29:42.548Z</time></trkpt><trkpt lat="43.9440933" lon="12.7142817"><ele>25.0</ele><time>2026-04-25T07:29:43.548Z</time></trkpt><trkpt lat="43.94408" lon="12.7139917"><ele>25.0</ele><time>2026-04-25T07:29:44.547Z</time></trkpt><trkpt lat="43.944065" lon="12.71371"><ele>25.0</ele><time>2026-04-25T07:29:45.547Z</time></trkpt><trkpt lat="43.9440333" lon="12.713415"><ele>25.0</ele><time>2026-04-25T07:29:46.548Z</time></trkpt><trkpt lat="43.9439933" lon="12.713095"><ele>25.0</ele><time>2026-04-25T07:29:47.548Z</time></trkpt><trkpt lat="43.9439517" lon="12.7127967"><ele>25.0</ele><time>2026-04-25T07:29:48.548Z</time></trkpt><trkpt lat="43.9439067" lon="12.7125083"><ele>25.0</ele><time>2026-04-25T07:29:49.548Z</time></trkpt><trkpt lat="43.9438517" lon="12.7122233"><ele>25.0</ele><time>2026-04-25T07:29:50.548Z</time></trkpt><trkpt lat="43.94378" lon="12.711935"><ele>25.0</ele><time>2026-04-25T07:29:51.547Z</time></trkpt><trkpt lat="43.943715" lon="12.7116583"><ele>25.0</ele><time>2026-04-25T07:29:52.548Z</time></trkpt><trkpt lat="43.94364" lon="12.7114"><ele>25.0</ele><time>2026-04-25T07:29:53.548Z</time></trkpt><trkpt lat="43.943555" lon="12.7111433"><ele>25.0</ele><time>2026-04-25T07:29:54.548Z</time></trkpt><trkpt lat="43.943465" lon="12.7108817"><ele>25.0</ele><time>2026-04-25T07:29:55.547Z</time></trkpt><trkpt lat="43.9433633" lon="12.710615"><ele>24.666666666666668</ele><time>2026-04-25T07:29:56.548Z</time></trkpt><trkpt lat="43.9432633" lon="12.7103433"><ele>24.333333333333336</ele><time>2026-04-25T07:29:57.548Z</time></trkpt><trkpt lat="43.943165" lon="12.7100883"><ele>24.0</ele><time>2026-04-25T07:29:58.548Z</time></trkpt><trkpt lat="43.9430633" lon="12.709845"><ele>24.666666666666664</ele><time>2026-04-25T07:29:59.548Z</time></trkpt><trkpt lat="43.9429633" lon="12.7095983"><ele>25.333333333333332</ele><time>2026-04-25T07:30:00.547Z</time></trkpt><trkpt lat="43.94287" lon="12.7093567"><ele>26.0</ele><time>2026-04-25T07:30:01.547Z</time></trkpt><trkpt lat="43.942775" lon="12.7091133"><ele>26.333333333333332</ele><time>2026-04-25T07:30:02.548Z</time></trkpt><trkpt lat="43.9426733" lon="12.708865"><ele>26.666666666666664</ele><time>2026-04-25T07:30:03.548Z</time></trkpt><trkpt lat="43.94257" lon="12.7086167"><ele>27.0</ele><time>2026-04-25T07:30:04.548Z</time></trkpt><trkpt lat="43.942475" lon="12.7083733"><ele>27.333333333333336</ele><time>2026-04-25T07:30:05.548Z</time></trkpt><trkpt lat="43.9423833" lon="12.7081333"><ele>27.666666666666668</ele><time>2026-04-25T07:30:06.547Z</time></trkpt><trkpt lat="43.942295" lon="12.707895"><ele>28.0</ele><time>2026-04-25T07:30:07.548Z</time></trkpt><trkpt lat="43.94221" lon="12.7076583"><ele>28.333333333333336</ele><time>2026-04-25T07:30:08.548Z</time></trkpt><trkpt lat="43.9421217" lon="12.7074317"><ele>28.666666666666664</ele><time>2026-04-25T07:30:09.548Z</time></trkpt><trkpt lat="43.94204" lon="12.7072117"><ele>29.0</ele><time>2026-04-25T07:30:10.548Z</time></trkpt><trkpt lat="43.941955" lon="12.7069833"><ele>29.0</ele><time>2026-04-25T07:30:11.548Z</time></trkpt><trkpt lat="43.9418667" lon="12.70676"><ele>29.0</ele><time>2026-04-25T07:30:12.547Z</time></trkpt><trkpt lat="43.941775" lon="12.7065383"><ele>29.0</ele><time>2026-04-25T07:30:13.548Z</time></trkpt><trkpt lat="43.9416867" lon="12.7063283"><ele>28.666666666666664</ele><time>2026-04-25T07:30:14.547Z</time></trkpt><trkpt lat="43.9415967" lon="12.7061217"><ele>28.333333333333336</ele><time>2026-04-25T07:30:15.548Z</time></trkpt><trkpt lat="43.941515" lon="12.7059133"><ele>28.0</ele><time>2026-04-25T07:30:16.548Z</time></trkpt><trkpt lat="43.9414317" lon="12.7057017"><ele>28.0</ele><time>2026-04-25T07:30:17.548Z</time></trkpt><trkpt lat="43.9413517" lon="12.7054883"><ele>28.0</ele><time>2026-04-25T07:30:18.548Z</time></trkpt><trkpt lat="43.9412733" lon="12.7052883"><ele>28.0</ele><time>2026-04-25T07:30:19.548Z</time></trkpt><trkpt lat="43.9411833" lon="12.70509"><ele>28.666666666666668</ele><time>2026-04-25T07:30:20.547Z</time></trkpt><trkpt lat="43.9410967" lon="12.70488"><ele>29.333333333333336</ele><time>2026-04-25T07:30:21.548Z</time></trkpt><trkpt lat="43.9410183" lon="12.7046767"><ele>30.0</ele><time>2026-04-25T07:30:22.548Z</time></trkpt><trkpt lat="43.9409433" lon="12.7044783"><ele>30.75</ele><time>2026-04-25T07:30:23.547Z</time></trkpt><trkpt lat="43.9408717" lon="12.7042883"><ele>31.5</ele><time>2026-04-25T07:30:24.547Z</time></trkpt><trkpt lat="43.9408033" lon="12.7041117"><ele>32.25</ele><time>2026-04-25T07:30:25.547Z</time></trkpt><trkpt lat="43.9407433" lon="12.7039417"><ele>33.0</ele><time>2026-04-25T07:30:26.548Z</time></trkpt><trkpt lat="43.9406817" lon="12.703785"><ele>33.0</ele><time>2026-04-25T07:30:27.547Z</time></trkpt><trkpt lat="43.940625" lon="12.703635"><ele>33.0</ele><time>2026-04-25T07:30:28.548Z</time></trkpt><trkpt lat="43.9405833" lon="12.70349"><ele>33.0</ele><time>2026-04-25T07:30:29.547Z</time></trkpt><trkpt lat="43.94055" lon="12.7033433"><ele>33.0</ele><time>2026-04-25T07:30:30.548Z</time></trkpt><trkpt lat="43.9405183" lon="12.7031983"><ele>33.0</ele><time>2026-04-25T07:30:31.548Z</time></trkpt><trkpt lat="43.9404883" lon="12.703035"><ele>33.0</ele><time>2026-04-25T07:30:32.548Z</time></trkpt><trkpt lat="43.9404633" lon="12.702865"><ele>33.0</ele><time>2026-04-25T07:30:33.548Z</time></trkpt><trkpt lat="43.9404367" lon="12.70269"><ele>33.0</ele><time>2026-04-25T07:30:34.548Z</time></trkpt><trkpt lat="43.9404117" lon="12.7025117"><ele>33.0</ele><time>2026-04-25T07:30:35.547Z</time></trkpt><trkpt lat="43.94038" lon="12.70234"><ele>33.0</ele><time>2026-04-25T07:30:36.548Z</time></trkpt><trkpt lat="43.9403417" lon="12.7021883"><ele>33.0</ele><time>2026-04-25T07:30:37.547Z</time></trkpt><trkpt lat="43.940295" lon="12.702065"><ele>33.0</ele><time>2026-04-25T07:30:38.548Z</time></trkpt><trkpt lat="43.9402267" lon="12.70196"><ele>33.0</ele><time>2026-04-25T07:30:39.547Z</time></trkpt><trkpt lat="43.9401417" lon="12.701875"><ele>33.199999999999996</ele><time>2026-04-25T07:30:40.548Z</time></trkpt><trkpt lat="43.940055" lon="12.7018267"><ele>33.4</ele><time>2026-04-25T07:30:41.548Z</time></trkpt><trkpt lat="43.939965" lon="12.7018233"><ele>33.599999999999994</ele><time>2026-04-25T07:30:42.546Z</time></trkpt><trkpt lat="43.9398833" lon="12.7018617"><ele>33.8</ele><time>2026-04-25T07:30:43.547Z</time></trkpt><trkpt lat="43.93982" lon="12.70194"><ele>34.0</ele><time>2026-04-25T07:30:44.547Z</time></trkpt><trkpt lat="43.9397683" lon="12.70207"><ele>34.0</ele><time>2026-04-25T07:30:45.547Z</time></trkpt><trkpt lat="43.93974" lon="12.7022333"><ele>34.0</ele><time>2026-04-25T07:30:46.546Z</time></trkpt><trkpt lat="43.9397133" lon="12.7023983"><ele>34.0</ele><time>2026-04-25T07:30:47.547Z</time></trkpt><trkpt lat="43.9396617" lon="12.70254"><ele>34.0</ele><time>2026-04-25T07:30:48.547Z</time></trkpt><trkpt lat="43.9395917" lon="12.7026567"><ele>33.8</ele><time>2026-04-25T07:30:49.547Z</time></trkpt><trkpt lat="43.9394917" lon="12.7027633"><ele>33.599999999999994</ele><time>2026-04-25T07:30:50.546Z</time></trkpt><trkpt lat="43.939385" lon="12.7028483"><ele>33.4</ele><time>2026-04-25T07:30:51.546Z</time></trkpt><trkpt lat="43.9392867" lon="12.7029183"><ele>33.199999999999996</ele><time>2026-04-25T07:30:52.547Z</time></trkpt><trkpt lat="43.9392083" lon="12.7029783"><ele>33.0</ele><time>2026-04-25T07:30:53.547Z</time></trkpt><trkpt lat="43.939135" lon="12.7030217"><ele>32.833333333333336</ele><time>2026-04-25T07:30:54.547Z</time></trkpt><trkpt lat="43.93907" lon="12.7030667"><ele>32.666666666666664</ele><time>2026-04-25T07:30:55.547Z</time></trkpt><trkpt lat="43.9390083" lon="12.70311"><ele>32.5</ele><time>2026-04-25T07:30:56.547Z</time></trkpt><trkpt lat="43.93895" lon="12.7031533"><ele>32.33333333333333</ele><time>2026-04-25T07:30:57.546Z</time></trkpt><trkpt lat="43.9388483" lon="12.7032317"><ele>32.166666666666664</ele><time>2026-04-25T07:30:59.547Z</time></trkpt><trkpt lat="43.938765" lon="12.7032867"><ele>32.0</ele><time>2026-04-25T07:31:01.547Z</time></trkpt><trkpt lat="43.9386933" lon="12.7033383"><ele>32.0</ele><time>2026-04-25T07:31:03.546Z</time></trkpt><trkpt lat="43.9386117" lon="12.7034"><ele>32.0</ele><time>2026-04-25T07:31:06.547Z</time></trkpt><trkpt lat="43.93855" lon="12.7034417"><ele>32.0</ele><time>2026-04-25T07:31:09.547Z</time></trkpt><trkpt lat="43.9384667" lon="12.7035083"><ele>32.0</ele><time>2026-04-25T07:32:15.547Z</time></trkpt><trkpt lat="43.9384183" lon="12.7035767"><ele>32.0</ele><time>2026-04-25T07:32:17.546Z</time></trkpt><trkpt lat="43.9383133" lon="12.7036833"><ele>32.285714285714285</ele><time>2026-04-25T07:32:19.547Z</time></trkpt><trkpt lat="43.9382467" lon="12.7037433"><ele>32.57142857142857</ele><time>2026-04-25T07:32:20.546Z</time></trkpt><trkpt lat="43.938175" lon="12.7038033"><ele>32.857142857142854</ele><time>2026-04-25T07:32:21.547Z</time></trkpt><trkpt lat="43.9381067" lon="12.7038583"><ele>33.14285714285714</ele><time>2026-04-25T07:32:22.547Z</time></trkpt><trkpt lat="43.9380467" lon="12.7039017"><ele>33.42857142857143</ele><time>2026-04-25T07:32:23.546Z</time></trkpt><trkpt lat="43.9379933" lon="12.70395"><ele>33.71428571428571</ele><time>2026-04-25T07:32:24.547Z</time></trkpt><trkpt lat="43.9379383" lon="12.7040167"><ele>34.0</ele><time>2026-04-25T07:32:25.547Z</time></trkpt><trkpt lat="43.9378933" lon="12.7040867"><ele>34.0</ele><time>2026-04-25T07:32:26.547Z</time></trkpt><trkpt lat="43.9378" lon="12.7042033"><ele>34.0</ele><time>2026-04-25T07:32:28.546Z</time></trkpt><trkpt lat="43.93774" lon="12.7042383"><ele>34.0</ele><time>2026-04-25T07:32:29.547Z</time></trkpt><trkpt lat="43.9376233" lon="12.7042067"><ele>34.0</ele><time>2026-04-25T07:32:31.547Z</time></trkpt><trkpt lat="43.93757" lon="12.7041367"><ele>34.0</ele><time>2026-04-25T07:32:32.546Z</time></trkpt><trkpt lat="43.9375117" lon="12.7040433"><ele>34.0</ele><time>2026-04-25T07:32:33.547Z</time></trkpt><trkpt lat="43.9374383" lon="12.7039383"><ele>34.0</ele><time>2026-04-25T07:32:34.547Z</time></trkpt><trkpt lat="43.9373517" lon="12.70384"><ele>34.0</ele><time>2026-04-25T07:32:35.547Z</time></trkpt><trkpt lat="43.9372667" lon="12.7037417"><ele>34.0</ele><time>2026-04-25T07:32:36.547Z</time></trkpt><trkpt lat="43.9371767" lon="12.70363"><ele>34.0</ele><time>2026-04-25T07:32:37.547Z</time></trkpt><trkpt lat="43.937085" lon="12.7034917"><ele>34.0</ele><time>2026-04-25T07:32:38.547Z</time></trkpt><trkpt lat="43.936985" lon="12.7033467"><ele>34.0</ele><time>2026-04-25T07:32:39.547Z</time></trkpt><trkpt lat="43.9368933" lon="12.7032133"><ele>34.0</ele><time>2026-04-25T07:32:40.547Z</time></trkpt><trkpt lat="43.9368" lon="12.7030833"><ele>34.0</ele><time>2026-04-25T07:32:41.547Z</time></trkpt><trkpt lat="43.9367067" lon="12.7029517"><ele>34.25</ele><time>2026-04-25T07:32:42.547Z</time></trkpt><trkpt lat="43.9366167" lon="12.702825"><ele>34.5</ele><time>2026-04-25T07:32:43.547Z</time></trkpt><trkpt lat="43.9365317" lon="12.702705"><ele>34.75</ele><time>2026-04-25T07:32:44.547Z</time></trkpt><trkpt lat="43.9364483" lon="12.702595"><ele>35.0</ele><time>2026-04-25T07:32:45.547Z</time></trkpt><trkpt lat="43.9363733" lon="12.702495"><ele>35.5</ele><time>2026-04-25T07:32:46.546Z</time></trkpt><trkpt lat="43.9363017" lon="12.702395"><ele>36.0</ele><time>2026-04-25T07:32:47.547Z</time></trkpt><trkpt lat="43.9362233" lon="12.7022817"><ele>36.5</ele><time>2026-04-25T07:32:48.547Z</time></trkpt><trkpt lat="43.9361417" lon="12.7021417"><ele>37.0</ele><time>2026-04-25T07:32:49.547Z</time></trkpt><trkpt lat="43.9360533" lon="12.7019667"><ele>37.333333333333336</ele><time>2026-04-25T07:32:50.547Z</time></trkpt><trkpt lat="43.9359533" lon="12.7017917"><ele>37.666666666666664</ele><time>2026-04-25T07:32:51.547Z</time></trkpt><trkpt lat="43.9358667" lon="12.7015983"><ele>38.0</ele><time>2026-04-25T07:32:52.547Z</time></trkpt><trkpt lat="43.93582" lon="12.7013933"><ele>38.0</ele><time>2026-04-25T07:32:53.546Z</time></trkpt><trkpt lat="43.93575" lon="12.701185"><ele>38.0</ele><time>2026-04-25T07:32:54.547Z</time></trkpt><trkpt lat="43.9357033" lon="12.700965"><ele>38.0</ele><time>2026-04-25T07:32:55.546Z</time></trkpt><trkpt lat="43.9356767" lon="12.700755"><ele>38.0</ele><time>2026-04-25T07:32:56.547Z</time></trkpt><trkpt lat="43.9356567" lon="12.7005567"><ele>38.0</ele><time>2026-04-25T07:32:57.547Z</time></trkpt><trkpt lat="43.93563" lon="12.7003667"><ele>38.0</ele><time>2026-04-25T07:32:58.546Z</time></trkpt><trkpt lat="43.9355933" lon="12.7001933"><ele>38.0</ele><time>2026-04-25T07:32:59.547Z</time></trkpt><trkpt lat="43.9355433" lon="12.70002"><ele>38.0</ele><time>2026-04-25T07:33:00.546Z</time></trkpt><trkpt lat="43.935485" lon="12.69985"><ele>38.0</ele><time>2026-04-25T07:33:01.547Z</time></trkpt><trkpt lat="43.9354267" lon="12.6996867"><ele>38.0</ele><time>2026-04-25T07:33:02.547Z</time></trkpt><trkpt lat="43.9353583" lon="12.6995167"><ele>38.0</ele><time>2026-04-25T07:33:03.547Z</time></trkpt><trkpt lat="43.9352717" lon="12.69935"><ele>38.0</ele><time>2026-04-25T07:33:04.546Z</time></trkpt><trkpt lat="43.935175" lon="12.6991833"><ele>38.0</ele><time>2026-04-25T07:33:05.546Z</time></trkpt><trkpt lat="43.9350767" lon="12.6990233"><ele>38.0</ele><time>2026-04-25T07:33:06.546Z</time></trkpt><trkpt lat="43.934975" lon="12.6988883"><ele>38.0</ele><time>2026-04-25T07:33:07.546Z</time></trkpt><trkpt lat="43.9348933" lon="12.6987667"><ele>38.0</ele><time>2026-04-25T07:33:08.546Z</time></trkpt><trkpt lat="43.9347967" lon="12.698645"><ele>38.0</ele><time>2026-04-25T07:33:09.546Z</time></trkpt><trkpt lat="43.934705" lon="12.69854"><ele>38.0</ele><time>2026-04-25T07:33:10.547Z</time></trkpt><trkpt lat="43.9346083" lon="12.6984483"><ele>38.0</ele><time>2026-04-25T07:33:11.547Z</time></trkpt><trkpt lat="43.93451" lon="12.69835"><ele>38.0</ele><time>2026-04-25T07:33:12.547Z</time></trkpt><trkpt lat="43.934415" lon="12.698245"><ele>38.0</ele><time>2026-04-25T07:33:13.547Z</time></trkpt><trkpt lat="43.9343183" lon="12.6981383"><ele>38.0</ele><time>2026-04-25T07:33:14.546Z</time></trkpt><trkpt lat="43.93423" lon="12.6980317"><ele>38.0</ele><time>2026-04-25T07:33:15.547Z</time></trkpt><trkpt lat="43.9341417" lon="12.6979233"><ele>38.0</ele><time>2026-04-25T07:33:16.547Z</time></trkpt><trkpt lat="43.93403" lon="12.69779"><ele>38.0</ele><time>2026-04-25T07:33:17.546Z</time></trkpt><trkpt lat="43.93391" lon="12.6976183"><ele>38.0</ele><time>2026-04-25T07:33:18.546Z</time></trkpt><trkpt lat="43.9337817" lon="12.6974317"><ele>38.0</ele><time>2026-04-25T07:33:19.546Z</time></trkpt><trkpt lat="43.9336533" lon="12.69726"><ele>38.0</ele><time>2026-04-25T07:33:20.546Z</time></trkpt><trkpt lat="43.9335333" lon="12.6971033"><ele>38.0</ele><time>2026-04-25T07:33:21.547Z</time></trkpt><trkpt lat="43.933405" lon="12.69696"><ele>38.666666666666664</ele><time>2026-04-25T07:33:22.546Z</time></trkpt><trkpt lat="43.9332967" lon="12.6968117"><ele>39.333333333333336</ele><time>2026-04-25T07:33:23.546Z</time></trkpt><trkpt lat="43.9331833" lon="12.6966667"><ele>40.0</ele><time>2026-04-25T07:33:24.547Z</time></trkpt><trkpt lat="43.933065" lon="12.6965117"><ele>40.0</ele><time>2026-04-25T07:33:25.547Z</time></trkpt><trkpt lat="43.9329367" lon="12.6963483"><ele>40.0</ele><time>2026-04-25T07:33:26.547Z</time></trkpt><trkpt lat="43.9328183" lon="12.6961733"><ele>40.0</ele><time>2026-04-25T07:33:27.547Z</time></trkpt><trkpt lat="43.9327033" lon="12.6959733"><ele>40.0</ele><time>2026-04-25T07:33:28.547Z</time></trkpt><trkpt lat="43.9325933" lon="12.6958"><ele>40.0</ele><time>2026-04-25T07:33:29.547Z</time></trkpt><trkpt lat="43.9324983" lon="12.69564"><ele>40.0</ele><time>2026-04-25T07:33:30.547Z</time></trkpt><trkpt lat="43.9324033" lon="12.69548"><ele>40.0</ele><time>2026-04-25T07:33:31.547Z</time></trkpt><trkpt lat="43.93232" lon="12.6953183"><ele>40.0</ele><time>2026-04-25T07:33:32.546Z</time></trkpt><trkpt lat="43.93222" lon="12.695145"><ele>40.0</ele><time>2026-04-25T07:33:33.546Z</time></trkpt><trkpt lat="43.9321167" lon="12.69497"><ele>40.333333333333336</ele><time>2026-04-25T07:33:34.547Z</time></trkpt><trkpt lat="43.9320183" lon="12.6947983"><ele>40.666666666666664</ele><time>2026-04-25T07:33:35.547Z</time></trkpt><trkpt lat="43.931925" lon="12.69463"><ele>41.0</ele><time>2026-04-25T07:33:36.547Z</time></trkpt><trkpt lat="43.931825" lon="12.6944633"><ele>41.0</ele><time>2026-04-25T07:33:37.547Z</time></trkpt><trkpt lat="43.9317383" lon="12.6943067"><ele>41.0</ele><time>2026-04-25T07:33:38.547Z</time></trkpt><trkpt lat="43.9316383" lon="12.69414"><ele>41.0</ele><time>2026-04-25T07:33:39.547Z</time></trkpt><trkpt lat="43.93154" lon="12.6939717"><ele>41.25</ele><time>2026-04-25T07:33:40.546Z</time></trkpt><trkpt lat="43.9314517" lon="12.6938117"><ele>41.5</ele><time>2026-04-25T07:33:41.547Z</time></trkpt><trkpt lat="43.9313667" lon="12.6936617"><ele>41.75</ele><time>2026-04-25T07:33:42.546Z</time></trkpt><trkpt lat="43.9312833" lon="12.693515"><ele>42.0</ele><time>2026-04-25T07:33:43.546Z</time></trkpt><trkpt lat="43.9311983" lon="12.69338"><ele>42.25</ele><time>2026-04-25T07:33:44.546Z</time></trkpt><trkpt lat="43.931125" lon="12.6932417"><ele>42.5</ele><time>2026-04-25T07:33:45.546Z</time></trkpt><trkpt lat="43.93105" lon="12.69311"><ele>42.75</ele><time>2026-04-25T07:33:46.547Z</time></trkpt><trkpt lat="43.93098" lon="12.6929883"><ele>43.0</ele><time>2026-04-25T07:33:47.546Z</time></trkpt><trkpt lat="43.9309067" lon="12.69286"><ele>42.75</ele><time>2026-04-25T07:33:48.546Z</time></trkpt><trkpt lat="43.9308267" lon="12.6927283"><ele>42.5</ele><time>2026-04-25T07:33:49.546Z</time></trkpt><trkpt lat="43.9307417" lon="12.6926017"><ele>42.25</ele><time>2026-04-25T07:33:50.547Z</time></trkpt><trkpt lat="43.9306583" lon="12.6924633"><ele>42.0</ele><time>2026-04-25T07:33:51.547Z</time></trkpt><trkpt lat="43.93057" lon="12.6923167"><ele>42.0</ele><time>2026-04-25T07:33:52.547Z</time></trkpt><trkpt lat="43.9304867" lon="12.6921617"><ele>42.0</ele><time>2026-04-25T07:33:53.547Z</time></trkpt><trkpt lat="43.9304067" lon="12.6920183"><ele>42.0</ele><time>2026-04-25T07:33:54.547Z</time></trkpt><trkpt lat="43.93033" lon="12.6918783"><ele>42.0</ele><time>2026-04-25T07:33:55.547Z</time></trkpt><trkpt lat="43.93025" lon="12.6917333"><ele>42.25</ele><time>2026-04-25T07:33:56.547Z</time></trkpt><trkpt lat="43.93016" lon="12.691585"><ele>42.5</ele><time>2026-04-25T07:33:57.547Z</time></trkpt><trkpt lat="43.93007" lon="12.6914367"><ele>42.75</ele><time>2026-04-25T07:33:58.546Z</time></trkpt><trkpt lat="43.929985" lon="12.6913"><ele>43.0</ele><time>2026-04-25T07:33:59.546Z</time></trkpt><trkpt lat="43.929905" lon="12.69116"><ele>43.2</ele><time>2026-04-25T07:34:00.547Z</time></trkpt><trkpt lat="43.9298317" lon="12.6910333"><ele>43.4</ele><time>2026-04-25T07:34:01.547Z</time></trkpt><trkpt lat="43.929765" lon="12.690915"><ele>43.6</ele><time>2026-04-25T07:34:02.547Z</time></trkpt><trkpt lat="43.929705" lon="12.6908017"><ele>43.800000000000004</ele><time>2026-04-25T07:34:03.547Z</time></trkpt><trkpt lat="43.9296783" lon="12.69068"><ele>44.0</ele><time>2026-04-25T07:34:04.547Z</time></trkpt><trkpt lat="43.9296617" lon="12.6905533"><ele>44.0</ele><time>2026-04-25T07:34:05.547Z</time></trkpt><trkpt lat="43.92962" lon="12.69046"><ele>44.0</ele><time>2026-04-25T07:34:06.546Z</time></trkpt><trkpt lat="43.9295533" lon="12.690395"><ele>44.0</ele><time>2026-04-25T07:34:07.547Z</time></trkpt><trkpt lat="43.9294633" lon="12.6903233"><ele>44.0</ele><time>2026-04-25T07:34:08.547Z</time></trkpt><trkpt lat="43.9293567" lon="12.6902217"><ele>44.0</ele><time>2026-04-25T07:34:09.547Z</time></trkpt><trkpt lat="43.9292567" lon="12.6900583"><ele>44.666666666666664</ele><time>2026-04-25T07:34:10.547Z</time></trkpt><trkpt lat="43.92915" lon="12.6898733"><ele>45.333333333333336</ele><time>2026-04-25T07:34:11.546Z</time></trkpt><trkpt lat="43.929035" lon="12.689695"><ele>46.0</ele><time>2026-04-25T07:34:12.547Z</time></trkpt><trkpt lat="43.9289083" lon="12.6895233"><ele>46.0</ele><time>2026-04-25T07:34:13.547Z</time></trkpt><trkpt lat="43.9287717" lon="12.6893583"><ele>46.0</ele><time>2026-04-25T07:34:14.546Z</time></trkpt><trkpt lat="43.9286233" lon="12.6892"><ele>46.0</ele><time>2026-04-25T07:34:15.547Z</time></trkpt><trkpt lat="43.928485" lon="12.6890483"><ele>46.333333333333336</ele><time>2026-04-25T07:34:16.547Z</time></trkpt><trkpt lat="43.928365" lon="12.6888917"><ele>46.666666666666664</ele><time>2026-04-25T07:34:17.547Z</time></trkpt><trkpt lat="43.928245" lon="12.6887533"><ele>47.0</ele><time>2026-04-25T07:34:18.547Z</time></trkpt><trkpt lat="43.9281283" lon="12.68863"><ele>47.25</ele><time>2026-04-25T07:34:19.547Z</time></trkpt><trkpt lat="43.9280217" lon="12.6885083"><ele>47.5</ele><time>2026-04-25T07:34:20.547Z</time></trkpt><trkpt lat="43.9279217" lon="12.6883917"><ele>47.75</ele><time>2026-04-25T07:34:21.547Z</time></trkpt><trkpt lat="43.9278283" lon="12.68827"><ele>48.0</ele><time>2026-04-25T07:34:22.547Z</time></trkpt><trkpt lat="43.927715" lon="12.6881483"><ele>48.0</ele><time>2026-04-25T07:34:23.546Z</time></trkpt><trkpt lat="43.9276133" lon="12.6880083"><ele>48.0</ele><time>2026-04-25T07:34:24.546Z</time></trkpt><trkpt lat="43.92752" lon="12.68784"><ele>48.0</ele><time>2026-04-25T07:34:25.546Z</time></trkpt><trkpt lat="43.9274417" lon="12.687675"><ele>48.0</ele><time>2026-04-25T07:34:26.547Z</time></trkpt><trkpt lat="43.9273717" lon="12.68752"><ele>48.25</ele><time>2026-04-25T07:34:27.547Z</time></trkpt><trkpt lat="43.9272883" lon="12.6873783"><ele>48.5</ele><time>2026-04-25T07:34:28.547Z</time></trkpt><trkpt lat="43.927225" lon="12.6872383"><ele>48.75</ele><time>2026-04-25T07:34:29.546Z</time></trkpt><trkpt lat="43.927155" lon="12.6870983"><ele>49.0</ele><time>2026-04-25T07:34:30.547Z</time></trkpt><trkpt lat="43.9270817" lon="12.686945"><ele>49.25</ele><time>2026-04-25T07:34:31.547Z</time></trkpt><trkpt lat="43.9270167" lon="12.686805"><ele>49.5</ele><time>2026-04-25T07:34:32.547Z</time></trkpt><trkpt lat="43.926945" lon="12.6866533"><ele>49.75</ele><time>2026-04-25T07:34:33.546Z</time></trkpt><trkpt lat="43.9268633" lon="12.6865017"><ele>50.0</ele><time>2026-04-25T07:34:34.546Z</time></trkpt><trkpt lat="43.9267667" lon="12.6863517"><ele>50.0</ele><time>2026-04-25T07:34:35.546Z</time></trkpt><trkpt lat="43.9266567" lon="12.6862067"><ele>50.0</ele><time>2026-04-25T07:34:36.547Z</time></trkpt><trkpt lat="43.9265233" lon="12.6860717"><ele>50.0</ele><time>2026-04-25T07:34:37.547Z</time></trkpt><trkpt lat="43.9264033" lon="12.685945"><ele>50.0</ele><time>2026-04-25T07:34:38.547Z</time></trkpt><trkpt lat="43.9262883" lon="12.6858167"><ele>50.0</ele><time>2026-04-25T07:34:39.546Z</time></trkpt><trkpt lat="43.9261683" lon="12.685685"><ele>50.0</ele><time>2026-04-25T07:34:40.547Z</time></trkpt><trkpt lat="43.9260433" lon="12.685565"><ele>50.0</ele><time>2026-04-25T07:34:41.547Z</time></trkpt><trkpt lat="43.9259183" lon="12.6854367"><ele>50.0</ele><time>2026-04-25T07:34:42.546Z</time></trkpt><trkpt lat="43.9257867" lon="12.6852983"><ele>50.0</ele><time>2026-04-25T07:34:43.546Z</time></trkpt><trkpt lat="43.9256633" lon="12.6851683"><ele>50.0</ele><time>2026-04-25T07:34:44.547Z</time></trkpt><trkpt lat="43.9255483" lon="12.6850383"><ele>50.0</ele><time>2026-04-25T07:34:45.547Z</time></trkpt><trkpt lat="43.9254367" lon="12.6849133"><ele>50.0</ele><time>2026-04-25T07:34:46.546Z</time></trkpt><trkpt lat="43.925315" lon="12.6847817"><ele>50.0</ele><time>2026-04-25T07:34:47.547Z</time></trkpt><trkpt lat="43.925195" lon="12.6846467"><ele>50.0</ele><time>2026-04-25T07:34:48.546Z</time></trkpt><trkpt lat="43.9250733" lon="12.684505"><ele>50.0</ele><time>2026-04-25T07:34:49.547Z</time></trkpt><trkpt lat="43.924955" lon="12.684355"><ele>50.0</ele><time>2026-04-25T07:34:50.547Z</time></trkpt><trkpt lat="43.9248583" lon="12.684185"><ele>50.66666666666667</ele><time>2026-04-25T07:34:51.547Z</time></trkpt><trkpt lat="43.9247483" lon="12.683995"><ele>51.33333333333333</ele><time>2026-04-25T07:34:52.547Z</time></trkpt><trkpt lat="43.9246317" lon="12.6837867"><ele>52.0</ele><time>2026-04-25T07:34:53.547Z</time></trkpt><trkpt lat="43.9245317" lon="12.6835667"><ele>52.0</ele><time>2026-04-25T07:34:54.547Z</time></trkpt><trkpt lat="43.9244367" lon="12.6833267"><ele>52.0</ele><time>2026-04-25T07:34:55.547Z</time></trkpt><trkpt lat="43.92435" lon="12.6830883"><ele>52.0</ele><time>2026-04-25T07:34:56.547Z</time></trkpt><trkpt lat="43.9242667" lon="12.6828617"><ele>52.0</ele><time>2026-04-25T07:34:57.546Z</time></trkpt><trkpt lat="43.9241867" lon="12.6826483"><ele>52.0</ele><time>2026-04-25T07:34:58.547Z</time></trkpt><trkpt lat="43.9241" lon="12.6824467"><ele>52.0</ele><time>2026-04-25T07:34:59.546Z</time></trkpt><trkpt lat="43.924025" lon="12.6822533"><ele>52.0</ele><time>2026-04-25T07:35:00.547Z</time></trkpt><trkpt lat="43.9239433" lon="12.682065"><ele>52.0</ele><time>2026-04-25T07:35:01.546Z</time></trkpt><trkpt lat="43.92387" lon="12.6818733"><ele>52.0</ele><time>2026-04-25T07:35:02.547Z</time></trkpt><trkpt lat="43.9237983" lon="12.681695"><ele>51.666666666666664</ele><time>2026-04-25T07:35:03.547Z</time></trkpt><trkpt lat="43.9237267" lon="12.681515"><ele>51.33333333333333</ele><time>2026-04-25T07:35:04.547Z</time></trkpt><trkpt lat="43.9236517" lon="12.681335"><ele>51.0</ele><time>2026-04-25T07:35:05.547Z</time></trkpt><trkpt lat="43.9235767" lon="12.6811483"><ele>51.66666666666667</ele><time>2026-04-25T07:35:06.547Z</time></trkpt><trkpt lat="43.9235083" lon="12.68095"><ele>52.333333333333336</ele><time>2026-04-25T07:35:07.547Z</time></trkpt><trkpt lat="43.9234317" lon="12.680725"><ele>53.0</ele><time>2026-04-25T07:35:08.546Z</time></trkpt><trkpt lat="43.9233617" lon="12.680475"><ele>54.0</ele><time>2026-04-25T07:35:09.547Z</time></trkpt><trkpt lat="43.923305" lon="12.680225"><ele>55.0</ele><time>2026-04-25T07:35:10.547Z</time></trkpt><trkpt lat="43.9232467" lon="12.6799883"><ele>56.0</ele><time>2026-04-25T07:35:11.546Z</time></trkpt><trkpt lat="43.9231917" lon="12.6797467"><ele>56.0</ele><time>2026-04-25T07:35:12.547Z</time></trkpt><trkpt lat="43.9231333" lon="12.6794983"><ele>56.0</ele><time>2026-04-25T07:35:13.547Z</time></trkpt><trkpt lat="43.92307" lon="12.6792467"><ele>56.0</ele><time>2026-04-25T07:35:14.546Z</time></trkpt><trkpt lat="43.92301" lon="12.6789983"><ele>56.0</ele><time>2026-04-25T07:35:15.546Z</time></trkpt><trkpt lat="43.9229433" lon="12.6787333"><ele>56.0</ele><time>2026-04-25T07:35:16.547Z</time></trkpt><trkpt lat="43.92288" lon="12.678465"><ele>56.0</ele><time>2026-04-25T07:35:17.547Z</time></trkpt><trkpt lat="43.922825" lon="12.67822"><ele>56.0</ele><time>2026-04-25T07:35:18.547Z</time></trkpt><trkpt lat="43.92277" lon="12.6779967"><ele>56.0</ele><time>2026-04-25T07:35:19.547Z</time></trkpt><trkpt lat="43.9227217" lon="12.677785"><ele>56.0</ele><time>2026-04-25T07:35:20.547Z</time></trkpt><trkpt lat="43.92267" lon="12.67758"><ele>56.0</ele><time>2026-04-25T07:35:21.546Z</time></trkpt><trkpt lat="43.92262" lon="12.6773817"><ele>56.0</ele><time>2026-04-25T07:35:22.547Z</time></trkpt><trkpt lat="43.9225717" lon="12.6771883"><ele>56.0</ele><time>2026-04-25T07:35:23.547Z</time></trkpt><trkpt lat="43.9225267" lon="12.6770267"><ele>56.0</ele><time>2026-04-25T07:35:24.546Z</time></trkpt><trkpt lat="43.92249" lon="12.6768767"><ele>56.0</ele><time>2026-04-25T07:35:25.547Z</time></trkpt><trkpt lat="43.9224533" lon="12.6767383"><ele>56.0</ele><time>2026-04-25T07:35:26.547Z</time></trkpt><trkpt lat="43.922415" lon="12.67659"><ele>56.0</ele><time>2026-04-25T07:35:27.547Z</time></trkpt><trkpt lat="43.9223683" lon="12.6764167"><ele>56.0</ele><time>2026-04-25T07:35:28.547Z</time></trkpt><trkpt lat="43.9223267" lon="12.6762133"><ele>55.66666666666667</ele><time>2026-04-25T07:35:29.547Z</time></trkpt><trkpt lat="43.9222767" lon="12.67598"><ele>55.33333333333333</ele><time>2026-04-25T07:35:30.547Z</time></trkpt><trkpt lat="43.9222383" lon="12.6757417"><ele>55.0</ele><time>2026-04-25T07:35:31.547Z</time></trkpt><trkpt lat="43.922205" lon="12.67551"><ele>55.0</ele><time>2026-04-25T07:35:32.546Z</time></trkpt><trkpt lat="43.9221683" lon="12.6752817"><ele>55.0</ele><time>2026-04-25T07:35:33.547Z</time></trkpt><trkpt lat="43.9221417" lon="12.6750517"><ele>55.0</ele><time>2026-04-25T07:35:34.547Z</time></trkpt><trkpt lat="43.9221117" lon="12.6748367"><ele>55.0</ele><time>2026-04-25T07:35:35.547Z</time></trkpt><trkpt lat="43.9220833" lon="12.674635"><ele>55.0</ele><time>2026-04-25T07:35:36.547Z</time></trkpt><trkpt lat="43.9220533" lon="12.6744467"><ele>55.0</ele><time>2026-04-25T07:35:37.547Z</time></trkpt><trkpt lat="43.9220333" lon="12.67427"><ele>55.0</ele><time>2026-04-25T07:35:38.546Z</time></trkpt><trkpt lat="43.9220083" lon="12.6741"><ele>55.25</ele><time>2026-04-25T07:35:39.547Z</time></trkpt><trkpt lat="43.9219867" lon="12.673925"><ele>55.5</ele><time>2026-04-25T07:35:40.547Z</time></trkpt><trkpt lat="43.9219683" lon="12.673755"><ele>55.75</ele><time>2026-04-25T07:35:41.547Z</time></trkpt><trkpt lat="43.9219417" lon="12.6735917"><ele>56.0</ele><time>2026-04-25T07:35:42.547Z</time></trkpt><trkpt lat="43.92192" lon="12.6734217"><ele>56.0</ele><time>2026-04-25T07:35:43.547Z</time></trkpt><trkpt lat="43.9218983" lon="12.6732517"><ele>56.0</ele><time>2026-04-25T07:35:44.547Z</time></trkpt><trkpt lat="43.921875" lon="12.673075"><ele>56.0</ele><time>2026-04-25T07:35:45.547Z</time></trkpt><trkpt lat="43.9218533" lon="12.67289"><ele>56.0</ele><time>2026-04-25T07:35:46.547Z</time></trkpt><trkpt lat="43.92183" lon="12.6727017"><ele>56.5</ele><time>2026-04-25T07:35:47.547Z</time></trkpt><trkpt lat="43.92181" lon="12.672515"><ele>57.0</ele><time>2026-04-25T07:35:48.546Z</time></trkpt><trkpt lat="43.9217967" lon="12.672345"><ele>57.5</ele><time>2026-04-25T07:35:49.547Z</time></trkpt><trkpt lat="43.9217867" lon="12.6722033"><ele>58.0</ele><time>2026-04-25T07:35:50.547Z</time></trkpt><trkpt lat="43.9217867" lon="12.67207"><ele>58.0</ele><time>2026-04-25T07:35:51.547Z</time></trkpt><trkpt lat="43.9217917" lon="12.6719417"><ele>58.0</ele><time>2026-04-25T07:35:52.547Z</time></trkpt><trkpt lat="43.9217917" lon="12.671815"><ele>58.0</ele><time>2026-04-25T07:35:53.547Z</time></trkpt><trkpt lat="43.92177" lon="12.6716983"><ele>58.0</ele><time>2026-04-25T07:35:54.547Z</time></trkpt><trkpt lat="43.92172" lon="12.6715533"><ele>58.0</ele><time>2026-04-25T07:35:55.546Z</time></trkpt><trkpt lat="43.9216583" lon="12.6713717"><ele>58.666666666666664</ele><time>2026-04-25T07:35:56.547Z</time></trkpt><trkpt lat="43.9216167" lon="12.6711483"><ele>59.33333333333333</ele><time>2026-04-25T07:35:57.546Z</time></trkpt><trkpt lat="43.92158" lon="12.6709183"><ele>60.0</ele><time>2026-04-25T07:35:58.546Z</time></trkpt><trkpt lat="43.9215533" lon="12.6706983"><ele>60.0</ele><time>2026-04-25T07:35:59.547Z</time></trkpt><trkpt lat="43.9215283" lon="12.6704717"><ele>60.0</ele><time>2026-04-25T07:36:00.547Z</time></trkpt><trkpt lat="43.921495" lon="12.6702367"><ele>60.0</ele><time>2026-04-25T07:36:01.546Z</time></trkpt><trkpt lat="43.92147" lon="12.670025"><ele>60.25</ele><time>2026-04-25T07:36:02.547Z</time></trkpt><trkpt lat="43.921445" lon="12.6698233"><ele>60.5</ele><time>2026-04-25T07:36:03.546Z</time></trkpt><trkpt lat="43.9214217" lon="12.6696383"><ele>60.75</ele><time>2026-04-25T07:36:04.547Z</time></trkpt><trkpt lat="43.9213933" lon="12.669455"><ele>61.0</ele><time>2026-04-25T07:36:05.546Z</time></trkpt><trkpt lat="43.9213683" lon="12.6692683"><ele>60.0</ele><time>2026-04-25T07:36:06.547Z</time></trkpt><trkpt lat="43.9213483" lon="12.6690733"><ele>59.0</ele><time>2026-04-25T07:36:07.546Z</time></trkpt><trkpt lat="43.9213233" lon="12.66889"><ele>58.0</ele><time>2026-04-25T07:36:08.546Z</time></trkpt><trkpt lat="43.9213017" lon="12.6687133"><ele>57.0</ele><time>2026-04-25T07:36:09.546Z</time></trkpt><trkpt lat="43.9212817" lon="12.6685317"><ele>57.0</ele><time>2026-04-25T07:36:10.546Z</time></trkpt><trkpt lat="43.9212567" lon="12.66834"><ele>57.0</ele><time>2026-04-25T07:36:11.546Z</time></trkpt><trkpt lat="43.9212283" lon="12.6681417"><ele>57.0</ele><time>2026-04-25T07:36:12.546Z</time></trkpt><trkpt lat="43.9212" lon="12.6679367"><ele>57.0</ele><time>2026-04-25T07:36:13.547Z</time></trkpt><trkpt lat="43.9211767" lon="12.6677217"><ele>57.0</ele><time>2026-04-25T07:36:14.546Z</time></trkpt><trkpt lat="43.9211517" lon="12.6675183"><ele>57.0</ele><time>2026-04-25T07:36:15.547Z</time></trkpt><trkpt lat="43.9211267" lon="12.6673283"><ele>57.0</ele><time>2026-04-25T07:36:16.547Z</time></trkpt><trkpt lat="43.9211" lon="12.6671517"><ele>57.0</ele><time>2026-04-25T07:36:17.547Z</time></trkpt><trkpt lat="43.921065" lon="12.6669717"><ele>57.0</ele><time>2026-04-25T07:36:18.546Z</time></trkpt><trkpt lat="43.9210267" lon="12.6667933"><ele>57.0</ele><time>2026-04-25T07:36:19.546Z</time></trkpt><trkpt lat="43.9209817" lon="12.6666333"><ele>57.0</ele><time>2026-04-25T07:36:20.546Z</time></trkpt><trkpt lat="43.9209233" lon="12.6664817"><ele>57.0</ele><time>2026-04-25T07:36:21.546Z</time></trkpt><trkpt lat="43.9208583" lon="12.666325"><ele>58.5</ele><time>2026-04-25T07:36:22.547Z</time></trkpt><trkpt lat="43.9207867" lon="12.6661683"><ele>60.0</ele><time>2026-04-25T07:36:23.547Z</time></trkpt><trkpt lat="43.9207117" lon="12.6659917"><ele>61.5</ele><time>2026-04-25T07:36:24.547Z</time></trkpt><trkpt lat="43.9206383" lon="12.6658283"><ele>63.0</ele><time>2026-04-25T07:36:25.547Z</time></trkpt><trkpt lat="43.920575" lon="12.6656667"><ele>63.0</ele><time>2026-04-25T07:36:26.547Z</time></trkpt><trkpt lat="43.920505" lon="12.6655"><ele>63.0</ele><time>2026-04-25T07:36:27.547Z</time></trkpt><trkpt lat="43.920425" lon="12.6653267"><ele>63.0</ele><time>2026-04-25T07:36:28.547Z</time></trkpt><trkpt lat="43.9203467" lon="12.6651567"><ele>63.0</ele><time>2026-04-25T07:36:29.547Z</time></trkpt><trkpt lat="43.920275" lon="12.664995"><ele>63.25</ele><time>2026-04-25T07:36:30.547Z</time></trkpt><trkpt lat="43.9202133" lon="12.66484"><ele>63.5</ele><time>2026-04-25T07:36:31.546Z</time></trkpt><trkpt lat="43.920155" lon="12.66469"><ele>63.75</ele><time>2026-04-25T07:36:32.546Z</time></trkpt><trkpt lat="43.9201017" lon="12.6645367"><ele>64.0</ele><time>2026-04-25T07:36:33.547Z</time></trkpt><trkpt lat="43.920055" lon="12.6643767"><ele>64.5</ele><time>2026-04-25T07:36:34.546Z</time></trkpt><trkpt lat="43.92001" lon="12.664215"><ele>65.0</ele><time>2026-04-25T07:36:35.547Z</time></trkpt><trkpt lat="43.9199717" lon="12.6640467"><ele>65.5</ele><time>2026-04-25T07:36:36.547Z</time></trkpt><trkpt lat="43.9199383" lon="12.663875"><ele>66.0</ele><time>2026-04-25T07:36:37.547Z</time></trkpt><trkpt lat="43.9199" lon="12.6636983"><ele>65.75</ele><time>2026-04-25T07:36:38.547Z</time></trkpt><trkpt lat="43.9198533" lon="12.6635167"><ele>65.5</ele><time>2026-04-25T07:36:39.547Z</time></trkpt><trkpt lat="43.9198083" lon="12.663335"><ele>65.25</ele><time>2026-04-25T07:36:40.547Z</time></trkpt><trkpt lat="43.9197667" lon="12.66315"><ele>65.0</ele><time>2026-04-25T07:36:41.547Z</time></trkpt><trkpt lat="43.919725" lon="12.6629683"><ele>65.25</ele><time>2026-04-25T07:36:42.547Z</time></trkpt><trkpt lat="43.9196767" lon="12.6627783"><ele>65.5</ele><time>2026-04-25T07:36:43.547Z</time></trkpt><trkpt lat="43.9196333" lon="12.6626017"><ele>65.75</ele><time>2026-04-25T07:36:44.547Z</time></trkpt><trkpt lat="43.9195867" lon="12.6624433"><ele>66.0</ele><time>2026-04-25T07:36:45.547Z</time></trkpt><trkpt lat="43.91953" lon="12.662295"><ele>66.0</ele><time>2026-04-25T07:36:46.547Z</time></trkpt><trkpt lat="43.9194533" lon="12.66214"><ele>66.0</ele><time>2026-04-25T07:36:47.547Z</time></trkpt><trkpt lat="43.9193667" lon="12.661965"><ele>66.0</ele><time>2026-04-25T07:36:48.547Z</time></trkpt><trkpt lat="43.9192717" lon="12.6617917"><ele>66.0</ele><time>2026-04-25T07:36:49.547Z</time></trkpt><trkpt lat="43.9191717" lon="12.661625"><ele>66.5</ele><time>2026-04-25T07:36:50.547Z</time></trkpt><trkpt lat="43.91908" lon="12.6614617"><ele>67.0</ele><time>2026-04-25T07:36:51.546Z</time></trkpt><trkpt lat="43.9189967" lon="12.6613117"><ele>67.5</ele><time>2026-04-25T07:36:52.547Z</time></trkpt><trkpt lat="43.918915" lon="12.661165"><ele>68.0</ele><time>2026-04-25T07:36:53.547Z</time></trkpt><trkpt lat="43.9188333" lon="12.6610217"><ele>68.5</ele><time>2026-04-25T07:36:54.546Z</time></trkpt><trkpt lat="43.918755" lon="12.6608833"><ele>69.0</ele><time>2026-04-25T07:36:55.546Z</time></trkpt><trkpt lat="43.9186833" lon="12.660755"><ele>69.5</ele><time>2026-04-25T07:36:56.547Z</time></trkpt><trkpt lat="43.918615" lon="12.6606367"><ele>70.0</ele><time>2026-04-25T07:36:57.547Z</time></trkpt><trkpt lat="43.91855" lon="12.6605217"><ele>70.0</ele><time>2026-04-25T07:36:58.546Z</time></trkpt><trkpt lat="43.918485" lon="12.6604067"><ele>70.0</ele><time>2026-04-25T07:36:59.547Z</time></trkpt><trkpt lat="43.918415" lon="12.66029"><ele>70.0</ele><time>2026-04-25T07:37:00.547Z</time></trkpt><trkpt lat="43.91835" lon="12.6601683"><ele>70.0</ele><time>2026-04-25T07:37:01.547Z</time></trkpt><trkpt lat="43.918275" lon="12.6600317"><ele>70.0</ele><time>2026-04-25T07:37:02.547Z</time></trkpt><trkpt lat="43.9181917" lon="12.6598933"><ele>70.0</ele><time>2026-04-25T07:37:03.547Z</time></trkpt><trkpt lat="43.9181183" lon="12.6597683"><ele>70.0</ele><time>2026-04-25T07:37:04.547Z</time></trkpt><trkpt lat="43.9180533" lon="12.65965"><ele>70.0</ele><time>2026-04-25T07:37:05.546Z</time></trkpt><trkpt lat="43.9180017" lon="12.659555"><ele>70.0</ele><time>2026-04-25T07:37:06.547Z</time></trkpt><trkpt lat="43.9179583" lon="12.65947"><ele>70.0</ele><time>2026-04-25T07:37:07.546Z</time></trkpt><trkpt lat="43.917915" lon="12.6593967"><ele>70.0</ele><time>2026-04-25T07:37:08.547Z</time></trkpt><trkpt lat="43.9178383" lon="12.659275"><ele>70.0</ele><time>2026-04-25T07:37:10.547Z</time></trkpt><trkpt lat="43.9177583" lon="12.6591767"><ele>70.0</ele><time>2026-04-25T07:37:12.547Z</time></trkpt><trkpt lat="43.9176733" lon="12.6590517"><ele>70.0</ele><time>2026-04-25T07:37:14.547Z</time></trkpt><trkpt lat="43.91763" lon="12.6589633"><ele>70.0</ele><time>2026-04-25T07:37:15.546Z</time></trkpt><trkpt lat="43.9175833" lon="12.6588667"><ele>70.16666666666666</ele><time>2026-04-25T07:37:16.546Z</time></trkpt><trkpt lat="43.917535" lon="12.658765"><ele>70.33333333333333</ele><time>2026-04-25T07:37:17.547Z</time></trkpt><trkpt lat="43.9174883" lon="12.6586633"><ele>70.5</ele><time>2026-04-25T07:37:18.547Z</time></trkpt><trkpt lat="43.9174433" lon="12.6585567"><ele>70.66666666666667</ele><time>2026-04-25T07:37:19.547Z</time></trkpt><trkpt lat="43.9173883" lon="12.65845"><ele>70.83333333333334</ele><time>2026-04-25T07:37:20.547Z</time></trkpt><trkpt lat="43.9173417" lon="12.6583467"><ele>71.0</ele><time>2026-04-25T07:37:21.546Z</time></trkpt><trkpt lat="43.9172867" lon="12.6582467"><ele>71.16666666666667</ele><time>2026-04-25T07:37:22.546Z</time></trkpt><trkpt lat="43.9172383" lon="12.6581483"><ele>71.33333333333334</ele><time>2026-04-25T07:37:23.547Z</time></trkpt><trkpt lat="43.917185" lon="12.6580617"><ele>71.5</ele><time>2026-04-25T07:37:24.546Z</time></trkpt><trkpt lat="43.917145" lon="12.657985"><ele>71.66666666666667</ele><time>2026-04-25T07:37:25.546Z</time></trkpt><trkpt lat="43.9171017" lon="12.65791"><ele>71.83333333333333</ele><time>2026-04-25T07:37:26.547Z</time></trkpt><trkpt lat="43.9170583" lon="12.6578317"><ele>72.0</ele><time>2026-04-25T07:37:27.547Z</time></trkpt><trkpt lat="43.9170067" lon="12.6577433"><ele>72.4</ele><time>2026-04-25T07:37:28.547Z</time></trkpt><trkpt lat="43.9169517" lon="12.657655"><ele>72.80000000000001</ele><time>2026-04-25T07:37:29.547Z</time></trkpt><trkpt lat="43.9169017" lon="12.6575683"><ele>73.2</ele><time>2026-04-25T07:37:30.547Z</time></trkpt><trkpt lat="43.9168583" lon="12.6574933"><ele>73.60000000000001</ele><time>2026-04-25T07:37:31.547Z</time></trkpt><trkpt lat="43.9167867" lon="12.6573583"><ele>74.0</ele><time>2026-04-25T07:37:33.547Z</time></trkpt><trkpt lat="43.9167333" lon="12.657245"><ele>74.0</ele><time>2026-04-25T07:37:35.546Z</time></trkpt><trkpt lat="43.9166783" lon="12.6571667"><ele>74.0</ele><time>2026-04-25T07:37:37.547Z</time></trkpt><trkpt lat="43.9166133" lon="12.6570733"><ele>74.0</ele><time>2026-04-25T07:37:39.546Z</time></trkpt><trkpt lat="43.916575" lon="12.6569933"><ele>74.0</ele><time>2026-04-25T07:37:40.547Z</time></trkpt><trkpt lat="43.9165367" lon="12.6569117"><ele>74.0</ele><time>2026-04-25T07:37:41.547Z</time></trkpt><trkpt lat="43.9164867" lon="12.656815"><ele>74.0</ele><time>2026-04-25T07:37:42.546Z</time></trkpt><trkpt lat="43.9164383" lon="12.6567267"><ele>74.0</ele><time>2026-04-25T07:37:43.547Z</time></trkpt><trkpt lat="43.9163917" lon="12.6566467"><ele>74.0</ele><time>2026-04-25T07:37:44.547Z</time></trkpt><trkpt lat="43.9163483" lon="12.6565717"><ele>74.0</ele><time>2026-04-25T07:37:45.546Z</time></trkpt><trkpt lat="43.9162733" lon="12.656445"><ele>74.0</ele><time>2026-04-25T07:37:47.547Z</time></trkpt><trkpt lat="43.9162367" lon="12.6563733"><ele>74.0</ele><time>2026-04-25T07:37:48.547Z</time></trkpt><trkpt lat="43.9161917" lon="12.6562867"><ele>74.0</ele><time>2026-04-25T07:37:49.546Z</time></trkpt><trkpt lat="43.9161467" lon="12.6562033"><ele>74.0</ele><time>2026-04-25T07:37:50.546Z</time></trkpt><trkpt lat="43.9161083" lon="12.6561217"><ele>74.0</ele><time>2026-04-25T07:37:51.546Z</time></trkpt><trkpt lat="43.916075" lon="12.6560467"><ele>74.0</ele><time>2026-04-25T07:37:52.547Z</time></trkpt><trkpt lat="43.9160433" lon="12.65597"><ele>74.0</ele><time>2026-04-25T07:37:53.547Z</time></trkpt><trkpt lat="43.9159867" lon="12.6558317"><ele>74.0</ele><time>2026-04-25T07:37:55.546Z</time></trkpt><trkpt lat="43.915945" lon="12.6557117"><ele>74.0</ele><time>2026-04-25T07:37:57.546Z</time></trkpt><trkpt lat="43.9159017" lon="12.65559"><ele>74.16666666666667</ele><time>2026-04-25T07:37:59.547Z</time></trkpt><trkpt lat="43.915885" lon="12.655505"><ele>74.33333333333334</ele><time>2026-04-25T07:38:00.547Z</time></trkpt><trkpt lat="43.9158717" lon="12.6554083"><ele>74.5</ele><time>2026-04-25T07:38:01.547Z</time></trkpt><trkpt lat="43.9158517" lon="12.6552933"><ele>74.66666666666667</ele><time>2026-04-25T07:38:02.546Z</time></trkpt><trkpt lat="43.915815" lon="12.6551583"><ele>74.83333333333333</ele><time>2026-04-25T07:38:03.547Z</time></trkpt><trkpt lat="43.9157817" lon="12.6550167"><ele>75.0</ele><time>2026-04-25T07:38:04.547Z</time></trkpt><trkpt lat="43.9157483" lon="12.6548717"><ele>75.2</ele><time>2026-04-25T07:38:05.547Z</time></trkpt><trkpt lat="43.91572" lon="12.654725"><ele>75.4</ele><time>2026-04-25T07:38:06.547Z</time></trkpt><trkpt lat="43.915695" lon="12.65459"><ele>75.6</ele><time>2026-04-25T07:38:07.547Z</time></trkpt><trkpt lat="43.915675" lon="12.65447"><ele>75.8</ele><time>2026-04-25T07:38:08.547Z</time></trkpt><trkpt lat="43.915655" lon="12.6543483"><ele>76.0</ele><time>2026-04-25T07:38:09.547Z</time></trkpt><trkpt lat="43.915635" lon="12.6542233"><ele>76.16666666666666</ele><time>2026-04-25T07:38:10.547Z</time></trkpt><trkpt lat="43.9156167" lon="12.6541067"><ele>76.33333333333333</ele><time>2026-04-25T07:38:11.547Z</time></trkpt><trkpt lat="43.9155933" lon="12.6539883"><ele>76.5</ele><time>2026-04-25T07:38:12.547Z</time></trkpt><trkpt lat="43.9155683" lon="12.6538733"><ele>76.66666666666667</ele><time>2026-04-25T07:38:13.547Z</time></trkpt><trkpt lat="43.91554" lon="12.65376"><ele>76.83333333333334</ele><time>2026-04-25T07:38:14.547Z</time></trkpt><trkpt lat="43.9155217" lon="12.6536583"><ele>77.0</ele><time>2026-04-25T07:38:15.547Z</time></trkpt><trkpt lat="43.9155033" lon="12.6535633"><ele>77.0</ele><time>2026-04-25T07:38:16.546Z</time></trkpt><trkpt lat="43.915485" lon="12.6534767"><ele>77.0</ele><time>2026-04-25T07:38:17.547Z</time></trkpt><trkpt lat="43.915465" lon="12.6533917"><ele>77.0</ele><time>2026-04-25T07:38:18.547Z</time></trkpt><trkpt lat="43.9154483" lon="12.65328"><ele>77.0</ele><time>2026-04-25T07:38:19.547Z</time></trkpt><trkpt lat="43.9154233" lon="12.6531833"><ele>77.0</ele><time>2026-04-25T07:38:20.547Z</time></trkpt><trkpt lat="43.91541" lon="12.6530817"><ele>77.0</ele><time>2026-04-25T07:38:21.546Z</time></trkpt><trkpt lat="43.9153933" lon="12.65299"><ele>77.0</ele><time>2026-04-25T07:38:22.547Z</time></trkpt><trkpt lat="43.915375" lon="12.6529017"><ele>77.0</ele><time>2026-04-25T07:38:23.546Z</time></trkpt><trkpt lat="43.9153533" lon="12.6528133"><ele>77.0</ele><time>2026-04-25T07:38:24.547Z</time></trkpt><trkpt lat="43.9153317" lon="12.6527283"><ele>77.0</ele><time>2026-04-25T07:38:25.546Z</time></trkpt><trkpt lat="43.915295" lon="12.6525767"><ele>77.0</ele><time>2026-04-25T07:38:27.547Z</time></trkpt><trkpt lat="43.9152733" lon="12.6524283"><ele>77.0</ele><time>2026-04-25T07:38:29.547Z</time></trkpt><trkpt lat="43.9152467" lon="12.6523183"><ele>77.0</ele><time>2026-04-25T07:38:31.546Z</time></trkpt><trkpt lat="43.9152317" lon="12.6522217"><ele>77.0</ele><time>2026-04-25T07:38:33.546Z</time></trkpt><trkpt lat="43.9152117" lon="12.6521183"><ele>77.0</ele><time>2026-04-25T07:38:35.547Z</time></trkpt><trkpt lat="43.9151717" lon="12.6519917"><ele>77.0</ele><time>2026-04-25T07:38:37.547Z</time></trkpt><trkpt lat="43.9151433" lon="12.65191"><ele>77.0</ele><time>2026-04-25T07:38:38.547Z</time></trkpt><trkpt lat="43.9151083" lon="12.65183"><ele>77.0</ele><time>2026-04-25T07:38:39.547Z</time></trkpt><trkpt lat="43.9150483" lon="12.65177"><ele>77.0</ele><time>2026-04-25T07:38:40.547Z</time></trkpt><trkpt lat="43.9149633" lon="12.65173"><ele>77.0</ele><time>2026-04-25T07:38:41.547Z</time></trkpt><trkpt lat="43.9148583" lon="12.6516767"><ele>77.0</ele><time>2026-04-25T07:38:42.547Z</time></trkpt><trkpt lat="43.91474" lon="12.6515783"><ele>77.0</ele><time>2026-04-25T07:38:43.547Z</time></trkpt><trkpt lat="43.9146117" lon="12.6514383"><ele>77.0</ele><time>2026-04-25T07:38:44.547Z</time></trkpt><trkpt lat="43.914485" lon="12.6512983"><ele>77.0</ele><time>2026-04-25T07:38:45.547Z</time></trkpt><trkpt lat="43.9143633" lon="12.6511767"><ele>77.0</ele><time>2026-04-25T07:38:46.547Z</time></trkpt><trkpt lat="43.914255" lon="12.6510617"><ele>77.0</ele><time>2026-04-25T07:38:47.547Z</time></trkpt><trkpt lat="43.914145" lon="12.6509583"><ele>77.0</ele><time>2026-04-25T07:38:48.547Z</time></trkpt><trkpt lat="43.91404" lon="12.6508417"><ele>77.75</ele><time>2026-04-25T07:38:49.547Z</time></trkpt><trkpt lat="43.9139283" lon="12.6507367"><ele>78.5</ele><time>2026-04-25T07:38:50.546Z</time></trkpt><trkpt lat="43.9138217" lon="12.6506283"><ele>79.25</ele><time>2026-04-25T07:38:51.547Z</time></trkpt><trkpt lat="43.9137183" lon="12.6505267"><ele>80.0</ele><time>2026-04-25T07:38:52.547Z</time></trkpt><trkpt lat="43.9136183" lon="12.650425"><ele>80.0</ele><time>2026-04-25T07:38:53.546Z</time></trkpt><trkpt lat="43.9135233" lon="12.65033"><ele>80.0</ele><time>2026-04-25T07:38:54.546Z</time></trkpt><trkpt lat="43.9134317" lon="12.6502383"><ele>80.0</ele><time>2026-04-25T07:38:55.546Z</time></trkpt><trkpt lat="43.9133417" lon="12.6501517"><ele>80.0</ele><time>2026-04-25T07:38:56.547Z</time></trkpt><trkpt lat="43.9132683" lon="12.650075"><ele>80.0</ele><time>2026-04-25T07:38:57.546Z</time></trkpt><trkpt lat="43.913205" lon="12.65001"><ele>80.33333333333334</ele><time>2026-04-25T07:38:58.547Z</time></trkpt><trkpt lat="43.913125" lon="12.6499317"><ele>80.66666666666667</ele><time>2026-04-25T07:39:00.547Z</time></trkpt><trkpt lat="43.9130783" lon="12.6498633"><ele>81.0</ele><time>2026-04-25T07:39:03.547Z</time></trkpt><trkpt lat="43.9130033" lon="12.6498233"><ele>81.33333333333333</ele><time>2026-04-25T07:39:06.547Z</time></trkpt><trkpt lat="43.9129017" lon="12.649885"><ele>81.66666666666666</ele><time>2026-04-25T07:39:08.547Z</time></trkpt><trkpt lat="43.91285" lon="12.64997"><ele>82.0</ele><time>2026-04-25T07:39:09.547Z</time></trkpt><trkpt lat="43.9128" lon="12.6500733"><ele>82.0</ele><time>2026-04-25T07:39:10.547Z</time></trkpt><trkpt lat="43.9127533" lon="12.6501817"><ele>82.0</ele><time>2026-04-25T07:39:11.546Z</time></trkpt><trkpt lat="43.912705" lon="12.6502717"><ele>82.0</ele><time>2026-04-25T07:39:12.547Z</time></trkpt><trkpt lat="43.9126667" lon="12.6503617"><ele>82.0</ele><time>2026-04-25T07:39:13.546Z</time></trkpt><trkpt lat="43.9126" lon="12.6505017"><ele>82.0</ele><time>2026-04-25T07:39:15.547Z</time></trkpt><trkpt lat="43.912555" lon="12.650565"><ele>82.0</ele><time>2026-04-25T07:39:16.547Z</time></trkpt><trkpt lat="43.9124983" lon="12.6506483"><ele>82.39999999999999</ele><time>2026-04-25T07:39:17.546Z</time></trkpt><trkpt lat="43.91244" lon="12.6507417"><ele>82.8</ele><time>2026-04-25T07:39:18.546Z</time></trkpt><trkpt lat="43.912375" lon="12.65083"><ele>83.2</ele><time>2026-04-25T07:39:19.545Z</time></trkpt><trkpt lat="43.9122983" lon="12.650915"><ele>83.6</ele><time>2026-04-25T07:39:20.545Z</time></trkpt><trkpt lat="43.9122233" lon="12.6510117"><ele>84.0</ele><time>2026-04-25T07:39:21.545Z</time></trkpt><trkpt lat="43.91214" lon="12.6510867"><ele>84.0</ele><time>2026-04-25T07:39:22.546Z</time></trkpt><trkpt lat="43.9120583" lon="12.651175"><ele>84.0</ele><time>2026-04-25T07:39:23.546Z</time></trkpt><trkpt lat="43.911965" lon="12.651275"><ele>84.0</ele><time>2026-04-25T07:39:24.546Z</time></trkpt><trkpt lat="43.911875" lon="12.6514"><ele>84.0</ele><time>2026-04-25T07:39:25.546Z</time></trkpt><trkpt lat="43.9117617" lon="12.6515117"><ele>85.25</ele><time>2026-04-25T07:39:26.545Z</time></trkpt><trkpt lat="43.911645" lon="12.651625"><ele>86.5</ele><time>2026-04-25T07:39:27.545Z</time></trkpt><trkpt lat="43.91153" lon="12.65173"><ele>87.75</ele><time>2026-04-25T07:39:28.546Z</time></trkpt><trkpt lat="43.9114233" lon="12.6518233"><ele>89.0</ele><time>2026-04-25T07:39:29.545Z</time></trkpt><trkpt lat="43.9113167" lon="12.6519333"><ele>89.25</ele><time>2026-04-25T07:39:30.546Z</time></trkpt><trkpt lat="43.9112283" lon="12.6520617"><ele>89.5</ele><time>2026-04-25T07:39:31.546Z</time></trkpt><trkpt lat="43.9111667" lon="12.6522283"><ele>89.75</ele><time>2026-04-25T07:39:32.546Z</time></trkpt><trkpt lat="43.9111133" lon="12.6524183"><ele>90.0</ele><time>2026-04-25T07:39:33.546Z</time></trkpt><trkpt lat="43.91106" lon="12.6526067"><ele>90.0</ele><time>2026-04-25T07:39:34.546Z</time></trkpt><trkpt lat="43.9110117" lon="12.6527883"><ele>90.0</ele><time>2026-04-25T07:39:35.545Z</time></trkpt><trkpt lat="43.9109567" lon="12.6529633"><ele>90.0</ele><time>2026-04-25T07:39:36.546Z</time></trkpt><trkpt lat="43.910905" lon="12.65314"><ele>90.0</ele><time>2026-04-25T07:39:37.546Z</time></trkpt><trkpt lat="43.91084" lon="12.653315"><ele>92.75</ele><time>2026-04-25T07:39:38.546Z</time></trkpt><trkpt lat="43.9107617" lon="12.65348"><ele>95.5</ele><time>2026-04-25T07:39:39.546Z</time></trkpt><trkpt lat="43.9106783" lon="12.65364"><ele>98.25</ele><time>2026-04-25T07:39:40.545Z</time></trkpt><trkpt lat="43.9105917" lon="12.6538"><ele>101.0</ele><time>2026-04-25T07:39:41.546Z</time></trkpt><trkpt lat="43.91053" lon="12.6539667"><ele>101.0</ele><time>2026-04-25T07:39:42.546Z</time></trkpt><trkpt lat="43.9104783" lon="12.6541533"><ele>101.0</ele><time>2026-04-25T07:39:43.545Z</time></trkpt><trkpt lat="43.910435" lon="12.654365"><ele>101.0</ele><time>2026-04-25T07:39:44.546Z</time></trkpt><trkpt lat="43.9103867" lon="12.654575"><ele>100.0</ele><time>2026-04-25T07:39:45.546Z</time></trkpt><trkpt lat="43.9103383" lon="12.6547783"><ele>99.0</ele><time>2026-04-25T07:39:46.545Z</time></trkpt><trkpt lat="43.9102933" lon="12.6549767"><ele>98.0</ele><time>2026-04-25T07:39:47.546Z</time></trkpt><trkpt lat="43.91026" lon="12.6551733"><ele>96.5</ele><time>2026-04-25T07:39:48.546Z</time></trkpt><trkpt lat="43.9102167" lon="12.6553517"><ele>95.0</ele><time>2026-04-25T07:39:49.545Z</time></trkpt><trkpt lat="43.910185" lon="12.6555233"><ele>93.5</ele><time>2026-04-25T07:39:50.546Z</time></trkpt><trkpt lat="43.910175" lon="12.6556983"><ele>92.0</ele><time>2026-04-25T07:39:51.545Z</time></trkpt><trkpt lat="43.91018" lon="12.6558783"><ele>92.0</ele><time>2026-04-25T07:39:52.546Z</time></trkpt><trkpt lat="43.9102133" lon="12.6560483"><ele>92.0</ele><time>2026-04-25T07:39:53.546Z</time></trkpt><trkpt lat="43.9102683" lon="12.6562183"><ele>92.0</ele><time>2026-04-25T07:39:54.546Z</time></trkpt><trkpt lat="43.9103283" lon="12.6563967"><ele>92.0</ele><time>2026-04-25T07:39:55.546Z</time></trkpt><trkpt lat="43.9103883" lon="12.6565717"><ele>90.25</ele><time>2026-04-25T07:39:56.545Z</time></trkpt><trkpt lat="43.9104417" lon="12.6567417"><ele>88.5</ele><time>2026-04-25T07:39:57.545Z</time></trkpt><trkpt lat="43.9104817" lon="12.6569133"><ele>86.75</ele><time>2026-04-25T07:39:58.545Z</time></trkpt><trkpt lat="43.91052" lon="12.657085"><ele>85.0</ele><time>2026-04-25T07:39:59.546Z</time></trkpt><trkpt lat="43.91055" lon="12.6572583"><ele>84.0</ele><time>2026-04-25T07:40:00.546Z</time></trkpt><trkpt lat="43.910565" lon="12.65743"><ele>83.0</ele><time>2026-04-25T07:40:01.545Z</time></trkpt><trkpt lat="43.9105667" lon="12.657595"><ele>82.0</ele><time>2026-04-25T07:40:02.546Z</time></trkpt><trkpt lat="43.9105617" lon="12.6577583"><ele>81.0</ele><time>2026-04-25T07:40:03.546Z</time></trkpt><trkpt lat="43.9105517" lon="12.6579133"><ele>80.0</ele><time>2026-04-25T07:40:04.546Z</time></trkpt><trkpt lat="43.910545" lon="12.6580667"><ele>79.0</ele><time>2026-04-25T07:40:05.545Z</time></trkpt><trkpt lat="43.9105367" lon="12.6582033"><ele>78.0</ele><time>2026-04-25T07:40:06.545Z</time></trkpt><trkpt lat="43.9105317" lon="12.658315"><ele>77.0</ele><time>2026-04-25T07:40:07.546Z</time></trkpt><trkpt lat="43.910525" lon="12.65841"><ele>76.0</ele><time>2026-04-25T07:40:08.546Z</time></trkpt><trkpt lat="43.9104983" lon="12.6585583"><ele>75.5</ele><time>2026-04-25T07:40:10.546Z</time></trkpt><trkpt lat="43.9104633" lon="12.6586583"><ele>75.0</ele><time>2026-04-25T07:40:12.546Z</time></trkpt><trkpt lat="43.9104433" lon="12.6587883"><ele>74.5</ele><time>2026-04-25T07:40:14.545Z</time></trkpt><trkpt lat="43.910445" lon="12.658885"><ele>74.0</ele><time>2026-04-25T07:40:15.546Z</time></trkpt><trkpt lat="43.9104583" lon="12.6590117"><ele>73.5</ele><time>2026-04-25T07:40:16.545Z</time></trkpt><trkpt lat="43.910475" lon="12.65916"><ele>73.0</ele><time>2026-04-25T07:40:17.546Z</time></trkpt><trkpt lat="43.910485" lon="12.6593017"><ele>73.0</ele><time>2026-04-25T07:40:18.545Z</time></trkpt><trkpt lat="43.910495" lon="12.65942"><ele>73.0</ele><time>2026-04-25T07:40:19.545Z</time></trkpt><trkpt lat="43.9104833" lon="12.6595517"><ele>73.0</ele><time>2026-04-25T07:40:21.546Z</time></trkpt><trkpt lat="43.9104067" lon="12.6595583"><ele>73.0</ele><time>2026-04-25T07:40:24.545Z</time></trkpt><trkpt lat="43.9103433" lon="12.659475"><ele>73.0</ele><time>2026-04-25T07:40:26.546Z</time></trkpt><trkpt lat="43.91031" lon="12.6593933"><ele>73.0</ele><time>2026-04-25T07:40:27.546Z</time></trkpt><trkpt lat="43.910265" lon="12.659305"><ele>73.0</ele><time>2026-04-25T07:40:28.545Z</time></trkpt><trkpt lat="43.9102217" lon="12.659205"><ele>73.0</ele><time>2026-04-25T07:40:29.546Z</time></trkpt><trkpt lat="43.9101767" lon="12.6590983"><ele>73.0</ele><time>2026-04-25T07:40:30.546Z</time></trkpt><trkpt lat="43.9101317" lon="12.6589933"><ele>73.0</ele><time>2026-04-25T07:40:31.545Z</time></trkpt><trkpt lat="43.910075" lon="12.65889"><ele>73.0</ele><time>2026-04-25T07:40:32.546Z</time></trkpt><trkpt lat="43.910015" lon="12.6587733"><ele>72.8</ele><time>2026-04-25T07:40:33.546Z</time></trkpt><trkpt lat="43.90995" lon="12.6586467"><ele>72.6</ele><time>2026-04-25T07:40:34.546Z</time></trkpt><trkpt lat="43.909885" lon="12.658515"><ele>72.4</ele><time>2026-04-25T07:40:35.546Z</time></trkpt><trkpt lat="43.9098183" lon="12.6583867"><ele>72.2</ele><time>2026-04-25T07:40:36.546Z</time></trkpt><trkpt lat="43.9097517" lon="12.6582767"><ele>72.0</ele><time>2026-04-25T07:40:37.546Z</time></trkpt><trkpt lat="43.90968" lon="12.6581717"><ele>72.0</ele><time>2026-04-25T07:40:38.546Z</time></trkpt><trkpt lat="43.9096033" lon="12.65806"><ele>72.0</ele><time>2026-04-25T07:40:39.546Z</time></trkpt><trkpt lat="43.9095267" lon="12.65796"><ele>72.0</ele><time>2026-04-25T07:40:40.546Z</time></trkpt><trkpt lat="43.9094567" lon="12.6578633"><ele>72.0</ele><time>2026-04-25T07:40:41.546Z</time></trkpt><trkpt lat="43.9093833" lon="12.6577667"><ele>72.0</ele><time>2026-04-25T07:40:42.545Z</time></trkpt><trkpt lat="43.9093133" lon="12.657665"><ele>71.8</ele><time>2026-04-25T07:40:43.546Z</time></trkpt><trkpt lat="43.9092367" lon="12.6575733"><ele>71.6</ele><time>2026-04-25T07:40:44.545Z</time></trkpt><trkpt lat="43.9091517" lon="12.657485"><ele>71.39999999999999</ele><time>2026-04-25T07:40:45.546Z</time></trkpt><trkpt lat="43.909065" lon="12.6574083"><ele>71.2</ele><time>2026-04-25T07:40:46.546Z</time></trkpt><trkpt lat="43.9089733" lon="12.6573383"><ele>71.0</ele><time>2026-04-25T07:40:47.545Z</time></trkpt><trkpt lat="43.9088833" lon="12.6572717"><ele>71.0</ele><time>2026-04-25T07:40:48.546Z</time></trkpt><trkpt lat="43.908785" lon="12.65721"><ele>71.0</ele><time>2026-04-25T07:40:49.545Z</time></trkpt><trkpt lat="43.9086817" lon="12.657145"><ele>71.0</ele><time>2026-04-25T07:40:50.546Z</time></trkpt><trkpt lat="43.9085817" lon="12.6570883"><ele>71.0</ele><time>2026-04-25T07:40:51.546Z</time></trkpt><trkpt lat="43.90848" lon="12.6570333"><ele>71.0</ele><time>2026-04-25T07:40:52.546Z</time></trkpt><trkpt lat="43.9083767" lon="12.6569783"><ele>71.39999999999999</ele><time>2026-04-25T07:40:53.545Z</time></trkpt><trkpt lat="43.9082733" lon="12.656925"><ele>71.8</ele><time>2026-04-25T07:40:54.546Z</time></trkpt><trkpt lat="43.9081717" lon="12.656875"><ele>72.19999999999999</ele><time>2026-04-25T07:40:55.546Z</time></trkpt><trkpt lat="43.9080767" lon="12.6568183"><ele>72.6</ele><time>2026-04-25T07:40:56.546Z</time></trkpt><trkpt lat="43.9079867" lon="12.65675"><ele>73.0</ele><time>2026-04-25T07:40:57.546Z</time></trkpt><trkpt lat="43.907895" lon="12.6566917"><ele>73.0</ele><time>2026-04-25T07:40:58.546Z</time></trkpt><trkpt lat="43.9078017" lon="12.6566433"><ele>73.0</ele><time>2026-04-25T07:40:59.545Z</time></trkpt><trkpt lat="43.9077033" lon="12.6566017"><ele>73.0</ele><time>2026-04-25T07:41:00.545Z</time></trkpt><trkpt lat="43.9076017" lon="12.6565683"><ele>73.0</ele><time>2026-04-25T07:41:01.546Z</time></trkpt><trkpt lat="43.9075" lon="12.6565467"><ele>73.0</ele><time>2026-04-25T07:41:02.546Z</time></trkpt><trkpt lat="43.9074" lon="12.6565567"><ele>72.6</ele><time>2026-04-25T07:41:03.546Z</time></trkpt><trkpt lat="43.9073017" lon="12.6565667"><ele>72.19999999999999</ele><time>2026-04-25T07:41:04.546Z</time></trkpt><trkpt lat="43.9072029" lon="12.6565767"><ele>71.8</ele><time>2026-04-25T07:41:05.546Z</time></trkpt><trkpt lat="43.9071018" lon="12.6565901"><ele>71.39999999999999</ele><time>2026-04-25T07:41:06.546Z</time></trkpt><trkpt lat="43.9069984" lon="12.6566127"><ele>71.0</ele><time>2026-04-25T07:41:07.546Z</time></trkpt><trkpt lat="43.9068972" lon="12.656644"><ele>71.0</ele><time>2026-04-25T07:41:08.546Z</time></trkpt><trkpt lat="43.9068027" lon="12.656684"><ele>71.0</ele><time>2026-04-25T07:41:09.546Z</time></trkpt><trkpt lat="43.9067082" lon="12.6567228"><ele>71.0</ele><time>2026-04-25T07:41:10.546Z</time></trkpt><trkpt lat="43.906624" lon="12.6567593"><ele>71.0</ele><time>2026-04-25T07:41:11.546Z</time></trkpt><trkpt lat="43.9065552" lon="12.6567811"><ele>71.0</ele><time>2026-04-25T07:41:12.546Z</time></trkpt><trkpt lat="43.9064382" lon="12.6567532"><ele>71.2</ele><time>2026-04-25T07:41:14.546Z</time></trkpt><trkpt lat="43.9063347" lon="12.6566538"><ele>71.39999999999999</ele><time>2026-04-25T07:41:16.546Z</time></trkpt><trkpt lat="43.9062869" lon="12.6565595"><ele>71.6</ele><time>2026-04-25T07:41:17.546Z</time></trkpt><trkpt lat="43.9062384" lon="12.6564333"><ele>71.8</ele><time>2026-04-25T07:41:18.546Z</time></trkpt><trkpt lat="43.9061932" lon="12.6562778"><ele>72.0</ele><time>2026-04-25T07:41:19.546Z</time></trkpt><trkpt lat="43.9061525" lon="12.6561169"><ele>72.0</ele><time>2026-04-25T07:41:20.546Z</time></trkpt><trkpt lat="43.9061234" lon="12.6559776"><ele>72.0</ele><time>2026-04-25T07:41:21.545Z</time></trkpt><trkpt lat="43.9060913" lon="12.6558476"><ele>72.0</ele><time>2026-04-25T07:41:22.546Z</time></trkpt><trkpt lat="43.9060566" lon="12.6557259"><ele>72.0</ele><time>2026-04-25T07:41:23.546Z</time></trkpt><trkpt lat="43.9060134" lon="12.6556208"><ele>72.0</ele><time>2026-04-25T07:41:24.546Z</time></trkpt><trkpt lat="43.9059624" lon="12.6555273"><ele>72.0</ele><time>2026-04-25T07:41:25.546Z</time></trkpt><trkpt lat="43.905908" lon="12.6554523"><ele>72.0</ele><time>2026-04-25T07:41:26.546Z</time></trkpt><trkpt lat="43.9058506" lon="12.6553984"><ele>72.0</ele><time>2026-04-25T07:41:27.546Z</time></trkpt><trkpt lat="43.9057802" lon="12.6553561"><ele>72.0</ele><time>2026-04-25T07:41:28.546Z</time></trkpt><trkpt lat="43.905704" lon="12.6553182"><ele>72.0</ele><time>2026-04-25T07:41:29.545Z</time></trkpt><trkpt lat="43.9056319" lon="12.6552932"><ele>72.0</ele><time>2026-04-25T07:41:30.546Z</time></trkpt><trkpt lat="43.90555" lon="12.6552749"><ele>72.0</ele><time>2026-04-25T07:41:31.546Z</time></trkpt><trkpt lat="43.9054439" lon="12.6552454"><ele>72.0</ele><time>2026-04-25T07:41:32.546Z</time></trkpt><trkpt lat="43.9053288" lon="12.6552135"><ele>72.0</ele><time>2026-04-25T07:41:33.546Z</time></trkpt><trkpt lat="43.9052192" lon="12.6551901"><ele>72.0</ele><time>2026-04-25T07:41:34.546Z</time></trkpt><trkpt lat="43.9051118" lon="12.6551676"><ele>72.0</ele><time>2026-04-25T07:41:35.545Z</time></trkpt><trkpt lat="43.9050066" lon="12.6551377"><ele>71.6</ele><time>2026-04-25T07:41:36.545Z</time></trkpt><trkpt lat="43.9049063" lon="12.6551008"><ele>71.2</ele><time>2026-04-25T07:41:37.545Z</time></trkpt><trkpt lat="43.9048167" lon="12.65505"><ele>70.8</ele><time>2026-04-25T07:41:38.545Z</time></trkpt><trkpt lat="43.90473" lon="12.6549967"><ele>70.4</ele><time>2026-04-25T07:41:39.546Z</time></trkpt><trkpt lat="43.9046433" lon="12.6549433"><ele>70.0</ele><time>2026-04-25T07:41:40.545Z</time></trkpt><trkpt lat="43.9045567" lon="12.654895"><ele>70.0</ele><time>2026-04-25T07:41:41.545Z</time></trkpt><trkpt lat="43.904465" lon="12.6548517"><ele>70.0</ele><time>2026-04-25T07:41:42.546Z</time></trkpt><trkpt lat="43.9043733" lon="12.654805"><ele>70.0</ele><time>2026-04-25T07:41:43.546Z</time></trkpt><trkpt lat="43.904295" lon="12.6547717"><ele>70.0</ele><time>2026-04-25T07:41:44.546Z</time></trkpt><trkpt lat="43.904235" lon="12.65474"><ele>70.0</ele><time>2026-04-25T07:41:45.545Z</time></trkpt><trkpt lat="43.90419" lon="12.6546683"><ele>70.0</ele><time>2026-04-25T07:41:47.546Z</time></trkpt><trkpt lat="43.9041567" lon="12.654545"><ele>71.0</ele><time>2026-04-25T07:41:49.545Z</time></trkpt><trkpt lat="43.9041267" lon="12.6544383"><ele>72.0</ele><time>2026-04-25T07:41:50.545Z</time></trkpt><trkpt lat="43.904075" lon="12.6543067"><ele>73.0</ele><time>2026-04-25T07:41:51.546Z</time></trkpt><trkpt lat="43.9040233" lon="12.6541667"><ele>74.0</ele><time>2026-04-25T07:41:52.546Z</time></trkpt><trkpt lat="43.9039567" lon="12.654025"><ele>75.0</ele><time>2026-04-25T07:41:53.546Z</time></trkpt><trkpt lat="43.903895" lon="12.65389"><ele>75.0</ele><time>2026-04-25T07:41:54.545Z</time></trkpt><trkpt lat="43.9038367" lon="12.6537633"><ele>75.0</ele><time>2026-04-25T07:41:55.546Z</time></trkpt><trkpt lat="43.9037767" lon="12.6536517"><ele>75.0</ele><time>2026-04-25T07:41:56.546Z</time></trkpt><trkpt lat="43.90371" lon="12.6535633"><ele>75.0</ele><time>2026-04-25T07:41:57.545Z</time></trkpt><trkpt lat="43.903625" lon="12.653495"><ele>75.0</ele><time>2026-04-25T07:41:58.546Z</time></trkpt><trkpt lat="43.9035183" lon="12.6534367"><ele>76.8</ele><time>2026-04-25T07:41:59.546Z</time></trkpt><trkpt lat="43.9034017" lon="12.653385"><ele>78.6</ele><time>2026-04-25T07:42:00.546Z</time></trkpt><trkpt lat="43.9032983" lon="12.6533183"><ele>80.4</ele><time>2026-04-25T07:42:01.546Z</time></trkpt><trkpt lat="43.9032017" lon="12.6532583"><ele>82.2</ele><time>2026-04-25T07:42:02.546Z</time></trkpt><trkpt lat="43.9031083" lon="12.65321"><ele>84.0</ele><time>2026-04-25T07:42:03.546Z</time></trkpt><trkpt lat="43.9030067" lon="12.6531733"><ele>84.0</ele><time>2026-04-25T07:42:04.546Z</time></trkpt><trkpt lat="43.9028933" lon="12.653155"><ele>84.0</ele><time>2026-04-25T07:42:05.546Z</time></trkpt><trkpt lat="43.90277" lon="12.65313"><ele>84.0</ele><time>2026-04-25T07:42:06.545Z</time></trkpt><trkpt lat="43.9026417" lon="12.653115"><ele>84.0</ele><time>2026-04-25T07:42:07.546Z</time></trkpt><trkpt lat="43.902515" lon="12.6531067"><ele>84.4</ele><time>2026-04-25T07:42:08.546Z</time></trkpt><trkpt lat="43.902405" lon="12.6531067"><ele>84.80000000000001</ele><time>2026-04-25T07:42:09.546Z</time></trkpt><trkpt lat="43.9023033" lon="12.6531033"><ele>85.19999999999999</ele><time>2026-04-25T07:42:10.546Z</time></trkpt><trkpt lat="43.9022017" lon="12.6531"><ele>85.6</ele><time>2026-04-25T07:42:11.546Z</time></trkpt><trkpt lat="43.9021" lon="12.6530983"><ele>86.0</ele><time>2026-04-25T07:42:12.546Z</time></trkpt><trkpt lat="43.9020067" lon="12.6530983"><ele>86.0</ele><time>2026-04-25T07:42:13.546Z</time></trkpt><trkpt lat="43.901915" lon="12.6530983"><ele>86.0</ele><time>2026-04-25T07:42:14.546Z</time></trkpt><trkpt lat="43.90182" lon="12.6530933"><ele>86.0</ele><time>2026-04-25T07:42:15.546Z</time></trkpt><trkpt lat="43.901725" lon="12.653085"><ele>86.0</ele><time>2026-04-25T07:42:16.545Z</time></trkpt><trkpt lat="43.90162" lon="12.65307"><ele>86.0</ele><time>2026-04-25T07:42:17.545Z</time></trkpt><trkpt lat="43.90152" lon="12.6530667"><ele>86.33333333333334</ele><time>2026-04-25T07:42:18.546Z</time></trkpt><trkpt lat="43.9014283" lon="12.6530617"><ele>86.66666666666667</ele><time>2026-04-25T07:42:19.546Z</time></trkpt><trkpt lat="43.9013583" lon="12.6530583"><ele>87.0</ele><time>2026-04-25T07:42:20.546Z</time></trkpt><trkpt lat="43.9012817" lon="12.65306"><ele>87.33333333333333</ele><time>2026-04-25T07:42:22.545Z</time></trkpt><trkpt lat="43.9011833" lon="12.6531367"><ele>87.66666666666666</ele><time>2026-04-25T07:42:24.546Z</time></trkpt><trkpt lat="43.9011067" lon="12.6532083"><ele>88.0</ele><time>2026-04-25T07:42:25.546Z</time></trkpt><trkpt lat="43.9010167" lon="12.6532567"><ele>87.25</ele><time>2026-04-25T07:42:26.546Z</time></trkpt><trkpt lat="43.9009117" lon="12.6532717"><ele>86.5</ele><time>2026-04-25T07:42:27.546Z</time></trkpt><trkpt lat="43.9007867" lon="12.653255"><ele>85.75</ele><time>2026-04-25T07:42:28.546Z</time></trkpt><trkpt lat="43.900625" lon="12.6532217"><ele>85.0</ele><time>2026-04-25T07:42:29.546Z</time></trkpt><trkpt lat="43.9004517" lon="12.6531783"><ele>85.0</ele><time>2026-04-25T07:42:30.546Z</time></trkpt><trkpt lat="43.9002683" lon="12.6531617"><ele>85.0</ele><time>2026-04-25T07:42:31.546Z</time></trkpt><trkpt lat="43.90009" lon="12.65317"><ele>85.0</ele><time>2026-04-25T07:42:32.546Z</time></trkpt><trkpt lat="43.89993" lon="12.653195"><ele>84.0</ele><time>2026-04-25T07:42:33.545Z</time></trkpt><trkpt lat="43.899785" lon="12.6532267"><ele>83.0</ele><time>2026-04-25T07:42:34.546Z</time></trkpt><trkpt lat="43.899645" lon="12.6532583"><ele>82.0</ele><time>2026-04-25T07:42:35.546Z</time></trkpt><trkpt lat="43.8995233" lon="12.65329"><ele>81.0</ele><time>2026-04-25T07:42:36.545Z</time></trkpt><trkpt lat="43.89942" lon="12.6533167"><ele>81.0</ele><time>2026-04-25T07:42:37.546Z</time></trkpt><trkpt lat="43.8993317" lon="12.65335"><ele>81.0</ele><time>2026-04-25T07:42:38.545Z</time></trkpt><trkpt lat="43.89926" lon="12.6533983"><ele>81.0</ele><time>2026-04-25T07:42:39.545Z</time></trkpt><trkpt lat="43.8992033" lon="12.65346"><ele>81.0</ele><time>2026-04-25T07:42:40.546Z</time></trkpt><trkpt lat="43.899135" lon="12.6535333"><ele>81.0</ele><time>2026-04-25T07:42:41.545Z</time></trkpt><trkpt lat="43.8990717" lon="12.6536283"><ele>81.0</ele><time>2026-04-25T07:42:42.546Z</time></trkpt><trkpt lat="43.8990033" lon="12.6537267"><ele>79.6</ele><time>2026-04-25T07:42:43.546Z</time></trkpt><trkpt lat="43.8989317" lon="12.65383"><ele>78.19999999999999</ele><time>2026-04-25T07:42:44.546Z</time></trkpt><trkpt lat="43.8988583" lon="12.6539233"><ele>76.80000000000001</ele><time>2026-04-25T07:42:45.545Z</time></trkpt><trkpt lat="43.89879" lon="12.654005"><ele>75.4</ele><time>2026-04-25T07:42:46.546Z</time></trkpt><trkpt lat="43.8987217" lon="12.6540817"><ele>74.0</ele><time>2026-04-25T07:42:47.546Z</time></trkpt><trkpt lat="43.8986517" lon="12.6541467"><ele>74.0</ele><time>2026-04-25T07:42:48.546Z</time></trkpt><trkpt lat="43.8985767" lon="12.654165"><ele>74.0</ele><time>2026-04-25T07:42:49.546Z</time></trkpt><trkpt lat="43.8985083" lon="12.6541417"><ele>74.0</ele><time>2026-04-25T07:42:50.546Z</time></trkpt><trkpt lat="43.8984133" lon="12.654035"><ele>74.0</ele><time>2026-04-25T07:42:52.546Z</time></trkpt><trkpt lat="43.8983817" lon="12.6539517"><ele>74.0</ele><time>2026-04-25T07:42:53.546Z</time></trkpt><trkpt lat="43.898345" lon="12.6538517"><ele>74.0</ele><time>2026-04-25T07:42:54.546Z</time></trkpt><trkpt lat="43.8983033" lon="12.6537167"><ele>74.0</ele><time>2026-04-25T07:42:55.545Z</time></trkpt><trkpt lat="43.8982517" lon="12.6535733"><ele>74.0</ele><time>2026-04-25T07:42:56.546Z</time></trkpt><trkpt lat="43.8982083" lon="12.6534417"><ele>74.0</ele><time>2026-04-25T07:42:57.546Z</time></trkpt><trkpt lat="43.8981717" lon="12.653315"><ele>74.0</ele><time>2026-04-25T07:42:58.546Z</time></trkpt><trkpt lat="43.8981383" lon="12.6532"><ele>74.0</ele><time>2026-04-25T07:42:59.546Z</time></trkpt><trkpt lat="43.8980967" lon="12.65309"><ele>74.0</ele><time>2026-04-25T07:43:00.546Z</time></trkpt><trkpt lat="43.8980367" lon="12.6529767"><ele>74.0</ele><time>2026-04-25T07:43:01.546Z</time></trkpt><trkpt lat="43.8979683" lon="12.652875"><ele>74.0</ele><time>2026-04-25T07:43:02.546Z</time></trkpt><trkpt lat="43.8978883" lon="12.6527833"><ele>74.0</ele><time>2026-04-25T07:43:03.546Z</time></trkpt><trkpt lat="43.897805" lon="12.6527133"><ele>74.0</ele><time>2026-04-25T07:43:04.546Z</time></trkpt><trkpt lat="43.897715" lon="12.6526517"><ele>74.0</ele><time>2026-04-25T07:43:05.546Z</time></trkpt><trkpt lat="43.8976333" lon="12.652595"><ele>74.0</ele><time>2026-04-25T07:43:06.545Z</time></trkpt><trkpt lat="43.8975483" lon="12.6525333"><ele>74.0</ele><time>2026-04-25T07:43:07.545Z</time></trkpt><trkpt lat="43.8974733" lon="12.6524533"><ele>74.0</ele><time>2026-04-25T07:43:08.546Z</time></trkpt><trkpt lat="43.8974017" lon="12.65237"><ele>74.0</ele><time>2026-04-25T07:43:09.545Z</time></trkpt><trkpt lat="43.8973417" lon="12.652285"><ele>74.2</ele><time>2026-04-25T07:43:10.546Z</time></trkpt><trkpt lat="43.8973017" lon="12.6521933"><ele>74.4</ele><time>2026-04-25T07:43:11.546Z</time></trkpt><trkpt lat="43.8973033" lon="12.65204"><ele>74.6</ele><time>2026-04-25T07:43:13.546Z</time></trkpt><trkpt lat="43.8973017" lon="12.6519333"><ele>74.8</ele><time>2026-04-25T07:43:14.546Z</time></trkpt><trkpt lat="43.89732" lon="12.6518083"><ele>75.0</ele><time>2026-04-25T07:43:15.546Z</time></trkpt><trkpt lat="43.897345" lon="12.651675"><ele>75.0</ele><time>2026-04-25T07:43:16.546Z</time></trkpt><trkpt lat="43.89738" lon="12.6515667"><ele>75.0</ele><time>2026-04-25T07:43:17.546Z</time></trkpt><trkpt lat="43.8974117" lon="12.6514583"><ele>75.0</ele><time>2026-04-25T07:43:18.546Z</time></trkpt><trkpt lat="43.8974217" lon="12.6513317"><ele>75.0</ele><time>2026-04-25T07:43:19.546Z</time></trkpt><trkpt lat="43.8974167" lon="12.6511967"><ele>75.0</ele><time>2026-04-25T07:43:20.545Z</time></trkpt><trkpt lat="43.8973933" lon="12.6510717"><ele>75.2</ele><time>2026-04-25T07:43:21.545Z</time></trkpt><trkpt lat="43.89735" lon="12.6509583"><ele>75.4</ele><time>2026-04-25T07:43:22.546Z</time></trkpt><trkpt lat="43.8972683" lon="12.650855"><ele>75.6</ele><time>2026-04-25T07:43:23.546Z</time></trkpt><trkpt lat="43.8971783" lon="12.650765"><ele>75.8</ele><time>2026-04-25T07:43:24.545Z</time></trkpt><trkpt lat="43.89711" lon="12.6506817"><ele>76.0</ele><time>2026-04-25T07:43:25.546Z</time></trkpt><trkpt lat="43.897065" lon="12.6505933"><ele>76.0</ele><time>2026-04-25T07:43:26.546Z</time></trkpt><trkpt lat="43.8970467" lon="12.6505"><ele>76.0</ele><time>2026-04-25T07:43:27.546Z</time></trkpt><trkpt lat="43.8970367" lon="12.6503867"><ele>76.0</ele><time>2026-04-25T07:43:28.546Z</time></trkpt><trkpt lat="43.8970383" lon="12.65027"><ele>76.0</ele><time>2026-04-25T07:43:29.546Z</time></trkpt><trkpt lat="43.8970517" lon="12.6501533"><ele>76.0</ele><time>2026-04-25T07:43:30.545Z</time></trkpt><trkpt lat="43.8970733" lon="12.6500383"><ele>76.0</ele><time>2026-04-25T07:43:31.546Z</time></trkpt><trkpt lat="43.8971083" lon="12.64994"><ele>75.8</ele><time>2026-04-25T07:43:32.546Z</time></trkpt><trkpt lat="43.8971433" lon="12.6498633"><ele>75.6</ele><time>2026-04-25T07:43:33.546Z</time></trkpt><trkpt lat="43.897245" lon="12.649745"><ele>75.4</ele><time>2026-04-25T07:43:35.545Z</time></trkpt><trkpt lat="43.8973233" lon="12.649695"><ele>75.2</ele><time>2026-04-25T07:43:36.546Z</time></trkpt><trkpt lat="43.8974117" lon="12.6496567"><ele>75.0</ele><time>2026-04-25T07:43:37.546Z</time></trkpt><trkpt lat="43.897495" lon="12.6496"><ele>75.0</ele><time>2026-04-25T07:43:38.545Z</time></trkpt><trkpt lat="43.897555" lon="12.649535"><ele>75.0</ele><time>2026-04-25T07:43:39.546Z</time></trkpt><trkpt lat="43.8976" lon="12.64944"><ele>75.0</ele><time>2026-04-25T07:43:40.546Z</time></trkpt><trkpt lat="43.897625" lon="12.6493133"><ele>75.0</ele><time>2026-04-25T07:43:41.545Z</time></trkpt><trkpt lat="43.8976133" lon="12.649185"><ele>75.0</ele><time>2026-04-25T07:43:42.546Z</time></trkpt><trkpt lat="43.8975767" lon="12.6490417"><ele>76.75</ele><time>2026-04-25T07:43:43.546Z</time></trkpt><trkpt lat="43.897505" lon="12.6488967"><ele>78.5</ele><time>2026-04-25T07:43:44.545Z</time></trkpt><trkpt lat="43.8974133" lon="12.648755"><ele>80.25</ele><time>2026-04-25T07:43:45.546Z</time></trkpt><trkpt lat="43.8973083" lon="12.6486183"><ele>82.0</ele><time>2026-04-25T07:43:46.546Z</time></trkpt><trkpt lat="43.8972033" lon="12.6484917"><ele>82.0</ele><time>2026-04-25T07:43:47.546Z</time></trkpt><trkpt lat="43.8970767" lon="12.6483717"><ele>82.0</ele><time>2026-04-25T07:43:48.546Z</time></trkpt><trkpt lat="43.89695" lon="12.6482517"><ele>82.0</ele><time>2026-04-25T07:43:49.545Z</time></trkpt><trkpt lat="43.8968367" lon="12.648165"><ele>82.0</ele><time>2026-04-25T07:43:50.546Z</time></trkpt><trkpt lat="43.8967267" lon="12.6480933"><ele>82.0</ele><time>2026-04-25T07:43:51.546Z</time></trkpt><trkpt lat="43.8966033" lon="12.648025"><ele>82.0</ele><time>2026-04-25T07:43:52.546Z</time></trkpt><trkpt lat="43.8964667" lon="12.6479467"><ele>82.0</ele><time>2026-04-25T07:43:53.546Z</time></trkpt><trkpt lat="43.8963454" lon="12.6478682"><ele>82.0</ele><time>2026-04-25T07:43:54.546Z</time></trkpt><trkpt lat="43.8962273" lon="12.6477863"><ele>82.25</ele><time>2026-04-25T07:43:55.546Z</time></trkpt><trkpt lat="43.8961123" lon="12.6477025"><ele>82.5</ele><time>2026-04-25T07:43:56.545Z</time></trkpt><trkpt lat="43.8959928" lon="12.6476211"><ele>82.75</ele><time>2026-04-25T07:43:57.545Z</time></trkpt><trkpt lat="43.895865" lon="12.647546"><ele>83.0</ele><time>2026-04-25T07:43:58.546Z</time></trkpt><trkpt lat="43.8957319" lon="12.6474784"><ele>83.0</ele><time>2026-04-25T07:43:59.546Z</time></trkpt><trkpt lat="43.8955924" lon="12.6474134"><ele>83.0</ele><time>2026-04-25T07:44:00.545Z</time></trkpt><trkpt lat="43.8954626" lon="12.64734"><ele>83.0</ele><time>2026-04-25T07:44:01.545Z</time></trkpt><trkpt lat="43.8953374" lon="12.6472702"><ele>83.0</ele><time>2026-04-25T07:44:02.546Z</time></trkpt><trkpt lat="43.8952163" lon="12.6472199"><ele>83.0</ele><time>2026-04-25T07:44:03.546Z</time></trkpt><trkpt lat="43.8950994" lon="12.647194"><ele>83.0</ele><time>2026-04-25T07:44:04.546Z</time></trkpt><trkpt lat="43.8949711" lon="12.6471837"><ele>83.0</ele><time>2026-04-25T07:44:05.546Z</time></trkpt><trkpt lat="43.894827" lon="12.6471788"><ele>83.0</ele><time>2026-04-25T07:44:06.546Z</time></trkpt><trkpt lat="43.8946897" lon="12.647174"><ele>82.75</ele><time>2026-04-25T07:44:07.546Z</time></trkpt><trkpt lat="43.8945657" lon="12.6471763"><ele>82.5</ele><time>2026-04-25T07:44:08.546Z</time></trkpt><trkpt lat="43.894437" lon="12.6471813"><ele>82.25</ele><time>2026-04-25T07:44:09.546Z</time></trkpt><trkpt lat="43.8943055" lon="12.6471805"><ele>82.0</ele><time>2026-04-25T07:44:10.546Z</time></trkpt><trkpt lat="43.894177" lon="12.6471875"><ele>82.75</ele><time>2026-04-25T07:44:11.546Z</time></trkpt><trkpt lat="43.8940551" lon="12.6471801"><ele>83.5</ele><time>2026-04-25T07:44:12.545Z</time></trkpt><trkpt lat="43.8939248" lon="12.647161"><ele>84.25</ele><time>2026-04-25T07:44:13.546Z</time></trkpt><trkpt lat="43.8938015" lon="12.6471192"><ele>85.0</ele><time>2026-04-25T07:44:14.545Z</time></trkpt><trkpt lat="43.8936786" lon="12.6470603"><ele>85.0</ele><time>2026-04-25T07:44:15.546Z</time></trkpt><trkpt lat="43.8935578" lon="12.6469877"><ele>85.0</ele><time>2026-04-25T07:44:16.546Z</time></trkpt><trkpt lat="43.8934334" lon="12.6469049"><ele>85.0</ele><time>2026-04-25T07:44:17.546Z</time></trkpt><trkpt lat="43.8933204" lon="12.6468306"><ele>85.0</ele><time>2026-04-25T07:44:18.546Z</time></trkpt><trkpt lat="43.8932167" lon="12.6467617"><ele>84.75</ele><time>2026-04-25T07:44:19.546Z</time></trkpt><trkpt lat="43.8931083" lon="12.6466867"><ele>84.5</ele><time>2026-04-25T07:44:20.545Z</time></trkpt><trkpt lat="43.8930067" lon="12.6466217"><ele>84.25</ele><time>2026-04-25T07:44:21.546Z</time></trkpt><trkpt lat="43.8928967" lon="12.646555"><ele>84.0</ele><time>2026-04-25T07:44:22.546Z</time></trkpt><trkpt lat="43.8927733" lon="12.6464867"><ele>84.0</ele><time>2026-04-25T07:44:23.546Z</time></trkpt><trkpt lat="43.8926483" lon="12.6464267"><ele>84.0</ele><time>2026-04-25T07:44:24.546Z</time></trkpt><trkpt lat="43.8925217" lon="12.6463517"><ele>84.0</ele><time>2026-04-25T07:44:25.545Z</time></trkpt><trkpt lat="43.8923933" lon="12.6462817"><ele>84.0</ele><time>2026-04-25T07:44:26.546Z</time></trkpt><trkpt lat="43.892255" lon="12.646205"><ele>84.0</ele><time>2026-04-25T07:44:27.546Z</time></trkpt><trkpt lat="43.892115" lon="12.64613"><ele>84.0</ele><time>2026-04-25T07:44:28.546Z</time></trkpt><trkpt lat="43.8919683" lon="12.6460517"><ele>84.0</ele><time>2026-04-25T07:44:29.545Z</time></trkpt><trkpt lat="43.8918233" lon="12.6459783"><ele>83.75</ele><time>2026-04-25T07:44:30.546Z</time></trkpt><trkpt lat="43.8916783" lon="12.6459117"><ele>83.5</ele><time>2026-04-25T07:44:31.545Z</time></trkpt><trkpt lat="43.89155" lon="12.645855"><ele>83.25</ele><time>2026-04-25T07:44:32.545Z</time></trkpt><trkpt lat="43.8914217" lon="12.6458117"><ele>83.0</ele><time>2026-04-25T07:44:33.546Z</time></trkpt><trkpt lat="43.8912883" lon="12.6457683"><ele>83.0</ele><time>2026-04-25T07:44:34.546Z</time></trkpt><trkpt lat="43.8911433" lon="12.6457233"><ele>83.0</ele><time>2026-04-25T07:44:35.545Z</time></trkpt><trkpt lat="43.8909917" lon="12.6456783"><ele>83.0</ele><time>2026-04-25T07:44:36.546Z</time></trkpt><trkpt lat="43.8908467" lon="12.6456267"><ele>83.5</ele><time>2026-04-25T07:44:37.546Z</time></trkpt><trkpt lat="43.890705" lon="12.6455733"><ele>84.0</ele><time>2026-04-25T07:44:38.546Z</time></trkpt><trkpt lat="43.89057" lon="12.6455167"><ele>84.5</ele><time>2026-04-25T07:44:39.545Z</time></trkpt><trkpt lat="43.8904367" lon="12.6454717"><ele>85.0</ele><time>2026-04-25T07:44:40.545Z</time></trkpt><trkpt lat="43.890295" lon="12.6454233"><ele>85.0</ele><time>2026-04-25T07:44:41.545Z</time></trkpt><trkpt lat="43.8901617" lon="12.6453933"><ele>85.0</ele><time>2026-04-25T07:44:42.545Z</time></trkpt><trkpt lat="43.8900333" lon="12.6453783"><ele>85.0</ele><time>2026-04-25T07:44:43.546Z</time></trkpt><trkpt lat="43.88991" lon="12.64537"><ele>85.0</ele><time>2026-04-25T07:44:44.546Z</time></trkpt><trkpt lat="43.8897933" lon="12.6453767"><ele>86.75</ele><time>2026-04-25T07:44:45.546Z</time></trkpt><trkpt lat="43.88968" lon="12.64541"><ele>88.5</ele><time>2026-04-25T07:44:46.546Z</time></trkpt><trkpt lat="43.8895483" lon="12.645465"><ele>90.25</ele><time>2026-04-25T07:44:47.545Z</time></trkpt><trkpt lat="43.8894233" lon="12.64551"><ele>92.0</ele><time>2026-04-25T07:44:48.546Z</time></trkpt><trkpt lat="43.8892917" lon="12.6455583"><ele>93.19999999999999</ele><time>2026-04-25T07:44:49.546Z</time></trkpt><trkpt lat="43.8891683" lon="12.6455967"><ele>94.4</ele><time>2026-04-25T07:44:50.546Z</time></trkpt><trkpt lat="43.889055" lon="12.64563"><ele>95.6</ele><time>2026-04-25T07:44:51.546Z</time></trkpt><trkpt lat="43.8889533" lon="12.645635"><ele>96.80000000000001</ele><time>2026-04-25T07:44:52.545Z</time></trkpt><trkpt lat="43.8888517" lon="12.64561"><ele>98.0</ele><time>2026-04-25T07:44:53.545Z</time></trkpt><trkpt lat="43.888731" lon="12.645557"><ele>98.0</ele><time>2026-04-25T07:44:54.545Z</time></trkpt><trkpt lat="43.8885953" lon="12.6454799"><ele>98.0</ele><time>2026-04-25T07:44:55.546Z</time></trkpt><trkpt lat="43.8884477" lon="12.6453985"><ele>98.0</ele><time>2026-04-25T07:44:56.546Z</time></trkpt><trkpt lat="43.8883098" lon="12.6453278"><ele>95.5</ele><time>2026-04-25T07:44:57.545Z</time></trkpt><trkpt lat="43.8881852" lon="12.6452629"><ele>93.0</ele><time>2026-04-25T07:44:58.546Z</time></trkpt><trkpt lat="43.8880631" lon="12.6451947"><ele>90.5</ele><time>2026-04-25T07:44:59.546Z</time></trkpt><trkpt lat="43.8879502" lon="12.6451273"><ele>88.0</ele><time>2026-04-25T07:45:00.546Z</time></trkpt><trkpt lat="43.8878509" lon="12.6450632"><ele>88.0</ele><time>2026-04-25T07:45:01.546Z</time></trkpt><trkpt lat="43.887766" lon="12.6450065"><ele>88.0</ele><time>2026-04-25T07:45:02.546Z</time></trkpt><trkpt lat="43.887688" lon="12.6449527"><ele>88.0</ele><time>2026-04-25T07:45:03.546Z</time></trkpt><trkpt lat="43.8876119" lon="12.6449136"><ele>88.0</ele><time>2026-04-25T07:45:04.546Z</time></trkpt><trkpt lat="43.8875403" lon="12.6448961"><ele>88.0</ele><time>2026-04-25T07:45:05.545Z</time></trkpt><trkpt lat="43.8874711" lon="12.6449003"><ele>88.0</ele><time>2026-04-25T07:45:06.546Z</time></trkpt><trkpt lat="43.8873884" lon="12.6449214"><ele>89.5</ele><time>2026-04-25T07:45:07.546Z</time></trkpt><trkpt lat="43.8872789" lon="12.6449536"><ele>91.0</ele><time>2026-04-25T07:45:08.545Z</time></trkpt><trkpt lat="43.8871497" lon="12.6449806"><ele>92.5</ele><time>2026-04-25T07:45:09.546Z</time></trkpt><trkpt lat="43.8870146" lon="12.6449832"><ele>94.0</ele><time>2026-04-25T07:45:10.545Z</time></trkpt><trkpt lat="43.8868625" lon="12.6449576"><ele>98.33333333333333</ele><time>2026-04-25T07:45:11.546Z</time></trkpt><trkpt lat="43.8867016" lon="12.644916"><ele>102.66666666666666</ele><time>2026-04-25T07:45:12.546Z</time></trkpt><trkpt lat="43.8865401" lon="12.6448616"><ele>107.0</ele><time>2026-04-25T07:45:13.546Z</time></trkpt><trkpt lat="43.8863901" lon="12.6448029"><ele>107.0</ele><time>2026-04-25T07:45:14.546Z</time></trkpt><trkpt lat="43.886242" lon="12.6447466"><ele>107.0</ele><time>2026-04-25T07:45:15.546Z</time></trkpt><trkpt lat="43.8861097" lon="12.644665"><ele>107.0</ele><time>2026-04-25T07:45:16.546Z</time></trkpt><trkpt lat="43.8859935" lon="12.6445635"><ele>107.0</ele><time>2026-04-25T07:45:17.546Z</time></trkpt><trkpt lat="43.8858865" lon="12.6444442"><ele>105.5</ele><time>2026-04-25T07:45:18.546Z</time></trkpt><trkpt lat="43.8857945" lon="12.6443241"><ele>104.0</ele><time>2026-04-25T07:45:19.545Z</time></trkpt><trkpt lat="43.8857099" lon="12.6442036"><ele>102.5</ele><time>2026-04-25T07:45:20.546Z</time></trkpt><trkpt lat="43.8856403" lon="12.6440831"><ele>101.0</ele><time>2026-04-25T07:45:21.546Z</time></trkpt><trkpt lat="43.8855722" lon="12.6439472"><ele>101.0</ele><time>2026-04-25T07:45:22.546Z</time></trkpt><trkpt lat="43.8855106" lon="12.6437978"><ele>101.0</ele><time>2026-04-25T07:45:23.546Z</time></trkpt><trkpt lat="43.8854488" lon="12.6436553"><ele>101.0</ele><time>2026-04-25T07:45:24.546Z</time></trkpt><trkpt lat="43.8853828" lon="12.6435145"><ele>101.0</ele><time>2026-04-25T07:45:25.546Z</time></trkpt><trkpt lat="43.885314" lon="12.6433715"><ele>100.5</ele><time>2026-04-25T07:45:26.545Z</time></trkpt><trkpt lat="43.885235" lon="12.6432317"><ele>100.0</ele><time>2026-04-25T07:45:27.546Z</time></trkpt><trkpt lat="43.88515" lon="12.6431067"><ele>99.5</ele><time>2026-04-25T07:45:28.546Z</time></trkpt><trkpt lat="43.885065" lon="12.6430017"><ele>99.0</ele><time>2026-04-25T07:45:29.546Z</time></trkpt><trkpt lat="43.884975" lon="12.6429183"><ele>99.0</ele><time>2026-04-25T07:45:30.545Z</time></trkpt><trkpt lat="43.88488" lon="12.6428683"><ele>99.0</ele><time>2026-04-25T07:45:31.545Z</time></trkpt><trkpt lat="43.8847767" lon="12.6428433"><ele>99.0</ele><time>2026-04-25T07:45:32.546Z</time></trkpt><trkpt lat="43.8846517" lon="12.6428333"><ele>99.0</ele><time>2026-04-25T07:45:33.545Z</time></trkpt><trkpt lat="43.8845167" lon="12.6428267"><ele>99.0</ele><time>2026-04-25T07:45:34.545Z</time></trkpt><trkpt lat="43.8843733" lon="12.6428267"><ele>99.0</ele><time>2026-04-25T07:45:35.546Z</time></trkpt><trkpt lat="43.88424" lon="12.6428267"><ele>99.0</ele><time>2026-04-25T07:45:36.546Z</time></trkpt><trkpt lat="43.88411" lon="12.64282"><ele>99.0</ele><time>2026-04-25T07:45:37.545Z</time></trkpt><trkpt lat="43.8840017" lon="12.6428117"><ele>99.80000000000001</ele><time>2026-04-25T07:45:38.546Z</time></trkpt><trkpt lat="43.8838967" lon="12.6428033"><ele>100.60000000000001</ele><time>2026-04-25T07:45:39.546Z</time></trkpt><trkpt lat="43.88379" lon="12.642795"><ele>101.4</ele><time>2026-04-25T07:45:40.546Z</time></trkpt><trkpt lat="43.8837017" lon="12.64279"><ele>102.2</ele><time>2026-04-25T07:45:41.545Z</time></trkpt><trkpt lat="43.8836133" lon="12.6428"><ele>103.0</ele><time>2026-04-25T07:45:42.546Z</time></trkpt><trkpt lat="43.8835283" lon="12.64281"><ele>103.0</ele><time>2026-04-25T07:45:43.546Z</time></trkpt><trkpt lat="43.8834333" lon="12.64282"><ele>103.0</ele><time>2026-04-25T07:45:44.546Z</time></trkpt><trkpt lat="43.8833333" lon="12.6428317"><ele>103.0</ele><time>2026-04-25T07:45:45.545Z</time></trkpt><trkpt lat="43.8832417" lon="12.6428483"><ele>103.0</ele><time>2026-04-25T07:45:46.545Z</time></trkpt><trkpt lat="43.8831583" lon="12.6428617"><ele>103.0</ele><time>2026-04-25T07:45:47.546Z</time></trkpt><trkpt lat="43.88307" lon="12.6428717"><ele>104.42857142857142</ele><time>2026-04-25T07:45:48.546Z</time></trkpt><trkpt lat="43.8829883" lon="12.64288"><ele>105.85714285714286</ele><time>2026-04-25T07:45:49.545Z</time></trkpt><trkpt lat="43.88292" lon="12.6428917"><ele>107.28571428571428</ele><time>2026-04-25T07:45:50.546Z</time></trkpt><trkpt lat="43.8828517" lon="12.6429017"><ele>108.71428571428571</ele><time>2026-04-25T07:45:51.546Z</time></trkpt><trkpt lat="43.8827767" lon="12.6429117"><ele>110.14285714285714</ele><time>2026-04-25T07:45:52.546Z</time></trkpt><trkpt lat="43.8827067" lon="12.6429167"><ele>111.57142857142857</ele><time>2026-04-25T07:45:53.545Z</time></trkpt><trkpt lat="43.8826417" lon="12.6429217"><ele>113.0</ele><time>2026-04-25T07:45:54.546Z</time></trkpt><trkpt lat="43.8825617" lon="12.64293"><ele>113.80000000000001</ele><time>2026-04-25T07:45:55.546Z</time></trkpt><trkpt lat="43.8824933" lon="12.642935"><ele>114.60000000000001</ele><time>2026-04-25T07:45:56.546Z</time></trkpt><trkpt lat="43.88243" lon="12.642925"><ele>115.39999999999999</ele><time>2026-04-25T07:45:57.545Z</time></trkpt><trkpt lat="43.8823133" lon="12.6429033"><ele>116.19999999999999</ele><time>2026-04-25T07:45:59.546Z</time></trkpt><trkpt lat="43.8821967" lon="12.6428867"><ele>117.0</ele><time>2026-04-25T07:46:01.546Z</time></trkpt><trkpt lat="43.8820751" lon="12.6428806"><ele>117.0</ele><time>2026-04-25T07:46:03.546Z</time></trkpt><trkpt lat="43.8820108" lon="12.6428791"><ele>117.00000000000001</ele><time>2026-04-25T07:46:04.546Z</time></trkpt><trkpt lat="43.8819434" lon="12.6428786"><ele>117.0</ele><time>2026-04-25T07:46:05.546Z</time></trkpt><trkpt lat="43.8818747" lon="12.6428805"><ele>117.0</ele><time>2026-04-25T07:46:06.546Z</time></trkpt><trkpt lat="43.881805" lon="12.6428749"><ele>117.00000000000001</ele><time>2026-04-25T07:46:07.546Z</time></trkpt><trkpt lat="43.881742" lon="12.6428645"><ele>117.0</ele><time>2026-04-25T07:46:08.545Z</time></trkpt><trkpt lat="43.8816715" lon="12.6428542"><ele>117.0</ele><time>2026-04-25T07:46:09.546Z</time></trkpt><trkpt lat="43.8815908" lon="12.6428372"><ele>117.66666666666667</ele><time>2026-04-25T07:46:10.545Z</time></trkpt><trkpt lat="43.8815094" lon="12.642819"><ele>118.33333333333334</ele><time>2026-04-25T07:46:11.546Z</time></trkpt><trkpt lat="43.8814334" lon="12.6428107"><ele>119.0</ele><time>2026-04-25T07:46:12.546Z</time></trkpt><trkpt lat="43.88136" lon="12.6428104"><ele>119.66666666666667</ele><time>2026-04-25T07:46:13.546Z</time></trkpt><trkpt lat="43.8812704" lon="12.6428213"><ele>120.33333333333334</ele><time>2026-04-25T07:46:14.545Z</time></trkpt><trkpt lat="43.88117" lon="12.6428397"><ele>121.0</ele><time>2026-04-25T07:46:15.546Z</time></trkpt><trkpt lat="43.8810637" lon="12.6428681"><ele>121.0</ele><time>2026-04-25T07:46:16.546Z</time></trkpt><trkpt lat="43.880953" lon="12.6429082"><ele>121.0</ele><time>2026-04-25T07:46:17.545Z</time></trkpt><trkpt lat="43.8808349" lon="12.6429486"><ele>121.0</ele><time>2026-04-25T07:46:18.546Z</time></trkpt><trkpt lat="43.880711" lon="12.6429881"><ele>121.0</ele><time>2026-04-25T07:46:19.546Z</time></trkpt><trkpt lat="43.8805804" lon="12.6430298"><ele>119.5</ele><time>2026-04-25T07:46:20.545Z</time></trkpt><trkpt lat="43.8804561" lon="12.6430705"><ele>118.0</ele><time>2026-04-25T07:46:21.545Z</time></trkpt><trkpt lat="43.8803414" lon="12.6431153"><ele>116.5</ele><time>2026-04-25T07:46:22.545Z</time></trkpt><trkpt lat="43.8802332" lon="12.6431523"><ele>115.0</ele><time>2026-04-25T07:46:23.545Z</time></trkpt><trkpt lat="43.8801233" lon="12.6431754"><ele>113.0</ele><time>2026-04-25T07:46:24.545Z</time></trkpt><trkpt lat="43.8800109" lon="12.6431816"><ele>111.0</ele><time>2026-04-25T07:46:25.546Z</time></trkpt><trkpt lat="43.8798994" lon="12.643185"><ele>109.0</ele><time>2026-04-25T07:46:26.546Z</time></trkpt><trkpt lat="43.8797874" lon="12.6431925"><ele>107.0</ele><time>2026-04-25T07:46:27.546Z</time></trkpt><trkpt lat="43.8796697" lon="12.6432058"><ele>107.0</ele><time>2026-04-25T07:46:28.546Z</time></trkpt><trkpt lat="43.879548" lon="12.6432232"><ele>107.0</ele><time>2026-04-25T07:46:29.546Z</time></trkpt><trkpt lat="43.8794219" lon="12.6432449"><ele>107.0</ele><time>2026-04-25T07:46:30.546Z</time></trkpt><trkpt lat="43.8792905" lon="12.6432655"><ele>107.0</ele><time>2026-04-25T07:46:31.546Z</time></trkpt><trkpt lat="43.8791565" lon="12.6432879"><ele>106.75</ele><time>2026-04-25T07:46:32.546Z</time></trkpt><trkpt lat="43.8790275" lon="12.6433088"><ele>106.5</ele><time>2026-04-25T07:46:33.546Z</time></trkpt><trkpt lat="43.8789121" lon="12.6433308"><ele>106.25</ele><time>2026-04-25T07:46:34.545Z</time></trkpt><trkpt lat="43.87881" lon="12.6433517"><ele>106.0</ele><time>2026-04-25T07:46:35.546Z</time></trkpt><trkpt lat="43.878705" lon="12.6433783"><ele>106.0</ele><time>2026-04-25T07:46:36.545Z</time></trkpt><trkpt lat="43.8786083" lon="12.64342"><ele>106.0</ele><time>2026-04-25T07:46:37.545Z</time></trkpt><trkpt lat="43.8785133" lon="12.6434867"><ele>106.0</ele><time>2026-04-25T07:46:38.546Z</time></trkpt><trkpt lat="43.8784083" lon="12.6435867"><ele>106.0</ele><time>2026-04-25T07:46:39.546Z</time></trkpt><trkpt lat="43.87831" lon="12.6437083"><ele>110.6</ele><time>2026-04-25T07:46:40.546Z</time></trkpt><trkpt lat="43.8782183" lon="12.6438167"><ele>115.19999999999999</ele><time>2026-04-25T07:46:41.546Z</time></trkpt><trkpt lat="43.8781233" lon="12.6439083"><ele>119.80000000000001</ele><time>2026-04-25T07:46:42.545Z</time></trkpt><trkpt lat="43.8780367" lon="12.6439783"><ele>124.4</ele><time>2026-04-25T07:46:43.545Z</time></trkpt><trkpt lat="43.877945" lon="12.6440033"><ele>129.0</ele><time>2026-04-25T07:46:44.546Z</time></trkpt><trkpt lat="43.8778317" lon="12.6439967"><ele>129.0</ele><time>2026-04-25T07:46:45.545Z</time></trkpt><trkpt lat="43.8776933" lon="12.6439617"><ele>129.0</ele><time>2026-04-25T07:46:46.546Z</time></trkpt><trkpt lat="43.877555" lon="12.643905"><ele>129.0</ele><time>2026-04-25T07:46:47.546Z</time></trkpt><trkpt lat="43.877435" lon="12.6438383"><ele>129.0</ele><time>2026-04-25T07:46:48.545Z</time></trkpt><trkpt lat="43.8773333" lon="12.6437783"><ele>126.33333333333333</ele><time>2026-04-25T07:46:49.546Z</time></trkpt><trkpt lat="43.87725" lon="12.6437167"><ele>123.66666666666666</ele><time>2026-04-25T07:46:50.546Z</time></trkpt><trkpt lat="43.87718" lon="12.6436567"><ele>121.0</ele><time>2026-04-25T07:46:51.546Z</time></trkpt><trkpt lat="43.8771317" lon="12.6435783"><ele>118.33333333333333</ele><time>2026-04-25T07:46:52.546Z</time></trkpt><trkpt lat="43.8770917" lon="12.643485"><ele>115.66666666666666</ele><time>2026-04-25T07:46:53.545Z</time></trkpt><trkpt lat="43.87707" lon="12.6433767"><ele>113.0</ele><time>2026-04-25T07:46:54.546Z</time></trkpt><trkpt lat="43.8770583" lon="12.6432667"><ele>112.2</ele><time>2026-04-25T07:46:55.546Z</time></trkpt><trkpt lat="43.8770383" lon="12.6431667"><ele>111.4</ele><time>2026-04-25T07:46:56.546Z</time></trkpt><trkpt lat="43.8769983" lon="12.6430733"><ele>110.60000000000001</ele><time>2026-04-25T07:46:57.546Z</time></trkpt><trkpt lat="43.8769467" lon="12.6429517"><ele>109.80000000000001</ele><time>2026-04-25T07:46:58.546Z</time></trkpt><trkpt lat="43.87689" lon="12.6428183"><ele>109.0</ele><time>2026-04-25T07:46:59.546Z</time></trkpt><trkpt lat="43.8768367" lon="12.6426617"><ele>108.5</ele><time>2026-04-25T07:47:00.546Z</time></trkpt><trkpt lat="43.876785" lon="12.6424933"><ele>108.0</ele><time>2026-04-25T07:47:01.546Z</time></trkpt><trkpt lat="43.876735" lon="12.642325"><ele>107.5</ele><time>2026-04-25T07:47:02.546Z</time></trkpt><trkpt lat="43.87669" lon="12.64217"><ele>107.0</ele><time>2026-04-25T07:47:03.546Z</time></trkpt><trkpt lat="43.8766467" lon="12.6420333"><ele>108.0</ele><time>2026-04-25T07:47:04.545Z</time></trkpt><trkpt lat="43.876605" lon="12.6419067"><ele>108.99999999999999</ele><time>2026-04-25T07:47:05.545Z</time></trkpt><trkpt lat="43.8765583" lon="12.6417933"><ele>109.99999999999999</ele><time>2026-04-25T07:47:06.546Z</time></trkpt><trkpt lat="43.87648" lon="12.641685"><ele>111.0</ele><time>2026-04-25T07:47:07.546Z</time></trkpt><trkpt lat="43.8763883" lon="12.6415733"><ele>112.0</ele><time>2026-04-25T07:47:08.546Z</time></trkpt><trkpt lat="43.8762867" lon="12.641455"><ele>112.0</ele><time>2026-04-25T07:47:09.546Z</time></trkpt><trkpt lat="43.8761867" lon="12.641325"><ele>112.0</ele><time>2026-04-25T07:47:10.546Z</time></trkpt><trkpt lat="43.876105" lon="12.6411967"><ele>112.0</ele><time>2026-04-25T07:47:11.546Z</time></trkpt><trkpt lat="43.8760383" lon="12.64106"><ele>112.0</ele><time>2026-04-25T07:47:12.546Z</time></trkpt><trkpt lat="43.8759767" lon="12.6409183"><ele>112.0</ele><time>2026-04-25T07:47:13.545Z</time></trkpt><trkpt lat="43.8759217" lon="12.6407833"><ele>111.99999999999999</ele><time>2026-04-25T07:47:14.546Z</time></trkpt><trkpt lat="43.8758667" lon="12.6406433"><ele>111.99999999999999</ele><time>2026-04-25T07:47:15.545Z</time></trkpt><trkpt lat="43.8758133" lon="12.6405217"><ele>112.0</ele><time>2026-04-25T07:47:16.546Z</time></trkpt><trkpt lat="43.87577" lon="12.64041"><ele>112.0</ele><time>2026-04-25T07:47:17.545Z</time></trkpt><trkpt lat="43.8757217" lon="12.6402967"><ele>112.0</ele><time>2026-04-25T07:47:18.546Z</time></trkpt><trkpt lat="43.875685" lon="12.64018"><ele>111.99999999999999</ele><time>2026-04-25T07:47:19.546Z</time></trkpt><trkpt lat="43.8756417" lon="12.640065"><ele>111.99999999999999</ele><time>2026-04-25T07:47:20.545Z</time></trkpt><trkpt lat="43.8755717" lon="12.639925"><ele>112.0</ele><time>2026-04-25T07:47:21.546Z</time></trkpt><trkpt lat="43.87549" lon="12.6397917"><ele>112.0</ele><time>2026-04-25T07:47:22.545Z</time></trkpt><trkpt lat="43.8754083" lon="12.63965"><ele>112.0</ele><time>2026-04-25T07:47:23.546Z</time></trkpt><trkpt lat="43.8753233" lon="12.6395367"><ele>111.99999999999999</ele><time>2026-04-25T07:47:24.546Z</time></trkpt><trkpt lat="43.875245" lon="12.6394383"><ele>111.99999999999999</ele><time>2026-04-25T07:47:25.545Z</time></trkpt><trkpt lat="43.8751717" lon="12.63935"><ele>112.0</ele><time>2026-04-25T07:47:26.546Z</time></trkpt><trkpt lat="43.8751167" lon="12.63926"><ele>112.0</ele><time>2026-04-25T07:47:27.546Z</time></trkpt><trkpt lat="43.8750567" lon="12.6391633"><ele>113.19999999999999</ele><time>2026-04-25T07:47:28.546Z</time></trkpt><trkpt lat="43.874995" lon="12.6390667"><ele>114.39999999999999</ele><time>2026-04-25T07:47:29.546Z</time></trkpt><trkpt lat="43.8749283" lon="12.63897"><ele>115.60000000000001</ele><time>2026-04-25T07:47:30.546Z</time></trkpt><trkpt lat="43.8748583" lon="12.6388683"><ele>116.80000000000001</ele><time>2026-04-25T07:47:31.545Z</time></trkpt><trkpt lat="43.8747817" lon="12.6387783"><ele>118.0</ele><time>2026-04-25T07:47:32.545Z</time></trkpt><trkpt lat="43.8747017" lon="12.6386967"><ele>118.5</ele><time>2026-04-25T07:47:33.546Z</time></trkpt><trkpt lat="43.874615" lon="12.63862"><ele>119.0</ele><time>2026-04-25T07:47:34.546Z</time></trkpt><trkpt lat="43.8745133" lon="12.6385533"><ele>119.5</ele><time>2026-04-25T07:47:35.545Z</time></trkpt><trkpt lat="43.8744067" lon="12.6384767"><ele>120.0</ele><time>2026-04-25T07:47:36.546Z</time></trkpt><trkpt lat="43.8742967" lon="12.638385"><ele>119.25</ele><time>2026-04-25T07:47:37.546Z</time></trkpt><trkpt lat="43.874195" lon="12.6382867"><ele>118.5</ele><time>2026-04-25T07:47:38.546Z</time></trkpt><trkpt lat="43.87409" lon="12.6382"><ele>117.75</ele><time>2026-04-25T07:47:39.545Z</time></trkpt><trkpt lat="43.873985" lon="12.6381117"><ele>117.0</ele><time>2026-04-25T07:47:40.546Z</time></trkpt><trkpt lat="43.8738767" lon="12.6380133"><ele>117.0</ele><time>2026-04-25T07:47:41.545Z</time></trkpt><trkpt lat="43.87378" lon="12.6378983"><ele>117.0</ele><time>2026-04-25T07:47:42.546Z</time></trkpt><trkpt lat="43.8736917" lon="12.6377717"><ele>117.0</ele><time>2026-04-25T07:47:43.546Z</time></trkpt><trkpt lat="43.8735983" lon="12.637625"><ele>117.0</ele><time>2026-04-25T07:47:44.545Z</time></trkpt><trkpt lat="43.8735" lon="12.6374767"><ele>117.25</ele><time>2026-04-25T07:47:45.546Z</time></trkpt><trkpt lat="43.8734033" lon="12.6373183"><ele>117.5</ele><time>2026-04-25T07:47:46.545Z</time></trkpt><trkpt lat="43.8733" lon="12.637165"><ele>117.75</ele><time>2026-04-25T07:47:47.545Z</time></trkpt><trkpt lat="43.8731983" lon="12.6370217"><ele>118.0</ele><time>2026-04-25T07:47:48.545Z</time></trkpt><trkpt lat="43.8731033" lon="12.6368567"><ele>118.0</ele><time>2026-04-25T07:47:49.545Z</time></trkpt><trkpt lat="43.8730167" lon="12.6366817"><ele>118.0</ele><time>2026-04-25T07:47:50.546Z</time></trkpt><trkpt lat="43.872945" lon="12.636515"><ele>118.0</ele><time>2026-04-25T07:47:51.546Z</time></trkpt><trkpt lat="43.87287" lon="12.6363567"><ele>118.0</ele><time>2026-04-25T07:47:52.545Z</time></trkpt><trkpt lat="43.8727983" lon="12.63621"><ele>117.5</ele><time>2026-04-25T07:47:53.546Z</time></trkpt><trkpt lat="43.872735" lon="12.63607"><ele>117.0</ele><time>2026-04-25T07:47:54.545Z</time></trkpt><trkpt lat="43.8726817" lon="12.6359417"><ele>116.5</ele><time>2026-04-25T07:47:55.545Z</time></trkpt><trkpt lat="43.87263" lon="12.6358067"><ele>116.0</ele><time>2026-04-25T07:47:56.546Z</time></trkpt><trkpt lat="43.8725717" lon="12.635665"><ele>116.0</ele><time>2026-04-25T07:47:57.545Z</time></trkpt><trkpt lat="43.8725083" lon="12.6355083"><ele>116.0</ele><time>2026-04-25T07:47:58.546Z</time></trkpt><trkpt lat="43.872435" lon="12.6353433"><ele>116.0</ele><time>2026-04-25T07:47:59.546Z</time></trkpt><trkpt lat="43.8723583" lon="12.6352017"><ele>116.0</ele><time>2026-04-25T07:48:00.546Z</time></trkpt><trkpt lat="43.8722717" lon="12.6350767"><ele>116.4</ele><time>2026-04-25T07:48:01.545Z</time></trkpt><trkpt lat="43.872195" lon="12.634965"><ele>116.8</ele><time>2026-04-25T07:48:02.546Z</time></trkpt><trkpt lat="43.87211" lon="12.6348783"><ele>117.20000000000002</ele><time>2026-04-25T07:48:03.546Z</time></trkpt><trkpt lat="43.872025" lon="12.6347933"><ele>117.60000000000001</ele><time>2026-04-25T07:48:04.545Z</time></trkpt><trkpt lat="43.87193" lon="12.6347183"><ele>118.0</ele><time>2026-04-25T07:48:05.546Z</time></trkpt><trkpt lat="43.871825" lon="12.6346417"><ele>118.25</ele><time>2026-04-25T07:48:06.545Z</time></trkpt><trkpt lat="43.8717233" lon="12.6345533"><ele>118.5</ele><time>2026-04-25T07:48:07.546Z</time></trkpt><trkpt lat="43.8716217" lon="12.6344533"><ele>118.75</ele><time>2026-04-25T07:48:08.545Z</time></trkpt><trkpt lat="43.87152" lon="12.63434"><ele>119.0</ele><time>2026-04-25T07:48:09.545Z</time></trkpt><trkpt lat="43.8714117" lon="12.6342117"><ele>119.66666666666666</ele><time>2026-04-25T07:48:10.546Z</time></trkpt><trkpt lat="43.8713083" lon="12.6340733"><ele>120.33333333333334</ele><time>2026-04-25T07:48:11.546Z</time></trkpt><trkpt lat="43.8711867" lon="12.633935"><ele>121.0</ele><time>2026-04-25T07:48:12.545Z</time></trkpt><trkpt lat="43.8710567" lon="12.633805"><ele>121.0</ele><time>2026-04-25T07:48:13.546Z</time></trkpt><trkpt lat="43.8709433" lon="12.6336783"><ele>121.0</ele><time>2026-04-25T07:48:14.546Z</time></trkpt><trkpt lat="43.8708467" lon="12.63357"><ele>121.0</ele><time>2026-04-25T07:48:15.546Z</time></trkpt><trkpt lat="43.87077" lon="12.63347"><ele>121.0</ele><time>2026-04-25T07:48:16.545Z</time></trkpt><trkpt lat="43.8706882" lon="12.6333586"><ele>121.75</ele><time>2026-04-25T07:48:17.546Z</time></trkpt><trkpt lat="43.8706175" lon="12.6332196"><ele>122.5</ele><time>2026-04-25T07:48:18.546Z</time></trkpt><trkpt lat="43.8705367" lon="12.6330621"><ele>123.25</ele><time>2026-04-25T07:48:19.546Z</time></trkpt><trkpt lat="43.8704627" lon="12.6328728"><ele>124.0</ele><time>2026-04-25T07:48:20.546Z</time></trkpt><trkpt lat="43.870403" lon="12.632674"><ele>125.33333333333334</ele><time>2026-04-25T07:48:21.546Z</time></trkpt><trkpt lat="43.8703413" lon="12.6324672"><ele>126.66666666666666</ele><time>2026-04-25T07:48:22.545Z</time></trkpt><trkpt lat="43.8702775" lon="12.6322673"><ele>128.0</ele><time>2026-04-25T07:48:23.545Z</time></trkpt><trkpt lat="43.8702075" lon="12.6320744"><ele>129.25</ele><time>2026-04-25T07:48:24.545Z</time></trkpt><trkpt lat="43.8701454" lon="12.6318829"><ele>130.5</ele><time>2026-04-25T07:48:25.546Z</time></trkpt><trkpt lat="43.8700859" lon="12.6316967"><ele>131.75</ele><time>2026-04-25T07:48:26.546Z</time></trkpt><trkpt lat="43.8700289" lon="12.6315097"><ele>133.0</ele><time>2026-04-25T07:48:27.546Z</time></trkpt><trkpt lat="43.8699715" lon="12.6313161"><ele>131.75</ele><time>2026-04-25T07:48:28.545Z</time></trkpt><trkpt lat="43.8699137" lon="12.6311315"><ele>130.5</ele><time>2026-04-25T07:48:29.546Z</time></trkpt><trkpt lat="43.869856" lon="12.6309607"><ele>129.25</ele><time>2026-04-25T07:48:30.546Z</time></trkpt><trkpt lat="43.8698022" lon="12.6307932"><ele>128.0</ele><time>2026-04-25T07:48:31.545Z</time></trkpt><trkpt lat="43.8697491" lon="12.6306343"><ele>128.0</ele><time>2026-04-25T07:48:32.546Z</time></trkpt><trkpt lat="43.8696938" lon="12.6304697"><ele>128.0</ele><time>2026-04-25T07:48:33.545Z</time></trkpt><trkpt lat="43.8696485" lon="12.6303104"><ele>128.0</ele><time>2026-04-25T07:48:34.546Z</time></trkpt><trkpt lat="43.8696026" lon="12.6301547"><ele>128.0</ele><time>2026-04-25T07:48:35.546Z</time></trkpt><trkpt lat="43.8695411" lon="12.6299957"><ele>127.5</ele><time>2026-04-25T07:48:36.545Z</time></trkpt><trkpt lat="43.869463" lon="12.6298345"><ele>127.0</ele><time>2026-04-25T07:48:37.545Z</time></trkpt><trkpt lat="43.8693735" lon="12.629666"><ele>126.5</ele><time>2026-04-25T07:48:38.545Z</time></trkpt><trkpt lat="43.8692917" lon="12.6295099"><ele>126.0</ele><time>2026-04-25T07:48:39.546Z</time></trkpt><trkpt lat="43.8692263" lon="12.629375"><ele>126.0</ele><time>2026-04-25T07:48:40.546Z</time></trkpt><trkpt lat="43.8691754" lon="12.6292687"><ele>126.0</ele><time>2026-04-25T07:48:41.545Z</time></trkpt><trkpt lat="43.8691315" lon="12.6291935"><ele>126.0</ele><time>2026-04-25T07:48:42.546Z</time></trkpt><trkpt lat="43.8690386" lon="12.6291088"><ele>126.0</ele><time>2026-04-25T07:48:44.545Z</time></trkpt><trkpt lat="43.8689463" lon="12.6291011"><ele>126.0</ele><time>2026-04-25T07:48:46.546Z</time></trkpt><trkpt lat="43.8688812" lon="12.6291265"><ele>126.0</ele><time>2026-04-25T07:48:47.546Z</time></trkpt><trkpt lat="43.8687864" lon="12.6291699"><ele>126.0</ele><time>2026-04-25T07:48:48.546Z</time></trkpt><trkpt lat="43.8686624" lon="12.6292263"><ele>126.0</ele><time>2026-04-25T07:48:49.546Z</time></trkpt><trkpt lat="43.8685267" lon="12.6292933"><ele>126.0</ele><time>2026-04-25T07:48:50.546Z</time></trkpt><trkpt lat="43.8684133" lon="12.6293383"><ele>126.0</ele><time>2026-04-25T07:48:51.546Z</time></trkpt><trkpt lat="43.8683" lon="12.6293617"><ele>126.16666666666667</ele><time>2026-04-25T07:48:52.545Z</time></trkpt><trkpt lat="43.8681917" lon="12.62937"><ele>126.33333333333334</ele><time>2026-04-25T07:48:53.546Z</time></trkpt><trkpt lat="43.8681" lon="12.6293683"><ele>126.5</ele><time>2026-04-25T07:48:54.546Z</time></trkpt><trkpt lat="43.8680267" lon="12.6293683"><ele>126.66666666666667</ele><time>2026-04-25T07:48:55.546Z</time></trkpt><trkpt lat="43.8679467" lon="12.62938"><ele>126.83333333333334</ele><time>2026-04-25T07:48:57.545Z</time></trkpt><trkpt lat="43.8679617" lon="12.629465"><ele>127.0</ele><time>2026-04-25T07:49:00.546Z</time></trkpt><trkpt lat="43.8680417" lon="12.6294983"><ele>127.0</ele><time>2026-04-25T07:49:02.546Z</time></trkpt><trkpt lat="43.868145" lon="12.6295583"><ele>126.99999999999999</ele><time>2026-04-25T07:49:04.546Z</time></trkpt><trkpt lat="43.8682183" lon="12.6296367"><ele>126.99999999999999</ele><time>2026-04-25T07:49:06.545Z</time></trkpt><trkpt lat="43.8682333" lon="12.6297383"><ele>127.0</ele><time>2026-04-25T07:49:08.546Z</time></trkpt><trkpt lat="43.86819" lon="12.62983"><ele>127.0</ele><time>2026-04-25T07:49:10.546Z</time></trkpt><trkpt lat="43.868075" lon="12.62994"><ele>127.00000000000001</ele><time>2026-04-25T07:49:12.546Z</time></trkpt><trkpt lat="43.8680017" lon="12.630015"><ele>127.0</ele><time>2026-04-25T07:49:13.545Z</time></trkpt><trkpt lat="43.8679417" lon="12.6301167"><ele>127.0</ele><time>2026-04-25T07:49:14.545Z</time></trkpt><trkpt lat="43.8679033" lon="12.6302183"><ele>127.0</ele><time>2026-04-25T07:49:15.546Z</time></trkpt><trkpt lat="43.8679" lon="12.63031"><ele>127.00000000000001</ele><time>2026-04-25T07:49:16.546Z</time></trkpt><trkpt lat="43.8679117" lon="12.6304017"><ele>127.0</ele><time>2026-04-25T07:49:17.546Z</time></trkpt><trkpt lat="43.8679317" lon="12.6305033"><ele>128.33333333333334</ele><time>2026-04-25T07:49:18.546Z</time></trkpt><trkpt lat="43.8679467" lon="12.63061"><ele>129.66666666666669</ele><time>2026-04-25T07:49:19.545Z</time></trkpt><trkpt lat="43.8679517" lon="12.6307033"><ele>131.0</ele><time>2026-04-25T07:49:20.546Z</time></trkpt><trkpt lat="43.8679383" lon="12.6307933"><ele>132.33333333333334</ele><time>2026-04-25T07:49:21.545Z</time></trkpt><trkpt lat="43.8679167" lon="12.63088"><ele>133.66666666666666</ele><time>2026-04-25T07:49:22.545Z</time></trkpt><trkpt lat="43.8678667" lon="12.631025"><ele>135.0</ele><time>2026-04-25T07:49:24.546Z</time></trkpt><trkpt lat="43.8678333" lon="12.6311017"><ele>137.33333333333334</ele><time>2026-04-25T07:49:25.546Z</time></trkpt><trkpt lat="43.8678017" lon="12.6311783"><ele>139.66666666666666</ele><time>2026-04-25T07:49:26.546Z</time></trkpt><trkpt lat="43.8677683" lon="12.631255"><ele>142.0</ele><time>2026-04-25T07:49:27.545Z</time></trkpt><trkpt lat="43.8677117" lon="12.6314"><ele>144.33333333333331</ele><time>2026-04-25T07:49:29.546Z</time></trkpt><trkpt lat="43.8676817" lon="12.631485"><ele>146.66666666666666</ele><time>2026-04-25T07:49:30.546Z</time></trkpt><trkpt lat="43.8676483" lon="12.6315867"><ele>149.0</ele><time>2026-04-25T07:49:31.546Z</time></trkpt><trkpt lat="43.8676133" lon="12.6316867"><ele>152.2</ele><time>2026-04-25T07:49:32.545Z</time></trkpt><trkpt lat="43.86758" lon="12.6317783"><ele>155.4</ele><time>2026-04-25T07:49:33.545Z</time></trkpt><trkpt lat="43.8675483" lon="12.6318567"><ele>158.6</ele><time>2026-04-25T07:49:34.545Z</time></trkpt><trkpt lat="43.86749" lon="12.6320017"><ele>161.8</ele><time>2026-04-25T07:49:36.545Z</time></trkpt><trkpt lat="43.8674217" lon="12.6321517"><ele>165.0</ele><time>2026-04-25T07:49:38.546Z</time></trkpt><trkpt lat="43.8673833" lon="12.6322267"><ele>167.42857142857144</ele><time>2026-04-25T07:49:39.546Z</time></trkpt><trkpt lat="43.8673417" lon="12.6323067"><ele>169.85714285714286</ele><time>2026-04-25T07:49:40.546Z</time></trkpt><trkpt lat="43.8672983" lon="12.6323733"><ele>172.28571428571428</ele><time>2026-04-25T07:49:41.546Z</time></trkpt><trkpt lat="43.867255" lon="12.6324367"><ele>174.71428571428572</ele><time>2026-04-25T07:49:42.546Z</time></trkpt><trkpt lat="43.86721" lon="12.6325067"><ele>177.14285714285714</ele><time>2026-04-25T07:49:43.546Z</time></trkpt><trkpt lat="43.8671633" lon="12.6326"><ele>179.57142857142858</ele><time>2026-04-25T07:49:44.545Z</time></trkpt><trkpt lat="43.8671233" lon="12.6326917"><ele>182.0</ele><time>2026-04-25T07:49:45.545Z</time></trkpt><trkpt lat="43.8670867" lon="12.63279"><ele>182.66666666666666</ele><time>2026-04-25T07:49:46.546Z</time></trkpt><trkpt lat="43.8670483" lon="12.63288"><ele>183.33333333333331</ele><time>2026-04-25T07:49:47.546Z</time></trkpt><trkpt lat="43.8670083" lon="12.6329717"><ele>184.0</ele><time>2026-04-25T07:49:48.546Z</time></trkpt><trkpt lat="43.8669683" lon="12.63305"><ele>184.66666666666666</ele><time>2026-04-25T07:49:49.546Z</time></trkpt><trkpt lat="43.8668933" lon="12.63316"><ele>185.33333333333334</ele><time>2026-04-25T07:49:51.546Z</time></trkpt><trkpt lat="43.866795" lon="12.6332433"><ele>186.0</ele><time>2026-04-25T07:49:53.546Z</time></trkpt><trkpt lat="43.8667283" lon="12.63329"><ele>187.4</ele><time>2026-04-25T07:49:54.545Z</time></trkpt><trkpt lat="43.8666533" lon="12.633345"><ele>188.8</ele><time>2026-04-25T07:49:55.546Z</time></trkpt><trkpt lat="43.8665717" lon="12.6334067"><ele>190.20000000000002</ele><time>2026-04-25T07:49:56.546Z</time></trkpt><trkpt lat="43.8664867" lon="12.633485"><ele>191.60000000000002</ele><time>2026-04-25T07:49:57.546Z</time></trkpt><trkpt lat="43.8664017" lon="12.6335733"><ele>193.0</ele><time>2026-04-25T07:49:58.546Z</time></trkpt><trkpt lat="43.8663067" lon="12.633655"><ele>193.0</ele><time>2026-04-25T07:49:59.546Z</time></trkpt><trkpt lat="43.8662017" lon="12.63373"><ele>193.0</ele><time>2026-04-25T07:50:00.545Z</time></trkpt><trkpt lat="43.8661017" lon="12.6338033"><ele>193.0</ele><time>2026-04-25T07:50:01.545Z</time></trkpt><trkpt lat="43.8660083" lon="12.63387"><ele>193.0</ele><time>2026-04-25T07:50:02.546Z</time></trkpt><trkpt lat="43.8659233" lon="12.6339283"><ele>193.0</ele><time>2026-04-25T07:50:03.545Z</time></trkpt><trkpt lat="43.86584" lon="12.6339833"><ele>196.2</ele><time>2026-04-25T07:50:04.545Z</time></trkpt><trkpt lat="43.8657567" lon="12.63404"><ele>199.4</ele><time>2026-04-25T07:50:05.546Z</time></trkpt><trkpt lat="43.8656767" lon="12.6341083"><ele>202.6</ele><time>2026-04-25T07:50:06.546Z</time></trkpt><trkpt lat="43.8656083" lon="12.6341817"><ele>205.79999999999998</ele><time>2026-04-25T07:50:07.545Z</time></trkpt><trkpt lat="43.8655317" lon="12.6342617"><ele>209.0</ele><time>2026-04-25T07:50:08.545Z</time></trkpt><trkpt lat="43.865455" lon="12.6343367"><ele>209.00000000000003</ele><time>2026-04-25T07:50:09.545Z</time></trkpt><trkpt lat="43.8653833" lon="12.6344067"><ele>209.0</ele><time>2026-04-25T07:50:10.546Z</time></trkpt><trkpt lat="43.865315" lon="12.6344733"><ele>209.0</ele><time>2026-04-25T07:50:11.545Z</time></trkpt><trkpt lat="43.8652533" lon="12.6345417"><ele>209.0</ele><time>2026-04-25T07:50:12.546Z</time></trkpt><trkpt lat="43.8651883" lon="12.6346133"><ele>209.00000000000003</ele><time>2026-04-25T07:50:13.546Z</time></trkpt><trkpt lat="43.8651217" lon="12.6346883"><ele>209.0</ele><time>2026-04-25T07:50:14.545Z</time></trkpt><trkpt lat="43.8650533" lon="12.6347767"><ele>209.50000000000003</ele><time>2026-04-25T07:50:15.546Z</time></trkpt><trkpt lat="43.8649833" lon="12.6348683"><ele>210.0</ele><time>2026-04-25T07:50:16.545Z</time></trkpt><trkpt lat="43.86491" lon="12.6349583"><ele>210.5</ele><time>2026-04-25T07:50:17.546Z</time></trkpt><trkpt lat="43.8648467" lon="12.63504"><ele>211.0</ele><time>2026-04-25T07:50:18.546Z</time></trkpt><trkpt lat="43.8647867" lon="12.6351167"><ele>211.50000000000003</ele><time>2026-04-25T07:50:19.546Z</time></trkpt><trkpt lat="43.864725" lon="12.6351967"><ele>212.0</ele><time>2026-04-25T07:50:20.546Z</time></trkpt><trkpt lat="43.86466" lon="12.6352833"><ele>211.39999999999998</ele><time>2026-04-25T07:50:21.546Z</time></trkpt><trkpt lat="43.86459" lon="12.63538"><ele>210.79999999999998</ele><time>2026-04-25T07:50:22.545Z</time></trkpt><trkpt lat="43.8645167" lon="12.6354833"><ele>210.2</ele><time>2026-04-25T07:50:23.545Z</time></trkpt><trkpt lat="43.8644417" lon="12.6355933"><ele>209.6</ele><time>2026-04-25T07:50:24.546Z</time></trkpt><trkpt lat="43.8643667" lon="12.6357067"><ele>209.0</ele><time>2026-04-25T07:50:25.545Z</time></trkpt><trkpt lat="43.8642933" lon="12.6358233"><ele>211.0</ele><time>2026-04-25T07:50:26.546Z</time></trkpt><trkpt lat="43.8642183" lon="12.6359417"><ele>213.0</ele><time>2026-04-25T07:50:27.546Z</time></trkpt><trkpt lat="43.8641483" lon="12.636065"><ele>215.0</ele><time>2026-04-25T07:50:28.546Z</time></trkpt><trkpt lat="43.8640783" lon="12.6361933"><ele>217.0</ele><time>2026-04-25T07:50:29.546Z</time></trkpt><trkpt lat="43.8640067" lon="12.6363183"><ele>217.33333333333331</ele><time>2026-04-25T07:50:30.545Z</time></trkpt><trkpt lat="43.8639367" lon="12.636435"><ele>217.66666666666666</ele><time>2026-04-25T07:50:31.546Z</time></trkpt><trkpt lat="43.8638733" lon="12.63654"><ele>218.0</ele><time>2026-04-25T07:50:32.546Z</time></trkpt><trkpt lat="43.8638133" lon="12.6366283"><ele>218.33333333333331</ele><time>2026-04-25T07:50:33.546Z</time></trkpt><trkpt lat="43.8637567" lon="12.636705"><ele>218.66666666666666</ele><time>2026-04-25T07:50:34.546Z</time></trkpt><trkpt lat="43.8637067" lon="12.6367633"><ele>219.0</ele><time>2026-04-25T07:50:35.545Z</time></trkpt><trkpt lat="43.8635983" lon="12.63687"><ele>219.0</ele><time>2026-04-25T07:50:37.546Z</time></trkpt><trkpt lat="43.863535" lon="12.6369167"><ele>219.0</ele><time>2026-04-25T07:50:38.545Z</time></trkpt><trkpt lat="43.86347" lon="12.6369633"><ele>219.0</ele><time>2026-04-25T07:50:39.546Z</time></trkpt><trkpt lat="43.86341" lon="12.63701"><ele>219.0</ele><time>2026-04-25T07:50:40.546Z</time></trkpt><trkpt lat="43.8633117" lon="12.6371"><ele>219.0</ele><time>2026-04-25T07:50:42.546Z</time></trkpt><trkpt lat="43.863245" lon="12.6371617"><ele>219.0</ele><time>2026-04-25T07:50:44.546Z</time></trkpt><trkpt lat="43.8631817" lon="12.63723"><ele>220.66666666666666</ele><time>2026-04-25T07:50:47.545Z</time></trkpt><trkpt lat="43.86311" lon="12.637325"><ele>222.33333333333331</ele><time>2026-04-25T07:50:49.545Z</time></trkpt><trkpt lat="43.8630517" lon="12.6374333"><ele>224.0</ele><time>2026-04-25T07:50:51.546Z</time></trkpt><trkpt lat="43.8629983" lon="12.6375217"><ele>225.66666666666666</ele><time>2026-04-25T07:50:53.545Z</time></trkpt><trkpt lat="43.8629583" lon="12.63761"><ele>227.33333333333331</ele><time>2026-04-25T07:50:56.546Z</time></trkpt><trkpt lat="43.862925" lon="12.6376933"><ele>229.0</ele><time>2026-04-25T07:50:58.546Z</time></trkpt><trkpt lat="43.8628767" lon="12.63779"><ele>229.79999999999998</ele><time>2026-04-25T07:51:00.546Z</time></trkpt><trkpt lat="43.8628117" lon="12.6378867"><ele>230.59999999999997</ele><time>2026-04-25T07:51:02.546Z</time></trkpt><trkpt lat="43.8627333" lon="12.6379817"><ele>231.4</ele><time>2026-04-25T07:51:04.545Z</time></trkpt><trkpt lat="43.86264" lon="12.6380783"><ele>232.2</ele><time>2026-04-25T07:51:06.545Z</time></trkpt><trkpt lat="43.8625483" lon="12.638185"><ele>233.0</ele><time>2026-04-25T07:51:08.546Z</time></trkpt><trkpt lat="43.86246" lon="12.6383067"><ele>234.66666666666669</ele><time>2026-04-25T07:51:10.545Z</time></trkpt><trkpt lat="43.8624233" lon="12.638385"><ele>236.33333333333334</ele><time>2026-04-25T07:51:11.546Z</time></trkpt><trkpt lat="43.8623917" lon="12.6384717"><ele>238.0</ele><time>2026-04-25T07:51:12.545Z</time></trkpt><trkpt lat="43.86236" lon="12.6385617"><ele>239.66666666666669</ele><time>2026-04-25T07:51:13.546Z</time></trkpt><trkpt lat="43.86233" lon="12.6386467"><ele>241.33333333333334</ele><time>2026-04-25T07:51:14.545Z</time></trkpt><trkpt lat="43.8622667" lon="12.6388067"><ele>243.0</ele><time>2026-04-25T07:51:16.546Z</time></trkpt><trkpt lat="43.862225" lon="12.638885"><ele>244.16666666666666</ele><time>2026-04-25T07:51:17.546Z</time></trkpt><trkpt lat="43.8621817" lon="12.6389567"><ele>245.33333333333331</ele><time>2026-04-25T07:51:18.545Z</time></trkpt><trkpt lat="43.8621317" lon="12.6390267"><ele>246.5</ele><time>2026-04-25T07:51:19.545Z</time></trkpt><trkpt lat="43.8620817" lon="12.6390867"><ele>247.66666666666666</ele><time>2026-04-25T07:51:20.546Z</time></trkpt><trkpt lat="43.8620033" lon="12.639175"><ele>248.83333333333331</ele><time>2026-04-25T07:51:22.545Z</time></trkpt><trkpt lat="43.8619217" lon="12.639275"><ele>250.0</ele><time>2026-04-25T07:51:24.545Z</time></trkpt><trkpt lat="43.8618767" lon="12.6393367"><ele>249.99999999999997</ele><time>2026-04-25T07:51:25.546Z</time></trkpt><trkpt lat="43.8618267" lon="12.6394"><ele>250.0</ele><time>2026-04-25T07:51:26.546Z</time></trkpt><trkpt lat="43.8617683" lon="12.6394683"><ele>250.0</ele><time>2026-04-25T07:51:27.546Z</time></trkpt><trkpt lat="43.8617133" lon="12.6395383"><ele>250.0</ele><time>2026-04-25T07:51:28.545Z</time></trkpt><trkpt lat="43.8616667" lon="12.6395983"><ele>249.99999999999997</ele><time>2026-04-25T07:51:29.546Z</time></trkpt><trkpt lat="43.86161" lon="12.63969"><ele>250.0</ele><time>2026-04-25T07:51:31.546Z</time></trkpt><trkpt lat="43.861565" lon="12.6398017"><ele>252.49999999999997</ele><time>2026-04-25T07:51:34.546Z</time></trkpt><trkpt lat="43.861505" lon="12.6399083"><ele>255.0</ele><time>2026-04-25T07:51:36.546Z</time></trkpt><trkpt lat="43.86147" lon="12.639985"><ele>257.5</ele><time>2026-04-25T07:51:37.545Z</time></trkpt><trkpt lat="43.8614333" lon="12.64007"><ele>260.0</ele><time>2026-04-25T07:51:38.546Z</time></trkpt><trkpt lat="43.861395" lon="12.6401417"><ele>262.5</ele><time>2026-04-25T07:51:39.546Z</time></trkpt><trkpt lat="43.861325" lon="12.640225"><ele>265.0</ele><time>2026-04-25T07:51:41.545Z</time></trkpt><trkpt lat="43.8612383" lon="12.6402867"><ele>262.5</ele><time>2026-04-25T07:51:43.546Z</time></trkpt><trkpt lat="43.8611233" lon="12.6403333"><ele>260.0</ele><time>2026-04-25T07:51:45.546Z</time></trkpt><trkpt lat="43.8610117" lon="12.64038"><ele>257.5</ele><time>2026-04-25T07:51:47.546Z</time></trkpt><trkpt lat="43.8608933" lon="12.6404083"><ele>255.0</ele><time>2026-04-25T07:51:49.546Z</time></trkpt><trkpt lat="43.8607767" lon="12.6404133"><ele>259.2</ele><time>2026-04-25T07:51:51.546Z</time></trkpt><trkpt lat="43.860675" lon="12.6404317"><ele>263.4</ele><time>2026-04-25T07:51:53.546Z</time></trkpt><trkpt lat="43.86055" lon="12.640455"><ele>267.6</ele><time>2026-04-25T07:51:55.546Z</time></trkpt><trkpt lat="43.8604733" lon="12.64048"><ele>271.8</ele><time>2026-04-25T07:51:56.546Z</time></trkpt><trkpt lat="43.86039" lon="12.6405167"><ele>276.0</ele><time>2026-04-25T07:51:57.546Z</time></trkpt><trkpt lat="43.8603133" lon="12.6405517"><ele>276.0</ele><time>2026-04-25T07:51:58.545Z</time></trkpt><trkpt lat="43.8602033" lon="12.640605"><ele>276.0</ele><time>2026-04-25T07:52:00.546Z</time></trkpt><trkpt lat="43.8600817" lon="12.6406233"><ele>276.0</ele><time>2026-04-25T07:52:02.546Z</time></trkpt><trkpt lat="43.860015" lon="12.6406133"><ele>276.0</ele><time>2026-04-25T07:52:03.546Z</time></trkpt><trkpt lat="43.8599133" lon="12.6405983"><ele>276.0</ele><time>2026-04-25T07:52:05.546Z</time></trkpt><trkpt lat="43.8598383" lon="12.6405767"><ele>278.7142857142857</ele><time>2026-04-25T07:52:07.545Z</time></trkpt><trkpt lat="43.859785" lon="12.640505"><ele>281.42857142857144</ele><time>2026-04-25T07:52:10.546Z</time></trkpt><trkpt lat="43.85984" lon="12.6404433"><ele>284.14285714285717</ele><time>2026-04-25T07:52:14.545Z</time></trkpt><trkpt lat="43.8598733" lon="12.64036"><ele>286.8571428571429</ele><time>2026-04-25T07:52:17.545Z</time></trkpt><trkpt lat="43.859865" lon="12.6402617"><ele>289.57142857142856</ele><time>2026-04-25T07:52:19.545Z</time></trkpt><trkpt lat="43.8598083" lon="12.640165"><ele>292.28571428571433</ele><time>2026-04-25T07:52:22.545Z</time></trkpt><trkpt lat="43.8597467" lon="12.6401233"><ele>295.0</ele><time>2026-04-25T07:52:24.546Z</time></trkpt><trkpt lat="43.8596567" lon="12.6400833"><ele>295.3333333333333</ele><time>2026-04-25T07:52:26.545Z</time></trkpt><trkpt lat="43.8595633" lon="12.6400383"><ele>295.66666666666663</ele><time>2026-04-25T07:52:28.545Z</time></trkpt><trkpt lat="43.85947" lon="12.6400267"><ele>296.0</ele><time>2026-04-25T07:52:30.545Z</time></trkpt><trkpt lat="43.85937" lon="12.64001"><ele>296.3333333333333</ele><time>2026-04-25T07:52:32.546Z</time></trkpt><trkpt lat="43.8592833" lon="12.6400067"><ele>296.6666666666667</ele><time>2026-04-25T07:52:34.545Z</time></trkpt><trkpt lat="43.8592267" lon="12.6400517"><ele>297.0</ele><time>2026-04-25T07:52:36.546Z</time></trkpt><trkpt lat="43.859165" lon="12.6401567"><ele>299.8333333333333</ele><time>2026-04-25T07:52:38.546Z</time></trkpt><trkpt lat="43.8591283" lon="12.640235"><ele>302.6666666666667</ele><time>2026-04-25T07:52:39.546Z</time></trkpt><trkpt lat="43.8590917" lon="12.6403283"><ele>305.5</ele><time>2026-04-25T07:52:40.545Z</time></trkpt><trkpt lat="43.8590567" lon="12.640425"><ele>308.33333333333337</ele><time>2026-04-25T07:52:41.546Z</time></trkpt><trkpt lat="43.859025" lon="12.6405183"><ele>311.1666666666667</ele><time>2026-04-25T07:52:42.546Z</time></trkpt><trkpt lat="43.8589833" lon="12.6406133"><ele>314.0</ele><time>2026-04-25T07:52:43.546Z</time></trkpt><trkpt lat="43.8589333" lon="12.640705"><ele>314.0</ele><time>2026-04-25T07:52:44.545Z</time></trkpt><trkpt lat="43.8588833" lon="12.6407717"><ele>314.0</ele><time>2026-04-25T07:52:45.546Z</time></trkpt><trkpt lat="43.858825" lon="12.6408317"><ele>314.0</ele><time>2026-04-25T07:52:46.545Z</time></trkpt><trkpt lat="43.8587533" lon="12.64088"><ele>314.0</ele><time>2026-04-25T07:52:47.545Z</time></trkpt><trkpt lat="43.8586583" lon="12.6409267"><ele>314.0</ele><time>2026-04-25T07:52:48.545Z</time></trkpt><trkpt lat="43.8585683" lon="12.6409867"><ele>314.0</ele><time>2026-04-25T07:52:49.546Z</time></trkpt><trkpt lat="43.8584783" lon="12.6410617"><ele>317.6</ele><time>2026-04-25T07:52:50.546Z</time></trkpt><trkpt lat="43.8583983" lon="12.641155"><ele>321.2</ele><time>2026-04-25T07:52:51.546Z</time></trkpt><trkpt lat="43.8583333" lon="12.64125"><ele>324.8</ele><time>2026-04-25T07:52:52.546Z</time></trkpt><trkpt lat="43.858275" lon="12.641365"><ele>328.40000000000003</ele><time>2026-04-25T07:52:53.546Z</time></trkpt><trkpt lat="43.85823" lon="12.6415217"><ele>332.0</ele><time>2026-04-25T07:52:54.545Z</time></trkpt><trkpt lat="43.8581717" lon="12.64169"><ele>332.0</ele><time>2026-04-25T07:52:55.545Z</time></trkpt><trkpt lat="43.85812" lon="12.6418583"><ele>332.0</ele><time>2026-04-25T07:52:56.546Z</time></trkpt><trkpt lat="43.8580683" lon="12.642025"><ele>332.0</ele><time>2026-04-25T07:52:57.545Z</time></trkpt><trkpt lat="43.8580117" lon="12.6421817"><ele>332.0</ele><time>2026-04-25T07:52:58.546Z</time></trkpt><trkpt lat="43.8579767" lon="12.64235"><ele>332.0</ele><time>2026-04-25T07:52:59.546Z</time></trkpt><trkpt lat="43.85794" lon="12.6425117"><ele>332.0</ele><time>2026-04-25T07:53:00.546Z</time></trkpt><trkpt lat="43.8578933" lon="12.64268"><ele>332.0</ele><time>2026-04-25T07:53:01.546Z</time></trkpt><trkpt lat="43.8578467" lon="12.6428583"><ele>332.0</ele><time>2026-04-25T07:53:02.546Z</time></trkpt><trkpt lat="43.8577833" lon="12.643035"><ele>331.0</ele><time>2026-04-25T07:53:03.545Z</time></trkpt><trkpt lat="43.85773" lon="12.64321"><ele>330.0</ele><time>2026-04-25T07:53:04.545Z</time></trkpt><trkpt lat="43.8576833" lon="12.6433717"><ele>329.0</ele><time>2026-04-25T07:53:05.546Z</time></trkpt><trkpt lat="43.8576417" lon="12.6435617"><ele>328.0</ele><time>2026-04-25T07:53:06.546Z</time></trkpt><trkpt lat="43.8576183" lon="12.6437467"><ele>332.79999999999995</ele><time>2026-04-25T07:53:07.546Z</time></trkpt><trkpt lat="43.8575867" lon="12.64392"><ele>337.6</ele><time>2026-04-25T07:53:08.545Z</time></trkpt><trkpt lat="43.85757" lon="12.6440833"><ele>342.4</ele><time>2026-04-25T07:53:09.546Z</time></trkpt><trkpt lat="43.8575417" lon="12.6442283"><ele>347.20000000000005</ele><time>2026-04-25T07:53:10.546Z</time></trkpt><trkpt lat="43.8575067" lon="12.6443483"><ele>352.0</ele><time>2026-04-25T07:53:11.546Z</time></trkpt><trkpt lat="43.8574617" lon="12.64444"><ele>352.16666666666663</ele><time>2026-04-25T07:53:12.546Z</time></trkpt><trkpt lat="43.857415" lon="12.6445083"><ele>352.3333333333333</ele><time>2026-04-25T07:53:13.546Z</time></trkpt><trkpt lat="43.857335" lon="12.6445983"><ele>352.5</ele><time>2026-04-25T07:53:15.546Z</time></trkpt><trkpt lat="43.8573283" lon="12.6447017"><ele>352.6666666666667</ele><time>2026-04-25T07:53:17.545Z</time></trkpt><trkpt lat="43.85734" lon="12.6447983"><ele>352.83333333333337</ele><time>2026-04-25T07:53:18.546Z</time></trkpt><trkpt lat="43.8573633" lon="12.64495"><ele>353.0</ele><time>2026-04-25T07:53:19.546Z</time></trkpt><trkpt lat="43.8573983" lon="12.6451333"><ele>353.5</ele><time>2026-04-25T07:53:20.546Z</time></trkpt><trkpt lat="43.8574233" lon="12.64531"><ele>354.0</ele><time>2026-04-25T07:53:21.546Z</time></trkpt><trkpt lat="43.8574517" lon="12.645465"><ele>354.5</ele><time>2026-04-25T07:53:22.545Z</time></trkpt><trkpt lat="43.857475" lon="12.6456083"><ele>355.0</ele><time>2026-04-25T07:53:23.545Z</time></trkpt><trkpt lat="43.8574867" lon="12.64576"><ele>355.0</ele><time>2026-04-25T07:53:24.546Z</time></trkpt><trkpt lat="43.857495" lon="12.64591"><ele>355.0</ele><time>2026-04-25T07:53:25.546Z</time></trkpt><trkpt lat="43.857495" lon="12.6460483"><ele>355.0</ele><time>2026-04-25T07:53:26.545Z</time></trkpt><trkpt lat="43.857495" lon="12.64617"><ele>355.0</ele><time>2026-04-25T07:53:27.546Z</time></trkpt><trkpt lat="43.8574917" lon="12.6462717"><ele>355.0</ele><time>2026-04-25T07:53:28.545Z</time></trkpt><trkpt lat="43.85747" lon="12.64643"><ele>354.5</ele><time>2026-04-25T07:53:30.546Z</time></trkpt><trkpt lat="43.8574017" lon="12.6464883"><ele>354.0</ele><time>2026-04-25T07:53:32.546Z</time></trkpt><trkpt lat="43.857295" lon="12.6464683"><ele>353.5</ele><time>2026-04-25T07:53:34.546Z</time></trkpt><trkpt lat="43.85723" lon="12.6464717"><ele>353.0</ele><time>2026-04-25T07:53:35.546Z</time></trkpt><trkpt lat="43.8571333" lon="12.6464983"><ele>352.5</ele><time>2026-04-25T07:53:37.545Z</time></trkpt><trkpt lat="43.8570883" lon="12.6464167"><ele>352.0</ele><time>2026-04-25T07:53:40.546Z</time></trkpt><trkpt lat="43.8571483" lon="12.64627"><ele>352.0</ele><time>2026-04-25T07:53:42.546Z</time></trkpt><trkpt lat="43.8571733" lon="12.6461533"><ele>352.0</ele><time>2026-04-25T07:53:43.545Z</time></trkpt><trkpt lat="43.85718" lon="12.646015"><ele>352.0</ele><time>2026-04-25T07:53:44.546Z</time></trkpt><trkpt lat="43.85717" lon="12.6458533"><ele>352.0</ele><time>2026-04-25T07:53:45.546Z</time></trkpt><trkpt lat="43.8571367" lon="12.64568"><ele>352.0</ele><time>2026-04-25T07:53:46.546Z</time></trkpt><trkpt lat="43.8570917" lon="12.6454933"><ele>352.25</ele><time>2026-04-25T07:53:47.545Z</time></trkpt><trkpt lat="43.857035" lon="12.6453183"><ele>352.5</ele><time>2026-04-25T07:53:48.545Z</time></trkpt><trkpt lat="43.8569867" lon="12.6451433"><ele>352.75</ele><time>2026-04-25T07:53:49.546Z</time></trkpt><trkpt lat="43.8569417" lon="12.6449817"><ele>353.0</ele><time>2026-04-25T07:53:50.546Z</time></trkpt><trkpt lat="43.8568833" lon="12.6448417"><ele>353.0</ele><time>2026-04-25T07:53:51.546Z</time></trkpt><trkpt lat="43.85681" lon="12.64472"><ele>353.0</ele><time>2026-04-25T07:53:52.546Z</time></trkpt><trkpt lat="43.8567117" lon="12.6446133"><ele>353.0</ele><time>2026-04-25T07:53:53.545Z</time></trkpt><trkpt lat="43.85659" lon="12.6445083"><ele>353.0</ele><time>2026-04-25T07:53:54.546Z</time></trkpt><trkpt lat="43.8564683" lon="12.6444"><ele>353.75</ele><time>2026-04-25T07:53:55.545Z</time></trkpt><trkpt lat="43.85637" lon="12.6442733"><ele>354.5</ele><time>2026-04-25T07:53:56.546Z</time></trkpt><trkpt lat="43.8562867" lon="12.644145"><ele>355.25</ele><time>2026-04-25T07:53:57.546Z</time></trkpt><trkpt lat="43.8562017" lon="12.6440417"><ele>356.0</ele><time>2026-04-25T07:53:58.546Z</time></trkpt><trkpt lat="43.8560967" lon="12.6439617"><ele>356.0</ele><time>2026-04-25T07:53:59.546Z</time></trkpt><trkpt lat="43.85596" lon="12.6438817"><ele>356.0</ele><time>2026-04-25T07:54:00.545Z</time></trkpt><trkpt lat="43.855825" lon="12.64382"><ele>356.0</ele><time>2026-04-25T07:54:01.546Z</time></trkpt><trkpt lat="43.8557033" lon="12.6437717"><ele>356.0</ele><time>2026-04-25T07:54:02.546Z</time></trkpt><trkpt lat="43.8556083" lon="12.6437183"><ele>354.6</ele><time>2026-04-25T07:54:03.545Z</time></trkpt><trkpt lat="43.8555383" lon="12.64366"><ele>353.20000000000005</ele><time>2026-04-25T07:54:04.545Z</time></trkpt><trkpt lat="43.8554783" lon="12.6435817"><ele>351.79999999999995</ele><time>2026-04-25T07:54:05.545Z</time></trkpt><trkpt lat="43.855445" lon="12.6434567"><ele>350.4</ele><time>2026-04-25T07:54:06.546Z</time></trkpt><trkpt lat="43.8554183" lon="12.643285"><ele>349.0</ele><time>2026-04-25T07:54:07.546Z</time></trkpt><trkpt lat="43.8554" lon="12.6430883"><ele>349.0</ele><time>2026-04-25T07:54:08.546Z</time></trkpt><trkpt lat="43.8553583" lon="12.6428633"><ele>349.0</ele><time>2026-04-25T07:54:09.545Z</time></trkpt><trkpt lat="43.855315" lon="12.6426533"><ele>349.0</ele><time>2026-04-25T07:54:10.546Z</time></trkpt><trkpt lat="43.8552517" lon="12.6424717"><ele>347.5</ele><time>2026-04-25T07:54:11.546Z</time></trkpt><trkpt lat="43.8551883" lon="12.6423"><ele>346.0</ele><time>2026-04-25T07:54:12.546Z</time></trkpt><trkpt lat="43.8551167" lon="12.6421467"><ele>344.5</ele><time>2026-04-25T07:54:13.545Z</time></trkpt><trkpt lat="43.8550467" lon="12.6420017"><ele>343.0</ele><time>2026-04-25T07:54:14.546Z</time></trkpt><trkpt lat="43.8549667" lon="12.6418567"><ele>343.0</ele><time>2026-04-25T07:54:15.546Z</time></trkpt><trkpt lat="43.8548633" lon="12.6417283"><ele>343.0</ele><time>2026-04-25T07:54:16.545Z</time></trkpt><trkpt lat="43.854755" lon="12.6416333"><ele>343.0</ele><time>2026-04-25T07:54:17.546Z</time></trkpt><trkpt lat="43.854665" lon="12.6415483"><ele>343.0</ele><time>2026-04-25T07:54:18.546Z</time></trkpt><trkpt lat="43.8545967" lon="12.6414383"><ele>343.0</ele><time>2026-04-25T07:54:19.546Z</time></trkpt><trkpt lat="43.8545433" lon="12.6413133"><ele>343.0</ele><time>2026-04-25T07:54:20.545Z</time></trkpt><trkpt lat="43.854515" lon="12.6411667"><ele>343.0</ele><time>2026-04-25T07:54:21.546Z</time></trkpt><trkpt lat="43.8545167" lon="12.6410017"><ele>343.0</ele><time>2026-04-25T07:54:22.545Z</time></trkpt><trkpt lat="43.8545317" lon="12.6408067"><ele>346.0</ele><time>2026-04-25T07:54:23.546Z</time></trkpt><trkpt lat="43.8545467" lon="12.6406317"><ele>349.0</ele><time>2026-04-25T07:54:24.545Z</time></trkpt><trkpt lat="43.8545417" lon="12.64047"><ele>352.0</ele><time>2026-04-25T07:54:25.546Z</time></trkpt><trkpt lat="43.8545083" lon="12.640315"><ele>355.0</ele><time>2026-04-25T07:54:26.545Z</time></trkpt><trkpt lat="43.85444" lon="12.6401583"><ele>355.66666666666663</ele><time>2026-04-25T07:54:27.546Z</time></trkpt><trkpt lat="43.8543383" lon="12.6399833"><ele>356.3333333333333</ele><time>2026-04-25T07:54:28.545Z</time></trkpt><trkpt lat="43.8542217" lon="12.639805"><ele>357.0</ele><time>2026-04-25T07:54:29.546Z</time></trkpt><trkpt lat="43.8540983" lon="12.6396167"><ele>350.3333333333333</ele><time>2026-04-25T07:54:30.545Z</time></trkpt><trkpt lat="43.8539967" lon="12.639415"><ele>343.66666666666663</ele><time>2026-04-25T07:54:31.546Z</time></trkpt><trkpt lat="43.8539067" lon="12.6392183"><ele>337.0</ele><time>2026-04-25T07:54:32.545Z</time></trkpt><trkpt lat="43.853825" lon="12.6390567"><ele>337.0</ele><time>2026-04-25T07:54:33.546Z</time></trkpt><trkpt lat="43.8537583" lon="12.638905"><ele>337.0</ele><time>2026-04-25T07:54:34.546Z</time></trkpt><trkpt lat="43.8536983" lon="12.63877"><ele>337.0</ele><time>2026-04-25T07:54:35.545Z</time></trkpt><trkpt lat="43.85366" lon="12.638635"><ele>337.0</ele><time>2026-04-25T07:54:36.546Z</time></trkpt><trkpt lat="43.853655" lon="12.6385267"><ele>337.0</ele><time>2026-04-25T07:54:37.546Z</time></trkpt><trkpt lat="43.8536767" lon="12.6384383"><ele>334.6</ele><time>2026-04-25T07:54:38.545Z</time></trkpt><trkpt lat="43.8537317" lon="12.63836"><ele>332.20000000000005</ele><time>2026-04-25T07:54:39.546Z</time></trkpt><trkpt lat="43.8538117" lon="12.6383017"><ele>329.8</ele><time>2026-04-25T07:54:40.546Z</time></trkpt><trkpt lat="43.8539233" lon="12.6382683"><ele>327.4</ele><time>2026-04-25T07:54:41.545Z</time></trkpt><trkpt lat="43.8540533" lon="12.6382717"><ele>325.0</ele><time>2026-04-25T07:54:42.546Z</time></trkpt><trkpt lat="43.8542" lon="12.6383167"><ele>327.25</ele><time>2026-04-25T07:54:43.546Z</time></trkpt><trkpt lat="43.8543333" lon="12.638365"><ele>329.5</ele><time>2026-04-25T07:54:44.546Z</time></trkpt><trkpt lat="43.854455" lon="12.6384233"><ele>331.75</ele><time>2026-04-25T07:54:45.546Z</time></trkpt><trkpt lat="43.8545583" lon="12.6384467"><ele>334.0</ele><time>2026-04-25T07:54:46.546Z</time></trkpt><trkpt lat="43.8546533" lon="12.638435"><ele>334.0</ele><time>2026-04-25T07:54:47.545Z</time></trkpt><trkpt lat="43.8547333" lon="12.6383767"><ele>334.0</ele><time>2026-04-25T07:54:48.546Z</time></trkpt><trkpt lat="43.854805" lon="12.6382633"><ele>334.0</ele><time>2026-04-25T07:54:49.546Z</time></trkpt><trkpt lat="43.854865" lon="12.6380733"><ele>334.0</ele><time>2026-04-25T07:54:50.546Z</time></trkpt><trkpt lat="43.8549383" lon="12.6378583"><ele>335.0</ele><time>2026-04-25T07:54:51.546Z</time></trkpt><trkpt lat="43.8550183" lon="12.6376233"><ele>336.0</ele><time>2026-04-25T07:54:52.546Z</time></trkpt><trkpt lat="43.8551" lon="12.6374033"><ele>337.0</ele><time>2026-04-25T07:54:53.546Z</time></trkpt><trkpt lat="43.85517" lon="12.63721"><ele>337.0</ele><time>2026-04-25T07:54:54.546Z</time></trkpt><trkpt lat="43.8552283" lon="12.6370367"><ele>337.0</ele><time>2026-04-25T07:54:55.546Z</time></trkpt><trkpt lat="43.855275" lon="12.6368583"><ele>337.0</ele><time>2026-04-25T07:54:56.546Z</time></trkpt><trkpt lat="43.8552817" lon="12.6366683"><ele>337.0</ele><time>2026-04-25T07:54:57.546Z</time></trkpt><trkpt lat="43.8552617" lon="12.6364767"><ele>335.0</ele><time>2026-04-25T07:54:58.545Z</time></trkpt><trkpt lat="43.8551983" lon="12.6362917"><ele>333.0</ele><time>2026-04-25T07:54:59.545Z</time></trkpt><trkpt lat="43.8551067" lon="12.6360883"><ele>331.0</ele><time>2026-04-25T07:55:00.546Z</time></trkpt><trkpt lat="43.855005" lon="12.6359017"><ele>324.3333333333333</ele><time>2026-04-25T07:55:01.546Z</time></trkpt><trkpt lat="43.85491" lon="12.6357217"><ele>317.6666666666667</ele><time>2026-04-25T07:55:02.546Z</time></trkpt><trkpt lat="43.8548217" lon="12.635525"><ele>311.0</ele><time>2026-04-25T07:55:03.545Z</time></trkpt><trkpt lat="43.854735" lon="12.6353117"><ele>311.33333333333337</ele><time>2026-04-25T07:55:04.546Z</time></trkpt><trkpt lat="43.8546667" lon="12.6351067"><ele>311.6666666666667</ele><time>2026-04-25T07:55:05.545Z</time></trkpt><trkpt lat="43.8545983" lon="12.63491"><ele>312.0</ele><time>2026-04-25T07:55:06.546Z</time></trkpt><trkpt lat="43.8545517" lon="12.63472"><ele>312.0</ele><time>2026-04-25T07:55:07.546Z</time></trkpt><trkpt lat="43.85451" lon="12.634525"><ele>312.0</ele><time>2026-04-25T07:55:08.546Z</time></trkpt><trkpt lat="43.854485" lon="12.6343267"><ele>312.0</ele><time>2026-04-25T07:55:09.546Z</time></trkpt><trkpt lat="43.854465" lon="12.6341517"><ele>312.0</ele><time>2026-04-25T07:55:10.546Z</time></trkpt><trkpt lat="43.8544517" lon="12.6340033"><ele>310.3333333333333</ele><time>2026-04-25T07:55:11.545Z</time></trkpt><trkpt lat="43.8544533" lon="12.6338833"><ele>308.6666666666667</ele><time>2026-04-25T07:55:12.546Z</time></trkpt><trkpt lat="43.85447" lon="12.6337733"><ele>307.0</ele><time>2026-04-25T07:55:13.546Z</time></trkpt><trkpt lat="43.854515" lon="12.6336933"><ele>305.33333333333337</ele><time>2026-04-25T07:55:14.546Z</time></trkpt><trkpt lat="43.8545833" lon="12.633655"><ele>303.6666666666667</ele><time>2026-04-25T07:55:15.546Z</time></trkpt><trkpt lat="43.854665" lon="12.633645"><ele>302.0</ele><time>2026-04-25T07:55:16.546Z</time></trkpt><trkpt lat="43.8547383" lon="12.633635"><ele>298.75</ele><time>2026-04-25T07:55:17.546Z</time></trkpt><trkpt lat="43.8548233" lon="12.633555"><ele>295.5</ele><time>2026-04-25T07:55:19.546Z</time></trkpt><trkpt lat="43.8547267" lon="12.6334"><ele>292.25</ele><time>2026-04-25T07:55:21.546Z</time></trkpt><trkpt lat="43.8546267" lon="12.6333233"><ele>289.0</ele><time>2026-04-25T07:55:22.546Z</time></trkpt><trkpt lat="43.8545017" lon="12.63325"><ele>289.0</ele><time>2026-04-25T07:55:23.546Z</time></trkpt><trkpt lat="43.8543567" lon="12.6331817"><ele>289.0</ele><time>2026-04-25T07:55:24.546Z</time></trkpt><trkpt lat="43.85422" lon="12.6331383"><ele>289.0</ele><time>2026-04-25T07:55:25.546Z</time></trkpt><trkpt lat="43.8541033" lon="12.6331117"><ele>289.0</ele><time>2026-04-25T07:55:26.546Z</time></trkpt><trkpt lat="43.8540117" lon="12.6331133"><ele>288.2</ele><time>2026-04-25T07:55:27.546Z</time></trkpt><trkpt lat="43.853925" lon="12.6331583"><ele>287.4</ele><time>2026-04-25T07:55:28.546Z</time></trkpt><trkpt lat="43.8538517" lon="12.6332433"><ele>286.6</ele><time>2026-04-25T07:55:29.546Z</time></trkpt><trkpt lat="43.8538" lon="12.6333517"><ele>285.8</ele><time>2026-04-25T07:55:30.546Z</time></trkpt><trkpt lat="43.853755" lon="12.63344"><ele>285.0</ele><time>2026-04-25T07:55:31.546Z</time></trkpt><trkpt lat="43.8536583" lon="12.633495"><ele>285.0</ele><time>2026-04-25T07:55:33.546Z</time></trkpt><trkpt lat="43.8535733" lon="12.6333483"><ele>285.0</ele><time>2026-04-25T07:55:35.545Z</time></trkpt><trkpt lat="43.853545" lon="12.6332117"><ele>285.0</ele><time>2026-04-25T07:55:36.546Z</time></trkpt><trkpt lat="43.8535133" lon="12.63305"><ele>285.0</ele><time>2026-04-25T07:55:37.546Z</time></trkpt><trkpt lat="43.853485" lon="12.6328883"><ele>283.3333333333333</ele><time>2026-04-25T07:55:38.546Z</time></trkpt><trkpt lat="43.8534667" lon="12.6327383"><ele>281.6666666666667</ele><time>2026-04-25T07:55:39.546Z</time></trkpt><trkpt lat="43.85347" lon="12.632615"><ele>280.0</ele><time>2026-04-25T07:55:40.545Z</time></trkpt><trkpt lat="43.8534883" lon="12.63248"><ele>278.33333333333337</ele><time>2026-04-25T07:55:42.546Z</time></trkpt><trkpt lat="43.8534217" lon="12.632525"><ele>276.6666666666667</ele><time>2026-04-25T07:55:46.545Z</time></trkpt><trkpt lat="43.8533917" lon="12.6326133"><ele>275.0</ele><time>2026-04-25T07:55:47.546Z</time></trkpt><trkpt lat="43.8533517" lon="12.63274"><ele>273.6</ele><time>2026-04-25T07:55:48.545Z</time></trkpt><trkpt lat="43.853305" lon="12.6328883"><ele>272.2</ele><time>2026-04-25T07:55:49.546Z</time></trkpt><trkpt lat="43.8532667" lon="12.6330183"><ele>270.8</ele><time>2026-04-25T07:55:50.546Z</time></trkpt><trkpt lat="43.85323" lon="12.6331283"><ele>269.4</ele><time>2026-04-25T07:55:51.546Z</time></trkpt><trkpt lat="43.8532067" lon="12.6332383"><ele>268.0</ele><time>2026-04-25T07:55:52.546Z</time></trkpt><trkpt lat="43.85319" lon="12.6333683"><ele>268.0</ele><time>2026-04-25T07:55:53.546Z</time></trkpt><trkpt lat="43.8531883" lon="12.6335267"><ele>268.0</ele><time>2026-04-25T07:55:54.546Z</time></trkpt><trkpt lat="43.853195" lon="12.6337"><ele>268.0</ele><time>2026-04-25T07:55:55.545Z</time></trkpt><trkpt lat="43.8531833" lon="12.6338683"><ele>268.0</ele><time>2026-04-25T07:55:56.545Z</time></trkpt><trkpt lat="43.8531533" lon="12.6340217"><ele>268.0</ele><time>2026-04-25T07:55:57.546Z</time></trkpt><trkpt lat="43.8531167" lon="12.6341633"><ele>268.0</ele><time>2026-04-25T07:55:58.546Z</time></trkpt><trkpt lat="43.853085" lon="12.6342967"><ele>268.0</ele><time>2026-04-25T07:55:59.545Z</time></trkpt><trkpt lat="43.8530633" lon="12.63442"><ele>268.0</ele><time>2026-04-25T07:56:00.546Z</time></trkpt><trkpt lat="43.8530483" lon="12.6345283"><ele>268.0</ele><time>2026-04-25T07:56:01.545Z</time></trkpt><trkpt lat="43.8530417" lon="12.6346167"><ele>268.0</ele><time>2026-04-25T07:56:02.546Z</time></trkpt><trkpt lat="43.853035" lon="12.6347617"><ele>268.0</ele><time>2026-04-25T07:56:04.545Z</time></trkpt><trkpt lat="43.85299" lon="12.634835"><ele>268.0</ele><time>2026-04-25T07:56:06.546Z</time></trkpt><trkpt lat="43.85291" lon="12.6348467"><ele>268.0</ele><time>2026-04-25T07:56:08.546Z</time></trkpt><trkpt lat="43.8527917" lon="12.63483"><ele>268.0</ele><time>2026-04-25T07:56:10.546Z</time></trkpt><trkpt lat="43.8527267" lon="12.63483"><ele>268.0</ele><time>2026-04-25T07:56:11.546Z</time></trkpt><trkpt lat="43.85266" lon="12.6348283"><ele>268.0</ele><time>2026-04-25T07:56:12.546Z</time></trkpt><trkpt lat="43.852595" lon="12.6348267"><ele>266.16666666666663</ele><time>2026-04-25T07:56:13.546Z</time></trkpt><trkpt lat="43.8525283" lon="12.63482"><ele>264.3333333333333</ele><time>2026-04-25T07:56:14.546Z</time></trkpt><trkpt lat="43.8524583" lon="12.634815"><ele>262.5</ele><time>2026-04-25T07:56:15.546Z</time></trkpt><trkpt lat="43.8523817" lon="12.6348033"><ele>260.6666666666667</ele><time>2026-04-25T07:56:16.546Z</time></trkpt><trkpt lat="43.8522983" lon="12.6347967"><ele>258.83333333333337</ele><time>2026-04-25T07:56:17.545Z</time></trkpt><trkpt lat="43.8522183" lon="12.6348017"><ele>257.0</ele><time>2026-04-25T07:56:18.546Z</time></trkpt><trkpt lat="43.85214" lon="12.6348017"><ele>257.0</ele><time>2026-04-25T07:56:19.546Z</time></trkpt><trkpt lat="43.852065" lon="12.6348017"><ele>257.0</ele><time>2026-04-25T07:56:20.546Z</time></trkpt><trkpt lat="43.851985" lon="12.63481"><ele>257.0</ele><time>2026-04-25T07:56:21.546Z</time></trkpt><trkpt lat="43.8519133" lon="12.634825"><ele>257.0</ele><time>2026-04-25T07:56:22.546Z</time></trkpt><trkpt lat="43.85184" lon="12.6348367"><ele>257.0</ele><time>2026-04-25T07:56:23.545Z</time></trkpt><trkpt lat="43.851775" lon="12.634855"><ele>257.0</ele><time>2026-04-25T07:56:24.546Z</time></trkpt><trkpt lat="43.8516483" lon="12.6348667"><ele>255.00000000000003</ele><time>2026-04-25T07:56:26.546Z</time></trkpt><trkpt lat="43.8515767" lon="12.634865"><ele>253.0</ele><time>2026-04-25T07:56:27.546Z</time></trkpt><trkpt lat="43.8515" lon="12.634865"><ele>251.0</ele><time>2026-04-25T07:56:28.546Z</time></trkpt><trkpt lat="43.8514217" lon="12.63487"><ele>249.0</ele><time>2026-04-25T07:56:29.546Z</time></trkpt><trkpt lat="43.8513517" lon="12.6348717"><ele>247.00000000000003</ele><time>2026-04-25T07:56:30.546Z</time></trkpt><trkpt lat="43.851235" lon="12.63488"><ele>245.0</ele><time>2026-04-25T07:56:32.546Z</time></trkpt><trkpt lat="43.8511317" lon="12.6348817"><ele>245.00000000000003</ele><time>2026-04-25T07:56:34.546Z</time></trkpt><trkpt lat="43.8510433" lon="12.634875"><ele>245.0</ele><time>2026-04-25T07:56:36.545Z</time></trkpt><trkpt lat="43.8509667" lon="12.634835"><ele>245.0</ele><time>2026-04-25T07:56:38.546Z</time></trkpt><trkpt lat="43.850905" lon="12.6347767"><ele>245.0</ele><time>2026-04-25T07:56:40.545Z</time></trkpt><trkpt lat="43.8508317" lon="12.634715"><ele>245.00000000000003</ele><time>2026-04-25T07:56:42.546Z</time></trkpt><trkpt lat="43.8507667" lon="12.634655"><ele>245.0</ele><time>2026-04-25T07:56:44.546Z</time></trkpt><trkpt lat="43.8507117" lon="12.6345933"><ele>242.16666666666669</ele><time>2026-04-25T07:56:46.545Z</time></trkpt><trkpt lat="43.8506817" lon="12.6345017"><ele>239.33333333333334</ele><time>2026-04-25T07:56:48.545Z</time></trkpt><trkpt lat="43.8506817" lon="12.6344133"><ele>236.5</ele><time>2026-04-25T07:56:50.546Z</time></trkpt><trkpt lat="43.8506933" lon="12.63429"><ele>233.66666666666669</ele><time>2026-04-25T07:56:53.546Z</time></trkpt><trkpt lat="43.8507033" lon="12.6341933"><ele>230.83333333333334</ele><time>2026-04-25T07:56:55.545Z</time></trkpt><trkpt lat="43.8506967" lon="12.6340767"><ele>228.0</ele><time>2026-04-25T07:56:57.546Z</time></trkpt><trkpt lat="43.8506717" lon="12.63395"><ele>226.8</ele><time>2026-04-25T07:56:59.546Z</time></trkpt><trkpt lat="43.8505933" lon="12.6338433"><ele>225.60000000000002</ele><time>2026-04-25T07:57:01.546Z</time></trkpt><trkpt lat="43.8504967" lon="12.6337517"><ele>224.39999999999998</ele><time>2026-04-25T07:57:03.546Z</time></trkpt><trkpt lat="43.850395" lon="12.633695"><ele>223.2</ele><time>2026-04-25T07:57:05.546Z</time></trkpt><trkpt lat="43.8503133" lon="12.63369"><ele>222.0</ele><time>2026-04-25T07:57:07.546Z</time></trkpt><trkpt lat="43.8502167" lon="12.633685"><ele>218.39999999999998</ele><time>2026-04-25T07:57:09.546Z</time></trkpt><trkpt lat="43.8501117" lon="12.6336767"><ele>214.79999999999998</ele><time>2026-04-25T07:57:11.546Z</time></trkpt><trkpt lat="43.8500067" lon="12.633665"><ele>211.2</ele><time>2026-04-25T07:57:13.545Z</time></trkpt><trkpt lat="43.84991" lon="12.63364"><ele>207.6</ele><time>2026-04-25T07:57:15.545Z</time></trkpt><trkpt lat="43.8498083" lon="12.63362"><ele>204.0</ele><time>2026-04-25T07:57:17.545Z</time></trkpt><trkpt lat="43.849705" lon="12.6336083"><ele>203.2</ele><time>2026-04-25T07:57:19.546Z</time></trkpt><trkpt lat="43.8496033" lon="12.633595"><ele>202.39999999999998</ele><time>2026-04-25T07:57:21.545Z</time></trkpt><trkpt lat="43.84952" lon="12.6335633"><ele>201.6</ele><time>2026-04-25T07:57:23.546Z</time></trkpt><trkpt lat="43.8494417" lon="12.633455"><ele>200.8</ele><time>2026-04-25T07:57:26.546Z</time></trkpt><trkpt lat="43.8493667" lon="12.6333333"><ele>200.0</ele><time>2026-04-25T07:57:28.546Z</time></trkpt><trkpt lat="43.8493183" lon="12.6332733"><ele>197.4</ele><time>2026-04-25T07:57:29.546Z</time></trkpt><trkpt lat="43.84927" lon="12.6332117"><ele>194.8</ele><time>2026-04-25T07:57:30.546Z</time></trkpt><trkpt lat="43.84918" lon="12.6331367"><ele>192.2</ele><time>2026-04-25T07:57:32.545Z</time></trkpt><trkpt lat="43.8491083" lon="12.6330733"><ele>189.6</ele><time>2026-04-25T07:57:34.546Z</time></trkpt><trkpt lat="43.8490433" lon="12.6329583"><ele>187.0</ele><time>2026-04-25T07:57:36.546Z</time></trkpt><trkpt lat="43.8489817" lon="12.63285"><ele>186.39999999999998</ele><time>2026-04-25T07:57:38.546Z</time></trkpt><trkpt lat="43.848935" lon="12.6327417"><ele>185.79999999999998</ele><time>2026-04-25T07:57:40.546Z</time></trkpt><trkpt lat="43.8489067" lon="12.6326367"><ele>185.2</ele><time>2026-04-25T07:57:42.546Z</time></trkpt><trkpt lat="43.8489017" lon="12.632515"><ele>184.6</ele><time>2026-04-25T07:57:44.545Z</time></trkpt><trkpt lat="43.8489217" lon="12.632375"><ele>184.0</ele><time>2026-04-25T07:57:46.546Z</time></trkpt><trkpt lat="43.8489417" lon="12.6322317"><ele>184.0</ele><time>2026-04-25T07:57:48.546Z</time></trkpt><trkpt lat="43.84893" lon="12.6320667"><ele>184.0</ele><time>2026-04-25T07:57:50.545Z</time></trkpt><trkpt lat="43.8489017" lon="12.6319833"><ele>184.0</ele><time>2026-04-25T07:57:51.545Z</time></trkpt><trkpt lat="43.8488767" lon="12.6318917"><ele>184.0</ele><time>2026-04-25T07:57:52.545Z</time></trkpt><trkpt lat="43.84882" lon="12.6317433"><ele>184.0</ele><time>2026-04-25T07:57:54.546Z</time></trkpt><trkpt lat="43.8487517" lon="12.6316167"><ele>181.79999999999998</ele><time>2026-04-25T07:57:56.546Z</time></trkpt><trkpt lat="43.8486883" lon="12.6314683"><ele>179.6</ele><time>2026-04-25T07:57:58.545Z</time></trkpt><trkpt lat="43.848605" lon="12.6313783"><ele>177.4</ele><time>2026-04-25T07:58:00.546Z</time></trkpt><trkpt lat="43.8484933" lon="12.631335"><ele>175.2</ele><time>2026-04-25T07:58:02.545Z</time></trkpt><trkpt lat="43.84843" lon="12.6313267"><ele>173.0</ele><time>2026-04-25T07:58:03.546Z</time></trkpt><trkpt lat="43.8483633" lon="12.6313283"><ele>172.5</ele><time>2026-04-25T07:58:04.546Z</time></trkpt><trkpt lat="43.8482967" lon="12.631335"><ele>172.0</ele><time>2026-04-25T07:58:05.546Z</time></trkpt><trkpt lat="43.848215" lon="12.6313533"><ele>171.5</ele><time>2026-04-25T07:58:06.546Z</time></trkpt><trkpt lat="43.8481283" lon="12.631385"><ele>171.0</ele><time>2026-04-25T07:58:07.546Z</time></trkpt><trkpt lat="43.8480333" lon="12.6314217"><ele>170.5</ele><time>2026-04-25T07:58:08.546Z</time></trkpt><trkpt lat="43.84794" lon="12.63146"><ele>170.0</ele><time>2026-04-25T07:58:09.546Z</time></trkpt><trkpt lat="43.8478483" lon="12.6315133"><ele>170.0</ele><time>2026-04-25T07:58:10.546Z</time></trkpt><trkpt lat="43.8477533" lon="12.6315533"><ele>170.0</ele><time>2026-04-25T07:58:11.546Z</time></trkpt><trkpt lat="43.84767" lon="12.6315667"><ele>170.0</ele><time>2026-04-25T07:58:12.546Z</time></trkpt><trkpt lat="43.8475967" lon="12.6315633"><ele>170.0</ele><time>2026-04-25T07:58:13.545Z</time></trkpt><trkpt lat="43.8474833" lon="12.63154"><ele>170.0</ele><time>2026-04-25T07:58:15.546Z</time></trkpt><trkpt lat="43.8473917" lon="12.6314733"><ele>168.0</ele><time>2026-04-25T07:58:17.545Z</time></trkpt><trkpt lat="43.847295" lon="12.631385"><ele>166.0</ele><time>2026-04-25T07:58:19.545Z</time></trkpt><trkpt lat="43.8472367" lon="12.6313367"><ele>164.0</ele><time>2026-04-25T07:58:20.546Z</time></trkpt><trkpt lat="43.8471283" lon="12.63127"><ele>162.0</ele><time>2026-04-25T07:58:22.546Z</time></trkpt><trkpt lat="43.84707" lon="12.6312367"><ele>160.0</ele><time>2026-04-25T07:58:23.545Z</time></trkpt><trkpt lat="43.846955" lon="12.6311933"><ele>160.0</ele><time>2026-04-25T07:58:25.546Z</time></trkpt><trkpt lat="43.846845" lon="12.631175"><ele>160.0</ele><time>2026-04-25T07:58:27.545Z</time></trkpt><trkpt lat="43.8467267" lon="12.6311433"><ele>160.0</ele><time>2026-04-25T07:58:29.545Z</time></trkpt><trkpt lat="43.8466617" lon="12.6311267"><ele>160.0</ele><time>2026-04-25T07:58:30.545Z</time></trkpt><trkpt lat="43.8465817" lon="12.6311033"><ele>160.0</ele><time>2026-04-25T07:58:31.546Z</time></trkpt><trkpt lat="43.8464967" lon="12.6310817"><ele>157.5</ele><time>2026-04-25T07:58:32.546Z</time></trkpt><trkpt lat="43.8464167" lon="12.6310683"><ele>155.0</ele><time>2026-04-25T07:58:33.546Z</time></trkpt><trkpt lat="43.8463417" lon="12.6310533"><ele>152.5</ele><time>2026-04-25T07:58:34.546Z</time></trkpt><trkpt lat="43.8462717" lon="12.6310517"><ele>150.0</ele><time>2026-04-25T07:58:35.546Z</time></trkpt><trkpt lat="43.8462033" lon="12.6310583"><ele>147.5</ele><time>2026-04-25T07:58:36.546Z</time></trkpt><trkpt lat="43.84612" lon="12.6310883"><ele>145.0</ele><time>2026-04-25T07:58:37.545Z</time></trkpt><trkpt lat="43.8460317" lon="12.6311183"><ele>144.33333333333334</ele><time>2026-04-25T07:58:38.546Z</time></trkpt><trkpt lat="43.845955" lon="12.6311433"><ele>143.66666666666669</ele><time>2026-04-25T07:58:39.545Z</time></trkpt><trkpt lat="43.84588" lon="12.63116"><ele>143.0</ele><time>2026-04-25T07:58:40.545Z</time></trkpt><trkpt lat="43.8458017" lon="12.6311667"><ele>142.33333333333334</ele><time>2026-04-25T07:58:41.546Z</time></trkpt><trkpt lat="43.84572" lon="12.6311567"><ele>141.66666666666666</ele><time>2026-04-25T07:58:42.545Z</time></trkpt><trkpt lat="43.8456333" lon="12.6311467"><ele>141.0</ele><time>2026-04-25T07:58:43.546Z</time></trkpt><trkpt lat="43.8455533" lon="12.6311417"><ele>141.0</ele><time>2026-04-25T07:58:44.546Z</time></trkpt><trkpt lat="43.8454767" lon="12.6311267"><ele>141.0</ele><time>2026-04-25T07:58:45.546Z</time></trkpt><trkpt lat="43.8453967" lon="12.6311233"><ele>141.0</ele><time>2026-04-25T07:58:46.545Z</time></trkpt><trkpt lat="43.845315" lon="12.6311367"><ele>141.0</ele><time>2026-04-25T07:58:47.546Z</time></trkpt><trkpt lat="43.84523" lon="12.6311667"><ele>141.0</ele><time>2026-04-25T07:58:48.546Z</time></trkpt><trkpt lat="43.8451517" lon="12.6312117"><ele>141.0</ele><time>2026-04-25T07:58:49.546Z</time></trkpt><trkpt lat="43.845075" lon="12.6312583"><ele>139.5</ele><time>2026-04-25T07:58:50.546Z</time></trkpt><trkpt lat="43.8450017" lon="12.6313033"><ele>138.0</ele><time>2026-04-25T07:58:51.546Z</time></trkpt><trkpt lat="43.8449367" lon="12.6313417"><ele>136.5</ele><time>2026-04-25T07:58:52.546Z</time></trkpt><trkpt lat="43.8448783" lon="12.6313917"><ele>135.0</ele><time>2026-04-25T07:58:53.546Z</time></trkpt><trkpt lat="43.8448167" lon="12.6314533"><ele>133.5</ele><time>2026-04-25T07:58:54.546Z</time></trkpt><trkpt lat="43.8447533" lon="12.6315283"><ele>132.0</ele><time>2026-04-25T07:58:55.546Z</time></trkpt><trkpt lat="43.8447" lon="12.6315933"><ele>132.0</ele><time>2026-04-25T07:58:56.546Z</time></trkpt><trkpt lat="43.844635" lon="12.6317"><ele>132.0</ele><time>2026-04-25T07:58:58.545Z</time></trkpt><trkpt lat="43.844595" lon="12.631865"><ele>132.0</ele><time>2026-04-25T07:59:00.545Z</time></trkpt><trkpt lat="43.84458" lon="12.6320133"><ele>132.0</ele><time>2026-04-25T07:59:02.546Z</time></trkpt><trkpt lat="43.84456" lon="12.6321283"><ele>132.0</ele><time>2026-04-25T07:59:04.545Z</time></trkpt><trkpt lat="43.8445" lon="12.6322433"><ele>132.0</ele><time>2026-04-25T07:59:06.546Z</time></trkpt><trkpt lat="43.8444433" lon="12.6324117"><ele>132.0</ele><time>2026-04-25T07:59:08.545Z</time></trkpt><trkpt lat="43.8444183" lon="12.6325083"><ele>132.0</ele><time>2026-04-25T07:59:09.546Z</time></trkpt><trkpt lat="43.8443783" lon="12.6325983"><ele>132.0</ele><time>2026-04-25T07:59:10.546Z</time></trkpt><trkpt lat="43.8443333" lon="12.63268"><ele>132.0</ele><time>2026-04-25T07:59:11.545Z</time></trkpt><trkpt lat="43.844275" lon="12.6328233"><ele>130.79999999999998</ele><time>2026-04-25T07:59:13.546Z</time></trkpt><trkpt lat="43.8442383" lon="12.632945"><ele>129.6</ele><time>2026-04-25T07:59:15.546Z</time></trkpt><trkpt lat="43.8442117" lon="12.6330833"><ele>128.39999999999998</ele><time>2026-04-25T07:59:17.546Z</time></trkpt><trkpt lat="43.8441717" lon="12.6331967"><ele>127.19999999999999</ele><time>2026-04-25T07:59:19.545Z</time></trkpt><trkpt lat="43.844075" lon="12.6333033"><ele>126.0</ele><time>2026-04-25T07:59:21.546Z</time></trkpt><trkpt lat="43.8440067" lon="12.6333667"><ele>126.0</ele><time>2026-04-25T07:59:22.546Z</time></trkpt><trkpt lat="43.8439333" lon="12.6334383"><ele>126.0</ele><time>2026-04-25T07:59:23.546Z</time></trkpt><trkpt lat="43.84386" lon="12.6334683"><ele>126.0</ele><time>2026-04-25T07:59:24.546Z</time></trkpt><trkpt lat="43.8437633" lon="12.6334717"><ele>126.0</ele><time>2026-04-25T07:59:25.546Z</time></trkpt><trkpt lat="43.84366" lon="12.633475"><ele>126.0</ele><time>2026-04-25T07:59:26.545Z</time></trkpt><trkpt lat="43.8435767" lon="12.6334933"><ele>126.0</ele><time>2026-04-25T07:59:27.546Z</time></trkpt><trkpt lat="43.8434933" lon="12.633535"><ele>126.0</ele><time>2026-04-25T07:59:28.546Z</time></trkpt><trkpt lat="43.8433967" lon="12.6335867"><ele>126.0</ele><time>2026-04-25T07:59:29.546Z</time></trkpt><trkpt lat="43.8433" lon="12.63363"><ele>126.0</ele><time>2026-04-25T07:59:30.545Z</time></trkpt><trkpt lat="43.843215" lon="12.6336533"><ele>126.0</ele><time>2026-04-25T07:59:31.546Z</time></trkpt><trkpt lat="43.8430967" lon="12.6336883"><ele>125.83333333333333</ele><time>2026-04-25T07:59:33.545Z</time></trkpt><trkpt lat="43.8430317" lon="12.633745"><ele>125.66666666666666</ele><time>2026-04-25T07:59:34.546Z</time></trkpt><trkpt lat="43.8429667" lon="12.63381"><ele>125.5</ele><time>2026-04-25T07:59:35.545Z</time></trkpt><trkpt lat="43.8428933" lon="12.6338617"><ele>125.33333333333333</ele><time>2026-04-25T07:59:36.546Z</time></trkpt><trkpt lat="43.842825" lon="12.6338933"><ele>125.16666666666666</ele><time>2026-04-25T07:59:37.546Z</time></trkpt><trkpt lat="43.842725" lon="12.6339083"><ele>125.0</ele><time>2026-04-25T07:59:39.546Z</time></trkpt><trkpt lat="43.84265" lon="12.63386"><ele>124.6</ele><time>2026-04-25T07:59:41.545Z</time></trkpt><trkpt lat="43.842545" lon="12.6338083"><ele>124.2</ele><time>2026-04-25T07:59:43.545Z</time></trkpt><trkpt lat="43.84244" lon="12.633805"><ele>123.80000000000001</ele><time>2026-04-25T07:59:45.546Z</time></trkpt><trkpt lat="43.8423633" lon="12.6338283"><ele>123.4</ele><time>2026-04-25T07:59:47.546Z</time></trkpt><trkpt lat="43.8422783" lon="12.6338533"><ele>123.0</ele><time>2026-04-25T07:59:50.545Z</time></trkpt><trkpt lat="43.84219" lon="12.6339183"><ele>123.0</ele><time>2026-04-25T07:59:52.545Z</time></trkpt><trkpt lat="43.8421217" lon="12.6340083"><ele>123.00000000000001</ele><time>2026-04-25T07:59:54.545Z</time></trkpt><trkpt lat="43.84209" lon="12.634145"><ele>123.00000000000001</ele><time>2026-04-25T07:59:56.546Z</time></trkpt><trkpt lat="43.842075" lon="12.6342917"><ele>123.0</ele><time>2026-04-25T07:59:58.546Z</time></trkpt><trkpt lat="43.8420633" lon="12.634425"><ele>123.0</ele><time>2026-04-25T08:00:00.546Z</time></trkpt><trkpt lat="43.8420367" lon="12.63455"><ele>123.0</ele><time>2026-04-25T08:00:02.546Z</time></trkpt><trkpt lat="43.841985" lon="12.63463"><ele>123.0</ele><time>2026-04-25T08:00:04.546Z</time></trkpt><trkpt lat="43.8419133" lon="12.6347117"><ele>123.0</ele><time>2026-04-25T08:00:06.546Z</time></trkpt><trkpt lat="43.841865" lon="12.6347717"><ele>123.0</ele><time>2026-04-25T08:00:07.546Z</time></trkpt><trkpt lat="43.84181" lon="12.6348367"><ele>123.0</ele><time>2026-04-25T08:00:08.546Z</time></trkpt><trkpt lat="43.841745" lon="12.6349083"><ele>123.0</ele><time>2026-04-25T08:00:09.546Z</time></trkpt><trkpt lat="43.8416767" lon="12.635005"><ele>123.0</ele><time>2026-04-25T08:00:10.546Z</time></trkpt><trkpt lat="43.841605" lon="12.6351133"><ele>123.00000000000001</ele><time>2026-04-25T08:00:11.546Z</time></trkpt><trkpt lat="43.841545" lon="12.6352117"><ele>123.00000000000001</ele><time>2026-04-25T08:00:12.546Z</time></trkpt><trkpt lat="43.8414867" lon="12.635305"><ele>123.0</ele><time>2026-04-25T08:00:13.545Z</time></trkpt><trkpt lat="43.8414333" lon="12.6353917"><ele>123.0</ele><time>2026-04-25T08:00:14.546Z</time></trkpt><trkpt lat="43.8413683" lon="12.6355117"><ele>123.16666666666667</ele><time>2026-04-25T08:00:16.546Z</time></trkpt><trkpt lat="43.841305" lon="12.6355783"><ele>123.33333333333334</ele><time>2026-04-25T08:00:19.546Z</time></trkpt><trkpt lat="43.8412233" lon="12.635585"><ele>123.5</ele><time>2026-04-25T08:00:22.545Z</time></trkpt><trkpt lat="43.841125" lon="12.63562"><ele>123.66666666666667</ele><time>2026-04-25T08:00:24.546Z</time></trkpt><trkpt lat="43.8410617" lon="12.63565"><ele>123.83333333333334</ele><time>2026-04-25T08:00:25.545Z</time></trkpt><trkpt lat="43.8410033" lon="12.635685"><ele>124.0</ele><time>2026-04-25T08:00:26.546Z</time></trkpt><trkpt lat="43.84094" lon="12.63574"><ele>124.00000000000001</ele><time>2026-04-25T08:00:27.546Z</time></trkpt><trkpt lat="43.8408683" lon="12.6358017"><ele>124.0</ele><time>2026-04-25T08:00:28.546Z</time></trkpt><trkpt lat="43.8408017" lon="12.635875"><ele>124.0</ele><time>2026-04-25T08:00:29.546Z</time></trkpt><trkpt lat="43.8407433" lon="12.6359417"><ele>124.0</ele><time>2026-04-25T08:00:30.545Z</time></trkpt><trkpt lat="43.840665" lon="12.636045"><ele>124.00000000000001</ele><time>2026-04-25T08:00:32.545Z</time></trkpt><trkpt lat="43.8406217" lon="12.6361117"><ele>124.0</ele><time>2026-04-25T08:00:34.546Z</time></trkpt><trkpt lat="43.84065" lon="12.6362383"><ele>123.2</ele><time>2026-04-25T08:00:37.546Z</time></trkpt><trkpt lat="43.8406967" lon="12.63633"><ele>122.4</ele><time>2026-04-25T08:00:38.545Z</time></trkpt><trkpt lat="43.8407433" lon="12.6364517"><ele>121.6</ele><time>2026-04-25T08:00:39.546Z</time></trkpt><trkpt lat="43.840775" lon="12.6365817"><ele>120.8</ele><time>2026-04-25T08:00:40.546Z</time></trkpt><trkpt lat="43.8407833" lon="12.6366933"><ele>120.0</ele><time>2026-04-25T08:00:41.546Z</time></trkpt><trkpt lat="43.8407717" lon="12.6368283"><ele>119.75</ele><time>2026-04-25T08:00:42.546Z</time></trkpt><trkpt lat="43.840745" lon="12.637"><ele>119.5</ele><time>2026-04-25T08:00:43.545Z</time></trkpt><trkpt lat="43.8407083" lon="12.63718"><ele>119.25</ele><time>2026-04-25T08:00:44.545Z</time></trkpt><trkpt lat="43.84067" lon="12.6373317"><ele>119.0</ele><time>2026-04-25T08:00:45.546Z</time></trkpt><trkpt lat="43.84063" lon="12.637455"><ele>119.0</ele><time>2026-04-25T08:00:46.546Z</time></trkpt><trkpt lat="43.8405733" lon="12.6375583"><ele>119.0</ele><time>2026-04-25T08:00:47.546Z</time></trkpt><trkpt lat="43.840505" lon="12.6376517"><ele>119.0</ele><time>2026-04-25T08:00:48.546Z</time></trkpt><trkpt lat="43.8404333" lon="12.63776"><ele>119.0</ele><time>2026-04-25T08:00:49.546Z</time></trkpt><trkpt lat="43.8403783" lon="12.6378783"><ele>119.0</ele><time>2026-04-25T08:00:50.545Z</time></trkpt><trkpt lat="43.8403383" lon="12.63801"><ele>119.2</ele><time>2026-04-25T08:00:51.546Z</time></trkpt><trkpt lat="43.8403183" lon="12.6381567"><ele>119.4</ele><time>2026-04-25T08:00:52.546Z</time></trkpt><trkpt lat="43.8403217" lon="12.6383"><ele>119.6</ele><time>2026-04-25T08:00:53.546Z</time></trkpt><trkpt lat="43.8403383" lon="12.638445"><ele>119.8</ele><time>2026-04-25T08:00:54.545Z</time></trkpt><trkpt lat="43.840355" lon="12.6386033"><ele>120.0</ele><time>2026-04-25T08:00:55.546Z</time></trkpt><trkpt lat="43.8403683" lon="12.6387933"><ele>120.0</ele><time>2026-04-25T08:00:56.546Z</time></trkpt><trkpt lat="43.8403867" lon="12.6389783"><ele>120.0</ele><time>2026-04-25T08:00:57.546Z</time></trkpt><trkpt lat="43.8404067" lon="12.6391417"><ele>120.0</ele><time>2026-04-25T08:00:58.546Z</time></trkpt><trkpt lat="43.8404583" lon="12.6393033"><ele>120.0</ele><time>2026-04-25T08:00:59.546Z</time></trkpt><trkpt lat="43.8405467" lon="12.6394733"><ele>120.33333333333334</ele><time>2026-04-25T08:01:00.546Z</time></trkpt><trkpt lat="43.8406683" lon="12.6396567"><ele>120.66666666666667</ele><time>2026-04-25T08:01:01.546Z</time></trkpt><trkpt lat="43.8408217" lon="12.6398567"><ele>121.0</ele><time>2026-04-25T08:01:02.546Z</time></trkpt><trkpt lat="43.84097" lon="12.6400683"><ele>120.0</ele><time>2026-04-25T08:01:03.546Z</time></trkpt><trkpt lat="43.841105" lon="12.640265"><ele>119.0</ele><time>2026-04-25T08:01:04.545Z</time></trkpt><trkpt lat="43.8412217" lon="12.6404383"><ele>118.0</ele><time>2026-04-25T08:01:05.546Z</time></trkpt><trkpt lat="43.8413317" lon="12.6405917"><ele>118.0</ele><time>2026-04-25T08:01:06.546Z</time></trkpt><trkpt lat="43.84142" lon="12.6407417"><ele>118.0</ele><time>2026-04-25T08:01:07.545Z</time></trkpt><trkpt lat="43.84149" lon="12.6408817"><ele>118.0</ele><time>2026-04-25T08:01:08.546Z</time></trkpt><trkpt lat="43.8415433" lon="12.6410317"><ele>118.0</ele><time>2026-04-25T08:01:09.546Z</time></trkpt><trkpt lat="43.84158" lon="12.64118"><ele>118.5</ele><time>2026-04-25T08:01:10.546Z</time></trkpt><trkpt lat="43.8415817" lon="12.6413267"><ele>119.0</ele><time>2026-04-25T08:01:11.545Z</time></trkpt><trkpt lat="43.8415617" lon="12.6414833"><ele>119.5</ele><time>2026-04-25T08:01:12.546Z</time></trkpt><trkpt lat="43.841495" lon="12.64163"><ele>120.0</ele><time>2026-04-25T08:01:13.545Z</time></trkpt><trkpt lat="43.8414317" lon="12.6417767"><ele>120.0</ele><time>2026-04-25T08:01:14.545Z</time></trkpt><trkpt lat="43.841385" lon="12.6419183"><ele>120.0</ele><time>2026-04-25T08:01:15.546Z</time></trkpt><trkpt lat="43.841355" lon="12.642085"><ele>120.0</ele><time>2026-04-25T08:01:16.546Z</time></trkpt><trkpt lat="43.84132" lon="12.6423083"><ele>120.0</ele><time>2026-04-25T08:01:17.546Z</time></trkpt><trkpt lat="43.8412733" lon="12.6425917"><ele>122.5</ele><time>2026-04-25T08:01:18.545Z</time></trkpt><trkpt lat="43.8411983" lon="12.6429033"><ele>125.0</ele><time>2026-04-25T08:01:19.546Z</time></trkpt><trkpt lat="43.8411183" lon="12.6432233"><ele>125.0</ele><time>2026-04-25T08:01:20.545Z</time></trkpt><trkpt lat="43.8410433" lon="12.6435067"><ele>125.0</ele><time>2026-04-25T08:01:21.546Z</time></trkpt><trkpt lat="43.8409867" lon="12.64376"><ele>125.0</ele><time>2026-04-25T08:01:22.546Z</time></trkpt><trkpt lat="43.8409283" lon="12.643975"><ele>123.25</ele><time>2026-04-25T08:01:23.546Z</time></trkpt><trkpt lat="43.8408867" lon="12.644155"><ele>121.5</ele><time>2026-04-25T08:01:24.545Z</time></trkpt><trkpt lat="43.8408483" lon="12.64431"><ele>119.75</ele><time>2026-04-25T08:01:25.546Z</time></trkpt><trkpt lat="43.840815" lon="12.6444583"><ele>118.0</ele><time>2026-04-25T08:01:26.545Z</time></trkpt><trkpt lat="43.8408183" lon="12.644605"><ele>118.0</ele><time>2026-04-25T08:01:27.545Z</time></trkpt><trkpt lat="43.8408267" lon="12.6447583"><ele>118.0</ele><time>2026-04-25T08:01:28.545Z</time></trkpt><trkpt lat="43.8408167" lon="12.64491"><ele>118.0</ele><time>2026-04-25T08:01:29.546Z</time></trkpt><trkpt lat="43.8407783" lon="12.64508"><ele>118.0</ele><time>2026-04-25T08:01:30.546Z</time></trkpt><trkpt lat="43.8407233" lon="12.645305"><ele>118.66666666666667</ele><time>2026-04-25T08:01:31.546Z</time></trkpt><trkpt lat="43.840665" lon="12.6455483"><ele>119.33333333333334</ele><time>2026-04-25T08:01:32.545Z</time></trkpt><trkpt lat="43.8406183" lon="12.6457433"><ele>120.0</ele><time>2026-04-25T08:01:33.546Z</time></trkpt><trkpt lat="43.8405683" lon="12.6458983"><ele>120.0</ele><time>2026-04-25T08:01:34.545Z</time></trkpt><trkpt lat="43.8405067" lon="12.6460267"><ele>120.0</ele><time>2026-04-25T08:01:35.546Z</time></trkpt><trkpt lat="43.840435" lon="12.6461417"><ele>120.0</ele><time>2026-04-25T08:01:36.545Z</time></trkpt><trkpt lat="43.8403317" lon="12.646235"><ele>120.0</ele><time>2026-04-25T08:01:37.546Z</time></trkpt><trkpt lat="43.84018" lon="12.64631"><ele>120.33333333333334</ele><time>2026-04-25T08:01:38.545Z</time></trkpt><trkpt lat="43.8399933" lon="12.6463833"><ele>120.66666666666667</ele><time>2026-04-25T08:01:39.546Z</time></trkpt><trkpt lat="43.83979" lon="12.64646"><ele>121.0</ele><time>2026-04-25T08:01:40.546Z</time></trkpt><trkpt lat="43.8395967" lon="12.6465267"><ele>121.0</ele><time>2026-04-25T08:01:41.545Z</time></trkpt><trkpt lat="43.8394267" lon="12.6465833"><ele>121.0</ele><time>2026-04-25T08:01:42.546Z</time></trkpt><trkpt lat="43.839295" lon="12.6466433"><ele>121.0</ele><time>2026-04-25T08:01:43.546Z</time></trkpt><trkpt lat="43.8391833" lon="12.6467033"><ele>121.0</ele><time>2026-04-25T08:01:44.546Z</time></trkpt><trkpt lat="43.8390883" lon="12.64677"><ele>120.8</ele><time>2026-04-25T08:01:45.546Z</time></trkpt><trkpt lat="43.8390017" lon="12.6468533"><ele>120.6</ele><time>2026-04-25T08:01:46.546Z</time></trkpt><trkpt lat="43.8389317" lon="12.64693"><ele>120.4</ele><time>2026-04-25T08:01:47.546Z</time></trkpt><trkpt lat="43.83887" lon="12.6469933"><ele>120.2</ele><time>2026-04-25T08:01:48.546Z</time></trkpt><trkpt lat="43.8388117" lon="12.647035"><ele>120.0</ele><time>2026-04-25T08:01:49.546Z</time></trkpt><trkpt lat="43.838685" lon="12.6470083"><ele>119.83333333333333</ele><time>2026-04-25T08:01:51.545Z</time></trkpt><trkpt lat="43.8386183" lon="12.6469433"><ele>119.66666666666666</ele><time>2026-04-25T08:01:52.545Z</time></trkpt><trkpt lat="43.8385617" lon="12.6468717"><ele>119.5</ele><time>2026-04-25T08:01:53.546Z</time></trkpt><trkpt lat="43.83852" lon="12.64679"><ele>119.33333333333333</ele><time>2026-04-25T08:01:54.546Z</time></trkpt><trkpt lat="43.8384917" lon="12.6467067"><ele>119.16666666666666</ele><time>2026-04-25T08:01:55.545Z</time></trkpt><trkpt lat="43.8384967" lon="12.6465233"><ele>119.0</ele><time>2026-04-25T08:01:57.546Z</time></trkpt><trkpt lat="43.83851" lon="12.6464183"><ele>119.0</ele><time>2026-04-25T08:01:58.546Z</time></trkpt><trkpt lat="43.8385117" lon="12.6463217"><ele>119.0</ele><time>2026-04-25T08:01:59.545Z</time></trkpt><trkpt lat="43.83849" lon="12.6462217"><ele>119.0</ele><time>2026-04-25T08:02:00.546Z</time></trkpt><trkpt lat="43.8384333" lon="12.6461083"><ele>119.0</ele><time>2026-04-25T08:02:01.545Z</time></trkpt><trkpt lat="43.8383533" lon="12.6459667"><ele>119.0</ele><time>2026-04-25T08:02:02.546Z</time></trkpt><trkpt lat="43.8382633" lon="12.6458417"><ele>117.0</ele><time>2026-04-25T08:02:03.545Z</time></trkpt><trkpt lat="43.8381817" lon="12.6457467"><ele>115.0</ele><time>2026-04-25T08:02:04.546Z</time></trkpt><trkpt lat="43.838095" lon="12.6456817"><ele>113.0</ele><time>2026-04-25T08:02:05.546Z</time></trkpt><trkpt lat="43.8380183" lon="12.6456333"><ele>111.0</ele><time>2026-04-25T08:02:06.545Z</time></trkpt><trkpt lat="43.8379533" lon="12.6456067"><ele>109.0</ele><time>2026-04-25T08:02:07.546Z</time></trkpt><trkpt lat="43.83786" lon="12.6456583"><ele>109.00000000000001</ele><time>2026-04-25T08:02:09.546Z</time></trkpt><trkpt lat="43.8378167" lon="12.6457383"><ele>109.0</ele><time>2026-04-25T08:02:10.546Z</time></trkpt><trkpt lat="43.8377667" lon="12.6458517"><ele>109.0</ele><time>2026-04-25T08:02:11.546Z</time></trkpt><trkpt lat="43.8377017" lon="12.6459633"><ele>109.0</ele><time>2026-04-25T08:02:12.545Z</time></trkpt><trkpt lat="43.8376333" lon="12.6460433"><ele>109.00000000000001</ele><time>2026-04-25T08:02:13.546Z</time></trkpt><trkpt lat="43.8375667" lon="12.64606"><ele>109.0</ele><time>2026-04-25T08:02:14.546Z</time></trkpt><trkpt lat="43.8374967" lon="12.64601"><ele>109.80000000000001</ele><time>2026-04-25T08:02:15.546Z</time></trkpt><trkpt lat="43.8374267" lon="12.6459233"><ele>110.60000000000001</ele><time>2026-04-25T08:02:16.546Z</time></trkpt><trkpt lat="43.837365" lon="12.6457883"><ele>111.4</ele><time>2026-04-25T08:02:17.546Z</time></trkpt><trkpt lat="43.8372983" lon="12.6456583"><ele>112.2</ele><time>2026-04-25T08:02:18.545Z</time></trkpt><trkpt lat="43.83724" lon="12.6455733"><ele>113.0</ele><time>2026-04-25T08:02:19.546Z</time></trkpt><trkpt lat="43.8371617" lon="12.6455167"><ele>113.0</ele><time>2026-04-25T08:02:20.546Z</time></trkpt><trkpt lat="43.8370633" lon="12.64548"><ele>113.0</ele><time>2026-04-25T08:02:21.546Z</time></trkpt><trkpt lat="43.8369533" lon="12.6454617"><ele>113.0</ele><time>2026-04-25T08:02:22.545Z</time></trkpt><trkpt lat="43.836815" lon="12.645475"><ele>113.0</ele><time>2026-04-25T08:02:23.546Z</time></trkpt><trkpt lat="43.836675" lon="12.64552"><ele>115.80000000000001</ele><time>2026-04-25T08:02:24.545Z</time></trkpt><trkpt lat="43.83656" lon="12.64558"><ele>118.60000000000001</ele><time>2026-04-25T08:02:25.545Z</time></trkpt><trkpt lat="43.83647" lon="12.6456483"><ele>121.39999999999999</ele><time>2026-04-25T08:02:26.546Z</time></trkpt><trkpt lat="43.8363917" lon="12.6457267"><ele>124.19999999999999</ele><time>2026-04-25T08:02:27.545Z</time></trkpt><trkpt lat="43.8363433" lon="12.6458283"><ele>127.0</ele><time>2026-04-25T08:02:28.546Z</time></trkpt><trkpt lat="43.8363067" lon="12.6459683"><ele>127.25</ele><time>2026-04-25T08:02:29.546Z</time></trkpt><trkpt lat="43.8362767" lon="12.64616"><ele>127.5</ele><time>2026-04-25T08:02:30.546Z</time></trkpt><trkpt lat="43.8362567" lon="12.6463533"><ele>127.75</ele><time>2026-04-25T08:02:31.546Z</time></trkpt><trkpt lat="43.836235" lon="12.64653"><ele>128.0</ele><time>2026-04-25T08:02:32.546Z</time></trkpt><trkpt lat="43.8362033" lon="12.64671"><ele>128.0</ele><time>2026-04-25T08:02:33.545Z</time></trkpt><trkpt lat="43.8361717" lon="12.6469117"><ele>128.0</ele><time>2026-04-25T08:02:34.546Z</time></trkpt><trkpt lat="43.8361367" lon="12.64713"><ele>128.0</ele><time>2026-04-25T08:02:35.545Z</time></trkpt><trkpt lat="43.83611" lon="12.6473317"><ele>127.75</ele><time>2026-04-25T08:02:36.546Z</time></trkpt><trkpt lat="43.8360783" lon="12.6475083"><ele>127.5</ele><time>2026-04-25T08:02:37.546Z</time></trkpt><trkpt lat="43.8360383" lon="12.6476783"><ele>127.25</ele><time>2026-04-25T08:02:38.545Z</time></trkpt><trkpt lat="43.8359883" lon="12.6478383"><ele>127.0</ele><time>2026-04-25T08:02:39.546Z</time></trkpt><trkpt lat="43.83593" lon="12.6480083"><ele>132.0</ele><time>2026-04-25T08:02:40.546Z</time></trkpt><trkpt lat="43.8358567" lon="12.6481983"><ele>137.0</ele><time>2026-04-25T08:02:41.546Z</time></trkpt><trkpt lat="43.835785" lon="12.648395"><ele>142.0</ele><time>2026-04-25T08:02:42.545Z</time></trkpt><trkpt lat="43.8357167" lon="12.6485633"><ele>140.75</ele><time>2026-04-25T08:02:43.545Z</time></trkpt><trkpt lat="43.8356483" lon="12.64873"><ele>139.5</ele><time>2026-04-25T08:02:44.546Z</time></trkpt><trkpt lat="43.8355683" lon="12.648895"><ele>138.25</ele><time>2026-04-25T08:02:45.546Z</time></trkpt><trkpt lat="43.8354917" lon="12.6490667"><ele>137.0</ele><time>2026-04-25T08:02:46.546Z</time></trkpt><trkpt lat="43.8354217" lon="12.6492283"><ele>137.0</ele><time>2026-04-25T08:02:47.546Z</time></trkpt><trkpt lat="43.8353533" lon="12.64938"><ele>137.0</ele><time>2026-04-25T08:02:48.546Z</time></trkpt><trkpt lat="43.83529" lon="12.6495133"><ele>137.0</ele><time>2026-04-25T08:02:49.546Z</time></trkpt><trkpt lat="43.8352267" lon="12.64963"><ele>137.0</ele><time>2026-04-25T08:02:50.546Z</time></trkpt><trkpt lat="43.8351483" lon="12.649735"><ele>140.5</ele><time>2026-04-25T08:02:51.545Z</time></trkpt><trkpt lat="43.8350567" lon="12.6498567"><ele>144.0</ele><time>2026-04-25T08:02:52.546Z</time></trkpt><trkpt lat="43.8349617" lon="12.6499883"><ele>147.5</ele><time>2026-04-25T08:02:53.546Z</time></trkpt><trkpt lat="43.8348667" lon="12.6501083"><ele>151.0</ele><time>2026-04-25T08:02:54.546Z</time></trkpt><trkpt lat="43.8347733" lon="12.65023"><ele>150.0</ele><time>2026-04-25T08:02:55.545Z</time></trkpt><trkpt lat="43.834685" lon="12.65034"><ele>149.0</ele><time>2026-04-25T08:02:56.546Z</time></trkpt><trkpt lat="43.8346017" lon="12.6504483"><ele>148.0</ele><time>2026-04-25T08:02:57.546Z</time></trkpt><trkpt lat="43.83452" lon="12.6505567"><ele>147.0</ele><time>2026-04-25T08:02:58.546Z</time></trkpt><trkpt lat="43.8344417" lon="12.6506583"><ele>147.0</ele><time>2026-04-25T08:02:59.546Z</time></trkpt><trkpt lat="43.8343617" lon="12.6507633"><ele>147.0</ele><time>2026-04-25T08:03:00.545Z</time></trkpt><trkpt lat="43.83428" lon="12.6508717"><ele>147.0</ele><time>2026-04-25T08:03:01.546Z</time></trkpt><trkpt lat="43.8341917" lon="12.6509967"><ele>147.0</ele><time>2026-04-25T08:03:02.546Z</time></trkpt><trkpt lat="43.8340983" lon="12.6511267"><ele>151.5</ele><time>2026-04-25T08:03:03.545Z</time></trkpt><trkpt lat="43.834" lon="12.6512583"><ele>156.0</ele><time>2026-04-25T08:03:04.546Z</time></trkpt><trkpt lat="43.8339017" lon="12.651385"><ele>160.5</ele><time>2026-04-25T08:03:05.546Z</time></trkpt><trkpt lat="43.833805" lon="12.6515117"><ele>165.0</ele><time>2026-04-25T08:03:06.546Z</time></trkpt><trkpt lat="43.833715" lon="12.6516217"><ele>165.0</ele><time>2026-04-25T08:03:07.546Z</time></trkpt><trkpt lat="43.8336333" lon="12.6517283"><ele>165.0</ele><time>2026-04-25T08:03:08.546Z</time></trkpt><trkpt lat="43.8335417" lon="12.6518217"><ele>165.0</ele><time>2026-04-25T08:03:09.546Z</time></trkpt><trkpt lat="43.833455" lon="12.6519033"><ele>165.0</ele><time>2026-04-25T08:03:10.545Z</time></trkpt><trkpt lat="43.8333683" lon="12.6519633"><ele>165.0</ele><time>2026-04-25T08:03:11.546Z</time></trkpt><trkpt lat="43.83329" lon="12.6520033"><ele>165.33333333333334</ele><time>2026-04-25T08:03:12.546Z</time></trkpt><trkpt lat="43.833215" lon="12.652015"><ele>165.66666666666666</ele><time>2026-04-25T08:03:13.545Z</time></trkpt><trkpt lat="43.8331517" lon="12.651985"><ele>166.0</ele><time>2026-04-25T08:03:14.546Z</time></trkpt><trkpt lat="43.8331" lon="12.65192"><ele>166.33333333333331</ele><time>2026-04-25T08:03:15.546Z</time></trkpt><trkpt lat="43.83306" lon="12.65182"><ele>166.66666666666666</ele><time>2026-04-25T08:03:16.545Z</time></trkpt><trkpt lat="43.8330267" lon="12.65169"><ele>167.0</ele><time>2026-04-25T08:03:17.546Z</time></trkpt><trkpt lat="43.8329983" lon="12.6515417"><ele>169.75</ele><time>2026-04-25T08:03:18.546Z</time></trkpt><trkpt lat="43.832975" lon="12.6513733"><ele>172.5</ele><time>2026-04-25T08:03:19.546Z</time></trkpt><trkpt lat="43.832945" lon="12.651215"><ele>175.25</ele><time>2026-04-25T08:03:20.545Z</time></trkpt><trkpt lat="43.8329167" lon="12.651055"><ele>178.0</ele><time>2026-04-25T08:03:21.546Z</time></trkpt><trkpt lat="43.8328967" lon="12.6509017"><ele>180.0</ele><time>2026-04-25T08:03:22.545Z</time></trkpt><trkpt lat="43.8328683" lon="12.6507533"><ele>182.0</ele><time>2026-04-25T08:03:23.546Z</time></trkpt><trkpt lat="43.832835" lon="12.6506067"><ele>184.0</ele><time>2026-04-25T08:03:24.545Z</time></trkpt><trkpt lat="43.8327967" lon="12.6504567"><ele>186.0</ele><time>2026-04-25T08:03:25.545Z</time></trkpt><trkpt lat="43.8327533" lon="12.65031"><ele>187.25</ele><time>2026-04-25T08:03:26.546Z</time></trkpt><trkpt lat="43.8326967" lon="12.65016"><ele>188.5</ele><time>2026-04-25T08:03:27.546Z</time></trkpt><trkpt lat="43.83264" lon="12.650005"><ele>189.75</ele><time>2026-04-25T08:03:28.546Z</time></trkpt><trkpt lat="43.83258" lon="12.6498367"><ele>191.0</ele><time>2026-04-25T08:03:29.546Z</time></trkpt><trkpt lat="43.8325167" lon="12.6496767"><ele>191.0</ele><time>2026-04-25T08:03:30.546Z</time></trkpt><trkpt lat="43.8324517" lon="12.649515"><ele>191.0</ele><time>2026-04-25T08:03:31.546Z</time></trkpt><trkpt lat="43.8323767" lon="12.6493533"><ele>191.0</ele><time>2026-04-25T08:03:32.546Z</time></trkpt><trkpt lat="43.8323033" lon="12.649185"><ele>191.0</ele><time>2026-04-25T08:03:33.545Z</time></trkpt><trkpt lat="43.8322317" lon="12.6490183"><ele>193.25</ele><time>2026-04-25T08:03:34.545Z</time></trkpt><trkpt lat="43.8321533" lon="12.6488567"><ele>195.5</ele><time>2026-04-25T08:03:35.545Z</time></trkpt><trkpt lat="43.8320883" lon="12.648695"><ele>197.75</ele><time>2026-04-25T08:03:36.545Z</time></trkpt><trkpt lat="43.8320217" lon="12.6485433"><ele>200.0</ele><time>2026-04-25T08:03:37.546Z</time></trkpt><trkpt lat="43.8319533" lon="12.6484083"><ele>200.25</ele><time>2026-04-25T08:03:38.546Z</time></trkpt><trkpt lat="43.8318833" lon="12.648285"><ele>200.5</ele><time>2026-04-25T08:03:39.546Z</time></trkpt><trkpt lat="43.8318" lon="12.64817"><ele>200.75</ele><time>2026-04-25T08:03:40.546Z</time></trkpt><trkpt lat="43.831695" lon="12.6480567"><ele>201.0</ele><time>2026-04-25T08:03:41.545Z</time></trkpt><trkpt lat="43.8315717" lon="12.6479417"><ele>200.25</ele><time>2026-04-25T08:03:42.546Z</time></trkpt><trkpt lat="43.8314483" lon="12.6478283"><ele>199.5</ele><time>2026-04-25T08:03:43.546Z</time></trkpt><trkpt lat="43.8313233" lon="12.6477183"><ele>198.75</ele><time>2026-04-25T08:03:44.546Z</time></trkpt><trkpt lat="43.8312033" lon="12.64761"><ele>198.0</ele><time>2026-04-25T08:03:45.546Z</time></trkpt><trkpt lat="43.831075" lon="12.6475117"><ele>199.0</ele><time>2026-04-25T08:03:46.546Z</time></trkpt><trkpt lat="43.8309483" lon="12.64741"><ele>200.0</ele><time>2026-04-25T08:03:47.546Z</time></trkpt><trkpt lat="43.8308133" lon="12.647305"><ele>201.0</ele><time>2026-04-25T08:03:48.546Z</time></trkpt><trkpt lat="43.8306717" lon="12.6471883"><ele>201.0</ele><time>2026-04-25T08:03:49.545Z</time></trkpt><trkpt lat="43.8305383" lon="12.64708"><ele>201.0</ele><time>2026-04-25T08:03:50.546Z</time></trkpt><trkpt lat="43.8304067" lon="12.6469917"><ele>201.0</ele><time>2026-04-25T08:03:51.546Z</time></trkpt><trkpt lat="43.8302817" lon="12.646895"><ele>201.0</ele><time>2026-04-25T08:03:52.545Z</time></trkpt><trkpt lat="43.8301667" lon="12.646785"><ele>201.75</ele><time>2026-04-25T08:03:53.545Z</time></trkpt><trkpt lat="43.8300517" lon="12.6466817"><ele>202.5</ele><time>2026-04-25T08:03:54.546Z</time></trkpt><trkpt lat="43.8299317" lon="12.64657"><ele>203.25</ele><time>2026-04-25T08:03:55.546Z</time></trkpt><trkpt lat="43.8297983" lon="12.6464583"><ele>204.0</ele><time>2026-04-25T08:03:56.545Z</time></trkpt><trkpt lat="43.82966" lon="12.6463367"><ele>204.0</ele><time>2026-04-25T08:03:57.546Z</time></trkpt><trkpt lat="43.82951" lon="12.6462"><ele>204.0</ele><time>2026-04-25T08:03:58.546Z</time></trkpt><trkpt lat="43.8293633" lon="12.6460633"><ele>204.0</ele><time>2026-04-25T08:03:59.546Z</time></trkpt><trkpt lat="43.8292183" lon="12.64592"><ele>205.0</ele><time>2026-04-25T08:04:00.546Z</time></trkpt><trkpt lat="43.8290683" lon="12.64578"><ele>206.0</ele><time>2026-04-25T08:04:01.545Z</time></trkpt><trkpt lat="43.8289217" lon="12.6456467"><ele>207.0</ele><time>2026-04-25T08:04:02.546Z</time></trkpt><trkpt lat="43.8287917" lon="12.6455217"><ele>207.0</ele><time>2026-04-25T08:04:03.546Z</time></trkpt><trkpt lat="43.8286583" lon="12.6453933"><ele>207.0</ele><time>2026-04-25T08:04:04.545Z</time></trkpt><trkpt lat="43.8285367" lon="12.6452767"><ele>207.0</ele><time>2026-04-25T08:04:05.545Z</time></trkpt><trkpt lat="43.8284233" lon="12.6451783"><ele>207.0</ele><time>2026-04-25T08:04:06.545Z</time></trkpt><trkpt lat="43.8283217" lon="12.6451083"><ele>208.75</ele><time>2026-04-25T08:04:07.546Z</time></trkpt><trkpt lat="43.8282267" lon="12.645065"><ele>210.5</ele><time>2026-04-25T08:04:08.546Z</time></trkpt><trkpt lat="43.8281233" lon="12.645055"><ele>212.25</ele><time>2026-04-25T08:04:09.546Z</time></trkpt><trkpt lat="43.8279983" lon="12.6450667"><ele>214.0</ele><time>2026-04-25T08:04:10.545Z</time></trkpt><trkpt lat="43.82787" lon="12.645085"><ele>214.0</ele><time>2026-04-25T08:04:11.546Z</time></trkpt><trkpt lat="43.827725" lon="12.645105"><ele>214.0</ele><time>2026-04-25T08:04:12.546Z</time></trkpt><trkpt lat="43.82758" lon="12.6451183"><ele>214.0</ele><time>2026-04-25T08:04:13.546Z</time></trkpt><trkpt lat="43.827445" lon="12.6451317"><ele>214.0</ele><time>2026-04-25T08:04:14.545Z</time></trkpt><trkpt lat="43.827335" lon="12.64515"><ele>214.49999999999997</ele><time>2026-04-25T08:04:15.546Z</time></trkpt><trkpt lat="43.8272433" lon="12.6451717"><ele>215.0</ele><time>2026-04-25T08:04:16.546Z</time></trkpt><trkpt lat="43.8271733" lon="12.645205"><ele>215.5</ele><time>2026-04-25T08:04:17.546Z</time></trkpt><trkpt lat="43.82711" lon="12.6452517"><ele>216.0</ele><time>2026-04-25T08:04:18.546Z</time></trkpt><trkpt lat="43.827045" lon="12.6452933"><ele>216.49999999999997</ele><time>2026-04-25T08:04:19.545Z</time></trkpt><trkpt lat="43.8269517" lon="12.64533"><ele>217.0</ele><time>2026-04-25T08:04:21.545Z</time></trkpt><trkpt lat="43.8268967" lon="12.6452217"><ele>218.8</ele><time>2026-04-25T08:04:25.546Z</time></trkpt><trkpt lat="43.826895" lon="12.6450483"><ele>220.6</ele><time>2026-04-25T08:04:27.546Z</time></trkpt><trkpt lat="43.8269" lon="12.644935"><ele>222.40000000000003</ele><time>2026-04-25T08:04:28.546Z</time></trkpt><trkpt lat="43.8269033" lon="12.6448183"><ele>224.20000000000002</ele><time>2026-04-25T08:04:29.546Z</time></trkpt><trkpt lat="43.826905" lon="12.64469"><ele>226.0</ele><time>2026-04-25T08:04:30.545Z</time></trkpt><trkpt lat="43.8269067" lon="12.6445683"><ele>226.0</ele><time>2026-04-25T08:04:31.546Z</time></trkpt><trkpt lat="43.826905" lon="12.644465"><ele>226.0</ele><time>2026-04-25T08:04:32.546Z</time></trkpt><trkpt lat="43.8268967" lon="12.6443683"><ele>226.0</ele><time>2026-04-25T08:04:33.545Z</time></trkpt><trkpt lat="43.8268917" lon="12.6442733"><ele>226.0</ele><time>2026-04-25T08:04:34.545Z</time></trkpt><trkpt lat="43.82689" lon="12.6441717"><ele>226.0</ele><time>2026-04-25T08:04:35.546Z</time></trkpt><trkpt lat="43.8268833" lon="12.6440733"><ele>226.0</ele><time>2026-04-25T08:04:36.545Z</time></trkpt><trkpt lat="43.8268767" lon="12.6439633"><ele>226.0</ele><time>2026-04-25T08:04:37.545Z</time></trkpt><trkpt lat="43.8268683" lon="12.643845"><ele>225.83333333333331</ele><time>2026-04-25T08:04:38.546Z</time></trkpt><trkpt lat="43.8268617" lon="12.6437167"><ele>225.66666666666666</ele><time>2026-04-25T08:04:39.546Z</time></trkpt><trkpt lat="43.82686" lon="12.6435867"><ele>225.5</ele><time>2026-04-25T08:04:40.546Z</time></trkpt><trkpt lat="43.826855" lon="12.6434633"><ele>225.33333333333331</ele><time>2026-04-25T08:04:41.545Z</time></trkpt><trkpt lat="43.8268533" lon="12.643345"><ele>225.16666666666666</ele><time>2026-04-25T08:04:42.546Z</time></trkpt><trkpt lat="43.826845" lon="12.6432267"><ele>225.0</ele><time>2026-04-25T08:04:43.545Z</time></trkpt><trkpt lat="43.8268333" lon="12.643105"><ele>225.0</ele><time>2026-04-25T08:04:44.546Z</time></trkpt><trkpt lat="43.8268217" lon="12.6429917"><ele>225.0</ele><time>2026-04-25T08:04:45.546Z</time></trkpt><trkpt lat="43.8268067" lon="12.6428783"><ele>225.0</ele><time>2026-04-25T08:04:46.545Z</time></trkpt><trkpt lat="43.8267883" lon="12.6427667"><ele>225.0</ele><time>2026-04-25T08:04:47.546Z</time></trkpt><trkpt lat="43.8267717" lon="12.6426533"><ele>225.0</ele><time>2026-04-25T08:04:48.545Z</time></trkpt><trkpt lat="43.8267533" lon="12.6425417"><ele>225.0</ele><time>2026-04-25T08:04:49.546Z</time></trkpt><trkpt lat="43.8267267" lon="12.6424317"><ele>225.0</ele><time>2026-04-25T08:04:50.546Z</time></trkpt><trkpt lat="43.82668" lon="12.6423433"><ele>225.0</ele><time>2026-04-25T08:04:51.546Z</time></trkpt><trkpt lat="43.8266233" lon="12.642275"><ele>225.0</ele><time>2026-04-25T08:04:52.546Z</time></trkpt><trkpt lat="43.82656" lon="12.642235"><ele>225.0</ele><time>2026-04-25T08:04:53.545Z</time></trkpt><trkpt lat="43.82649" lon="12.64221"><ele>225.0</ele><time>2026-04-25T08:04:54.546Z</time></trkpt><trkpt lat="43.8264083" lon="12.6422017"><ele>225.0</ele><time>2026-04-25T08:04:55.546Z</time></trkpt><trkpt lat="43.8263183" lon="12.64221"><ele>225.0</ele><time>2026-04-25T08:04:56.546Z</time></trkpt><trkpt lat="43.826225" lon="12.6422167"><ele>225.0</ele><time>2026-04-25T08:04:57.545Z</time></trkpt><trkpt lat="43.8261333" lon="12.6422083"><ele>225.0</ele><time>2026-04-25T08:04:58.546Z</time></trkpt><trkpt lat="43.8260583" lon="12.642175"><ele>225.0</ele><time>2026-04-25T08:04:59.546Z</time></trkpt><trkpt lat="43.826005" lon="12.642115"><ele>225.0</ele><time>2026-04-25T08:05:00.545Z</time></trkpt><trkpt lat="43.8259683" lon="12.6420317"><ele>225.0</ele><time>2026-04-25T08:05:01.546Z</time></trkpt><trkpt lat="43.8259533" lon="12.641935"><ele>225.66666666666666</ele><time>2026-04-25T08:05:02.546Z</time></trkpt><trkpt lat="43.8259567" lon="12.6418333"><ele>226.33333333333331</ele><time>2026-04-25T08:05:03.546Z</time></trkpt><trkpt lat="43.8259783" lon="12.6417333"><ele>227.0</ele><time>2026-04-25T08:05:04.546Z</time></trkpt><trkpt lat="43.8260106" lon="12.6416319"><ele>227.66666666666666</ele><time>2026-04-25T08:05:05.546Z</time></trkpt><trkpt lat="43.8260529" lon="12.641518"><ele>228.33333333333331</ele><time>2026-04-25T08:05:06.546Z</time></trkpt><trkpt lat="43.8260892" lon="12.6413949"><ele>229.0</ele><time>2026-04-25T08:05:07.546Z</time></trkpt><trkpt lat="43.8260977" lon="12.6412619"><ele>229.5</ele><time>2026-04-25T08:05:08.546Z</time></trkpt><trkpt lat="43.8260749" lon="12.6411261"><ele>230.0</ele><time>2026-04-25T08:05:09.546Z</time></trkpt><trkpt lat="43.8260324" lon="12.6409702"><ele>230.5</ele><time>2026-04-25T08:05:10.545Z</time></trkpt><trkpt lat="43.8259739" lon="12.6408067"><ele>231.0</ele><time>2026-04-25T08:05:11.546Z</time></trkpt><trkpt lat="43.8259059" lon="12.6406449"><ele>235.25</ele><time>2026-04-25T08:05:12.545Z</time></trkpt><trkpt lat="43.825832" lon="12.6404971"><ele>239.5</ele><time>2026-04-25T08:05:13.546Z</time></trkpt><trkpt lat="43.8257475" lon="12.6403551"><ele>243.75</ele><time>2026-04-25T08:05:14.546Z</time></trkpt><trkpt lat="43.8256567" lon="12.6402269"><ele>248.0</ele><time>2026-04-25T08:05:15.546Z</time></trkpt><trkpt lat="43.8255734" lon="12.6401277"><ele>248.8</ele><time>2026-04-25T08:05:16.545Z</time></trkpt><trkpt lat="43.8254935" lon="12.6400487"><ele>249.60000000000002</ele><time>2026-04-25T08:05:17.546Z</time></trkpt><trkpt lat="43.8254059" lon="12.6399942"><ele>250.39999999999998</ele><time>2026-04-25T08:05:18.546Z</time></trkpt><trkpt lat="43.825308" lon="12.6399454"><ele>251.2</ele><time>2026-04-25T08:05:19.546Z</time></trkpt><trkpt lat="43.8252113" lon="12.6398844"><ele>252.0</ele><time>2026-04-25T08:05:20.546Z</time></trkpt><trkpt lat="43.8251213" lon="12.6398167"><ele>252.6</ele><time>2026-04-25T08:05:21.545Z</time></trkpt><trkpt lat="43.8250428" lon="12.6397307"><ele>253.2</ele><time>2026-04-25T08:05:22.546Z</time></trkpt><trkpt lat="43.8249751" lon="12.6396339"><ele>253.8</ele><time>2026-04-25T08:05:23.546Z</time></trkpt><trkpt lat="43.8249117" lon="12.6395293"><ele>254.4</ele><time>2026-04-25T08:05:24.546Z</time></trkpt><trkpt lat="43.824851" lon="12.639424"><ele>255.0</ele><time>2026-04-25T08:05:25.545Z</time></trkpt><trkpt lat="43.8247894" lon="12.6393142"><ele>258.2</ele><time>2026-04-25T08:05:26.545Z</time></trkpt><trkpt lat="43.8247322" lon="12.6391959"><ele>261.4</ele><time>2026-04-25T08:05:27.546Z</time></trkpt><trkpt lat="43.8246772" lon="12.6390744"><ele>264.6</ele><time>2026-04-25T08:05:28.546Z</time></trkpt><trkpt lat="43.8246229" lon="12.6389427"><ele>267.8</ele><time>2026-04-25T08:05:29.545Z</time></trkpt><trkpt lat="43.8245652" lon="12.6388046"><ele>271.0</ele><time>2026-04-25T08:05:30.546Z</time></trkpt><trkpt lat="43.824511" lon="12.6386723"><ele>273.40000000000003</ele><time>2026-04-25T08:05:31.546Z</time></trkpt><trkpt lat="43.8244701" lon="12.6385706"><ele>275.8</ele><time>2026-04-25T08:05:32.545Z</time></trkpt><trkpt lat="43.824448" lon="12.6384885"><ele>278.20000000000005</ele><time>2026-04-25T08:05:33.545Z</time></trkpt><trkpt lat="43.824452" lon="12.6382912"><ele>280.6</ele><time>2026-04-25T08:05:35.545Z</time></trkpt><trkpt lat="43.8244688" lon="12.63815"><ele>283.0</ele><time>2026-04-25T08:05:36.545Z</time></trkpt><trkpt lat="43.8244806" lon="12.6379795"><ele>283.0</ele><time>2026-04-25T08:05:37.545Z</time></trkpt><trkpt lat="43.824492" lon="12.637807"><ele>283.0</ele><time>2026-04-25T08:05:38.546Z</time></trkpt><trkpt lat="43.8245017" lon="12.6376447"><ele>283.0</ele><time>2026-04-25T08:05:39.546Z</time></trkpt><trkpt lat="43.8245043" lon="12.6374948"><ele>283.0</ele><time>2026-04-25T08:05:40.546Z</time></trkpt><trkpt lat="43.8244986" lon="12.6373431"><ele>283.5</ele><time>2026-04-25T08:05:41.544Z</time></trkpt><trkpt lat="43.824488" lon="12.637181"><ele>284.0</ele><time>2026-04-25T08:05:42.545Z</time></trkpt><trkpt lat="43.8244774" lon="12.6370166"><ele>284.5</ele><time>2026-04-25T08:05:43.545Z</time></trkpt><trkpt lat="43.8244611" lon="12.6368639"><ele>285.0</ele><time>2026-04-25T08:05:44.545Z</time></trkpt><trkpt lat="43.8244359" lon="12.6367135"><ele>283.0</ele><time>2026-04-25T08:05:45.545Z</time></trkpt><trkpt lat="43.8244004" lon="12.6365696"><ele>281.0</ele><time>2026-04-25T08:05:46.545Z</time></trkpt><trkpt lat="43.8243617" lon="12.6364401"><ele>279.0</ele><time>2026-04-25T08:05:47.545Z</time></trkpt><trkpt lat="43.8243226" lon="12.6363187"><ele>277.0</ele><time>2026-04-25T08:05:48.545Z</time></trkpt><trkpt lat="43.824282" lon="12.6362133"><ele>275.0</ele><time>2026-04-25T08:05:49.545Z</time></trkpt><trkpt lat="43.8242313" lon="12.6361158"><ele>275.0</ele><time>2026-04-25T08:05:50.545Z</time></trkpt><trkpt lat="43.8241731" lon="12.6360084"><ele>275.0</ele><time>2026-04-25T08:05:51.545Z</time></trkpt><trkpt lat="43.8241107" lon="12.6358875"><ele>275.0</ele><time>2026-04-25T08:05:52.544Z</time></trkpt><trkpt lat="43.8240366" lon="12.6357549"><ele>275.0</ele><time>2026-04-25T08:05:53.544Z</time></trkpt><trkpt lat="43.8239596" lon="12.6356151"><ele>275.0</ele><time>2026-04-25T08:05:54.544Z</time></trkpt><trkpt lat="43.8238785" lon="12.6354662"><ele>275.0</ele><time>2026-04-25T08:05:55.545Z</time></trkpt><trkpt lat="43.8237978" lon="12.6353134"><ele>275.0</ele><time>2026-04-25T08:05:56.544Z</time></trkpt><trkpt lat="43.8237241" lon="12.6351606"><ele>275.0</ele><time>2026-04-25T08:05:57.545Z</time></trkpt><trkpt lat="43.8236498" lon="12.634997"><ele>275.25</ele><time>2026-04-25T08:05:58.545Z</time></trkpt><trkpt lat="43.8235723" lon="12.6348241"><ele>275.5</ele><time>2026-04-25T08:05:59.545Z</time></trkpt><trkpt lat="43.8234914" lon="12.6346473"><ele>275.75</ele><time>2026-04-25T08:06:00.544Z</time></trkpt><trkpt lat="43.823413" lon="12.6344686"><ele>276.0</ele><time>2026-04-25T08:06:01.544Z</time></trkpt><trkpt lat="43.8233304" lon="12.6342969"><ele>276.0</ele><time>2026-04-25T08:06:02.545Z</time></trkpt><trkpt lat="43.8232461" lon="12.6341309"><ele>276.0</ele><time>2026-04-25T08:06:03.545Z</time></trkpt><trkpt lat="43.8231606" lon="12.6339581"><ele>276.0</ele><time>2026-04-25T08:06:04.545Z</time></trkpt><trkpt lat="43.8230726" lon="12.6337821"><ele>277.0</ele><time>2026-04-25T08:06:05.544Z</time></trkpt><trkpt lat="43.8229828" lon="12.6336107"><ele>278.0</ele><time>2026-04-25T08:06:06.545Z</time></trkpt><trkpt lat="43.8228957" lon="12.6334428"><ele>279.0</ele><time>2026-04-25T08:06:07.544Z</time></trkpt><trkpt lat="43.8228062" lon="12.63328"><ele>279.0</ele><time>2026-04-25T08:06:08.545Z</time></trkpt><trkpt lat="43.8227128" lon="12.6331197"><ele>279.0</ele><time>2026-04-25T08:06:09.545Z</time></trkpt><trkpt lat="43.8226223" lon="12.6329529"><ele>279.0</ele><time>2026-04-25T08:06:10.545Z</time></trkpt><trkpt lat="43.8225351" lon="12.6327832"><ele>279.75</ele><time>2026-04-25T08:06:11.544Z</time></trkpt><trkpt lat="43.8224483" lon="12.6326133"><ele>280.5</ele><time>2026-04-25T08:06:12.545Z</time></trkpt><trkpt lat="43.82236" lon="12.632445"><ele>281.25</ele><time>2026-04-25T08:06:13.544Z</time></trkpt><trkpt lat="43.82228" lon="12.6322883"><ele>282.0</ele><time>2026-04-25T08:06:14.545Z</time></trkpt><trkpt lat="43.822195" lon="12.6321267"><ele>281.75</ele><time>2026-04-25T08:06:15.544Z</time></trkpt><trkpt lat="43.822105" lon="12.6319683"><ele>281.5</ele><time>2026-04-25T08:06:16.545Z</time></trkpt><trkpt lat="43.8220217" lon="12.6318117"><ele>281.25</ele><time>2026-04-25T08:06:17.544Z</time></trkpt><trkpt lat="43.82194" lon="12.631655"><ele>281.0</ele><time>2026-04-25T08:06:18.544Z</time></trkpt><trkpt lat="43.82186" lon="12.6315"><ele>281.25</ele><time>2026-04-25T08:06:19.545Z</time></trkpt><trkpt lat="43.8217783" lon="12.63134"><ele>281.5</ele><time>2026-04-25T08:06:20.544Z</time></trkpt><trkpt lat="43.821695" lon="12.6311717"><ele>281.75</ele><time>2026-04-25T08:06:21.545Z</time></trkpt><trkpt lat="43.8216117" lon="12.631"><ele>282.0</ele><time>2026-04-25T08:06:22.545Z</time></trkpt><trkpt lat="43.8215267" lon="12.6308383"><ele>284.75</ele><time>2026-04-25T08:06:23.545Z</time></trkpt><trkpt lat="43.8214417" lon="12.6306717"><ele>287.5</ele><time>2026-04-25T08:06:24.545Z</time></trkpt><trkpt lat="43.82136" lon="12.6305083"><ele>290.25</ele><time>2026-04-25T08:06:25.544Z</time></trkpt><trkpt lat="43.8212833" lon="12.6303483"><ele>293.0</ele><time>2026-04-25T08:06:26.545Z</time></trkpt><trkpt lat="43.8212117" lon="12.6301867"><ele>293.0</ele><time>2026-04-25T08:06:27.545Z</time></trkpt><trkpt lat="43.82115" lon="12.6300183"><ele>293.0</ele><time>2026-04-25T08:06:28.544Z</time></trkpt><trkpt lat="43.8211083" lon="12.6298383"><ele>293.0</ele><time>2026-04-25T08:06:29.545Z</time></trkpt><trkpt lat="43.8210717" lon="12.6296533"><ele>293.0</ele><time>2026-04-25T08:06:30.545Z</time></trkpt><trkpt lat="43.8210483" lon="12.6294567"><ele>292.75</ele><time>2026-04-25T08:06:31.545Z</time></trkpt><trkpt lat="43.821035" lon="12.6292617"><ele>292.5</ele><time>2026-04-25T08:06:32.545Z</time></trkpt><trkpt lat="43.8210267" lon="12.6290683"><ele>292.25</ele><time>2026-04-25T08:06:33.545Z</time></trkpt><trkpt lat="43.82103" lon="12.628895"><ele>292.0</ele><time>2026-04-25T08:06:34.544Z</time></trkpt><trkpt lat="43.8210333" lon="12.6287083"><ele>292.5</ele><time>2026-04-25T08:06:35.544Z</time></trkpt><trkpt lat="43.8210333" lon="12.6285267"><ele>293.0</ele><time>2026-04-25T08:06:36.545Z</time></trkpt><trkpt lat="43.8210283" lon="12.6283483"><ele>293.5</ele><time>2026-04-25T08:06:37.545Z</time></trkpt><trkpt lat="43.821025" lon="12.6281783"><ele>294.0</ele><time>2026-04-25T08:06:38.545Z</time></trkpt><trkpt lat="43.8210167" lon="12.6280033"><ele>294.0</ele><time>2026-04-25T08:06:39.545Z</time></trkpt><trkpt lat="43.8209983" lon="12.6278133"><ele>294.0</ele><time>2026-04-25T08:06:40.544Z</time></trkpt><trkpt lat="43.82098" lon="12.6276217"><ele>294.0</ele><time>2026-04-25T08:06:41.545Z</time></trkpt><trkpt lat="43.82097" lon="12.6274417"><ele>294.0</ele><time>2026-04-25T08:06:42.545Z</time></trkpt><trkpt lat="43.8209767" lon="12.6272833"><ele>295.4</ele><time>2026-04-25T08:06:43.544Z</time></trkpt><trkpt lat="43.820995" lon="12.6271483"><ele>296.79999999999995</ele><time>2026-04-25T08:06:44.545Z</time></trkpt><trkpt lat="43.8210317" lon="12.6270133"><ele>298.20000000000005</ele><time>2026-04-25T08:06:45.544Z</time></trkpt><trkpt lat="43.8210783" lon="12.6268767"><ele>299.6</ele><time>2026-04-25T08:06:46.544Z</time></trkpt><trkpt lat="43.8211183" lon="12.626725"><ele>301.0</ele><time>2026-04-25T08:06:47.545Z</time></trkpt><trkpt lat="43.821145" lon="12.6265567"><ele>304.5</ele><time>2026-04-25T08:06:48.545Z</time></trkpt><trkpt lat="43.82116" lon="12.6263833"><ele>308.0</ele><time>2026-04-25T08:06:49.545Z</time></trkpt><trkpt lat="43.8211633" lon="12.6262083"><ele>311.5</ele><time>2026-04-25T08:06:50.545Z</time></trkpt><trkpt lat="43.8211667" lon="12.6260367"><ele>315.0</ele><time>2026-04-25T08:06:51.545Z</time></trkpt><trkpt lat="43.8211683" lon="12.6258783"><ele>316.6</ele><time>2026-04-25T08:06:52.545Z</time></trkpt><trkpt lat="43.8211717" lon="12.625735"><ele>318.2</ele><time>2026-04-25T08:06:53.545Z</time></trkpt><trkpt lat="43.8211717" lon="12.6256117"><ele>319.79999999999995</ele><time>2026-04-25T08:06:54.544Z</time></trkpt><trkpt lat="43.82116" lon="12.625515"><ele>321.4</ele><time>2026-04-25T08:06:55.545Z</time></trkpt><trkpt lat="43.8211167" lon="12.6253733"><ele>323.0</ele><time>2026-04-25T08:06:57.545Z</time></trkpt><trkpt lat="43.8210467" lon="12.62532"><ele>323.0</ele><time>2026-04-25T08:06:59.545Z</time></trkpt><trkpt lat="43.8209883" lon="12.6253567"><ele>323.0</ele><time>2026-04-25T08:07:01.545Z</time></trkpt><trkpt lat="43.820915" lon="12.6255417"><ele>323.0</ele><time>2026-04-25T08:07:03.545Z</time></trkpt><trkpt lat="43.8208567" lon="12.6256933"><ele>323.0</ele><time>2026-04-25T08:07:04.545Z</time></trkpt><trkpt lat="43.8207783" lon="12.6258833"><ele>322.33333333333337</ele><time>2026-04-25T08:07:05.545Z</time></trkpt><trkpt lat="43.8206883" lon="12.6260933"><ele>321.6666666666667</ele><time>2026-04-25T08:07:06.545Z</time></trkpt><trkpt lat="43.820595" lon="12.626295"><ele>321.0</ele><time>2026-04-25T08:07:07.545Z</time></trkpt><trkpt lat="43.82051" lon="12.626465"><ele>320.6666666666667</ele><time>2026-04-25T08:07:08.545Z</time></trkpt><trkpt lat="43.8204167" lon="12.6266233"><ele>320.33333333333337</ele><time>2026-04-25T08:07:09.545Z</time></trkpt><trkpt lat="43.8203083" lon="12.6267717"><ele>320.0</ele><time>2026-04-25T08:07:10.544Z</time></trkpt><trkpt lat="43.8201817" lon="12.62692"><ele>319.0</ele><time>2026-04-25T08:07:11.544Z</time></trkpt><trkpt lat="43.8200367" lon="12.6270733"><ele>318.0</ele><time>2026-04-25T08:07:12.545Z</time></trkpt><trkpt lat="43.819895" lon="12.627205"><ele>317.0</ele><time>2026-04-25T08:07:13.545Z</time></trkpt><trkpt lat="43.8197583" lon="12.6273317"><ele>317.0</ele><time>2026-04-25T08:07:14.545Z</time></trkpt><trkpt lat="43.8196233" lon="12.6274483"><ele>317.0</ele><time>2026-04-25T08:07:15.545Z</time></trkpt><trkpt lat="43.8195" lon="12.6275633"><ele>317.0</ele><time>2026-04-25T08:07:16.545Z</time></trkpt><trkpt lat="43.819385" lon="12.6276817"><ele>313.75</ele><time>2026-04-25T08:07:17.545Z</time></trkpt><trkpt lat="43.8192817" lon="12.6278"><ele>310.5</ele><time>2026-04-25T08:07:18.545Z</time></trkpt><trkpt lat="43.8191967" lon="12.6279267"><ele>307.25</ele><time>2026-04-25T08:07:19.545Z</time></trkpt><trkpt lat="43.819125" lon="12.6280717"><ele>304.0</ele><time>2026-04-25T08:07:20.545Z</time></trkpt><trkpt lat="43.8190617" lon="12.62825"><ele>304.0</ele><time>2026-04-25T08:07:21.544Z</time></trkpt><trkpt lat="43.8190067" lon="12.6284617"><ele>304.0</ele><time>2026-04-25T08:07:22.544Z</time></trkpt><trkpt lat="43.8189583" lon="12.6286767"><ele>304.0</ele><time>2026-04-25T08:07:23.545Z</time></trkpt><trkpt lat="43.8189117" lon="12.6288667"><ele>302.25</ele><time>2026-04-25T08:07:24.545Z</time></trkpt><trkpt lat="43.8188667" lon="12.6290333"><ele>300.5</ele><time>2026-04-25T08:07:25.545Z</time></trkpt><trkpt lat="43.8188133" lon="12.629175"><ele>298.75</ele><time>2026-04-25T08:07:26.545Z</time></trkpt><trkpt lat="43.8187467" lon="12.6293017"><ele>297.0</ele><time>2026-04-25T08:07:27.545Z</time></trkpt><trkpt lat="43.81865" lon="12.6293967"><ele>297.0</ele><time>2026-04-25T08:07:28.545Z</time></trkpt><trkpt lat="43.818525" lon="12.629475"><ele>297.0</ele><time>2026-04-25T08:07:29.545Z</time></trkpt><trkpt lat="43.8183717" lon="12.6295517"><ele>297.0</ele><time>2026-04-25T08:07:30.545Z</time></trkpt><trkpt lat="43.8181883" lon="12.62963"><ele>295.0</ele><time>2026-04-25T08:07:31.544Z</time></trkpt><trkpt lat="43.8179883" lon="12.6297067"><ele>293.0</ele><time>2026-04-25T08:07:32.544Z</time></trkpt><trkpt lat="43.8177717" lon="12.6297933"><ele>291.0</ele><time>2026-04-25T08:07:33.545Z</time></trkpt><trkpt lat="43.817545" lon="12.62988"><ele>291.0</ele><time>2026-04-25T08:07:34.545Z</time></trkpt><trkpt lat="43.8173217" lon="12.6299683"><ele>291.0</ele><time>2026-04-25T08:07:35.545Z</time></trkpt><trkpt lat="43.8171167" lon="12.6300433"><ele>291.0</ele><time>2026-04-25T08:07:36.545Z</time></trkpt><trkpt lat="43.81691" lon="12.63012"><ele>290.0</ele><time>2026-04-25T08:07:37.545Z</time></trkpt><trkpt lat="43.8166967" lon="12.630195"><ele>289.0</ele><time>2026-04-25T08:07:38.545Z</time></trkpt><trkpt lat="43.8164733" lon="12.630285"><ele>286.3333333333333</ele><time>2026-04-25T08:07:39.545Z</time></trkpt><trkpt lat="43.8162633" lon="12.6303783"><ele>283.6666666666667</ele><time>2026-04-25T08:07:40.544Z</time></trkpt><trkpt lat="43.8160567" lon="12.6304633"><ele>281.0</ele><time>2026-04-25T08:07:41.545Z</time></trkpt><trkpt lat="43.815845" lon="12.630555"><ele>281.0</ele><time>2026-04-25T08:07:42.545Z</time></trkpt><trkpt lat="43.8156467" lon="12.630635"><ele>281.0</ele><time>2026-04-25T08:07:43.545Z</time></trkpt><trkpt lat="43.8154633" lon="12.630705"><ele>281.0</ele><time>2026-04-25T08:07:44.545Z</time></trkpt><trkpt lat="43.8152983" lon="12.6307917"><ele>278.6666666666667</ele><time>2026-04-25T08:07:45.545Z</time></trkpt><trkpt lat="43.8151267" lon="12.630905"><ele>276.3333333333333</ele><time>2026-04-25T08:07:46.545Z</time></trkpt><trkpt lat="43.8149567" lon="12.631045"><ele>274.0</ele><time>2026-04-25T08:07:47.545Z</time></trkpt><trkpt lat="43.81479" lon="12.6311933"><ele>274.0</ele><time>2026-04-25T08:07:48.545Z</time></trkpt><trkpt lat="43.8146533" lon="12.6313183"><ele>274.0</ele><time>2026-04-25T08:07:49.545Z</time></trkpt><trkpt lat="43.8145383" lon="12.6313983"><ele>274.0</ele><time>2026-04-25T08:07:50.545Z</time></trkpt><trkpt lat="43.8144367" lon="12.631435"><ele>274.0</ele><time>2026-04-25T08:07:51.545Z</time></trkpt><trkpt lat="43.8143383" lon="12.6314183"><ele>278.4</ele><time>2026-04-25T08:07:52.545Z</time></trkpt><trkpt lat="43.8142533" lon="12.631355"><ele>282.79999999999995</ele><time>2026-04-25T08:07:53.545Z</time></trkpt><trkpt lat="43.8141767" lon="12.631255"><ele>287.20000000000005</ele><time>2026-04-25T08:07:54.544Z</time></trkpt><trkpt lat="43.8141217" lon="12.63112"><ele>291.6</ele><time>2026-04-25T08:07:55.545Z</time></trkpt><trkpt lat="43.8140817" lon="12.630995"><ele>296.0</ele><time>2026-04-25T08:07:56.545Z</time></trkpt><trkpt lat="43.8140417" lon="12.63092"><ele>296.0</ele><time>2026-04-25T08:07:57.545Z</time></trkpt><trkpt lat="43.81394" lon="12.6309"><ele>296.0</ele><time>2026-04-25T08:07:59.545Z</time></trkpt><trkpt lat="43.813885" lon="12.630955"><ele>296.0</ele><time>2026-04-25T08:08:00.545Z</time></trkpt><trkpt lat="43.8138167" lon="12.63107"><ele>296.0</ele><time>2026-04-25T08:08:01.545Z</time></trkpt><trkpt lat="43.8137283" lon="12.6312217"><ele>296.0</ele><time>2026-04-25T08:08:02.544Z</time></trkpt><trkpt lat="43.8136283" lon="12.63137"><ele>296.0</ele><time>2026-04-25T08:08:03.545Z</time></trkpt><trkpt lat="43.81352" lon="12.6315"><ele>296.0</ele><time>2026-04-25T08:08:04.545Z</time></trkpt><trkpt lat="43.8133867" lon="12.6315867"><ele>296.0</ele><time>2026-04-25T08:08:05.545Z</time></trkpt><trkpt lat="43.8132167" lon="12.6316633"><ele>303.0</ele><time>2026-04-25T08:08:06.545Z</time></trkpt><trkpt lat="43.8130183" lon="12.63174"><ele>310.0</ele><time>2026-04-25T08:08:07.545Z</time></trkpt><trkpt lat="43.8128133" lon="12.6318083"><ele>317.0</ele><time>2026-04-25T08:08:08.545Z</time></trkpt><trkpt lat="43.81262" lon="12.6318733"><ele>312.33333333333337</ele><time>2026-04-25T08:08:09.545Z</time></trkpt><trkpt lat="43.8124533" lon="12.631935"><ele>307.6666666666667</ele><time>2026-04-25T08:08:10.545Z</time></trkpt><trkpt lat="43.8122917" lon="12.63199"><ele>303.0</ele><time>2026-04-25T08:08:11.544Z</time></trkpt><trkpt lat="43.8121433" lon="12.63204"><ele>303.0</ele><time>2026-04-25T08:08:12.544Z</time></trkpt><trkpt lat="43.81199" lon="12.6320667"><ele>303.0</ele><time>2026-04-25T08:08:13.545Z</time></trkpt><trkpt lat="43.8118383" lon="12.6320733"><ele>303.0</ele><time>2026-04-25T08:08:14.545Z</time></trkpt><trkpt lat="43.811705" lon="12.63207"><ele>303.0</ele><time>2026-04-25T08:08:15.545Z</time></trkpt><trkpt lat="43.811585" lon="12.63207"><ele>307.6</ele><time>2026-04-25T08:08:16.544Z</time></trkpt><trkpt lat="43.811485" lon="12.632075"><ele>312.20000000000005</ele><time>2026-04-25T08:08:17.545Z</time></trkpt><trkpt lat="43.8114083" lon="12.6320783"><ele>316.8</ele><time>2026-04-25T08:08:18.545Z</time></trkpt><trkpt lat="43.8112983" lon="12.6320717"><ele>321.40000000000003</ele><time>2026-04-25T08:08:20.544Z</time></trkpt><trkpt lat="43.8111883" lon="12.6320317"><ele>326.0</ele><time>2026-04-25T08:08:22.544Z</time></trkpt><trkpt lat="43.8110583" lon="12.632065"><ele>327.5</ele><time>2026-04-25T08:08:24.545Z</time></trkpt><trkpt lat="43.8109617" lon="12.6320967"><ele>329.0</ele><time>2026-04-25T08:08:25.545Z</time></trkpt><trkpt lat="43.8108633" lon="12.6321283"><ele>330.5</ele><time>2026-04-25T08:08:26.545Z</time></trkpt><trkpt lat="43.810785" lon="12.63217"><ele>332.0</ele><time>2026-04-25T08:08:27.545Z</time></trkpt><trkpt lat="43.8107183" lon="12.6321933"><ele>333.5</ele><time>2026-04-25T08:08:28.545Z</time></trkpt><trkpt lat="43.8106283" lon="12.632165"><ele>335.0</ele><time>2026-04-25T08:08:30.545Z</time></trkpt><trkpt lat="43.81059" lon="12.6320117"><ele>333.8</ele><time>2026-04-25T08:08:32.544Z</time></trkpt><trkpt lat="43.81061" lon="12.6319117"><ele>332.6</ele><time>2026-04-25T08:08:33.544Z</time></trkpt><trkpt lat="43.81065" lon="12.631795"><ele>331.4</ele><time>2026-04-25T08:08:34.545Z</time></trkpt><trkpt lat="43.8107183" lon="12.6316717"><ele>330.2</ele><time>2026-04-25T08:08:35.545Z</time></trkpt><trkpt lat="43.8107967" lon="12.631535"><ele>329.0</ele><time>2026-04-25T08:08:36.544Z</time></trkpt><trkpt lat="43.810875" lon="12.6313917"><ele>329.0</ele><time>2026-04-25T08:08:37.545Z</time></trkpt><trkpt lat="43.8109483" lon="12.6312533"><ele>329.0</ele><time>2026-04-25T08:08:38.544Z</time></trkpt><trkpt lat="43.8110283" lon="12.6311217"><ele>329.0</ele><time>2026-04-25T08:08:39.544Z</time></trkpt><trkpt lat="43.8111033" lon="12.63099"><ele>329.0</ele><time>2026-04-25T08:08:40.545Z</time></trkpt><trkpt lat="43.8111733" lon="12.6308583"><ele>330.25</ele><time>2026-04-25T08:08:41.545Z</time></trkpt><trkpt lat="43.8112383" lon="12.6307233"><ele>331.5</ele><time>2026-04-25T08:08:42.545Z</time></trkpt><trkpt lat="43.811305" lon="12.6305833"><ele>332.75</ele><time>2026-04-25T08:08:43.544Z</time></trkpt><trkpt lat="43.8113767" lon="12.63043"><ele>334.0</ele><time>2026-04-25T08:08:44.545Z</time></trkpt><trkpt lat="43.81145" lon="12.6302567"><ele>330.75</ele><time>2026-04-25T08:08:45.545Z</time></trkpt><trkpt lat="43.8115183" lon="12.63008"><ele>327.5</ele><time>2026-04-25T08:08:46.545Z</time></trkpt><trkpt lat="43.8115883" lon="12.6299083"><ele>324.25</ele><time>2026-04-25T08:08:47.545Z</time></trkpt><trkpt lat="43.811655" lon="12.6297433"><ele>321.0</ele><time>2026-04-25T08:08:48.545Z</time></trkpt><trkpt lat="43.8117167" lon="12.6295717"><ele>320.25</ele><time>2026-04-25T08:08:49.545Z</time></trkpt><trkpt lat="43.8117683" lon="12.62941"><ele>319.5</ele><time>2026-04-25T08:08:50.544Z</time></trkpt><trkpt lat="43.8118217" lon="12.6292517"><ele>318.75</ele><time>2026-04-25T08:08:51.545Z</time></trkpt><trkpt lat="43.8118733" lon="12.6290867"><ele>318.0</ele><time>2026-04-25T08:08:52.545Z</time></trkpt><trkpt lat="43.811925" lon="12.6289117"><ele>318.0</ele><time>2026-04-25T08:08:53.545Z</time></trkpt><trkpt lat="43.8119783" lon="12.6287217"><ele>318.0</ele><time>2026-04-25T08:08:54.545Z</time></trkpt><trkpt lat="43.81203" lon="12.6285233"><ele>318.0</ele><time>2026-04-25T08:08:55.545Z</time></trkpt><trkpt lat="43.8120833" lon="12.6283183"><ele>315.75</ele><time>2026-04-25T08:08:56.544Z</time></trkpt><trkpt lat="43.8121483" lon="12.6281333"><ele>313.5</ele><time>2026-04-25T08:08:57.545Z</time></trkpt><trkpt lat="43.8122083" lon="12.62796"><ele>311.25</ele><time>2026-04-25T08:08:58.545Z</time></trkpt><trkpt lat="43.8122717" lon="12.6277967"><ele>309.0</ele><time>2026-04-25T08:08:59.545Z</time></trkpt><trkpt lat="43.812345" lon="12.6276417"><ele>307.2</ele><time>2026-04-25T08:09:00.545Z</time></trkpt><trkpt lat="43.8124183" lon="12.6275033"><ele>305.4</ele><time>2026-04-25T08:09:01.545Z</time></trkpt><trkpt lat="43.812495" lon="12.6273867"><ele>303.6</ele><time>2026-04-25T08:09:02.545Z</time></trkpt><trkpt lat="43.81257" lon="12.6273017"><ele>301.8</ele><time>2026-04-25T08:09:03.544Z</time></trkpt><trkpt lat="43.8126333" lon="12.6272383"><ele>300.0</ele><time>2026-04-25T08:09:04.545Z</time></trkpt><trkpt lat="43.8126767" lon="12.6271733"><ele>300.0</ele><time>2026-04-25T08:09:05.544Z</time></trkpt><trkpt lat="43.8126567" lon="12.6270567"><ele>300.0</ele><time>2026-04-25T08:09:07.545Z</time></trkpt><trkpt lat="43.8125867" lon="12.6270183"><ele>300.0</ele><time>2026-04-25T08:09:08.545Z</time></trkpt><trkpt lat="43.8124917" lon="12.627005"><ele>300.0</ele><time>2026-04-25T08:09:09.545Z</time></trkpt><trkpt lat="43.8123583" lon="12.62704"><ele>300.0</ele><time>2026-04-25T08:09:10.545Z</time></trkpt><trkpt lat="43.8122133" lon="12.62709"><ele>300.0</ele><time>2026-04-25T08:09:11.545Z</time></trkpt><trkpt lat="43.8120733" lon="12.6271083"><ele>300.0</ele><time>2026-04-25T08:09:12.545Z</time></trkpt><trkpt lat="43.8119433" lon="12.6270883"><ele>300.0</ele><time>2026-04-25T08:09:13.544Z</time></trkpt><trkpt lat="43.8118083" lon="12.6270283"><ele>300.0</ele><time>2026-04-25T08:09:14.545Z</time></trkpt><trkpt lat="43.8116833" lon="12.6269367"><ele>295.0</ele><time>2026-04-25T08:09:15.545Z</time></trkpt><trkpt lat="43.8115717" lon="12.6268333"><ele>290.0</ele><time>2026-04-25T08:09:16.545Z</time></trkpt><trkpt lat="43.8114783" lon="12.6267167"><ele>285.0</ele><time>2026-04-25T08:09:17.545Z</time></trkpt><trkpt lat="43.811405" lon="12.6265917"><ele>280.0</ele><time>2026-04-25T08:09:18.545Z</time></trkpt><trkpt lat="43.8113583" lon="12.6264567"><ele>280.0</ele><time>2026-04-25T08:09:19.545Z</time></trkpt><trkpt lat="43.8113433" lon="12.62631"><ele>280.0</ele><time>2026-04-25T08:09:20.545Z</time></trkpt><trkpt lat="43.8113517" lon="12.626135"><ele>280.0</ele><time>2026-04-25T08:09:21.545Z</time></trkpt><trkpt lat="43.8113683" lon="12.62596"><ele>280.0</ele><time>2026-04-25T08:09:22.545Z</time></trkpt><trkpt lat="43.81137" lon="12.6257883"><ele>278.5</ele><time>2026-04-25T08:09:23.545Z</time></trkpt><trkpt lat="43.8113567" lon="12.6256083"><ele>277.0</ele><time>2026-04-25T08:09:24.545Z</time></trkpt><trkpt lat="43.8113217" lon="12.62542"><ele>275.5</ele><time>2026-04-25T08:09:25.545Z</time></trkpt><trkpt lat="43.811265" lon="12.6252233"><ele>274.0</ele><time>2026-04-25T08:09:26.545Z</time></trkpt><trkpt lat="43.8112067" lon="12.6250283"><ele>272.25</ele><time>2026-04-25T08:09:27.545Z</time></trkpt><trkpt lat="43.81115" lon="12.624835"><ele>270.5</ele><time>2026-04-25T08:09:28.545Z</time></trkpt><trkpt lat="43.8111083" lon="12.62465"><ele>268.75</ele><time>2026-04-25T08:09:29.545Z</time></trkpt><trkpt lat="43.811075" lon="12.6244833"><ele>267.0</ele><time>2026-04-25T08:09:30.545Z</time></trkpt><trkpt lat="43.81103" lon="12.6243233"><ele>267.0</ele><time>2026-04-25T08:09:31.545Z</time></trkpt><trkpt lat="43.8109583" lon="12.6241817"><ele>267.0</ele><time>2026-04-25T08:09:32.545Z</time></trkpt><trkpt lat="43.8108633" lon="12.6240517"><ele>267.0</ele><time>2026-04-25T08:09:33.544Z</time></trkpt><trkpt lat="43.8107417" lon="12.6239233"><ele>267.0</ele><time>2026-04-25T08:09:34.545Z</time></trkpt><trkpt lat="43.8106167" lon="12.6237867"><ele>264.3333333333333</ele><time>2026-04-25T08:09:35.545Z</time></trkpt><trkpt lat="43.8104983" lon="12.6236367"><ele>261.66666666666663</ele><time>2026-04-25T08:09:36.545Z</time></trkpt><trkpt lat="43.8103867" lon="12.6234583"><ele>259.0</ele><time>2026-04-25T08:09:37.545Z</time></trkpt><trkpt lat="43.8102767" lon="12.6232783"><ele>259.0</ele><time>2026-04-25T08:09:38.545Z</time></trkpt><trkpt lat="43.8101733" lon="12.6231"><ele>259.0</ele><time>2026-04-25T08:09:39.544Z</time></trkpt><trkpt lat="43.8100767" lon="12.6229217"><ele>259.0</ele><time>2026-04-25T08:09:40.545Z</time></trkpt><trkpt lat="43.80999" lon="12.6227383"><ele>257.3333333333333</ele><time>2026-04-25T08:09:41.545Z</time></trkpt><trkpt lat="43.8099083" lon="12.62255"><ele>255.66666666666669</ele><time>2026-04-25T08:09:42.545Z</time></trkpt><trkpt lat="43.8098283" lon="12.622365"><ele>254.0</ele><time>2026-04-25T08:09:43.545Z</time></trkpt><trkpt lat="43.80975" lon="12.6221767"><ele>254.0</ele><time>2026-04-25T08:09:44.544Z</time></trkpt><trkpt lat="43.80967" lon="12.6219883"><ele>254.0</ele><time>2026-04-25T08:09:45.544Z</time></trkpt><trkpt lat="43.80959" lon="12.6218117"><ele>254.0</ele><time>2026-04-25T08:09:46.544Z</time></trkpt><trkpt lat="43.8094967" lon="12.621645"><ele>251.33333333333334</ele><time>2026-04-25T08:09:47.545Z</time></trkpt><trkpt lat="43.8093883" lon="12.6214817"><ele>248.66666666666669</ele><time>2026-04-25T08:09:48.544Z</time></trkpt><trkpt lat="43.8092733" lon="12.6213233"><ele>246.0</ele><time>2026-04-25T08:09:49.545Z</time></trkpt><trkpt lat="43.8091583" lon="12.621175"><ele>244.25</ele><time>2026-04-25T08:09:50.545Z</time></trkpt><trkpt lat="43.80905" lon="12.6210383"><ele>242.5</ele><time>2026-04-25T08:09:51.545Z</time></trkpt><trkpt lat="43.8089533" lon="12.62092"><ele>240.75</ele><time>2026-04-25T08:09:52.544Z</time></trkpt><trkpt lat="43.8088617" lon="12.6208233"><ele>239.0</ele><time>2026-04-25T08:09:53.545Z</time></trkpt><trkpt lat="43.80876" lon="12.6207533"><ele>239.0</ele><time>2026-04-25T08:09:54.545Z</time></trkpt><trkpt lat="43.80864" lon="12.6207167"><ele>239.0</ele><time>2026-04-25T08:09:55.544Z</time></trkpt><trkpt lat="43.80851" lon="12.6207117"><ele>239.0</ele><time>2026-04-25T08:09:56.545Z</time></trkpt><trkpt lat="43.8083917" lon="12.6207117"><ele>239.0</ele><time>2026-04-25T08:09:57.544Z</time></trkpt><trkpt lat="43.8082917" lon="12.6206883"><ele>236.66666666666669</ele><time>2026-04-25T08:09:58.545Z</time></trkpt><trkpt lat="43.808205" lon="12.62063"><ele>234.33333333333334</ele><time>2026-04-25T08:09:59.545Z</time></trkpt><trkpt lat="43.80813" lon="12.6205467"><ele>232.0</ele><time>2026-04-25T08:10:00.544Z</time></trkpt><trkpt lat="43.80809" lon="12.6204317"><ele>229.66666666666669</ele><time>2026-04-25T08:10:01.545Z</time></trkpt><trkpt lat="43.8080717" lon="12.6203283"><ele>227.33333333333334</ele><time>2026-04-25T08:10:02.545Z</time></trkpt><trkpt lat="43.8080983" lon="12.6202267"><ele>225.0</ele><time>2026-04-25T08:10:03.544Z</time></trkpt><trkpt lat="43.8081867" lon="12.6201433"><ele>225.5</ele><time>2026-04-25T08:10:04.545Z</time></trkpt><trkpt lat="43.8083017" lon="12.6200467"><ele>226.0</ele><time>2026-04-25T08:10:05.545Z</time></trkpt><trkpt lat="43.808425" lon="12.6199617"><ele>226.5</ele><time>2026-04-25T08:10:06.545Z</time></trkpt><trkpt lat="43.80854" lon="12.6198783"><ele>227.0</ele><time>2026-04-25T08:10:07.545Z</time></trkpt><trkpt lat="43.8086367" lon="12.6197917"><ele>227.0</ele><time>2026-04-25T08:10:08.545Z</time></trkpt><trkpt lat="43.8087217" lon="12.61967"><ele>227.0</ele><time>2026-04-25T08:10:09.545Z</time></trkpt><trkpt lat="43.8088" lon="12.6195033"><ele>227.0</ele><time>2026-04-25T08:10:10.545Z</time></trkpt><trkpt lat="43.8088667" lon="12.6193367"><ele>227.0</ele><time>2026-04-25T08:10:11.545Z</time></trkpt><trkpt lat="43.8089217" lon="12.619195"><ele>224.83333333333334</ele><time>2026-04-25T08:10:12.544Z</time></trkpt><trkpt lat="43.8089717" lon="12.61909"><ele>222.66666666666669</ele><time>2026-04-25T08:10:13.545Z</time></trkpt><trkpt lat="43.8090017" lon="12.6189983"><ele>220.5</ele><time>2026-04-25T08:10:14.545Z</time></trkpt><trkpt lat="43.8089633" lon="12.6188667"><ele>218.33333333333331</ele><time>2026-04-25T08:10:16.545Z</time></trkpt><trkpt lat="43.8088967" lon="12.618845"><ele>216.16666666666666</ele><time>2026-04-25T08:10:17.544Z</time></trkpt><trkpt lat="43.8088217" lon="12.6188483"><ele>214.0</ele><time>2026-04-25T08:10:18.545Z</time></trkpt><trkpt lat="43.80875" lon="12.6188417"><ele>214.0</ele><time>2026-04-25T08:10:19.545Z</time></trkpt><trkpt lat="43.808665" lon="12.61871"><ele>213.99999999999997</ele><time>2026-04-25T08:10:21.545Z</time></trkpt><trkpt lat="43.80867" lon="12.6185933"><ele>213.99999999999997</ele><time>2026-04-25T08:10:22.545Z</time></trkpt><trkpt lat="43.808695" lon="12.6184883"><ele>214.0</ele><time>2026-04-25T08:10:23.545Z</time></trkpt><trkpt lat="43.8087467" lon="12.6184067"><ele>214.0</ele><time>2026-04-25T08:10:24.545Z</time></trkpt><trkpt lat="43.8088183" lon="12.6183467"><ele>211.6</ele><time>2026-04-25T08:10:25.544Z</time></trkpt><trkpt lat="43.8089067" lon="12.6183117"><ele>209.2</ele><time>2026-04-25T08:10:26.545Z</time></trkpt><trkpt lat="43.80902" lon="12.618335"><ele>206.79999999999998</ele><time>2026-04-25T08:10:27.545Z</time></trkpt><trkpt lat="43.8091367" lon="12.61837"><ele>204.39999999999998</ele><time>2026-04-25T08:10:28.544Z</time></trkpt><trkpt lat="43.8092367" lon="12.6183967"><ele>202.0</ele><time>2026-04-25T08:10:29.544Z</time></trkpt><trkpt lat="43.8093283" lon="12.6184117"><ele>200.16666666666666</ele><time>2026-04-25T08:10:30.545Z</time></trkpt><trkpt lat="43.8094167" lon="12.6183867"><ele>198.33333333333331</ele><time>2026-04-25T08:10:31.545Z</time></trkpt><trkpt lat="43.8094883" lon="12.618325"><ele>196.5</ele><time>2026-04-25T08:10:32.544Z</time></trkpt><trkpt lat="43.8095417" lon="12.618235"><ele>194.66666666666666</ele><time>2026-04-25T08:10:33.544Z</time></trkpt><trkpt lat="43.809565" lon="12.6181333"><ele>192.83333333333331</ele><time>2026-04-25T08:10:34.545Z</time></trkpt><trkpt lat="43.80955" lon="12.61801"><ele>191.0</ele><time>2026-04-25T08:10:35.545Z</time></trkpt><trkpt lat="43.8094983" lon="12.6178733"><ele>191.25</ele><time>2026-04-25T08:10:36.545Z</time></trkpt><trkpt lat="43.8094183" lon="12.6177667"><ele>191.5</ele><time>2026-04-25T08:10:37.545Z</time></trkpt><trkpt lat="43.8093267" lon="12.6177067"><ele>191.75</ele><time>2026-04-25T08:10:38.545Z</time></trkpt><trkpt lat="43.8092133" lon="12.6176883"><ele>192.0</ele><time>2026-04-25T08:10:39.545Z</time></trkpt><trkpt lat="43.8090667" lon="12.6176817"><ele>192.0</ele><time>2026-04-25T08:10:40.545Z</time></trkpt><trkpt lat="43.80891" lon="12.6176867"><ele>192.0</ele><time>2026-04-25T08:10:41.545Z</time></trkpt><trkpt lat="43.808755" lon="12.6177017"><ele>192.0</ele><time>2026-04-25T08:10:42.544Z</time></trkpt><trkpt lat="43.8086171" lon="12.6177171"><ele>192.5</ele><time>2026-04-25T08:10:43.545Z</time></trkpt><trkpt lat="43.8084907" lon="12.6177604"><ele>193.0</ele><time>2026-04-25T08:10:44.545Z</time></trkpt><trkpt lat="43.8083696" lon="12.617842"><ele>193.5</ele><time>2026-04-25T08:10:45.544Z</time></trkpt><trkpt lat="43.8082499" lon="12.6179453"><ele>194.0</ele><time>2026-04-25T08:10:46.545Z</time></trkpt><trkpt lat="43.8081329" lon="12.6180466"><ele>194.0</ele><time>2026-04-25T08:10:47.545Z</time></trkpt><trkpt lat="43.8080087" lon="12.6181265"><ele>194.0</ele><time>2026-04-25T08:10:48.545Z</time></trkpt><trkpt lat="43.8078702" lon="12.6181675"><ele>194.0</ele><time>2026-04-25T08:10:49.545Z</time></trkpt><trkpt lat="43.8077199" lon="12.6181835"><ele>194.0</ele><time>2026-04-25T08:10:50.544Z</time></trkpt><trkpt lat="43.8075687" lon="12.6182078"><ele>188.66666666666669</ele><time>2026-04-25T08:10:51.545Z</time></trkpt><trkpt lat="43.8074172" lon="12.6182567"><ele>183.33333333333334</ele><time>2026-04-25T08:10:52.544Z</time></trkpt><trkpt lat="43.8072596" lon="12.6183319"><ele>178.0</ele><time>2026-04-25T08:10:53.545Z</time></trkpt><trkpt lat="43.8070955" lon="12.6184294"><ele>178.0</ele><time>2026-04-25T08:10:54.545Z</time></trkpt><trkpt lat="43.8069373" lon="12.6185404"><ele>178.0</ele><time>2026-04-25T08:10:55.545Z</time></trkpt><trkpt lat="43.8067853" lon="12.6186478"><ele>178.0</ele><time>2026-04-25T08:10:56.545Z</time></trkpt><trkpt lat="43.8066399" lon="12.6187526"><ele>176.66666666666669</ele><time>2026-04-25T08:10:57.545Z</time></trkpt><trkpt lat="43.806503" lon="12.6188536"><ele>175.33333333333334</ele><time>2026-04-25T08:10:58.544Z</time></trkpt><trkpt lat="43.8063735" lon="12.6189656"><ele>174.0</ele><time>2026-04-25T08:10:59.545Z</time></trkpt><trkpt lat="43.8062463" lon="12.6190847"><ele>174.0</ele><time>2026-04-25T08:11:00.544Z</time></trkpt><trkpt lat="43.8061225" lon="12.619203"><ele>174.0</ele><time>2026-04-25T08:11:01.545Z</time></trkpt><trkpt lat="43.8060064" lon="12.6193162"><ele>174.0</ele><time>2026-04-25T08:11:02.545Z</time></trkpt><trkpt lat="43.8058891" lon="12.6194298"><ele>174.0</ele><time>2026-04-25T08:11:03.545Z</time></trkpt><trkpt lat="43.8057814" lon="12.6195324"><ele>170.75</ele><time>2026-04-25T08:11:04.544Z</time></trkpt><trkpt lat="43.8056777" lon="12.6196179"><ele>167.5</ele><time>2026-04-25T08:11:05.545Z</time></trkpt><trkpt lat="43.8055667" lon="12.6196734"><ele>164.25</ele><time>2026-04-25T08:11:06.544Z</time></trkpt><trkpt lat="43.8054397" lon="12.6196856"><ele>161.0</ele><time>2026-04-25T08:11:07.545Z</time></trkpt><trkpt lat="43.8052834" lon="12.6196616"><ele>156.66666666666666</ele><time>2026-04-25T08:11:08.544Z</time></trkpt><trkpt lat="43.8051202" lon="12.6196178"><ele>152.33333333333334</ele><time>2026-04-25T08:11:09.545Z</time></trkpt><trkpt lat="43.8049659" lon="12.6195697"><ele>148.0</ele><time>2026-04-25T08:11:10.544Z</time></trkpt><trkpt lat="43.8048173" lon="12.6195205"><ele>148.25</ele><time>2026-04-25T08:11:11.545Z</time></trkpt><trkpt lat="43.8046813" lon="12.6194668"><ele>148.5</ele><time>2026-04-25T08:11:12.545Z</time></trkpt><trkpt lat="43.8045622" lon="12.6194144"><ele>148.75</ele><time>2026-04-25T08:11:13.545Z</time></trkpt><trkpt lat="43.8044625" lon="12.6193508"><ele>149.0</ele><time>2026-04-25T08:11:14.544Z</time></trkpt><trkpt lat="43.8043815" lon="12.6192739"><ele>149.0</ele><time>2026-04-25T08:11:15.545Z</time></trkpt><trkpt lat="43.8043333" lon="12.61917"><ele>149.0</ele><time>2026-04-25T08:11:16.545Z</time></trkpt><trkpt lat="43.8043067" lon="12.6190733"><ele>149.0</ele><time>2026-04-25T08:11:17.545Z</time></trkpt><trkpt lat="43.8043167" lon="12.6189633"><ele>149.0</ele><time>2026-04-25T08:11:18.544Z</time></trkpt><trkpt lat="43.8043583" lon="12.6188483"><ele>149.0</ele><time>2026-04-25T08:11:19.544Z</time></trkpt><trkpt lat="43.8044367" lon="12.6187117"><ele>148.5</ele><time>2026-04-25T08:11:20.545Z</time></trkpt><trkpt lat="43.8045383" lon="12.6185467"><ele>148.0</ele><time>2026-04-25T08:11:21.545Z</time></trkpt><trkpt lat="43.8046317" lon="12.6183933"><ele>147.5</ele><time>2026-04-25T08:11:22.545Z</time></trkpt><trkpt lat="43.8047117" lon="12.6182517"><ele>147.0</ele><time>2026-04-25T08:11:23.544Z</time></trkpt><trkpt lat="43.80477" lon="12.6181083"><ele>147.0</ele><time>2026-04-25T08:11:24.545Z</time></trkpt><trkpt lat="43.8047983" lon="12.6179583"><ele>147.0</ele><time>2026-04-25T08:11:25.545Z</time></trkpt><trkpt lat="43.804795" lon="12.6177933"><ele>147.0</ele><time>2026-04-25T08:11:26.545Z</time></trkpt><trkpt lat="43.80477" lon="12.6176"><ele>147.0</ele><time>2026-04-25T08:11:27.545Z</time></trkpt><trkpt lat="43.8047317" lon="12.6173817"><ele>146.25</ele><time>2026-04-25T08:11:28.544Z</time></trkpt><trkpt lat="43.8047083" lon="12.6171667"><ele>145.5</ele><time>2026-04-25T08:11:29.545Z</time></trkpt><trkpt lat="43.8046883" lon="12.6169567"><ele>144.75</ele><time>2026-04-25T08:11:30.545Z</time></trkpt><trkpt lat="43.8046683" lon="12.6167717"><ele>144.0</ele><time>2026-04-25T08:11:31.545Z</time></trkpt><trkpt lat="43.8046567" lon="12.616595"><ele>143.2</ele><time>2026-04-25T08:11:32.545Z</time></trkpt><trkpt lat="43.8046483" lon="12.6164333"><ele>142.4</ele><time>2026-04-25T08:11:33.545Z</time></trkpt><trkpt lat="43.8046233" lon="12.61629"><ele>141.6</ele><time>2026-04-25T08:11:34.545Z</time></trkpt><trkpt lat="43.8045733" lon="12.6161667"><ele>140.8</ele><time>2026-04-25T08:11:35.544Z</time></trkpt><trkpt lat="43.804505" lon="12.6160767"><ele>140.0</ele><time>2026-04-25T08:11:36.545Z</time></trkpt><trkpt lat="43.8044233" lon="12.6160217"><ele>139.25</ele><time>2026-04-25T08:11:37.545Z</time></trkpt><trkpt lat="43.804335" lon="12.616015"><ele>138.5</ele><time>2026-04-25T08:11:38.544Z</time></trkpt><trkpt lat="43.8042417" lon="12.61606"><ele>137.75</ele><time>2026-04-25T08:11:39.545Z</time></trkpt><trkpt lat="43.80412" lon="12.61615"><ele>137.0</ele><time>2026-04-25T08:11:40.545Z</time></trkpt><trkpt lat="43.8039817" lon="12.6162817"><ele>137.0</ele><time>2026-04-25T08:11:41.545Z</time></trkpt><trkpt lat="43.8038433" lon="12.6164067"><ele>137.0</ele><time>2026-04-25T08:11:42.545Z</time></trkpt><trkpt lat="43.803715" lon="12.61651"><ele>137.0</ele><time>2026-04-25T08:11:43.544Z</time></trkpt><trkpt lat="43.8036" lon="12.616585"><ele>137.0</ele><time>2026-04-25T08:11:44.545Z</time></trkpt><trkpt lat="43.8034967" lon="12.616645"><ele>135.79999999999998</ele><time>2026-04-25T08:11:45.545Z</time></trkpt><trkpt lat="43.8034083" lon="12.61669"><ele>134.6</ele><time>2026-04-25T08:11:46.545Z</time></trkpt><trkpt lat="43.8033133" lon="12.6167433"><ele>133.39999999999998</ele><time>2026-04-25T08:11:47.544Z</time></trkpt><trkpt lat="43.803205" lon="12.6167717"><ele>132.2</ele><time>2026-04-25T08:11:48.545Z</time></trkpt><trkpt lat="43.80308" lon="12.6168083"><ele>131.0</ele><time>2026-04-25T08:11:49.545Z</time></trkpt><trkpt lat="43.8029483" lon="12.6168667"><ele>131.0</ele><time>2026-04-25T08:11:50.545Z</time></trkpt><trkpt lat="43.802805" lon="12.6169367"><ele>131.0</ele><time>2026-04-25T08:11:51.545Z</time></trkpt><trkpt lat="43.8026617" lon="12.6170183"><ele>131.0</ele><time>2026-04-25T08:11:52.544Z</time></trkpt><trkpt lat="43.8025183" lon="12.6170967"><ele>131.0</ele><time>2026-04-25T08:11:53.544Z</time></trkpt><trkpt lat="43.8023833" lon="12.617175"><ele>131.0</ele><time>2026-04-25T08:11:54.545Z</time></trkpt><trkpt lat="43.80225" lon="12.6172717"><ele>131.0</ele><time>2026-04-25T08:11:55.545Z</time></trkpt><trkpt lat="43.8021133" lon="12.617405"><ele>131.0</ele><time>2026-04-25T08:11:56.545Z</time></trkpt><trkpt lat="43.8019767" lon="12.617555"><ele>131.0</ele><time>2026-04-25T08:11:57.545Z</time></trkpt><trkpt lat="43.8018517" lon="12.6177217"><ele>131.0</ele><time>2026-04-25T08:11:58.545Z</time></trkpt><trkpt lat="43.801735" lon="12.61789"><ele>129.33333333333331</ele><time>2026-04-25T08:11:59.545Z</time></trkpt><trkpt lat="43.8016133" lon="12.6180567"><ele>127.66666666666666</ele><time>2026-04-25T08:12:00.545Z</time></trkpt><trkpt lat="43.8014883" lon="12.6182"><ele>126.0</ele><time>2026-04-25T08:12:01.545Z</time></trkpt><trkpt lat="43.8013617" lon="12.61833"><ele>126.0</ele><time>2026-04-25T08:12:02.545Z</time></trkpt><trkpt lat="43.801235" lon="12.618435"><ele>126.0</ele><time>2026-04-25T08:12:03.545Z</time></trkpt><trkpt lat="43.8011117" lon="12.6185267"><ele>126.0</ele><time>2026-04-25T08:12:04.545Z</time></trkpt><trkpt lat="43.8010033" lon="12.618595"><ele>126.0</ele><time>2026-04-25T08:12:05.544Z</time></trkpt><trkpt lat="43.8008967" lon="12.618655"><ele>125.6</ele><time>2026-04-25T08:12:06.545Z</time></trkpt><trkpt lat="43.800795" lon="12.618705"><ele>125.19999999999999</ele><time>2026-04-25T08:12:07.545Z</time></trkpt><trkpt lat="43.8006967" lon="12.6187483"><ele>124.80000000000001</ele><time>2026-04-25T08:12:08.545Z</time></trkpt><trkpt lat="43.8006033" lon="12.618785"><ele>124.4</ele><time>2026-04-25T08:12:09.545Z</time></trkpt><trkpt lat="43.8005133" lon="12.6188183"><ele>124.0</ele><time>2026-04-25T08:12:10.545Z</time></trkpt><trkpt lat="43.8004283" lon="12.6188383"><ele>124.00000000000001</ele><time>2026-04-25T08:12:11.545Z</time></trkpt><trkpt lat="43.80035" lon="12.6188467"><ele>124.0</ele><time>2026-04-25T08:12:12.544Z</time></trkpt><trkpt lat="43.80028" lon="12.6188583"><ele>124.0</ele><time>2026-04-25T08:12:13.545Z</time></trkpt><trkpt lat="43.8002167" lon="12.61886"><ele>124.0</ele><time>2026-04-25T08:12:14.544Z</time></trkpt><trkpt lat="43.8001417" lon="12.61887"><ele>124.00000000000001</ele><time>2026-04-25T08:12:15.544Z</time></trkpt><trkpt lat="43.800055" lon="12.6188833"><ele>124.0</ele><time>2026-04-25T08:12:16.545Z</time></trkpt><trkpt lat="43.7999567" lon="12.6189"><ele>123.2</ele><time>2026-04-25T08:12:17.545Z</time></trkpt><trkpt lat="43.7998583" lon="12.6189067"><ele>122.4</ele><time>2026-04-25T08:12:18.545Z</time></trkpt><trkpt lat="43.7997783" lon="12.6189117"><ele>121.6</ele><time>2026-04-25T08:12:19.545Z</time></trkpt><trkpt lat="43.79969" lon="12.6189283"><ele>120.8</ele><time>2026-04-25T08:12:20.544Z</time></trkpt><trkpt lat="43.7995833" lon="12.6189367"><ele>120.0</ele><time>2026-04-25T08:12:21.544Z</time></trkpt><trkpt lat="43.7994483" lon="12.6189683"><ele>119.5</ele><time>2026-04-25T08:12:22.545Z</time></trkpt><trkpt lat="43.7993067" lon="12.6189883"><ele>119.0</ele><time>2026-04-25T08:12:23.544Z</time></trkpt><trkpt lat="43.7991667" lon="12.61901"><ele>118.5</ele><time>2026-04-25T08:12:24.545Z</time></trkpt><trkpt lat="43.799045" lon="12.6190117"><ele>118.0</ele><time>2026-04-25T08:12:25.545Z</time></trkpt><trkpt lat="43.7989317" lon="12.6190183"><ele>118.00000000000001</ele><time>2026-04-25T08:12:26.544Z</time></trkpt><trkpt lat="43.79883" lon="12.6190283"><ele>118.0</ele><time>2026-04-25T08:12:27.544Z</time></trkpt><trkpt lat="43.7987383" lon="12.6190383"><ele>118.0</ele><time>2026-04-25T08:12:28.544Z</time></trkpt><trkpt lat="43.7986633" lon="12.6190383"><ele>118.0</ele><time>2026-04-25T08:12:29.545Z</time></trkpt><trkpt lat="43.7985967" lon="12.61904"><ele>118.00000000000001</ele><time>2026-04-25T08:12:30.544Z</time></trkpt><trkpt lat="43.7985267" lon="12.61905"><ele>118.0</ele><time>2026-04-25T08:12:31.545Z</time></trkpt><trkpt lat="43.798445" lon="12.6190517"><ele>117.5</ele><time>2026-04-25T08:12:32.545Z</time></trkpt><trkpt lat="43.798355" lon="12.619035"><ele>117.0</ele><time>2026-04-25T08:12:33.545Z</time></trkpt><trkpt lat="43.7982467" lon="12.6189983"><ele>116.5</ele><time>2026-04-25T08:12:34.545Z</time></trkpt><trkpt lat="43.7981283" lon="12.6189417"><ele>116.0</ele><time>2026-04-25T08:12:35.545Z</time></trkpt><trkpt lat="43.7979883" lon="12.6188717"><ele>116.0</ele><time>2026-04-25T08:12:36.544Z</time></trkpt><trkpt lat="43.7978333" lon="12.6187883"><ele>116.0</ele><time>2026-04-25T08:12:37.544Z</time></trkpt><trkpt lat="43.7976683" lon="12.6187133"><ele>116.0</ele><time>2026-04-25T08:12:38.544Z</time></trkpt><trkpt lat="43.7975017" lon="12.618665"><ele>115.0</ele><time>2026-04-25T08:12:39.545Z</time></trkpt><trkpt lat="43.797335" lon="12.6186367"><ele>114.0</ele><time>2026-04-25T08:12:40.544Z</time></trkpt><trkpt lat="43.7971583" lon="12.6186333"><ele>113.0</ele><time>2026-04-25T08:12:41.544Z</time></trkpt><trkpt lat="43.79698" lon="12.6186283"><ele>112.0</ele><time>2026-04-25T08:12:42.545Z</time></trkpt><trkpt lat="43.7968" lon="12.6186283"><ele>111.0</ele><time>2026-04-25T08:12:43.545Z</time></trkpt><trkpt lat="43.7966217" lon="12.618635"><ele>110.0</ele><time>2026-04-25T08:12:44.545Z</time></trkpt><trkpt lat="43.79644" lon="12.6186433"><ele>110.0</ele><time>2026-04-25T08:12:45.544Z</time></trkpt><trkpt lat="43.79626" lon="12.6186483"><ele>110.0</ele><time>2026-04-25T08:12:46.545Z</time></trkpt><trkpt lat="43.79608" lon="12.6186583"><ele>110.0</ele><time>2026-04-25T08:12:47.545Z</time></trkpt><trkpt lat="43.7958967" lon="12.6186733"><ele>109.0</ele><time>2026-04-25T08:12:48.545Z</time></trkpt><trkpt lat="43.795715" lon="12.61868"><ele>108.0</ele><time>2026-04-25T08:12:49.545Z</time></trkpt><trkpt lat="43.7955267" lon="12.6186967"><ele>107.0</ele><time>2026-04-25T08:12:50.545Z</time></trkpt><trkpt lat="43.7953367" lon="12.618715"><ele>106.66666666666666</ele><time>2026-04-25T08:12:51.545Z</time></trkpt><trkpt lat="43.7951483" lon="12.6187283"><ele>106.33333333333334</ele><time>2026-04-25T08:12:52.545Z</time></trkpt><trkpt lat="43.79496" lon="12.6187433"><ele>106.0</ele><time>2026-04-25T08:12:53.544Z</time></trkpt><trkpt lat="43.7947667" lon="12.6187583"><ele>106.0</ele><time>2026-04-25T08:12:54.544Z</time></trkpt><trkpt lat="43.7945733" lon="12.6187667"><ele>106.0</ele><time>2026-04-25T08:12:55.545Z</time></trkpt><trkpt lat="43.7943833" lon="12.6187733"><ele>106.0</ele><time>2026-04-25T08:12:56.544Z</time></trkpt><trkpt lat="43.7941983" lon="12.6187833"><ele>105.66666666666667</ele><time>2026-04-25T08:12:57.545Z</time></trkpt><trkpt lat="43.79403" lon="12.6187917"><ele>105.33333333333334</ele><time>2026-04-25T08:12:58.544Z</time></trkpt><trkpt lat="43.7938717" lon="12.6187983"><ele>105.0</ele><time>2026-04-25T08:12:59.545Z</time></trkpt><trkpt lat="43.7937417" lon="12.618795"><ele>105.0</ele><time>2026-04-25T08:13:00.545Z</time></trkpt><trkpt lat="43.7936183" lon="12.618775"><ele>105.0</ele><time>2026-04-25T08:13:01.545Z</time></trkpt><trkpt lat="43.7934917" lon="12.61873"><ele>105.0</ele><time>2026-04-25T08:13:02.544Z</time></trkpt><trkpt lat="43.7933683" lon="12.6186633"><ele>105.0</ele><time>2026-04-25T08:13:03.545Z</time></trkpt><trkpt lat="43.7932483" lon="12.6186133"><ele>106.5</ele><time>2026-04-25T08:13:04.544Z</time></trkpt><trkpt lat="43.7931383" lon="12.618595"><ele>108.0</ele><time>2026-04-25T08:13:05.545Z</time></trkpt><trkpt lat="43.79303" lon="12.6186183"><ele>109.5</ele><time>2026-04-25T08:13:06.545Z</time></trkpt><trkpt lat="43.7929083" lon="12.61869"><ele>111.0</ele><time>2026-04-25T08:13:07.545Z</time></trkpt><trkpt lat="43.7927733" lon="12.6187933"><ele>111.6</ele><time>2026-04-25T08:13:08.545Z</time></trkpt><trkpt lat="43.7926567" lon="12.6188817"><ele>112.19999999999999</ele><time>2026-04-25T08:13:09.545Z</time></trkpt><trkpt lat="43.7925617" lon="12.61892"><ele>112.80000000000001</ele><time>2026-04-25T08:13:10.544Z</time></trkpt><trkpt lat="43.7924933" lon="12.6189033"><ele>113.4</ele><time>2026-04-25T08:13:11.545Z</time></trkpt><trkpt lat="43.79243" lon="12.6187867"><ele>114.0</ele><time>2026-04-25T08:13:13.545Z</time></trkpt><trkpt lat="43.7924617" lon="12.6186983"><ele>114.6</ele><time>2026-04-25T08:13:14.545Z</time></trkpt><trkpt lat="43.7925383" lon="12.6186017"><ele>115.2</ele><time>2026-04-25T08:13:15.545Z</time></trkpt><trkpt lat="43.7926333" lon="12.6185083"><ele>115.79999999999998</ele><time>2026-04-25T08:13:16.545Z</time></trkpt><trkpt lat="43.7927167" lon="12.618405"><ele>116.39999999999999</ele><time>2026-04-25T08:13:17.544Z</time></trkpt><trkpt lat="43.7927633" lon="12.618295"><ele>117.0</ele><time>2026-04-25T08:13:18.545Z</time></trkpt><trkpt lat="43.792775" lon="12.6181633"><ele>117.0</ele><time>2026-04-25T08:13:19.545Z</time></trkpt><trkpt lat="43.792745" lon="12.6180067"><ele>117.0</ele><time>2026-04-25T08:13:20.544Z</time></trkpt><trkpt lat="43.7926833" lon="12.6178283"><ele>117.0</ele><time>2026-04-25T08:13:21.545Z</time></trkpt><trkpt lat="43.79261" lon="12.6176283"><ele>117.0</ele><time>2026-04-25T08:13:22.545Z</time></trkpt><trkpt lat="43.7925483" lon="12.61743"><ele>119.0</ele><time>2026-04-25T08:13:23.545Z</time></trkpt><trkpt lat="43.7924983" lon="12.6172367"><ele>121.0</ele><time>2026-04-25T08:13:24.545Z</time></trkpt><trkpt lat="43.792475" lon="12.6170667"><ele>123.0</ele><time>2026-04-25T08:13:25.545Z</time></trkpt><trkpt lat="43.792475" lon="12.6168933"><ele>125.0</ele><time>2026-04-25T08:13:26.544Z</time></trkpt><trkpt lat="43.792505" lon="12.616705"><ele>125.0</ele><time>2026-04-25T08:13:27.545Z</time></trkpt><trkpt lat="43.7925483" lon="12.6165283"><ele>125.0</ele><time>2026-04-25T08:13:28.545Z</time></trkpt><trkpt lat="43.7926017" lon="12.61638"><ele>125.0</ele><time>2026-04-25T08:13:29.545Z</time></trkpt><trkpt lat="43.7926783" lon="12.6162533"><ele>125.0</ele><time>2026-04-25T08:13:30.545Z</time></trkpt><trkpt lat="43.7927733" lon="12.616145"><ele>126.0</ele><time>2026-04-25T08:13:31.544Z</time></trkpt><trkpt lat="43.7928867" lon="12.6160467"><ele>127.0</ele><time>2026-04-25T08:13:32.544Z</time></trkpt><trkpt lat="43.793015" lon="12.6159567"><ele>128.0</ele><time>2026-04-25T08:13:33.545Z</time></trkpt><trkpt lat="43.7931283" lon="12.6158733"><ele>129.0</ele><time>2026-04-25T08:13:34.545Z</time></trkpt><trkpt lat="43.7932383" lon="12.6157733"><ele>129.0</ele><time>2026-04-25T08:13:35.545Z</time></trkpt><trkpt lat="43.7933483" lon="12.6156267"><ele>129.0</ele><time>2026-04-25T08:13:36.545Z</time></trkpt><trkpt lat="43.7934617" lon="12.6154567"><ele>129.0</ele><time>2026-04-25T08:13:37.545Z</time></trkpt><trkpt lat="43.7935733" lon="12.615255"><ele>125.66666666666666</ele><time>2026-04-25T08:13:38.545Z</time></trkpt><trkpt lat="43.79367" lon="12.6150567"><ele>122.33333333333333</ele><time>2026-04-25T08:13:39.545Z</time></trkpt><trkpt lat="43.7937433" lon="12.6148567"><ele>119.0</ele><time>2026-04-25T08:13:40.545Z</time></trkpt><trkpt lat="43.7938067" lon="12.614625"><ele>120.66666666666666</ele><time>2026-04-25T08:13:41.545Z</time></trkpt><trkpt lat="43.79387" lon="12.6143633"><ele>122.33333333333334</ele><time>2026-04-25T08:13:42.545Z</time></trkpt><trkpt lat="43.7939367" lon="12.6141"><ele>124.0</ele><time>2026-04-25T08:13:43.545Z</time></trkpt><trkpt lat="43.7940033" lon="12.61384"><ele>126.33333333333334</ele><time>2026-04-25T08:13:44.545Z</time></trkpt><trkpt lat="43.7940683" lon="12.6135883"><ele>128.66666666666666</ele><time>2026-04-25T08:13:45.545Z</time></trkpt><trkpt lat="43.7941283" lon="12.6133383"><ele>131.0</ele><time>2026-04-25T08:13:46.545Z</time></trkpt><trkpt lat="43.7941867" lon="12.6131033"><ele>131.0</ele><time>2026-04-25T08:13:47.545Z</time></trkpt><trkpt lat="43.79425" lon="12.6128883"><ele>131.0</ele><time>2026-04-25T08:13:48.545Z</time></trkpt><trkpt lat="43.7943017" lon="12.6127167"><ele>131.0</ele><time>2026-04-25T08:13:49.545Z</time></trkpt><trkpt lat="43.7943383" lon="12.6125683"><ele>131.0</ele><time>2026-04-25T08:13:50.545Z</time></trkpt><trkpt lat="43.79438" lon="12.6124317"><ele>130.66666666666666</ele><time>2026-04-25T08:13:51.545Z</time></trkpt><trkpt lat="43.794445" lon="12.612285"><ele>130.33333333333334</ele><time>2026-04-25T08:13:52.545Z</time></trkpt><trkpt lat="43.7945367" lon="12.6121117"><ele>130.0</ele><time>2026-04-25T08:13:53.545Z</time></trkpt><trkpt lat="43.79464" lon="12.611915"><ele>130.66666666666669</ele><time>2026-04-25T08:13:54.545Z</time></trkpt><trkpt lat="43.7947517" lon="12.61172"><ele>131.33333333333334</ele><time>2026-04-25T08:13:55.545Z</time></trkpt><trkpt lat="43.79487" lon="12.611535"><ele>132.0</ele><time>2026-04-25T08:13:56.544Z</time></trkpt><trkpt lat="43.7949817" lon="12.6113533"><ele>132.0</ele><time>2026-04-25T08:13:57.545Z</time></trkpt><trkpt lat="43.7951" lon="12.6111883"><ele>132.0</ele><time>2026-04-25T08:13:58.545Z</time></trkpt><trkpt lat="43.7952383" lon="12.6110267"><ele>132.0</ele><time>2026-04-25T08:13:59.545Z</time></trkpt><trkpt lat="43.7954033" lon="12.6108617"><ele>130.0</ele><time>2026-04-25T08:14:00.544Z</time></trkpt><trkpt lat="43.795565" lon="12.6107033"><ele>128.0</ele><time>2026-04-25T08:14:01.544Z</time></trkpt><trkpt lat="43.79571" lon="12.6105617"><ele>126.0</ele><time>2026-04-25T08:14:02.545Z</time></trkpt><trkpt lat="43.795835" lon="12.6104283"><ele>126.5</ele><time>2026-04-25T08:14:03.545Z</time></trkpt><trkpt lat="43.79595" lon="12.610295"><ele>127.0</ele><time>2026-04-25T08:14:04.545Z</time></trkpt><trkpt lat="43.7960467" lon="12.6101667"><ele>127.5</ele><time>2026-04-25T08:14:05.545Z</time></trkpt><trkpt lat="43.79613" lon="12.6100667"><ele>128.0</ele><time>2026-04-25T08:14:06.545Z</time></trkpt><trkpt lat="43.7962083" lon="12.60999"><ele>128.4</ele><time>2026-04-25T08:14:07.545Z</time></trkpt><trkpt lat="43.7962867" lon="12.60994"><ele>128.8</ele><time>2026-04-25T08:14:08.545Z</time></trkpt><trkpt lat="43.7963733" lon="12.6099217"><ele>129.2</ele><time>2026-04-25T08:14:09.545Z</time></trkpt><trkpt lat="43.7964783" lon="12.6099267"><ele>129.6</ele><time>2026-04-25T08:14:10.545Z</time></trkpt><trkpt lat="43.7965833" lon="12.609935"><ele>130.0</ele><time>2026-04-25T08:14:11.545Z</time></trkpt><trkpt lat="43.7966817" lon="12.609965"><ele>130.0</ele><time>2026-04-25T08:14:12.545Z</time></trkpt><trkpt lat="43.7967533" lon="12.6099617"><ele>130.0</ele><time>2026-04-25T08:14:13.544Z</time></trkpt><trkpt lat="43.7968317" lon="12.6099267"><ele>130.0</ele><time>2026-04-25T08:14:14.545Z</time></trkpt><trkpt lat="43.7969333" lon="12.6098883"><ele>130.0</ele><time>2026-04-25T08:14:15.545Z</time></trkpt><trkpt lat="43.79703" lon="12.6098467"><ele>130.0</ele><time>2026-04-25T08:14:16.545Z</time></trkpt><trkpt lat="43.79712" lon="12.6098083"><ele>129.2</ele><time>2026-04-25T08:14:17.545Z</time></trkpt><trkpt lat="43.7972067" lon="12.6097467"><ele>128.4</ele><time>2026-04-25T08:14:18.544Z</time></trkpt><trkpt lat="43.7972933" lon="12.6096633"><ele>127.6</ele><time>2026-04-25T08:14:19.544Z</time></trkpt><trkpt lat="43.7973833" lon="12.6095583"><ele>126.8</ele><time>2026-04-25T08:14:20.545Z</time></trkpt><trkpt lat="43.797465" lon="12.6094417"><ele>126.0</ele><time>2026-04-25T08:14:21.544Z</time></trkpt><trkpt lat="43.7975367" lon="12.6093033"><ele>129.0</ele><time>2026-04-25T08:14:22.545Z</time></trkpt><trkpt lat="43.7976" lon="12.609125"><ele>132.0</ele><time>2026-04-25T08:14:23.545Z</time></trkpt><trkpt lat="43.7976567" lon="12.6089117"><ele>135.0</ele><time>2026-04-25T08:14:24.545Z</time></trkpt><trkpt lat="43.797715" lon="12.608685"><ele>140.0</ele><time>2026-04-25T08:14:25.545Z</time></trkpt><trkpt lat="43.79778" lon="12.60847"><ele>145.0</ele><time>2026-04-25T08:14:26.545Z</time></trkpt><trkpt lat="43.7978467" lon="12.6082817"><ele>150.0</ele><time>2026-04-25T08:14:27.545Z</time></trkpt><trkpt lat="43.797915" lon="12.6081267"><ele>150.0</ele><time>2026-04-25T08:14:28.544Z</time></trkpt><trkpt lat="43.79799" lon="12.6079833"><ele>150.0</ele><time>2026-04-25T08:14:29.544Z</time></trkpt><trkpt lat="43.7980667" lon="12.6078533"><ele>150.0</ele><time>2026-04-25T08:14:30.545Z</time></trkpt><trkpt lat="43.7981483" lon="12.607735"><ele>150.0</ele><time>2026-04-25T08:14:31.545Z</time></trkpt><trkpt lat="43.7982367" lon="12.6076167"><ele>150.5</ele><time>2026-04-25T08:14:32.544Z</time></trkpt><trkpt lat="43.79833" lon="12.607505"><ele>151.0</ele><time>2026-04-25T08:14:33.544Z</time></trkpt><trkpt lat="43.7984333" lon="12.6074017"><ele>151.5</ele><time>2026-04-25T08:14:34.545Z</time></trkpt><trkpt lat="43.7985433" lon="12.6073017"><ele>152.0</ele><time>2026-04-25T08:14:35.545Z</time></trkpt><trkpt lat="43.798655" lon="12.6072083"><ele>152.75</ele><time>2026-04-25T08:14:36.545Z</time></trkpt><trkpt lat="43.7987633" lon="12.60712"><ele>153.5</ele><time>2026-04-25T08:14:37.544Z</time></trkpt><trkpt lat="43.7988733" lon="12.6070233"><ele>154.25</ele><time>2026-04-25T08:14:38.545Z</time></trkpt><trkpt lat="43.7989767" lon="12.6069167"><ele>155.0</ele><time>2026-04-25T08:14:39.545Z</time></trkpt><trkpt lat="43.7990617" lon="12.606795"><ele>156.5</ele><time>2026-04-25T08:14:40.544Z</time></trkpt><trkpt lat="43.7991333" lon="12.6066567"><ele>158.0</ele><time>2026-04-25T08:14:41.545Z</time></trkpt><trkpt lat="43.7991967" lon="12.6064983"><ele>159.5</ele><time>2026-04-25T08:14:42.545Z</time></trkpt><trkpt lat="43.7992467" lon="12.6063183"><ele>161.0</ele><time>2026-04-25T08:14:43.545Z</time></trkpt><trkpt lat="43.7992983" lon="12.6061333"><ele>158.66666666666666</ele><time>2026-04-25T08:14:44.544Z</time></trkpt><trkpt lat="43.7993567" lon="12.60595"><ele>156.33333333333334</ele><time>2026-04-25T08:14:45.545Z</time></trkpt><trkpt lat="43.79942" lon="12.60576"><ele>154.0</ele><time>2026-04-25T08:14:46.545Z</time></trkpt><trkpt lat="43.799485" lon="12.6055633"><ele>154.0</ele><time>2026-04-25T08:14:47.545Z</time></trkpt><trkpt lat="43.7995467" lon="12.605385"><ele>154.0</ele><time>2026-04-25T08:14:48.545Z</time></trkpt><trkpt lat="43.79961" lon="12.60524"><ele>154.0</ele><time>2026-04-25T08:14:49.545Z</time></trkpt><trkpt lat="43.7996833" lon="12.6051133"><ele>154.0</ele><time>2026-04-25T08:14:50.544Z</time></trkpt><trkpt lat="43.7997783" lon="12.6049867"><ele>156.66666666666669</ele><time>2026-04-25T08:14:51.545Z</time></trkpt><trkpt lat="43.799885" lon="12.6048467"><ele>159.33333333333334</ele><time>2026-04-25T08:14:52.544Z</time></trkpt><trkpt lat="43.8000017" lon="12.6047"><ele>162.0</ele><time>2026-04-25T08:14:53.545Z</time></trkpt><trkpt lat="43.8001217" lon="12.6045517"><ele>160.33333333333334</ele><time>2026-04-25T08:14:54.545Z</time></trkpt><trkpt lat="43.8002433" lon="12.6043967"><ele>158.66666666666669</ele><time>2026-04-25T08:14:55.545Z</time></trkpt><trkpt lat="43.8003667" lon="12.60424"><ele>157.0</ele><time>2026-04-25T08:14:56.545Z</time></trkpt><trkpt lat="43.8004767" lon="12.6040867"><ele>157.0</ele><time>2026-04-25T08:14:57.545Z</time></trkpt><trkpt lat="43.80058" lon="12.6039367"><ele>157.0</ele><time>2026-04-25T08:14:58.545Z</time></trkpt><trkpt lat="43.8006833" lon="12.6037767"><ele>157.0</ele><time>2026-04-25T08:14:59.545Z</time></trkpt><trkpt lat="43.800795" lon="12.6036083"><ele>158.66666666666669</ele><time>2026-04-25T08:15:00.545Z</time></trkpt><trkpt lat="43.8009017" lon="12.6034333"><ele>160.33333333333334</ele><time>2026-04-25T08:15:01.545Z</time></trkpt><trkpt lat="43.800995" lon="12.6032667"><ele>162.0</ele><time>2026-04-25T08:15:02.545Z</time></trkpt><trkpt lat="43.80107" lon="12.603105"><ele>162.0</ele><time>2026-04-25T08:15:03.544Z</time></trkpt><trkpt lat="43.80112" lon="12.6029467"><ele>162.0</ele><time>2026-04-25T08:15:04.545Z</time></trkpt><trkpt lat="43.8011483" lon="12.602795"><ele>162.0</ele><time>2026-04-25T08:15:05.545Z</time></trkpt><trkpt lat="43.8011533" lon="12.6026367"><ele>162.0</ele><time>2026-04-25T08:15:06.545Z</time></trkpt><trkpt lat="43.801125" lon="12.60246"><ele>166.0</ele><time>2026-04-25T08:15:07.545Z</time></trkpt><trkpt lat="43.80108" lon="12.6022833"><ele>170.0</ele><time>2026-04-25T08:15:08.545Z</time></trkpt><trkpt lat="43.8010333" lon="12.6021133"><ele>174.0</ele><time>2026-04-25T08:15:09.544Z</time></trkpt><trkpt lat="43.8010117" lon="12.60197"><ele>178.0</ele><time>2026-04-25T08:15:10.544Z</time></trkpt><trkpt lat="43.801015" lon="12.6018467"><ele>180.8</ele><time>2026-04-25T08:15:11.544Z</time></trkpt><trkpt lat="43.801045" lon="12.601735"><ele>183.60000000000002</ele><time>2026-04-25T08:15:12.545Z</time></trkpt><trkpt lat="43.801095" lon="12.6016483"><ele>186.39999999999998</ele><time>2026-04-25T08:15:13.545Z</time></trkpt><trkpt lat="43.801165" lon="12.6015767"><ele>189.2</ele><time>2026-04-25T08:15:14.545Z</time></trkpt><trkpt lat="43.8012467" lon="12.6015"><ele>192.0</ele><time>2026-04-25T08:15:15.544Z</time></trkpt><trkpt lat="43.8013317" lon="12.6014183"><ele>192.0</ele><time>2026-04-25T08:15:16.544Z</time></trkpt><trkpt lat="43.801405" lon="12.6013167"><ele>192.0</ele><time>2026-04-25T08:15:17.545Z</time></trkpt><trkpt lat="43.8014517" lon="12.6012"><ele>192.0</ele><time>2026-04-25T08:15:18.544Z</time></trkpt><trkpt lat="43.8014817" lon="12.60106"><ele>192.0</ele><time>2026-04-25T08:15:19.544Z</time></trkpt><trkpt lat="43.8015167" lon="12.6009217"><ele>192.0</ele><time>2026-04-25T08:15:20.545Z</time></trkpt><trkpt lat="43.8015583" lon="12.6008067"><ele>192.39999999999998</ele><time>2026-04-25T08:15:21.545Z</time></trkpt><trkpt lat="43.80162" lon="12.6007267"><ele>192.79999999999998</ele><time>2026-04-25T08:15:22.544Z</time></trkpt><trkpt lat="43.8016983" lon="12.6006567"><ele>193.2</ele><time>2026-04-25T08:15:23.545Z</time></trkpt><trkpt lat="43.801795" lon="12.6005967"><ele>193.6</ele><time>2026-04-25T08:15:24.544Z</time></trkpt><trkpt lat="43.8019017" lon="12.600555"><ele>194.0</ele><time>2026-04-25T08:15:25.545Z</time></trkpt><trkpt lat="43.8020233" lon="12.600515"><ele>199.66666666666669</ele><time>2026-04-25T08:15:26.545Z</time></trkpt><trkpt lat="43.80216" lon="12.6004683"><ele>205.33333333333331</ele><time>2026-04-25T08:15:27.545Z</time></trkpt><trkpt lat="43.80231" lon="12.6004133"><ele>211.0</ele><time>2026-04-25T08:15:28.545Z</time></trkpt><trkpt lat="43.80246" lon="12.6003517"><ele>212.0</ele><time>2026-04-25T08:15:29.545Z</time></trkpt><trkpt lat="43.8026083" lon="12.6002933"><ele>213.0</ele><time>2026-04-25T08:15:30.545Z</time></trkpt><trkpt lat="43.80275" lon="12.6002133"><ele>214.0</ele><time>2026-04-25T08:15:31.545Z</time></trkpt><trkpt lat="43.8028817" lon="12.600105"><ele>214.0</ele><time>2026-04-25T08:15:32.545Z</time></trkpt><trkpt lat="43.8030017" lon="12.5999933"><ele>214.0</ele><time>2026-04-25T08:15:33.545Z</time></trkpt><trkpt lat="43.8031067" lon="12.5998967"><ele>214.0</ele><time>2026-04-25T08:15:34.545Z</time></trkpt><trkpt lat="43.80321" lon="12.5998067"><ele>214.0</ele><time>2026-04-25T08:15:35.545Z</time></trkpt><trkpt lat="43.803325" lon="12.5997117"><ele>214.0</ele><time>2026-04-25T08:15:36.544Z</time></trkpt><trkpt lat="43.8034383" lon="12.5996183"><ele>214.0</ele><time>2026-04-25T08:15:37.544Z</time></trkpt><trkpt lat="43.8035433" lon="12.5995133"><ele>214.0</ele><time>2026-04-25T08:15:38.545Z</time></trkpt><trkpt lat="43.80363" lon="12.599405"><ele>214.0</ele><time>2026-04-25T08:15:39.545Z</time></trkpt><trkpt lat="43.8037083" lon="12.599285"><ele>212.5</ele><time>2026-04-25T08:15:40.545Z</time></trkpt><trkpt lat="43.80379" lon="12.599145"><ele>211.0</ele><time>2026-04-25T08:15:41.544Z</time></trkpt><trkpt lat="43.8038817" lon="12.59898"><ele>209.5</ele><time>2026-04-25T08:15:42.544Z</time></trkpt><trkpt lat="43.803985" lon="12.5987967"><ele>208.0</ele><time>2026-04-25T08:15:43.545Z</time></trkpt><trkpt lat="43.804095" lon="12.5985983"><ele>207.33333333333331</ele><time>2026-04-25T08:15:44.545Z</time></trkpt><trkpt lat="43.8042017" lon="12.598405"><ele>206.66666666666669</ele><time>2026-04-25T08:15:45.545Z</time></trkpt><trkpt lat="43.8042967" lon="12.5982233"><ele>206.0</ele><time>2026-04-25T08:15:46.545Z</time></trkpt><trkpt lat="43.8043733" lon="12.5980483"><ele>202.0</ele><time>2026-04-25T08:15:47.545Z</time></trkpt><trkpt lat="43.8044317" lon="12.5978733"><ele>198.0</ele><time>2026-04-25T08:15:48.545Z</time></trkpt><trkpt lat="43.8044633" lon="12.5976833"><ele>194.0</ele><time>2026-04-25T08:15:49.544Z</time></trkpt><trkpt lat="43.804485" lon="12.5974583"><ele>190.0</ele><time>2026-04-25T08:15:50.544Z</time></trkpt><trkpt lat="43.8045" lon="12.597205"><ele>193.66666666666669</ele><time>2026-04-25T08:15:51.544Z</time></trkpt><trkpt lat="43.80451" lon="12.5969467"><ele>197.33333333333334</ele><time>2026-04-25T08:15:52.545Z</time></trkpt><trkpt lat="43.8045117" lon="12.59671"><ele>201.0</ele><time>2026-04-25T08:15:53.544Z</time></trkpt><trkpt lat="43.8044967" lon="12.596485"><ele>201.0</ele><time>2026-04-25T08:15:54.544Z</time></trkpt><trkpt lat="43.8044667" lon="12.5962883"><ele>201.0</ele><time>2026-04-25T08:15:55.545Z</time></trkpt><trkpt lat="43.8044533" lon="12.5961167"><ele>201.0</ele><time>2026-04-25T08:15:56.545Z</time></trkpt><trkpt lat="43.8044583" lon="12.5959583"><ele>201.0</ele><time>2026-04-25T08:15:57.545Z</time></trkpt><trkpt lat="43.8044867" lon="12.5958267"><ele>204.20000000000002</ele><time>2026-04-25T08:15:58.544Z</time></trkpt><trkpt lat="43.8045367" lon="12.5957317"><ele>207.4</ele><time>2026-04-25T08:15:59.545Z</time></trkpt><trkpt lat="43.8046083" lon="12.5956567"><ele>210.6</ele><time>2026-04-25T08:16:00.545Z</time></trkpt><trkpt lat="43.8047033" lon="12.5956"><ele>213.8</ele><time>2026-04-25T08:16:01.545Z</time></trkpt><trkpt lat="43.8047917" lon="12.595555"><ele>217.0</ele><time>2026-04-25T08:16:02.544Z</time></trkpt><trkpt lat="43.8048633" lon="12.5955017"><ele>217.0</ele><time>2026-04-25T08:16:03.545Z</time></trkpt><trkpt lat="43.80492" lon="12.5954183"><ele>217.0</ele><time>2026-04-25T08:16:04.545Z</time></trkpt><trkpt lat="43.80497" lon="12.5953017"><ele>217.0</ele><time>2026-04-25T08:16:05.544Z</time></trkpt><trkpt lat="43.805015" lon="12.5951417"><ele>217.0</ele><time>2026-04-25T08:16:06.544Z</time></trkpt><trkpt lat="43.8050517" lon="12.5949467"><ele>218.0</ele><time>2026-04-25T08:16:07.544Z</time></trkpt><trkpt lat="43.8050783" lon="12.594725"><ele>219.0</ele><time>2026-04-25T08:16:08.545Z</time></trkpt><trkpt lat="43.8051033" lon="12.5944967"><ele>220.0</ele><time>2026-04-25T08:16:09.544Z</time></trkpt><trkpt lat="43.805115" lon="12.59429"><ele>220.0</ele><time>2026-04-25T08:16:10.545Z</time></trkpt><trkpt lat="43.8051333" lon="12.59411"><ele>220.0</ele><time>2026-04-25T08:16:11.544Z</time></trkpt><trkpt lat="43.80517" lon="12.593955"><ele>220.0</ele><time>2026-04-25T08:16:12.545Z</time></trkpt><trkpt lat="43.80522" lon="12.5938233"><ele>220.0</ele><time>2026-04-25T08:16:13.545Z</time></trkpt><trkpt lat="43.80528" lon="12.5936933"><ele>219.5</ele><time>2026-04-25T08:16:14.544Z</time></trkpt><trkpt lat="43.8053433" lon="12.5935567"><ele>219.0</ele><time>2026-04-25T08:16:15.544Z</time></trkpt><trkpt lat="43.805405" lon="12.59341"><ele>218.5</ele><time>2026-04-25T08:16:16.544Z</time></trkpt><trkpt lat="43.80546" lon="12.5932533"><ele>218.0</ele><time>2026-04-25T08:16:17.545Z</time></trkpt><trkpt lat="43.8055183" lon="12.593075"><ele>218.0</ele><time>2026-04-25T08:16:18.544Z</time></trkpt><trkpt lat="43.8055683" lon="12.5928767"><ele>218.0</ele><time>2026-04-25T08:16:19.545Z</time></trkpt><trkpt lat="43.8056083" lon="12.59264"><ele>218.0</ele><time>2026-04-25T08:16:20.545Z</time></trkpt><trkpt lat="43.8056467" lon="12.592375"><ele>219.33333333333334</ele><time>2026-04-25T08:16:21.545Z</time></trkpt><trkpt lat="43.8056833" lon="12.592105"><ele>220.66666666666669</ele><time>2026-04-25T08:16:22.545Z</time></trkpt><trkpt lat="43.8057117" lon="12.591845"><ele>222.0</ele><time>2026-04-25T08:16:23.545Z</time></trkpt><trkpt lat="43.805735" lon="12.5915917"><ele>222.0</ele><time>2026-04-25T08:16:24.545Z</time></trkpt><trkpt lat="43.8057483" lon="12.5913383"><ele>222.0</ele><time>2026-04-25T08:16:25.544Z</time></trkpt><trkpt lat="43.8057567" lon="12.5910833"><ele>222.0</ele><time>2026-04-25T08:16:26.545Z</time></trkpt><trkpt lat="43.8057633" lon="12.5908117"><ele>222.0</ele><time>2026-04-25T08:16:27.545Z</time></trkpt><trkpt lat="43.8057683" lon="12.5905167"><ele>222.0</ele><time>2026-04-25T08:16:28.545Z</time></trkpt><trkpt lat="43.8057667" lon="12.5902417"><ele>222.0</ele><time>2026-04-25T08:16:29.545Z</time></trkpt><trkpt lat="43.8057667" lon="12.5899767"><ele>222.33333333333331</ele><time>2026-04-25T08:16:30.545Z</time></trkpt><trkpt lat="43.80577" lon="12.5897033"><ele>222.66666666666666</ele><time>2026-04-25T08:16:31.545Z</time></trkpt><trkpt lat="43.805775" lon="12.5894417"><ele>223.0</ele><time>2026-04-25T08:16:32.545Z</time></trkpt><trkpt lat="43.80577" lon="12.5891983"><ele>224.33333333333331</ele><time>2026-04-25T08:16:33.544Z</time></trkpt><trkpt lat="43.8057417" lon="12.5889533"><ele>225.66666666666669</ele><time>2026-04-25T08:16:34.545Z</time></trkpt><trkpt lat="43.8056917" lon="12.5887017"><ele>227.0</ele><time>2026-04-25T08:16:35.545Z</time></trkpt><trkpt lat="43.80564" lon="12.5884417"><ele>228.66666666666669</ele><time>2026-04-25T08:16:36.545Z</time></trkpt><trkpt lat="43.8055883" lon="12.5881833"><ele>230.33333333333331</ele><time>2026-04-25T08:16:37.545Z</time></trkpt><trkpt lat="43.8055583" lon="12.58796"><ele>232.0</ele><time>2026-04-25T08:16:38.544Z</time></trkpt><trkpt lat="43.8055467" lon="12.5877867"><ele>234.0</ele><time>2026-04-25T08:16:39.544Z</time></trkpt><trkpt lat="43.805565" lon="12.5876567"><ele>236.0</ele><time>2026-04-25T08:16:40.545Z</time></trkpt><trkpt lat="43.8056083" lon="12.587515"><ele>238.0</ele><time>2026-04-25T08:16:41.545Z</time></trkpt><trkpt lat="43.8056583" lon="12.5873617"><ele>240.0</ele><time>2026-04-25T08:16:42.544Z</time></trkpt><trkpt lat="43.80569" lon="12.5872117"><ele>242.0</ele><time>2026-04-25T08:16:43.544Z</time></trkpt><trkpt lat="43.8056967" lon="12.587065"><ele>242.5</ele><time>2026-04-25T08:16:44.545Z</time></trkpt><trkpt lat="43.8056617" lon="12.5869017"><ele>243.0</ele><time>2026-04-25T08:16:45.545Z</time></trkpt><trkpt lat="43.805625" lon="12.5867317"><ele>243.5</ele><time>2026-04-25T08:16:46.545Z</time></trkpt><trkpt lat="43.8056083" lon="12.5865817"><ele>244.0</ele><time>2026-04-25T08:16:47.545Z</time></trkpt><trkpt lat="43.8056283" lon="12.5864317"><ele>244.0</ele><time>2026-04-25T08:16:48.545Z</time></trkpt><trkpt lat="43.8056733" lon="12.58627"><ele>244.0</ele><time>2026-04-25T08:16:49.545Z</time></trkpt><trkpt lat="43.80574" lon="12.5860783"><ele>244.0</ele><time>2026-04-25T08:16:50.544Z</time></trkpt><trkpt lat="43.80581" lon="12.58585"><ele>243.33333333333331</ele><time>2026-04-25T08:16:51.544Z</time></trkpt><trkpt lat="43.8058833" lon="12.5856133"><ele>242.66666666666669</ele><time>2026-04-25T08:16:52.545Z</time></trkpt><trkpt lat="43.80595" lon="12.5853933"><ele>242.0</ele><time>2026-04-25T08:16:53.545Z</time></trkpt><trkpt lat="43.8060083" lon="12.5852033"><ele>237.0</ele><time>2026-04-25T08:16:54.545Z</time></trkpt><trkpt lat="43.8060583" lon="12.585025"><ele>232.0</ele><time>2026-04-25T08:16:55.545Z</time></trkpt><trkpt lat="43.80609" lon="12.5848367"><ele>227.0</ele><time>2026-04-25T08:16:56.544Z</time></trkpt><trkpt lat="43.8061083" lon="12.58465"><ele>222.0</ele><time>2026-04-25T08:16:57.544Z</time></trkpt><trkpt lat="43.806115" lon="12.5844783"><ele>221.75</ele><time>2026-04-25T08:16:58.545Z</time></trkpt><trkpt lat="43.8061033" lon="12.5843033"><ele>221.5</ele><time>2026-04-25T08:16:59.544Z</time></trkpt><trkpt lat="43.8060767" lon="12.5841133"><ele>221.25</ele><time>2026-04-25T08:17:00.545Z</time></trkpt><trkpt lat="43.806045" lon="12.583885"><ele>221.0</ele><time>2026-04-25T08:17:01.544Z</time></trkpt><trkpt lat="43.8060117" lon="12.58364"><ele>226.66666666666669</ele><time>2026-04-25T08:17:02.544Z</time></trkpt><trkpt lat="43.8059833" lon="12.583405"><ele>232.33333333333331</ele><time>2026-04-25T08:17:03.544Z</time></trkpt><trkpt lat="43.8059517" lon="12.5831733"><ele>238.0</ele><time>2026-04-25T08:17:04.545Z</time></trkpt><trkpt lat="43.8059183" lon="12.58295"><ele>238.0</ele><time>2026-04-25T08:17:05.545Z</time></trkpt><trkpt lat="43.8058917" lon="12.58274"><ele>238.0</ele><time>2026-04-25T08:17:06.545Z</time></trkpt><trkpt lat="43.8058767" lon="12.5825433"><ele>238.0</ele><time>2026-04-25T08:17:07.544Z</time></trkpt><trkpt lat="43.8058633" lon="12.5823667"><ele>238.0</ele><time>2026-04-25T08:17:08.545Z</time></trkpt><trkpt lat="43.805825" lon="12.5821983"><ele>238.0</ele><time>2026-04-25T08:17:09.545Z</time></trkpt><trkpt lat="43.805765" lon="12.5820217"><ele>238.0</ele><time>2026-04-25T08:17:10.545Z</time></trkpt><trkpt lat="43.8057" lon="12.581835"><ele>238.0</ele><time>2026-04-25T08:17:11.545Z</time></trkpt><trkpt lat="43.805645" lon="12.5816417"><ele>238.0</ele><time>2026-04-25T08:17:12.544Z</time></trkpt><trkpt lat="43.8055883" lon="12.5814467"><ele>236.75</ele><time>2026-04-25T08:17:13.544Z</time></trkpt><trkpt lat="43.805535" lon="12.5812483"><ele>235.5</ele><time>2026-04-25T08:17:14.545Z</time></trkpt><trkpt lat="43.8054867" lon="12.5810533"><ele>234.25</ele><time>2026-04-25T08:17:15.545Z</time></trkpt><trkpt lat="43.8054483" lon="12.5808667"><ele>233.0</ele><time>2026-04-25T08:17:16.545Z</time></trkpt><trkpt lat="43.8054317" lon="12.5806833"><ele>232.0</ele><time>2026-04-25T08:17:17.545Z</time></trkpt><trkpt lat="43.805435" lon="12.5805067"><ele>231.0</ele><time>2026-04-25T08:17:18.545Z</time></trkpt><trkpt lat="43.80545" lon="12.5803417"><ele>230.0</ele><time>2026-04-25T08:17:19.545Z</time></trkpt><trkpt lat="43.8054667" lon="12.5801867"><ele>229.0</ele><time>2026-04-25T08:17:20.545Z</time></trkpt><trkpt lat="43.8054867" lon="12.5800367"><ele>228.79999999999998</ele><time>2026-04-25T08:17:21.545Z</time></trkpt><trkpt lat="43.8054967" lon="12.5799033"><ele>228.59999999999997</ele><time>2026-04-25T08:17:22.545Z</time></trkpt><trkpt lat="43.8054733" lon="12.5797883"><ele>228.4</ele><time>2026-04-25T08:17:23.545Z</time></trkpt><trkpt lat="43.8054283" lon="12.5796867"><ele>228.2</ele><time>2026-04-25T08:17:24.545Z</time></trkpt><trkpt lat="43.8053617" lon="12.5795817"><ele>228.0</ele><time>2026-04-25T08:17:25.545Z</time></trkpt><trkpt lat="43.805285" lon="12.57947"><ele>226.75</ele><time>2026-04-25T08:17:26.545Z</time></trkpt><trkpt lat="43.8052117" lon="12.5793533"><ele>225.5</ele><time>2026-04-25T08:17:27.544Z</time></trkpt><trkpt lat="43.8051483" lon="12.57922"><ele>224.25</ele><time>2026-04-25T08:17:28.545Z</time></trkpt><trkpt lat="43.805105" lon="12.5790683"><ele>223.0</ele><time>2026-04-25T08:17:29.545Z</time></trkpt><trkpt lat="43.8050817" lon="12.578905"><ele>224.75</ele><time>2026-04-25T08:17:30.545Z</time></trkpt><trkpt lat="43.80507" lon="12.5787217"><ele>226.5</ele><time>2026-04-25T08:17:31.545Z</time></trkpt><trkpt lat="43.8050617" lon="12.5785283"><ele>228.25</ele><time>2026-04-25T08:17:32.545Z</time></trkpt><trkpt lat="43.805055" lon="12.5783217"><ele>230.0</ele><time>2026-04-25T08:17:33.545Z</time></trkpt><trkpt lat="43.8050433" lon="12.578105"><ele>230.0</ele><time>2026-04-25T08:17:34.545Z</time></trkpt><trkpt lat="43.80502" lon="12.5778833"><ele>230.0</ele><time>2026-04-25T08:17:35.545Z</time></trkpt><trkpt lat="43.804985" lon="12.57766"><ele>230.0</ele><time>2026-04-25T08:17:36.544Z</time></trkpt><trkpt lat="43.8049367" lon="12.5774283"><ele>229.66666666666669</ele><time>2026-04-25T08:17:37.545Z</time></trkpt><trkpt lat="43.804875" lon="12.5771767"><ele>229.33333333333331</ele><time>2026-04-25T08:17:38.545Z</time></trkpt><trkpt lat="43.804805" lon="12.5769233"><ele>229.0</ele><time>2026-04-25T08:17:39.545Z</time></trkpt><trkpt lat="43.804745" lon="12.57667"><ele>229.66666666666666</ele><time>2026-04-25T08:17:40.545Z</time></trkpt><trkpt lat="43.8046833" lon="12.57641"><ele>230.33333333333331</ele><time>2026-04-25T08:17:41.545Z</time></trkpt><trkpt lat="43.8046283" lon="12.5761533"><ele>231.0</ele><time>2026-04-25T08:17:42.545Z</time></trkpt><trkpt lat="43.8045767" lon="12.5759083"><ele>233.25</ele><time>2026-04-25T08:17:43.545Z</time></trkpt><trkpt lat="43.804525" lon="12.5757017"><ele>235.5</ele><time>2026-04-25T08:17:44.545Z</time></trkpt><trkpt lat="43.8044833" lon="12.5755317"><ele>237.75</ele><time>2026-04-25T08:17:45.545Z</time></trkpt><trkpt lat="43.804455" lon="12.5753833"><ele>240.0</ele><time>2026-04-25T08:17:46.545Z</time></trkpt><trkpt lat="43.804445" lon="12.5752267"><ele>240.5</ele><time>2026-04-25T08:17:47.545Z</time></trkpt><trkpt lat="43.8044517" lon="12.5750417"><ele>241.0</ele><time>2026-04-25T08:17:48.545Z</time></trkpt><trkpt lat="43.8044633" lon="12.57485"><ele>241.5</ele><time>2026-04-25T08:17:49.545Z</time></trkpt><trkpt lat="43.8044617" lon="12.5746633"><ele>242.0</ele><time>2026-04-25T08:17:50.545Z</time></trkpt><trkpt lat="43.8044417" lon="12.5744767"><ele>242.0</ele><time>2026-04-25T08:17:51.544Z</time></trkpt><trkpt lat="43.80441" lon="12.5742967"><ele>242.0</ele><time>2026-04-25T08:17:52.545Z</time></trkpt><trkpt lat="43.8043767" lon="12.5741283"><ele>242.0</ele><time>2026-04-25T08:17:53.545Z</time></trkpt><trkpt lat="43.8043467" lon="12.57394"><ele>242.0</ele><time>2026-04-25T08:17:54.545Z</time></trkpt><trkpt lat="43.8043167" lon="12.5737383"><ele>242.25</ele><time>2026-04-25T08:17:55.545Z</time></trkpt><trkpt lat="43.80429" lon="12.5735467"><ele>242.5</ele><time>2026-04-25T08:17:56.544Z</time></trkpt><trkpt lat="43.8042717" lon="12.57336"><ele>242.75</ele><time>2026-04-25T08:17:57.545Z</time></trkpt><trkpt lat="43.8042517" lon="12.5731817"><ele>243.0</ele><time>2026-04-25T08:17:58.544Z</time></trkpt><trkpt lat="43.804245" lon="12.5730133"><ele>243.0</ele><time>2026-04-25T08:17:59.545Z</time></trkpt><trkpt lat="43.8042467" lon="12.5728567"><ele>243.0</ele><time>2026-04-25T08:18:00.545Z</time></trkpt><trkpt lat="43.8042467" lon="12.5727167"><ele>243.0</ele><time>2026-04-25T08:18:01.545Z</time></trkpt><trkpt lat="43.8042367" lon="12.572605"><ele>243.0</ele><time>2026-04-25T08:18:02.545Z</time></trkpt><trkpt lat="43.804225" lon="12.5725033"><ele>243.0</ele><time>2026-04-25T08:18:03.544Z</time></trkpt><trkpt lat="43.8041917" lon="12.5723917"><ele>243.25</ele><time>2026-04-25T08:18:04.545Z</time></trkpt><trkpt lat="43.8041483" lon="12.5722567"><ele>243.5</ele><time>2026-04-25T08:18:05.545Z</time></trkpt><trkpt lat="43.8040883" lon="12.5721017"><ele>243.75</ele><time>2026-04-25T08:18:06.545Z</time></trkpt><trkpt lat="43.8040183" lon="12.5719367"><ele>244.0</ele><time>2026-04-25T08:18:07.545Z</time></trkpt><trkpt lat="43.803945" lon="12.5717583"><ele>245.33333333333331</ele><time>2026-04-25T08:18:08.545Z</time></trkpt><trkpt lat="43.80387" lon="12.57156"><ele>246.66666666666669</ele><time>2026-04-25T08:18:09.544Z</time></trkpt><trkpt lat="43.803805" lon="12.5713617"><ele>248.0</ele><time>2026-04-25T08:18:10.545Z</time></trkpt><trkpt lat="43.8037633" lon="12.5711767"><ele>248.2</ele><time>2026-04-25T08:18:11.545Z</time></trkpt><trkpt lat="43.80376" lon="12.5710167"><ele>248.4</ele><time>2026-04-25T08:18:12.545Z</time></trkpt><trkpt lat="43.8037867" lon="12.57087"><ele>248.59999999999997</ele><time>2026-04-25T08:18:13.545Z</time></trkpt><trkpt lat="43.8038267" lon="12.5707367"><ele>248.79999999999998</ele><time>2026-04-25T08:18:14.545Z</time></trkpt><trkpt lat="43.8038483" lon="12.570625"><ele>249.0</ele><time>2026-04-25T08:18:15.545Z</time></trkpt><trkpt lat="43.8038333" lon="12.5705183"><ele>249.0</ele><time>2026-04-25T08:18:16.545Z</time></trkpt><trkpt lat="43.8037867" lon="12.5704033"><ele>249.0</ele><time>2026-04-25T08:18:17.545Z</time></trkpt><trkpt lat="43.8037017" lon="12.5702933"><ele>249.0</ele><time>2026-04-25T08:18:18.545Z</time></trkpt><trkpt lat="43.80358" lon="12.5701783"><ele>249.0</ele><time>2026-04-25T08:18:19.545Z</time></trkpt><trkpt lat="43.8034367" lon="12.5700367"><ele>254.33333333333331</ele><time>2026-04-25T08:18:20.545Z</time></trkpt><trkpt lat="43.8032783" lon="12.5698617"><ele>259.66666666666663</ele><time>2026-04-25T08:18:21.544Z</time></trkpt><trkpt lat="43.8031133" lon="12.5696767"><ele>265.0</ele><time>2026-04-25T08:18:22.545Z</time></trkpt><trkpt lat="43.8029533" lon="12.5695033"><ele>267.3333333333333</ele><time>2026-04-25T08:18:23.544Z</time></trkpt><trkpt lat="43.8028167" lon="12.5693567"><ele>269.6666666666667</ele><time>2026-04-25T08:18:24.545Z</time></trkpt><trkpt lat="43.8026933" lon="12.5692233"><ele>272.0</ele><time>2026-04-25T08:18:25.544Z</time></trkpt><trkpt lat="43.802605" lon="12.5690867"><ele>272.33333333333337</ele><time>2026-04-25T08:18:26.545Z</time></trkpt><trkpt lat="43.8025283" lon="12.5689333"><ele>272.6666666666667</ele><time>2026-04-25T08:18:27.545Z</time></trkpt><trkpt lat="43.8024467" lon="12.5687467"><ele>273.0</ele><time>2026-04-25T08:18:28.544Z</time></trkpt><trkpt lat="43.8023567" lon="12.5685333"><ele>274.6666666666667</ele><time>2026-04-25T08:18:29.545Z</time></trkpt><trkpt lat="43.8022683" lon="12.5683283"><ele>276.33333333333337</ele><time>2026-04-25T08:18:30.545Z</time></trkpt><trkpt lat="43.8021783" lon="12.56816"><ele>278.0</ele><time>2026-04-25T08:18:31.545Z</time></trkpt><trkpt lat="43.802105" lon="12.5680067"><ele>277.25</ele><time>2026-04-25T08:18:32.545Z</time></trkpt><trkpt lat="43.802045" lon="12.5678533"><ele>276.5</ele><time>2026-04-25T08:18:33.545Z</time></trkpt><trkpt lat="43.801995" lon="12.5677033"><ele>275.75</ele><time>2026-04-25T08:18:34.545Z</time></trkpt><trkpt lat="43.8019583" lon="12.5675467"><ele>275.0</ele><time>2026-04-25T08:18:35.545Z</time></trkpt><trkpt lat="43.8019167" lon="12.5673833"><ele>275.0</ele><time>2026-04-25T08:18:36.545Z</time></trkpt><trkpt lat="43.80185" lon="12.5672267"><ele>275.0</ele><time>2026-04-25T08:18:37.544Z</time></trkpt><trkpt lat="43.801755" lon="12.56709"><ele>275.0</ele><time>2026-04-25T08:18:38.545Z</time></trkpt><trkpt lat="43.8016383" lon="12.5669617"><ele>275.0</ele><time>2026-04-25T08:18:39.544Z</time></trkpt><trkpt lat="43.8015217" lon="12.5668317"><ele>278.0</ele><time>2026-04-25T08:18:40.545Z</time></trkpt><trkpt lat="43.801415" lon="12.5666717"><ele>281.0</ele><time>2026-04-25T08:18:41.544Z</time></trkpt><trkpt lat="43.8013183" lon="12.566505"><ele>284.0</ele><time>2026-04-25T08:18:42.544Z</time></trkpt><trkpt lat="43.801225" lon="12.56636"><ele>284.0</ele><time>2026-04-25T08:18:43.545Z</time></trkpt><trkpt lat="43.8011283" lon="12.56625"><ele>284.0</ele><time>2026-04-25T08:18:44.544Z</time></trkpt><trkpt lat="43.801015" lon="12.566175"><ele>284.0</ele><time>2026-04-25T08:18:45.544Z</time></trkpt><trkpt lat="43.8008867" lon="12.5661283"><ele>284.0</ele><time>2026-04-25T08:18:46.544Z</time></trkpt><trkpt lat="43.8007467" lon="12.5661133"><ele>281.33333333333337</ele><time>2026-04-25T08:18:47.545Z</time></trkpt><trkpt lat="43.8005917" lon="12.5661317"><ele>278.6666666666667</ele><time>2026-04-25T08:18:48.545Z</time></trkpt><trkpt lat="43.8004283" lon="12.566195"><ele>276.0</ele><time>2026-04-25T08:18:49.545Z</time></trkpt><trkpt lat="43.8002767" lon="12.5662667"><ele>276.2</ele><time>2026-04-25T08:18:50.544Z</time></trkpt><trkpt lat="43.8001567" lon="12.5663267"><ele>276.40000000000003</ele><time>2026-04-25T08:18:51.545Z</time></trkpt><trkpt lat="43.8000717" lon="12.5663583"><ele>276.6</ele><time>2026-04-25T08:18:52.545Z</time></trkpt><trkpt lat="43.8000083" lon="12.566355"><ele>276.8</ele><time>2026-04-25T08:18:53.545Z</time></trkpt><trkpt lat="43.79994" lon="12.5662283"><ele>277.0</ele><time>2026-04-25T08:18:55.545Z</time></trkpt><trkpt lat="43.799945" lon="12.5661117"><ele>279.0</ele><time>2026-04-25T08:18:56.544Z</time></trkpt><trkpt lat="43.7999683" lon="12.5659717"><ele>281.0</ele><time>2026-04-25T08:18:57.545Z</time></trkpt><trkpt lat="43.7999983" lon="12.565815"><ele>283.0</ele><time>2026-04-25T08:18:58.544Z</time></trkpt><trkpt lat="43.8000183" lon="12.5656567"><ele>285.0</ele><time>2026-04-25T08:18:59.545Z</time></trkpt><trkpt lat="43.8000067" lon="12.5655217"><ele>287.0</ele><time>2026-04-25T08:19:00.545Z</time></trkpt><trkpt lat="43.799965" lon="12.5653983"><ele>287.0</ele><time>2026-04-25T08:19:01.545Z</time></trkpt><trkpt lat="43.79989" lon="12.5652933"><ele>287.0</ele><time>2026-04-25T08:19:02.545Z</time></trkpt><trkpt lat="43.79979" lon="12.5652"><ele>287.0</ele><time>2026-04-25T08:19:03.545Z</time></trkpt><trkpt lat="43.79967" lon="12.56512"><ele>287.0</ele><time>2026-04-25T08:19:04.545Z</time></trkpt><trkpt lat="43.7995517" lon="12.5650567"><ele>287.0</ele><time>2026-04-25T08:19:05.545Z</time></trkpt><trkpt lat="43.7994517" lon="12.5650233"><ele>287.0</ele><time>2026-04-25T08:19:06.544Z</time></trkpt><trkpt lat="43.7993533" lon="12.565015"><ele>287.0</ele><time>2026-04-25T08:19:07.545Z</time></trkpt><trkpt lat="43.79927" lon="12.5650317"><ele>287.0</ele><time>2026-04-25T08:19:08.545Z</time></trkpt><trkpt lat="43.7991833" lon="12.565075"><ele>287.0</ele><time>2026-04-25T08:19:09.545Z</time></trkpt><trkpt lat="43.7990917" lon="12.5651517"><ele>289.75</ele><time>2026-04-25T08:19:10.545Z</time></trkpt><trkpt lat="43.7990033" lon="12.565255"><ele>292.5</ele><time>2026-04-25T08:19:11.545Z</time></trkpt><trkpt lat="43.7989083" lon="12.5653867"><ele>295.25</ele><time>2026-04-25T08:19:12.545Z</time></trkpt><trkpt lat="43.798815" lon="12.5655333"><ele>298.0</ele><time>2026-04-25T08:19:13.545Z</time></trkpt><trkpt lat="43.798715" lon="12.565655"><ele>298.0</ele><time>2026-04-25T08:19:14.545Z</time></trkpt><trkpt lat="43.7986233" lon="12.5657467"><ele>298.0</ele><time>2026-04-25T08:19:15.545Z</time></trkpt><trkpt lat="43.7985333" lon="12.5658067"><ele>298.0</ele><time>2026-04-25T08:19:16.544Z</time></trkpt><trkpt lat="43.79844" lon="12.56583"><ele>298.0</ele><time>2026-04-25T08:19:17.544Z</time></trkpt><trkpt lat="43.798345" lon="12.565805"><ele>298.0</ele><time>2026-04-25T08:19:18.545Z</time></trkpt><trkpt lat="43.79824" lon="12.5657367"><ele>300.0</ele><time>2026-04-25T08:19:19.544Z</time></trkpt><trkpt lat="43.798125" lon="12.5656283"><ele>302.0</ele><time>2026-04-25T08:19:20.545Z</time></trkpt><trkpt lat="43.79802" lon="12.565515"><ele>304.0</ele><time>2026-04-25T08:19:21.545Z</time></trkpt><trkpt lat="43.7979267" lon="12.5654117"><ele>306.0</ele><time>2026-04-25T08:19:22.545Z</time></trkpt><trkpt lat="43.7978433" lon="12.5653033"><ele>307.6666666666667</ele><time>2026-04-25T08:19:23.545Z</time></trkpt><trkpt lat="43.7977683" lon="12.5651617"><ele>309.33333333333337</ele><time>2026-04-25T08:19:24.545Z</time></trkpt><trkpt lat="43.7976933" lon="12.5649883"><ele>311.0</ele><time>2026-04-25T08:19:25.544Z</time></trkpt><trkpt lat="43.7976117" lon="12.5647683"><ele>310.0</ele><time>2026-04-25T08:19:26.545Z</time></trkpt><trkpt lat="43.79754" lon="12.5645467"><ele>309.0</ele><time>2026-04-25T08:19:27.544Z</time></trkpt><trkpt lat="43.7974833" lon="12.5643483"><ele>308.0</ele><time>2026-04-25T08:19:28.545Z</time></trkpt><trkpt lat="43.7974267" lon="12.564165"><ele>308.0</ele><time>2026-04-25T08:19:29.544Z</time></trkpt><trkpt lat="43.79738" lon="12.5640083"><ele>308.0</ele><time>2026-04-25T08:19:30.545Z</time></trkpt><trkpt lat="43.7973617" lon="12.5638583"><ele>308.0</ele><time>2026-04-25T08:19:31.545Z</time></trkpt><trkpt lat="43.7973767" lon="12.5637183"><ele>308.0</ele><time>2026-04-25T08:19:32.545Z</time></trkpt><trkpt lat="43.7974217" lon="12.563575"><ele>308.0</ele><time>2026-04-25T08:19:33.544Z</time></trkpt><trkpt lat="43.797495" lon="12.5634033"><ele>308.0</ele><time>2026-04-25T08:19:34.545Z</time></trkpt><trkpt lat="43.7975867" lon="12.56321"><ele>308.0</ele><time>2026-04-25T08:19:35.545Z</time></trkpt><trkpt lat="43.7976733" lon="12.5629883"><ele>308.0</ele><time>2026-04-25T08:19:36.545Z</time></trkpt><trkpt lat="43.797755" lon="12.5627467"><ele>306.0</ele><time>2026-04-25T08:19:37.544Z</time></trkpt><trkpt lat="43.7978283" lon="12.5625233"><ele>304.0</ele><time>2026-04-25T08:19:38.544Z</time></trkpt><trkpt lat="43.797895" lon="12.5623233"><ele>302.0</ele><time>2026-04-25T08:19:39.544Z</time></trkpt><trkpt lat="43.7979567" lon="12.5621517"><ele>301.25</ele><time>2026-04-25T08:19:40.544Z</time></trkpt><trkpt lat="43.7980183" lon="12.5619883"><ele>300.5</ele><time>2026-04-25T08:19:41.545Z</time></trkpt><trkpt lat="43.7980767" lon="12.5618317"><ele>299.75</ele><time>2026-04-25T08:19:42.544Z</time></trkpt><trkpt lat="43.7981183" lon="12.5616767"><ele>299.0</ele><time>2026-04-25T08:19:43.545Z</time></trkpt><trkpt lat="43.7981417" lon="12.56151"><ele>299.0</ele><time>2026-04-25T08:19:44.545Z</time></trkpt><trkpt lat="43.7981433" lon="12.56135"><ele>299.0</ele><time>2026-04-25T08:19:45.544Z</time></trkpt><trkpt lat="43.7981033" lon="12.5611783"><ele>299.0</ele><time>2026-04-25T08:19:46.544Z</time></trkpt><trkpt lat="43.7980283" lon="12.5609917"><ele>299.0</ele><time>2026-04-25T08:19:47.545Z</time></trkpt><trkpt lat="43.797935" lon="12.560785"><ele>299.0</ele><time>2026-04-25T08:19:48.544Z</time></trkpt><trkpt lat="43.7978517" lon="12.56059"><ele>299.0</ele><time>2026-04-25T08:19:49.545Z</time></trkpt><trkpt lat="43.797805" lon="12.5604167"><ele>299.0</ele><time>2026-04-25T08:19:50.545Z</time></trkpt><trkpt lat="43.79779" lon="12.56023"><ele>299.0</ele><time>2026-04-25T08:19:51.544Z</time></trkpt><trkpt lat="43.7977867" lon="12.56001"><ele>299.0</ele><time>2026-04-25T08:19:52.545Z</time></trkpt><trkpt lat="43.7978017" lon="12.559785"><ele>299.0</ele><time>2026-04-25T08:19:53.545Z</time></trkpt><trkpt lat="43.7978083" lon="12.5596033"><ele>299.0</ele><time>2026-04-25T08:19:54.545Z</time></trkpt><trkpt lat="43.797795" lon="12.559455"><ele>299.0</ele><time>2026-04-25T08:19:55.545Z</time></trkpt><trkpt lat="43.7977467" lon="12.55931"><ele>300.75</ele><time>2026-04-25T08:19:56.545Z</time></trkpt><trkpt lat="43.7976733" lon="12.5591467"><ele>302.5</ele><time>2026-04-25T08:19:57.545Z</time></trkpt><trkpt lat="43.7975717" lon="12.5589917"><ele>304.25</ele><time>2026-04-25T08:19:58.545Z</time></trkpt><trkpt lat="43.7974833" lon="12.5588583"><ele>306.0</ele><time>2026-04-25T08:19:59.545Z</time></trkpt><trkpt lat="43.7974217" lon="12.5587317"><ele>310.5</ele><time>2026-04-25T08:20:00.545Z</time></trkpt><trkpt lat="43.7973867" lon="12.5585883"><ele>315.0</ele><time>2026-04-25T08:20:01.545Z</time></trkpt><trkpt lat="43.7973717" lon="12.5584083"><ele>319.5</ele><time>2026-04-25T08:20:02.544Z</time></trkpt><trkpt lat="43.7973667" lon="12.558195"><ele>324.0</ele><time>2026-04-25T08:20:03.545Z</time></trkpt><trkpt lat="43.7973733" lon="12.5579667"><ele>325.0</ele><time>2026-04-25T08:20:04.544Z</time></trkpt><trkpt lat="43.7973517" lon="12.5577617"><ele>326.0</ele><time>2026-04-25T08:20:05.544Z</time></trkpt><trkpt lat="43.7973017" lon="12.5575583"><ele>327.0</ele><time>2026-04-25T08:20:06.545Z</time></trkpt><trkpt lat="43.797225" lon="12.557335"><ele>327.0</ele><time>2026-04-25T08:20:07.545Z</time></trkpt><trkpt lat="43.7971467" lon="12.557125"><ele>327.0</ele><time>2026-04-25T08:20:08.544Z</time></trkpt><trkpt lat="43.7970767" lon="12.556945"><ele>327.0</ele><time>2026-04-25T08:20:09.545Z</time></trkpt><trkpt lat="43.7969983" lon="12.556805"><ele>327.0</ele><time>2026-04-25T08:20:10.544Z</time></trkpt><trkpt lat="43.796895" lon="12.5566817"><ele>330.5</ele><time>2026-04-25T08:20:11.544Z</time></trkpt><trkpt lat="43.7967733" lon="12.5565533"><ele>334.0</ele><time>2026-04-25T08:20:12.544Z</time></trkpt><trkpt lat="43.7966533" lon="12.55643"><ele>337.5</ele><time>2026-04-25T08:20:13.545Z</time></trkpt><trkpt lat="43.7965467" lon="12.5563117"><ele>341.0</ele><time>2026-04-25T08:20:14.545Z</time></trkpt><trkpt lat="43.7964617" lon="12.5562083"><ele>339.6666666666667</ele><time>2026-04-25T08:20:15.545Z</time></trkpt><trkpt lat="43.79639" lon="12.5561217"><ele>338.33333333333337</ele><time>2026-04-25T08:20:16.545Z</time></trkpt><trkpt lat="43.7963317" lon="12.5560433"><ele>337.0</ele><time>2026-04-25T08:20:17.545Z</time></trkpt><trkpt lat="43.796285" lon="12.555955"><ele>335.6666666666667</ele><time>2026-04-25T08:20:18.545Z</time></trkpt><trkpt lat="43.79626" lon="12.5558567"><ele>334.3333333333333</ele><time>2026-04-25T08:20:19.545Z</time></trkpt><trkpt lat="43.79625" lon="12.5557467"><ele>333.0</ele><time>2026-04-25T08:20:20.544Z</time></trkpt><trkpt lat="43.7962617" lon="12.555605"><ele>333.0</ele><time>2026-04-25T08:20:21.544Z</time></trkpt><trkpt lat="43.7963017" lon="12.55542"><ele>333.0</ele><time>2026-04-25T08:20:22.544Z</time></trkpt><trkpt lat="43.79635" lon="12.5552"><ele>333.0</ele><time>2026-04-25T08:20:23.544Z</time></trkpt><trkpt lat="43.7963967" lon="12.5549533"><ele>331.6666666666667</ele><time>2026-04-25T08:20:24.544Z</time></trkpt><trkpt lat="43.7964383" lon="12.5547083"><ele>330.33333333333337</ele><time>2026-04-25T08:20:25.545Z</time></trkpt><trkpt lat="43.7964783" lon="12.55448"><ele>329.0</ele><time>2026-04-25T08:20:26.544Z</time></trkpt><trkpt lat="43.79652" lon="12.554285"><ele>331.25</ele><time>2026-04-25T08:20:27.544Z</time></trkpt><trkpt lat="43.7965517" lon="12.554115"><ele>333.5</ele><time>2026-04-25T08:20:28.545Z</time></trkpt><trkpt lat="43.796575" lon="12.55396"><ele>335.75</ele><time>2026-04-25T08:20:29.545Z</time></trkpt><trkpt lat="43.79658" lon="12.5538067"><ele>338.0</ele><time>2026-04-25T08:20:30.545Z</time></trkpt><trkpt lat="43.7965683" lon="12.553635"><ele>339.0</ele><time>2026-04-25T08:20:31.545Z</time></trkpt><trkpt lat="43.7965417" lon="12.5534417"><ele>340.0</ele><time>2026-04-25T08:20:32.545Z</time></trkpt><trkpt lat="43.7965183" lon="12.553255"><ele>341.0</ele><time>2026-04-25T08:20:33.545Z</time></trkpt><trkpt lat="43.796525" lon="12.5530767"><ele>342.0</ele><time>2026-04-25T08:20:34.544Z</time></trkpt><trkpt lat="43.79655" lon="12.5528767"><ele>343.0</ele><time>2026-04-25T08:20:35.545Z</time></trkpt><trkpt lat="43.7965983" lon="12.5526533"><ele>344.0</ele><time>2026-04-25T08:20:36.545Z</time></trkpt><trkpt lat="43.7966567" lon="12.55242"><ele>345.0</ele><time>2026-04-25T08:20:37.544Z</time></trkpt><trkpt lat="43.7967117" lon="12.552185"><ele>345.0</ele><time>2026-04-25T08:20:38.545Z</time></trkpt><trkpt lat="43.796765" lon="12.55194"><ele>345.0</ele><time>2026-04-25T08:20:39.545Z</time></trkpt><trkpt lat="43.7968183" lon="12.5516883"><ele>345.0</ele><time>2026-04-25T08:20:40.545Z</time></trkpt><trkpt lat="43.7968817" lon="12.5514433"><ele>344.6666666666667</ele><time>2026-04-25T08:20:41.545Z</time></trkpt><trkpt lat="43.7969517" lon="12.5512233"><ele>344.33333333333337</ele><time>2026-04-25T08:20:42.544Z</time></trkpt><trkpt lat="43.7970083" lon="12.5509933"><ele>344.0</ele><time>2026-04-25T08:20:43.545Z</time></trkpt><trkpt lat="43.7970533" lon="12.5507517"><ele>344.0</ele><time>2026-04-25T08:20:44.545Z</time></trkpt><trkpt lat="43.7970783" lon="12.550505"><ele>344.0</ele><time>2026-04-25T08:20:45.545Z</time></trkpt><trkpt lat="43.7970933" lon="12.5502583"><ele>344.0</ele><time>2026-04-25T08:20:46.545Z</time></trkpt><trkpt lat="43.7970817" lon="12.5500383"><ele>345.6</ele><time>2026-04-25T08:20:47.545Z</time></trkpt><trkpt lat="43.7970683" lon="12.5498533"><ele>347.2</ele><time>2026-04-25T08:20:48.545Z</time></trkpt><trkpt lat="43.7970567" lon="12.5496983"><ele>348.8</ele><time>2026-04-25T08:20:49.545Z</time></trkpt><trkpt lat="43.79707" lon="12.5495683"><ele>350.40000000000003</ele><time>2026-04-25T08:20:50.544Z</time></trkpt><trkpt lat="43.7971017" lon="12.5494567"><ele>352.0</ele><time>2026-04-25T08:20:51.545Z</time></trkpt><trkpt lat="43.797145" lon="12.549365"><ele>352.0</ele><time>2026-04-25T08:20:52.545Z</time></trkpt><trkpt lat="43.797205" lon="12.5492817"><ele>352.0</ele><time>2026-04-25T08:20:53.545Z</time></trkpt><trkpt lat="43.7972983" lon="12.5492"><ele>352.0</ele><time>2026-04-25T08:20:54.545Z</time></trkpt><trkpt lat="43.7974167" lon="12.549115"><ele>352.0</ele><time>2026-04-25T08:20:55.545Z</time></trkpt><trkpt lat="43.7975333" lon="12.549035"><ele>352.0</ele><time>2026-04-25T08:20:56.545Z</time></trkpt><trkpt lat="43.7976367" lon="12.5489383"><ele>352.0</ele><time>2026-04-25T08:20:57.545Z</time></trkpt><trkpt lat="43.7977317" lon="12.5488133"><ele>352.0</ele><time>2026-04-25T08:20:58.545Z</time></trkpt><trkpt lat="43.7978233" lon="12.5486617"><ele>352.0</ele><time>2026-04-25T08:20:59.545Z</time></trkpt><trkpt lat="43.7979067" lon="12.548485"><ele>347.0</ele><time>2026-04-25T08:21:00.545Z</time></trkpt><trkpt lat="43.7979867" lon="12.5482867"><ele>342.0</ele><time>2026-04-25T08:21:01.545Z</time></trkpt><trkpt lat="43.7980617" lon="12.5480917"><ele>337.0</ele><time>2026-04-25T08:21:02.545Z</time></trkpt><trkpt lat="43.798135" lon="12.5479067"><ele>336.75</ele><time>2026-04-25T08:21:03.545Z</time></trkpt><trkpt lat="43.798205" lon="12.5477217"><ele>336.5</ele><time>2026-04-25T08:21:04.544Z</time></trkpt><trkpt lat="43.7982617" lon="12.54755"><ele>336.25</ele><time>2026-04-25T08:21:05.545Z</time></trkpt><trkpt lat="43.7983" lon="12.54736"><ele>336.0</ele><time>2026-04-25T08:21:06.545Z</time></trkpt><trkpt lat="43.7983367" lon="12.547135"><ele>336.25</ele><time>2026-04-25T08:21:07.545Z</time></trkpt><trkpt lat="43.7983633" lon="12.54692"><ele>336.5</ele><time>2026-04-25T08:21:08.545Z</time></trkpt><trkpt lat="43.798375" lon="12.5467217"><ele>336.75</ele><time>2026-04-25T08:21:09.545Z</time></trkpt><trkpt lat="43.7983683" lon="12.5465333"><ele>337.0</ele><time>2026-04-25T08:21:10.545Z</time></trkpt><trkpt lat="43.79835" lon="12.5463433"><ele>338.75</ele><time>2026-04-25T08:21:11.545Z</time></trkpt><trkpt lat="43.798305" lon="12.546145"><ele>340.5</ele><time>2026-04-25T08:21:12.544Z</time></trkpt><trkpt lat="43.7982533" lon="12.5459583"><ele>342.25</ele><time>2026-04-25T08:21:13.544Z</time></trkpt><trkpt lat="43.7982233" lon="12.5457833"><ele>344.0</ele><time>2026-04-25T08:21:14.544Z</time></trkpt><trkpt lat="43.7982183" lon="12.545575"><ele>346.33333333333337</ele><time>2026-04-25T08:21:15.544Z</time></trkpt><trkpt lat="43.7982217" lon="12.5453533"><ele>348.6666666666667</ele><time>2026-04-25T08:21:16.545Z</time></trkpt><trkpt lat="43.7982167" lon="12.54515"><ele>351.0</ele><time>2026-04-25T08:21:17.545Z</time></trkpt><trkpt lat="43.7981883" lon="12.5449533"><ele>351.0</ele><time>2026-04-25T08:21:18.545Z</time></trkpt><trkpt lat="43.7981433" lon="12.54476"><ele>351.0</ele><time>2026-04-25T08:21:19.544Z</time></trkpt><trkpt lat="43.7980917" lon="12.5445667"><ele>351.0</ele><time>2026-04-25T08:21:20.544Z</time></trkpt><trkpt lat="43.79805" lon="12.5443767"><ele>351.0</ele><time>2026-04-25T08:21:21.545Z</time></trkpt><trkpt lat="43.79802" lon="12.5441883"><ele>350.25</ele><time>2026-04-25T08:21:22.545Z</time></trkpt><trkpt lat="43.7980067" lon="12.543995"><ele>349.5</ele><time>2026-04-25T08:21:23.545Z</time></trkpt><trkpt lat="43.7979933" lon="12.5437983"><ele>348.75</ele><time>2026-04-25T08:21:24.545Z</time></trkpt><trkpt lat="43.7979783" lon="12.5436017"><ele>348.0</ele><time>2026-04-25T08:21:25.545Z</time></trkpt><trkpt lat="43.7979733" lon="12.543405"><ele>348.0</ele><time>2026-04-25T08:21:26.545Z</time></trkpt><trkpt lat="43.79797" lon="12.5431917"><ele>348.0</ele><time>2026-04-25T08:21:27.544Z</time></trkpt><trkpt lat="43.7979683" lon="12.5429483"><ele>348.0</ele><time>2026-04-25T08:21:28.545Z</time></trkpt><trkpt lat="43.7979617" lon="12.5427133"><ele>348.0</ele><time>2026-04-25T08:21:29.545Z</time></trkpt><trkpt lat="43.797955" lon="12.542495"><ele>348.0</ele><time>2026-04-25T08:21:30.545Z</time></trkpt><trkpt lat="43.7979333" lon="12.5422917"><ele>348.0</ele><time>2026-04-25T08:21:31.545Z</time></trkpt><trkpt lat="43.7978933" lon="12.54209"><ele>348.6666666666667</ele><time>2026-04-25T08:21:32.545Z</time></trkpt><trkpt lat="43.797825" lon="12.5418733"><ele>349.33333333333337</ele><time>2026-04-25T08:21:33.544Z</time></trkpt><trkpt lat="43.79774" lon="12.54168"><ele>350.0</ele><time>2026-04-25T08:21:34.545Z</time></trkpt><trkpt lat="43.79766" lon="12.541515"><ele>350.5</ele><time>2026-04-25T08:21:35.545Z</time></trkpt><trkpt lat="43.7975883" lon="12.54135"><ele>351.0</ele><time>2026-04-25T08:21:36.545Z</time></trkpt><trkpt lat="43.7975233" lon="12.5411633"><ele>351.5</ele><time>2026-04-25T08:21:37.545Z</time></trkpt><trkpt lat="43.7974883" lon="12.5409717"><ele>352.0</ele><time>2026-04-25T08:21:38.545Z</time></trkpt><trkpt lat="43.797465" lon="12.54077"><ele>354.5</ele><time>2026-04-25T08:21:39.545Z</time></trkpt><trkpt lat="43.7974317" lon="12.5405683"><ele>357.0</ele><time>2026-04-25T08:21:40.544Z</time></trkpt><trkpt lat="43.7973933" lon="12.5403817"><ele>359.5</ele><time>2026-04-25T08:21:41.545Z</time></trkpt><trkpt lat="43.7973433" lon="12.5401983"><ele>362.0</ele><time>2026-04-25T08:21:42.545Z</time></trkpt><trkpt lat="43.7972817" lon="12.5400233"><ele>363.25</ele><time>2026-04-25T08:21:43.545Z</time></trkpt><trkpt lat="43.7972083" lon="12.53987"><ele>364.5</ele><time>2026-04-25T08:21:44.545Z</time></trkpt><trkpt lat="43.7971183" lon="12.539725"><ele>365.75</ele><time>2026-04-25T08:21:45.545Z</time></trkpt><trkpt lat="43.7970083" lon="12.5395783"><ele>367.0</ele><time>2026-04-25T08:21:46.544Z</time></trkpt><trkpt lat="43.7968933" lon="12.5394483"><ele>369.0</ele><time>2026-04-25T08:21:47.544Z</time></trkpt><trkpt lat="43.796775" lon="12.53933"><ele>371.0</ele><time>2026-04-25T08:21:48.545Z</time></trkpt><trkpt lat="43.7966633" lon="12.5391983"><ele>373.0</ele><time>2026-04-25T08:21:49.544Z</time></trkpt><trkpt lat="43.79655" lon="12.5390383"><ele>373.0</ele><time>2026-04-25T08:21:50.545Z</time></trkpt><trkpt lat="43.796455" lon="12.53888"><ele>373.0</ele><time>2026-04-25T08:21:51.545Z</time></trkpt><trkpt lat="43.796365" lon="12.53874"><ele>373.0</ele><time>2026-04-25T08:21:52.545Z</time></trkpt><trkpt lat="43.7962717" lon="12.538625"><ele>373.0</ele><time>2026-04-25T08:21:53.545Z</time></trkpt><trkpt lat="43.7961583" lon="12.5385317"><ele>373.0</ele><time>2026-04-25T08:21:54.545Z</time></trkpt><trkpt lat="43.7960233" lon="12.5384567"><ele>373.0</ele><time>2026-04-25T08:21:55.545Z</time></trkpt><trkpt lat="43.795865" lon="12.5383917"><ele>373.0</ele><time>2026-04-25T08:21:56.545Z</time></trkpt><trkpt lat="43.7956967" lon="12.5383233"><ele>373.0</ele><time>2026-04-25T08:21:57.544Z</time></trkpt><trkpt lat="43.795535" lon="12.5382617"><ele>373.0</ele><time>2026-04-25T08:21:58.545Z</time></trkpt><trkpt lat="43.7954" lon="12.5382033"><ele>373.0</ele><time>2026-04-25T08:21:59.544Z</time></trkpt><trkpt lat="43.79528" lon="12.5381483"><ele>373.0</ele><time>2026-04-25T08:22:00.544Z</time></trkpt><trkpt lat="43.79517" lon="12.5380817"><ele>372.5</ele><time>2026-04-25T08:22:01.545Z</time></trkpt><trkpt lat="43.7950867" lon="12.5379983"><ele>372.0</ele><time>2026-04-25T08:22:02.545Z</time></trkpt><trkpt lat="43.7950167" lon="12.5378867"><ele>371.5</ele><time>2026-04-25T08:22:03.544Z</time></trkpt><trkpt lat="43.7949667" lon="12.53774"><ele>371.0</ele><time>2026-04-25T08:22:04.545Z</time></trkpt><trkpt lat="43.7949317" lon="12.53756"><ele>371.0</ele><time>2026-04-25T08:22:05.545Z</time></trkpt><trkpt lat="43.794905" lon="12.537345"><ele>371.0</ele><time>2026-04-25T08:22:06.545Z</time></trkpt><trkpt lat="43.7948767" lon="12.5370983"><ele>371.0</ele><time>2026-04-25T08:22:07.545Z</time></trkpt><trkpt lat="43.7948583" lon="12.536855"><ele>370.33333333333337</ele><time>2026-04-25T08:22:08.544Z</time></trkpt><trkpt lat="43.79484" lon="12.536625"><ele>369.6666666666667</ele><time>2026-04-25T08:22:09.545Z</time></trkpt><trkpt lat="43.794815" lon="12.5364167"><ele>369.0</ele><time>2026-04-25T08:22:10.545Z</time></trkpt><trkpt lat="43.7947783" lon="12.536235"><ele>367.25</ele><time>2026-04-25T08:22:11.545Z</time></trkpt><trkpt lat="43.794735" lon="12.53607"><ele>365.5</ele><time>2026-04-25T08:22:12.545Z</time></trkpt><trkpt lat="43.7946783" lon="12.535915"><ele>363.75</ele><time>2026-04-25T08:22:13.544Z</time></trkpt><trkpt lat="43.7945967" lon="12.5357783"><ele>362.0</ele><time>2026-04-25T08:22:14.544Z</time></trkpt><trkpt lat="43.7944933" lon="12.5356533"><ele>362.0</ele><time>2026-04-25T08:22:15.544Z</time></trkpt><trkpt lat="43.794375" lon="12.5355267"><ele>362.0</ele><time>2026-04-25T08:22:16.545Z</time></trkpt><trkpt lat="43.7942467" lon="12.5354033"><ele>362.0</ele><time>2026-04-25T08:22:17.544Z</time></trkpt><trkpt lat="43.7941067" lon="12.5352817"><ele>362.0</ele><time>2026-04-25T08:22:18.544Z</time></trkpt><trkpt lat="43.7939667" lon="12.5351683"><ele>362.0</ele><time>2026-04-25T08:22:19.544Z</time></trkpt><trkpt lat="43.7938267" lon="12.5350567"><ele>362.0</ele><time>2026-04-25T08:22:20.545Z</time></trkpt><trkpt lat="43.7936883" lon="12.5349533"><ele>362.0</ele><time>2026-04-25T08:22:21.545Z</time></trkpt><trkpt lat="43.7935567" lon="12.5348517"><ele>362.0</ele><time>2026-04-25T08:22:22.545Z</time></trkpt><trkpt lat="43.79343" lon="12.5347533"><ele>362.0</ele><time>2026-04-25T08:22:23.544Z</time></trkpt><trkpt lat="43.79332" lon="12.5346483"><ele>362.0</ele><time>2026-04-25T08:22:24.545Z</time></trkpt><trkpt lat="43.7932333" lon="12.534545"><ele>363.0</ele><time>2026-04-25T08:22:25.545Z</time></trkpt><trkpt lat="43.7931683" lon="12.5344283"><ele>364.0</ele><time>2026-04-25T08:22:26.544Z</time></trkpt><trkpt lat="43.793105" lon="12.5342717"><ele>365.0</ele><time>2026-04-25T08:22:27.545Z</time></trkpt><trkpt lat="43.7930283" lon="12.53409"><ele>366.0</ele><time>2026-04-25T08:22:28.545Z</time></trkpt><trkpt lat="43.79294" lon="12.5339283"><ele>366.0</ele><time>2026-04-25T08:22:29.545Z</time></trkpt><trkpt lat="43.7928267" lon="12.533785"><ele>366.0</ele><time>2026-04-25T08:22:30.545Z</time></trkpt><trkpt lat="43.792705" lon="12.5336633"><ele>366.0</ele><time>2026-04-25T08:22:31.545Z</time></trkpt><trkpt lat="43.7925817" lon="12.5335583"><ele>366.0</ele><time>2026-04-25T08:22:32.544Z</time></trkpt><trkpt lat="43.7924467" lon="12.5334567"><ele>364.5</ele><time>2026-04-25T08:22:33.544Z</time></trkpt><trkpt lat="43.7923033" lon="12.533365"><ele>363.0</ele><time>2026-04-25T08:22:34.544Z</time></trkpt><trkpt lat="43.7921667" lon="12.53329"><ele>361.5</ele><time>2026-04-25T08:22:35.545Z</time></trkpt><trkpt lat="43.7920317" lon="12.5332283"><ele>360.0</ele><time>2026-04-25T08:22:36.545Z</time></trkpt><trkpt lat="43.7918933" lon="12.533195"><ele>359.25</ele><time>2026-04-25T08:22:37.545Z</time></trkpt><trkpt lat="43.7917483" lon="12.5331817"><ele>358.5</ele><time>2026-04-25T08:22:38.545Z</time></trkpt><trkpt lat="43.7916067" lon="12.53318"><ele>357.75</ele><time>2026-04-25T08:22:39.545Z</time></trkpt><trkpt lat="43.7914867" lon="12.5331767"><ele>357.0</ele><time>2026-04-25T08:22:40.545Z</time></trkpt><trkpt lat="43.7913883" lon="12.533145"><ele>357.0</ele><time>2026-04-25T08:22:41.545Z</time></trkpt><trkpt lat="43.7913" lon="12.5330883"><ele>357.0</ele><time>2026-04-25T08:22:42.545Z</time></trkpt><trkpt lat="43.791225" lon="12.533"><ele>357.0</ele><time>2026-04-25T08:22:43.545Z</time></trkpt><trkpt lat="43.791145" lon="12.532865"><ele>357.0</ele><time>2026-04-25T08:22:44.544Z</time></trkpt><trkpt lat="43.79106" lon="12.532705"><ele>357.6666666666667</ele><time>2026-04-25T08:22:45.545Z</time></trkpt><trkpt lat="43.7909717" lon="12.5325333"><ele>358.33333333333337</ele><time>2026-04-25T08:22:46.545Z</time></trkpt><trkpt lat="43.79088" lon="12.5323517"><ele>359.0</ele><time>2026-04-25T08:22:47.545Z</time></trkpt><trkpt lat="43.7907867" lon="12.53217"><ele>361.33333333333337</ele><time>2026-04-25T08:22:48.545Z</time></trkpt><trkpt lat="43.7906883" lon="12.5319833"><ele>363.6666666666667</ele><time>2026-04-25T08:22:49.544Z</time></trkpt><trkpt lat="43.7905883" lon="12.5317983"><ele>366.0</ele><time>2026-04-25T08:22:50.545Z</time></trkpt><trkpt lat="43.79048" lon="12.5316133"><ele>366.0</ele><time>2026-04-25T08:22:51.545Z</time></trkpt><trkpt lat="43.790375" lon="12.5314467"><ele>366.0</ele><time>2026-04-25T08:22:52.545Z</time></trkpt><trkpt lat="43.7902867" lon="12.531295"><ele>366.0</ele><time>2026-04-25T08:22:53.545Z</time></trkpt><trkpt lat="43.7902117" lon="12.531165"><ele>366.0</ele><time>2026-04-25T08:22:54.544Z</time></trkpt><trkpt lat="43.7901467" lon="12.5310517"><ele>363.8</ele><time>2026-04-25T08:22:55.545Z</time></trkpt><trkpt lat="43.790125" lon="12.53094"><ele>361.6</ele><time>2026-04-25T08:22:56.545Z</time></trkpt><trkpt lat="43.790065" lon="12.530805"><ele>359.4</ele><time>2026-04-25T08:22:57.545Z</time></trkpt><trkpt lat="43.79001" lon="12.5306767"><ele>357.2</ele><time>2026-04-25T08:22:58.544Z</time></trkpt><trkpt lat="43.78995" lon="12.5305433"><ele>355.0</ele><time>2026-04-25T08:22:59.545Z</time></trkpt><trkpt lat="43.78988" lon="12.5303967"><ele>352.3333333333333</ele><time>2026-04-25T08:23:00.544Z</time></trkpt><trkpt lat="43.7898083" lon="12.5302233"><ele>349.6666666666667</ele><time>2026-04-25T08:23:01.545Z</time></trkpt><trkpt lat="43.7897233" lon="12.5300333"><ele>347.0</ele><time>2026-04-25T08:23:02.545Z</time></trkpt><trkpt lat="43.7896417" lon="12.5298617"><ele>347.0</ele><time>2026-04-25T08:23:03.545Z</time></trkpt><trkpt lat="43.7895683" lon="12.5297167"><ele>347.0</ele><time>2026-04-25T08:23:04.545Z</time></trkpt><trkpt lat="43.7894833" lon="12.5296317"><ele>347.0</ele><time>2026-04-25T08:23:05.545Z</time></trkpt><trkpt lat="43.78939" lon="12.52959"><ele>347.0</ele><time>2026-04-25T08:23:06.545Z</time></trkpt><trkpt lat="43.7892883" lon="12.5295617"><ele>347.0</ele><time>2026-04-25T08:23:07.545Z</time></trkpt><trkpt lat="43.7891783" lon="12.529555"><ele>350.0</ele><time>2026-04-25T08:23:08.545Z</time></trkpt><trkpt lat="43.7890467" lon="12.52954"><ele>353.0</ele><time>2026-04-25T08:23:09.545Z</time></trkpt><trkpt lat="43.7888983" lon="12.52951"><ele>356.0</ele><time>2026-04-25T08:23:10.545Z</time></trkpt><trkpt lat="43.78873" lon="12.52948"><ele>356.0</ele><time>2026-04-25T08:23:11.544Z</time></trkpt><trkpt lat="43.78856" lon="12.52946"><ele>356.0</ele><time>2026-04-25T08:23:12.545Z</time></trkpt><trkpt lat="43.7884133" lon="12.5294417"><ele>356.0</ele><time>2026-04-25T08:23:13.544Z</time></trkpt><trkpt lat="43.788305" lon="12.5294017"><ele>356.0</ele><time>2026-04-25T08:23:14.544Z</time></trkpt><trkpt lat="43.788215" lon="12.52933"><ele>359.5</ele><time>2026-04-25T08:23:15.545Z</time></trkpt><trkpt lat="43.7881267" lon="12.529225"><ele>363.0</ele><time>2026-04-25T08:23:16.545Z</time></trkpt><trkpt lat="43.7880317" lon="12.5290767"><ele>366.5</ele><time>2026-04-25T08:23:17.545Z</time></trkpt><trkpt lat="43.7879117" lon="12.5289083"><ele>370.0</ele><time>2026-04-25T08:23:18.545Z</time></trkpt><trkpt lat="43.7878233" lon="12.5287383"><ele>368.75</ele><time>2026-04-25T08:23:19.545Z</time></trkpt><trkpt lat="43.7877383" lon="12.52858"><ele>367.5</ele><time>2026-04-25T08:23:20.545Z</time></trkpt><trkpt lat="43.7876617" lon="12.52841"><ele>366.25</ele><time>2026-04-25T08:23:21.545Z</time></trkpt><trkpt lat="43.7875783" lon="12.5282233"><ele>365.0</ele><time>2026-04-25T08:23:22.545Z</time></trkpt><trkpt lat="43.7875517" lon="12.5280033"><ele>370.75</ele><time>2026-04-25T08:23:23.544Z</time></trkpt><trkpt lat="43.7875017" lon="12.5278033"><ele>376.5</ele><time>2026-04-25T08:23:24.545Z</time></trkpt><trkpt lat="43.7874367" lon="12.527625"><ele>382.25</ele><time>2026-04-25T08:23:25.545Z</time></trkpt><trkpt lat="43.7873517" lon="12.52745"><ele>388.0</ele><time>2026-04-25T08:23:26.545Z</time></trkpt><trkpt lat="43.7872267" lon="12.52728"><ele>388.0</ele><time>2026-04-25T08:23:27.545Z</time></trkpt><trkpt lat="43.7871083" lon="12.5270917"><ele>388.0</ele><time>2026-04-25T08:23:28.545Z</time></trkpt><trkpt lat="43.7869917" lon="12.5269383"><ele>388.0</ele><time>2026-04-25T08:23:29.544Z</time></trkpt><trkpt lat="43.7868967" lon="12.526805"><ele>390.79999999999995</ele><time>2026-04-25T08:23:30.545Z</time></trkpt><trkpt lat="43.7867967" lon="12.526725"><ele>393.6</ele><time>2026-04-25T08:23:31.545Z</time></trkpt><trkpt lat="43.7867017" lon="12.5266767"><ele>396.4</ele><time>2026-04-25T08:23:32.545Z</time></trkpt><trkpt lat="43.7865983" lon="12.526655"><ele>399.20000000000005</ele><time>2026-04-25T08:23:33.545Z</time></trkpt><trkpt lat="43.7864817" lon="12.5266483"><ele>402.0</ele><time>2026-04-25T08:23:34.545Z</time></trkpt><trkpt lat="43.78636" lon="12.526655"><ele>402.0</ele><time>2026-04-25T08:23:35.545Z</time></trkpt><trkpt lat="43.7862583" lon="12.5266883"><ele>402.0</ele><time>2026-04-25T08:23:36.545Z</time></trkpt><trkpt lat="43.786165" lon="12.52675"><ele>402.0</ele><time>2026-04-25T08:23:37.545Z</time></trkpt><trkpt lat="43.7860883" lon="12.5268517"><ele>402.0</ele><time>2026-04-25T08:23:38.544Z</time></trkpt><trkpt lat="43.7860167" lon="12.527005"><ele>402.0</ele><time>2026-04-25T08:23:39.545Z</time></trkpt><trkpt lat="43.7859217" lon="12.527195"><ele>405.5</ele><time>2026-04-25T08:23:40.545Z</time></trkpt><trkpt lat="43.785835" lon="12.5273783"><ele>409.0</ele><time>2026-04-25T08:23:41.545Z</time></trkpt><trkpt lat="43.7857667" lon="12.5275517"><ele>412.5</ele><time>2026-04-25T08:23:42.545Z</time></trkpt><trkpt lat="43.7856783" lon="12.5276883"><ele>416.0</ele><time>2026-04-25T08:23:43.545Z</time></trkpt><trkpt lat="43.78559" lon="12.5278167"><ele>416.4</ele><time>2026-04-25T08:23:44.545Z</time></trkpt><trkpt lat="43.7855" lon="12.5279083"><ele>416.8</ele><time>2026-04-25T08:23:45.545Z</time></trkpt><trkpt lat="43.7854183" lon="12.52798"><ele>417.2</ele><time>2026-04-25T08:23:46.545Z</time></trkpt><trkpt lat="43.7853317" lon="12.5280133"><ele>417.59999999999997</ele><time>2026-04-25T08:23:47.545Z</time></trkpt><trkpt lat="43.7852367" lon="12.52801"><ele>418.0</ele><time>2026-04-25T08:23:48.545Z</time></trkpt><trkpt lat="43.7851367" lon="12.527985"><ele>418.0</ele><time>2026-04-25T08:23:49.545Z</time></trkpt><trkpt lat="43.7850017" lon="12.5279517"><ele>418.0</ele><time>2026-04-25T08:23:50.545Z</time></trkpt><trkpt lat="43.7848767" lon="12.527935"><ele>418.0</ele><time>2026-04-25T08:23:51.545Z</time></trkpt><trkpt lat="43.7847483" lon="12.5279467"><ele>418.0</ele><time>2026-04-25T08:23:52.545Z</time></trkpt><trkpt lat="43.784615" lon="12.5279683"><ele>418.0</ele><time>2026-04-25T08:23:53.545Z</time></trkpt><trkpt lat="43.784485" lon="12.5279767"><ele>418.0</ele><time>2026-04-25T08:23:54.544Z</time></trkpt><trkpt lat="43.7843533" lon="12.5279683"><ele>418.0</ele><time>2026-04-25T08:23:55.545Z</time></trkpt><trkpt lat="43.7842183" lon="12.52794"><ele>418.0</ele><time>2026-04-25T08:23:56.545Z</time></trkpt><trkpt lat="43.7840883" lon="12.527885"><ele>419.0</ele><time>2026-04-25T08:23:57.544Z</time></trkpt><trkpt lat="43.7839767" lon="12.5278067"><ele>420.0</ele><time>2026-04-25T08:23:58.545Z</time></trkpt><trkpt lat="43.7838817" lon="12.5277317"><ele>421.0</ele><time>2026-04-25T08:23:59.545Z</time></trkpt><trkpt lat="43.7837883" lon="12.5276817"><ele>422.0</ele><time>2026-04-25T08:24:00.544Z</time></trkpt><trkpt lat="43.783705" lon="12.5276783"><ele>423.0</ele><time>2026-04-25T08:24:01.545Z</time></trkpt><trkpt lat="43.7836017" lon="12.5277033"><ele>423.25</ele><time>2026-04-25T08:24:02.545Z</time></trkpt><trkpt lat="43.783485" lon="12.5277617"><ele>423.5</ele><time>2026-04-25T08:24:03.545Z</time></trkpt><trkpt lat="43.7833567" lon="12.5278383"><ele>423.75</ele><time>2026-04-25T08:24:04.544Z</time></trkpt><trkpt lat="43.783235" lon="12.5279167"><ele>424.0</ele><time>2026-04-25T08:24:05.544Z</time></trkpt><trkpt lat="43.7830967" lon="12.52795"><ele>427.0</ele><time>2026-04-25T08:24:06.545Z</time></trkpt><trkpt lat="43.7829667" lon="12.5279833"><ele>430.0</ele><time>2026-04-25T08:24:07.545Z</time></trkpt><trkpt lat="43.7828183" lon="12.5279717"><ele>433.0</ele><time>2026-04-25T08:24:08.544Z</time></trkpt><trkpt lat="43.78266" lon="12.5279467"><ele>436.0</ele><time>2026-04-25T08:24:09.545Z</time></trkpt><trkpt lat="43.7824933" lon="12.527925"><ele>439.6666666666667</ele><time>2026-04-25T08:24:10.545Z</time></trkpt><trkpt lat="43.7823183" lon="12.5279217"><ele>443.33333333333337</ele><time>2026-04-25T08:24:11.545Z</time></trkpt><trkpt lat="43.7821317" lon="12.52794"><ele>447.0</ele><time>2026-04-25T08:24:12.545Z</time></trkpt><trkpt lat="43.78194" lon="12.5279817"><ele>447.0</ele><time>2026-04-25T08:24:13.544Z</time></trkpt><trkpt lat="43.7817717" lon="12.52802"><ele>447.0</ele><time>2026-04-25T08:24:14.545Z</time></trkpt><trkpt lat="43.7816183" lon="12.5280633"><ele>447.0</ele><time>2026-04-25T08:24:15.545Z</time></trkpt><trkpt lat="43.7814683" lon="12.5281183"><ele>447.0</ele><time>2026-04-25T08:24:16.544Z</time></trkpt><trkpt lat="43.7813" lon="12.5282183"><ele>447.0</ele><time>2026-04-25T08:24:17.545Z</time></trkpt><trkpt lat="43.7811267" lon="12.5283333"><ele>447.0</ele><time>2026-04-25T08:24:18.544Z</time></trkpt><trkpt lat="43.7809517" lon="12.52845"><ele>447.25</ele><time>2026-04-25T08:24:19.545Z</time></trkpt><trkpt lat="43.7807967" lon="12.52854"><ele>447.5</ele><time>2026-04-25T08:24:20.545Z</time></trkpt><trkpt lat="43.780665" lon="12.528625"><ele>447.75</ele><time>2026-04-25T08:24:21.545Z</time></trkpt><trkpt lat="43.7805467" lon="12.528695"><ele>448.0</ele><time>2026-04-25T08:24:22.545Z</time></trkpt><trkpt lat="43.7804683" lon="12.52877"><ele>448.0</ele><time>2026-04-25T08:24:23.545Z</time></trkpt><trkpt lat="43.7803917" lon="12.5288633"><ele>447.99999999999994</ele><time>2026-04-25T08:24:24.545Z</time></trkpt><trkpt lat="43.78032" lon="12.5289833"><ele>447.99999999999994</ele><time>2026-04-25T08:24:25.545Z</time></trkpt><trkpt lat="43.7802583" lon="12.52912"><ele>448.0</ele><time>2026-04-25T08:24:26.545Z</time></trkpt><trkpt lat="43.7802267" lon="12.5292683"><ele>448.0</ele><time>2026-04-25T08:24:27.545Z</time></trkpt><trkpt lat="43.7802117" lon="12.5293917"><ele>448.0</ele><time>2026-04-25T08:24:28.545Z</time></trkpt><trkpt lat="43.7802233" lon="12.52949"><ele>447.99999999999994</ele><time>2026-04-25T08:24:29.545Z</time></trkpt><trkpt lat="43.7802383" lon="12.5296567"><ele>447.99999999999994</ele><time>2026-04-25T08:24:31.545Z</time></trkpt><trkpt lat="43.7803233" lon="12.52977"><ele>448.0</ele><time>2026-04-25T08:24:33.545Z</time></trkpt><trkpt lat="43.7803917" lon="12.52982"><ele>448.0</ele><time>2026-04-25T08:24:34.545Z</time></trkpt><trkpt lat="43.78049" lon="12.5298333"><ele>445.0</ele><time>2026-04-25T08:24:35.545Z</time></trkpt><trkpt lat="43.7806" lon="12.52983"><ele>442.0</ele><time>2026-04-25T08:24:36.545Z</time></trkpt><trkpt lat="43.7807283" lon="12.529815"><ele>439.0</ele><time>2026-04-25T08:24:37.545Z</time></trkpt><trkpt lat="43.7808533" lon="12.5297933"><ele>436.0</ele><time>2026-04-25T08:24:38.544Z</time></trkpt><trkpt lat="43.7809633" lon="12.5298"><ele>437.5</ele><time>2026-04-25T08:24:39.544Z</time></trkpt><trkpt lat="43.781075" lon="12.5298417"><ele>439.0</ele><time>2026-04-25T08:24:40.545Z</time></trkpt><trkpt lat="43.7812083" lon="12.5299017"><ele>440.5</ele><time>2026-04-25T08:24:41.545Z</time></trkpt><trkpt lat="43.781305" lon="12.5300033"><ele>442.0</ele><time>2026-04-25T08:24:42.545Z</time></trkpt><trkpt lat="43.7813833" lon="12.5301383"><ele>442.0</ele><time>2026-04-25T08:24:43.544Z</time></trkpt><trkpt lat="43.7814617" lon="12.5302967"><ele>442.0</ele><time>2026-04-25T08:24:44.545Z</time></trkpt><trkpt lat="43.7815133" lon="12.5304783"><ele>442.0</ele><time>2026-04-25T08:24:45.544Z</time></trkpt><trkpt lat="43.781555" lon="12.5306633"><ele>442.0</ele><time>2026-04-25T08:24:46.545Z</time></trkpt><trkpt lat="43.7816117" lon="12.5308667"><ele>439.5</ele><time>2026-04-25T08:24:47.545Z</time></trkpt><trkpt lat="43.7816483" lon="12.5310817"><ele>437.0</ele><time>2026-04-25T08:24:48.545Z</time></trkpt><trkpt lat="43.7816817" lon="12.5312783"><ele>434.5</ele><time>2026-04-25T08:24:49.545Z</time></trkpt><trkpt lat="43.7817117" lon="12.5314633"><ele>432.0</ele><time>2026-04-25T08:24:50.544Z</time></trkpt><trkpt lat="43.7817" lon="12.5316433"><ele>430.0</ele><time>2026-04-25T08:24:51.545Z</time></trkpt><trkpt lat="43.78171" lon="12.53183"><ele>428.0</ele><time>2026-04-25T08:24:52.544Z</time></trkpt><trkpt lat="43.78172" lon="12.5320033"><ele>426.0</ele><time>2026-04-25T08:24:53.545Z</time></trkpt><trkpt lat="43.7817233" lon="12.532165"><ele>424.0</ele><time>2026-04-25T08:24:54.544Z</time></trkpt><trkpt lat="43.781735" lon="12.5323117"><ele>423.6</ele><time>2026-04-25T08:24:55.544Z</time></trkpt><trkpt lat="43.7817433" lon="12.53245"><ele>423.2</ele><time>2026-04-25T08:24:56.544Z</time></trkpt><trkpt lat="43.7817483" lon="12.5325767"><ele>422.8</ele><time>2026-04-25T08:24:57.545Z</time></trkpt><trkpt lat="43.7817567" lon="12.532695"><ele>422.40000000000003</ele><time>2026-04-25T08:24:58.545Z</time></trkpt><trkpt lat="43.781785" lon="12.532805"><ele>422.0</ele><time>2026-04-25T08:24:59.545Z</time></trkpt><trkpt lat="43.7818233" lon="12.532925"><ele>420.6</ele><time>2026-04-25T08:25:00.544Z</time></trkpt><trkpt lat="43.78189" lon="12.5330433"><ele>419.20000000000005</ele><time>2026-04-25T08:25:01.545Z</time></trkpt><trkpt lat="43.78193" lon="12.53316"><ele>417.8</ele><time>2026-04-25T08:25:02.545Z</time></trkpt><trkpt lat="43.78195" lon="12.5332833"><ele>416.4</ele><time>2026-04-25T08:25:03.545Z</time></trkpt><trkpt lat="43.78194" lon="12.5334"><ele>415.0</ele><time>2026-04-25T08:25:04.545Z</time></trkpt><trkpt lat="43.7819117" lon="12.533535"><ele>415.0</ele><time>2026-04-25T08:25:05.545Z</time></trkpt><trkpt lat="43.7818833" lon="12.5336783"><ele>415.0</ele><time>2026-04-25T08:25:06.545Z</time></trkpt><trkpt lat="43.7818567" lon="12.5338133"><ele>415.0</ele><time>2026-04-25T08:25:07.545Z</time></trkpt><trkpt lat="43.7818433" lon="12.53394"><ele>415.0</ele><time>2026-04-25T08:25:08.544Z</time></trkpt><trkpt lat="43.7818533" lon="12.53409"><ele>415.0</ele><time>2026-04-25T08:25:09.545Z</time></trkpt><trkpt lat="43.7818767" lon="12.534265"><ele>410.6666666666667</ele><time>2026-04-25T08:25:10.545Z</time></trkpt><trkpt lat="43.7819167" lon="12.5344733"><ele>406.33333333333337</ele><time>2026-04-25T08:25:11.544Z</time></trkpt><trkpt lat="43.7819583" lon="12.5346867"><ele>402.0</ele><time>2026-04-25T08:25:12.545Z</time></trkpt><trkpt lat="43.7820117" lon="12.5348933"><ele>401.0</ele><time>2026-04-25T08:25:13.545Z</time></trkpt><trkpt lat="43.78205" lon="12.5350883"><ele>400.0</ele><time>2026-04-25T08:25:14.545Z</time></trkpt><trkpt lat="43.782095" lon="12.5352433"><ele>399.0</ele><time>2026-04-25T08:25:15.545Z</time></trkpt><trkpt lat="43.78214" lon="12.5353633"><ele>398.0</ele><time>2026-04-25T08:25:16.544Z</time></trkpt><trkpt lat="43.78216" lon="12.5354583"><ele>397.0</ele><time>2026-04-25T08:25:17.545Z</time></trkpt><trkpt lat="43.7821367" lon="12.5356033"><ele>397.0</ele><time>2026-04-25T08:25:19.545Z</time></trkpt><trkpt lat="43.7820917" lon="12.5356833"><ele>397.0</ele><time>2026-04-25T08:25:20.545Z</time></trkpt><trkpt lat="43.7820117" lon="12.5357783"><ele>397.0</ele><time>2026-04-25T08:25:21.545Z</time></trkpt><trkpt lat="43.7819067" lon="12.5358867"><ele>397.0</ele><time>2026-04-25T08:25:22.545Z</time></trkpt><trkpt lat="43.7817867" lon="12.535985"><ele>397.0</ele><time>2026-04-25T08:25:23.545Z</time></trkpt><trkpt lat="43.7816767" lon="12.53607"><ele>399.0</ele><time>2026-04-25T08:25:24.545Z</time></trkpt><trkpt lat="43.78156" lon="12.5361467"><ele>401.0</ele><time>2026-04-25T08:25:25.545Z</time></trkpt><trkpt lat="43.781445" lon="12.5362067"><ele>403.0</ele><time>2026-04-25T08:25:26.545Z</time></trkpt><trkpt lat="43.7813433" lon="12.53626"><ele>405.0</ele><time>2026-04-25T08:25:27.545Z</time></trkpt><trkpt lat="43.7812383" lon="12.5363233"><ele>406.75</ele><time>2026-04-25T08:25:28.545Z</time></trkpt><trkpt lat="43.781135" lon="12.5364033"><ele>408.5</ele><time>2026-04-25T08:25:29.544Z</time></trkpt><trkpt lat="43.7810333" lon="12.5364817"><ele>410.25</ele><time>2026-04-25T08:25:30.544Z</time></trkpt><trkpt lat="43.7809483" lon="12.536565"><ele>412.0</ele><time>2026-04-25T08:25:31.544Z</time></trkpt><trkpt lat="43.7808267" lon="12.5366367"><ele>407.25</ele><time>2026-04-25T08:25:32.545Z</time></trkpt><trkpt lat="43.78072" lon="12.5367017"><ele>402.5</ele><time>2026-04-25T08:25:33.545Z</time></trkpt><trkpt lat="43.7806067" lon="12.53677"><ele>397.75</ele><time>2026-04-25T08:25:34.545Z</time></trkpt><trkpt lat="43.7805117" lon="12.5368383"><ele>393.0</ele><time>2026-04-25T08:25:35.544Z</time></trkpt><trkpt lat="43.78039" lon="12.536895"><ele>393.0</ele><time>2026-04-25T08:25:36.544Z</time></trkpt><trkpt lat="43.780295" lon="12.53696"><ele>393.0</ele><time>2026-04-25T08:25:37.545Z</time></trkpt><trkpt lat="43.7802033" lon="12.5370117"><ele>393.0</ele><time>2026-04-25T08:25:38.544Z</time></trkpt><trkpt lat="43.7801033" lon="12.53704"><ele>393.0</ele><time>2026-04-25T08:25:39.544Z</time></trkpt><trkpt lat="43.7799933" lon="12.537055"><ele>393.0</ele><time>2026-04-25T08:25:40.545Z</time></trkpt><trkpt lat="43.779895" lon="12.537045"><ele>390.0</ele><time>2026-04-25T08:25:41.544Z</time></trkpt><trkpt lat="43.7797983" lon="12.537015"><ele>387.0</ele><time>2026-04-25T08:25:42.544Z</time></trkpt><trkpt lat="43.7797067" lon="12.53698"><ele>384.0</ele><time>2026-04-25T08:25:43.545Z</time></trkpt><trkpt lat="43.779625" lon="12.5369567"><ele>381.0</ele><time>2026-04-25T08:25:44.545Z</time></trkpt><trkpt lat="43.7795417" lon="12.53695"><ele>378.0</ele><time>2026-04-25T08:25:45.545Z</time></trkpt><trkpt lat="43.77945" lon="12.53696"><ele>378.0</ele><time>2026-04-25T08:25:46.545Z</time></trkpt><trkpt lat="43.7793633" lon="12.5369917"><ele>378.0</ele><time>2026-04-25T08:25:47.545Z</time></trkpt><trkpt lat="43.7792683" lon="12.5370467"><ele>378.0</ele><time>2026-04-25T08:25:48.544Z</time></trkpt><trkpt lat="43.7791833" lon="12.5371067"><ele>378.0</ele><time>2026-04-25T08:25:49.544Z</time></trkpt><trkpt lat="43.7791" lon="12.5371683"><ele>378.0</ele><time>2026-04-25T08:25:50.543Z</time></trkpt><trkpt lat="43.7790233" lon="12.5372183"><ele>377.6666666666667</ele><time>2026-04-25T08:25:51.543Z</time></trkpt><trkpt lat="43.7789517" lon="12.5372767"><ele>377.3333333333333</ele><time>2026-04-25T08:25:52.543Z</time></trkpt><trkpt lat="43.7789" lon="12.5373317"><ele>377.0</ele><time>2026-04-25T08:25:53.544Z</time></trkpt><trkpt lat="43.7788467" lon="12.5373933"><ele>376.66666666666663</ele><time>2026-04-25T08:25:54.543Z</time></trkpt><trkpt lat="43.7788183" lon="12.537485"><ele>376.3333333333333</ele><time>2026-04-25T08:25:55.544Z</time></trkpt><trkpt lat="43.7788233" lon="12.5376617"><ele>376.0</ele><time>2026-04-25T08:25:57.544Z</time></trkpt><trkpt lat="43.77885" lon="12.5377617"><ele>376.0</ele><time>2026-04-25T08:25:58.543Z</time></trkpt><trkpt lat="43.7789133" lon="12.5378667"><ele>376.0</ele><time>2026-04-25T08:25:59.543Z</time></trkpt><trkpt lat="43.77899" lon="12.5379833"><ele>376.0</ele><time>2026-04-25T08:26:00.543Z</time></trkpt><trkpt lat="43.7790617" lon="12.5380933"><ele>376.0</ele><time>2026-04-25T08:26:01.544Z</time></trkpt><trkpt lat="43.7791083" lon="12.5382083"><ele>376.0</ele><time>2026-04-25T08:26:02.544Z</time></trkpt><trkpt lat="43.7791333" lon="12.5383433"><ele>374.20000000000005</ele><time>2026-04-25T08:26:03.544Z</time></trkpt><trkpt lat="43.77913" lon="12.5384983"><ele>372.40000000000003</ele><time>2026-04-25T08:26:04.544Z</time></trkpt><trkpt lat="43.77911" lon="12.5386383"><ele>370.6</ele><time>2026-04-25T08:26:05.544Z</time></trkpt><trkpt lat="43.7791" lon="12.5387667"><ele>368.8</ele><time>2026-04-25T08:26:06.544Z</time></trkpt><trkpt lat="43.77909" lon="12.5388817"><ele>367.0</ele><time>2026-04-25T08:26:07.544Z</time></trkpt><trkpt lat="43.7791117" lon="12.5389883"><ele>365.0</ele><time>2026-04-25T08:26:08.544Z</time></trkpt><trkpt lat="43.7791533" lon="12.5391033"><ele>363.0</ele><time>2026-04-25T08:26:09.543Z</time></trkpt><trkpt lat="43.779215" lon="12.539215"><ele>361.0</ele><time>2026-04-25T08:26:10.544Z</time></trkpt><trkpt lat="43.7792917" lon="12.5393317"><ele>359.0</ele><time>2026-04-25T08:26:11.543Z</time></trkpt><trkpt lat="43.779355" lon="12.5394583"><ele>357.0</ele><time>2026-04-25T08:26:12.544Z</time></trkpt><trkpt lat="43.7794267" lon="12.5395867"><ele>355.5</ele><time>2026-04-25T08:26:13.543Z</time></trkpt><trkpt lat="43.779485" lon="12.5397333"><ele>354.0</ele><time>2026-04-25T08:26:14.544Z</time></trkpt><trkpt lat="43.7795317" lon="12.539875"><ele>352.5</ele><time>2026-04-25T08:26:15.544Z</time></trkpt><trkpt lat="43.7795567" lon="12.5400333"><ele>351.0</ele><time>2026-04-25T08:26:16.544Z</time></trkpt><trkpt lat="43.7795833" lon="12.5401767"><ele>351.0</ele><time>2026-04-25T08:26:17.544Z</time></trkpt><trkpt lat="43.7796267" lon="12.54031"><ele>351.0</ele><time>2026-04-25T08:26:18.543Z</time></trkpt><trkpt lat="43.77967" lon="12.540445"><ele>351.0</ele><time>2026-04-25T08:26:19.544Z</time></trkpt><trkpt lat="43.77974" lon="12.540565"><ele>351.0</ele><time>2026-04-25T08:26:20.544Z</time></trkpt><trkpt lat="43.779795" lon="12.5407133"><ele>351.0</ele><time>2026-04-25T08:26:21.544Z</time></trkpt><trkpt lat="43.7798433" lon="12.5408733"><ele>349.75</ele><time>2026-04-25T08:26:22.544Z</time></trkpt><trkpt lat="43.7798817" lon="12.5410367"><ele>348.5</ele><time>2026-04-25T08:26:23.544Z</time></trkpt><trkpt lat="43.779925" lon="12.54119"><ele>347.25</ele><time>2026-04-25T08:26:24.544Z</time></trkpt><trkpt lat="43.7799567" lon="12.541335"><ele>346.0</ele><time>2026-04-25T08:26:25.543Z</time></trkpt><trkpt lat="43.780015" lon="12.5414783"><ele>346.0</ele><time>2026-04-25T08:26:26.544Z</time></trkpt><trkpt lat="43.7800667" lon="12.541625"><ele>346.0</ele><time>2026-04-25T08:26:27.544Z</time></trkpt><trkpt lat="43.7800917" lon="12.54177"><ele>346.0</ele><time>2026-04-25T08:26:28.544Z</time></trkpt><trkpt lat="43.7801033" lon="12.5419133"><ele>346.0</ele><time>2026-04-25T08:26:29.544Z</time></trkpt><trkpt lat="43.7800917" lon="12.5420483"><ele>346.0</ele><time>2026-04-25T08:26:30.544Z</time></trkpt><trkpt lat="43.78008" lon="12.542165"><ele>346.8333333333333</ele><time>2026-04-25T08:26:31.544Z</time></trkpt><trkpt lat="43.7800367" lon="12.5422633"><ele>347.66666666666663</ele><time>2026-04-25T08:26:32.543Z</time></trkpt><trkpt lat="43.7799833" lon="12.5423433"><ele>348.5</ele><time>2026-04-25T08:26:33.543Z</time></trkpt><trkpt lat="43.7799283" lon="12.5423867"><ele>349.3333333333333</ele><time>2026-04-25T08:26:34.544Z</time></trkpt><trkpt lat="43.7798567" lon="12.54245"><ele>350.1666666666667</ele><time>2026-04-25T08:26:35.544Z</time></trkpt><trkpt lat="43.77976" lon="12.542495"><ele>351.0</ele><time>2026-04-25T08:26:36.544Z</time></trkpt><trkpt lat="43.7796683" lon="12.5425367"><ele>351.0</ele><time>2026-04-25T08:26:37.543Z</time></trkpt><trkpt lat="43.779585" lon="12.5425717"><ele>351.0</ele><time>2026-04-25T08:26:38.544Z</time></trkpt><trkpt lat="43.7795167" lon="12.5426083"><ele>351.0</ele><time>2026-04-25T08:26:39.544Z</time></trkpt><trkpt lat="43.7794167" lon="12.5426633"><ele>351.0</ele><time>2026-04-25T08:26:41.544Z</time></trkpt><trkpt lat="43.7793533" lon="12.5427133"><ele>351.0</ele><time>2026-04-25T08:26:44.543Z</time></trkpt><trkpt lat="43.779275" lon="12.54276"><ele>351.0</ele><time>2026-04-25T08:27:18.543Z</time></trkpt><trkpt lat="43.7791917" lon="12.5427533"><ele>348.0</ele><time>2026-04-25T08:27:20.544Z</time></trkpt><trkpt lat="43.7790983" lon="12.54272"><ele>345.0</ele><time>2026-04-25T08:27:22.544Z</time></trkpt><trkpt lat="43.779015" lon="12.5426467"><ele>342.0</ele><time>2026-04-25T08:27:24.544Z</time></trkpt><trkpt lat="43.778925" lon="12.5426017"><ele>339.0</ele><time>2026-04-25T08:27:26.544Z</time></trkpt><trkpt lat="43.778825" lon="12.542585"><ele>336.0</ele><time>2026-04-25T08:27:28.544Z</time></trkpt><trkpt lat="43.7787233" lon="12.542615"><ele>336.0</ele><time>2026-04-25T08:27:30.544Z</time></trkpt><trkpt lat="43.778655" lon="12.54264"><ele>336.0</ele><time>2026-04-25T08:27:31.544Z</time></trkpt><trkpt lat="43.7785333" lon="12.54266"><ele>336.0</ele><time>2026-04-25T08:27:33.544Z</time></trkpt><trkpt lat="43.7784217" lon="12.5427117"><ele>336.0</ele><time>2026-04-25T08:27:35.543Z</time></trkpt><trkpt lat="43.7783633" lon="12.5427633"><ele>336.0</ele><time>2026-04-25T08:27:36.544Z</time></trkpt><trkpt lat="43.7783033" lon="12.542815"><ele>335.1666666666667</ele><time>2026-04-25T08:27:37.544Z</time></trkpt><trkpt lat="43.7782467" lon="12.5428667"><ele>334.3333333333333</ele><time>2026-04-25T08:27:38.544Z</time></trkpt><trkpt lat="43.7781917" lon="12.54291"><ele>333.5</ele><time>2026-04-25T08:27:39.544Z</time></trkpt><trkpt lat="43.7780833" lon="12.5429867"><ele>332.66666666666663</ele><time>2026-04-25T08:27:41.543Z</time></trkpt><trkpt lat="43.778025" lon="12.5430333"><ele>331.8333333333333</ele><time>2026-04-25T08:27:42.543Z</time></trkpt><trkpt lat="43.7779567" lon="12.5430867"><ele>331.0</ele><time>2026-04-25T08:27:43.543Z</time></trkpt><trkpt lat="43.7778867" lon="12.543145"><ele>331.0</ele><time>2026-04-25T08:27:44.543Z</time></trkpt><trkpt lat="43.7778183" lon="12.5432033"><ele>331.0</ele><time>2026-04-25T08:27:45.543Z</time></trkpt><trkpt lat="43.7777317" lon="12.5432883"><ele>331.0</ele><time>2026-04-25T08:27:47.544Z</time></trkpt><trkpt lat="43.7776583" lon="12.5433667"><ele>331.0</ele><time>2026-04-25T08:27:49.544Z</time></trkpt><trkpt lat="43.777625" lon="12.5434767"><ele>331.0</ele><time>2026-04-25T08:27:51.543Z</time></trkpt><trkpt lat="43.7776567" lon="12.5435833"><ele>331.0</ele><time>2026-04-25T08:27:53.544Z</time></trkpt><trkpt lat="43.77769" lon="12.5436867"><ele>329.8333333333333</ele><time>2026-04-25T08:27:55.544Z</time></trkpt><trkpt lat="43.777705" lon="12.5437767"><ele>328.66666666666663</ele><time>2026-04-25T08:27:57.544Z</time></trkpt><trkpt lat="43.777675" lon="12.5438683"><ele>327.5</ele><time>2026-04-25T08:28:00.544Z</time></trkpt><trkpt lat="43.7775783" lon="12.5438917"><ele>326.3333333333333</ele><time>2026-04-25T08:28:03.543Z</time></trkpt><trkpt lat="43.7775117" lon="12.54391"><ele>325.1666666666667</ele><time>2026-04-25T08:28:05.544Z</time></trkpt><trkpt lat="43.7774433" lon="12.5439567"><ele>324.0</ele><time>2026-04-25T08:28:07.543Z</time></trkpt><trkpt lat="43.7773617" lon="12.5440067"><ele>322.8333333333333</ele><time>2026-04-25T08:28:09.543Z</time></trkpt><trkpt lat="43.7772617" lon="12.5440883"><ele>321.6666666666667</ele><time>2026-04-25T08:28:23.543Z</time></trkpt><trkpt lat="43.7771917" lon="12.5441417"><ele>320.5</ele><time>2026-04-25T08:28:27.544Z</time></trkpt><trkpt lat="43.7772533" lon="12.5441717"><ele>319.33333333333337</ele><time>2026-04-25T08:28:31.544Z</time></trkpt><trkpt lat="43.7773069" lon="12.5441036"><ele>318.1666666666667</ele><time>2026-04-25T08:28:33.654Z</time></trkpt><trkpt lat="43.7773615" lon="12.5440281"><ele>317.0</ele><time>2026-04-25T08:28:36.134Z</time></trkpt><trkpt lat="43.7774041" lon="12.5439235"><ele>317.0</ele><time>2026-04-25T08:28:38.411Z</time></trkpt><trkpt lat="43.7774083" lon="12.5438033"><ele>317.0</ele><time>2026-04-25T08:28:39.543Z</time></trkpt><trkpt lat="43.7773533" lon="12.5437383"><ele>317.0</ele><time>2026-04-25T08:28:41.544Z</time></trkpt><trkpt lat="43.7772517" lon="12.543765"><ele>317.0</ele><time>2026-04-25T08:28:43.544Z</time></trkpt><trkpt lat="43.777145" lon="12.5438183"><ele>317.0</ele><time>2026-04-25T08:28:45.544Z</time></trkpt><trkpt lat="43.777045" lon="12.543865"><ele>317.0</ele><time>2026-04-25T08:28:47.544Z</time></trkpt><trkpt lat="43.7769703" lon="12.5439552"><ele>317.0</ele><time>2026-04-25T08:28:50.544Z</time></trkpt><trkpt lat="43.7769219" lon="12.5440147"><ele>317.0</ele><time>2026-04-25T08:28:51.544Z</time></trkpt><trkpt lat="43.7768538" lon="12.5441546"><ele>317.0</ele><time>2026-04-25T08:28:53.543Z</time></trkpt><trkpt lat="43.7768185" lon="12.544243"><ele>317.0</ele><time>2026-04-25T08:28:54.544Z</time></trkpt><trkpt lat="43.7767833" lon="12.5443363"><ele>317.0</ele><time>2026-04-25T08:28:55.544Z</time></trkpt><trkpt lat="43.7767459" lon="12.5444287"><ele>313.4</ele><time>2026-04-25T08:28:56.544Z</time></trkpt><trkpt lat="43.7766943" lon="12.5445125"><ele>309.79999999999995</ele><time>2026-04-25T08:28:57.544Z</time></trkpt><trkpt lat="43.7766356" lon="12.5445934"><ele>306.2</ele><time>2026-04-25T08:28:58.544Z</time></trkpt><trkpt lat="43.7765696" lon="12.5446787"><ele>302.59999999999997</ele><time>2026-04-25T08:28:59.544Z</time></trkpt><trkpt lat="43.7764968" lon="12.5447733"><ele>299.0</ele><time>2026-04-25T08:29:00.544Z</time></trkpt><trkpt lat="43.7764264" lon="12.5448688"><ele>298.6666666666667</ele><time>2026-04-25T08:29:01.544Z</time></trkpt><trkpt lat="43.7763551" lon="12.5449596"><ele>298.33333333333337</ele><time>2026-04-25T08:29:02.544Z</time></trkpt><trkpt lat="43.7762863" lon="12.5450539"><ele>298.0</ele><time>2026-04-25T08:29:03.544Z</time></trkpt><trkpt lat="43.7762221" lon="12.5451405"><ele>297.6666666666667</ele><time>2026-04-25T08:29:04.544Z</time></trkpt><trkpt lat="43.7761619" lon="12.5452089"><ele>297.3333333333333</ele><time>2026-04-25T08:29:05.544Z</time></trkpt><trkpt lat="43.7760919" lon="12.5452655"><ele>297.0</ele><time>2026-04-25T08:29:06.544Z</time></trkpt><trkpt lat="43.7760193" lon="12.5453082"><ele>295.42857142857144</ele><time>2026-04-25T08:29:07.543Z</time></trkpt><trkpt lat="43.7759458" lon="12.5453528"><ele>293.8571428571429</ele><time>2026-04-25T08:29:08.544Z</time></trkpt><trkpt lat="43.7758773" lon="12.5453947"><ele>292.2857142857143</ele><time>2026-04-25T08:29:09.543Z</time></trkpt><trkpt lat="43.7758054" lon="12.5454327"><ele>290.7142857142857</ele><time>2026-04-25T08:29:10.544Z</time></trkpt><trkpt lat="43.775739" lon="12.5454726"><ele>289.1428571428571</ele><time>2026-04-25T08:29:11.544Z</time></trkpt><trkpt lat="43.7756765" lon="12.5455181"><ele>287.57142857142856</ele><time>2026-04-25T08:29:12.543Z</time></trkpt><trkpt lat="43.7756184" lon="12.5455674"><ele>286.0</ele><time>2026-04-25T08:29:13.544Z</time></trkpt><trkpt lat="43.7755634" lon="12.5456212"><ele>285.99999999999994</ele><time>2026-04-25T08:29:14.544Z</time></trkpt><trkpt lat="43.7755125" lon="12.5456855"><ele>286.0</ele><time>2026-04-25T08:29:15.544Z</time></trkpt><trkpt lat="43.7754619" lon="12.5457515"><ele>286.0</ele><time>2026-04-25T08:29:16.543Z</time></trkpt><trkpt lat="43.7754106" lon="12.5458238"><ele>286.0</ele><time>2026-04-25T08:29:17.543Z</time></trkpt><trkpt lat="43.7753662" lon="12.5458974"><ele>286.0</ele><time>2026-04-25T08:29:18.544Z</time></trkpt><trkpt lat="43.7753229" lon="12.5459811"><ele>285.99999999999994</ele><time>2026-04-25T08:29:19.544Z</time></trkpt><trkpt lat="43.7752824" lon="12.5460717"><ele>286.0</ele><time>2026-04-25T08:29:20.544Z</time></trkpt><trkpt lat="43.7752462" lon="12.5461624"><ele>284.40000000000003</ele><time>2026-04-25T08:29:21.544Z</time></trkpt><trkpt lat="43.7752138" lon="12.5462599"><ele>282.8</ele><time>2026-04-25T08:29:22.544Z</time></trkpt><trkpt lat="43.7751783" lon="12.5463467"><ele>281.20000000000005</ele><time>2026-04-25T08:29:23.543Z</time></trkpt><trkpt lat="43.7751233" lon="12.5464867"><ele>279.6</ele><time>2026-04-25T08:29:25.544Z</time></trkpt><trkpt lat="43.77505" lon="12.5466233"><ele>278.0</ele><time>2026-04-25T08:29:27.543Z</time></trkpt><trkpt lat="43.775" lon="12.546695"><ele>275.5</ele><time>2026-04-25T08:29:28.544Z</time></trkpt><trkpt lat="43.774955" lon="12.5467583"><ele>273.0</ele><time>2026-04-25T08:29:29.544Z</time></trkpt><trkpt lat="43.7748683" lon="12.5468783"><ele>270.5</ele><time>2026-04-25T08:29:31.544Z</time></trkpt><trkpt lat="43.7748217" lon="12.546945"><ele>268.0</ele><time>2026-04-25T08:29:32.544Z</time></trkpt><trkpt lat="43.7747867" lon="12.547025"><ele>265.5</ele><time>2026-04-25T08:29:33.544Z</time></trkpt><trkpt lat="43.774775" lon="12.54717"><ele>263.0</ele><time>2026-04-25T08:29:35.543Z</time></trkpt><trkpt lat="43.77473" lon="12.54726"><ele>260.2</ele><time>2026-04-25T08:29:37.544Z</time></trkpt><trkpt lat="43.7746317" lon="12.5472983"><ele>257.4</ele><time>2026-04-25T08:29:39.543Z</time></trkpt><trkpt lat="43.7745233" lon="12.547315"><ele>254.59999999999997</ele><time>2026-04-25T08:29:41.543Z</time></trkpt><trkpt lat="43.774395" lon="12.547305"><ele>251.79999999999998</ele><time>2026-04-25T08:29:43.544Z</time></trkpt><trkpt lat="43.774325" lon="12.5472917"><ele>249.0</ele><time>2026-04-25T08:29:44.543Z</time></trkpt><trkpt lat="43.7742583" lon="12.5472783"><ele>245.79999999999998</ele><time>2026-04-25T08:29:45.543Z</time></trkpt><trkpt lat="43.7741967" lon="12.547255"><ele>242.59999999999997</ele><time>2026-04-25T08:29:46.544Z</time></trkpt><trkpt lat="43.774115" lon="12.5471633"><ele>239.4</ele><time>2026-04-25T08:29:48.543Z</time></trkpt><trkpt lat="43.774055" lon="12.5470233"><ele>236.2</ele><time>2026-04-25T08:29:50.543Z</time></trkpt><trkpt lat="43.774025" lon="12.5468767"><ele>233.0</ele><time>2026-04-25T08:29:52.544Z</time></trkpt><trkpt lat="43.7740183" lon="12.5467383"><ele>233.00000000000003</ele><time>2026-04-25T08:29:54.543Z</time></trkpt><trkpt lat="43.774" lon="12.54663"><ele>233.0</ele><time>2026-04-25T08:29:56.544Z</time></trkpt><trkpt lat="43.7739333" lon="12.5465633"><ele>233.0</ele><time>2026-04-25T08:29:59.544Z</time></trkpt><trkpt lat="43.77385" lon="12.54659"><ele>233.0</ele><time>2026-04-25T08:30:01.544Z</time></trkpt><trkpt lat="43.7737317" lon="12.54663"><ele>233.00000000000003</ele><time>2026-04-25T08:30:03.544Z</time></trkpt><trkpt lat="43.7736583" lon="12.5466533"><ele>233.0</ele><time>2026-04-25T08:30:04.543Z</time></trkpt><trkpt lat="43.77358" lon="12.546685"><ele>229.85714285714286</ele><time>2026-04-25T08:30:05.543Z</time></trkpt><trkpt lat="43.7735167" lon="12.5467017"><ele>226.7142857142857</ele><time>2026-04-25T08:30:06.544Z</time></trkpt><trkpt lat="43.77345" lon="12.5467267"><ele>223.57142857142856</ele><time>2026-04-25T08:30:07.544Z</time></trkpt><trkpt lat="43.7733817" lon="12.5467567"><ele>220.42857142857144</ele><time>2026-04-25T08:30:08.543Z</time></trkpt><trkpt lat="43.77332" lon="12.546805"><ele>217.28571428571428</ele><time>2026-04-25T08:30:09.544Z</time></trkpt><trkpt lat="43.7732667" lon="12.5468667"><ele>214.14285714285714</ele><time>2026-04-25T08:30:10.543Z</time></trkpt><trkpt lat="43.7732167" lon="12.54694"><ele>211.0</ele><time>2026-04-25T08:30:11.543Z</time></trkpt><trkpt lat="43.773165" lon="12.54703"><ele>211.0</ele><time>2026-04-25T08:30:12.543Z</time></trkpt><trkpt lat="43.7731283" lon="12.5471217"><ele>211.0</ele><time>2026-04-25T08:30:13.544Z</time></trkpt><trkpt lat="43.773105" lon="12.54722"><ele>211.0</ele><time>2026-04-25T08:30:14.544Z</time></trkpt><trkpt lat="43.7730867" lon="12.5473167"><ele>211.0</ele><time>2026-04-25T08:30:15.544Z</time></trkpt><trkpt lat="43.773085" lon="12.54742"><ele>211.0</ele><time>2026-04-25T08:30:16.543Z</time></trkpt><trkpt lat="43.7730867" lon="12.54751"><ele>211.0</ele><time>2026-04-25T08:30:17.544Z</time></trkpt><trkpt lat="43.7730883" lon="12.5475983"><ele>211.0</ele><time>2026-04-25T08:30:18.543Z</time></trkpt><trkpt lat="43.7730367" lon="12.5477417"><ele>211.0</ele><time>2026-04-25T08:30:20.544Z</time></trkpt><trkpt lat="43.7729717" lon="12.5478567"><ele>211.0</ele><time>2026-04-25T08:30:22.544Z</time></trkpt><trkpt lat="43.77291" lon="12.5479217"><ele>211.0</ele><time>2026-04-25T08:30:23.543Z</time></trkpt><trkpt lat="43.77285" lon="12.547955"><ele>211.0</ele><time>2026-04-25T08:30:24.543Z</time></trkpt><trkpt lat="43.772745" lon="12.54803"><ele>211.0</ele><time>2026-04-25T08:30:26.544Z</time></trkpt><trkpt lat="43.77266" lon="12.5480517"><ele>207.8</ele><time>2026-04-25T08:30:27.544Z</time></trkpt><trkpt lat="43.77257" lon="12.5480517"><ele>204.60000000000002</ele><time>2026-04-25T08:30:28.544Z</time></trkpt><trkpt lat="43.7724867" lon="12.54803"><ele>201.4</ele><time>2026-04-25T08:30:29.544Z</time></trkpt><trkpt lat="43.7724017" lon="12.5480067"><ele>198.2</ele><time>2026-04-25T08:30:30.543Z</time></trkpt><trkpt lat="43.7723217" lon="12.5480283"><ele>195.0</ele><time>2026-04-25T08:30:31.544Z</time></trkpt><trkpt lat="43.7722117" lon="12.5480833"><ele>195.0</ele><time>2026-04-25T08:30:32.543Z</time></trkpt><trkpt lat="43.7721217" lon="12.5481617"><ele>195.0</ele><time>2026-04-25T08:30:33.543Z</time></trkpt><trkpt lat="43.772025" lon="12.5482567"><ele>195.0</ele><time>2026-04-25T08:30:34.543Z</time></trkpt><trkpt lat="43.7719267" lon="12.5483583"><ele>195.0</ele><time>2026-04-25T08:30:35.544Z</time></trkpt><trkpt lat="43.7718267" lon="12.5484633"><ele>194.0</ele><time>2026-04-25T08:30:36.544Z</time></trkpt><trkpt lat="43.771735" lon="12.5485733"><ele>193.0</ele><time>2026-04-25T08:30:37.543Z</time></trkpt><trkpt lat="43.7716217" lon="12.5486783"><ele>192.0</ele><time>2026-04-25T08:30:38.543Z</time></trkpt><trkpt lat="43.7715133" lon="12.5487917"><ele>191.0</ele><time>2026-04-25T08:30:39.543Z</time></trkpt><trkpt lat="43.7714217" lon="12.5488867"><ele>190.4</ele><time>2026-04-25T08:30:40.544Z</time></trkpt><trkpt lat="43.7713333" lon="12.5489867"><ele>189.8</ele><time>2026-04-25T08:30:41.544Z</time></trkpt><trkpt lat="43.7712433" lon="12.5490683"><ele>189.20000000000002</ele><time>2026-04-25T08:30:42.543Z</time></trkpt><trkpt lat="43.7711483" lon="12.5491567"><ele>188.60000000000002</ele><time>2026-04-25T08:30:43.544Z</time></trkpt><trkpt lat="43.771065" lon="12.5492083"><ele>188.0</ele><time>2026-04-25T08:30:44.544Z</time></trkpt><trkpt lat="43.7709967" lon="12.5492517"><ele>187.60000000000002</ele><time>2026-04-25T08:30:45.544Z</time></trkpt><trkpt lat="43.7709283" lon="12.54927"><ele>187.20000000000002</ele><time>2026-04-25T08:30:46.544Z</time></trkpt><trkpt lat="43.7708633" lon="12.5492667"><ele>186.8</ele><time>2026-04-25T08:30:47.543Z</time></trkpt><trkpt lat="43.7707683" lon="12.54927"><ele>186.4</ele><time>2026-04-25T08:30:48.544Z</time></trkpt><trkpt lat="43.7706583" lon="12.5492833"><ele>186.0</ele><time>2026-04-25T08:30:49.544Z</time></trkpt><trkpt lat="43.7705433" lon="12.54929"><ele>186.0</ele><time>2026-04-25T08:30:50.544Z</time></trkpt><trkpt lat="43.770435" lon="12.5493017"><ele>186.0</ele><time>2026-04-25T08:30:51.543Z</time></trkpt><trkpt lat="43.7703317" lon="12.5493417"><ele>186.0</ele><time>2026-04-25T08:30:52.544Z</time></trkpt><trkpt lat="43.77022" lon="12.5494"><ele>186.0</ele><time>2026-04-25T08:30:53.544Z</time></trkpt><trkpt lat="43.7701483" lon="12.5494983"><ele>186.0</ele><time>2026-04-25T08:30:54.544Z</time></trkpt><trkpt lat="43.7700667" lon="12.549585"><ele>187.4</ele><time>2026-04-25T08:30:55.544Z</time></trkpt><trkpt lat="43.76997" lon="12.5496683"><ele>188.8</ele><time>2026-04-25T08:30:57.544Z</time></trkpt><trkpt lat="43.7699067" lon="12.5496067"><ele>190.20000000000002</ele><time>2026-04-25T08:30:59.544Z</time></trkpt><trkpt lat="43.7698583" lon="12.5494233"><ele>191.60000000000002</ele><time>2026-04-25T08:31:01.544Z</time></trkpt><trkpt lat="43.769845" lon="12.5492967"><ele>193.0</ele><time>2026-04-25T08:31:02.544Z</time></trkpt><trkpt lat="43.76983" lon="12.5491567"><ele>193.0</ele><time>2026-04-25T08:31:03.544Z</time></trkpt><trkpt lat="43.7697967" lon="12.5490367"><ele>193.0</ele><time>2026-04-25T08:31:04.544Z</time></trkpt><trkpt lat="43.7697333" lon="12.5489167"><ele>193.0</ele><time>2026-04-25T08:31:05.543Z</time></trkpt><trkpt lat="43.7696867" lon="12.5488083"><ele>193.0</ele><time>2026-04-25T08:31:06.544Z</time></trkpt><trkpt lat="43.769625" lon="12.5487217"><ele>193.0</ele><time>2026-04-25T08:31:07.544Z</time></trkpt><trkpt lat="43.7695433" lon="12.5486683"><ele>196.83333333333331</ele><time>2026-04-25T08:31:08.544Z</time></trkpt><trkpt lat="43.7694783" lon="12.54862"><ele>200.66666666666666</ele><time>2026-04-25T08:31:09.544Z</time></trkpt><trkpt lat="43.7694" lon="12.54859"><ele>204.5</ele><time>2026-04-25T08:31:10.544Z</time></trkpt><trkpt lat="43.769325" lon="12.5485683"><ele>208.33333333333331</ele><time>2026-04-25T08:31:11.543Z</time></trkpt><trkpt lat="43.7692283" lon="12.54855"><ele>212.16666666666666</ele><time>2026-04-25T08:31:12.544Z</time></trkpt><trkpt lat="43.76913" lon="12.5485383"><ele>216.0</ele><time>2026-04-25T08:31:13.544Z</time></trkpt><trkpt lat="43.7690433" lon="12.54852"><ele>216.0</ele><time>2026-04-25T08:31:14.544Z</time></trkpt><trkpt lat="43.76894" lon="12.5485033"><ele>216.00000000000003</ele><time>2026-04-25T08:31:15.544Z</time></trkpt><trkpt lat="43.768845" lon="12.54847"><ele>216.00000000000003</ele><time>2026-04-25T08:31:16.544Z</time></trkpt><trkpt lat="43.7687567" lon="12.5484267"><ele>216.0</ele><time>2026-04-25T08:31:17.544Z</time></trkpt><trkpt lat="43.76867" lon="12.548365"><ele>216.0</ele><time>2026-04-25T08:31:18.543Z</time></trkpt><trkpt lat="43.7686" lon="12.54829"><ele>214.20000000000002</ele><time>2026-04-25T08:31:19.544Z</time></trkpt><trkpt lat="43.7685233" lon="12.5482083"><ele>212.40000000000003</ele><time>2026-04-25T08:31:20.544Z</time></trkpt><trkpt lat="43.7684433" lon="12.54813"><ele>210.6</ele><time>2026-04-25T08:31:21.543Z</time></trkpt><trkpt lat="43.76833" lon="12.5480633"><ele>208.8</ele><time>2026-04-25T08:31:22.544Z</time></trkpt><trkpt lat="43.76822" lon="12.5479867"><ele>207.0</ele><time>2026-04-25T08:31:23.544Z</time></trkpt><trkpt lat="43.7680967" lon="12.54793"><ele>210.8</ele><time>2026-04-25T08:31:24.544Z</time></trkpt><trkpt lat="43.7679983" lon="12.5478583"><ele>214.6</ele><time>2026-04-25T08:31:25.543Z</time></trkpt><trkpt lat="43.7678933" lon="12.5478217"><ele>218.40000000000003</ele><time>2026-04-25T08:31:26.543Z</time></trkpt><trkpt lat="43.7677933" lon="12.5476733"><ele>222.20000000000002</ele><time>2026-04-25T08:31:28.544Z</time></trkpt><trkpt lat="43.7677483" lon="12.5475817"><ele>226.0</ele><time>2026-04-25T08:31:29.544Z</time></trkpt><trkpt lat="43.7677" lon="12.5475217"><ele>223.66666666666666</ele><time>2026-04-25T08:31:30.544Z</time></trkpt><trkpt lat="43.76765" lon="12.5474567"><ele>221.33333333333331</ele><time>2026-04-25T08:31:33.544Z</time></trkpt><trkpt lat="43.7675767" lon="12.547485"><ele>219.0</ele><time>2026-04-25T08:31:36.544Z</time></trkpt><trkpt lat="43.7675067" lon="12.5475"><ele>216.66666666666669</ele><time>2026-04-25T08:31:37.544Z</time></trkpt><trkpt lat="43.7674333" lon="12.5474983"><ele>214.33333333333334</ele><time>2026-04-25T08:31:38.544Z</time></trkpt><trkpt lat="43.767335" lon="12.5474533"><ele>212.0</ele><time>2026-04-25T08:31:39.543Z</time></trkpt><trkpt lat="43.7672417" lon="12.547405"><ele>212.0</ele><time>2026-04-25T08:31:40.544Z</time></trkpt><trkpt lat="43.76711" lon="12.5473733"><ele>212.0</ele><time>2026-04-25T08:31:41.544Z</time></trkpt><trkpt lat="43.767015" lon="12.5473717"><ele>212.0</ele><time>2026-04-25T08:31:42.544Z</time></trkpt><trkpt lat="43.7669167" lon="12.5473917"><ele>212.0</ele><time>2026-04-25T08:31:43.543Z</time></trkpt><trkpt lat="43.7668017" lon="12.547425"><ele>212.0</ele><time>2026-04-25T08:31:44.544Z</time></trkpt><trkpt lat="43.7666867" lon="12.5474467"><ele>209.75</ele><time>2026-04-25T08:31:45.544Z</time></trkpt><trkpt lat="43.7665583" lon="12.5474967"><ele>207.5</ele><time>2026-04-25T08:31:46.544Z</time></trkpt><trkpt lat="43.76642" lon="12.5475533"><ele>205.25</ele><time>2026-04-25T08:31:47.543Z</time></trkpt><trkpt lat="43.7662983" lon="12.5476217"><ele>203.0</ele><time>2026-04-25T08:31:48.544Z</time></trkpt><trkpt lat="43.7661817" lon="12.54772"><ele>203.0</ele><time>2026-04-25T08:31:49.544Z</time></trkpt><trkpt lat="43.7660317" lon="12.5478233"><ele>203.0</ele><time>2026-04-25T08:31:50.543Z</time></trkpt><trkpt lat="43.7659017" lon="12.5479217"><ele>203.0</ele><time>2026-04-25T08:31:51.544Z</time></trkpt><trkpt lat="43.7657783" lon="12.5480067"><ele>197.66666666666669</ele><time>2026-04-25T08:31:52.543Z</time></trkpt><trkpt lat="43.7656267" lon="12.54807"><ele>192.33333333333334</ele><time>2026-04-25T08:31:53.543Z</time></trkpt><trkpt lat="43.765485" lon="12.5481167"><ele>187.0</ele><time>2026-04-25T08:31:54.544Z</time></trkpt><trkpt lat="43.7653267" lon="12.5481267"><ele>187.66666666666669</ele><time>2026-04-25T08:31:55.544Z</time></trkpt><trkpt lat="43.7651533" lon="12.548155"><ele>188.33333333333334</ele><time>2026-04-25T08:31:56.543Z</time></trkpt><trkpt lat="43.764985" lon="12.5481767"><ele>189.0</ele><time>2026-04-25T08:31:57.544Z</time></trkpt><trkpt lat="43.764835" lon="12.5481933"><ele>189.0</ele><time>2026-04-25T08:31:58.543Z</time></trkpt><trkpt lat="43.7646933" lon="12.5482017"><ele>189.0</ele><time>2026-04-25T08:31:59.543Z</time></trkpt><trkpt lat="43.7645767" lon="12.54818"><ele>189.0</ele><time>2026-04-25T08:32:00.544Z</time></trkpt><trkpt lat="43.7644667" lon="12.548135"><ele>189.0</ele><time>2026-04-25T08:32:01.544Z</time></trkpt><trkpt lat="43.7643583" lon="12.5480533"><ele>188.33333333333334</ele><time>2026-04-25T08:32:02.544Z</time></trkpt><trkpt lat="43.7642417" lon="12.5479633"><ele>187.66666666666669</ele><time>2026-04-25T08:32:03.544Z</time></trkpt><trkpt lat="43.7640933" lon="12.5478367"><ele>187.0</ele><time>2026-04-25T08:32:04.544Z</time></trkpt><trkpt lat="43.7639167" lon="12.5477"><ele>187.0</ele><time>2026-04-25T08:32:05.543Z</time></trkpt><trkpt lat="43.7637483" lon="12.54757"><ele>187.0</ele><time>2026-04-25T08:32:06.544Z</time></trkpt><trkpt lat="43.7635867" lon="12.5474617"><ele>187.0</ele><time>2026-04-25T08:32:07.544Z</time></trkpt><trkpt lat="43.7634333" lon="12.5474"><ele>188.66666666666669</ele><time>2026-04-25T08:32:08.544Z</time></trkpt><trkpt lat="43.7632783" lon="12.5473417"><ele>190.33333333333334</ele><time>2026-04-25T08:32:09.543Z</time></trkpt><trkpt lat="43.763105" lon="12.547275"><ele>192.0</ele><time>2026-04-25T08:32:10.543Z</time></trkpt><trkpt lat="43.7629467" lon="12.5471883"><ele>192.0</ele><time>2026-04-25T08:32:11.544Z</time></trkpt><trkpt lat="43.762795" lon="12.5470767"><ele>192.0</ele><time>2026-04-25T08:32:12.544Z</time></trkpt><trkpt lat="43.76266" lon="12.5469367"><ele>192.0</ele><time>2026-04-25T08:32:13.544Z</time></trkpt><trkpt lat="43.76253" lon="12.5468233"><ele>194.16666666666666</ele><time>2026-04-25T08:32:14.544Z</time></trkpt><trkpt lat="43.7624183" lon="12.5467333"><ele>196.33333333333331</ele><time>2026-04-25T08:32:15.544Z</time></trkpt><trkpt lat="43.762335" lon="12.54671"><ele>198.5</ele><time>2026-04-25T08:32:16.543Z</time></trkpt><trkpt lat="43.762265" lon="12.546685"><ele>200.66666666666666</ele><time>2026-04-25T08:32:17.544Z</time></trkpt><trkpt lat="43.7621983" lon="12.5466533"><ele>202.83333333333331</ele><time>2026-04-25T08:32:19.544Z</time></trkpt><trkpt lat="43.7622" lon="12.54655"><ele>205.0</ele><time>2026-04-25T08:32:21.544Z</time></trkpt><trkpt lat="43.7622017" lon="12.546445"><ele>205.0</ele><time>2026-04-25T08:32:23.544Z</time></trkpt><trkpt lat="43.7621917" lon="12.54635"><ele>205.0</ele><time>2026-04-25T08:32:24.543Z</time></trkpt><trkpt lat="43.7621783" lon="12.5462217"><ele>205.0</ele><time>2026-04-25T08:32:25.544Z</time></trkpt><trkpt lat="43.7621633" lon="12.5460633"><ele>205.0</ele><time>2026-04-25T08:32:26.543Z</time></trkpt><trkpt lat="43.7621283" lon="12.5459083"><ele>205.0</ele><time>2026-04-25T08:32:27.544Z</time></trkpt><trkpt lat="43.762075" lon="12.5457517"><ele>204.66666666666666</ele><time>2026-04-25T08:32:28.544Z</time></trkpt><trkpt lat="43.7620183" lon="12.5456"><ele>204.33333333333331</ele><time>2026-04-25T08:32:29.543Z</time></trkpt><trkpt lat="43.761935" lon="12.5454267"><ele>204.0</ele><time>2026-04-25T08:32:30.544Z</time></trkpt><trkpt lat="43.7618367" lon="12.5452133"><ele>204.0</ele><time>2026-04-25T08:32:31.544Z</time></trkpt><trkpt lat="43.761725" lon="12.5450033"><ele>204.0</ele><time>2026-04-25T08:32:32.544Z</time></trkpt><trkpt lat="43.7616367" lon="12.5448033"><ele>204.0</ele><time>2026-04-25T08:32:33.543Z</time></trkpt><trkpt lat="43.7615167" lon="12.5445917"><ele>203.33333333333331</ele><time>2026-04-25T08:32:34.544Z</time></trkpt><trkpt lat="43.7614167" lon="12.5444017"><ele>202.66666666666666</ele><time>2026-04-25T08:32:35.544Z</time></trkpt><trkpt lat="43.7613167" lon="12.5442117"><ele>202.0</ele><time>2026-04-25T08:32:36.544Z</time></trkpt><trkpt lat="43.7612" lon="12.5440133"><ele>202.0</ele><time>2026-04-25T08:32:37.544Z</time></trkpt><trkpt lat="43.7610933" lon="12.54383"><ele>202.0</ele><time>2026-04-25T08:32:38.543Z</time></trkpt><trkpt lat="43.7610083" lon="12.5436517"><ele>202.0</ele><time>2026-04-25T08:32:39.544Z</time></trkpt><trkpt lat="43.7609183" lon="12.54348"><ele>202.25</ele><time>2026-04-25T08:32:40.543Z</time></trkpt><trkpt lat="43.7608433" lon="12.543325"><ele>202.5</ele><time>2026-04-25T08:32:41.544Z</time></trkpt><trkpt lat="43.7607333" lon="12.543165"><ele>202.75</ele><time>2026-04-25T08:32:42.544Z</time></trkpt><trkpt lat="43.760645" lon="12.5429967"><ele>203.0</ele><time>2026-04-25T08:32:43.543Z</time></trkpt><trkpt lat="43.7605417" lon="12.5428383"><ele>204.25</ele><time>2026-04-25T08:32:44.543Z</time></trkpt><trkpt lat="43.76044" lon="12.5426917"><ele>205.5</ele><time>2026-04-25T08:32:45.544Z</time></trkpt><trkpt lat="43.760345" lon="12.5425633"><ele>206.75</ele><time>2026-04-25T08:32:46.544Z</time></trkpt><trkpt lat="43.760215" lon="12.5424383"><ele>208.0</ele><time>2026-04-25T08:32:47.544Z</time></trkpt><trkpt lat="43.7600683" lon="12.5423217"><ele>208.0</ele><time>2026-04-25T08:32:48.544Z</time></trkpt><trkpt lat="43.7599283" lon="12.5422"><ele>208.0</ele><time>2026-04-25T08:32:49.544Z</time></trkpt><trkpt lat="43.7597717" lon="12.542055"><ele>208.0</ele><time>2026-04-25T08:32:50.543Z</time></trkpt><trkpt lat="43.7596017" lon="12.5418967"><ele>210.33333333333331</ele><time>2026-04-25T08:32:51.543Z</time></trkpt><trkpt lat="43.759435" lon="12.541745"><ele>212.66666666666669</ele><time>2026-04-25T08:32:52.544Z</time></trkpt><trkpt lat="43.7592533" lon="12.5415817"><ele>215.0</ele><time>2026-04-25T08:32:53.543Z</time></trkpt><trkpt lat="43.7590717" lon="12.5414233"><ele>215.0</ele><time>2026-04-25T08:32:54.544Z</time></trkpt><trkpt lat="43.7588783" lon="12.5412783"><ele>215.0</ele><time>2026-04-25T08:32:55.544Z</time></trkpt><trkpt lat="43.75873" lon="12.5411667"><ele>215.0</ele><time>2026-04-25T08:32:56.543Z</time></trkpt><trkpt lat="43.7586" lon="12.541055"><ele>215.5</ele><time>2026-04-25T08:32:57.544Z</time></trkpt><trkpt lat="43.7584767" lon="12.5409267"><ele>216.0</ele><time>2026-04-25T08:32:58.544Z</time></trkpt><trkpt lat="43.758365" lon="12.5407933"><ele>216.5</ele><time>2026-04-25T08:32:59.544Z</time></trkpt><trkpt lat="43.7582867" lon="12.5406267"><ele>217.0</ele><time>2026-04-25T08:33:00.544Z</time></trkpt><trkpt lat="43.75821" lon="12.5404567"><ele>213.0</ele><time>2026-04-25T08:33:01.544Z</time></trkpt><trkpt lat="43.758145" lon="12.54027"><ele>209.0</ele><time>2026-04-25T08:33:02.544Z</time></trkpt><trkpt lat="43.7580633" lon="12.5400617"><ele>205.0</ele><time>2026-04-25T08:33:03.544Z</time></trkpt><trkpt lat="43.7580217" lon="12.539855"><ele>205.0</ele><time>2026-04-25T08:33:04.544Z</time></trkpt><trkpt lat="43.7579767" lon="12.5396467"><ele>205.0</ele><time>2026-04-25T08:33:05.544Z</time></trkpt><trkpt lat="43.75792" lon="12.5394583"><ele>205.0</ele><time>2026-04-25T08:33:06.544Z</time></trkpt><trkpt lat="43.75788" lon="12.5393"><ele>205.0</ele><time>2026-04-25T08:33:07.543Z</time></trkpt><trkpt lat="43.75785" lon="12.5391217"><ele>203.0</ele><time>2026-04-25T08:33:08.544Z</time></trkpt><trkpt lat="43.7578183" lon="12.5389333"><ele>201.0</ele><time>2026-04-25T08:33:09.544Z</time></trkpt><trkpt lat="43.7577983" lon="12.53872"><ele>199.0</ele><time>2026-04-25T08:33:10.543Z</time></trkpt><trkpt lat="43.757775" lon="12.53854"><ele>197.0</ele><time>2026-04-25T08:33:11.544Z</time></trkpt><trkpt lat="43.7577583" lon="12.53837"><ele>197.0</ele><time>2026-04-25T08:33:12.544Z</time></trkpt><trkpt lat="43.7577517" lon="12.538225"><ele>197.0</ele><time>2026-04-25T08:33:13.544Z</time></trkpt><trkpt lat="43.7577167" lon="12.5380983"><ele>197.0</ele><time>2026-04-25T08:33:14.544Z</time></trkpt><trkpt lat="43.7576533" lon="12.5379817"><ele>197.0</ele><time>2026-04-25T08:33:15.544Z</time></trkpt><trkpt lat="43.75757" lon="12.5378767"><ele>197.0</ele><time>2026-04-25T08:33:16.544Z</time></trkpt><trkpt lat="43.7574717" lon="12.5377467"><ele>198.75</ele><time>2026-04-25T08:33:17.544Z</time></trkpt><trkpt lat="43.75738" lon="12.537615"><ele>200.5</ele><time>2026-04-25T08:33:18.544Z</time></trkpt><trkpt lat="43.7572833" lon="12.537495"><ele>202.25</ele><time>2026-04-25T08:33:19.544Z</time></trkpt><trkpt lat="43.7571683" lon="12.537425"><ele>204.0</ele><time>2026-04-25T08:33:20.544Z</time></trkpt><trkpt lat="43.7570567" lon="12.5373383"><ele>204.0</ele><time>2026-04-25T08:33:21.544Z</time></trkpt><trkpt lat="43.7569133" lon="12.5373083"><ele>204.0</ele><time>2026-04-25T08:33:22.543Z</time></trkpt><trkpt lat="43.75675" lon="12.5372883"><ele>204.0</ele><time>2026-04-25T08:33:23.544Z</time></trkpt><trkpt lat="43.7565517" lon="12.53728"><ele>203.66666666666669</ele><time>2026-04-25T08:33:24.544Z</time></trkpt><trkpt lat="43.7563433" lon="12.5372717"><ele>203.33333333333334</ele><time>2026-04-25T08:33:25.544Z</time></trkpt><trkpt lat="43.756165" lon="12.5372517"><ele>203.0</ele><time>2026-04-25T08:33:26.543Z</time></trkpt><trkpt lat="43.7560117" lon="12.53723"><ele>202.75</ele><time>2026-04-25T08:33:27.543Z</time></trkpt><trkpt lat="43.7558883" lon="12.537205"><ele>202.5</ele><time>2026-04-25T08:33:28.543Z</time></trkpt><trkpt lat="43.7557817" lon="12.537165"><ele>202.25</ele><time>2026-04-25T08:33:29.543Z</time></trkpt><trkpt lat="43.755675" lon="12.537085"><ele>202.0</ele><time>2026-04-25T08:33:30.544Z</time></trkpt><trkpt lat="43.755575" lon="12.537005"><ele>202.75</ele><time>2026-04-25T08:33:31.544Z</time></trkpt><trkpt lat="43.7554733" lon="12.5368933"><ele>203.5</ele><time>2026-04-25T08:33:32.543Z</time></trkpt><trkpt lat="43.7553817" lon="12.536775"><ele>204.25</ele><time>2026-04-25T08:33:33.544Z</time></trkpt><trkpt lat="43.7552783" lon="12.53666"><ele>205.0</ele><time>2026-04-25T08:33:34.543Z</time></trkpt><trkpt lat="43.7551967" lon="12.5365367"><ele>205.0</ele><time>2026-04-25T08:33:35.543Z</time></trkpt><trkpt lat="43.7551383" lon="12.5363917"><ele>205.0</ele><time>2026-04-25T08:33:36.544Z</time></trkpt><trkpt lat="43.7550367" lon="12.536275"><ele>205.0</ele><time>2026-04-25T08:33:37.544Z</time></trkpt><trkpt lat="43.7549017" lon="12.5361783"><ele>205.0</ele><time>2026-04-25T08:33:38.544Z</time></trkpt><trkpt lat="43.75476" lon="12.5360983"><ele>208.0</ele><time>2026-04-25T08:33:39.544Z</time></trkpt><trkpt lat="43.7546217" lon="12.53604"><ele>211.0</ele><time>2026-04-25T08:33:40.544Z</time></trkpt><trkpt lat="43.7544683" lon="12.5360017"><ele>214.0</ele><time>2026-04-25T08:33:41.543Z</time></trkpt><trkpt lat="43.7543183" lon="12.535985"><ele>214.0</ele><time>2026-04-25T08:33:42.544Z</time></trkpt><trkpt lat="43.7541833" lon="12.5359817"><ele>214.0</ele><time>2026-04-25T08:33:43.544Z</time></trkpt><trkpt lat="43.75403" lon="12.5359983"><ele>214.0</ele><time>2026-04-25T08:33:44.544Z</time></trkpt><trkpt lat="43.7538717" lon="12.536035"><ele>214.0</ele><time>2026-04-25T08:33:45.543Z</time></trkpt><trkpt lat="43.7537233" lon="12.536055"><ele>214.0</ele><time>2026-04-25T08:33:46.543Z</time></trkpt><trkpt lat="43.7536017" lon="12.5360383"><ele>214.0</ele><time>2026-04-25T08:33:47.544Z</time></trkpt><trkpt lat="43.7534983" lon="12.535995"><ele>214.0</ele><time>2026-04-25T08:33:48.544Z</time></trkpt><trkpt lat="43.7533883" lon="12.5359283"><ele>214.0</ele><time>2026-04-25T08:33:49.544Z</time></trkpt><trkpt lat="43.753255" lon="12.535835"><ele>214.5</ele><time>2026-04-25T08:33:50.544Z</time></trkpt><trkpt lat="43.75313" lon="12.53568"><ele>215.0</ele><time>2026-04-25T08:33:51.544Z</time></trkpt><trkpt lat="43.7530367" lon="12.5355433"><ele>215.5</ele><time>2026-04-25T08:33:52.544Z</time></trkpt><trkpt lat="43.7529517" lon="12.5354"><ele>216.0</ele><time>2026-04-25T08:33:53.544Z</time></trkpt><trkpt lat="43.75289" lon="12.5352117"><ele>216.0</ele><time>2026-04-25T08:33:54.544Z</time></trkpt><trkpt lat="43.7528267" lon="12.5350167"><ele>216.0</ele><time>2026-04-25T08:33:55.543Z</time></trkpt><trkpt lat="43.7527567" lon="12.53482"><ele>216.0</ele><time>2026-04-25T08:33:56.543Z</time></trkpt><trkpt lat="43.7527" lon="12.5346183"><ele>212.33333333333331</ele><time>2026-04-25T08:33:57.544Z</time></trkpt><trkpt lat="43.7526283" lon="12.5344217"><ele>208.66666666666666</ele><time>2026-04-25T08:33:58.544Z</time></trkpt><trkpt lat="43.7525683" lon="12.534175"><ele>205.0</ele><time>2026-04-25T08:33:59.544Z</time></trkpt><trkpt lat="43.7524933" lon="12.5339467"><ele>205.0</ele><time>2026-04-25T08:34:00.544Z</time></trkpt><trkpt lat="43.75242" lon="12.5337533"><ele>205.0</ele><time>2026-04-25T08:34:01.543Z</time></trkpt><trkpt lat="43.7523717" lon="12.533595"><ele>205.0</ele><time>2026-04-25T08:34:02.543Z</time></trkpt><trkpt lat="43.7523117" lon="12.533465"><ele>205.0</ele><time>2026-04-25T08:34:03.544Z</time></trkpt><trkpt lat="43.7522683" lon="12.5333383"><ele>206.4</ele><time>2026-04-25T08:34:04.544Z</time></trkpt><trkpt lat="43.7522633" lon="12.5332133"><ele>207.8</ele><time>2026-04-25T08:34:05.544Z</time></trkpt><trkpt lat="43.752275" lon="12.5330817"><ele>209.2</ele><time>2026-04-25T08:34:06.544Z</time></trkpt><trkpt lat="43.7523017" lon="12.53295"><ele>210.6</ele><time>2026-04-25T08:34:07.544Z</time></trkpt><trkpt lat="43.75237" lon="12.5327767"><ele>212.0</ele><time>2026-04-25T08:34:08.544Z</time></trkpt><trkpt lat="43.7524067" lon="12.5326283"><ele>213.8</ele><time>2026-04-25T08:34:09.544Z</time></trkpt><trkpt lat="43.7524017" lon="12.5325017"><ele>215.6</ele><time>2026-04-25T08:34:10.543Z</time></trkpt><trkpt lat="43.75237" lon="12.5323833"><ele>217.40000000000003</ele><time>2026-04-25T08:34:11.544Z</time></trkpt><trkpt lat="43.752305" lon="12.5322967"><ele>219.20000000000002</ele><time>2026-04-25T08:34:12.544Z</time></trkpt><trkpt lat="43.7522" lon="12.5321933"><ele>221.0</ele><time>2026-04-25T08:34:13.544Z</time></trkpt><trkpt lat="43.7521067" lon="12.5320717"><ele>221.66666666666669</ele><time>2026-04-25T08:34:14.544Z</time></trkpt><trkpt lat="43.7520067" lon="12.5319233"><ele>222.33333333333331</ele><time>2026-04-25T08:34:15.543Z</time></trkpt><trkpt lat="43.7518867" lon="12.531765"><ele>223.0</ele><time>2026-04-25T08:34:16.543Z</time></trkpt><trkpt lat="43.751755" lon="12.53158"><ele>223.0</ele><time>2026-04-25T08:34:17.543Z</time></trkpt><trkpt lat="43.751635" lon="12.5314133"><ele>223.0</ele><time>2026-04-25T08:34:18.544Z</time></trkpt><trkpt lat="43.7515133" lon="12.5312317"><ele>223.0</ele><time>2026-04-25T08:34:19.544Z</time></trkpt><trkpt lat="43.75135" lon="12.531055"><ele>223.33333333333331</ele><time>2026-04-25T08:34:20.544Z</time></trkpt><trkpt lat="43.7511733" lon="12.5308933"><ele>223.66666666666669</ele><time>2026-04-25T08:34:21.544Z</time></trkpt><trkpt lat="43.7510217" lon="12.530725"><ele>224.0</ele><time>2026-04-25T08:34:22.543Z</time></trkpt><trkpt lat="43.7508683" lon="12.53056"><ele>224.0</ele><time>2026-04-25T08:34:23.544Z</time></trkpt><trkpt lat="43.7506967" lon="12.5304"><ele>224.0</ele><time>2026-04-25T08:34:24.544Z</time></trkpt><trkpt lat="43.75053" lon="12.530245"><ele>224.0</ele><time>2026-04-25T08:34:25.543Z</time></trkpt><trkpt lat="43.7503683" lon="12.53008"><ele>225.33333333333334</ele><time>2026-04-25T08:34:26.543Z</time></trkpt><trkpt lat="43.750185" lon="12.5299017"><ele>226.66666666666669</ele><time>2026-04-25T08:34:27.543Z</time></trkpt><trkpt lat="43.750025" lon="12.5297017"><ele>228.0</ele><time>2026-04-25T08:34:28.544Z</time></trkpt><trkpt lat="43.749895" lon="12.5295467"><ele>232.0</ele><time>2026-04-25T08:34:29.544Z</time></trkpt><trkpt lat="43.749775" lon="12.52943"><ele>236.0</ele><time>2026-04-25T08:34:30.544Z</time></trkpt><trkpt lat="43.749645" lon="12.5293033"><ele>240.0</ele><time>2026-04-25T08:34:31.544Z</time></trkpt><trkpt lat="43.7495267" lon="12.5291833"><ele>240.0</ele><time>2026-04-25T08:34:32.544Z</time></trkpt><trkpt lat="43.74938" lon="12.5290817"><ele>240.0</ele><time>2026-04-25T08:34:33.544Z</time></trkpt><trkpt lat="43.74928" lon="12.5289983"><ele>240.0</ele><time>2026-04-25T08:34:34.543Z</time></trkpt><trkpt lat="43.7491083" lon="12.528945"><ele>239.33333333333331</ele><time>2026-04-25T08:34:35.544Z</time></trkpt><trkpt lat="43.7489283" lon="12.528885"><ele>238.66666666666666</ele><time>2026-04-25T08:34:36.544Z</time></trkpt><trkpt lat="43.7487667" lon="12.5288367"><ele>238.0</ele><time>2026-04-25T08:34:37.543Z</time></trkpt><trkpt lat="43.7486217" lon="12.5288"><ele>236.0</ele><time>2026-04-25T08:34:38.544Z</time></trkpt><trkpt lat="43.7484917" lon="12.5287667"><ele>234.0</ele><time>2026-04-25T08:34:39.543Z</time></trkpt><trkpt lat="43.7483767" lon="12.5287267"><ele>232.0</ele><time>2026-04-25T08:34:40.543Z</time></trkpt><trkpt lat="43.7482433" lon="12.5286583"><ele>230.0</ele><time>2026-04-25T08:34:41.544Z</time></trkpt><trkpt lat="43.7481267" lon="12.5285533"><ele>233.25</ele><time>2026-04-25T08:34:42.543Z</time></trkpt><trkpt lat="43.7480167" lon="12.5284517"><ele>236.5</ele><time>2026-04-25T08:34:43.544Z</time></trkpt><trkpt lat="43.74789" lon="12.5283467"><ele>239.75</ele><time>2026-04-25T08:34:44.543Z</time></trkpt><trkpt lat="43.7477467" lon="12.5282767"><ele>243.0</ele><time>2026-04-25T08:34:45.543Z</time></trkpt><trkpt lat="43.7476" lon="12.5282383"><ele>243.0</ele><time>2026-04-25T08:34:46.543Z</time></trkpt><trkpt lat="43.7474267" lon="12.5282117"><ele>243.0</ele><time>2026-04-25T08:34:47.544Z</time></trkpt><trkpt lat="43.7472783" lon="12.5281783"><ele>243.0</ele><time>2026-04-25T08:34:48.543Z</time></trkpt><trkpt lat="43.7471083" lon="12.528125"><ele>243.0</ele><time>2026-04-25T08:34:49.543Z</time></trkpt><trkpt lat="43.7469583" lon="12.5280817"><ele>243.0</ele><time>2026-04-25T08:34:50.544Z</time></trkpt><trkpt lat="43.7468267" lon="12.5280233"><ele>243.0</ele><time>2026-04-25T08:34:51.543Z</time></trkpt><trkpt lat="43.74672" lon="12.5279467"><ele>243.0</ele><time>2026-04-25T08:34:52.544Z</time></trkpt><trkpt lat="43.7466233" lon="12.52788"><ele>247.0</ele><time>2026-04-25T08:34:53.544Z</time></trkpt><trkpt lat="43.7465483" lon="12.5277783"><ele>251.0</ele><time>2026-04-25T08:34:54.544Z</time></trkpt><trkpt lat="43.7464567" lon="12.52767"><ele>255.0</ele><time>2026-04-25T08:34:55.544Z</time></trkpt><trkpt lat="43.746355" lon="12.5275567"><ele>259.0</ele><time>2026-04-25T08:34:56.543Z</time></trkpt><trkpt lat="43.7462183" lon="12.5274717"><ele>259.0</ele><time>2026-04-25T08:34:57.543Z</time></trkpt><trkpt lat="43.7461033" lon="12.5274167"><ele>259.0</ele><time>2026-04-25T08:34:58.544Z</time></trkpt><trkpt lat="43.7459833" lon="12.5273867"><ele>259.0</ele><time>2026-04-25T08:34:59.544Z</time></trkpt><trkpt lat="43.7458767" lon="12.527355"><ele>259.0</ele><time>2026-04-25T08:35:00.543Z</time></trkpt><trkpt lat="43.7457967" lon="12.52732"><ele>259.0</ele><time>2026-04-25T08:35:01.543Z</time></trkpt><trkpt lat="43.7457133" lon="12.52727"><ele>258.0</ele><time>2026-04-25T08:35:02.544Z</time></trkpt><trkpt lat="43.7456783" lon="12.5271733"><ele>257.0</ele><time>2026-04-25T08:35:03.544Z</time></trkpt><trkpt lat="43.74566" lon="12.5270733"><ele>256.0</ele><time>2026-04-25T08:35:04.544Z</time></trkpt><trkpt lat="43.74565" lon="12.5269683"><ele>255.0</ele><time>2026-04-25T08:35:05.543Z</time></trkpt><trkpt lat="43.7456433" lon="12.52685"><ele>253.99999999999997</ele><time>2026-04-25T08:35:06.544Z</time></trkpt><trkpt lat="43.7456433" lon="12.526705"><ele>253.0</ele><time>2026-04-25T08:35:07.543Z</time></trkpt><trkpt lat="43.7456567" lon="12.5265617"><ele>253.0</ele><time>2026-04-25T08:35:08.544Z</time></trkpt><trkpt lat="43.7456833" lon="12.5264167"><ele>253.0</ele><time>2026-04-25T08:35:09.544Z</time></trkpt><trkpt lat="43.7457" lon="12.5262967"><ele>253.0</ele><time>2026-04-25T08:35:10.543Z</time></trkpt><trkpt lat="43.7457017" lon="12.5261983"><ele>253.0</ele><time>2026-04-25T08:35:11.544Z</time></trkpt><trkpt lat="43.745635" lon="12.5260883"><ele>253.0</ele><time>2026-04-25T08:35:13.543Z</time></trkpt><trkpt lat="43.7455283" lon="12.5260683"><ele>253.0</ele><time>2026-04-25T08:35:15.544Z</time></trkpt><trkpt lat="43.7454033" lon="12.5262183"><ele>253.0</ele><time>2026-04-25T08:35:17.544Z</time></trkpt><trkpt lat="43.745325" lon="12.5263367"><ele>253.0</ele><time>2026-04-25T08:35:18.543Z</time></trkpt><trkpt lat="43.74526" lon="12.5264417"><ele>253.0</ele><time>2026-04-25T08:35:19.544Z</time></trkpt><trkpt lat="43.7451683" lon="12.52655"><ele>254.2</ele><time>2026-04-25T08:35:21.544Z</time></trkpt><trkpt lat="43.7450783" lon="12.5264967"><ele>255.4</ele><time>2026-04-25T08:35:23.544Z</time></trkpt><trkpt lat="43.7450467" lon="12.526405"><ele>256.59999999999997</ele><time>2026-04-25T08:35:24.544Z</time></trkpt><trkpt lat="43.7450133" lon="12.5262483"><ele>257.8</ele><time>2026-04-25T08:35:25.544Z</time></trkpt><trkpt lat="43.74495" lon="12.5260883"><ele>259.0</ele><time>2026-04-25T08:35:26.544Z</time></trkpt><trkpt lat="43.7448933" lon="12.5259433"><ele>259.0</ele><time>2026-04-25T08:35:27.543Z</time></trkpt><trkpt lat="43.74481" lon="12.52584"><ele>259.0</ele><time>2026-04-25T08:35:28.544Z</time></trkpt><trkpt lat="43.74469" lon="12.5257617"><ele>259.0</ele><time>2026-04-25T08:35:29.544Z</time></trkpt><trkpt lat="43.74455" lon="12.5257"><ele>259.0</ele><time>2026-04-25T08:35:30.543Z</time></trkpt><trkpt lat="43.7443833" lon="12.5256217"><ele>261.75</ele><time>2026-04-25T08:35:31.544Z</time></trkpt><trkpt lat="43.7442283" lon="12.5255733"><ele>264.5</ele><time>2026-04-25T08:35:32.544Z</time></trkpt><trkpt lat="43.7440883" lon="12.52554"><ele>267.25</ele><time>2026-04-25T08:35:33.544Z</time></trkpt><trkpt lat="43.74396" lon="12.5254633"><ele>270.0</ele><time>2026-04-25T08:35:34.543Z</time></trkpt><trkpt lat="43.7438117" lon="12.52535"><ele>270.0</ele><time>2026-04-25T08:35:35.543Z</time></trkpt><trkpt lat="43.7436533" lon="12.5252433"><ele>270.0</ele><time>2026-04-25T08:35:36.544Z</time></trkpt><trkpt lat="43.7434783" lon="12.52516"><ele>270.0</ele><time>2026-04-25T08:35:37.544Z</time></trkpt><trkpt lat="43.7433317" lon="12.52509"><ele>264.0</ele><time>2026-04-25T08:35:38.543Z</time></trkpt><trkpt lat="43.7431867" lon="12.5250517"><ele>258.0</ele><time>2026-04-25T08:35:39.544Z</time></trkpt><trkpt lat="43.7430167" lon="12.525045"><ele>252.0</ele><time>2026-04-25T08:35:40.543Z</time></trkpt><trkpt lat="43.742838" lon="12.5250555"><ele>249.25</ele><time>2026-04-25T08:35:41.544Z</time></trkpt><trkpt lat="43.7426889" lon="12.5250721"><ele>246.5</ele><time>2026-04-25T08:35:42.544Z</time></trkpt><trkpt lat="43.7425562" lon="12.5250748"><ele>243.75</ele><time>2026-04-25T08:35:43.544Z</time></trkpt><trkpt lat="43.7424275" lon="12.5250642"><ele>241.0</ele><time>2026-04-25T08:35:44.544Z</time></trkpt><trkpt lat="43.742281" lon="12.5250283"><ele>241.0</ele><time>2026-04-25T08:35:45.543Z</time></trkpt><trkpt lat="43.7421435" lon="12.5249702"><ele>241.0</ele><time>2026-04-25T08:35:46.544Z</time></trkpt><trkpt lat="43.7420189" lon="12.5249016"><ele>241.0</ele><time>2026-04-25T08:35:47.544Z</time></trkpt><trkpt lat="43.7419008" lon="12.5248527"><ele>241.0</ele><time>2026-04-25T08:35:48.543Z</time></trkpt><trkpt lat="43.7417855" lon="12.5248331"><ele>238.8</ele><time>2026-04-25T08:35:49.544Z</time></trkpt><trkpt lat="43.7416629" lon="12.5248445"><ele>236.60000000000002</ele><time>2026-04-25T08:35:50.544Z</time></trkpt><trkpt lat="43.7415588" lon="12.5248883"><ele>234.4</ele><time>2026-04-25T08:35:51.544Z</time></trkpt><trkpt lat="43.7414561" lon="12.5249082"><ele>232.2</ele><time>2026-04-25T08:35:52.543Z</time></trkpt><trkpt lat="43.7413605" lon="12.5248891"><ele>230.0</ele><time>2026-04-25T08:35:53.544Z</time></trkpt><trkpt lat="43.7412853" lon="12.5248203"><ele>230.0</ele><time>2026-04-25T08:35:54.544Z</time></trkpt><trkpt lat="43.7412365" lon="12.5247045"><ele>230.0</ele><time>2026-04-25T08:35:55.543Z</time></trkpt><trkpt lat="43.7411767" lon="12.5245753"><ele>230.0</ele><time>2026-04-25T08:35:56.544Z</time></trkpt><trkpt lat="43.7411463" lon="12.5244234"><ele>230.0</ele><time>2026-04-25T08:35:57.543Z</time></trkpt><trkpt lat="43.7410942" lon="12.5243406"><ele>230.0</ele><time>2026-04-25T08:35:58.544Z</time></trkpt><trkpt lat="43.7410388" lon="12.5242823"><ele>231.4</ele><time>2026-04-25T08:35:59.544Z</time></trkpt><trkpt lat="43.7409715" lon="12.5242817"><ele>232.8</ele><time>2026-04-25T08:36:00.543Z</time></trkpt><trkpt lat="43.7408607" lon="12.5243544"><ele>234.2</ele><time>2026-04-25T08:36:01.544Z</time></trkpt><trkpt lat="43.7407553" lon="12.524392"><ele>235.6</ele><time>2026-04-25T08:36:02.544Z</time></trkpt><trkpt lat="43.7406621" lon="12.5243948"><ele>237.0</ele><time>2026-04-25T08:36:03.544Z</time></trkpt><trkpt lat="43.7405518" lon="12.5243455"><ele>237.0</ele><time>2026-04-25T08:36:04.544Z</time></trkpt><trkpt lat="43.7404398" lon="12.5242436"><ele>237.0</ele><time>2026-04-25T08:36:05.544Z</time></trkpt><trkpt lat="43.7403136" lon="12.5241218"><ele>237.0</ele><time>2026-04-25T08:36:06.544Z</time></trkpt><trkpt lat="43.7401692" lon="12.5239742"><ele>234.66666666666669</ele><time>2026-04-25T08:36:07.544Z</time></trkpt><trkpt lat="43.7400226" lon="12.5238634"><ele>232.33333333333334</ele><time>2026-04-25T08:36:08.544Z</time></trkpt><trkpt lat="43.7398577" lon="12.5238004"><ele>230.0</ele><time>2026-04-25T08:36:09.543Z</time></trkpt><trkpt lat="43.7397043" lon="12.5237553"><ele>230.2</ele><time>2026-04-25T08:36:10.544Z</time></trkpt><trkpt lat="43.7395644" lon="12.5237064"><ele>230.4</ele><time>2026-04-25T08:36:11.544Z</time></trkpt><trkpt lat="43.7394605" lon="12.5236658"><ele>230.60000000000002</ele><time>2026-04-25T08:36:12.544Z</time></trkpt><trkpt lat="43.7393867" lon="12.5236396"><ele>230.8</ele><time>2026-04-25T08:36:13.544Z</time></trkpt><trkpt lat="43.739325" lon="12.5236783"><ele>231.0</ele><time>2026-04-25T08:36:14.544Z</time></trkpt><trkpt lat="43.7392633" lon="12.5237433"><ele>231.0</ele><time>2026-04-25T08:36:15.544Z</time></trkpt><trkpt lat="43.739205" lon="12.5238233"><ele>231.00000000000003</ele><time>2026-04-25T08:36:16.544Z</time></trkpt><trkpt lat="43.7391333" lon="12.5238883"><ele>231.00000000000003</ele><time>2026-04-25T08:36:17.544Z</time></trkpt><trkpt lat="43.739035" lon="12.5239417"><ele>231.0</ele><time>2026-04-25T08:36:18.544Z</time></trkpt><trkpt lat="43.7389283" lon="12.523955"><ele>231.0</ele><time>2026-04-25T08:36:19.544Z</time></trkpt><trkpt lat="43.73884" lon="12.5239317"><ele>231.0</ele><time>2026-04-25T08:36:20.544Z</time></trkpt><trkpt lat="43.73876" lon="12.5238583"><ele>231.0</ele><time>2026-04-25T08:36:21.543Z</time></trkpt><trkpt lat="43.7386733" lon="12.5237567"><ele>231.0</ele><time>2026-04-25T08:36:22.544Z</time></trkpt><trkpt lat="43.7385733" lon="12.5236267"><ele>231.0</ele><time>2026-04-25T08:36:23.544Z</time></trkpt><trkpt lat="43.7384667" lon="12.5235083"><ele>232.8</ele><time>2026-04-25T08:36:24.543Z</time></trkpt><trkpt lat="43.738395" lon="12.5233817"><ele>234.60000000000002</ele><time>2026-04-25T08:36:25.544Z</time></trkpt><trkpt lat="43.7383283" lon="12.5232517"><ele>236.4</ele><time>2026-04-25T08:36:26.543Z</time></trkpt><trkpt lat="43.7382967" lon="12.5231217"><ele>238.2</ele><time>2026-04-25T08:36:27.544Z</time></trkpt><trkpt lat="43.73828" lon="12.5229733"><ele>240.0</ele><time>2026-04-25T08:36:28.544Z</time></trkpt><trkpt lat="43.7382733" lon="12.5228217"><ele>243.0</ele><time>2026-04-25T08:36:29.543Z</time></trkpt><trkpt lat="43.7382433" lon="12.52269"><ele>246.0</ele><time>2026-04-25T08:36:30.544Z</time></trkpt><trkpt lat="43.738205" lon="12.5225767"><ele>249.0</ele><time>2026-04-25T08:36:31.543Z</time></trkpt><trkpt lat="43.7381383" lon="12.522495"><ele>252.0</ele><time>2026-04-25T08:36:32.544Z</time></trkpt><trkpt lat="43.7380317" lon="12.5224367"><ele>255.0</ele><time>2026-04-25T08:36:33.544Z</time></trkpt><trkpt lat="43.7379183" lon="12.5224117"><ele>255.0</ele><time>2026-04-25T08:36:34.544Z</time></trkpt><trkpt lat="43.7377767" lon="12.5224017"><ele>255.0</ele><time>2026-04-25T08:36:35.544Z</time></trkpt><trkpt lat="43.7376217" lon="12.52241"><ele>255.0</ele><time>2026-04-25T08:36:36.544Z</time></trkpt><trkpt lat="43.73746" lon="12.5224267"><ele>253.0</ele><time>2026-04-25T08:36:37.544Z</time></trkpt><trkpt lat="43.7373417" lon="12.5224433"><ele>251.0</ele><time>2026-04-25T08:36:38.544Z</time></trkpt><trkpt lat="43.7372533" lon="12.5224267"><ele>249.0</ele><time>2026-04-25T08:36:39.544Z</time></trkpt><trkpt lat="43.7371717" lon="12.5223683"><ele>247.0</ele><time>2026-04-25T08:36:40.544Z</time></trkpt><trkpt lat="43.7371133" lon="12.5222717"><ele>245.0</ele><time>2026-04-25T08:36:41.543Z</time></trkpt><trkpt lat="43.7370433" lon="12.5221383"><ele>244.25</ele><time>2026-04-25T08:36:42.544Z</time></trkpt><trkpt lat="43.73696" lon="12.522005"><ele>243.5</ele><time>2026-04-25T08:36:43.544Z</time></trkpt><trkpt lat="43.73688" lon="12.5218833"><ele>242.75</ele><time>2026-04-25T08:36:44.543Z</time></trkpt><trkpt lat="43.73676" lon="12.5217983"><ele>242.0</ele><time>2026-04-25T08:36:45.544Z</time></trkpt><trkpt lat="43.7366367" lon="12.5217067"><ele>242.0</ele><time>2026-04-25T08:36:46.544Z</time></trkpt><trkpt lat="43.736505" lon="12.5216283"><ele>242.0</ele><time>2026-04-25T08:36:47.544Z</time></trkpt><trkpt lat="43.7363883" lon="12.521545"><ele>242.0</ele><time>2026-04-25T08:36:48.544Z</time></trkpt><trkpt lat="43.736285" lon="12.5214733"><ele>242.0</ele><time>2026-04-25T08:36:49.544Z</time></trkpt><trkpt lat="43.7362267" lon="12.5213933"><ele>242.00000000000003</ele><time>2026-04-25T08:36:50.543Z</time></trkpt><trkpt lat="43.7362" lon="12.5213017"><ele>242.0</ele><time>2026-04-25T08:36:51.544Z</time></trkpt><trkpt lat="43.73618" lon="12.5212117"><ele>242.0</ele><time>2026-04-25T08:36:52.544Z</time></trkpt><trkpt lat="43.7361883" lon="12.5210983"><ele>242.0</ele><time>2026-04-25T08:36:53.544Z</time></trkpt><trkpt lat="43.7362033" lon="12.5209733"><ele>242.00000000000003</ele><time>2026-04-25T08:36:54.544Z</time></trkpt><trkpt lat="43.73623" lon="12.5208283"><ele>242.0</ele><time>2026-04-25T08:36:55.544Z</time></trkpt><trkpt lat="43.7362217" lon="12.52068"><ele>245.0</ele><time>2026-04-25T08:36:56.543Z</time></trkpt><trkpt lat="43.7361667" lon="12.5205567"><ele>248.0</ele><time>2026-04-25T08:36:57.544Z</time></trkpt><trkpt lat="43.7360783" lon="12.5204367"><ele>251.0</ele><time>2026-04-25T08:36:58.544Z</time></trkpt><trkpt lat="43.7359767" lon="12.5203583"><ele>254.0</ele><time>2026-04-25T08:36:59.544Z</time></trkpt><trkpt lat="43.735845" lon="12.5203"><ele>254.25</ele><time>2026-04-25T08:37:00.544Z</time></trkpt><trkpt lat="43.7357117" lon="12.52024"><ele>254.5</ele><time>2026-04-25T08:37:01.544Z</time></trkpt><trkpt lat="43.73559" lon="12.5202017"><ele>254.75</ele><time>2026-04-25T08:37:02.543Z</time></trkpt><trkpt lat="43.7354817" lon="12.52017"><ele>255.0</ele><time>2026-04-25T08:37:03.544Z</time></trkpt><trkpt lat="43.7353933" lon="12.5201667"><ele>255.0</ele><time>2026-04-25T08:37:04.544Z</time></trkpt><trkpt lat="43.73532" lon="12.5201917"><ele>255.0</ele><time>2026-04-25T08:37:05.543Z</time></trkpt><trkpt lat="43.7352233" lon="12.5202667"><ele>255.0</ele><time>2026-04-25T08:37:06.544Z</time></trkpt><trkpt lat="43.7351417" lon="12.52035"><ele>255.0</ele><time>2026-04-25T08:37:07.544Z</time></trkpt><trkpt lat="43.7350483" lon="12.5204567"><ele>255.0</ele><time>2026-04-25T08:37:08.543Z</time></trkpt><trkpt lat="43.7349783" lon="12.520595"><ele>251.6</ele><time>2026-04-25T08:37:09.543Z</time></trkpt><trkpt lat="43.7349383" lon="12.5207183"><ele>248.2</ele><time>2026-04-25T08:37:10.543Z</time></trkpt><trkpt lat="43.7348667" lon="12.5208333"><ele>244.8</ele><time>2026-04-25T08:37:11.544Z</time></trkpt><trkpt lat="43.73481" lon="12.5209417"><ele>241.4</ele><time>2026-04-25T08:37:12.544Z</time></trkpt><trkpt lat="43.7347317" lon="12.5210317"><ele>238.0</ele><time>2026-04-25T08:37:13.543Z</time></trkpt><trkpt lat="43.7346233" lon="12.521105"><ele>238.0</ele><time>2026-04-25T08:37:14.544Z</time></trkpt><trkpt lat="43.7345" lon="12.5211517"><ele>238.0</ele><time>2026-04-25T08:37:15.544Z</time></trkpt><trkpt lat="43.7343417" lon="12.5211783"><ele>238.0</ele><time>2026-04-25T08:37:16.544Z</time></trkpt><trkpt lat="43.73419" lon="12.5211833"><ele>238.0</ele><time>2026-04-25T08:37:17.544Z</time></trkpt><trkpt lat="43.7340467" lon="12.52118"><ele>237.25</ele><time>2026-04-25T08:37:18.544Z</time></trkpt><trkpt lat="43.73391" lon="12.52117"><ele>236.5</ele><time>2026-04-25T08:37:19.544Z</time></trkpt><trkpt lat="43.7337933" lon="12.521155"><ele>235.75</ele><time>2026-04-25T08:37:20.544Z</time></trkpt><trkpt lat="43.7336833" lon="12.5211283"><ele>235.0</ele><time>2026-04-25T08:37:21.544Z</time></trkpt><trkpt lat="43.7335683" lon="12.521085"><ele>236.33333333333331</ele><time>2026-04-25T08:37:22.544Z</time></trkpt><trkpt lat="43.7334433" lon="12.5210283"><ele>237.66666666666669</ele><time>2026-04-25T08:37:23.544Z</time></trkpt><trkpt lat="43.7333033" lon="12.520945"><ele>239.0</ele><time>2026-04-25T08:37:24.544Z</time></trkpt><trkpt lat="43.7331567" lon="12.5208333"><ele>239.0</ele><time>2026-04-25T08:37:25.544Z</time></trkpt><trkpt lat="43.7330283" lon="12.5207283"><ele>239.0</ele><time>2026-04-25T08:37:26.544Z</time></trkpt><trkpt lat="43.7329217" lon="12.52063"><ele>239.0</ele><time>2026-04-25T08:37:27.544Z</time></trkpt><trkpt lat="43.7328217" lon="12.5205383"><ele>239.0</ele><time>2026-04-25T08:37:28.544Z</time></trkpt><trkpt lat="43.732725" lon="12.5204433"><ele>241.75</ele><time>2026-04-25T08:37:29.544Z</time></trkpt><trkpt lat="43.7326233" lon="12.5203117"><ele>244.5</ele><time>2026-04-25T08:37:30.544Z</time></trkpt><trkpt lat="43.732515" lon="12.5201733"><ele>247.25</ele><time>2026-04-25T08:37:31.543Z</time></trkpt><trkpt lat="43.732415" lon="12.5200383"><ele>250.0</ele><time>2026-04-25T08:37:32.543Z</time></trkpt><trkpt lat="43.732335" lon="12.5199117"><ele>250.0</ele><time>2026-04-25T08:37:33.544Z</time></trkpt><trkpt lat="43.7322517" lon="12.5197983"><ele>250.0</ele><time>2026-04-25T08:37:34.544Z</time></trkpt><trkpt lat="43.7321617" lon="12.5197017"><ele>250.0</ele><time>2026-04-25T08:37:35.544Z</time></trkpt><trkpt lat="43.7320567" lon="12.51963"><ele>250.0</ele><time>2026-04-25T08:37:36.543Z</time></trkpt><trkpt lat="43.73195" lon="12.519585"><ele>248.8</ele><time>2026-04-25T08:37:37.544Z</time></trkpt><trkpt lat="43.7318467" lon="12.51955"><ele>247.6</ele><time>2026-04-25T08:37:38.544Z</time></trkpt><trkpt lat="43.7317683" lon="12.5194967"><ele>246.39999999999998</ele><time>2026-04-25T08:37:39.544Z</time></trkpt><trkpt lat="43.7317083" lon="12.5194117"><ele>245.2</ele><time>2026-04-25T08:37:40.544Z</time></trkpt><trkpt lat="43.731685" lon="12.519285"><ele>244.0</ele><time>2026-04-25T08:37:41.544Z</time></trkpt><trkpt lat="43.7316917" lon="12.5191033"><ele>244.0</ele><time>2026-04-25T08:37:42.544Z</time></trkpt><trkpt lat="43.7316817" lon="12.5189367"><ele>243.99999999999997</ele><time>2026-04-25T08:37:43.544Z</time></trkpt><trkpt lat="43.7316467" lon="12.5188167"><ele>243.99999999999997</ele><time>2026-04-25T08:37:44.544Z</time></trkpt><trkpt lat="43.7316017" lon="12.5187183"><ele>244.0</ele><time>2026-04-25T08:37:45.543Z</time></trkpt><trkpt lat="43.7315217" lon="12.518685"><ele>244.0</ele><time>2026-04-25T08:37:46.544Z</time></trkpt><trkpt lat="43.7314467" lon="12.5186783"><ele>244.0</ele><time>2026-04-25T08:37:47.543Z</time></trkpt><trkpt lat="43.7313767" lon="12.518695"><ele>244.0</ele><time>2026-04-25T08:37:48.544Z</time></trkpt><trkpt lat="43.7312583" lon="12.5187567"><ele>244.0</ele><time>2026-04-25T08:37:49.544Z</time></trkpt><trkpt lat="43.731135" lon="12.518835"><ele>244.0</ele><time>2026-04-25T08:37:50.544Z</time></trkpt><trkpt lat="43.7310183" lon="12.51891"><ele>243.99999999999997</ele><time>2026-04-25T08:37:51.544Z</time></trkpt><trkpt lat="43.730915" lon="12.5189517"><ele>244.0</ele><time>2026-04-25T08:37:52.543Z</time></trkpt><trkpt lat="43.7308417" lon="12.5189683"><ele>244.0</ele><time>2026-04-25T08:37:53.544Z</time></trkpt><trkpt lat="43.7307633" lon="12.5189533"><ele>244.0</ele><time>2026-04-25T08:37:54.543Z</time></trkpt><trkpt lat="43.7307017" lon="12.518875"><ele>243.99999999999997</ele><time>2026-04-25T08:37:55.544Z</time></trkpt><trkpt lat="43.7306717" lon="12.518775"><ele>244.0</ele><time>2026-04-25T08:37:56.543Z</time></trkpt><trkpt lat="43.7306383" lon="12.5186683"><ele>245.79999999999998</ele><time>2026-04-25T08:37:57.544Z</time></trkpt><trkpt lat="43.7305967" lon="12.5185233"><ele>247.59999999999997</ele><time>2026-04-25T08:37:58.544Z</time></trkpt><trkpt lat="43.73053" lon="12.5183583"><ele>249.4</ele><time>2026-04-25T08:37:59.544Z</time></trkpt><trkpt lat="43.7304717" lon="12.5182367"><ele>251.2</ele><time>2026-04-25T08:38:00.543Z</time></trkpt><trkpt lat="43.7304233" lon="12.51817"><ele>253.0</ele><time>2026-04-25T08:38:01.543Z</time></trkpt><trkpt lat="43.7303167" lon="12.51816"><ele>253.0</ele><time>2026-04-25T08:38:03.544Z</time></trkpt><trkpt lat="43.7302317" lon="12.518275"><ele>253.0</ele><time>2026-04-25T08:38:05.544Z</time></trkpt><trkpt lat="43.7301383" lon="12.518325"><ele>253.0</ele><time>2026-04-25T08:38:07.544Z</time></trkpt><trkpt lat="43.7300233" lon="12.518195"><ele>253.0</ele><time>2026-04-25T08:38:09.544Z</time></trkpt><trkpt lat="43.7299417" lon="12.5180967"><ele>251.5</ele><time>2026-04-25T08:38:10.544Z</time></trkpt><trkpt lat="43.7298167" lon="12.5180033"><ele>250.0</ele><time>2026-04-25T08:38:11.544Z</time></trkpt><trkpt lat="43.7296883" lon="12.5179283"><ele>248.5</ele><time>2026-04-25T08:38:12.544Z</time></trkpt><trkpt lat="43.7295717" lon="12.5178767"><ele>247.0</ele><time>2026-04-25T08:38:13.544Z</time></trkpt><trkpt lat="43.7294783" lon="12.5178417"><ele>247.0</ele><time>2026-04-25T08:38:14.544Z</time></trkpt><trkpt lat="43.7293683" lon="12.5178333"><ele>247.0</ele><time>2026-04-25T08:38:15.544Z</time></trkpt><trkpt lat="43.7292867" lon="12.5178417"><ele>247.0</ele><time>2026-04-25T08:38:16.544Z</time></trkpt><trkpt lat="43.7291967" lon="12.5178633"><ele>247.0</ele><time>2026-04-25T08:38:17.544Z</time></trkpt><trkpt lat="43.729135" lon="12.51793"><ele>247.0</ele><time>2026-04-25T08:38:18.544Z</time></trkpt><trkpt lat="43.7290733" lon="12.518025"><ele>247.0</ele><time>2026-04-25T08:38:19.543Z</time></trkpt><trkpt lat="43.7290317" lon="12.5181367"><ele>247.0</ele><time>2026-04-25T08:38:20.544Z</time></trkpt><trkpt lat="43.7289983" lon="12.5182867"><ele>247.0</ele><time>2026-04-25T08:38:21.544Z</time></trkpt><trkpt lat="43.72895" lon="12.5184617"><ele>247.0</ele><time>2026-04-25T08:38:22.543Z</time></trkpt><trkpt lat="43.7289367" lon="12.5186633"><ele>247.39999999999998</ele><time>2026-04-25T08:38:23.543Z</time></trkpt><trkpt lat="43.728895" lon="12.5188217"><ele>247.79999999999998</ele><time>2026-04-25T08:38:24.544Z</time></trkpt><trkpt lat="43.7288233" lon="12.518945"><ele>248.2</ele><time>2026-04-25T08:38:25.543Z</time></trkpt><trkpt lat="43.7287967" lon="12.5190717"><ele>248.6</ele><time>2026-04-25T08:38:26.543Z</time></trkpt><trkpt lat="43.7287433" lon="12.51918"><ele>249.0</ele><time>2026-04-25T08:38:27.544Z</time></trkpt><trkpt lat="43.7287067" lon="12.5192817"><ele>249.0</ele><time>2026-04-25T08:38:28.543Z</time></trkpt><trkpt lat="43.72864" lon="12.51937"><ele>248.99999999999997</ele><time>2026-04-25T08:38:29.544Z</time></trkpt><trkpt lat="43.728545" lon="12.5194267"><ele>248.99999999999997</ele><time>2026-04-25T08:38:30.544Z</time></trkpt><trkpt lat="43.728455" lon="12.5194417"><ele>249.0</ele><time>2026-04-25T08:38:31.544Z</time></trkpt><trkpt lat="43.7283633" lon="12.519425"><ele>249.0</ele><time>2026-04-25T08:38:32.544Z</time></trkpt><trkpt lat="43.7282717" lon="12.5193867"><ele>249.5</ele><time>2026-04-25T08:38:33.544Z</time></trkpt><trkpt lat="43.7282" lon="12.519355"><ele>250.0</ele><time>2026-04-25T08:38:34.543Z</time></trkpt><trkpt lat="43.7281367" lon="12.5193267"><ele>250.5</ele><time>2026-04-25T08:38:35.543Z</time></trkpt><trkpt lat="43.7280617" lon="12.5193"><ele>251.0</ele><time>2026-04-25T08:38:36.544Z</time></trkpt><trkpt lat="43.7279767" lon="12.5192717"><ele>251.5</ele><time>2026-04-25T08:38:37.544Z</time></trkpt><trkpt lat="43.727885" lon="12.5192283"><ele>252.0</ele><time>2026-04-25T08:38:38.543Z</time></trkpt><trkpt lat="43.7277817" lon="12.51917"><ele>252.6</ele><time>2026-04-25T08:38:39.543Z</time></trkpt><trkpt lat="43.727695" lon="12.5191267"><ele>253.2</ele><time>2026-04-25T08:38:40.544Z</time></trkpt><trkpt lat="43.7276167" lon="12.5190883"><ele>253.8</ele><time>2026-04-25T08:38:41.543Z</time></trkpt><trkpt lat="43.7275433" lon="12.519055"><ele>254.4</ele><time>2026-04-25T08:38:42.543Z</time></trkpt><trkpt lat="43.7274617" lon="12.51892"><ele>255.0</ele><time>2026-04-25T08:38:44.544Z</time></trkpt><trkpt lat="43.7274833" lon="12.5188117"><ele>254.5</ele><time>2026-04-25T08:38:45.544Z</time></trkpt><trkpt lat="43.727495" lon="12.518725"><ele>254.0</ele><time>2026-04-25T08:38:46.544Z</time></trkpt><trkpt lat="43.7275317" lon="12.5186267"><ele>253.5</ele><time>2026-04-25T08:38:47.544Z</time></trkpt><trkpt lat="43.72761" lon="12.51852"><ele>253.0</ele><time>2026-04-25T08:38:48.544Z</time></trkpt><trkpt lat="43.7276867" lon="12.518425"><ele>252.5</ele><time>2026-04-25T08:38:49.543Z</time></trkpt><trkpt lat="43.7277483" lon="12.51833"><ele>252.0</ele><time>2026-04-25T08:38:50.544Z</time></trkpt><trkpt lat="43.72781" lon="12.5181883"><ele>251.25</ele><time>2026-04-25T08:38:51.544Z</time></trkpt><trkpt lat="43.7278917" lon="12.5180283"><ele>250.5</ele><time>2026-04-25T08:38:52.543Z</time></trkpt><trkpt lat="43.72794" lon="12.5178783"><ele>249.75</ele><time>2026-04-25T08:38:53.544Z</time></trkpt><trkpt lat="43.727975" lon="12.51775"><ele>249.0</ele><time>2026-04-25T08:38:54.544Z</time></trkpt><trkpt lat="43.7279883" lon="12.5176067"><ele>248.6</ele><time>2026-04-25T08:38:55.543Z</time></trkpt><trkpt lat="43.7279833" lon="12.5174617"><ele>248.2</ele><time>2026-04-25T08:38:56.544Z</time></trkpt><trkpt lat="43.7279817" lon="12.517295"><ele>247.79999999999998</ele><time>2026-04-25T08:38:57.544Z</time></trkpt><trkpt lat="43.7279467" lon="12.517155"><ele>247.39999999999998</ele><time>2026-04-25T08:38:58.544Z</time></trkpt><trkpt lat="43.7278933" lon="12.5170217"><ele>247.0</ele><time>2026-04-25T08:38:59.544Z</time></trkpt><trkpt lat="43.7278183" lon="12.5169167"><ele>247.33333333333331</ele><time>2026-04-25T08:39:00.544Z</time></trkpt><trkpt lat="43.7277517" lon="12.51685"><ele>247.66666666666666</ele><time>2026-04-25T08:39:01.544Z</time></trkpt><trkpt lat="43.72765" lon="12.5167833"><ele>248.0</ele><time>2026-04-25T08:39:02.544Z</time></trkpt><trkpt lat="43.7275667" lon="12.5167483"><ele>248.33333333333331</ele><time>2026-04-25T08:39:03.544Z</time></trkpt><trkpt lat="43.72749" lon="12.5167383"><ele>248.66666666666666</ele><time>2026-04-25T08:39:04.543Z</time></trkpt><trkpt lat="43.7274033" lon="12.5167617"><ele>249.0</ele><time>2026-04-25T08:39:05.544Z</time></trkpt><trkpt lat="43.7273017" lon="12.51684"><ele>249.0</ele><time>2026-04-25T08:39:06.544Z</time></trkpt><trkpt lat="43.7272" lon="12.5169117"><ele>248.99999999999997</ele><time>2026-04-25T08:39:07.544Z</time></trkpt><trkpt lat="43.727095" lon="12.5169533"><ele>248.99999999999997</ele><time>2026-04-25T08:39:08.544Z</time></trkpt><trkpt lat="43.7269883" lon="12.5169583"><ele>249.0</ele><time>2026-04-25T08:39:09.544Z</time></trkpt><trkpt lat="43.7268767" lon="12.5169233"><ele>249.0</ele><time>2026-04-25T08:39:10.544Z</time></trkpt><trkpt lat="43.7267733" lon="12.516845"><ele>252.25</ele><time>2026-04-25T08:39:11.543Z</time></trkpt><trkpt lat="43.7266817" lon="12.5167433"><ele>255.5</ele><time>2026-04-25T08:39:12.543Z</time></trkpt><trkpt lat="43.7265883" lon="12.5166133"><ele>258.75</ele><time>2026-04-25T08:39:13.544Z</time></trkpt><trkpt lat="43.7265033" lon="12.5164567"><ele>262.0</ele><time>2026-04-25T08:39:14.544Z</time></trkpt><trkpt lat="43.72642" lon="12.5162817"><ele>259.5</ele><time>2026-04-25T08:39:15.544Z</time></trkpt><trkpt lat="43.7263317" lon="12.5161017"><ele>257.0</ele><time>2026-04-25T08:39:16.544Z</time></trkpt><trkpt lat="43.7262783" lon="12.51592"><ele>254.5</ele><time>2026-04-25T08:39:17.544Z</time></trkpt><trkpt lat="43.7262383" lon="12.51576"><ele>252.0</ele><time>2026-04-25T08:39:18.544Z</time></trkpt><trkpt lat="43.72619" lon="12.5156233"><ele>252.0</ele><time>2026-04-25T08:39:19.544Z</time></trkpt><trkpt lat="43.72613" lon="12.51548"><ele>252.0</ele><time>2026-04-25T08:39:20.543Z</time></trkpt><trkpt lat="43.7260533" lon="12.5153517"><ele>252.0</ele><time>2026-04-25T08:39:21.544Z</time></trkpt><trkpt lat="43.7259617" lon="12.5152467"><ele>252.0</ele><time>2026-04-25T08:39:22.544Z</time></trkpt><trkpt lat="43.725855" lon="12.515175"><ele>253.16666666666666</ele><time>2026-04-25T08:39:23.544Z</time></trkpt><trkpt lat="43.7257683" lon="12.5151117"><ele>254.33333333333331</ele><time>2026-04-25T08:39:24.544Z</time></trkpt><trkpt lat="43.7257067" lon="12.5150183"><ele>255.5</ele><time>2026-04-25T08:39:25.544Z</time></trkpt><trkpt lat="43.7256833" lon="12.5149"><ele>256.66666666666663</ele><time>2026-04-25T08:39:26.543Z</time></trkpt><trkpt lat="43.72569" lon="12.51479"><ele>257.8333333333333</ele><time>2026-04-25T08:39:27.543Z</time></trkpt><trkpt lat="43.7257383" lon="12.5146867"><ele>259.0</ele><time>2026-04-25T08:39:28.544Z</time></trkpt><trkpt lat="43.7258067" lon="12.5145867"><ele>258.59999999999997</ele><time>2026-04-25T08:39:29.544Z</time></trkpt><trkpt lat="43.72589" lon="12.5145183"><ele>258.2</ele><time>2026-04-25T08:39:30.544Z</time></trkpt><trkpt lat="43.7259617" lon="12.51446"><ele>257.79999999999995</ele><time>2026-04-25T08:39:31.544Z</time></trkpt><trkpt lat="43.7260383" lon="12.51437"><ele>257.4</ele><time>2026-04-25T08:39:32.544Z</time></trkpt><trkpt lat="43.726025" lon="12.5141783"><ele>257.0</ele><time>2026-04-25T08:39:34.544Z</time></trkpt><trkpt lat="43.725965" lon="12.5140633"><ele>257.0</ele><time>2026-04-25T08:39:35.544Z</time></trkpt><trkpt lat="43.725885" lon="12.513925"><ele>257.0</ele><time>2026-04-25T08:39:36.544Z</time></trkpt><trkpt lat="43.7258267" lon="12.5137783"><ele>257.0</ele><time>2026-04-25T08:39:37.544Z</time></trkpt><trkpt lat="43.7257983" lon="12.5136067"><ele>257.0</ele><time>2026-04-25T08:39:38.544Z</time></trkpt><trkpt lat="43.7258033" lon="12.5134217"><ele>257.4</ele><time>2026-04-25T08:39:39.543Z</time></trkpt><trkpt lat="43.7258017" lon="12.5132717"><ele>257.79999999999995</ele><time>2026-04-25T08:39:40.544Z</time></trkpt><trkpt lat="43.725815" lon="12.5131333"><ele>258.2</ele><time>2026-04-25T08:39:41.544Z</time></trkpt><trkpt lat="43.7257683" lon="12.51303"><ele>258.59999999999997</ele><time>2026-04-25T08:39:42.544Z</time></trkpt><trkpt lat="43.7257183" lon="12.51295"><ele>259.0</ele><time>2026-04-25T08:39:43.544Z</time></trkpt><trkpt lat="43.7256383" lon="12.5128917"><ele>259.5</ele><time>2026-04-25T08:39:44.544Z</time></trkpt><trkpt lat="43.7255333" lon="12.5128283"><ele>260.0</ele><time>2026-04-25T08:39:45.543Z</time></trkpt><trkpt lat="43.7254133" lon="12.5127817"><ele>260.5</ele><time>2026-04-25T08:39:46.544Z</time></trkpt><trkpt lat="43.7253" lon="12.5127233"><ele>261.0</ele><time>2026-04-25T08:39:47.544Z</time></trkpt><trkpt lat="43.7252217" lon="12.5126183"><ele>261.5</ele><time>2026-04-25T08:39:48.544Z</time></trkpt><trkpt lat="43.7251667" lon="12.5124983"><ele>262.0</ele><time>2026-04-25T08:39:49.544Z</time></trkpt><trkpt lat="43.7251383" lon="12.5123583"><ele>262.5</ele><time>2026-04-25T08:39:50.544Z</time></trkpt><trkpt lat="43.7251233" lon="12.5121717"><ele>263.0</ele><time>2026-04-25T08:39:51.544Z</time></trkpt><trkpt lat="43.72512" lon="12.5119683"><ele>263.0</ele><time>2026-04-25T08:39:52.544Z</time></trkpt><trkpt lat="43.7251083" lon="12.5117783"><ele>263.0</ele><time>2026-04-25T08:39:53.544Z</time></trkpt><trkpt lat="43.7250733" lon="12.511585"><ele>263.0</ele><time>2026-04-25T08:39:54.543Z</time></trkpt><trkpt lat="43.7250267" lon="12.5113817"><ele>263.0</ele><time>2026-04-25T08:39:55.544Z</time></trkpt><trkpt lat="43.7249617" lon="12.5111567"><ele>262.5</ele><time>2026-04-25T08:39:56.544Z</time></trkpt><trkpt lat="43.72489" lon="12.5109567"><ele>262.0</ele><time>2026-04-25T08:39:57.544Z</time></trkpt><trkpt lat="43.72484" lon="12.5107783"><ele>261.5</ele><time>2026-04-25T08:39:58.543Z</time></trkpt><trkpt lat="43.7248017" lon="12.5106467"><ele>261.0</ele><time>2026-04-25T08:39:59.544Z</time></trkpt><trkpt lat="43.7247717" lon="12.51052"><ele>261.0</ele><time>2026-04-25T08:40:00.543Z</time></trkpt><trkpt lat="43.724775" lon="12.5104083"><ele>261.0</ele><time>2026-04-25T08:40:01.544Z</time></trkpt><trkpt lat="43.7248033" lon="12.5103017"><ele>261.0</ele><time>2026-04-25T08:40:02.543Z</time></trkpt><trkpt lat="43.7248283" lon="12.5102133"><ele>261.0</ele><time>2026-04-25T08:40:03.544Z</time></trkpt><trkpt lat="43.72479" lon="12.5100517"><ele>261.0</ele><time>2026-04-25T08:40:05.544Z</time></trkpt><trkpt lat="43.7247233" lon="12.5099583"><ele>261.0</ele><time>2026-04-25T08:40:06.544Z</time></trkpt><trkpt lat="43.72463" lon="12.50985"><ele>262.25</ele><time>2026-04-25T08:40:07.544Z</time></trkpt><trkpt lat="43.724515" lon="12.50973"><ele>263.5</ele><time>2026-04-25T08:40:08.544Z</time></trkpt><trkpt lat="43.7244" lon="12.509605"><ele>264.75</ele><time>2026-04-25T08:40:09.543Z</time></trkpt><trkpt lat="43.724285" lon="12.50946"><ele>266.0</ele><time>2026-04-25T08:40:10.543Z</time></trkpt><trkpt lat="43.7242033" lon="12.5092883"><ele>266.5</ele><time>2026-04-25T08:40:11.543Z</time></trkpt><trkpt lat="43.72412" lon="12.5090933"><ele>267.0</ele><time>2026-04-25T08:40:12.543Z</time></trkpt><trkpt lat="43.7240383" lon="12.5089283"><ele>267.5</ele><time>2026-04-25T08:40:13.544Z</time></trkpt><trkpt lat="43.72395" lon="12.5087933"><ele>268.0</ele><time>2026-04-25T08:40:14.543Z</time></trkpt><trkpt lat="43.72388" lon="12.5086417"><ele>269.0</ele><time>2026-04-25T08:40:15.544Z</time></trkpt><trkpt lat="43.7238033" lon="12.508465"><ele>270.0</ele><time>2026-04-25T08:40:16.544Z</time></trkpt><trkpt lat="43.7237483" lon="12.5082517"><ele>271.0</ele><time>2026-04-25T08:40:17.544Z</time></trkpt><trkpt lat="43.723695" lon="12.5080483"><ele>271.75</ele><time>2026-04-25T08:40:18.544Z</time></trkpt><trkpt lat="43.7236367" lon="12.50784"><ele>272.5</ele><time>2026-04-25T08:40:19.544Z</time></trkpt><trkpt lat="43.7236117" lon="12.50764"><ele>273.25</ele><time>2026-04-25T08:40:20.543Z</time></trkpt><trkpt lat="43.7235367" lon="12.5074883"><ele>274.0</ele><time>2026-04-25T08:40:21.544Z</time></trkpt><trkpt lat="43.7234767" lon="12.5073383"><ele>273.25</ele><time>2026-04-25T08:40:22.544Z</time></trkpt><trkpt lat="43.7233967" lon="12.5072033"><ele>272.5</ele><time>2026-04-25T08:40:23.544Z</time></trkpt><trkpt lat="43.72331" lon="12.507065"><ele>271.75</ele><time>2026-04-25T08:40:24.544Z</time></trkpt><trkpt lat="43.72319" lon="12.5069283"><ele>271.0</ele><time>2026-04-25T08:40:25.544Z</time></trkpt><trkpt lat="43.72308" lon="12.506785"><ele>271.0</ele><time>2026-04-25T08:40:26.544Z</time></trkpt><trkpt lat="43.722965" lon="12.50665"><ele>271.0</ele><time>2026-04-25T08:40:27.544Z</time></trkpt><trkpt lat="43.72288" lon="12.5064767"><ele>271.0</ele><time>2026-04-25T08:40:28.543Z</time></trkpt><trkpt lat="43.72277" lon="12.5063417"><ele>271.0</ele><time>2026-04-25T08:40:29.544Z</time></trkpt><trkpt lat="43.7226917" lon="12.506195"><ele>271.25</ele><time>2026-04-25T08:40:30.544Z</time></trkpt><trkpt lat="43.7226333" lon="12.5060383"><ele>271.5</ele><time>2026-04-25T08:40:31.544Z</time></trkpt><trkpt lat="43.722575" lon="12.50588"><ele>271.75</ele><time>2026-04-25T08:40:32.544Z</time></trkpt><trkpt lat="43.722535" lon="12.50573"><ele>272.0</ele><time>2026-04-25T08:40:33.544Z</time></trkpt><trkpt lat="43.7225267" lon="12.5055717"><ele>272.0</ele><time>2026-04-25T08:40:34.544Z</time></trkpt><trkpt lat="43.7224733" lon="12.5054517"><ele>272.0</ele><time>2026-04-25T08:40:35.544Z</time></trkpt><trkpt lat="43.7224033" lon="12.505375"><ele>272.0</ele><time>2026-04-25T08:40:36.544Z</time></trkpt><trkpt lat="43.72232" lon="12.5053117"><ele>272.0</ele><time>2026-04-25T08:40:37.544Z</time></trkpt><trkpt lat="43.7221933" lon="12.5052733"><ele>272.0</ele><time>2026-04-25T08:40:38.544Z</time></trkpt><trkpt lat="43.7220633" lon="12.5052417"><ele>273.75</ele><time>2026-04-25T08:40:39.543Z</time></trkpt><trkpt lat="43.7219417" lon="12.5052383"><ele>275.5</ele><time>2026-04-25T08:40:40.544Z</time></trkpt><trkpt lat="43.7217933" lon="12.5052683"><ele>277.25</ele><time>2026-04-25T08:40:41.544Z</time></trkpt><trkpt lat="43.7216683" lon="12.50528"><ele>279.0</ele><time>2026-04-25T08:40:42.543Z</time></trkpt><trkpt lat="43.7215567" lon="12.50527"><ele>279.0</ele><time>2026-04-25T08:40:43.544Z</time></trkpt><trkpt lat="43.7214683" lon="12.5052067"><ele>279.0</ele><time>2026-04-25T08:40:44.544Z</time></trkpt><trkpt lat="43.7213867" lon="12.5051117"><ele>279.0</ele><time>2026-04-25T08:40:45.543Z</time></trkpt><trkpt lat="43.7213133" lon="12.5049717"><ele>279.0</ele><time>2026-04-25T08:40:46.544Z</time></trkpt><trkpt lat="43.7212517" lon="12.5047683"><ele>277.25</ele><time>2026-04-25T08:40:47.543Z</time></trkpt><trkpt lat="43.7211883" lon="12.5045717"><ele>275.5</ele><time>2026-04-25T08:40:48.544Z</time></trkpt><trkpt lat="43.7211367" lon="12.5044"><ele>273.75</ele><time>2026-04-25T08:40:49.544Z</time></trkpt><trkpt lat="43.7211033" lon="12.5042167"><ele>272.0</ele><time>2026-04-25T08:40:50.543Z</time></trkpt><trkpt lat="43.7210583" lon="12.504045"><ele>272.0</ele><time>2026-04-25T08:40:51.544Z</time></trkpt><trkpt lat="43.7210267" lon="12.50387"><ele>272.0</ele><time>2026-04-25T08:40:52.543Z</time></trkpt><trkpt lat="43.72103" lon="12.503705"><ele>272.0</ele><time>2026-04-25T08:40:53.544Z</time></trkpt><trkpt lat="43.721005" lon="12.503565"><ele>272.0</ele><time>2026-04-25T08:40:54.544Z</time></trkpt><trkpt lat="43.720965" lon="12.5034767"><ele>272.0</ele><time>2026-04-25T08:40:55.544Z</time></trkpt><trkpt lat="43.7208967" lon="12.50341"><ele>273.75</ele><time>2026-04-25T08:40:56.544Z</time></trkpt><trkpt lat="43.7208033" lon="12.50334"><ele>275.5</ele><time>2026-04-25T08:40:57.543Z</time></trkpt><trkpt lat="43.720675" lon="12.5032783"><ele>277.25</ele><time>2026-04-25T08:40:58.544Z</time></trkpt><trkpt lat="43.7205183" lon="12.50324"><ele>279.0</ele><time>2026-04-25T08:40:59.544Z</time></trkpt><trkpt lat="43.7203967" lon="12.5031733"><ele>279.0</ele><time>2026-04-25T08:41:00.544Z</time></trkpt><trkpt lat="43.72029" lon="12.5030567"><ele>279.0</ele><time>2026-04-25T08:41:01.543Z</time></trkpt><trkpt lat="43.720195" lon="12.5029383"><ele>279.0</ele><time>2026-04-25T08:41:02.544Z</time></trkpt><trkpt lat="43.7201" lon="12.50281"><ele>279.0</ele><time>2026-04-25T08:41:03.544Z</time></trkpt><trkpt lat="43.719975" lon="12.5027367"><ele>281.3333333333333</ele><time>2026-04-25T08:41:04.544Z</time></trkpt><trkpt lat="43.71981" lon="12.50266"><ele>283.66666666666663</ele><time>2026-04-25T08:41:05.544Z</time></trkpt><trkpt lat="43.7196433" lon="12.5025967"><ele>286.0</ele><time>2026-04-25T08:41:06.544Z</time></trkpt><trkpt lat="43.7194833" lon="12.5025317"><ele>283.75</ele><time>2026-04-25T08:41:07.544Z</time></trkpt><trkpt lat="43.7193317" lon="12.5024767"><ele>281.5</ele><time>2026-04-25T08:41:08.544Z</time></trkpt><trkpt lat="43.7191917" lon="12.502425"><ele>279.25</ele><time>2026-04-25T08:41:09.544Z</time></trkpt><trkpt lat="43.7190583" lon="12.5023733"><ele>277.0</ele><time>2026-04-25T08:41:10.543Z</time></trkpt><trkpt lat="43.71897" lon="12.502285"><ele>277.0</ele><time>2026-04-25T08:41:11.543Z</time></trkpt><trkpt lat="43.7189183" lon="12.50217"><ele>277.0</ele><time>2026-04-25T08:41:12.544Z</time></trkpt><trkpt lat="43.7188633" lon="12.502055"><ele>277.0</ele><time>2026-04-25T08:41:13.543Z</time></trkpt><trkpt lat="43.7188267" lon="12.5019383"><ele>277.0</ele><time>2026-04-25T08:41:14.543Z</time></trkpt><trkpt lat="43.718795" lon="12.5017933"><ele>277.0</ele><time>2026-04-25T08:41:15.544Z</time></trkpt><trkpt lat="43.7187783" lon="12.5016483"><ele>276.6</ele><time>2026-04-25T08:41:16.544Z</time></trkpt><trkpt lat="43.7187883" lon="12.501545"><ele>276.2</ele><time>2026-04-25T08:41:17.544Z</time></trkpt><trkpt lat="43.7187383" lon="12.5014167"><ele>275.8</ele><time>2026-04-25T08:41:19.544Z</time></trkpt><trkpt lat="43.7186883" lon="12.5013433"><ele>275.4</ele><time>2026-04-25T08:41:20.543Z</time></trkpt><trkpt lat="43.7186067" lon="12.5013017"><ele>275.0</ele><time>2026-04-25T08:41:21.544Z</time></trkpt><trkpt lat="43.7184933" lon="12.5012617"><ele>276.5</ele><time>2026-04-25T08:41:22.544Z</time></trkpt><trkpt lat="43.7183617" lon="12.5011967"><ele>278.0</ele><time>2026-04-25T08:41:23.544Z</time></trkpt><trkpt lat="43.7182367" lon="12.5011133"><ele>279.5</ele><time>2026-04-25T08:41:24.543Z</time></trkpt><trkpt lat="43.7181217" lon="12.5010317"><ele>281.0</ele><time>2026-04-25T08:41:25.543Z</time></trkpt><trkpt lat="43.7180217" lon="12.5009633"><ele>281.0</ele><time>2026-04-25T08:41:26.544Z</time></trkpt><trkpt lat="43.7179567" lon="12.50088"><ele>281.0</ele><time>2026-04-25T08:41:27.543Z</time></trkpt><trkpt lat="43.7179017" lon="12.5007883"><ele>281.0</ele><time>2026-04-25T08:41:28.544Z</time></trkpt><trkpt lat="43.7178417" lon="12.500705"><ele>281.0</ele><time>2026-04-25T08:41:29.544Z</time></trkpt><trkpt lat="43.7177483" lon="12.500655"><ele>281.0</ele><time>2026-04-25T08:41:30.544Z</time></trkpt><trkpt lat="43.717635" lon="12.5006183"><ele>280.75</ele><time>2026-04-25T08:41:31.543Z</time></trkpt><trkpt lat="43.7175133" lon="12.500595"><ele>280.5</ele><time>2026-04-25T08:41:32.543Z</time></trkpt><trkpt lat="43.7173833" lon="12.5005433"><ele>280.25</ele><time>2026-04-25T08:41:33.544Z</time></trkpt><trkpt lat="43.7172533" lon="12.5004517"><ele>280.0</ele><time>2026-04-25T08:41:34.543Z</time></trkpt><trkpt lat="43.7171267" lon="12.500345"><ele>282.66666666666663</ele><time>2026-04-25T08:41:35.544Z</time></trkpt><trkpt lat="43.71699" lon="12.5002183"><ele>285.3333333333333</ele><time>2026-04-25T08:41:36.544Z</time></trkpt><trkpt lat="43.7168733" lon="12.500075"><ele>288.0</ele><time>2026-04-25T08:41:37.543Z</time></trkpt><trkpt lat="43.7167683" lon="12.4999417"><ele>288.0</ele><time>2026-04-25T08:41:38.544Z</time></trkpt><trkpt lat="43.7166767" lon="12.499825"><ele>288.0</ele><time>2026-04-25T08:41:39.544Z</time></trkpt><trkpt lat="43.7165767" lon="12.4997167"><ele>288.0</ele><time>2026-04-25T08:41:40.544Z</time></trkpt><trkpt lat="43.7164367" lon="12.4996433"><ele>288.0</ele><time>2026-04-25T08:41:41.544Z</time></trkpt><trkpt lat="43.7163033" lon="12.4995983"><ele>286.75</ele><time>2026-04-25T08:41:42.543Z</time></trkpt><trkpt lat="43.716175" lon="12.4995717"><ele>285.5</ele><time>2026-04-25T08:41:43.544Z</time></trkpt><trkpt lat="43.7160533" lon="12.4995733"><ele>284.25</ele><time>2026-04-25T08:41:44.543Z</time></trkpt><trkpt lat="43.71593" lon="12.4996083"><ele>283.0</ele><time>2026-04-25T08:41:45.544Z</time></trkpt><trkpt lat="43.71584" lon="12.499625"><ele>283.0</ele><time>2026-04-25T08:41:46.544Z</time></trkpt><trkpt lat="43.7157533" lon="12.4996117"><ele>283.0</ele><time>2026-04-25T08:41:47.543Z</time></trkpt><trkpt lat="43.7156567" lon="12.4995683"><ele>283.0</ele><time>2026-04-25T08:41:48.544Z</time></trkpt><trkpt lat="43.7155533" lon="12.4994917"><ele>283.0</ele><time>2026-04-25T08:41:49.544Z</time></trkpt><trkpt lat="43.7154283" lon="12.4993617"><ele>284.3333333333333</ele><time>2026-04-25T08:41:50.544Z</time></trkpt><trkpt lat="43.7153033" lon="12.499215"><ele>285.6666666666667</ele><time>2026-04-25T08:41:51.543Z</time></trkpt><trkpt lat="43.7152033" lon="12.4990517"><ele>287.0</ele><time>2026-04-25T08:41:52.544Z</time></trkpt><trkpt lat="43.7151117" lon="12.498905"><ele>287.0</ele><time>2026-04-25T08:41:53.543Z</time></trkpt><trkpt lat="43.7150167" lon="12.4987783"><ele>287.0</ele><time>2026-04-25T08:41:54.544Z</time></trkpt><trkpt lat="43.7149267" lon="12.498675"><ele>287.0</ele><time>2026-04-25T08:41:55.544Z</time></trkpt><trkpt lat="43.71486" lon="12.4985667"><ele>287.0</ele><time>2026-04-25T08:41:56.544Z</time></trkpt><trkpt lat="43.714805" lon="12.49845"><ele>289.0</ele><time>2026-04-25T08:41:57.544Z</time></trkpt><trkpt lat="43.7147333" lon="12.498295"><ele>291.0</ele><time>2026-04-25T08:41:58.543Z</time></trkpt><trkpt lat="43.7146783" lon="12.4981083"><ele>293.0</ele><time>2026-04-25T08:41:59.544Z</time></trkpt><trkpt lat="43.7145883" lon="12.497975"><ele>295.0</ele><time>2026-04-25T08:42:00.544Z</time></trkpt><trkpt lat="43.7144817" lon="12.4978483"><ele>296.6</ele><time>2026-04-25T08:42:01.543Z</time></trkpt><trkpt lat="43.7144083" lon="12.497725"><ele>298.2</ele><time>2026-04-25T08:42:02.543Z</time></trkpt><trkpt lat="43.7143533" lon="12.497615"><ele>299.8</ele><time>2026-04-25T08:42:03.544Z</time></trkpt><trkpt lat="43.714315" lon="12.49753"><ele>301.4</ele><time>2026-04-25T08:42:04.544Z</time></trkpt><trkpt lat="43.7142133" lon="12.4974383"><ele>303.0</ele><time>2026-04-25T08:42:05.544Z</time></trkpt><trkpt lat="43.7141133" lon="12.4973417"><ele>300.2</ele><time>2026-04-25T08:42:06.544Z</time></trkpt><trkpt lat="43.71406" lon="12.4972083"><ele>297.4</ele><time>2026-04-25T08:42:07.544Z</time></trkpt><trkpt lat="43.7139667" lon="12.49711"><ele>294.59999999999997</ele><time>2026-04-25T08:42:08.544Z</time></trkpt><trkpt lat="43.7138983" lon="12.4970217"><ele>291.8</ele><time>2026-04-25T08:42:09.544Z</time></trkpt><trkpt lat="43.71383" lon="12.4969167"><ele>289.0</ele><time>2026-04-25T08:42:10.543Z</time></trkpt><trkpt lat="43.7137633" lon="12.496825"><ele>289.0</ele><time>2026-04-25T08:42:11.544Z</time></trkpt><trkpt lat="43.7137" lon="12.49674"><ele>289.0</ele><time>2026-04-25T08:42:12.544Z</time></trkpt><trkpt lat="43.7136183" lon="12.4966717"><ele>289.0</ele><time>2026-04-25T08:42:13.543Z</time></trkpt><trkpt lat="43.7135283" lon="12.4966267"><ele>289.0</ele><time>2026-04-25T08:42:14.544Z</time></trkpt><trkpt lat="43.7134133" lon="12.4966"><ele>289.0</ele><time>2026-04-25T08:42:15.544Z</time></trkpt><trkpt lat="43.71325" lon="12.496575"><ele>288.66666666666663</ele><time>2026-04-25T08:42:16.544Z</time></trkpt><trkpt lat="43.7130817" lon="12.496545"><ele>288.3333333333333</ele><time>2026-04-25T08:42:17.544Z</time></trkpt><trkpt lat="43.712905" lon="12.4965067"><ele>288.0</ele><time>2026-04-25T08:42:18.544Z</time></trkpt><trkpt lat="43.71274" lon="12.496465"><ele>288.4</ele><time>2026-04-25T08:42:19.544Z</time></trkpt><trkpt lat="43.71261" lon="12.4964"><ele>288.8</ele><time>2026-04-25T08:42:20.544Z</time></trkpt><trkpt lat="43.712505" lon="12.4963283"><ele>289.2</ele><time>2026-04-25T08:42:21.544Z</time></trkpt><trkpt lat="43.712405" lon="12.4962867"><ele>289.6</ele><time>2026-04-25T08:42:22.544Z</time></trkpt><trkpt lat="43.7123217" lon="12.4962633"><ele>290.0</ele><time>2026-04-25T08:42:23.544Z</time></trkpt><trkpt lat="43.7122333" lon="12.4962733"><ele>290.0</ele><time>2026-04-25T08:42:24.543Z</time></trkpt><trkpt lat="43.712145" lon="12.4963183"><ele>290.0</ele><time>2026-04-25T08:42:25.544Z</time></trkpt><trkpt lat="43.7120383" lon="12.4964"><ele>290.0</ele><time>2026-04-25T08:42:26.544Z</time></trkpt><trkpt lat="43.7119285" lon="12.4964642"><ele>290.0</ele><time>2026-04-25T08:42:27.543Z</time></trkpt><trkpt lat="43.7118198" lon="12.4964848"><ele>290.0</ele><time>2026-04-25T08:42:28.544Z</time></trkpt><trkpt lat="43.7117102" lon="12.4964626"><ele>290.75</ele><time>2026-04-25T08:42:29.543Z</time></trkpt><trkpt lat="43.7115975" lon="12.496409"><ele>291.5</ele><time>2026-04-25T08:42:30.544Z</time></trkpt><trkpt lat="43.7114994" lon="12.4963278"><ele>292.25</ele><time>2026-04-25T08:42:31.543Z</time></trkpt><trkpt lat="43.711409" lon="12.496207"><ele>293.0</ele><time>2026-04-25T08:42:32.544Z</time></trkpt><trkpt lat="43.7113208" lon="12.4960361"><ele>293.0</ele><time>2026-04-25T08:42:33.543Z</time></trkpt><trkpt lat="43.7112334" lon="12.4958407"><ele>293.0</ele><time>2026-04-25T08:42:34.544Z</time></trkpt><trkpt lat="43.711162" lon="12.4956319"><ele>293.0</ele><time>2026-04-25T08:42:35.543Z</time></trkpt><trkpt lat="43.7110733" lon="12.4954259"><ele>293.0</ele><time>2026-04-25T08:42:36.544Z</time></trkpt><trkpt lat="43.7109621" lon="12.4952317"><ele>293.0</ele><time>2026-04-25T08:42:37.544Z</time></trkpt><trkpt lat="43.7108259" lon="12.4950525"><ele>293.0</ele><time>2026-04-25T08:42:38.544Z</time></trkpt><trkpt lat="43.7106949" lon="12.4948863"><ele>293.0</ele><time>2026-04-25T08:42:39.544Z</time></trkpt><trkpt lat="43.7105823" lon="12.4947301"><ele>293.0</ele><time>2026-04-25T08:42:40.543Z</time></trkpt><trkpt lat="43.7104882" lon="12.4945784"><ele>293.0</ele><time>2026-04-25T08:42:41.543Z</time></trkpt><trkpt lat="43.7104034" lon="12.4944266"><ele>293.0</ele><time>2026-04-25T08:42:42.544Z</time></trkpt><trkpt lat="43.7103275" lon="12.4942551"><ele>293.0</ele><time>2026-04-25T08:42:43.544Z</time></trkpt><trkpt lat="43.7102585" lon="12.4940766"><ele>293.0</ele><time>2026-04-25T08:42:44.544Z</time></trkpt><trkpt lat="43.710189" lon="12.493923"><ele>293.0</ele><time>2026-04-25T08:42:45.544Z</time></trkpt><trkpt lat="43.710117" lon="12.4937905"><ele>293.0</ele><time>2026-04-25T08:42:46.544Z</time></trkpt><trkpt lat="43.7100275" lon="12.4936862"><ele>293.0</ele><time>2026-04-25T08:42:47.544Z</time></trkpt><trkpt lat="43.7099248" lon="12.493613"><ele>293.0</ele><time>2026-04-25T08:42:48.543Z</time></trkpt><trkpt lat="43.709815" lon="12.4935714"><ele>293.0</ele><time>2026-04-25T08:42:49.544Z</time></trkpt><trkpt lat="43.709704" lon="12.4935485"><ele>293.0</ele><time>2026-04-25T08:42:50.544Z</time></trkpt><trkpt lat="43.7095945" lon="12.4935267"><ele>293.0</ele><time>2026-04-25T08:42:51.544Z</time></trkpt><trkpt lat="43.7094954" lon="12.493477"><ele>293.0</ele><time>2026-04-25T08:42:52.544Z</time></trkpt><trkpt lat="43.7094104" lon="12.4933892"><ele>293.0</ele><time>2026-04-25T08:42:53.543Z</time></trkpt><trkpt lat="43.7093303" lon="12.4932622"><ele>293.0</ele><time>2026-04-25T08:42:54.544Z</time></trkpt><trkpt lat="43.7092597" lon="12.4931274"><ele>293.2</ele><time>2026-04-25T08:42:55.544Z</time></trkpt><trkpt lat="43.7092039" lon="12.4930225"><ele>293.4</ele><time>2026-04-25T08:42:56.544Z</time></trkpt><trkpt lat="43.7091599" lon="12.4929507"><ele>293.59999999999997</ele><time>2026-04-25T08:42:57.544Z</time></trkpt><trkpt lat="43.7090793" lon="12.4928894"><ele>293.8</ele><time>2026-04-25T08:42:59.544Z</time></trkpt><trkpt lat="43.7089462" lon="12.4928864"><ele>294.0</ele><time>2026-04-25T08:43:01.543Z</time></trkpt><trkpt lat="43.7088379" lon="12.492914"><ele>294.0</ele><time>2026-04-25T08:43:02.543Z</time></trkpt><trkpt lat="43.7086959" lon="12.4929676"><ele>294.0</ele><time>2026-04-25T08:43:03.544Z</time></trkpt><trkpt lat="43.7085267" lon="12.4930289"><ele>294.0</ele><time>2026-04-25T08:43:04.543Z</time></trkpt><trkpt lat="43.7083358" lon="12.4931062"><ele>296.6666666666667</ele><time>2026-04-25T08:43:05.544Z</time></trkpt><trkpt lat="43.7081387" lon="12.4931861"><ele>299.33333333333337</ele><time>2026-04-25T08:43:06.544Z</time></trkpt><trkpt lat="43.7079486" lon="12.493265"><ele>302.0</ele><time>2026-04-25T08:43:07.544Z</time></trkpt><trkpt lat="43.7077706" lon="12.4933494"><ele>304.33333333333337</ele><time>2026-04-25T08:43:08.544Z</time></trkpt><trkpt lat="43.7076008" lon="12.4934567"><ele>306.6666666666667</ele><time>2026-04-25T08:43:09.544Z</time></trkpt><trkpt lat="43.7074411" lon="12.49359"><ele>309.0</ele><time>2026-04-25T08:43:10.543Z</time></trkpt><trkpt lat="43.7072936" lon="12.4937502"><ele>308.0</ele><time>2026-04-25T08:43:11.544Z</time></trkpt><trkpt lat="43.707153" lon="12.4939297"><ele>307.0</ele><time>2026-04-25T08:43:12.544Z</time></trkpt><trkpt lat="43.7070184" lon="12.49412"><ele>306.0</ele><time>2026-04-25T08:43:13.543Z</time></trkpt><trkpt lat="43.7068882" lon="12.4942992"><ele>309.5</ele><time>2026-04-25T08:43:14.544Z</time></trkpt><trkpt lat="43.706775" lon="12.4944327"><ele>313.0</ele><time>2026-04-25T08:43:15.544Z</time></trkpt><trkpt lat="43.7066756" lon="12.4945212"><ele>316.5</ele><time>2026-04-25T08:43:16.544Z</time></trkpt><trkpt lat="43.7065764" lon="12.4945686"><ele>320.0</ele><time>2026-04-25T08:43:17.544Z</time></trkpt><trkpt lat="43.7064811" lon="12.4945706"><ele>320.0</ele><time>2026-04-25T08:43:18.543Z</time></trkpt><trkpt lat="43.7064013" lon="12.4945206"><ele>320.0</ele><time>2026-04-25T08:43:19.543Z</time></trkpt><trkpt lat="43.7063364" lon="12.4944352"><ele>320.0</ele><time>2026-04-25T08:43:20.544Z</time></trkpt><trkpt lat="43.7062961" lon="12.4943086"><ele>320.0</ele><time>2026-04-25T08:43:21.543Z</time></trkpt><trkpt lat="43.7062771" lon="12.4941386"><ele>320.0</ele><time>2026-04-25T08:43:22.544Z</time></trkpt><trkpt lat="43.7062852" lon="12.4939431"><ele>320.0</ele><time>2026-04-25T08:43:23.543Z</time></trkpt><trkpt lat="43.7063108" lon="12.4937564"><ele>320.0</ele><time>2026-04-25T08:43:24.544Z</time></trkpt><trkpt lat="43.7063201" lon="12.4935961"><ele>320.0</ele><time>2026-04-25T08:43:25.544Z</time></trkpt><trkpt lat="43.7062884" lon="12.4934565"><ele>320.0</ele><time>2026-04-25T08:43:26.544Z</time></trkpt><trkpt lat="43.7062258" lon="12.4933442"><ele>320.4</ele><time>2026-04-25T08:43:27.544Z</time></trkpt><trkpt lat="43.7061465" lon="12.4932816"><ele>320.8</ele><time>2026-04-25T08:43:28.544Z</time></trkpt><trkpt lat="43.7060579" lon="12.4932611"><ele>321.20000000000005</ele><time>2026-04-25T08:43:29.543Z</time></trkpt><trkpt lat="43.7059619" lon="12.4932796"><ele>321.6</ele><time>2026-04-25T08:43:30.543Z</time></trkpt><trkpt lat="43.7058591" lon="12.493346"><ele>322.0</ele><time>2026-04-25T08:43:31.544Z</time></trkpt><trkpt lat="43.7057529" lon="12.4934558"><ele>324.3333333333333</ele><time>2026-04-25T08:43:32.543Z</time></trkpt><trkpt lat="43.7056333" lon="12.4936126"><ele>326.6666666666667</ele><time>2026-04-25T08:43:33.544Z</time></trkpt><trkpt lat="43.7054976" lon="12.4938158"><ele>329.0</ele><time>2026-04-25T08:43:34.544Z</time></trkpt><trkpt lat="43.7053593" lon="12.4940273"><ele>331.6666666666667</ele><time>2026-04-25T08:43:35.544Z</time></trkpt><trkpt lat="43.7052277" lon="12.4942435"><ele>334.3333333333333</ele><time>2026-04-25T08:43:36.544Z</time></trkpt><trkpt lat="43.7050956" lon="12.4944628"><ele>337.0</ele><time>2026-04-25T08:43:37.544Z</time></trkpt><trkpt lat="43.7049768" lon="12.4946599"><ele>337.0</ele><time>2026-04-25T08:43:38.544Z</time></trkpt><trkpt lat="43.704879" lon="12.4948238"><ele>337.0</ele><time>2026-04-25T08:43:39.544Z</time></trkpt><trkpt lat="43.7047879" lon="12.4949509"><ele>337.0</ele><time>2026-04-25T08:43:40.544Z</time></trkpt><trkpt lat="43.7046992" lon="12.4950354"><ele>337.0</ele><time>2026-04-25T08:43:41.543Z</time></trkpt><trkpt lat="43.7046101" lon="12.4950882"><ele>337.0</ele><time>2026-04-25T08:43:42.543Z</time></trkpt><trkpt lat="43.7045204" lon="12.4951153"><ele>337.0</ele><time>2026-04-25T08:43:43.544Z</time></trkpt><trkpt lat="43.7044274" lon="12.4951165"><ele>337.0</ele><time>2026-04-25T08:43:44.543Z</time></trkpt><trkpt lat="43.7043384" lon="12.4950818"><ele>337.0</ele><time>2026-04-25T08:43:45.543Z</time></trkpt><trkpt lat="43.704261" lon="12.4950098"><ele>337.0</ele><time>2026-04-25T08:43:46.544Z</time></trkpt><trkpt lat="43.7042012" lon="12.4949141"><ele>339.20000000000005</ele><time>2026-04-25T08:43:47.544Z</time></trkpt><trkpt lat="43.7041666" lon="12.4947972"><ele>341.4</ele><time>2026-04-25T08:43:48.544Z</time></trkpt><trkpt lat="43.7041565" lon="12.4946684"><ele>343.6</ele><time>2026-04-25T08:43:49.544Z</time></trkpt><trkpt lat="43.7041805" lon="12.4945423"><ele>345.79999999999995</ele><time>2026-04-25T08:43:50.544Z</time></trkpt><trkpt lat="43.7042366" lon="12.4944193"><ele>348.0</ele><time>2026-04-25T08:43:51.543Z</time></trkpt><trkpt lat="43.7043169" lon="12.4942804"><ele>346.3333333333333</ele><time>2026-04-25T08:43:52.544Z</time></trkpt><trkpt lat="43.7044231" lon="12.4941183"><ele>344.66666666666663</ele><time>2026-04-25T08:43:53.544Z</time></trkpt><trkpt lat="43.7045315" lon="12.4939417"><ele>343.0</ele><time>2026-04-25T08:43:54.543Z</time></trkpt><trkpt lat="43.7046186" lon="12.4937835"><ele>345.0</ele><time>2026-04-25T08:43:55.543Z</time></trkpt><trkpt lat="43.7046864" lon="12.493627"><ele>347.0</ele><time>2026-04-25T08:43:56.544Z</time></trkpt><trkpt lat="43.704736" lon="12.4934487"><ele>349.0</ele><time>2026-04-25T08:43:57.544Z</time></trkpt><trkpt lat="43.7047725" lon="12.4932496"><ele>351.0</ele><time>2026-04-25T08:43:58.544Z</time></trkpt><trkpt lat="43.7048068" lon="12.4930583"><ele>353.6</ele><time>2026-04-25T08:43:59.544Z</time></trkpt><trkpt lat="43.7048408" lon="12.4928999"><ele>356.20000000000005</ele><time>2026-04-25T08:44:00.544Z</time></trkpt><trkpt lat="43.704875" lon="12.4927658"><ele>358.79999999999995</ele><time>2026-04-25T08:44:01.543Z</time></trkpt><trkpt lat="43.7049115" lon="12.492634"><ele>361.4</ele><time>2026-04-25T08:44:02.543Z</time></trkpt><trkpt lat="43.7049509" lon="12.4925087"><ele>364.0</ele><time>2026-04-25T08:44:03.543Z</time></trkpt><trkpt lat="43.7049917" lon="12.4923885"><ele>364.0</ele><time>2026-04-25T08:44:04.543Z</time></trkpt><trkpt lat="43.7050299" lon="12.4922734"><ele>364.0</ele><time>2026-04-25T08:44:05.543Z</time></trkpt><trkpt lat="43.7050615" lon="12.4921642"><ele>364.0</ele><time>2026-04-25T08:44:06.543Z</time></trkpt><trkpt lat="43.7050756" lon="12.4920561"><ele>364.0</ele><time>2026-04-25T08:44:07.544Z</time></trkpt><trkpt lat="43.7050744" lon="12.4919428"><ele>364.0</ele><time>2026-04-25T08:44:08.544Z</time></trkpt><trkpt lat="43.7050515" lon="12.4918189"><ele>364.0</ele><time>2026-04-25T08:44:09.544Z</time></trkpt><trkpt lat="43.7050085" lon="12.4916926"><ele>364.6</ele><time>2026-04-25T08:44:10.544Z</time></trkpt><trkpt lat="43.7049498" lon="12.4915756"><ele>365.2</ele><time>2026-04-25T08:44:11.543Z</time></trkpt><trkpt lat="43.7048789" lon="12.4914828"><ele>365.8</ele><time>2026-04-25T08:44:12.544Z</time></trkpt><trkpt lat="43.7048017" lon="12.4914183"><ele>366.40000000000003</ele><time>2026-04-25T08:44:13.544Z</time></trkpt><trkpt lat="43.7047208" lon="12.4913814"><ele>367.0</ele><time>2026-04-25T08:44:14.544Z</time></trkpt><trkpt lat="43.7046373" lon="12.4913693"><ele>367.0</ele><time>2026-04-25T08:44:15.544Z</time></trkpt><trkpt lat="43.7045467" lon="12.4913906"><ele>367.0</ele><time>2026-04-25T08:44:16.543Z</time></trkpt><trkpt lat="43.7044537" lon="12.4914441"><ele>367.0</ele><time>2026-04-25T08:44:17.544Z</time></trkpt><trkpt lat="43.7043405" lon="12.491541"><ele>367.0</ele><time>2026-04-25T08:44:18.544Z</time></trkpt><trkpt lat="43.704214" lon="12.4916589"><ele>370.0</ele><time>2026-04-25T08:44:19.543Z</time></trkpt><trkpt lat="43.7040701" lon="12.4917877"><ele>373.0</ele><time>2026-04-25T08:44:20.544Z</time></trkpt><trkpt lat="43.7039088" lon="12.4919186"><ele>376.0</ele><time>2026-04-25T08:44:21.543Z</time></trkpt><trkpt lat="43.7037333" lon="12.4920575"><ele>378.0</ele><time>2026-04-25T08:44:22.544Z</time></trkpt><trkpt lat="43.7035595" lon="12.4921956"><ele>380.0</ele><time>2026-04-25T08:44:23.544Z</time></trkpt><trkpt lat="43.703425" lon="12.4923051"><ele>382.0</ele><time>2026-04-25T08:44:24.544Z</time></trkpt><trkpt lat="43.7033068" lon="12.4924014"><ele>382.0</ele><time>2026-04-25T08:44:25.543Z</time></trkpt><trkpt lat="43.7031838" lon="12.4924808"><ele>382.0</ele><time>2026-04-25T08:44:26.544Z</time></trkpt><trkpt lat="43.7030597" lon="12.4925423"><ele>382.0</ele><time>2026-04-25T08:44:27.544Z</time></trkpt><trkpt lat="43.7029055" lon="12.4925748"><ele>382.0</ele><time>2026-04-25T08:44:28.544Z</time></trkpt><trkpt lat="43.7027456" lon="12.4925888"><ele>384.66666666666663</ele><time>2026-04-25T08:44:29.544Z</time></trkpt><trkpt lat="43.7025505" lon="12.4925879"><ele>387.3333333333333</ele><time>2026-04-25T08:44:30.543Z</time></trkpt><trkpt lat="43.7023607" lon="12.4925823"><ele>390.0</ele><time>2026-04-25T08:44:31.543Z</time></trkpt><trkpt lat="43.7021858" lon="12.4925772"><ele>390.0</ele><time>2026-04-25T08:44:32.543Z</time></trkpt><trkpt lat="43.7020042" lon="12.4925838"><ele>390.0</ele><time>2026-04-25T08:44:33.544Z</time></trkpt><trkpt lat="43.7018411" lon="12.4925838"><ele>390.0</ele><time>2026-04-25T08:44:34.543Z</time></trkpt><trkpt lat="43.7016919" lon="12.4925607"><ele>392.0</ele><time>2026-04-25T08:44:35.544Z</time></trkpt><trkpt lat="43.7015717" lon="12.4924866"><ele>394.0</ele><time>2026-04-25T08:44:36.544Z</time></trkpt><trkpt lat="43.701485" lon="12.4923551"><ele>396.0</ele><time>2026-04-25T08:44:37.544Z</time></trkpt><trkpt lat="43.7014034" lon="12.4921915"><ele>398.0</ele><time>2026-04-25T08:44:38.543Z</time></trkpt><trkpt lat="43.7013199" lon="12.4919945"><ele>399.5</ele><time>2026-04-25T08:44:39.544Z</time></trkpt><trkpt lat="43.7012367" lon="12.4917982"><ele>401.0</ele><time>2026-04-25T08:44:40.544Z</time></trkpt><trkpt lat="43.7011727" lon="12.4916315"><ele>402.5</ele><time>2026-04-25T08:44:41.543Z</time></trkpt><trkpt lat="43.7011117" lon="12.4915172"><ele>404.0</ele><time>2026-04-25T08:44:42.544Z</time></trkpt><trkpt lat="43.7010209" lon="12.4914519"><ele>405.79999999999995</ele><time>2026-04-25T08:44:43.544Z</time></trkpt><trkpt lat="43.7009327" lon="12.4914035"><ele>407.59999999999997</ele><time>2026-04-25T08:44:44.543Z</time></trkpt><trkpt lat="43.700833" lon="12.4914034"><ele>409.4</ele><time>2026-04-25T08:44:45.544Z</time></trkpt><trkpt lat="43.7007335" lon="12.4914451"><ele>411.2</ele><time>2026-04-25T08:44:46.543Z</time></trkpt><trkpt lat="43.7006135" lon="12.4915437"><ele>413.0</ele><time>2026-04-25T08:44:47.544Z</time></trkpt><trkpt lat="43.7005057" lon="12.4916893"><ele>413.0</ele><time>2026-04-25T08:44:48.544Z</time></trkpt><trkpt lat="43.7003997" lon="12.4918817"><ele>413.0</ele><time>2026-04-25T08:44:49.543Z</time></trkpt><trkpt lat="43.7002846" lon="12.4921131"><ele>413.0</ele><time>2026-04-25T08:44:50.544Z</time></trkpt><trkpt lat="43.7001598" lon="12.492369"><ele>413.66666666666663</ele><time>2026-04-25T08:44:51.544Z</time></trkpt><trkpt lat="43.7000474" lon="12.4926451"><ele>414.33333333333337</ele><time>2026-04-25T08:44:52.544Z</time></trkpt><trkpt lat="43.6999585" lon="12.4929112"><ele>415.0</ele><time>2026-04-25T08:44:53.544Z</time></trkpt><trkpt lat="43.6998739" lon="12.4931724"><ele>415.0</ele><time>2026-04-25T08:44:54.544Z</time></trkpt><trkpt lat="43.6997554" lon="12.493429"><ele>415.0</ele><time>2026-04-25T08:44:55.543Z</time></trkpt><trkpt lat="43.6996338" lon="12.4936941"><ele>415.0</ele><time>2026-04-25T08:44:56.544Z</time></trkpt><trkpt lat="43.6994845" lon="12.4939666"><ele>422.0</ele><time>2026-04-25T08:44:57.544Z</time></trkpt><trkpt lat="43.6993281" lon="12.494226"><ele>429.0</ele><time>2026-04-25T08:44:58.543Z</time></trkpt><trkpt lat="43.6991981" lon="12.4944683"><ele>427.66666666666663</ele><time>2026-04-25T08:44:59.544Z</time></trkpt><trkpt lat="43.699098" lon="12.4947029"><ele>426.3333333333333</ele><time>2026-04-25T08:45:00.544Z</time></trkpt><trkpt lat="43.6990115" lon="12.494949"><ele>425.0</ele><time>2026-04-25T08:45:01.544Z</time></trkpt><trkpt lat="43.6989313" lon="12.4952361"><ele>423.0</ele><time>2026-04-25T08:45:02.544Z</time></trkpt><trkpt lat="43.698874" lon="12.4955616"><ele>421.0</ele><time>2026-04-25T08:45:03.543Z</time></trkpt><trkpt lat="43.6988058" lon="12.4958796"><ele>421.0</ele><time>2026-04-25T08:45:04.544Z</time></trkpt><trkpt lat="43.6987348" lon="12.4961643"><ele>421.0</ele><time>2026-04-25T08:45:05.544Z</time></trkpt><trkpt lat="43.6986729" lon="12.4964135"><ele>421.0</ele><time>2026-04-25T08:45:06.544Z</time></trkpt><trkpt lat="43.6986135" lon="12.4966411"><ele>426.0</ele><time>2026-04-25T08:45:07.544Z</time></trkpt><trkpt lat="43.6985306" lon="12.496862"><ele>431.0</ele><time>2026-04-25T08:45:08.544Z</time></trkpt><trkpt lat="43.6984065" lon="12.4970931"><ele>436.0</ele><time>2026-04-25T08:45:09.544Z</time></trkpt><trkpt lat="43.6982852" lon="12.4973375"><ele>436.0</ele><time>2026-04-25T08:45:10.543Z</time></trkpt><trkpt lat="43.6981745" lon="12.4975453"><ele>436.0</ele><time>2026-04-25T08:45:11.544Z</time></trkpt><trkpt lat="43.6980913" lon="12.4977154"><ele>436.0</ele><time>2026-04-25T08:45:12.543Z</time></trkpt><trkpt lat="43.6979974" lon="12.4978423"><ele>433.33333333333337</ele><time>2026-04-25T08:45:13.544Z</time></trkpt><trkpt lat="43.6978727" lon="12.4979542"><ele>430.66666666666663</ele><time>2026-04-25T08:45:14.543Z</time></trkpt><trkpt lat="43.6977233" lon="12.4980483"><ele>428.0</ele><time>2026-04-25T08:45:15.544Z</time></trkpt><trkpt lat="43.6975467" lon="12.4981417"><ele>433.3333333333333</ele><time>2026-04-25T08:45:16.543Z</time></trkpt><trkpt lat="43.6973867" lon="12.4982333"><ele>438.66666666666663</ele><time>2026-04-25T08:45:17.543Z</time></trkpt><trkpt lat="43.6972533" lon="12.4982983"><ele>444.0</ele><time>2026-04-25T08:45:18.544Z</time></trkpt><trkpt lat="43.6971283" lon="12.4983733"><ele>444.0</ele><time>2026-04-25T08:45:19.544Z</time></trkpt><trkpt lat="43.6970167" lon="12.498445"><ele>444.0</ele><time>2026-04-25T08:45:20.544Z</time></trkpt><trkpt lat="43.69692" lon="12.4985233"><ele>444.0</ele><time>2026-04-25T08:45:21.544Z</time></trkpt><trkpt lat="43.6968483" lon="12.49864"><ele>444.0</ele><time>2026-04-25T08:45:22.544Z</time></trkpt><trkpt lat="43.6967717" lon="12.4987733"><ele>446.79999999999995</ele><time>2026-04-25T08:45:23.544Z</time></trkpt><trkpt lat="43.6967133" lon="12.49895"><ele>449.59999999999997</ele><time>2026-04-25T08:45:24.544Z</time></trkpt><trkpt lat="43.6966683" lon="12.4990883"><ele>452.4</ele><time>2026-04-25T08:45:25.544Z</time></trkpt><trkpt lat="43.6966483" lon="12.4991983"><ele>455.2</ele><time>2026-04-25T08:45:26.544Z</time></trkpt><trkpt lat="43.6965983" lon="12.4992867"><ele>458.0</ele><time>2026-04-25T08:45:27.544Z</time></trkpt><trkpt lat="43.6965383" lon="12.4993267"><ele>457.99999999999994</ele><time>2026-04-25T08:45:28.543Z</time></trkpt><trkpt lat="43.6964583" lon="12.4993167"><ele>458.0</ele><time>2026-04-25T08:45:29.544Z</time></trkpt><trkpt lat="43.696375" lon="12.499275"><ele>458.0</ele><time>2026-04-25T08:45:30.544Z</time></trkpt><trkpt lat="43.69632" lon="12.499185"><ele>458.0</ele><time>2026-04-25T08:45:32.544Z</time></trkpt><trkpt lat="43.6962267" lon="12.4992067"><ele>457.99999999999994</ele><time>2026-04-25T08:45:38.543Z</time></trkpt><trkpt lat="43.6961767" lon="12.4992767"><ele>458.0</ele><time>2026-04-25T08:45:39.544Z</time></trkpt><trkpt lat="43.6961333" lon="12.4993867"><ele>458.0</ele><time>2026-04-25T08:45:40.544Z</time></trkpt><trkpt lat="43.6960933" lon="12.4995067"><ele>457.99999999999994</ele><time>2026-04-25T08:45:41.544Z</time></trkpt><trkpt lat="43.696035" lon="12.4996233"><ele>457.99999999999994</ele><time>2026-04-25T08:45:42.544Z</time></trkpt><trkpt lat="43.6959633" lon="12.49975"><ele>458.0</ele><time>2026-04-25T08:45:43.544Z</time></trkpt><trkpt lat="43.69591" lon="12.4999017"><ele>458.0</ele><time>2026-04-25T08:45:44.544Z</time></trkpt><trkpt lat="43.695865" lon="12.5000733"><ele>458.25</ele><time>2026-04-25T08:45:45.544Z</time></trkpt><trkpt lat="43.6958317" lon="12.5002533"><ele>458.5</ele><time>2026-04-25T08:45:46.544Z</time></trkpt><trkpt lat="43.6958017" lon="12.5004067"><ele>458.75</ele><time>2026-04-25T08:45:47.543Z</time></trkpt><trkpt lat="43.6957483" lon="12.5005517"><ele>459.0</ele><time>2026-04-25T08:45:48.544Z</time></trkpt><trkpt lat="43.69568" lon="12.5006917"><ele>459.6</ele><time>2026-04-25T08:45:49.544Z</time></trkpt><trkpt lat="43.695615" lon="12.5008033"><ele>460.2</ele><time>2026-04-25T08:45:50.544Z</time></trkpt><trkpt lat="43.695555" lon="12.5008983"><ele>460.80000000000007</ele><time>2026-04-25T08:45:51.543Z</time></trkpt><trkpt lat="43.69547" lon="12.5009783"><ele>461.40000000000003</ele><time>2026-04-25T08:45:52.543Z</time></trkpt><trkpt lat="43.6953567" lon="12.501045"><ele>462.0</ele><time>2026-04-25T08:45:53.543Z</time></trkpt><trkpt lat="43.69521" lon="12.5011417"><ele>461.5</ele><time>2026-04-25T08:45:54.544Z</time></trkpt><trkpt lat="43.6950633" lon="12.50125"><ele>461.0</ele><time>2026-04-25T08:45:55.544Z</time></trkpt><trkpt lat="43.694935" lon="12.501325"><ele>460.5</ele><time>2026-04-25T08:45:56.544Z</time></trkpt><trkpt lat="43.694805" lon="12.5013867"><ele>460.0</ele><time>2026-04-25T08:45:57.544Z</time></trkpt><trkpt lat="43.69469" lon="12.501465"><ele>460.0</ele><time>2026-04-25T08:45:58.544Z</time></trkpt><trkpt lat="43.6945883" lon="12.5015317"><ele>460.0</ele><time>2026-04-25T08:45:59.543Z</time></trkpt><trkpt lat="43.6945117" lon="12.5016283"><ele>460.0</ele><time>2026-04-25T08:46:00.544Z</time></trkpt><trkpt lat="43.6944467" lon="12.50175"><ele>460.0</ele><time>2026-04-25T08:46:01.544Z</time></trkpt><trkpt lat="43.6943983" lon="12.5019117"><ele>461.0</ele><time>2026-04-25T08:46:02.543Z</time></trkpt><trkpt lat="43.6943817" lon="12.5020683"><ele>462.0</ele><time>2026-04-25T08:46:03.544Z</time></trkpt><trkpt lat="43.694425" lon="12.5022417"><ele>463.0</ele><time>2026-04-25T08:46:04.544Z</time></trkpt><trkpt lat="43.6944833" lon="12.5024283"><ele>464.0</ele><time>2026-04-25T08:46:05.544Z</time></trkpt><trkpt lat="43.6945067" lon="12.5026117"><ele>464.0</ele><time>2026-04-25T08:46:06.544Z</time></trkpt><trkpt lat="43.6945167" lon="12.502785"><ele>464.0</ele><time>2026-04-25T08:46:07.543Z</time></trkpt><trkpt lat="43.6944983" lon="12.5029467"><ele>464.0</ele><time>2026-04-25T08:46:08.544Z</time></trkpt><trkpt lat="43.6944617" lon="12.503105"><ele>464.0</ele><time>2026-04-25T08:46:09.544Z</time></trkpt><trkpt lat="43.6944067" lon="12.503285"><ele>457.66666666666663</ele><time>2026-04-25T08:46:10.544Z</time></trkpt><trkpt lat="43.694305" lon="12.5035117"><ele>451.33333333333337</ele><time>2026-04-25T08:46:11.544Z</time></trkpt><trkpt lat="43.6942067" lon="12.5037317"><ele>445.0</ele><time>2026-04-25T08:46:12.543Z</time></trkpt><trkpt lat="43.6940933" lon="12.5039583"><ele>445.0</ele><time>2026-04-25T08:46:13.544Z</time></trkpt><trkpt lat="43.6940183" lon="12.50416"><ele>445.0</ele><time>2026-04-25T08:46:14.544Z</time></trkpt><trkpt lat="43.6939333" lon="12.5043617"><ele>445.0</ele><time>2026-04-25T08:46:15.544Z</time></trkpt><trkpt lat="43.69387" lon="12.5045133"><ele>447.5</ele><time>2026-04-25T08:46:16.543Z</time></trkpt><trkpt lat="43.6937683" lon="12.5046167"><ele>450.0</ele><time>2026-04-25T08:46:17.543Z</time></trkpt><trkpt lat="43.693655" lon="12.5047067"><ele>452.5</ele><time>2026-04-25T08:46:18.544Z</time></trkpt><trkpt lat="43.69352" lon="12.50477"><ele>455.0</ele><time>2026-04-25T08:46:19.543Z</time></trkpt><trkpt lat="43.693355" lon="12.5048317"><ele>448.3333333333333</ele><time>2026-04-25T08:46:20.544Z</time></trkpt><trkpt lat="43.69319" lon="12.504865"><ele>441.66666666666663</ele><time>2026-04-25T08:46:21.544Z</time></trkpt><trkpt lat="43.69302" lon="12.504895"><ele>435.0</ele><time>2026-04-25T08:46:22.544Z</time></trkpt><trkpt lat="43.692865" lon="12.5049433"><ele>430.33333333333337</ele><time>2026-04-25T08:46:23.544Z</time></trkpt><trkpt lat="43.6927083" lon="12.5050267"><ele>425.6666666666667</ele><time>2026-04-25T08:46:24.543Z</time></trkpt><trkpt lat="43.6925117" lon="12.50514"><ele>421.0</ele><time>2026-04-25T08:46:25.544Z</time></trkpt><trkpt lat="43.6923583" lon="12.5052383"><ele>421.0</ele><time>2026-04-25T08:46:26.544Z</time></trkpt><trkpt lat="43.6922117" lon="12.5053483"><ele>421.0</ele><time>2026-04-25T08:46:27.543Z</time></trkpt><trkpt lat="43.69207" lon="12.50544"><ele>421.0</ele><time>2026-04-25T08:46:28.544Z</time></trkpt><trkpt lat="43.6919283" lon="12.5055133"><ele>420.75</ele><time>2026-04-25T08:46:29.543Z</time></trkpt><trkpt lat="43.6917967" lon="12.5055633"><ele>420.5</ele><time>2026-04-25T08:46:30.544Z</time></trkpt><trkpt lat="43.69165" lon="12.5055817"><ele>420.25</ele><time>2026-04-25T08:46:31.543Z</time></trkpt><trkpt lat="43.6915133" lon="12.50558"><ele>420.0</ele><time>2026-04-25T08:46:32.544Z</time></trkpt><trkpt lat="43.6913883" lon="12.5055517"><ele>420.0</ele><time>2026-04-25T08:46:33.543Z</time></trkpt><trkpt lat="43.6913" lon="12.5054883"><ele>420.0</ele><time>2026-04-25T08:46:34.544Z</time></trkpt><trkpt lat="43.6912067" lon="12.5053917"><ele>420.0</ele><time>2026-04-25T08:46:35.543Z</time></trkpt><trkpt lat="43.691115" lon="12.5052667"><ele>420.0</ele><time>2026-04-25T08:46:36.544Z</time></trkpt><trkpt lat="43.6910733" lon="12.5051017"><ele>416.75</ele><time>2026-04-25T08:46:37.544Z</time></trkpt><trkpt lat="43.691" lon="12.504945"><ele>413.5</ele><time>2026-04-25T08:46:38.544Z</time></trkpt><trkpt lat="43.6909267" lon="12.5047917"><ele>410.25</ele><time>2026-04-25T08:46:39.544Z</time></trkpt><trkpt lat="43.6908583" lon="12.5046783"><ele>407.0</ele><time>2026-04-25T08:46:40.544Z</time></trkpt><trkpt lat="43.69077" lon="12.50459"><ele>402.75</ele><time>2026-04-25T08:46:41.544Z</time></trkpt><trkpt lat="43.69068" lon="12.50454"><ele>398.5</ele><time>2026-04-25T08:46:42.543Z</time></trkpt><trkpt lat="43.6905683" lon="12.504515"><ele>394.25</ele><time>2026-04-25T08:46:43.543Z</time></trkpt><trkpt lat="43.6904317" lon="12.504505"><ele>390.0</ele><time>2026-04-25T08:46:44.544Z</time></trkpt><trkpt lat="43.6902633" lon="12.5044983"><ele>389.25</ele><time>2026-04-25T08:46:45.544Z</time></trkpt><trkpt lat="43.6901267" lon="12.504465"><ele>388.5</ele><time>2026-04-25T08:46:46.543Z</time></trkpt><trkpt lat="43.6900083" lon="12.5043717"><ele>387.75</ele><time>2026-04-25T08:46:47.544Z</time></trkpt><trkpt lat="43.6899017" lon="12.5042933"><ele>387.0</ele><time>2026-04-25T08:46:48.543Z</time></trkpt><trkpt lat="43.689815" lon="12.504255"><ele>387.0</ele><time>2026-04-25T08:46:49.544Z</time></trkpt><trkpt lat="43.6897" lon="12.5042483"><ele>387.0</ele><time>2026-04-25T08:46:50.543Z</time></trkpt><trkpt lat="43.6895933" lon="12.5043067"><ele>387.0</ele><time>2026-04-25T08:46:51.543Z</time></trkpt><trkpt lat="43.6894983" lon="12.5044083"><ele>387.0</ele><time>2026-04-25T08:46:52.544Z</time></trkpt><trkpt lat="43.689435" lon="12.504545"><ele>388.5</ele><time>2026-04-25T08:46:53.543Z</time></trkpt><trkpt lat="43.6893983" lon="12.504695"><ele>390.0</ele><time>2026-04-25T08:46:54.543Z</time></trkpt><trkpt lat="43.6894017" lon="12.504845"><ele>391.5</ele><time>2026-04-25T08:46:55.544Z</time></trkpt><trkpt lat="43.6894467" lon="12.50499"><ele>393.0</ele><time>2026-04-25T08:46:56.544Z</time></trkpt><trkpt lat="43.6895317" lon="12.505165"><ele>393.0</ele><time>2026-04-25T08:46:57.544Z</time></trkpt><trkpt lat="43.689655" lon="12.5053067"><ele>393.0</ele><time>2026-04-25T08:46:58.543Z</time></trkpt><trkpt lat="43.6897467" lon="12.5054567"><ele>393.0</ele><time>2026-04-25T08:46:59.544Z</time></trkpt><trkpt lat="43.689795" lon="12.5056183"><ele>393.0</ele><time>2026-04-25T08:47:00.544Z</time></trkpt><trkpt lat="43.6898183" lon="12.5057833"><ele>390.75</ele><time>2026-04-25T08:47:01.544Z</time></trkpt><trkpt lat="43.6898083" lon="12.50594"><ele>388.5</ele><time>2026-04-25T08:47:02.544Z</time></trkpt><trkpt lat="43.68977" lon="12.5061017"><ele>386.25</ele><time>2026-04-25T08:47:03.544Z</time></trkpt><trkpt lat="43.6897133" lon="12.5062683"><ele>384.0</ele><time>2026-04-25T08:47:04.543Z</time></trkpt><trkpt lat="43.6896183" lon="12.5064383"><ele>384.0</ele><time>2026-04-25T08:47:05.544Z</time></trkpt><trkpt lat="43.68956" lon="12.50659"><ele>384.0</ele><time>2026-04-25T08:47:06.544Z</time></trkpt><trkpt lat="43.6894317" lon="12.5067783"><ele>384.0</ele><time>2026-04-25T08:47:07.543Z</time></trkpt><trkpt lat="43.6893433" lon="12.50694"><ele>378.6666666666667</ele><time>2026-04-25T08:47:08.544Z</time></trkpt><trkpt lat="43.6892633" lon="12.5070867"><ele>373.33333333333337</ele><time>2026-04-25T08:47:09.544Z</time></trkpt><trkpt lat="43.689135" lon="12.5072"><ele>368.0</ele><time>2026-04-25T08:47:10.543Z</time></trkpt><trkpt lat="43.6889517" lon="12.5072933"><ele>368.0</ele><time>2026-04-25T08:47:11.544Z</time></trkpt><trkpt lat="43.6887667" lon="12.5073517"><ele>368.0</ele><time>2026-04-25T08:47:12.543Z</time></trkpt><trkpt lat="43.6885783" lon="12.5073883"><ele>368.0</ele><time>2026-04-25T08:47:13.543Z</time></trkpt><trkpt lat="43.6883917" lon="12.50742"><ele>364.5</ele><time>2026-04-25T08:47:14.544Z</time></trkpt><trkpt lat="43.6882283" lon="12.5074217"><ele>361.0</ele><time>2026-04-25T08:47:15.544Z</time></trkpt><trkpt lat="43.6881167" lon="12.5073867"><ele>357.5</ele><time>2026-04-25T08:47:16.544Z</time></trkpt><trkpt lat="43.6879967" lon="12.5074033"><ele>354.0</ele><time>2026-04-25T08:47:17.544Z</time></trkpt><trkpt lat="43.6878767" lon="12.50748"><ele>347.6666666666667</ele><time>2026-04-25T08:47:18.543Z</time></trkpt><trkpt lat="43.6877517" lon="12.5075917"><ele>341.33333333333337</ele><time>2026-04-25T08:47:19.543Z</time></trkpt><trkpt lat="43.6876233" lon="12.5077217"><ele>335.0</ele><time>2026-04-25T08:47:20.543Z</time></trkpt><trkpt lat="43.6875117" lon="12.5078467"><ele>336.75</ele><time>2026-04-25T08:47:21.544Z</time></trkpt><trkpt lat="43.6874467" lon="12.5079733"><ele>338.5</ele><time>2026-04-25T08:47:22.544Z</time></trkpt><trkpt lat="43.6874133" lon="12.5081083"><ele>340.25</ele><time>2026-04-25T08:47:23.544Z</time></trkpt><trkpt lat="43.6874417" lon="12.5082667"><ele>342.0</ele><time>2026-04-25T08:47:24.544Z</time></trkpt><trkpt lat="43.68749" lon="12.5084467"><ele>342.0</ele><time>2026-04-25T08:47:25.544Z</time></trkpt><trkpt lat="43.6875167" lon="12.50859"><ele>342.0</ele><time>2026-04-25T08:47:26.544Z</time></trkpt><trkpt lat="43.6875233" lon="12.50872"><ele>342.0</ele><time>2026-04-25T08:47:27.544Z</time></trkpt><trkpt lat="43.6874833" lon="12.5088317"><ele>342.0</ele><time>2026-04-25T08:47:28.544Z</time></trkpt><trkpt lat="43.6874283" lon="12.5088933"><ele>342.0</ele><time>2026-04-25T08:47:29.543Z</time></trkpt><trkpt lat="43.6873317" lon="12.50894"><ele>341.5</ele><time>2026-04-25T08:47:30.544Z</time></trkpt><trkpt lat="43.6872117" lon="12.508955"><ele>341.0</ele><time>2026-04-25T08:47:31.544Z</time></trkpt><trkpt lat="43.6871" lon="12.5089567"><ele>340.5</ele><time>2026-04-25T08:47:32.544Z</time></trkpt><trkpt lat="43.6869783" lon="12.5090083"><ele>340.0</ele><time>2026-04-25T08:47:33.543Z</time></trkpt><trkpt lat="43.6868683" lon="12.5090933"><ele>335.0</ele><time>2026-04-25T08:47:34.544Z</time></trkpt><trkpt lat="43.68677" lon="12.5092383"><ele>330.0</ele><time>2026-04-25T08:47:35.544Z</time></trkpt><trkpt lat="43.6866633" lon="12.509435"><ele>325.0</ele><time>2026-04-25T08:47:36.544Z</time></trkpt><trkpt lat="43.6865533" lon="12.50966"><ele>325.0</ele><time>2026-04-25T08:47:37.544Z</time></trkpt><trkpt lat="43.6864467" lon="12.5099"><ele>325.0</ele><time>2026-04-25T08:47:38.544Z</time></trkpt><trkpt lat="43.6863417" lon="12.5101317"><ele>325.0</ele><time>2026-04-25T08:47:39.544Z</time></trkpt><trkpt lat="43.686225" lon="12.5103883"><ele>319.0</ele><time>2026-04-25T08:47:40.543Z</time></trkpt><trkpt lat="43.6860933" lon="12.5106317"><ele>313.0</ele><time>2026-04-25T08:47:41.544Z</time></trkpt><trkpt lat="43.685985" lon="12.5108333"><ele>307.0</ele><time>2026-04-25T08:47:42.544Z</time></trkpt><trkpt lat="43.685875" lon="12.5110433"><ele>307.0</ele><time>2026-04-25T08:47:43.543Z</time></trkpt><trkpt lat="43.6857767" lon="12.5112267"><ele>307.0</ele><time>2026-04-25T08:47:44.543Z</time></trkpt><trkpt lat="43.685675" lon="12.5113983"><ele>307.0</ele><time>2026-04-25T08:47:45.543Z</time></trkpt><trkpt lat="43.6856" lon="12.5115667"><ele>307.0</ele><time>2026-04-25T08:47:46.544Z</time></trkpt><trkpt lat="43.68555" lon="12.5117217"><ele>307.0</ele><time>2026-04-25T08:47:47.544Z</time></trkpt><trkpt lat="43.68552" lon="12.5119"><ele>307.0</ele><time>2026-04-25T08:47:48.544Z</time></trkpt><trkpt lat="43.68552" lon="12.5120867"><ele>307.0</ele><time>2026-04-25T08:47:49.543Z</time></trkpt><trkpt lat="43.6855383" lon="12.51233"><ele>305.25</ele><time>2026-04-25T08:47:50.543Z</time></trkpt><trkpt lat="43.685565" lon="12.5125467"><ele>303.5</ele><time>2026-04-25T08:47:51.544Z</time></trkpt><trkpt lat="43.6855917" lon="12.512735"><ele>301.75</ele><time>2026-04-25T08:47:52.543Z</time></trkpt><trkpt lat="43.6856133" lon="12.5129"><ele>300.0</ele><time>2026-04-25T08:47:53.544Z</time></trkpt><trkpt lat="43.68561" lon="12.5130233"><ele>298.4</ele><time>2026-04-25T08:47:54.544Z</time></trkpt><trkpt lat="43.685565" lon="12.5131317"><ele>296.8</ele><time>2026-04-25T08:47:55.544Z</time></trkpt><trkpt lat="43.6855083" lon="12.5131983"><ele>295.2</ele><time>2026-04-25T08:47:56.543Z</time></trkpt><trkpt lat="43.6854117" lon="12.513225"><ele>293.6</ele><time>2026-04-25T08:47:57.544Z</time></trkpt><trkpt lat="43.6853" lon="12.513215"><ele>292.0</ele><time>2026-04-25T08:47:58.544Z</time></trkpt><trkpt lat="43.6851467" lon="12.5131833"><ele>290.25</ele><time>2026-04-25T08:47:59.544Z</time></trkpt><trkpt lat="43.6849967" lon="12.5131633"><ele>288.5</ele><time>2026-04-25T08:48:00.543Z</time></trkpt><trkpt lat="43.6848883" lon="12.5131483"><ele>286.75</ele><time>2026-04-25T08:48:01.543Z</time></trkpt><trkpt lat="43.6847967" lon="12.5131417"><ele>285.0</ele><time>2026-04-25T08:48:02.544Z</time></trkpt><trkpt lat="43.6846783" lon="12.513185"><ele>285.0</ele><time>2026-04-25T08:48:03.544Z</time></trkpt><trkpt lat="43.6845783" lon="12.513285"><ele>285.0</ele><time>2026-04-25T08:48:04.544Z</time></trkpt><trkpt lat="43.684465" lon="12.5134417"><ele>285.0</ele><time>2026-04-25T08:48:05.543Z</time></trkpt><trkpt lat="43.6843617" lon="12.5136233"><ele>285.3333333333333</ele><time>2026-04-25T08:48:06.544Z</time></trkpt><trkpt lat="43.6842567" lon="12.5138333"><ele>285.66666666666663</ele><time>2026-04-25T08:48:07.544Z</time></trkpt><trkpt lat="43.6841033" lon="12.5140517"><ele>286.0</ele><time>2026-04-25T08:48:08.544Z</time></trkpt><trkpt lat="43.6839833" lon="12.5142583"><ele>286.0</ele><time>2026-04-25T08:48:09.544Z</time></trkpt><trkpt lat="43.6838717" lon="12.5144417"><ele>286.0</ele><time>2026-04-25T08:48:10.544Z</time></trkpt><trkpt lat="43.6837633" lon="12.5146333"><ele>286.0</ele><time>2026-04-25T08:48:11.543Z</time></trkpt><trkpt lat="43.68367" lon="12.5148433"><ele>285.3333333333333</ele><time>2026-04-25T08:48:12.544Z</time></trkpt><trkpt lat="43.6835817" lon="12.51505"><ele>284.6666666666667</ele><time>2026-04-25T08:48:13.542Z</time></trkpt><trkpt lat="43.6834967" lon="12.5152733"><ele>284.0</ele><time>2026-04-25T08:48:14.543Z</time></trkpt><trkpt lat="43.6834183" lon="12.51554"><ele>284.0</ele><time>2026-04-25T08:48:15.543Z</time></trkpt><trkpt lat="43.68336" lon="12.5158033"><ele>284.0</ele><time>2026-04-25T08:48:16.543Z</time></trkpt><trkpt lat="43.683295" lon="12.5160517"><ele>284.0</ele><time>2026-04-25T08:48:17.543Z</time></trkpt><trkpt lat="43.6832417" lon="12.5162467"><ele>286.6666666666667</ele><time>2026-04-25T08:48:18.543Z</time></trkpt><trkpt lat="43.6831467" lon="12.516435"><ele>289.3333333333333</ele><time>2026-04-25T08:48:19.542Z</time></trkpt><trkpt lat="43.683045" lon="12.5166267"><ele>292.0</ele><time>2026-04-25T08:48:20.543Z</time></trkpt><trkpt lat="43.682935" lon="12.5168383"><ele>292.0</ele><time>2026-04-25T08:48:21.543Z</time></trkpt><trkpt lat="43.682835" lon="12.51706"><ele>292.0</ele><time>2026-04-25T08:48:22.543Z</time></trkpt><trkpt lat="43.6827133" lon="12.5173067"><ele>292.0</ele><time>2026-04-25T08:48:23.543Z</time></trkpt><trkpt lat="43.68261" lon="12.51758"><ele>292.0</ele><time>2026-04-25T08:48:24.542Z</time></trkpt><trkpt lat="43.68251" lon="12.5178433"><ele>292.0</ele><time>2026-04-25T08:48:25.542Z</time></trkpt><trkpt lat="43.6824" lon="12.518105"><ele>292.0</ele><time>2026-04-25T08:48:26.543Z</time></trkpt><trkpt lat="43.682295" lon="12.51836"><ele>292.0</ele><time>2026-04-25T08:48:27.542Z</time></trkpt><trkpt lat="43.6821583" lon="12.5185917"><ele>292.0</ele><time>2026-04-25T08:48:28.543Z</time></trkpt><trkpt lat="43.6820517" lon="12.518805"><ele>292.0</ele><time>2026-04-25T08:48:29.542Z</time></trkpt><trkpt lat="43.681905" lon="12.5190067"><ele>291.0</ele><time>2026-04-25T08:48:30.543Z</time></trkpt><trkpt lat="43.6817667" lon="12.5192283"><ele>290.0</ele><time>2026-04-25T08:48:31.542Z</time></trkpt><trkpt lat="43.68163" lon="12.5194433"><ele>289.0</ele><time>2026-04-25T08:48:32.543Z</time></trkpt><trkpt lat="43.681515" lon="12.5196517"><ele>288.5</ele><time>2026-04-25T08:48:33.543Z</time></trkpt><trkpt lat="43.6814283" lon="12.519825"><ele>288.0</ele><time>2026-04-25T08:48:34.542Z</time></trkpt><trkpt lat="43.68135" lon="12.5199983"><ele>287.5</ele><time>2026-04-25T08:48:35.543Z</time></trkpt><trkpt lat="43.6812417" lon="12.52012"><ele>287.0</ele><time>2026-04-25T08:48:36.542Z</time></trkpt><trkpt lat="43.6810983" lon="12.5202433"><ele>287.0</ele><time>2026-04-25T08:48:37.543Z</time></trkpt><trkpt lat="43.6809" lon="12.5203483"><ele>287.0</ele><time>2026-04-25T08:48:38.543Z</time></trkpt><trkpt lat="43.6806817" lon="12.52046"><ele>287.0</ele><time>2026-04-25T08:48:39.543Z</time></trkpt><trkpt lat="43.6804617" lon="12.5205333"><ele>289.0</ele><time>2026-04-25T08:48:40.543Z</time></trkpt><trkpt lat="43.68026" lon="12.5205617"><ele>291.0</ele><time>2026-04-25T08:48:41.542Z</time></trkpt><trkpt lat="43.6800633" lon="12.5206233"><ele>293.0</ele><time>2026-04-25T08:48:42.543Z</time></trkpt><trkpt lat="43.6798867" lon="12.52068"><ele>293.0</ele><time>2026-04-25T08:48:43.543Z</time></trkpt><trkpt lat="43.67974" lon="12.5207167"><ele>293.0</ele><time>2026-04-25T08:48:44.543Z</time></trkpt><trkpt lat="43.6796267" lon="12.520725"><ele>293.0</ele><time>2026-04-25T08:48:45.543Z</time></trkpt><trkpt lat="43.6795033" lon="12.52074"><ele>293.0</ele><time>2026-04-25T08:48:46.543Z</time></trkpt><trkpt lat="43.6793833" lon="12.5207383"><ele>291.4</ele><time>2026-04-25T08:48:47.542Z</time></trkpt><trkpt lat="43.6793033" lon="12.5206933"><ele>289.8</ele><time>2026-04-25T08:48:48.543Z</time></trkpt><trkpt lat="43.6792117" lon="12.5207067"><ele>288.2</ele><time>2026-04-25T08:48:50.543Z</time></trkpt><trkpt lat="43.6791483" lon="12.5207967"><ele>286.6</ele><time>2026-04-25T08:48:51.542Z</time></trkpt><trkpt lat="43.67907" lon="12.5209417"><ele>285.0</ele><time>2026-04-25T08:48:52.543Z</time></trkpt><trkpt lat="43.67897" lon="12.521075"><ele>285.0</ele><time>2026-04-25T08:48:53.542Z</time></trkpt><trkpt lat="43.6788217" lon="12.5212033"><ele>285.0</ele><time>2026-04-25T08:48:54.543Z</time></trkpt><trkpt lat="43.6786483" lon="12.5213067"><ele>285.0</ele><time>2026-04-25T08:48:55.543Z</time></trkpt><trkpt lat="43.6784517" lon="12.5214233"><ele>286.3333333333333</ele><time>2026-04-25T08:48:56.543Z</time></trkpt><trkpt lat="43.67825" lon="12.5215417"><ele>287.66666666666663</ele><time>2026-04-25T08:48:57.543Z</time></trkpt><trkpt lat="43.678045" lon="12.5216533"><ele>289.0</ele><time>2026-04-25T08:48:58.542Z</time></trkpt><trkpt lat="43.677855" lon="12.52176"><ele>287.66666666666663</ele><time>2026-04-25T08:48:59.543Z</time></trkpt><trkpt lat="43.677685" lon="12.5218817"><ele>286.3333333333333</ele><time>2026-04-25T08:49:00.543Z</time></trkpt><trkpt lat="43.677505" lon="12.522025"><ele>285.0</ele><time>2026-04-25T08:49:01.542Z</time></trkpt><trkpt lat="43.67733" lon="12.5221867"><ele>285.6666666666667</ele><time>2026-04-25T08:49:02.543Z</time></trkpt><trkpt lat="43.6771683" lon="12.522345"><ele>286.33333333333337</ele><time>2026-04-25T08:49:03.543Z</time></trkpt><trkpt lat="43.6770183" lon="12.5225217"><ele>287.0</ele><time>2026-04-25T08:49:04.542Z</time></trkpt><trkpt lat="43.676865" lon="12.5226867"><ele>287.0</ele><time>2026-04-25T08:49:05.543Z</time></trkpt><trkpt lat="43.676715" lon="12.5228533"><ele>287.0</ele><time>2026-04-25T08:49:06.543Z</time></trkpt><trkpt lat="43.6765633" lon="12.523035"><ele>287.0</ele><time>2026-04-25T08:49:07.543Z</time></trkpt><trkpt lat="43.6764433" lon="12.523225"><ele>287.6666666666667</ele><time>2026-04-25T08:49:08.543Z</time></trkpt><trkpt lat="43.676315" lon="12.5234083"><ele>288.3333333333333</ele><time>2026-04-25T08:49:09.542Z</time></trkpt><trkpt lat="43.67619" lon="12.523575"><ele>289.0</ele><time>2026-04-25T08:49:10.543Z</time></trkpt><trkpt lat="43.6760733" lon="12.5237333"><ele>289.0</ele><time>2026-04-25T08:49:11.542Z</time></trkpt><trkpt lat="43.6759817" lon="12.523875"><ele>289.0</ele><time>2026-04-25T08:49:12.543Z</time></trkpt><trkpt lat="43.6758667" lon="12.5239617"><ele>289.0</ele><time>2026-04-25T08:49:13.543Z</time></trkpt><trkpt lat="43.67579" lon="12.5240433"><ele>289.0</ele><time>2026-04-25T08:49:14.543Z</time></trkpt><trkpt lat="43.675745" lon="12.5241183"><ele>289.0</ele><time>2026-04-25T08:49:15.542Z</time></trkpt><trkpt lat="43.6756633" lon="12.5242183"><ele>289.0</ele><time>2026-04-25T08:49:17.542Z</time></trkpt><trkpt lat="43.67553" lon="12.52426"><ele>289.0</ele><time>2026-04-25T08:49:19.542Z</time></trkpt><trkpt lat="43.675465" lon="12.5241317"><ele>289.0</ele><time>2026-04-25T08:49:21.543Z</time></trkpt><trkpt lat="43.6754267" lon="12.5240317"><ele>289.0</ele><time>2026-04-25T08:49:22.543Z</time></trkpt><trkpt lat="43.6753617" lon="12.52396"><ele>289.0</ele><time>2026-04-25T08:49:23.542Z</time></trkpt><trkpt lat="43.67529" lon="12.5239317"><ele>288.2</ele><time>2026-04-25T08:49:24.543Z</time></trkpt><trkpt lat="43.6752267" lon="12.5239367"><ele>287.4</ele><time>2026-04-25T08:49:25.542Z</time></trkpt><trkpt lat="43.675145" lon="12.5239833"><ele>286.6</ele><time>2026-04-25T08:49:26.543Z</time></trkpt><trkpt lat="43.6750633" lon="12.5240483"><ele>285.8</ele><time>2026-04-25T08:49:27.543Z</time></trkpt><trkpt lat="43.67497" lon="12.5241133"><ele>285.0</ele><time>2026-04-25T08:49:28.543Z</time></trkpt><trkpt lat="43.6748517" lon="12.52414"><ele>285.0</ele><time>2026-04-25T08:49:29.543Z</time></trkpt><trkpt lat="43.6747133" lon="12.5241233"><ele>285.0</ele><time>2026-04-25T08:49:30.543Z</time></trkpt><trkpt lat="43.67455" lon="12.5240717"><ele>285.0</ele><time>2026-04-25T08:49:31.543Z</time></trkpt><trkpt lat="43.6743867" lon="12.52399"><ele>284.6666666666667</ele><time>2026-04-25T08:49:32.542Z</time></trkpt><trkpt lat="43.67418" lon="12.5239067"><ele>284.33333333333337</ele><time>2026-04-25T08:49:33.543Z</time></trkpt><trkpt lat="43.6739717" lon="12.5238"><ele>284.0</ele><time>2026-04-25T08:49:34.543Z</time></trkpt><trkpt lat="43.6737867" lon="12.5236767"><ele>282.33333333333337</ele><time>2026-04-25T08:49:35.543Z</time></trkpt><trkpt lat="43.673585" lon="12.5235833"><ele>280.6666666666667</ele><time>2026-04-25T08:49:36.542Z</time></trkpt><trkpt lat="43.6733883" lon="12.5235117"><ele>279.0</ele><time>2026-04-25T08:49:37.542Z</time></trkpt><trkpt lat="43.6732217" lon="12.5234083"><ele>279.0</ele><time>2026-04-25T08:49:38.542Z</time></trkpt><trkpt lat="43.6730217" lon="12.52334"><ele>279.0</ele><time>2026-04-25T08:49:39.543Z</time></trkpt><trkpt lat="43.6728333" lon="12.52326"><ele>279.0</ele><time>2026-04-25T08:49:40.542Z</time></trkpt><trkpt lat="43.672665" lon="12.5231783"><ele>278.75</ele><time>2026-04-25T08:49:41.543Z</time></trkpt><trkpt lat="43.6725167" lon="12.5231083"><ele>278.5</ele><time>2026-04-25T08:49:42.543Z</time></trkpt><trkpt lat="43.6723867" lon="12.5230533"><ele>278.25</ele><time>2026-04-25T08:49:43.543Z</time></trkpt><trkpt lat="43.6723" lon="12.522985"><ele>278.0</ele><time>2026-04-25T08:49:44.543Z</time></trkpt><trkpt lat="43.67221" lon="12.5229167"><ele>278.0</ele><time>2026-04-25T08:49:45.542Z</time></trkpt><trkpt lat="43.6721783" lon="12.5228267"><ele>278.0</ele><time>2026-04-25T08:49:46.543Z</time></trkpt><trkpt lat="43.672185" lon="12.522695"><ele>278.0</ele><time>2026-04-25T08:49:47.543Z</time></trkpt><trkpt lat="43.6721517" lon="12.5225933"><ele>278.0</ele><time>2026-04-25T08:49:48.543Z</time></trkpt><trkpt lat="43.6720767" lon="12.52252"><ele>278.0</ele><time>2026-04-25T08:49:49.542Z</time></trkpt><trkpt lat="43.6719683" lon="12.5224783"><ele>277.75</ele><time>2026-04-25T08:49:50.543Z</time></trkpt><trkpt lat="43.6718533" lon="12.522425"><ele>277.5</ele><time>2026-04-25T08:49:51.543Z</time></trkpt><trkpt lat="43.67176" lon="12.522335"><ele>277.25</ele><time>2026-04-25T08:49:52.542Z</time></trkpt><trkpt lat="43.671665" lon="12.5222217"><ele>277.0</ele><time>2026-04-25T08:49:53.542Z</time></trkpt><trkpt lat="43.67158" lon="12.5220867"><ele>276.75</ele><time>2026-04-25T08:49:54.543Z</time></trkpt><trkpt lat="43.6715117" lon="12.52193"><ele>276.5</ele><time>2026-04-25T08:49:55.542Z</time></trkpt><trkpt lat="43.67144" lon="12.5217467"><ele>276.25</ele><time>2026-04-25T08:49:56.543Z</time></trkpt><trkpt lat="43.6713617" lon="12.5215467"><ele>276.0</ele><time>2026-04-25T08:49:57.543Z</time></trkpt><trkpt lat="43.6712783" lon="12.5213283"><ele>275.3333333333333</ele><time>2026-04-25T08:49:58.543Z</time></trkpt><trkpt lat="43.6712267" lon="12.5210967"><ele>274.66666666666663</ele><time>2026-04-25T08:49:59.542Z</time></trkpt><trkpt lat="43.6711967" lon="12.5208517"><ele>274.0</ele><time>2026-04-25T08:50:00.543Z</time></trkpt><trkpt lat="43.671195" lon="12.5205983"><ele>270.66666666666663</ele><time>2026-04-25T08:50:01.543Z</time></trkpt><trkpt lat="43.6712433" lon="12.5203283"><ele>267.3333333333333</ele><time>2026-04-25T08:50:02.543Z</time></trkpt><trkpt lat="43.6712433" lon="12.5200783"><ele>264.0</ele><time>2026-04-25T08:50:03.542Z</time></trkpt><trkpt lat="43.6712617" lon="12.5198517"><ele>264.0</ele><time>2026-04-25T08:50:04.542Z</time></trkpt><trkpt lat="43.6712833" lon="12.519645"><ele>264.0</ele><time>2026-04-25T08:50:05.543Z</time></trkpt><trkpt lat="43.6713083" lon="12.5194467"><ele>264.0</ele><time>2026-04-25T08:50:06.542Z</time></trkpt><trkpt lat="43.671315" lon="12.5192633"><ele>264.0</ele><time>2026-04-25T08:50:07.543Z</time></trkpt><trkpt lat="43.6713417" lon="12.5191"><ele>265.0</ele><time>2026-04-25T08:50:08.542Z</time></trkpt><trkpt lat="43.6713667" lon="12.5189433"><ele>266.0</ele><time>2026-04-25T08:50:09.543Z</time></trkpt><trkpt lat="43.6713683" lon="12.5187833"><ele>267.0</ele><time>2026-04-25T08:50:10.543Z</time></trkpt><trkpt lat="43.6714" lon="12.518605"><ele>268.0</ele><time>2026-04-25T08:50:11.543Z</time></trkpt><trkpt lat="43.6714017" lon="12.5184483"><ele>270.0</ele><time>2026-04-25T08:50:12.543Z</time></trkpt><trkpt lat="43.6714317" lon="12.518315"><ele>272.0</ele><time>2026-04-25T08:50:13.543Z</time></trkpt><trkpt lat="43.6714583" lon="12.5181917"><ele>274.0</ele><time>2026-04-25T08:50:14.543Z</time></trkpt><trkpt lat="43.6714917" lon="12.5180433"><ele>276.0</ele><time>2026-04-25T08:50:15.543Z</time></trkpt><trkpt lat="43.6715317" lon="12.51788"><ele>278.0</ele><time>2026-04-25T08:50:16.543Z</time></trkpt><trkpt lat="43.6715583" lon="12.5177033"><ele>278.75</ele><time>2026-04-25T08:50:17.543Z</time></trkpt><trkpt lat="43.671625" lon="12.5175417"><ele>279.5</ele><time>2026-04-25T08:50:18.542Z</time></trkpt><trkpt lat="43.6717" lon="12.517405"><ele>280.25</ele><time>2026-04-25T08:50:19.543Z</time></trkpt><trkpt lat="43.6717717" lon="12.5172567"><ele>281.0</ele><time>2026-04-25T08:50:20.543Z</time></trkpt><trkpt lat="43.6718517" lon="12.517105"><ele>282.0</ele><time>2026-04-25T08:50:21.543Z</time></trkpt><trkpt lat="43.6719483" lon="12.5169867"><ele>283.0</ele><time>2026-04-25T08:50:22.543Z</time></trkpt><trkpt lat="43.6720333" lon="12.5168667"><ele>284.0</ele><time>2026-04-25T08:50:23.543Z</time></trkpt><trkpt lat="43.6721233" lon="12.5167467"><ele>285.0</ele><time>2026-04-25T08:50:24.543Z</time></trkpt><trkpt lat="43.6722367" lon="12.51659"><ele>285.0</ele><time>2026-04-25T08:50:25.543Z</time></trkpt><trkpt lat="43.672375" lon="12.516415"><ele>285.0</ele><time>2026-04-25T08:50:26.543Z</time></trkpt><trkpt lat="43.6725333" lon="12.5162267"><ele>285.0</ele><time>2026-04-25T08:50:27.543Z</time></trkpt><trkpt lat="43.6727033" lon="12.5160383"><ele>286.6666666666667</ele><time>2026-04-25T08:50:28.543Z</time></trkpt><trkpt lat="43.6728883" lon="12.515835"><ele>288.33333333333337</ele><time>2026-04-25T08:50:29.543Z</time></trkpt><trkpt lat="43.6730433" lon="12.5156367"><ele>290.0</ele><time>2026-04-25T08:50:30.543Z</time></trkpt><trkpt lat="43.6732217" lon="12.5154683"><ele>290.6666666666667</ele><time>2026-04-25T08:50:31.542Z</time></trkpt><trkpt lat="43.6733867" lon="12.5152783"><ele>291.3333333333333</ele><time>2026-04-25T08:50:32.542Z</time></trkpt><trkpt lat="43.6735467" lon="12.5151117"><ele>292.0</ele><time>2026-04-25T08:50:33.542Z</time></trkpt><trkpt lat="43.6737183" lon="12.51498"><ele>292.0</ele><time>2026-04-25T08:50:34.543Z</time></trkpt><trkpt lat="43.6738533" lon="12.514825"><ele>292.0</ele><time>2026-04-25T08:50:35.543Z</time></trkpt><trkpt lat="43.6740033" lon="12.5146917"><ele>292.0</ele><time>2026-04-25T08:50:36.543Z</time></trkpt><trkpt lat="43.67413" lon="12.514605"><ele>292.0</ele><time>2026-04-25T08:50:37.543Z</time></trkpt><trkpt lat="43.6742433" lon="12.5144683"><ele>292.0</ele><time>2026-04-25T08:50:38.543Z</time></trkpt><trkpt lat="43.67438" lon="12.5143583"><ele>292.0</ele><time>2026-04-25T08:50:39.543Z</time></trkpt><trkpt lat="43.6745017" lon="12.5142517"><ele>292.0</ele><time>2026-04-25T08:50:40.543Z</time></trkpt><trkpt lat="43.674605" lon="12.5141417"><ele>292.0</ele><time>2026-04-25T08:50:41.542Z</time></trkpt><trkpt lat="43.6747067" lon="12.514045"><ele>292.0</ele><time>2026-04-25T08:50:42.543Z</time></trkpt><trkpt lat="43.674795" lon="12.5139567"><ele>292.0</ele><time>2026-04-25T08:50:43.543Z</time></trkpt><trkpt lat="43.6748667" lon="12.5138883"><ele>292.0</ele><time>2026-04-25T08:50:44.543Z</time></trkpt><trkpt lat="43.6749267" lon="12.51384"><ele>292.0</ele><time>2026-04-25T08:50:45.542Z</time></trkpt><trkpt lat="43.6749717" lon="12.5137683"><ele>292.0</ele><time>2026-04-25T08:50:46.543Z</time></trkpt><trkpt lat="43.6749917" lon="12.5136617"><ele>292.0</ele><time>2026-04-25T08:50:48.543Z</time></trkpt><trkpt lat="43.674875" lon="12.5135567"><ele>292.0</ele><time>2026-04-25T08:50:50.543Z</time></trkpt><trkpt lat="43.67477" lon="12.5134583"><ele>292.0</ele><time>2026-04-25T08:50:51.543Z</time></trkpt><trkpt lat="43.67468" lon="12.5133367"><ele>292.0</ele><time>2026-04-25T08:50:52.542Z</time></trkpt><trkpt lat="43.674635" lon="12.513155"><ele>292.0</ele><time>2026-04-25T08:50:53.543Z</time></trkpt><trkpt lat="43.6745383" lon="12.5129533"><ele>292.0</ele><time>2026-04-25T08:50:54.543Z</time></trkpt><trkpt lat="43.67448" lon="12.5127167"><ele>292.66666666666663</ele><time>2026-04-25T08:50:55.542Z</time></trkpt><trkpt lat="43.67442" lon="12.5124683"><ele>293.3333333333333</ele><time>2026-04-25T08:50:56.543Z</time></trkpt><trkpt lat="43.6743317" lon="12.5122217"><ele>294.0</ele><time>2026-04-25T08:50:57.543Z</time></trkpt><trkpt lat="43.6742517" lon="12.511975"><ele>294.0</ele><time>2026-04-25T08:50:58.542Z</time></trkpt><trkpt lat="43.6741817" lon="12.5117667"><ele>294.0</ele><time>2026-04-25T08:50:59.543Z</time></trkpt><trkpt lat="43.6741217" lon="12.511585"><ele>294.0</ele><time>2026-04-25T08:51:00.542Z</time></trkpt><trkpt lat="43.6740833" lon="12.5114333"><ele>294.0</ele><time>2026-04-25T08:51:01.542Z</time></trkpt><trkpt lat="43.6740433" lon="12.5113233"><ele>294.0</ele><time>2026-04-25T08:51:02.542Z</time></trkpt><trkpt lat="43.673985" lon="12.5112517"><ele>294.0</ele><time>2026-04-25T08:51:03.543Z</time></trkpt><trkpt lat="43.6739133" lon="12.5112083"><ele>294.0</ele><time>2026-04-25T08:51:04.543Z</time></trkpt><trkpt lat="43.6738283" lon="12.5111917"><ele>294.0</ele><time>2026-04-25T08:51:05.542Z</time></trkpt><trkpt lat="43.6737" lon="12.5112083"><ele>294.0</ele><time>2026-04-25T08:51:06.542Z</time></trkpt><trkpt lat="43.6735333" lon="12.5112583"><ele>296.0</ele><time>2026-04-25T08:51:07.542Z</time></trkpt><trkpt lat="43.6733617" lon="12.5113117"><ele>298.0</ele><time>2026-04-25T08:51:08.543Z</time></trkpt><trkpt lat="43.6731817" lon="12.5113483"><ele>300.0</ele><time>2026-04-25T08:51:09.543Z</time></trkpt><trkpt lat="43.6730233" lon="12.5113983"><ele>300.0</ele><time>2026-04-25T08:51:10.543Z</time></trkpt><trkpt lat="43.6728683" lon="12.5114983"><ele>300.0</ele><time>2026-04-25T08:51:11.542Z</time></trkpt><trkpt lat="43.67275" lon="12.5116233"><ele>300.0</ele><time>2026-04-25T08:51:12.543Z</time></trkpt><trkpt lat="43.672615" lon="12.5117917"><ele>300.3333333333333</ele><time>2026-04-25T08:51:13.543Z</time></trkpt><trkpt lat="43.6724833" lon="12.5120033"><ele>300.66666666666663</ele><time>2026-04-25T08:51:14.543Z</time></trkpt><trkpt lat="43.6723567" lon="12.5122483"><ele>301.0</ele><time>2026-04-25T08:51:15.542Z</time></trkpt><trkpt lat="43.67222" lon="12.5124983"><ele>300.0</ele><time>2026-04-25T08:51:16.543Z</time></trkpt><trkpt lat="43.6720983" lon="12.5127283"><ele>299.0</ele><time>2026-04-25T08:51:17.543Z</time></trkpt><trkpt lat="43.6719867" lon="12.51295"><ele>298.0</ele><time>2026-04-25T08:51:18.542Z</time></trkpt><trkpt lat="43.67188" lon="12.5131617"><ele>297.25</ele><time>2026-04-25T08:51:19.543Z</time></trkpt><trkpt lat="43.6717783" lon="12.5133533"><ele>296.5</ele><time>2026-04-25T08:51:20.543Z</time></trkpt><trkpt lat="43.6716917" lon="12.5135233"><ele>295.75</ele><time>2026-04-25T08:51:21.542Z</time></trkpt><trkpt lat="43.6716183" lon="12.513655"><ele>295.0</ele><time>2026-04-25T08:51:22.542Z</time></trkpt><trkpt lat="43.67157" lon="12.513765"><ele>294.0</ele><time>2026-04-25T08:51:23.543Z</time></trkpt><trkpt lat="43.6715033" lon="12.513865"><ele>293.0</ele><time>2026-04-25T08:51:24.543Z</time></trkpt><trkpt lat="43.6714533" lon="12.51397"><ele>292.0</ele><time>2026-04-25T08:51:25.543Z</time></trkpt><trkpt lat="43.6713983" lon="12.5140767"><ele>291.0</ele><time>2026-04-25T08:51:26.543Z</time></trkpt><trkpt lat="43.671335" lon="12.5141867"><ele>290.0</ele><time>2026-04-25T08:51:27.543Z</time></trkpt><trkpt lat="43.6712867" lon="12.5143017"><ele>290.0</ele><time>2026-04-25T08:51:28.543Z</time></trkpt><trkpt lat="43.6712283" lon="12.5144233"><ele>290.0</ele><time>2026-04-25T08:51:29.542Z</time></trkpt><trkpt lat="43.67116" lon="12.5145483"><ele>290.0</ele><time>2026-04-25T08:51:30.543Z</time></trkpt><trkpt lat="43.67109" lon="12.514665"><ele>290.0</ele><time>2026-04-25T08:51:31.543Z</time></trkpt><trkpt lat="43.67102" lon="12.514785"><ele>290.0</ele><time>2026-04-25T08:51:32.543Z</time></trkpt><trkpt lat="43.670955" lon="12.51491"><ele>290.5</ele><time>2026-04-25T08:51:33.543Z</time></trkpt><trkpt lat="43.67087" lon="12.5150467"><ele>291.0</ele><time>2026-04-25T08:51:34.543Z</time></trkpt><trkpt lat="43.6707783" lon="12.51519"><ele>291.5</ele><time>2026-04-25T08:51:35.542Z</time></trkpt><trkpt lat="43.6706883" lon="12.5153117"><ele>292.0</ele><time>2026-04-25T08:51:36.543Z</time></trkpt><trkpt lat="43.6705783" lon="12.5154333"><ele>292.0</ele><time>2026-04-25T08:51:37.543Z</time></trkpt><trkpt lat="43.6704533" lon="12.5155733"><ele>292.0</ele><time>2026-04-25T08:51:38.543Z</time></trkpt><trkpt lat="43.6703233" lon="12.515705"><ele>292.0</ele><time>2026-04-25T08:51:39.543Z</time></trkpt><trkpt lat="43.6701817" lon="12.5158517"><ele>292.0</ele><time>2026-04-25T08:51:40.543Z</time></trkpt><trkpt lat="43.670045" lon="12.5159983"><ele>292.0</ele><time>2026-04-25T08:51:41.542Z</time></trkpt><trkpt lat="43.6698817" lon="12.5161617"><ele>292.0</ele><time>2026-04-25T08:51:42.542Z</time></trkpt><trkpt lat="43.6697367" lon="12.51631"><ele>290.66666666666663</ele><time>2026-04-25T08:51:43.542Z</time></trkpt><trkpt lat="43.6695917" lon="12.5164433"><ele>289.3333333333333</ele><time>2026-04-25T08:51:44.542Z</time></trkpt><trkpt lat="43.6694317" lon="12.516555"><ele>288.0</ele><time>2026-04-25T08:51:45.542Z</time></trkpt><trkpt lat="43.6692583" lon="12.5166433"><ele>288.0</ele><time>2026-04-25T08:51:46.543Z</time></trkpt><trkpt lat="43.6690933" lon="12.5167033"><ele>288.0</ele><time>2026-04-25T08:51:47.542Z</time></trkpt><trkpt lat="43.6689533" lon="12.5167583"><ele>288.0</ele><time>2026-04-25T08:51:48.542Z</time></trkpt><trkpt lat="43.6688283" lon="12.51681"><ele>288.0</ele><time>2026-04-25T08:51:49.542Z</time></trkpt><trkpt lat="43.6687183" lon="12.5168617"><ele>288.0</ele><time>2026-04-25T08:51:50.543Z</time></trkpt><trkpt lat="43.6686333" lon="12.5169033"><ele>288.0</ele><time>2026-04-25T08:51:51.543Z</time></trkpt><trkpt lat="43.6685633" lon="12.516935"><ele>288.0</ele><time>2026-04-25T08:51:52.543Z</time></trkpt><trkpt lat="43.6684833" lon="12.516975"><ele>288.0</ele><time>2026-04-25T08:51:54.543Z</time></trkpt><trkpt lat="43.6683667" lon="12.5170267"><ele>288.0</ele><time>2026-04-25T08:52:18.543Z</time></trkpt><trkpt lat="43.668255" lon="12.5170767"><ele>287.3333333333333</ele><time>2026-04-25T08:52:19.542Z</time></trkpt><trkpt lat="43.66814" lon="12.517125"><ele>286.66666666666663</ele><time>2026-04-25T08:52:20.543Z</time></trkpt><trkpt lat="43.6679933" lon="12.5171933"><ele>286.0</ele><time>2026-04-25T08:52:21.542Z</time></trkpt><trkpt lat="43.667815" lon="12.51726"><ele>286.0</ele><time>2026-04-25T08:52:22.543Z</time></trkpt><trkpt lat="43.6676317" lon="12.5173283"><ele>286.0</ele><time>2026-04-25T08:52:23.543Z</time></trkpt><trkpt lat="43.6674583" lon="12.5173933"><ele>286.0</ele><time>2026-04-25T08:52:24.543Z</time></trkpt><trkpt lat="43.6673017" lon="12.51746"><ele>286.0</ele><time>2026-04-25T08:52:25.542Z</time></trkpt><trkpt lat="43.6671833" lon="12.5175267"><ele>286.0</ele><time>2026-04-25T08:52:26.542Z</time></trkpt><trkpt lat="43.6670633" lon="12.5176"><ele>286.0</ele><time>2026-04-25T08:52:27.543Z</time></trkpt><trkpt lat="43.66698" lon="12.5176817"><ele>286.0</ele><time>2026-04-25T08:52:28.542Z</time></trkpt><trkpt lat="43.66688" lon="12.5177583"><ele>286.2</ele><time>2026-04-25T08:52:30.543Z</time></trkpt><trkpt lat="43.666815" lon="12.5177233"><ele>286.40000000000003</ele><time>2026-04-25T08:52:32.543Z</time></trkpt><trkpt lat="43.6667583" lon="12.5175333"><ele>286.6</ele><time>2026-04-25T08:52:34.542Z</time></trkpt><trkpt lat="43.66674" lon="12.5173717"><ele>286.8</ele><time>2026-04-25T08:52:35.543Z</time></trkpt><trkpt lat="43.666695" lon="12.5172317"><ele>287.0</ele><time>2026-04-25T08:52:36.543Z</time></trkpt><trkpt lat="43.6666917" lon="12.5170683"><ele>287.25</ele><time>2026-04-25T08:52:37.543Z</time></trkpt><trkpt lat="43.66667" lon="12.51691"><ele>287.5</ele><time>2026-04-25T08:52:38.543Z</time></trkpt><trkpt lat="43.6666483" lon="12.516735"><ele>287.75</ele><time>2026-04-25T08:52:39.543Z</time></trkpt><trkpt lat="43.66662" lon="12.5165767"><ele>288.0</ele><time>2026-04-25T08:52:40.542Z</time></trkpt><trkpt lat="43.6665867" lon="12.5164483"><ele>288.0</ele><time>2026-04-25T08:52:41.543Z</time></trkpt><trkpt lat="43.6665417" lon="12.51634"><ele>288.0</ele><time>2026-04-25T08:52:42.543Z</time></trkpt><trkpt lat="43.6664667" lon="12.51623"><ele>288.0</ele><time>2026-04-25T08:52:43.543Z</time></trkpt><trkpt lat="43.6663817" lon="12.516115"><ele>288.0</ele><time>2026-04-25T08:52:44.543Z</time></trkpt><trkpt lat="43.6663067" lon="12.5159833"><ele>288.0</ele><time>2026-04-25T08:52:45.542Z</time></trkpt><trkpt lat="43.6662433" lon="12.5158483"><ele>288.8</ele><time>2026-04-25T08:52:46.543Z</time></trkpt><trkpt lat="43.6662017" lon="12.5157167"><ele>289.6</ele><time>2026-04-25T08:52:47.543Z</time></trkpt><trkpt lat="43.66616" lon="12.5156017"><ele>290.4</ele><time>2026-04-25T08:52:48.543Z</time></trkpt><trkpt lat="43.66612" lon="12.5154667"><ele>291.2</ele><time>2026-04-25T08:52:49.542Z</time></trkpt><trkpt lat="43.666095" lon="12.515325"><ele>292.0</ele><time>2026-04-25T08:52:50.543Z</time></trkpt><trkpt lat="43.6660767" lon="12.5151583"><ele>292.0</ele><time>2026-04-25T08:52:51.543Z</time></trkpt><trkpt lat="43.6660833" lon="12.514965"><ele>292.0</ele><time>2026-04-25T08:52:52.543Z</time></trkpt><trkpt lat="43.6660833" lon="12.5147533"><ele>292.0</ele><time>2026-04-25T08:52:53.543Z</time></trkpt><trkpt lat="43.6660883" lon="12.514545"><ele>292.0</ele><time>2026-04-25T08:52:54.543Z</time></trkpt><trkpt lat="43.6661033" lon="12.5143533"><ele>294.25</ele><time>2026-04-25T08:52:55.542Z</time></trkpt><trkpt lat="43.666115" lon="12.5141783"><ele>296.5</ele><time>2026-04-25T08:52:56.543Z</time></trkpt><trkpt lat="43.6661183" lon="12.514025"><ele>298.75</ele><time>2026-04-25T08:52:57.543Z</time></trkpt><trkpt lat="43.6661133" lon="12.5138433"><ele>301.0</ele><time>2026-04-25T08:52:58.542Z</time></trkpt><trkpt lat="43.6660933" lon="12.51366"><ele>301.0</ele><time>2026-04-25T08:52:59.543Z</time></trkpt><trkpt lat="43.66606" lon="12.5135017"><ele>301.0</ele><time>2026-04-25T08:53:00.543Z</time></trkpt><trkpt lat="43.666045" lon="12.5133633"><ele>301.0</ele><time>2026-04-25T08:53:01.543Z</time></trkpt><trkpt lat="43.666025" lon="12.5132417"><ele>301.0</ele><time>2026-04-25T08:53:02.542Z</time></trkpt><trkpt lat="43.6659933" lon="12.51312"><ele>301.0</ele><time>2026-04-25T08:53:03.543Z</time></trkpt><trkpt lat="43.665935" lon="12.51299"><ele>302.40000000000003</ele><time>2026-04-25T08:53:04.543Z</time></trkpt><trkpt lat="43.6658667" lon="12.5128717"><ele>303.8</ele><time>2026-04-25T08:53:05.542Z</time></trkpt><trkpt lat="43.665795" lon="12.5127433"><ele>305.20000000000005</ele><time>2026-04-25T08:53:06.543Z</time></trkpt><trkpt lat="43.6657483" lon="12.5126117"><ele>306.6</ele><time>2026-04-25T08:53:07.542Z</time></trkpt><trkpt lat="43.6657017" lon="12.5124933"><ele>308.0</ele><time>2026-04-25T08:53:08.543Z</time></trkpt><trkpt lat="43.6656667" lon="12.5123633"><ele>308.0</ele><time>2026-04-25T08:53:09.542Z</time></trkpt><trkpt lat="43.6656367" lon="12.512235"><ele>308.0</ele><time>2026-04-25T08:53:10.543Z</time></trkpt><trkpt lat="43.6656133" lon="12.512075"><ele>308.0</ele><time>2026-04-25T08:53:11.543Z</time></trkpt><trkpt lat="43.665595" lon="12.5119017"><ele>308.0</ele><time>2026-04-25T08:53:12.543Z</time></trkpt><trkpt lat="43.665575" lon="12.51174"><ele>309.8</ele><time>2026-04-25T08:53:13.543Z</time></trkpt><trkpt lat="43.66553" lon="12.511595"><ele>311.6</ele><time>2026-04-25T08:53:14.543Z</time></trkpt><trkpt lat="43.66548" lon="12.51145"><ele>313.4</ele><time>2026-04-25T08:53:15.543Z</time></trkpt><trkpt lat="43.6654567" lon="12.5112917"><ele>315.2</ele><time>2026-04-25T08:53:16.543Z</time></trkpt><trkpt lat="43.66542" lon="12.5111733"><ele>317.0</ele><time>2026-04-25T08:53:17.542Z</time></trkpt><trkpt lat="43.6653733" lon="12.5110517"><ele>318.6</ele><time>2026-04-25T08:53:18.543Z</time></trkpt><trkpt lat="43.6653183" lon="12.5109183"><ele>320.2</ele><time>2026-04-25T08:53:19.542Z</time></trkpt><trkpt lat="43.6652583" lon="12.5107917"><ele>321.8</ele><time>2026-04-25T08:53:20.543Z</time></trkpt><trkpt lat="43.6652133" lon="12.510655"><ele>323.4</ele><time>2026-04-25T08:53:21.542Z</time></trkpt><trkpt lat="43.6651667" lon="12.5105133"><ele>325.0</ele><time>2026-04-25T08:53:22.543Z</time></trkpt><trkpt lat="43.6651317" lon="12.510365"><ele>320.5</ele><time>2026-04-25T08:53:23.542Z</time></trkpt><trkpt lat="43.6651017" lon="12.510175"><ele>316.0</ele><time>2026-04-25T08:53:24.543Z</time></trkpt><trkpt lat="43.66507" lon="12.5099883"><ele>311.5</ele><time>2026-04-25T08:53:25.543Z</time></trkpt><trkpt lat="43.66505" lon="12.5098217"><ele>307.0</ele><time>2026-04-25T08:53:26.543Z</time></trkpt><trkpt lat="43.6650167" lon="12.5096883"><ele>309.0</ele><time>2026-04-25T08:53:27.543Z</time></trkpt><trkpt lat="43.664965" lon="12.5095733"><ele>311.0</ele><time>2026-04-25T08:53:28.542Z</time></trkpt><trkpt lat="43.6648933" lon="12.509475"><ele>313.0</ele><time>2026-04-25T08:53:29.543Z</time></trkpt><trkpt lat="43.6647983" lon="12.5093733"><ele>315.0</ele><time>2026-04-25T08:53:30.543Z</time></trkpt><trkpt lat="43.6647" lon="12.509255"><ele>317.0</ele><time>2026-04-25T08:53:31.543Z</time></trkpt><trkpt lat="43.6646" lon="12.50914"><ele>317.0</ele><time>2026-04-25T08:53:32.543Z</time></trkpt><trkpt lat="43.664495" lon="12.509025"><ele>317.0</ele><time>2026-04-25T08:53:33.543Z</time></trkpt><trkpt lat="43.6643867" lon="12.5089383"><ele>317.0</ele><time>2026-04-25T08:53:34.543Z</time></trkpt><trkpt lat="43.664285" lon="12.50886"><ele>317.0</ele><time>2026-04-25T08:53:35.542Z</time></trkpt><trkpt lat="43.664185" lon="12.5087817"><ele>317.2</ele><time>2026-04-25T08:53:36.543Z</time></trkpt><trkpt lat="43.6640983" lon="12.508695"><ele>317.4</ele><time>2026-04-25T08:53:37.543Z</time></trkpt><trkpt lat="43.6640283" lon="12.5085817"><ele>317.6</ele><time>2026-04-25T08:53:38.543Z</time></trkpt><trkpt lat="43.6639567" lon="12.5084733"><ele>317.8</ele><time>2026-04-25T08:53:39.543Z</time></trkpt><trkpt lat="43.6639017" lon="12.50834"><ele>318.0</ele><time>2026-04-25T08:53:40.542Z</time></trkpt><trkpt lat="43.663845" lon="12.508205"><ele>318.0</ele><time>2026-04-25T08:53:41.543Z</time></trkpt><trkpt lat="43.6637967" lon="12.50806"><ele>318.0</ele><time>2026-04-25T08:53:42.543Z</time></trkpt><trkpt lat="43.6637583" lon="12.5079233"><ele>318.0</ele><time>2026-04-25T08:53:43.543Z</time></trkpt><trkpt lat="43.6637167" lon="12.5077733"><ele>318.0</ele><time>2026-04-25T08:53:44.543Z</time></trkpt><trkpt lat="43.6636633" lon="12.5076117"><ele>317.0</ele><time>2026-04-25T08:53:45.542Z</time></trkpt><trkpt lat="43.6636017" lon="12.5074533"><ele>316.0</ele><time>2026-04-25T08:53:46.543Z</time></trkpt><trkpt lat="43.6635233" lon="12.5072867"><ele>315.0</ele><time>2026-04-25T08:53:47.543Z</time></trkpt><trkpt lat="43.6634417" lon="12.5071083"><ele>314.0</ele><time>2026-04-25T08:53:48.543Z</time></trkpt><trkpt lat="43.6633583" lon="12.5069183"><ele>314.0</ele><time>2026-04-25T08:53:49.543Z</time></trkpt><trkpt lat="43.6632683" lon="12.5067283"><ele>314.0</ele><time>2026-04-25T08:53:50.543Z</time></trkpt><trkpt lat="43.6631883" lon="12.5065417"><ele>314.0</ele><time>2026-04-25T08:53:51.542Z</time></trkpt><trkpt lat="43.663105" lon="12.5063483"><ele>314.33333333333337</ele><time>2026-04-25T08:53:52.542Z</time></trkpt><trkpt lat="43.6630317" lon="12.50616"><ele>314.6666666666667</ele><time>2026-04-25T08:53:53.543Z</time></trkpt><trkpt lat="43.66297" lon="12.5059617"><ele>315.0</ele><time>2026-04-25T08:53:54.543Z</time></trkpt><trkpt lat="43.662905" lon="12.5057583"><ele>315.0</ele><time>2026-04-25T08:53:55.543Z</time></trkpt><trkpt lat="43.662835" lon="12.505565"><ele>315.0</ele><time>2026-04-25T08:53:56.543Z</time></trkpt><trkpt lat="43.66277" lon="12.5053667"><ele>315.0</ele><time>2026-04-25T08:53:57.543Z</time></trkpt><trkpt lat="43.662705" lon="12.5051733"><ele>316.0</ele><time>2026-04-25T08:53:58.542Z</time></trkpt><trkpt lat="43.6626317" lon="12.5049917"><ele>317.0</ele><time>2026-04-25T08:53:59.542Z</time></trkpt><trkpt lat="43.6625383" lon="12.5048267"><ele>318.0</ele><time>2026-04-25T08:54:00.543Z</time></trkpt><trkpt lat="43.6624283" lon="12.5046733"><ele>323.3333333333333</ele><time>2026-04-25T08:54:01.543Z</time></trkpt><trkpt lat="43.6623067" lon="12.504505"><ele>328.66666666666663</ele><time>2026-04-25T08:54:02.543Z</time></trkpt><trkpt lat="43.6621867" lon="12.504325"><ele>334.0</ele><time>2026-04-25T08:54:03.543Z</time></trkpt><trkpt lat="43.6620633" lon="12.5041483"><ele>334.0</ele><time>2026-04-25T08:54:04.543Z</time></trkpt><trkpt lat="43.661955" lon="12.503975"><ele>334.0</ele><time>2026-04-25T08:54:05.543Z</time></trkpt><trkpt lat="43.6618567" lon="12.5038217"><ele>334.0</ele><time>2026-04-25T08:54:06.542Z</time></trkpt><trkpt lat="43.6617617" lon="12.5036767"><ele>333.25</ele><time>2026-04-25T08:54:07.543Z</time></trkpt><trkpt lat="43.6616633" lon="12.50352"><ele>332.5</ele><time>2026-04-25T08:54:08.542Z</time></trkpt><trkpt lat="43.6615683" lon="12.5033683"><ele>331.75</ele><time>2026-04-25T08:54:09.543Z</time></trkpt><trkpt lat="43.66147" lon="12.50323"><ele>331.0</ele><time>2026-04-25T08:54:10.542Z</time></trkpt><trkpt lat="43.6613567" lon="12.5030933"><ele>331.0</ele><time>2026-04-25T08:54:11.543Z</time></trkpt><trkpt lat="43.66126" lon="12.5029633"><ele>331.0</ele><time>2026-04-25T08:54:12.542Z</time></trkpt><trkpt lat="43.6611517" lon="12.5028333"><ele>331.0</ele><time>2026-04-25T08:54:13.543Z</time></trkpt><trkpt lat="43.6610483" lon="12.5027033"><ele>331.0</ele><time>2026-04-25T08:54:14.543Z</time></trkpt><trkpt lat="43.6609583" lon="12.502565"><ele>333.5</ele><time>2026-04-25T08:54:15.542Z</time></trkpt><trkpt lat="43.660875" lon="12.5024267"><ele>336.0</ele><time>2026-04-25T08:54:16.543Z</time></trkpt><trkpt lat="43.660795" lon="12.502275"><ele>338.5</ele><time>2026-04-25T08:54:17.542Z</time></trkpt><trkpt lat="43.6607267" lon="12.502105"><ele>341.0</ele><time>2026-04-25T08:54:18.542Z</time></trkpt><trkpt lat="43.6606633" lon="12.5019183"><ele>342.6666666666667</ele><time>2026-04-25T08:54:19.542Z</time></trkpt><trkpt lat="43.66061" lon="12.5017067"><ele>344.3333333333333</ele><time>2026-04-25T08:54:20.543Z</time></trkpt><trkpt lat="43.6605533" lon="12.5014883"><ele>346.0</ele><time>2026-04-25T08:54:21.543Z</time></trkpt><trkpt lat="43.6604833" lon="12.5012783"><ele>351.3333333333333</ele><time>2026-04-25T08:54:22.543Z</time></trkpt><trkpt lat="43.660415" lon="12.50106"><ele>356.6666666666667</ele><time>2026-04-25T08:54:23.542Z</time></trkpt><trkpt lat="43.6603517" lon="12.5008167"><ele>362.0</ele><time>2026-04-25T08:54:24.543Z</time></trkpt><trkpt lat="43.6602917" lon="12.5005667"><ele>364.33333333333337</ele><time>2026-04-25T08:54:25.542Z</time></trkpt><trkpt lat="43.660235" lon="12.5003333"><ele>366.6666666666667</ele><time>2026-04-25T08:54:26.543Z</time></trkpt><trkpt lat="43.6601983" lon="12.5000833"><ele>369.0</ele><time>2026-04-25T08:54:27.542Z</time></trkpt><trkpt lat="43.6601467" lon="12.4998567"><ele>369.0</ele><time>2026-04-25T08:54:28.543Z</time></trkpt><trkpt lat="43.660105" lon="12.49962"><ele>369.0</ele><time>2026-04-25T08:54:29.543Z</time></trkpt><trkpt lat="43.6600517" lon="12.4993967"><ele>369.0</ele><time>2026-04-25T08:54:30.542Z</time></trkpt><trkpt lat="43.65999" lon="12.4991817"><ele>371.25</ele><time>2026-04-25T08:54:31.543Z</time></trkpt><trkpt lat="43.65994" lon="12.4989767"><ele>373.5</ele><time>2026-04-25T08:54:32.543Z</time></trkpt><trkpt lat="43.6599" lon="12.4987983"><ele>375.75</ele><time>2026-04-25T08:54:33.542Z</time></trkpt><trkpt lat="43.6598667" lon="12.4986483"><ele>378.0</ele><time>2026-04-25T08:54:34.543Z</time></trkpt><trkpt lat="43.6598417" lon="12.498535"><ele>378.0</ele><time>2026-04-25T08:54:35.543Z</time></trkpt><trkpt lat="43.659805" lon="12.4984517"><ele>378.0</ele><time>2026-04-25T08:54:36.543Z</time></trkpt><trkpt lat="43.6597517" lon="12.4983617"><ele>378.0</ele><time>2026-04-25T08:54:37.542Z</time></trkpt><trkpt lat="43.6596833" lon="12.4982517"><ele>378.0</ele><time>2026-04-25T08:54:38.543Z</time></trkpt><trkpt lat="43.6595917" lon="12.49814"><ele>378.0</ele><time>2026-04-25T08:54:39.542Z</time></trkpt><trkpt lat="43.659515" lon="12.49802"><ele>379.25</ele><time>2026-04-25T08:54:40.542Z</time></trkpt><trkpt lat="43.6594367" lon="12.497895"><ele>380.5</ele><time>2026-04-25T08:54:41.543Z</time></trkpt><trkpt lat="43.6593533" lon="12.4977583"><ele>381.75</ele><time>2026-04-25T08:54:42.543Z</time></trkpt><trkpt lat="43.6592667" lon="12.4976233"><ele>383.0</ele><time>2026-04-25T08:54:43.543Z</time></trkpt><trkpt lat="43.659195" lon="12.4975217"><ele>383.0</ele><time>2026-04-25T08:54:44.542Z</time></trkpt><trkpt lat="43.6591133" lon="12.4974433"><ele>383.0</ele><time>2026-04-25T08:54:45.543Z</time></trkpt><trkpt lat="43.6590383" lon="12.4973583"><ele>383.0</ele><time>2026-04-25T08:54:46.542Z</time></trkpt><trkpt lat="43.6589483" lon="12.497285"><ele>383.0</ele><time>2026-04-25T08:54:47.543Z</time></trkpt><trkpt lat="43.65884" lon="12.4972267"><ele>383.0</ele><time>2026-04-25T08:54:48.542Z</time></trkpt><trkpt lat="43.6587167" lon="12.4971717"><ele>382.5</ele><time>2026-04-25T08:54:49.543Z</time></trkpt><trkpt lat="43.6585883" lon="12.49711"><ele>382.0</ele><time>2026-04-25T08:54:50.543Z</time></trkpt><trkpt lat="43.658455" lon="12.4970417"><ele>381.5</ele><time>2026-04-25T08:54:51.542Z</time></trkpt><trkpt lat="43.6583183" lon="12.4969667"><ele>381.0</ele><time>2026-04-25T08:54:52.543Z</time></trkpt><trkpt lat="43.658185" lon="12.4968917"><ele>380.75</ele><time>2026-04-25T08:54:53.543Z</time></trkpt><trkpt lat="43.658055" lon="12.4968267"><ele>380.5</ele><time>2026-04-25T08:54:54.542Z</time></trkpt><trkpt lat="43.6579317" lon="12.49676"><ele>380.25</ele><time>2026-04-25T08:54:55.542Z</time></trkpt><trkpt lat="43.6578" lon="12.4966717"><ele>380.0</ele><time>2026-04-25T08:54:56.543Z</time></trkpt><trkpt lat="43.6576767" lon="12.4965933"><ele>380.0</ele><time>2026-04-25T08:54:57.543Z</time></trkpt><trkpt lat="43.6575567" lon="12.4965033"><ele>380.0</ele><time>2026-04-25T08:54:58.542Z</time></trkpt><trkpt lat="43.65743" lon="12.496405"><ele>380.0</ele><time>2026-04-25T08:54:59.542Z</time></trkpt><trkpt lat="43.657305" lon="12.4963033"><ele>380.0</ele><time>2026-04-25T08:55:00.543Z</time></trkpt><trkpt lat="43.6571767" lon="12.4961917"><ele>379.0</ele><time>2026-04-25T08:55:01.542Z</time></trkpt><trkpt lat="43.6570483" lon="12.4961017"><ele>378.0</ele><time>2026-04-25T08:55:02.542Z</time></trkpt><trkpt lat="43.6569233" lon="12.4960267"><ele>377.0</ele><time>2026-04-25T08:55:03.542Z</time></trkpt><trkpt lat="43.6568267" lon="12.49598"><ele>376.0</ele><time>2026-04-25T08:55:04.543Z</time></trkpt><trkpt lat="43.65673" lon="12.4959467"><ele>379.16666666666663</ele><time>2026-04-25T08:55:05.542Z</time></trkpt><trkpt lat="43.6566517" lon="12.49593"><ele>382.3333333333333</ele><time>2026-04-25T08:55:06.543Z</time></trkpt><trkpt lat="43.656575" lon="12.495935"><ele>385.5</ele><time>2026-04-25T08:55:07.543Z</time></trkpt><trkpt lat="43.6564933" lon="12.4959483"><ele>388.66666666666663</ele><time>2026-04-25T08:55:08.543Z</time></trkpt><trkpt lat="43.65641" lon="12.4959567"><ele>391.8333333333333</ele><time>2026-04-25T08:55:09.542Z</time></trkpt><trkpt lat="43.6563217" lon="12.49596"><ele>395.0</ele><time>2026-04-25T08:55:10.542Z</time></trkpt><trkpt lat="43.656235" lon="12.4959467"><ele>395.0</ele><time>2026-04-25T08:55:11.543Z</time></trkpt><trkpt lat="43.65614" lon="12.4959267"><ele>395.0</ele><time>2026-04-25T08:55:12.543Z</time></trkpt><trkpt lat="43.656035" lon="12.4958983"><ele>395.0</ele><time>2026-04-25T08:55:13.542Z</time></trkpt><trkpt lat="43.6559233" lon="12.4958683"><ele>395.0</ele><time>2026-04-25T08:55:14.543Z</time></trkpt><trkpt lat="43.65581" lon="12.4958417"><ele>395.0</ele><time>2026-04-25T08:55:15.542Z</time></trkpt><trkpt lat="43.65571" lon="12.4958033"><ele>397.0</ele><time>2026-04-25T08:55:16.543Z</time></trkpt><trkpt lat="43.6555967" lon="12.495775"><ele>399.0</ele><time>2026-04-25T08:55:17.543Z</time></trkpt><trkpt lat="43.6554917" lon="12.4957483"><ele>401.0</ele><time>2026-04-25T08:55:18.543Z</time></trkpt><trkpt lat="43.6553933" lon="12.49571"><ele>403.0</ele><time>2026-04-25T08:55:19.542Z</time></trkpt><trkpt lat="43.6552917" lon="12.4957017"><ele>405.0</ele><time>2026-04-25T08:55:20.543Z</time></trkpt><trkpt lat="43.6551917" lon="12.4956833"><ele>407.4</ele><time>2026-04-25T08:55:21.543Z</time></trkpt><trkpt lat="43.6550783" lon="12.495675"><ele>409.8</ele><time>2026-04-25T08:55:22.542Z</time></trkpt><trkpt lat="43.6549767" lon="12.4956633"><ele>412.20000000000005</ele><time>2026-04-25T08:55:23.542Z</time></trkpt><trkpt lat="43.6548817" lon="12.49565"><ele>414.6</ele><time>2026-04-25T08:55:24.543Z</time></trkpt><trkpt lat="43.6547783" lon="12.4956383"><ele>417.0</ele><time>2026-04-25T08:55:25.543Z</time></trkpt><trkpt lat="43.654675" lon="12.495625"><ele>417.0</ele><time>2026-04-25T08:55:26.543Z</time></trkpt><trkpt lat="43.6545883" lon="12.4956017"><ele>417.0</ele><time>2026-04-25T08:55:27.543Z</time></trkpt><trkpt lat="43.6545083" lon="12.4955517"><ele>417.0</ele><time>2026-04-25T08:55:28.543Z</time></trkpt><trkpt lat="43.6544383" lon="12.4954833"><ele>417.0</ele><time>2026-04-25T08:55:29.543Z</time></trkpt><trkpt lat="43.6543617" lon="12.4954317"><ele>417.0</ele><time>2026-04-25T08:55:30.543Z</time></trkpt><trkpt lat="43.6542983" lon="12.4953917"><ele>417.0</ele><time>2026-04-25T08:55:31.543Z</time></trkpt><trkpt lat="43.6542083" lon="12.495365"><ele>420.1666666666667</ele><time>2026-04-25T08:55:33.543Z</time></trkpt><trkpt lat="43.6541317" lon="12.495385"><ele>423.33333333333337</ele><time>2026-04-25T08:55:34.542Z</time></trkpt><trkpt lat="43.6540517" lon="12.4954083"><ele>426.5</ele><time>2026-04-25T08:55:35.543Z</time></trkpt><trkpt lat="43.6539733" lon="12.4954317"><ele>429.6666666666667</ele><time>2026-04-25T08:55:36.543Z</time></trkpt><trkpt lat="43.6538833" lon="12.49545"><ele>432.83333333333337</ele><time>2026-04-25T08:55:37.542Z</time></trkpt><trkpt lat="43.653795" lon="12.4954567"><ele>436.0</ele><time>2026-04-25T08:55:38.543Z</time></trkpt><trkpt lat="43.6537083" lon="12.4954583"><ele>441.33333333333337</ele><time>2026-04-25T08:55:39.542Z</time></trkpt><trkpt lat="43.6536217" lon="12.4954667"><ele>446.6666666666667</ele><time>2026-04-25T08:55:40.543Z</time></trkpt><trkpt lat="43.65355" lon="12.49547"><ele>452.0</ele><time>2026-04-25T08:55:41.543Z</time></trkpt><trkpt lat="43.6534717" lon="12.4954767"><ele>457.33333333333337</ele><time>2026-04-25T08:55:42.543Z</time></trkpt><trkpt lat="43.653385" lon="12.49548"><ele>462.6666666666667</ele><time>2026-04-25T08:55:44.543Z</time></trkpt><trkpt lat="43.6532989" lon="12.4954986"><ele>468.0</ele><time>2026-04-25T08:55:47.542Z</time></trkpt><trkpt lat="43.653295" lon="12.4953833"><ele>468.4</ele><time>2026-04-25T08:55:52.542Z</time></trkpt><trkpt lat="43.653325" lon="12.4952733"><ele>468.79999999999995</ele><time>2026-04-25T08:55:54.542Z</time></trkpt><trkpt lat="43.65334" lon="12.495135"><ele>469.2</ele><time>2026-04-25T08:55:56.543Z</time></trkpt><trkpt lat="43.653315" lon="12.49499"><ele>469.6</ele><time>2026-04-25T08:55:58.543Z</time></trkpt><trkpt lat="43.6533083" lon="12.4948633"><ele>470.0</ele><time>2026-04-25T08:56:00.543Z</time></trkpt><trkpt lat="43.6532717" lon="12.49474"><ele>469.99999999999994</ele><time>2026-04-25T08:56:02.542Z</time></trkpt><trkpt lat="43.653215" lon="12.49465"><ele>470.0</ele><time>2026-04-25T08:56:04.543Z</time></trkpt><trkpt lat="43.6531217" lon="12.4945883"><ele>470.0</ele><time>2026-04-25T08:56:06.543Z</time></trkpt><trkpt lat="43.653005" lon="12.4945617"><ele>470.0</ele><time>2026-04-25T08:56:08.543Z</time></trkpt><trkpt lat="43.6529417" lon="12.494555"><ele>469.99999999999994</ele><time>2026-04-25T08:56:09.543Z</time></trkpt><trkpt lat="43.6528717" lon="12.494545"><ele>470.0</ele><time>2026-04-25T08:56:10.543Z</time></trkpt><trkpt lat="43.6528067" lon="12.4945333"><ele>472.2</ele><time>2026-04-25T08:56:11.543Z</time></trkpt><trkpt lat="43.6527383" lon="12.4945117"><ele>474.4</ele><time>2026-04-25T08:56:12.543Z</time></trkpt><trkpt lat="43.6526333" lon="12.49447"><ele>476.6</ele><time>2026-04-25T08:56:14.542Z</time></trkpt><trkpt lat="43.6525183" lon="12.4944633"><ele>478.8</ele><time>2026-04-25T08:56:16.542Z</time></trkpt><trkpt lat="43.6524233" lon="12.4944733"><ele>481.0</ele><time>2026-04-25T08:56:18.543Z</time></trkpt><trkpt lat="43.652335" lon="12.494425"><ele>481.00000000000006</ele><time>2026-04-25T08:56:21.543Z</time></trkpt><trkpt lat="43.6523017" lon="12.4943233"><ele>481.0</ele><time>2026-04-25T08:56:23.542Z</time></trkpt><trkpt lat="43.6522683" lon="12.4942217"><ele>481.0</ele><time>2026-04-25T08:56:25.543Z</time></trkpt><trkpt lat="43.652255" lon="12.4941167"><ele>481.0</ele><time>2026-04-25T08:56:28.543Z</time></trkpt><trkpt lat="43.6522367" lon="12.4940083"><ele>481.00000000000006</ele><time>2026-04-25T09:00:41.542Z</time></trkpt><trkpt lat="43.6522333" lon="12.4938617"><ele>481.0</ele><time>2026-04-25T09:00:43.542Z</time></trkpt><trkpt lat="43.65225" lon="12.4937067"><ele>480.0</ele><time>2026-04-25T09:00:45.541Z</time></trkpt><trkpt lat="43.6522567" lon="12.493545"><ele>479.0</ele><time>2026-04-25T09:00:47.541Z</time></trkpt><trkpt lat="43.65225" lon="12.4933917"><ele>478.0</ele><time>2026-04-25T09:00:49.542Z</time></trkpt><trkpt lat="43.6522283" lon="12.4932367"><ele>477.0</ele><time>2026-04-25T09:00:51.541Z</time></trkpt><trkpt lat="43.6522317" lon="12.49314"><ele>476.0</ele><time>2026-04-25T09:00:52.541Z</time></trkpt><trkpt lat="43.652215" lon="12.4929817"><ele>477.0</ele><time>2026-04-25T09:00:54.542Z</time></trkpt><trkpt lat="43.6521983" lon="12.4928617"><ele>478.0</ele><time>2026-04-25T09:00:56.542Z</time></trkpt><trkpt lat="43.6522617" lon="12.492765"><ele>479.0</ele><time>2026-04-25T09:00:59.542Z</time></trkpt><trkpt lat="43.652335" lon="12.4927033"><ele>480.0</ele><time>2026-04-25T09:01:01.542Z</time></trkpt><trkpt lat="43.6524283" lon="12.492635"><ele>481.0</ele><time>2026-04-25T09:01:03.541Z</time></trkpt><trkpt lat="43.65253" lon="12.4925933"><ele>481.0</ele><time>2026-04-25T09:01:05.542Z</time></trkpt><trkpt lat="43.6526283" lon="12.492565"><ele>481.0</ele><time>2026-04-25T09:01:07.542Z</time></trkpt><trkpt lat="43.65273" lon="12.4925117"><ele>481.0</ele><time>2026-04-25T09:01:09.541Z</time></trkpt><trkpt lat="43.6528317" lon="12.4924267"><ele>481.0</ele><time>2026-04-25T09:01:11.542Z</time></trkpt><trkpt lat="43.6528817" lon="12.4923617"><ele>481.0</ele><time>2026-04-25T09:01:12.542Z</time></trkpt><trkpt lat="43.65294" lon="12.4922833"><ele>479.1666666666667</ele><time>2026-04-25T09:01:13.542Z</time></trkpt><trkpt lat="43.6529933" lon="12.49221"><ele>477.33333333333337</ele><time>2026-04-25T09:01:14.541Z</time></trkpt><trkpt lat="43.65304" lon="12.49214"><ele>475.5</ele><time>2026-04-25T09:01:15.541Z</time></trkpt><trkpt lat="43.653095" lon="12.4920767"><ele>473.66666666666663</ele><time>2026-04-25T09:01:16.542Z</time></trkpt><trkpt lat="43.65315" lon="12.4920167"><ele>471.8333333333333</ele><time>2026-04-25T09:01:17.542Z</time></trkpt><trkpt lat="43.6532067" lon="12.4919567"><ele>470.0</ele><time>2026-04-25T09:01:18.542Z</time></trkpt><trkpt lat="43.6533067" lon="12.4918483"><ele>469.99999999999994</ele><time>2026-04-25T09:01:20.541Z</time></trkpt><trkpt lat="43.6533583" lon="12.49179"><ele>470.0</ele><time>2026-04-25T09:01:21.542Z</time></trkpt><trkpt lat="43.653445" lon="12.4916967"><ele>470.0</ele><time>2026-04-25T09:01:23.541Z</time></trkpt><trkpt lat="43.6535133" lon="12.4916117"><ele>470.0</ele><time>2026-04-25T09:01:25.542Z</time></trkpt><trkpt lat="43.6535483" lon="12.4915083"><ele>469.99999999999994</ele><time>2026-04-25T09:01:27.542Z</time></trkpt><trkpt lat="43.6535483" lon="12.491405"><ele>470.0</ele><time>2026-04-25T09:01:29.542Z</time></trkpt><trkpt lat="43.65354" lon="12.4912583"><ele>471.6</ele><time>2026-04-25T09:01:39.542Z</time></trkpt><trkpt lat="43.6535433" lon="12.4911683"><ele>473.2</ele><time>2026-04-25T09:01:41.542Z</time></trkpt><trkpt lat="43.6536083" lon="12.491005"><ele>474.79999999999995</ele><time>2026-04-25T09:02:08.541Z</time></trkpt><trkpt lat="43.653665" lon="12.4909217"><ele>476.4</ele><time>2026-04-25T09:02:10.541Z</time></trkpt><trkpt lat="43.6537283" lon="12.4908083"><ele>478.0</ele><time>2026-04-25T09:02:12.541Z</time></trkpt><trkpt lat="43.6538133" lon="12.4906767"><ele>474.4</ele><time>2026-04-25T09:02:14.542Z</time></trkpt><trkpt lat="43.6538783" lon="12.4905917"><ele>470.79999999999995</ele><time>2026-04-25T09:02:16.542Z</time></trkpt><trkpt lat="43.6539533" lon="12.4905267"><ele>467.2</ele><time>2026-04-25T09:02:19.542Z</time></trkpt><trkpt lat="43.6538917" lon="12.49056"><ele>463.6</ele><time>2026-04-25T09:02:45.542Z</time></trkpt><trkpt lat="43.6537967" lon="12.4906917"><ele>460.0</ele><time>2026-04-25T09:02:47.541Z</time></trkpt><trkpt lat="43.6537533" lon="12.490775"><ele>460.00000000000006</ele><time>2026-04-25T09:02:48.542Z</time></trkpt><trkpt lat="43.6536933" lon="12.4908667"><ele>460.0</ele><time>2026-04-25T09:02:49.542Z</time></trkpt><trkpt lat="43.653645" lon="12.4909533"><ele>460.0</ele><time>2026-04-25T09:02:50.542Z</time></trkpt><trkpt lat="43.653605" lon="12.4910317"><ele>460.0</ele><time>2026-04-25T09:02:51.541Z</time></trkpt><trkpt lat="43.653555" lon="12.4911133"><ele>460.00000000000006</ele><time>2026-04-25T09:02:52.542Z</time></trkpt><trkpt lat="43.6535017" lon="12.4912183"><ele>460.0</ele><time>2026-04-25T09:02:54.542Z</time></trkpt><trkpt lat="43.6535401" lon="12.491299"><ele>460.0</ele><time>2026-04-25T09:02:57.542Z</time></trkpt><trkpt lat="43.653652" lon="12.4911228"><ele>460.0</ele><time>2026-04-25T09:03:13.542Z</time></trkpt><trkpt lat="43.6537369" lon="12.4910036"><ele>460.0</ele><time>2026-04-25T09:03:14.542Z</time></trkpt><trkpt lat="43.6538101" lon="12.4909125"><ele>460.0</ele><time>2026-04-25T09:03:15.541Z</time></trkpt><trkpt lat="43.6538766" lon="12.4908398"><ele>460.00000000000006</ele><time>2026-04-25T09:03:16.542Z</time></trkpt><trkpt lat="43.6539419" lon="12.4907809"><ele>460.0</ele><time>2026-04-25T09:03:17.541Z</time></trkpt><trkpt lat="43.6540074" lon="12.4907322"><ele>460.0</ele><time>2026-04-25T09:03:18.542Z</time></trkpt><trkpt lat="43.6540697" lon="12.4906785"><ele>460.0</ele><time>2026-04-25T09:03:19.542Z</time></trkpt><trkpt lat="43.6541361" lon="12.4906162"><ele>460.00000000000006</ele><time>2026-04-25T09:03:20.541Z</time></trkpt><trkpt lat="43.6542122" lon="12.4905581"><ele>460.0</ele><time>2026-04-25T09:03:21.541Z</time></trkpt><trkpt lat="43.6542969" lon="12.4904938"><ele>460.0</ele><time>2026-04-25T09:03:22.541Z</time></trkpt><trkpt lat="43.6543819" lon="12.4904263"><ele>460.0</ele><time>2026-04-25T09:03:23.542Z</time></trkpt><trkpt lat="43.6544603" lon="12.4903528"><ele>460.0</ele><time>2026-04-25T09:03:24.542Z</time></trkpt><trkpt lat="43.6545229" lon="12.4902836"><ele>460.0</ele><time>2026-04-25T09:03:25.542Z</time></trkpt><trkpt lat="43.6545787" lon="12.4901274"><ele>460.0</ele><time>2026-04-25T09:03:27.541Z</time></trkpt><trkpt lat="43.6545991" lon="12.4900029"><ele>458.2</ele><time>2026-04-25T09:03:28.542Z</time></trkpt><trkpt lat="43.6546203" lon="12.4898634"><ele>456.4</ele><time>2026-04-25T09:03:29.542Z</time></trkpt><trkpt lat="43.6546291" lon="12.4897264"><ele>454.6</ele><time>2026-04-25T09:03:30.541Z</time></trkpt><trkpt lat="43.6546371" lon="12.4895911"><ele>452.8</ele><time>2026-04-25T09:03:31.541Z</time></trkpt><trkpt lat="43.6546451" lon="12.4894681"><ele>451.0</ele><time>2026-04-25T09:03:32.541Z</time></trkpt><trkpt lat="43.6546495" lon="12.4893664"><ele>451.00000000000006</ele><time>2026-04-25T09:03:33.542Z</time></trkpt><trkpt lat="43.6546643" lon="12.4892723"><ele>451.0</ele><time>2026-04-25T09:03:34.542Z</time></trkpt><trkpt lat="43.6546218" lon="12.4892016"><ele>451.0</ele><time>2026-04-25T09:03:36.542Z</time></trkpt><trkpt lat="43.6545371" lon="12.4891569"><ele>451.0</ele><time>2026-04-25T09:03:38.541Z</time></trkpt><trkpt lat="43.6544597" lon="12.4890604"><ele>451.00000000000006</ele><time>2026-04-25T09:03:40.541Z</time></trkpt><trkpt lat="43.6544022" lon="12.4890096"><ele>451.0</ele><time>2026-04-25T09:03:41.542Z</time></trkpt><trkpt lat="43.6543228" lon="12.488957"><ele>449.6</ele><time>2026-04-25T09:03:42.541Z</time></trkpt><trkpt lat="43.6542304" lon="12.4889055"><ele>448.20000000000005</ele><time>2026-04-25T09:03:43.542Z</time></trkpt><trkpt lat="43.6541326" lon="12.4888518"><ele>446.79999999999995</ele><time>2026-04-25T09:03:44.541Z</time></trkpt><trkpt lat="43.6540368" lon="12.4887957"><ele>445.4</ele><time>2026-04-25T09:03:45.542Z</time></trkpt><trkpt lat="43.6539423" lon="12.4887409"><ele>444.0</ele><time>2026-04-25T09:03:46.542Z</time></trkpt><trkpt lat="43.6538497" lon="12.4886858"><ele>444.0</ele><time>2026-04-25T09:03:47.542Z</time></trkpt><trkpt lat="43.6537618" lon="12.4886259"><ele>444.0</ele><time>2026-04-25T09:03:48.541Z</time></trkpt><trkpt lat="43.6536761" lon="12.4885634"><ele>444.0</ele><time>2026-04-25T09:03:49.542Z</time></trkpt><trkpt lat="43.6535908" lon="12.4884998"><ele>444.0</ele><time>2026-04-25T09:03:50.542Z</time></trkpt><trkpt lat="43.6535151" lon="12.488433"><ele>444.0</ele><time>2026-04-25T09:03:51.541Z</time></trkpt><trkpt lat="43.6534405" lon="12.4883512"><ele>443.2</ele><time>2026-04-25T09:03:52.542Z</time></trkpt><trkpt lat="43.6533788" lon="12.4882522"><ele>442.4</ele><time>2026-04-25T09:03:53.541Z</time></trkpt><trkpt lat="43.6533276" lon="12.4881397"><ele>441.6</ele><time>2026-04-25T09:03:54.541Z</time></trkpt><trkpt lat="43.6532937" lon="12.4880157"><ele>440.8</ele><time>2026-04-25T09:03:55.542Z</time></trkpt><trkpt lat="43.6532813" lon="12.4878784"><ele>440.0</ele><time>2026-04-25T09:03:56.541Z</time></trkpt><trkpt lat="43.6532961" lon="12.4877178"><ele>440.0</ele><time>2026-04-25T09:03:57.541Z</time></trkpt><trkpt lat="43.6533216" lon="12.4875543"><ele>440.0</ele><time>2026-04-25T09:03:58.541Z</time></trkpt><trkpt lat="43.6533347" lon="12.4873913"><ele>440.0</ele><time>2026-04-25T09:03:59.542Z</time></trkpt><trkpt lat="43.6533433" lon="12.48723"><ele>440.0</ele><time>2026-04-25T09:04:00.541Z</time></trkpt><trkpt lat="43.65333" lon="12.487085"><ele>437.8</ele><time>2026-04-25T09:04:01.542Z</time></trkpt><trkpt lat="43.653315" lon="12.4869367"><ele>435.6</ele><time>2026-04-25T09:04:02.542Z</time></trkpt><trkpt lat="43.6532917" lon="12.4868033"><ele>433.4</ele><time>2026-04-25T09:04:03.542Z</time></trkpt><trkpt lat="43.6532633" lon="12.4866817"><ele>431.2</ele><time>2026-04-25T09:04:04.541Z</time></trkpt><trkpt lat="43.65324" lon="12.4865767"><ele>429.0</ele><time>2026-04-25T09:04:05.542Z</time></trkpt><trkpt lat="43.653165" lon="12.4864467"><ele>429.0</ele><time>2026-04-25T09:04:07.542Z</time></trkpt><trkpt lat="43.653105" lon="12.4864083"><ele>429.0</ele><time>2026-04-25T09:04:08.542Z</time></trkpt><trkpt lat="43.6529817" lon="12.4864283"><ele>429.0</ele><time>2026-04-25T09:04:10.542Z</time></trkpt><trkpt lat="43.6529267" lon="12.48651"><ele>429.0</ele><time>2026-04-25T09:04:11.542Z</time></trkpt><trkpt lat="43.65288" lon="12.48662"><ele>429.0</ele><time>2026-04-25T09:04:12.542Z</time></trkpt><trkpt lat="43.652835" lon="12.4867333"><ele>429.0</ele><time>2026-04-25T09:04:13.541Z</time></trkpt><trkpt lat="43.6528017" lon="12.4868283"><ele>429.0</ele><time>2026-04-25T09:04:14.541Z</time></trkpt><trkpt lat="43.6527483" lon="12.4869"><ele>429.0</ele><time>2026-04-25T09:04:15.542Z</time></trkpt><trkpt lat="43.6526033" lon="12.48698"><ele>429.0</ele><time>2026-04-25T09:04:17.542Z</time></trkpt><trkpt lat="43.6525067" lon="12.4869783"><ele>429.0</ele><time>2026-04-25T09:04:18.542Z</time></trkpt><trkpt lat="43.6524133" lon="12.4869417"><ele>428.25</ele><time>2026-04-25T09:04:19.542Z</time></trkpt><trkpt lat="43.65231" lon="12.4868767"><ele>427.5</ele><time>2026-04-25T09:04:20.542Z</time></trkpt><trkpt lat="43.6522017" lon="12.4868117"><ele>426.75</ele><time>2026-04-25T09:04:21.542Z</time></trkpt><trkpt lat="43.65209" lon="12.4867517"><ele>426.0</ele><time>2026-04-25T09:04:22.542Z</time></trkpt><trkpt lat="43.6519917" lon="12.486695"><ele>426.0</ele><time>2026-04-25T09:04:23.541Z</time></trkpt><trkpt lat="43.6519083" lon="12.4866467"><ele>426.0</ele><time>2026-04-25T09:04:24.541Z</time></trkpt><trkpt lat="43.6518367" lon="12.4865883"><ele>426.0</ele><time>2026-04-25T09:04:25.542Z</time></trkpt><trkpt lat="43.65178" lon="12.4864833"><ele>426.0</ele><time>2026-04-25T09:04:27.542Z</time></trkpt><trkpt lat="43.6518" lon="12.4863667"><ele>426.0</ele><time>2026-04-25T09:04:29.542Z</time></trkpt><trkpt lat="43.6519" lon="12.4863"><ele>426.0</ele><time>2026-04-25T09:04:31.542Z</time></trkpt><trkpt lat="43.65199" lon="12.4862783"><ele>426.0</ele><time>2026-04-25T09:04:32.542Z</time></trkpt><trkpt lat="43.6520833" lon="12.4862533"><ele>426.0</ele><time>2026-04-25T09:04:33.542Z</time></trkpt><trkpt lat="43.6521783" lon="12.48621"><ele>426.0</ele><time>2026-04-25T09:04:34.542Z</time></trkpt><trkpt lat="43.6522783" lon="12.48616"><ele>426.0</ele><time>2026-04-25T09:04:35.541Z</time></trkpt><trkpt lat="43.6523733" lon="12.4860883"><ele>424.20000000000005</ele><time>2026-04-25T09:04:36.542Z</time></trkpt><trkpt lat="43.6524533" lon="12.4860133"><ele>422.40000000000003</ele><time>2026-04-25T09:04:37.541Z</time></trkpt><trkpt lat="43.65253" lon="12.48593"><ele>420.6</ele><time>2026-04-25T09:04:38.542Z</time></trkpt><trkpt lat="43.652595" lon="12.485835"><ele>418.8</ele><time>2026-04-25T09:04:39.541Z</time></trkpt><trkpt lat="43.652655" lon="12.4857217"><ele>417.0</ele><time>2026-04-25T09:04:40.541Z</time></trkpt><trkpt lat="43.6527083" lon="12.4856083"><ele>417.0</ele><time>2026-04-25T09:04:41.541Z</time></trkpt><trkpt lat="43.65275" lon="12.4854933"><ele>417.0</ele><time>2026-04-25T09:04:42.542Z</time></trkpt><trkpt lat="43.6528033" lon="12.48538"><ele>417.0</ele><time>2026-04-25T09:04:43.542Z</time></trkpt><trkpt lat="43.6528683" lon="12.4852717"><ele>417.0</ele><time>2026-04-25T09:04:44.541Z</time></trkpt><trkpt lat="43.65294" lon="12.4851717"><ele>417.0</ele><time>2026-04-25T09:04:45.542Z</time></trkpt><trkpt lat="43.6530167" lon="12.485085"><ele>414.0</ele><time>2026-04-25T09:04:46.541Z</time></trkpt><trkpt lat="43.653095" lon="12.4850167"><ele>411.0</ele><time>2026-04-25T09:04:47.542Z</time></trkpt><trkpt lat="43.65317" lon="12.4849567"><ele>408.0</ele><time>2026-04-25T09:04:48.541Z</time></trkpt><trkpt lat="43.6532383" lon="12.4849"><ele>405.0</ele><time>2026-04-25T09:04:49.542Z</time></trkpt><trkpt lat="43.65329" lon="12.4848233"><ele>402.0</ele><time>2026-04-25T09:04:50.542Z</time></trkpt><trkpt lat="43.6533317" lon="12.4847367"><ele>399.0</ele><time>2026-04-25T09:04:51.541Z</time></trkpt><trkpt lat="43.6533733" lon="12.484665"><ele>397.1666666666667</ele><time>2026-04-25T09:04:52.542Z</time></trkpt><trkpt lat="43.653405" lon="12.4845783"><ele>395.33333333333337</ele><time>2026-04-25T09:04:53.542Z</time></trkpt><trkpt lat="43.6534583" lon="12.4845017"><ele>393.5</ele><time>2026-04-25T09:04:54.541Z</time></trkpt><trkpt lat="43.6535317" lon="12.484445"><ele>391.6666666666667</ele><time>2026-04-25T09:04:55.542Z</time></trkpt><trkpt lat="43.653585" lon="12.4843667"><ele>389.83333333333337</ele><time>2026-04-25T09:04:56.541Z</time></trkpt><trkpt lat="43.6536317" lon="12.4842833"><ele>388.0</ele><time>2026-04-25T09:04:57.542Z</time></trkpt><trkpt lat="43.65367" lon="12.4842"><ele>387.6666666666667</ele><time>2026-04-25T09:04:58.542Z</time></trkpt><trkpt lat="43.6537017" lon="12.4841133"><ele>387.33333333333337</ele><time>2026-04-25T09:04:59.542Z</time></trkpt><trkpt lat="43.653735" lon="12.4840167"><ele>387.0</ele><time>2026-04-25T09:05:00.542Z</time></trkpt><trkpt lat="43.6537617" lon="12.4839033"><ele>386.66666666666663</ele><time>2026-04-25T09:05:01.541Z</time></trkpt><trkpt lat="43.6537683" lon="12.4838067"><ele>386.3333333333333</ele><time>2026-04-25T09:05:02.541Z</time></trkpt><trkpt lat="43.653775" lon="12.4837017"><ele>386.0</ele><time>2026-04-25T09:05:03.542Z</time></trkpt><trkpt lat="43.6538283" lon="12.483575"><ele>389.66666666666663</ele><time>2026-04-25T09:05:05.542Z</time></trkpt><trkpt lat="43.6539417" lon="12.48349"><ele>393.3333333333333</ele><time>2026-04-25T09:05:07.541Z</time></trkpt><trkpt lat="43.65401" lon="12.483485"><ele>397.0</ele><time>2026-04-25T09:05:08.542Z</time></trkpt><trkpt lat="43.654065" lon="12.483535"><ele>400.66666666666663</ele><time>2026-04-25T09:05:09.542Z</time></trkpt><trkpt lat="43.65415" lon="12.4835783"><ele>404.3333333333333</ele><time>2026-04-25T09:05:10.542Z</time></trkpt><trkpt lat="43.6542183" lon="12.4836117"><ele>408.0</ele><time>2026-04-25T09:05:11.542Z</time></trkpt><trkpt lat="43.6542817" lon="12.483625"><ele>408.0</ele><time>2026-04-25T09:05:13.542Z</time></trkpt><trkpt lat="43.6542283" lon="12.4835"><ele>408.0</ele><time>2026-04-25T09:05:17.542Z</time></trkpt><trkpt lat="43.654155" lon="12.4834567"><ele>408.0</ele><time>2026-04-25T09:05:18.541Z</time></trkpt><trkpt lat="43.6540617" lon="12.4834"><ele>408.0</ele><time>2026-04-25T09:05:19.542Z</time></trkpt><trkpt lat="43.6539683" lon="12.4833367"><ele>408.0</ele><time>2026-04-25T09:05:20.541Z</time></trkpt><trkpt lat="43.6538767" lon="12.4832667"><ele>408.0</ele><time>2026-04-25T09:05:21.542Z</time></trkpt><trkpt lat="43.6537967" lon="12.4832017"><ele>408.0</ele><time>2026-04-25T09:05:22.541Z</time></trkpt><trkpt lat="43.65373" lon="12.4831467"><ele>408.0</ele><time>2026-04-25T09:05:23.542Z</time></trkpt><trkpt lat="43.6536717" lon="12.4830983"><ele>408.0</ele><time>2026-04-25T09:05:24.541Z</time></trkpt><trkpt lat="43.653615" lon="12.4830517"><ele>408.0</ele><time>2026-04-25T09:05:25.542Z</time></trkpt><trkpt lat="43.65356" lon="12.483005"><ele>408.0</ele><time>2026-04-25T09:05:26.542Z</time></trkpt><trkpt lat="43.6535017" lon="12.4829683"><ele>408.0</ele><time>2026-04-25T09:05:27.542Z</time></trkpt><trkpt lat="43.6533667" lon="12.4828833"><ele>411.0</ele><time>2026-04-25T09:05:29.542Z</time></trkpt><trkpt lat="43.653255" lon="12.4828317"><ele>414.0</ele><time>2026-04-25T09:05:30.542Z</time></trkpt><trkpt lat="43.65314" lon="12.4827917"><ele>417.0</ele><time>2026-04-25T09:05:31.541Z</time></trkpt><trkpt lat="43.6530033" lon="12.48274"><ele>420.0</ele><time>2026-04-25T09:05:32.541Z</time></trkpt><trkpt lat="43.6528483" lon="12.4826983"><ele>417.66666666666663</ele><time>2026-04-25T09:05:33.542Z</time></trkpt><trkpt lat="43.6526717" lon="12.482665"><ele>415.3333333333333</ele><time>2026-04-25T09:05:34.541Z</time></trkpt><trkpt lat="43.6524883" lon="12.4826367"><ele>413.0</ele><time>2026-04-25T09:05:35.541Z</time></trkpt><trkpt lat="43.65232" lon="12.4825983"><ele>413.0</ele><time>2026-04-25T09:05:36.542Z</time></trkpt><trkpt lat="43.6521717" lon="12.482545"><ele>413.0</ele><time>2026-04-25T09:05:37.542Z</time></trkpt><trkpt lat="43.65203" lon="12.4824467"><ele>413.0</ele><time>2026-04-25T09:05:38.542Z</time></trkpt><trkpt lat="43.651885" lon="12.4823483"><ele>411.0</ele><time>2026-04-25T09:05:39.541Z</time></trkpt><trkpt lat="43.6517567" lon="12.48227"><ele>409.0</ele><time>2026-04-25T09:05:40.542Z</time></trkpt><trkpt lat="43.65164" lon="12.4822267"><ele>407.0</ele><time>2026-04-25T09:05:41.541Z</time></trkpt><trkpt lat="43.65152" lon="12.4822167"><ele>405.0</ele><time>2026-04-25T09:05:42.541Z</time></trkpt><trkpt lat="43.6513817" lon="12.4822517"><ele>405.0</ele><time>2026-04-25T09:05:43.541Z</time></trkpt><trkpt lat="43.651245" lon="12.482315"><ele>405.0</ele><time>2026-04-25T09:05:44.541Z</time></trkpt><trkpt lat="43.65108" lon="12.482405"><ele>405.0</ele><time>2026-04-25T09:05:45.542Z</time></trkpt><trkpt lat="43.6509133" lon="12.4824983"><ele>405.75</ele><time>2026-04-25T09:05:46.542Z</time></trkpt><trkpt lat="43.65077" lon="12.4825683"><ele>406.5</ele><time>2026-04-25T09:05:47.542Z</time></trkpt><trkpt lat="43.6506317" lon="12.4826217"><ele>407.25</ele><time>2026-04-25T09:05:48.541Z</time></trkpt><trkpt lat="43.65048" lon="12.4826567"><ele>408.0</ele><time>2026-04-25T09:05:49.542Z</time></trkpt><trkpt lat="43.6503283" lon="12.4826783"><ele>408.0</ele><time>2026-04-25T09:05:50.541Z</time></trkpt><trkpt lat="43.6501867" lon="12.48268"><ele>408.0</ele><time>2026-04-25T09:05:51.542Z</time></trkpt><trkpt lat="43.6500517" lon="12.48268"><ele>408.0</ele><time>2026-04-25T09:05:52.542Z</time></trkpt><trkpt lat="43.6499" lon="12.4826583"><ele>408.0</ele><time>2026-04-25T09:05:53.542Z</time></trkpt><trkpt lat="43.6497467" lon="12.48262"><ele>408.0</ele><time>2026-04-25T09:05:54.542Z</time></trkpt><trkpt lat="43.6495967" lon="12.482555"><ele>408.0</ele><time>2026-04-25T09:05:55.542Z</time></trkpt><trkpt lat="43.6494433" lon="12.4824733"><ele>408.0</ele><time>2026-04-25T09:05:56.542Z</time></trkpt><trkpt lat="43.6492733" lon="12.4823667"><ele>407.33333333333337</ele><time>2026-04-25T09:05:57.542Z</time></trkpt><trkpt lat="43.6491267" lon="12.4822317"><ele>406.6666666666667</ele><time>2026-04-25T09:05:58.542Z</time></trkpt><trkpt lat="43.6489617" lon="12.482085"><ele>406.0</ele><time>2026-04-25T09:05:59.541Z</time></trkpt><trkpt lat="43.648815" lon="12.4819233"><ele>410.33333333333337</ele><time>2026-04-25T09:06:00.542Z</time></trkpt><trkpt lat="43.648665" lon="12.481755"><ele>414.66666666666663</ele><time>2026-04-25T09:06:01.542Z</time></trkpt><trkpt lat="43.6485117" lon="12.4816"><ele>419.0</ele><time>2026-04-25T09:06:02.542Z</time></trkpt><trkpt lat="43.6483483" lon="12.481445"><ele>419.0</ele><time>2026-04-25T09:06:03.542Z</time></trkpt><trkpt lat="43.6482017" lon="12.4812917"><ele>419.0</ele><time>2026-04-25T09:06:04.542Z</time></trkpt><trkpt lat="43.6480517" lon="12.481145"><ele>419.0</ele><time>2026-04-25T09:06:05.542Z</time></trkpt><trkpt lat="43.647895" lon="12.48101"><ele>419.66666666666663</ele><time>2026-04-25T09:06:06.541Z</time></trkpt><trkpt lat="43.6477317" lon="12.4809"><ele>420.33333333333337</ele><time>2026-04-25T09:06:07.542Z</time></trkpt><trkpt lat="43.647565" lon="12.4807817"><ele>421.0</ele><time>2026-04-25T09:06:08.541Z</time></trkpt><trkpt lat="43.6474017" lon="12.4806767"><ele>421.0</ele><time>2026-04-25T09:06:09.542Z</time></trkpt><trkpt lat="43.6472333" lon="12.4805717"><ele>421.0</ele><time>2026-04-25T09:06:10.542Z</time></trkpt><trkpt lat="43.64708" lon="12.4804633"><ele>421.0</ele><time>2026-04-25T09:06:11.542Z</time></trkpt><trkpt lat="43.6469217" lon="12.4803533"><ele>425.33333333333337</ele><time>2026-04-25T09:06:12.54Z</time></trkpt><trkpt lat="43.6467617" lon="12.480245"><ele>429.66666666666663</ele><time>2026-04-25T09:06:13.541Z</time></trkpt><trkpt lat="43.6465983" lon="12.4801367"><ele>434.0</ele><time>2026-04-25T09:06:14.541Z</time></trkpt><trkpt lat="43.64644" lon="12.4800333"><ele>434.0</ele><time>2026-04-25T09:06:15.54Z</time></trkpt><trkpt lat="43.6462917" lon="12.4799383"><ele>434.0</ele><time>2026-04-25T09:06:16.54Z</time></trkpt><trkpt lat="43.6461483" lon="12.4798483"><ele>434.0</ele><time>2026-04-25T09:06:17.541Z</time></trkpt><trkpt lat="43.6460133" lon="12.47978"><ele>431.66666666666663</ele><time>2026-04-25T09:06:18.541Z</time></trkpt><trkpt lat="43.645875" lon="12.47974"><ele>429.33333333333337</ele><time>2026-04-25T09:06:19.541Z</time></trkpt><trkpt lat="43.645735" lon="12.4797383"><ele>427.0</ele><time>2026-04-25T09:06:20.541Z</time></trkpt><trkpt lat="43.6455633" lon="12.4797617"><ele>427.0</ele><time>2026-04-25T09:06:21.54Z</time></trkpt><trkpt lat="43.6454183" lon="12.47978"><ele>427.0</ele><time>2026-04-25T09:06:22.541Z</time></trkpt><trkpt lat="43.645245" lon="12.4797583"><ele>427.0</ele><time>2026-04-25T09:06:23.541Z</time></trkpt><trkpt lat="43.6451017" lon="12.4797183"><ele>429.6666666666667</ele><time>2026-04-25T09:06:24.541Z</time></trkpt><trkpt lat="43.644945" lon="12.4796467"><ele>432.33333333333337</ele><time>2026-04-25T09:06:25.541Z</time></trkpt><trkpt lat="43.6447983" lon="12.4795717"><ele>435.0</ele><time>2026-04-25T09:06:26.541Z</time></trkpt><trkpt lat="43.644655" lon="12.4794817"><ele>435.0</ele><time>2026-04-25T09:06:27.541Z</time></trkpt><trkpt lat="43.6445183" lon="12.4793933"><ele>435.0</ele><time>2026-04-25T09:06:28.54Z</time></trkpt><trkpt lat="43.644375" lon="12.47931"><ele>435.0</ele><time>2026-04-25T09:06:29.54Z</time></trkpt><trkpt lat="43.6442333" lon="12.4792333"><ele>434.33333333333337</ele><time>2026-04-25T09:06:30.541Z</time></trkpt><trkpt lat="43.644085" lon="12.4791383"><ele>433.6666666666667</ele><time>2026-04-25T09:06:31.54Z</time></trkpt><trkpt lat="43.64394" lon="12.4790217"><ele>433.0</ele><time>2026-04-25T09:06:32.54Z</time></trkpt><trkpt lat="43.6438133" lon="12.4788733"><ele>436.0</ele><time>2026-04-25T09:06:33.541Z</time></trkpt><trkpt lat="43.6437033" lon="12.4787183"><ele>439.0</ele><time>2026-04-25T09:06:34.541Z</time></trkpt><trkpt lat="43.6435917" lon="12.478565"><ele>442.0</ele><time>2026-04-25T09:06:35.541Z</time></trkpt><trkpt lat="43.643475" lon="12.47841"><ele>442.0</ele><time>2026-04-25T09:06:36.541Z</time></trkpt><trkpt lat="43.643365" lon="12.4782583"><ele>442.0</ele><time>2026-04-25T09:06:37.541Z</time></trkpt><trkpt lat="43.643255" lon="12.4781133"><ele>442.0</ele><time>2026-04-25T09:06:38.541Z</time></trkpt><trkpt lat="43.64315" lon="12.47795"><ele>439.0</ele><time>2026-04-25T09:06:39.541Z</time></trkpt><trkpt lat="43.64304" lon="12.477775"><ele>436.0</ele><time>2026-04-25T09:06:40.54Z</time></trkpt><trkpt lat="43.6429283" lon="12.4775733"><ele>433.0</ele><time>2026-04-25T09:06:41.54Z</time></trkpt><trkpt lat="43.6428133" lon="12.4773617"><ele>438.6666666666667</ele><time>2026-04-25T09:06:42.541Z</time></trkpt><trkpt lat="43.6427167" lon="12.4771583"><ele>444.33333333333337</ele><time>2026-04-25T09:06:43.54Z</time></trkpt><trkpt lat="43.6426167" lon="12.4769667"><ele>450.0</ele><time>2026-04-25T09:06:44.54Z</time></trkpt><trkpt lat="43.6425117" lon="12.4767917"><ele>450.0</ele><time>2026-04-25T09:06:45.54Z</time></trkpt><trkpt lat="43.642405" lon="12.47663"><ele>450.0</ele><time>2026-04-25T09:06:46.541Z</time></trkpt><trkpt lat="43.6422833" lon="12.4764783"><ele>450.0</ele><time>2026-04-25T09:06:47.541Z</time></trkpt><trkpt lat="43.6421617" lon="12.4763333"><ele>449.0</ele><time>2026-04-25T09:06:48.541Z</time></trkpt><trkpt lat="43.64206" lon="12.4761767"><ele>448.0</ele><time>2026-04-25T09:06:49.541Z</time></trkpt><trkpt lat="43.6419383" lon="12.476005"><ele>447.0</ele><time>2026-04-25T09:06:50.541Z</time></trkpt><trkpt lat="43.6418133" lon="12.47583"><ele>448.33333333333337</ele><time>2026-04-25T09:06:51.541Z</time></trkpt><trkpt lat="43.64173" lon="12.4756267"><ele>449.6666666666667</ele><time>2026-04-25T09:06:52.541Z</time></trkpt><trkpt lat="43.6416483" lon="12.4754283"><ele>451.0</ele><time>2026-04-25T09:06:53.541Z</time></trkpt><trkpt lat="43.641555" lon="12.4752333"><ele>451.0</ele><time>2026-04-25T09:06:54.541Z</time></trkpt><trkpt lat="43.6414683" lon="12.4750333"><ele>451.0</ele><time>2026-04-25T09:06:55.541Z</time></trkpt><trkpt lat="43.6413583" lon="12.4748533"><ele>451.0</ele><time>2026-04-25T09:06:56.541Z</time></trkpt><trkpt lat="43.641255" lon="12.4746667"><ele>450.33333333333337</ele><time>2026-04-25T09:06:57.541Z</time></trkpt><trkpt lat="43.64114" lon="12.47449"><ele>449.66666666666663</ele><time>2026-04-25T09:06:58.54Z</time></trkpt><trkpt lat="43.64104" lon="12.474335"><ele>449.0</ele><time>2026-04-25T09:06:59.541Z</time></trkpt><trkpt lat="43.640915" lon="12.47417"><ele>450.3333333333333</ele><time>2026-04-25T09:07:00.54Z</time></trkpt><trkpt lat="43.6407817" lon="12.4739967"><ele>451.66666666666663</ele><time>2026-04-25T09:07:01.541Z</time></trkpt><trkpt lat="43.6406383" lon="12.4738383"><ele>453.0</ele><time>2026-04-25T09:07:02.541Z</time></trkpt><trkpt lat="43.640515" lon="12.4736683"><ele>453.0</ele><time>2026-04-25T09:07:03.54Z</time></trkpt><trkpt lat="43.6403867" lon="12.47351"><ele>453.0</ele><time>2026-04-25T09:07:04.541Z</time></trkpt><trkpt lat="43.6402733" lon="12.4733533"><ele>453.0</ele><time>2026-04-25T09:07:05.541Z</time></trkpt><trkpt lat="43.6401533" lon="12.4732067"><ele>454.75</ele><time>2026-04-25T09:07:06.541Z</time></trkpt><trkpt lat="43.6400467" lon="12.4730817"><ele>456.5</ele><time>2026-04-25T09:07:07.541Z</time></trkpt><trkpt lat="43.63993" lon="12.4729933"><ele>458.25</ele><time>2026-04-25T09:07:08.54Z</time></trkpt><trkpt lat="43.6397883" lon="12.47293"><ele>460.0</ele><time>2026-04-25T09:07:09.541Z</time></trkpt><trkpt lat="43.6396217" lon="12.4728917"><ele>463.33333333333337</ele><time>2026-04-25T09:07:10.541Z</time></trkpt><trkpt lat="43.639445" lon="12.4728767"><ele>466.66666666666663</ele><time>2026-04-25T09:07:11.54Z</time></trkpt><trkpt lat="43.6392617" lon="12.4728567"><ele>470.0</ele><time>2026-04-25T09:07:12.541Z</time></trkpt><trkpt lat="43.6390667" lon="12.4728283"><ele>470.0</ele><time>2026-04-25T09:07:13.541Z</time></trkpt><trkpt lat="43.638905" lon="12.47281"><ele>470.0</ele><time>2026-04-25T09:07:14.541Z</time></trkpt><trkpt lat="43.6387683" lon="12.4727733"><ele>470.0</ele><time>2026-04-25T09:07:15.541Z</time></trkpt><trkpt lat="43.6386433" lon="12.4726933"><ele>470.0</ele><time>2026-04-25T09:07:16.541Z</time></trkpt><trkpt lat="43.6385317" lon="12.47256"><ele>472.66666666666663</ele><time>2026-04-25T09:07:17.54Z</time></trkpt><trkpt lat="43.6384367" lon="12.4723867"><ele>475.33333333333337</ele><time>2026-04-25T09:07:18.541Z</time></trkpt><trkpt lat="43.638325" lon="12.4722033"><ele>478.0</ele><time>2026-04-25T09:07:19.541Z</time></trkpt><trkpt lat="43.6382117" lon="12.4720433"><ele>478.0</ele><time>2026-04-25T09:07:20.541Z</time></trkpt><trkpt lat="43.63807" lon="12.47191"><ele>478.0</ele><time>2026-04-25T09:07:21.541Z</time></trkpt><trkpt lat="43.6379033" lon="12.4717933"><ele>478.0</ele><time>2026-04-25T09:07:22.541Z</time></trkpt><trkpt lat="43.6377017" lon="12.4716883"><ele>483.6666666666667</ele><time>2026-04-25T09:07:23.541Z</time></trkpt><trkpt lat="43.6374917" lon="12.4715967"><ele>489.33333333333337</ele><time>2026-04-25T09:07:24.541Z</time></trkpt><trkpt lat="43.6373267" lon="12.4715083"><ele>495.0</ele><time>2026-04-25T09:07:25.54Z</time></trkpt><trkpt lat="43.637175" lon="12.4714233"><ele>495.0</ele><time>2026-04-25T09:07:26.541Z</time></trkpt><trkpt lat="43.6370567" lon="12.4713183"><ele>495.0</ele><time>2026-04-25T09:07:27.54Z</time></trkpt><trkpt lat="43.6369533" lon="12.4711783"><ele>495.0</ele><time>2026-04-25T09:07:28.541Z</time></trkpt><trkpt lat="43.6368717" lon="12.47102"><ele>495.0</ele><time>2026-04-25T09:07:29.541Z</time></trkpt><trkpt lat="43.6368367" lon="12.4708283"><ele>496.66666666666663</ele><time>2026-04-25T09:07:30.541Z</time></trkpt><trkpt lat="43.636825" lon="12.4706"><ele>498.3333333333333</ele><time>2026-04-25T09:07:31.541Z</time></trkpt><trkpt lat="43.6368467" lon="12.4703633"><ele>500.0</ele><time>2026-04-25T09:07:32.541Z</time></trkpt><trkpt lat="43.6368267" lon="12.4701933"><ele>500.0</ele><time>2026-04-25T09:07:33.54Z</time></trkpt><trkpt lat="43.636765" lon="12.47007"><ele>500.0</ele><time>2026-04-25T09:07:34.54Z</time></trkpt><trkpt lat="43.6366967" lon="12.4699867"><ele>500.0</ele><time>2026-04-25T09:07:35.541Z</time></trkpt><trkpt lat="43.6366017" lon="12.4699433"><ele>500.0</ele><time>2026-04-25T09:07:36.541Z</time></trkpt><trkpt lat="43.6364767" lon="12.4699583"><ele>500.0</ele><time>2026-04-25T09:07:37.54Z</time></trkpt><trkpt lat="43.6363633" lon="12.4700133"><ele>500.0</ele><time>2026-04-25T09:07:38.541Z</time></trkpt><trkpt lat="43.636245" lon="12.4701133"><ele>500.0</ele><time>2026-04-25T09:07:39.541Z</time></trkpt><trkpt lat="43.636125" lon="12.4702533"><ele>500.0</ele><time>2026-04-25T09:07:40.541Z</time></trkpt><trkpt lat="43.6360033" lon="12.4703683"><ele>500.0</ele><time>2026-04-25T09:07:41.541Z</time></trkpt><trkpt lat="43.6358917" lon="12.4704433"><ele>502.75</ele><time>2026-04-25T09:07:42.541Z</time></trkpt><trkpt lat="43.6357733" lon="12.4704783"><ele>505.5</ele><time>2026-04-25T09:07:43.541Z</time></trkpt><trkpt lat="43.6356667" lon="12.47047"><ele>508.25</ele><time>2026-04-25T09:07:44.541Z</time></trkpt><trkpt lat="43.6355433" lon="12.4704167"><ele>511.0</ele><time>2026-04-25T09:07:45.54Z</time></trkpt><trkpt lat="43.6354017" lon="12.4703367"><ele>511.75</ele><time>2026-04-25T09:07:46.54Z</time></trkpt><trkpt lat="43.6352867" lon="12.4702783"><ele>512.5</ele><time>2026-04-25T09:07:47.541Z</time></trkpt><trkpt lat="43.6351633" lon="12.47027"><ele>513.25</ele><time>2026-04-25T09:07:48.54Z</time></trkpt><trkpt lat="43.6350567" lon="12.47032"><ele>514.0</ele><time>2026-04-25T09:07:49.541Z</time></trkpt><trkpt lat="43.6349383" lon="12.4704067"><ele>517.0</ele><time>2026-04-25T09:07:50.541Z</time></trkpt><trkpt lat="43.63482" lon="12.4705433"><ele>520.0</ele><time>2026-04-25T09:07:51.54Z</time></trkpt><trkpt lat="43.6347" lon="12.4707167"><ele>523.0</ele><time>2026-04-25T09:07:52.54Z</time></trkpt><trkpt lat="43.6345617" lon="12.470905"><ele>522.0</ele><time>2026-04-25T09:07:53.54Z</time></trkpt><trkpt lat="43.63441" lon="12.4710767"><ele>521.0</ele><time>2026-04-25T09:07:54.541Z</time></trkpt><trkpt lat="43.634255" lon="12.4712117"><ele>520.0</ele><time>2026-04-25T09:07:55.54Z</time></trkpt><trkpt lat="43.63411" lon="12.4713067"><ele>524.6666666666667</ele><time>2026-04-25T09:07:56.541Z</time></trkpt><trkpt lat="43.6339467" lon="12.4713733"><ele>529.3333333333334</ele><time>2026-04-25T09:07:57.541Z</time></trkpt><trkpt lat="43.6337583" lon="12.4714133"><ele>534.0</ele><time>2026-04-25T09:07:58.541Z</time></trkpt><trkpt lat="43.6335967" lon="12.4714383"><ele>534.0</ele><time>2026-04-25T09:07:59.541Z</time></trkpt><trkpt lat="43.6335" lon="12.4714683"><ele>534.0</ele><time>2026-04-25T09:08:00.541Z</time></trkpt><trkpt lat="43.6333867" lon="12.4715583"><ele>534.0</ele><time>2026-04-25T09:08:01.541Z</time></trkpt><trkpt lat="43.63327" lon="12.4717033"><ele>534.0</ele><time>2026-04-25T09:08:02.541Z</time></trkpt><trkpt lat="43.6331633" lon="12.4718783"><ele>534.0</ele><time>2026-04-25T09:08:03.541Z</time></trkpt><trkpt lat="43.6330517" lon="12.4720133"><ele>534.0</ele><time>2026-04-25T09:08:04.541Z</time></trkpt><trkpt lat="43.6329483" lon="12.4720933"><ele>534.0</ele><time>2026-04-25T09:08:05.541Z</time></trkpt><trkpt lat="43.6328483" lon="12.4721417"><ele>534.0</ele><time>2026-04-25T09:08:06.541Z</time></trkpt><trkpt lat="43.6327483" lon="12.4721183"><ele>533.5</ele><time>2026-04-25T09:08:07.541Z</time></trkpt><trkpt lat="43.6326433" lon="12.47203"><ele>533.0</ele><time>2026-04-25T09:08:08.541Z</time></trkpt><trkpt lat="43.6325333" lon="12.471905"><ele>532.5</ele><time>2026-04-25T09:08:09.541Z</time></trkpt><trkpt lat="43.6324367" lon="12.4718017"><ele>532.0</ele><time>2026-04-25T09:08:10.541Z</time></trkpt><trkpt lat="43.632345" lon="12.471755"><ele>532.0</ele><time>2026-04-25T09:08:11.54Z</time></trkpt><trkpt lat="43.6322383" lon="12.47176"><ele>532.0</ele><time>2026-04-25T09:08:12.54Z</time></trkpt><trkpt lat="43.63215" lon="12.4718117"><ele>532.0</ele><time>2026-04-25T09:08:13.541Z</time></trkpt><trkpt lat="43.6320533" lon="12.4719317"><ele>532.0</ele><time>2026-04-25T09:08:14.541Z</time></trkpt><trkpt lat="43.6319733" lon="12.472095"><ele>532.6666666666667</ele><time>2026-04-25T09:08:15.54Z</time></trkpt><trkpt lat="43.6319" lon="12.472295"><ele>533.3333333333334</ele><time>2026-04-25T09:08:16.541Z</time></trkpt><trkpt lat="43.6318" lon="12.472515"><ele>534.0</ele><time>2026-04-25T09:08:17.54Z</time></trkpt><trkpt lat="43.631695" lon="12.4727067"><ele>534.0</ele><time>2026-04-25T09:08:18.541Z</time></trkpt><trkpt lat="43.6315683" lon="12.4728783"><ele>534.0</ele><time>2026-04-25T09:08:19.54Z</time></trkpt><trkpt lat="43.63143" lon="12.473055"><ele>534.0</ele><time>2026-04-25T09:08:20.54Z</time></trkpt><trkpt lat="43.6312767" lon="12.473245"><ele>532.3333333333334</ele><time>2026-04-25T09:08:21.541Z</time></trkpt><trkpt lat="43.631105" lon="12.4734317"><ele>530.6666666666667</ele><time>2026-04-25T09:08:22.541Z</time></trkpt><trkpt lat="43.63094" lon="12.4736033"><ele>529.0</ele><time>2026-04-25T09:08:23.541Z</time></trkpt><trkpt lat="43.6307883" lon="12.4737683"><ele>531.6666666666667</ele><time>2026-04-25T09:08:24.54Z</time></trkpt><trkpt lat="43.6306367" lon="12.47392"><ele>534.3333333333334</ele><time>2026-04-25T09:08:25.541Z</time></trkpt><trkpt lat="43.630495" lon="12.47407"><ele>537.0</ele><time>2026-04-25T09:08:26.541Z</time></trkpt><trkpt lat="43.630365" lon="12.474225"><ele>535.5</ele><time>2026-04-25T09:08:27.541Z</time></trkpt><trkpt lat="43.6302667" lon="12.47439"><ele>534.0</ele><time>2026-04-25T09:08:28.541Z</time></trkpt><trkpt lat="43.6301717" lon="12.47453"><ele>532.5</ele><time>2026-04-25T09:08:29.541Z</time></trkpt><trkpt lat="43.6300767" lon="12.4746517"><ele>531.0</ele><time>2026-04-25T09:08:30.541Z</time></trkpt><trkpt lat="43.6299767" lon="12.4747333"><ele>531.0</ele><time>2026-04-25T09:08:31.541Z</time></trkpt><trkpt lat="43.6298433" lon="12.4747817"><ele>531.0</ele><time>2026-04-25T09:08:32.541Z</time></trkpt><trkpt lat="43.6296967" lon="12.474775"><ele>531.0</ele><time>2026-04-25T09:08:33.54Z</time></trkpt><trkpt lat="43.6295333" lon="12.4747383"><ele>528.25</ele><time>2026-04-25T09:08:34.541Z</time></trkpt><trkpt lat="43.6293817" lon="12.4747167"><ele>525.5</ele><time>2026-04-25T09:08:35.54Z</time></trkpt><trkpt lat="43.6292333" lon="12.474685"><ele>522.75</ele><time>2026-04-25T09:08:36.54Z</time></trkpt><trkpt lat="43.6291167" lon="12.4746467"><ele>520.0</ele><time>2026-04-25T09:08:37.541Z</time></trkpt><trkpt lat="43.6290133" lon="12.474655"><ele>520.0</ele><time>2026-04-25T09:08:38.54Z</time></trkpt><trkpt lat="43.6289133" lon="12.4747"><ele>520.0</ele><time>2026-04-25T09:08:39.541Z</time></trkpt><trkpt lat="43.6287933" lon="12.4748217"><ele>520.0</ele><time>2026-04-25T09:08:40.54Z</time></trkpt><trkpt lat="43.6286917" lon="12.47498"><ele>520.0</ele><time>2026-04-25T09:08:41.541Z</time></trkpt><trkpt lat="43.6286283" lon="12.4751367"><ele>519.0</ele><time>2026-04-25T09:08:42.541Z</time></trkpt><trkpt lat="43.62853" lon="12.4752817"><ele>518.0</ele><time>2026-04-25T09:08:43.54Z</time></trkpt><trkpt lat="43.6283967" lon="12.4754033"><ele>517.0</ele><time>2026-04-25T09:08:44.54Z</time></trkpt><trkpt lat="43.6282383" lon="12.4754983"><ele>517.0</ele><time>2026-04-25T09:08:45.541Z</time></trkpt><trkpt lat="43.6280633" lon="12.475575"><ele>517.0</ele><time>2026-04-25T09:08:46.541Z</time></trkpt><trkpt lat="43.6278733" lon="12.4756317"><ele>517.0</ele><time>2026-04-25T09:08:47.541Z</time></trkpt><trkpt lat="43.62765" lon="12.4757183"><ele>513.0</ele><time>2026-04-25T09:08:48.54Z</time></trkpt><trkpt lat="43.6274267" lon="12.4758"><ele>509.0</ele><time>2026-04-25T09:08:49.541Z</time></trkpt><trkpt lat="43.6272267" lon="12.4758733"><ele>505.0</ele><time>2026-04-25T09:08:50.54Z</time></trkpt><trkpt lat="43.6270417" lon="12.475935"><ele>503.0</ele><time>2026-04-25T09:08:51.541Z</time></trkpt><trkpt lat="43.6268833" lon="12.4759883"><ele>501.0</ele><time>2026-04-25T09:08:52.541Z</time></trkpt><trkpt lat="43.626755" lon="12.4760417"><ele>499.0</ele><time>2026-04-25T09:08:53.541Z</time></trkpt><trkpt lat="43.626625" lon="12.4760883"><ele>497.0</ele><time>2026-04-25T09:08:54.541Z</time></trkpt><trkpt lat="43.6264933" lon="12.476125"><ele>497.0</ele><time>2026-04-25T09:08:55.541Z</time></trkpt><trkpt lat="43.6263817" lon="12.4760733"><ele>497.0</ele><time>2026-04-25T09:08:56.541Z</time></trkpt><trkpt lat="43.626275" lon="12.47599"><ele>497.0</ele><time>2026-04-25T09:08:57.54Z</time></trkpt><trkpt lat="43.6261767" lon="12.4758083"><ele>497.0</ele><time>2026-04-25T09:08:58.541Z</time></trkpt><trkpt lat="43.6260983" lon="12.4756217"><ele>494.0</ele><time>2026-04-25T09:08:59.541Z</time></trkpt><trkpt lat="43.6260333" lon="12.475455"><ele>491.0</ele><time>2026-04-25T09:09:00.54Z</time></trkpt><trkpt lat="43.62599" lon="12.4752883"><ele>488.0</ele><time>2026-04-25T09:09:01.541Z</time></trkpt><trkpt lat="43.6259783" lon="12.4751333"><ele>485.0</ele><time>2026-04-25T09:09:02.541Z</time></trkpt><trkpt lat="43.6259967" lon="12.474995"><ele>484.8333333333333</ele><time>2026-04-25T09:09:03.54Z</time></trkpt><trkpt lat="43.62599" lon="12.4748583"><ele>484.66666666666663</ele><time>2026-04-25T09:09:04.541Z</time></trkpt><trkpt lat="43.6259567" lon="12.4747617"><ele>484.5</ele><time>2026-04-25T09:09:05.54Z</time></trkpt><trkpt lat="43.6258833" lon="12.47471"><ele>484.33333333333337</ele><time>2026-04-25T09:09:06.541Z</time></trkpt><trkpt lat="43.625805" lon="12.4746867"><ele>484.1666666666667</ele><time>2026-04-25T09:09:07.541Z</time></trkpt><trkpt lat="43.6257267" lon="12.474715"><ele>484.0</ele><time>2026-04-25T09:09:08.541Z</time></trkpt><trkpt lat="43.6256433" lon="12.4748167"><ele>484.0</ele><time>2026-04-25T09:09:09.541Z</time></trkpt><trkpt lat="43.6256083" lon="12.47493"><ele>484.0</ele><time>2026-04-25T09:09:10.541Z</time></trkpt><trkpt lat="43.6255967" lon="12.475095"><ele>484.0</ele><time>2026-04-25T09:09:11.541Z</time></trkpt><trkpt lat="43.6256217" lon="12.4752867"><ele>484.0</ele><time>2026-04-25T09:09:12.54Z</time></trkpt><trkpt lat="43.6256783" lon="12.475495"><ele>484.33333333333337</ele><time>2026-04-25T09:09:13.541Z</time></trkpt><trkpt lat="43.6257567" lon="12.47572"><ele>484.66666666666663</ele><time>2026-04-25T09:09:14.54Z</time></trkpt><trkpt lat="43.62582" lon="12.4759917"><ele>485.0</ele><time>2026-04-25T09:09:15.541Z</time></trkpt><trkpt lat="43.6258983" lon="12.4762417"><ele>482.5</ele><time>2026-04-25T09:09:16.541Z</time></trkpt><trkpt lat="43.62596" lon="12.4764617"><ele>480.0</ele><time>2026-04-25T09:09:17.541Z</time></trkpt><trkpt lat="43.6260133" lon="12.4766433"><ele>477.5</ele><time>2026-04-25T09:09:18.541Z</time></trkpt><trkpt lat="43.6260467" lon="12.47681"><ele>475.0</ele><time>2026-04-25T09:09:19.541Z</time></trkpt><trkpt lat="43.6260617" lon="12.4769617"><ele>475.0</ele><time>2026-04-25T09:09:20.541Z</time></trkpt><trkpt lat="43.6260633" lon="12.477065"><ele>475.0</ele><time>2026-04-25T09:09:21.541Z</time></trkpt><trkpt lat="43.6259317" lon="12.477155"><ele>475.0</ele><time>2026-04-25T09:09:23.541Z</time></trkpt><trkpt lat="43.6258683" lon="12.4771267"><ele>475.0</ele><time>2026-04-25T09:09:24.541Z</time></trkpt><trkpt lat="43.6257967" lon="12.477035"><ele>475.0</ele><time>2026-04-25T09:09:25.54Z</time></trkpt><trkpt lat="43.6257517" lon="12.4768567"><ele>475.0</ele><time>2026-04-25T09:09:26.54Z</time></trkpt><trkpt lat="43.6257083" lon="12.476635"><ele>475.0</ele><time>2026-04-25T09:09:27.54Z</time></trkpt><trkpt lat="43.6256633" lon="12.4763817"><ele>475.0</ele><time>2026-04-25T09:09:28.541Z</time></trkpt><trkpt lat="43.6256117" lon="12.47614"><ele>478.33333333333337</ele><time>2026-04-25T09:09:29.54Z</time></trkpt><trkpt lat="43.6255383" lon="12.4759283"><ele>481.66666666666663</ele><time>2026-04-25T09:09:30.54Z</time></trkpt><trkpt lat="43.625455" lon="12.475705"><ele>485.0</ele><time>2026-04-25T09:09:31.541Z</time></trkpt><trkpt lat="43.62533" lon="12.4755067"><ele>477.0</ele><time>2026-04-25T09:09:32.541Z</time></trkpt><trkpt lat="43.6252333" lon="12.4753217"><ele>469.0</ele><time>2026-04-25T09:09:33.541Z</time></trkpt><trkpt lat="43.62513" lon="12.47516"><ele>461.0</ele><time>2026-04-25T09:09:34.541Z</time></trkpt><trkpt lat="43.6250683" lon="12.4749983"><ele>461.0</ele><time>2026-04-25T09:09:35.541Z</time></trkpt><trkpt lat="43.6250433" lon="12.4748283"><ele>461.0</ele><time>2026-04-25T09:09:36.541Z</time></trkpt><trkpt lat="43.6250283" lon="12.4746733"><ele>461.0</ele><time>2026-04-25T09:09:37.54Z</time></trkpt><trkpt lat="43.6249933" lon="12.474565"><ele>461.0</ele><time>2026-04-25T09:09:38.54Z</time></trkpt><trkpt lat="43.6249267" lon="12.474495"><ele>461.0</ele><time>2026-04-25T09:09:39.541Z</time></trkpt><trkpt lat="43.6248433" lon="12.47448"><ele>461.0</ele><time>2026-04-25T09:09:40.54Z</time></trkpt><trkpt lat="43.6247617" lon="12.47452"><ele>461.0</ele><time>2026-04-25T09:09:41.54Z</time></trkpt><trkpt lat="43.6246917" lon="12.474635"><ele>461.0</ele><time>2026-04-25T09:09:42.54Z</time></trkpt><trkpt lat="43.6246617" lon="12.47477"><ele>461.0</ele><time>2026-04-25T09:09:43.541Z</time></trkpt><trkpt lat="43.624675" lon="12.474935"><ele>461.0</ele><time>2026-04-25T09:09:44.541Z</time></trkpt><trkpt lat="43.6247267" lon="12.4751133"><ele>461.0</ele><time>2026-04-25T09:09:45.54Z</time></trkpt><trkpt lat="43.6248167" lon="12.4753017"><ele>461.0</ele><time>2026-04-25T09:09:46.541Z</time></trkpt><trkpt lat="43.624885" lon="12.475505"><ele>461.0</ele><time>2026-04-25T09:09:47.541Z</time></trkpt><trkpt lat="43.6249517" lon="12.475695"><ele>459.8</ele><time>2026-04-25T09:09:48.541Z</time></trkpt><trkpt lat="43.6249933" lon="12.4758683"><ele>458.6</ele><time>2026-04-25T09:09:49.541Z</time></trkpt><trkpt lat="43.6250167" lon="12.4760217"><ele>457.4</ele><time>2026-04-25T09:09:50.54Z</time></trkpt><trkpt lat="43.62502" lon="12.4761717"><ele>456.2</ele><time>2026-04-25T09:09:51.54Z</time></trkpt><trkpt lat="43.6249867" lon="12.4762767"><ele>455.0</ele><time>2026-04-25T09:09:52.541Z</time></trkpt><trkpt lat="43.6248883" lon="12.476395"><ele>454.0</ele><time>2026-04-25T09:09:53.541Z</time></trkpt><trkpt lat="43.62476" lon="12.47652"><ele>453.0</ele><time>2026-04-25T09:09:54.541Z</time></trkpt><trkpt lat="43.6246217" lon="12.4766167"><ele>452.0</ele><time>2026-04-25T09:09:55.541Z</time></trkpt><trkpt lat="43.6244983" lon="12.4766883"><ele>451.0</ele><time>2026-04-25T09:09:56.54Z</time></trkpt><trkpt lat="43.624395" lon="12.4767233"><ele>449.75</ele><time>2026-04-25T09:09:57.541Z</time></trkpt><trkpt lat="43.6242817" lon="12.4766933"><ele>448.5</ele><time>2026-04-25T09:09:58.541Z</time></trkpt><trkpt lat="43.6241667" lon="12.4766033"><ele>447.25</ele><time>2026-04-25T09:09:59.541Z</time></trkpt><trkpt lat="43.6240517" lon="12.476455"><ele>446.0</ele><time>2026-04-25T09:10:00.541Z</time></trkpt><trkpt lat="43.6239033" lon="12.476265"><ele>443.66666666666663</ele><time>2026-04-25T09:10:01.541Z</time></trkpt><trkpt lat="43.6238" lon="12.476085"><ele>441.33333333333337</ele><time>2026-04-25T09:10:02.541Z</time></trkpt><trkpt lat="43.62367" lon="12.475905"><ele>439.0</ele><time>2026-04-25T09:10:03.541Z</time></trkpt><trkpt lat="43.62355" lon="12.4757333"><ele>438.6666666666667</ele><time>2026-04-25T09:10:04.54Z</time></trkpt><trkpt lat="43.623435" lon="12.475615"><ele>438.33333333333337</ele><time>2026-04-25T09:10:05.54Z</time></trkpt><trkpt lat="43.6232917" lon="12.47552"><ele>438.0</ele><time>2026-04-25T09:10:06.541Z</time></trkpt><trkpt lat="43.6231383" lon="12.4754483"><ele>434.66666666666663</ele><time>2026-04-25T09:10:07.54Z</time></trkpt><trkpt lat="43.6229767" lon="12.4753867"><ele>431.3333333333333</ele><time>2026-04-25T09:10:08.541Z</time></trkpt><trkpt lat="43.622845" lon="12.4752867"><ele>428.0</ele><time>2026-04-25T09:10:09.541Z</time></trkpt><trkpt lat="43.6227333" lon="12.4751433"><ele>427.25</ele><time>2026-04-25T09:10:10.541Z</time></trkpt><trkpt lat="43.622635" lon="12.4749967"><ele>426.5</ele><time>2026-04-25T09:10:11.541Z</time></trkpt><trkpt lat="43.622525" lon="12.474885"><ele>425.75</ele><time>2026-04-25T09:10:12.54Z</time></trkpt><trkpt lat="43.6223833" lon="12.47481"><ele>425.0</ele><time>2026-04-25T09:10:13.541Z</time></trkpt><trkpt lat="43.622235" lon="12.4747667"><ele>425.0</ele><time>2026-04-25T09:10:14.541Z</time></trkpt><trkpt lat="43.6220817" lon="12.4747767"><ele>425.0</ele><time>2026-04-25T09:10:15.54Z</time></trkpt><trkpt lat="43.621935" lon="12.474815"><ele>425.0</ele><time>2026-04-25T09:10:16.541Z</time></trkpt><trkpt lat="43.6218" lon="12.47491"><ele>421.0</ele><time>2026-04-25T09:10:17.541Z</time></trkpt><trkpt lat="43.6216617" lon="12.4750533"><ele>417.0</ele><time>2026-04-25T09:10:18.54Z</time></trkpt><trkpt lat="43.62155" lon="12.4752283"><ele>413.0</ele><time>2026-04-25T09:10:19.541Z</time></trkpt><trkpt lat="43.62144" lon="12.4754033"><ele>412.0</ele><time>2026-04-25T09:10:20.541Z</time></trkpt><trkpt lat="43.62135" lon="12.4755683"><ele>411.0</ele><time>2026-04-25T09:10:21.54Z</time></trkpt><trkpt lat="43.6212633" lon="12.4757133"><ele>410.0</ele><time>2026-04-25T09:10:22.54Z</time></trkpt><trkpt lat="43.6211817" lon="12.47582"><ele>409.0</ele><time>2026-04-25T09:10:23.541Z</time></trkpt><trkpt lat="43.6210583" lon="12.47589"><ele>409.0</ele><time>2026-04-25T09:10:24.541Z</time></trkpt><trkpt lat="43.6209217" lon="12.4759267"><ele>409.0</ele><time>2026-04-25T09:10:25.541Z</time></trkpt><trkpt lat="43.6207583" lon="12.4759083"><ele>409.0</ele><time>2026-04-25T09:10:26.54Z</time></trkpt><trkpt lat="43.62058" lon="12.4758383"><ele>409.0</ele><time>2026-04-25T09:10:27.54Z</time></trkpt><trkpt lat="43.62039" lon="12.47575"><ele>409.0</ele><time>2026-04-25T09:10:28.54Z</time></trkpt><trkpt lat="43.6201783" lon="12.47565"><ele>409.0</ele><time>2026-04-25T09:10:29.541Z</time></trkpt><trkpt lat="43.6199733" lon="12.4755517"><ele>409.33333333333337</ele><time>2026-04-25T09:10:30.541Z</time></trkpt><trkpt lat="43.61977" lon="12.47546"><ele>409.66666666666663</ele><time>2026-04-25T09:10:31.541Z</time></trkpt><trkpt lat="43.6195667" lon="12.475365"><ele>410.0</ele><time>2026-04-25T09:10:32.54Z</time></trkpt><trkpt lat="43.6193767" lon="12.475265"><ele>406.66666666666663</ele><time>2026-04-25T09:10:33.54Z</time></trkpt><trkpt lat="43.6192083" lon="12.4751467"><ele>403.33333333333337</ele><time>2026-04-25T09:10:34.541Z</time></trkpt><trkpt lat="43.6190467" lon="12.4749917"><ele>400.0</ele><time>2026-04-25T09:10:35.541Z</time></trkpt><trkpt lat="43.6188817" lon="12.4748017"><ele>399.0</ele><time>2026-04-25T09:10:36.54Z</time></trkpt><trkpt lat="43.618725" lon="12.4745983"><ele>398.0</ele><time>2026-04-25T09:10:37.541Z</time></trkpt><trkpt lat="43.6185783" lon="12.47441"><ele>397.0</ele><time>2026-04-25T09:10:38.54Z</time></trkpt><trkpt lat="43.6184333" lon="12.4742183"><ele>395.6666666666667</ele><time>2026-04-25T09:10:39.541Z</time></trkpt><trkpt lat="43.6182833" lon="12.47404"><ele>394.33333333333337</ele><time>2026-04-25T09:10:40.541Z</time></trkpt><trkpt lat="43.6181317" lon="12.47387"><ele>393.0</ele><time>2026-04-25T09:10:41.541Z</time></trkpt><trkpt lat="43.6179933" lon="12.4737033"><ele>392.66666666666663</ele><time>2026-04-25T09:10:42.54Z</time></trkpt><trkpt lat="43.617855" lon="12.473565"><ele>392.3333333333333</ele><time>2026-04-25T09:10:43.541Z</time></trkpt><trkpt lat="43.6177067" lon="12.473455"><ele>392.0</ele><time>2026-04-25T09:10:44.54Z</time></trkpt><trkpt lat="43.6175417" lon="12.4733533"><ele>390.66666666666663</ele><time>2026-04-25T09:10:45.54Z</time></trkpt><trkpt lat="43.6173567" lon="12.473285"><ele>389.33333333333337</ele><time>2026-04-25T09:10:46.541Z</time></trkpt><trkpt lat="43.6171733" lon="12.4732367"><ele>388.0</ele><time>2026-04-25T09:10:47.54Z</time></trkpt><trkpt lat="43.617" lon="12.4732233"><ele>387.0</ele><time>2026-04-25T09:10:48.541Z</time></trkpt><trkpt lat="43.6168" lon="12.47324"><ele>386.0</ele><time>2026-04-25T09:10:49.541Z</time></trkpt><trkpt lat="43.6165633" lon="12.4732833"><ele>385.0</ele><time>2026-04-25T09:10:50.541Z</time></trkpt><trkpt lat="43.6163067" lon="12.4733533"><ele>383.0</ele><time>2026-04-25T09:10:51.541Z</time></trkpt><trkpt lat="43.6160817" lon="12.4734117"><ele>381.0</ele><time>2026-04-25T09:10:52.541Z</time></trkpt><trkpt lat="43.61587" lon="12.4734733"><ele>379.0</ele><time>2026-04-25T09:10:53.54Z</time></trkpt><trkpt lat="43.6156617" lon="12.4735267"><ele>379.0</ele><time>2026-04-25T09:10:54.541Z</time></trkpt><trkpt lat="43.6154333" lon="12.4735817"><ele>379.0</ele><time>2026-04-25T09:10:55.541Z</time></trkpt><trkpt lat="43.615235" lon="12.4736333"><ele>379.0</ele><time>2026-04-25T09:10:56.54Z</time></trkpt><trkpt lat="43.615055" lon="12.4736783"><ele>378.66666666666663</ele><time>2026-04-25T09:10:57.541Z</time></trkpt><trkpt lat="43.61489" lon="12.4737217"><ele>378.3333333333333</ele><time>2026-04-25T09:10:58.541Z</time></trkpt><trkpt lat="43.6147383" lon="12.473775"><ele>378.0</ele><time>2026-04-25T09:10:59.54Z</time></trkpt><trkpt lat="43.6146117" lon="12.47383"><ele>378.0</ele><time>2026-04-25T09:11:00.541Z</time></trkpt><trkpt lat="43.6145033" lon="12.4739517"><ele>378.0</ele><time>2026-04-25T09:11:01.541Z</time></trkpt><trkpt lat="43.6143867" lon="12.4741333"><ele>378.0</ele><time>2026-04-25T09:11:02.541Z</time></trkpt><trkpt lat="43.6142733" lon="12.4743517"><ele>377.6666666666667</ele><time>2026-04-25T09:11:03.541Z</time></trkpt><trkpt lat="43.614175" lon="12.4745917"><ele>377.33333333333337</ele><time>2026-04-25T09:11:04.541Z</time></trkpt><trkpt lat="43.614065" lon="12.4748383"><ele>377.0</ele><time>2026-04-25T09:11:05.541Z</time></trkpt><trkpt lat="43.6139367" lon="12.4751133"><ele>377.0</ele><time>2026-04-25T09:11:06.54Z</time></trkpt><trkpt lat="43.613815" lon="12.4754217"><ele>377.0</ele><time>2026-04-25T09:11:07.541Z</time></trkpt><trkpt lat="43.6136933" lon="12.47571"><ele>376.33333333333337</ele><time>2026-04-25T09:11:08.541Z</time></trkpt><trkpt lat="43.6135733" lon="12.4759833"><ele>375.6666666666667</ele><time>2026-04-25T09:11:09.541Z</time></trkpt><trkpt lat="43.6134633" lon="12.4762417"><ele>375.0</ele><time>2026-04-25T09:11:10.541Z</time></trkpt><trkpt lat="43.6133617" lon="12.476495"><ele>374.6666666666667</ele><time>2026-04-25T09:11:11.541Z</time></trkpt><trkpt lat="43.61326" lon="12.4767333"><ele>374.33333333333337</ele><time>2026-04-25T09:11:12.541Z</time></trkpt><trkpt lat="43.61314" lon="12.47699"><ele>374.0</ele><time>2026-04-25T09:11:13.541Z</time></trkpt><trkpt lat="43.61301" lon="12.4772567"><ele>373.5</ele><time>2026-04-25T09:11:14.541Z</time></trkpt><trkpt lat="43.6129" lon="12.4775433"><ele>373.0</ele><time>2026-04-25T09:11:15.541Z</time></trkpt><trkpt lat="43.6128017" lon="12.4778317"><ele>375.5</ele><time>2026-04-25T09:11:16.54Z</time></trkpt><trkpt lat="43.61271" lon="12.4781267"><ele>378.0</ele><time>2026-04-25T09:11:17.541Z</time></trkpt><trkpt lat="43.6126183" lon="12.47841"><ele>378.0</ele><time>2026-04-25T09:11:18.541Z</time></trkpt><trkpt lat="43.61254" lon="12.4786733"><ele>378.0</ele><time>2026-04-25T09:11:19.54Z</time></trkpt><trkpt lat="43.6124533" lon="12.478935"><ele>378.0</ele><time>2026-04-25T09:11:20.541Z</time></trkpt><trkpt lat="43.612365" lon="12.4792033"><ele>378.3333333333333</ele><time>2026-04-25T09:11:21.541Z</time></trkpt><trkpt lat="43.61228" lon="12.4794583"><ele>378.66666666666663</ele><time>2026-04-25T09:11:22.54Z</time></trkpt><trkpt lat="43.6122033" lon="12.4797317"><ele>379.0</ele><time>2026-04-25T09:11:23.541Z</time></trkpt><trkpt lat="43.612105" lon="12.4799917"><ele>379.3333333333333</ele><time>2026-04-25T09:11:24.541Z</time></trkpt><trkpt lat="43.6119933" lon="12.4802317"><ele>379.6666666666667</ele><time>2026-04-25T09:11:25.541Z</time></trkpt><trkpt lat="43.61187" lon="12.4804733"><ele>380.0</ele><time>2026-04-25T09:11:26.541Z</time></trkpt><trkpt lat="43.6117283" lon="12.4807333"><ele>380.0</ele><time>2026-04-25T09:11:27.541Z</time></trkpt><trkpt lat="43.6115933" lon="12.4809733"><ele>380.0</ele><time>2026-04-25T09:11:28.54Z</time></trkpt><trkpt lat="43.6114683" lon="12.4811667"><ele>380.0</ele><time>2026-04-25T09:11:29.541Z</time></trkpt><trkpt lat="43.6113483" lon="12.4813667"><ele>378.6666666666667</ele><time>2026-04-25T09:11:30.541Z</time></trkpt><trkpt lat="43.6112217" lon="12.4815467"><ele>377.3333333333333</ele><time>2026-04-25T09:11:31.541Z</time></trkpt><trkpt lat="43.61111" lon="12.4817167"><ele>376.0</ele><time>2026-04-25T09:11:32.54Z</time></trkpt><trkpt lat="43.6109983" lon="12.4818667"><ele>376.0</ele><time>2026-04-25T09:11:33.541Z</time></trkpt><trkpt lat="43.6109" lon="12.4820067"><ele>376.0</ele><time>2026-04-25T09:11:34.541Z</time></trkpt><trkpt lat="43.61083" lon="12.4821567"><ele>376.0</ele><time>2026-04-25T09:11:35.541Z</time></trkpt><trkpt lat="43.6107717" lon="12.4823"><ele>376.0</ele><time>2026-04-25T09:11:36.54Z</time></trkpt><trkpt lat="43.6107067" lon="12.482465"><ele>377.66666666666663</ele><time>2026-04-25T09:11:37.54Z</time></trkpt><trkpt lat="43.6106683" lon="12.4826617"><ele>379.3333333333333</ele><time>2026-04-25T09:11:38.541Z</time></trkpt><trkpt lat="43.6106517" lon="12.4828767"><ele>381.0</ele><time>2026-04-25T09:11:39.541Z</time></trkpt><trkpt lat="43.6106417" lon="12.4830933"><ele>381.0</ele><time>2026-04-25T09:11:40.541Z</time></trkpt><trkpt lat="43.6106033" lon="12.48329"><ele>381.0</ele><time>2026-04-25T09:11:41.541Z</time></trkpt><trkpt lat="43.6105467" lon="12.4834733"><ele>381.0</ele><time>2026-04-25T09:11:42.541Z</time></trkpt><trkpt lat="43.6104717" lon="12.4836667"><ele>380.0</ele><time>2026-04-25T09:11:43.541Z</time></trkpt><trkpt lat="43.610355" lon="12.4838483"><ele>379.0</ele><time>2026-04-25T09:11:44.541Z</time></trkpt><trkpt lat="43.6102183" lon="12.48403"><ele>378.0</ele><time>2026-04-25T09:11:45.54Z</time></trkpt><trkpt lat="43.61008" lon="12.4841867"><ele>379.0</ele><time>2026-04-25T09:11:46.541Z</time></trkpt><trkpt lat="43.6099167" lon="12.4843383"><ele>380.0</ele><time>2026-04-25T09:11:47.541Z</time></trkpt><trkpt lat="43.6097383" lon="12.4845033"><ele>381.0</ele><time>2026-04-25T09:11:48.541Z</time></trkpt><trkpt lat="43.6095733" lon="12.4846767"><ele>379.6666666666667</ele><time>2026-04-25T09:11:49.541Z</time></trkpt><trkpt lat="43.6094067" lon="12.4848383"><ele>378.33333333333337</ele><time>2026-04-25T09:11:50.541Z</time></trkpt><trkpt lat="43.6092467" lon="12.4850117"><ele>377.0</ele><time>2026-04-25T09:11:51.541Z</time></trkpt><trkpt lat="43.6090967" lon="12.485165"><ele>377.0</ele><time>2026-04-25T09:11:52.54Z</time></trkpt><trkpt lat="43.6089617" lon="12.4853383"><ele>377.0</ele><time>2026-04-25T09:11:53.54Z</time></trkpt><trkpt lat="43.6088517" lon="12.48555"><ele>377.0</ele><time>2026-04-25T09:11:54.54Z</time></trkpt><trkpt lat="43.6087367" lon="12.4857917"><ele>376.6666666666667</ele><time>2026-04-25T09:11:55.541Z</time></trkpt><trkpt lat="43.60865" lon="12.4860467"><ele>376.3333333333333</ele><time>2026-04-25T09:11:56.54Z</time></trkpt><trkpt lat="43.60855" lon="12.486275"><ele>376.0</ele><time>2026-04-25T09:11:57.541Z</time></trkpt><trkpt lat="43.608415" lon="12.4865033"><ele>376.0</ele><time>2026-04-25T09:11:58.541Z</time></trkpt><trkpt lat="43.6082717" lon="12.4867333"><ele>376.0</ele><time>2026-04-25T09:11:59.54Z</time></trkpt><trkpt lat="43.6081133" lon="12.4869817"><ele>372.5</ele><time>2026-04-25T09:12:00.541Z</time></trkpt><trkpt lat="43.607955" lon="12.4872117"><ele>369.0</ele><time>2026-04-25T09:12:01.541Z</time></trkpt><trkpt lat="43.60779" lon="12.4874317"><ele>369.0</ele><time>2026-04-25T09:12:02.541Z</time></trkpt><trkpt lat="43.60763" lon="12.4876617"><ele>369.0</ele><time>2026-04-25T09:12:03.54Z</time></trkpt><trkpt lat="43.6074733" lon="12.4879017"><ele>371.6666666666667</ele><time>2026-04-25T09:12:04.54Z</time></trkpt><trkpt lat="43.607315" lon="12.4881317"><ele>374.33333333333337</ele><time>2026-04-25T09:12:05.54Z</time></trkpt><trkpt lat="43.6071667" lon="12.4883383"><ele>377.0</ele><time>2026-04-25T09:12:06.541Z</time></trkpt><trkpt lat="43.6070417" lon="12.488545"><ele>376.0</ele><time>2026-04-25T09:12:07.541Z</time></trkpt><trkpt lat="43.60689" lon="12.4887367"><ele>375.0</ele><time>2026-04-25T09:12:08.54Z</time></trkpt><trkpt lat="43.606735" lon="12.4889033"><ele>374.0</ele><time>2026-04-25T09:12:09.541Z</time></trkpt><trkpt lat="43.60657" lon="12.4890383"><ele>374.0</ele><time>2026-04-25T09:12:10.54Z</time></trkpt><trkpt lat="43.606395" lon="12.48916"><ele>374.0</ele><time>2026-04-25T09:12:11.541Z</time></trkpt><trkpt lat="43.6061833" lon="12.4892683"><ele>374.0</ele><time>2026-04-25T09:12:12.54Z</time></trkpt><trkpt lat="43.6059517" lon="12.4893867"><ele>374.33333333333337</ele><time>2026-04-25T09:12:13.541Z</time></trkpt><trkpt lat="43.6057467" lon="12.4894983"><ele>374.6666666666667</ele><time>2026-04-25T09:12:14.541Z</time></trkpt><trkpt lat="43.605555" lon="12.489615"><ele>375.0</ele><time>2026-04-25T09:12:15.541Z</time></trkpt><trkpt lat="43.6053683" lon="12.4897317"><ele>370.6666666666667</ele><time>2026-04-25T09:12:16.541Z</time></trkpt><trkpt lat="43.60521" lon="12.48984"><ele>366.33333333333337</ele><time>2026-04-25T09:12:17.541Z</time></trkpt><trkpt lat="43.6050567" lon="12.4899483"><ele>362.0</ele><time>2026-04-25T09:12:18.541Z</time></trkpt><trkpt lat="43.6049167" lon="12.4900983"><ele>362.0</ele><time>2026-04-25T09:12:19.541Z</time></trkpt><trkpt lat="43.6047883" lon="12.49028"><ele>362.0</ele><time>2026-04-25T09:12:20.54Z</time></trkpt><trkpt lat="43.6046517" lon="12.4905067"><ele>362.0</ele><time>2026-04-25T09:12:21.54Z</time></trkpt><trkpt lat="43.6045233" lon="12.4907517"><ele>361.6666666666667</ele><time>2026-04-25T09:12:22.541Z</time></trkpt><trkpt lat="43.6044117" lon="12.4909883"><ele>361.3333333333333</ele><time>2026-04-25T09:12:23.541Z</time></trkpt><trkpt lat="43.6043167" lon="12.4912267"><ele>361.0</ele><time>2026-04-25T09:12:24.54Z</time></trkpt><trkpt lat="43.6042117" lon="12.491465"><ele>361.0</ele><time>2026-04-25T09:12:25.541Z</time></trkpt><trkpt lat="43.6040967" lon="12.4916833"><ele>361.0</ele><time>2026-04-25T09:12:26.541Z</time></trkpt><trkpt lat="43.6039917" lon="12.49189"><ele>361.0</ele><time>2026-04-25T09:12:27.541Z</time></trkpt><trkpt lat="43.6038667" lon="12.4920783"><ele>360.66666666666663</ele><time>2026-04-25T09:12:28.541Z</time></trkpt><trkpt lat="43.60374" lon="12.49226"><ele>360.3333333333333</ele><time>2026-04-25T09:12:29.54Z</time></trkpt><trkpt lat="43.6036283" lon="12.4924033"><ele>360.0</ele><time>2026-04-25T09:12:30.541Z</time></trkpt><trkpt lat="43.6035133" lon="12.4925517"><ele>360.0</ele><time>2026-04-25T09:12:31.541Z</time></trkpt><trkpt lat="43.6034183" lon="12.4926867"><ele>360.0</ele><time>2026-04-25T09:12:32.541Z</time></trkpt><trkpt lat="43.60334" lon="12.49281"><ele>360.0</ele><time>2026-04-25T09:12:33.541Z</time></trkpt><trkpt lat="43.60329" lon="12.4929317"><ele>360.0</ele><time>2026-04-25T09:12:34.541Z</time></trkpt><trkpt lat="43.6032333" lon="12.49303"><ele>360.0</ele><time>2026-04-25T09:12:35.541Z</time></trkpt><trkpt lat="43.60319" lon="12.4931167"><ele>360.3333333333333</ele><time>2026-04-25T09:12:36.541Z</time></trkpt><trkpt lat="43.6031567" lon="12.4931917"><ele>360.6666666666667</ele><time>2026-04-25T09:12:37.541Z</time></trkpt><trkpt lat="43.603135" lon="12.493315"><ele>361.0</ele><time>2026-04-25T09:12:39.541Z</time></trkpt><trkpt lat="43.6031433" lon="12.49343"><ele>361.33333333333337</ele><time>2026-04-25T09:12:42.541Z</time></trkpt><trkpt lat="43.6031383" lon="12.4935383"><ele>361.6666666666667</ele><time>2026-04-25T09:12:44.54Z</time></trkpt><trkpt lat="43.6031283" lon="12.4936433"><ele>362.0</ele><time>2026-04-25T09:12:46.54Z</time></trkpt><trkpt lat="43.603185" lon="12.4937383"><ele>362.5</ele><time>2026-04-25T09:12:48.541Z</time></trkpt><trkpt lat="43.6032317" lon="12.493815"><ele>363.0</ele><time>2026-04-25T09:12:49.54Z</time></trkpt><trkpt lat="43.6032783" lon="12.4938883"><ele>363.5</ele><time>2026-04-25T09:12:50.54Z</time></trkpt><trkpt lat="43.60333" lon="12.4939767"><ele>364.0</ele><time>2026-04-25T09:12:51.541Z</time></trkpt><trkpt lat="43.6033817" lon="12.4940683"><ele>364.5</ele><time>2026-04-25T09:12:52.541Z</time></trkpt><trkpt lat="43.60343" lon="12.4941633"><ele>365.0</ele><time>2026-04-25T09:12:53.54Z</time></trkpt><trkpt lat="43.6034783" lon="12.4942617"><ele>365.00000000000006</ele><time>2026-04-25T09:12:54.54Z</time></trkpt><trkpt lat="43.6035333" lon="12.49435"><ele>365.0</ele><time>2026-04-25T09:12:55.541Z</time></trkpt><trkpt lat="43.6035717" lon="12.4944333"><ele>365.0</ele><time>2026-04-25T09:12:56.541Z</time></trkpt><trkpt lat="43.6036033" lon="12.494515"><ele>365.0</ele><time>2026-04-25T09:12:57.541Z</time></trkpt><trkpt lat="43.60363" lon="12.4945983"><ele>365.0</ele><time>2026-04-25T09:12:58.541Z</time></trkpt><trkpt lat="43.6036467" lon="12.4947033"><ele>365.00000000000006</ele><time>2026-04-25T09:13:00.541Z</time></trkpt><trkpt lat="43.6036917" lon="12.4946333"><ele>365.0</ele><time>2026-04-25T09:13:05.54Z</time></trkpt><trkpt lat="43.6036133" lon="12.4945233"><ele>365.0</ele><time>2026-04-25T09:13:07.541Z</time></trkpt><trkpt lat="43.60357" lon="12.4944333"><ele>365.0</ele><time>2026-04-25T09:13:08.541Z</time></trkpt><trkpt lat="43.60352" lon="12.4943383"><ele>365.0</ele><time>2026-04-25T09:13:09.541Z</time></trkpt><trkpt lat="43.6034583" lon="12.4942367"><ele>365.0</ele><time>2026-04-25T09:13:10.541Z</time></trkpt><trkpt lat="43.6033983" lon="12.4941217"><ele>365.0</ele><time>2026-04-25T09:13:11.541Z</time></trkpt><trkpt lat="43.603335" lon="12.494025"><ele>365.00000000000006</ele><time>2026-04-25T09:13:12.541Z</time></trkpt><trkpt lat="43.6032833" lon="12.493925"><ele>365.0</ele><time>2026-04-25T09:13:13.54Z</time></trkpt><trkpt lat="43.603225" lon="12.49384"><ele>365.0</ele><time>2026-04-25T09:13:14.541Z</time></trkpt><trkpt lat="43.60319" lon="12.4937633"><ele>365.0</ele><time>2026-04-25T09:13:15.541Z</time></trkpt><trkpt lat="43.6031517" lon="12.4936733"><ele>365.0</ele><time>2026-04-25T09:13:16.541Z</time></trkpt><trkpt lat="43.6031317" lon="12.4935883"><ele>365.00000000000006</ele><time>2026-04-25T09:13:17.541Z</time></trkpt><trkpt lat="43.603145" lon="12.4934967"><ele>365.0</ele><time>2026-04-25T09:13:18.541Z</time></trkpt><trkpt lat="43.6031583" lon="12.49339"><ele>364.4</ele><time>2026-04-25T09:13:19.541Z</time></trkpt><trkpt lat="43.6031833" lon="12.493295"><ele>363.8</ele><time>2026-04-25T09:13:20.541Z</time></trkpt><trkpt lat="43.6032133" lon="12.49321"><ele>363.20000000000005</ele><time>2026-04-25T09:13:21.541Z</time></trkpt><trkpt lat="43.6032817" lon="12.49313"><ele>362.6</ele><time>2026-04-25T09:13:23.541Z</time></trkpt><trkpt lat="43.6033517" lon="12.4931983"><ele>362.0</ele><time>2026-04-25T09:13:25.541Z</time></trkpt><trkpt lat="43.6034617" lon="12.4933183"><ele>362.0</ele><time>2026-04-25T09:13:27.541Z</time></trkpt><trkpt lat="43.6035383" lon="12.4933817"><ele>362.0</ele><time>2026-04-25T09:13:28.541Z</time></trkpt><trkpt lat="43.6036383" lon="12.493425"><ele>362.0</ele><time>2026-04-25T09:13:29.54Z</time></trkpt><trkpt lat="43.603745" lon="12.4934683"><ele>362.0</ele><time>2026-04-25T09:13:30.541Z</time></trkpt><trkpt lat="43.6038683" lon="12.4934783"><ele>362.0</ele><time>2026-04-25T09:13:31.54Z</time></trkpt><trkpt lat="43.603965" lon="12.4934883"><ele>364.25</ele><time>2026-04-25T09:13:32.541Z</time></trkpt><trkpt lat="43.6040483" lon="12.4935333"><ele>366.5</ele><time>2026-04-25T09:13:33.541Z</time></trkpt><trkpt lat="43.6041317" lon="12.4936267"><ele>368.75</ele><time>2026-04-25T09:13:34.54Z</time></trkpt><trkpt lat="43.604235" lon="12.49376"><ele>371.0</ele><time>2026-04-25T09:13:35.541Z</time></trkpt><trkpt lat="43.6043567" lon="12.493925"><ele>374.33333333333337</ele><time>2026-04-25T09:13:36.541Z</time></trkpt><trkpt lat="43.6044967" lon="12.4941"><ele>377.6666666666667</ele><time>2026-04-25T09:13:37.541Z</time></trkpt><trkpt lat="43.6046283" lon="12.4942767"><ele>381.0</ele><time>2026-04-25T09:13:38.54Z</time></trkpt><trkpt lat="43.6047567" lon="12.494445"><ele>382.33333333333337</ele><time>2026-04-25T09:13:39.541Z</time></trkpt><trkpt lat="43.604875" lon="12.4946233"><ele>383.6666666666667</ele><time>2026-04-25T09:13:40.541Z</time></trkpt><trkpt lat="43.6049817" lon="12.4947933"><ele>385.0</ele><time>2026-04-25T09:13:41.54Z</time></trkpt><trkpt lat="43.6050733" lon="12.4949367"><ele>385.0</ele><time>2026-04-25T09:13:42.541Z</time></trkpt><trkpt lat="43.6051567" lon="12.4950583"><ele>385.0</ele><time>2026-04-25T09:13:43.541Z</time></trkpt><trkpt lat="43.6052167" lon="12.4951583"><ele>385.0</ele><time>2026-04-25T09:13:44.541Z</time></trkpt><trkpt lat="43.6052383" lon="12.4952517"><ele>385.0</ele><time>2026-04-25T09:13:45.541Z</time></trkpt><trkpt lat="43.6052417" lon="12.4953533"><ele>385.0</ele><time>2026-04-25T09:13:46.54Z</time></trkpt><trkpt lat="43.605215" lon="12.4954817"><ele>388.25</ele><time>2026-04-25T09:13:47.541Z</time></trkpt><trkpt lat="43.6051733" lon="12.4956417"><ele>391.5</ele><time>2026-04-25T09:13:48.541Z</time></trkpt><trkpt lat="43.6051483" lon="12.4958217"><ele>394.75</ele><time>2026-04-25T09:13:49.54Z</time></trkpt><trkpt lat="43.6051567" lon="12.496015"><ele>398.0</ele><time>2026-04-25T09:13:50.541Z</time></trkpt><trkpt lat="43.6051817" lon="12.4962217"><ele>401.66666666666663</ele><time>2026-04-25T09:13:51.541Z</time></trkpt><trkpt lat="43.6052283" lon="12.49643"><ele>405.33333333333337</ele><time>2026-04-25T09:13:52.541Z</time></trkpt><trkpt lat="43.60529" lon="12.4966567"><ele>409.0</ele><time>2026-04-25T09:13:53.541Z</time></trkpt><trkpt lat="43.6053683" lon="12.4969067"><ele>409.0</ele><time>2026-04-25T09:13:54.541Z</time></trkpt><trkpt lat="43.6054417" lon="12.497175"><ele>409.0</ele><time>2026-04-25T09:13:55.541Z</time></trkpt><trkpt lat="43.6054933" lon="12.4974283"><ele>409.0</ele><time>2026-04-25T09:13:56.541Z</time></trkpt><trkpt lat="43.605555" lon="12.4976433"><ele>409.0</ele><time>2026-04-25T09:13:57.541Z</time></trkpt><trkpt lat="43.60562" lon="12.49784"><ele>409.0</ele><time>2026-04-25T09:13:58.541Z</time></trkpt><trkpt lat="43.6056917" lon="12.498005"><ele>409.0</ele><time>2026-04-25T09:13:59.541Z</time></trkpt><trkpt lat="43.6057417" lon="12.4981683"><ele>409.0</ele><time>2026-04-25T09:14:00.541Z</time></trkpt><trkpt lat="43.60579" lon="12.4983033"><ele>411.00000000000006</ele><time>2026-04-25T09:14:01.541Z</time></trkpt><trkpt lat="43.6058217" lon="12.4984317"><ele>413.0</ele><time>2026-04-25T09:14:02.541Z</time></trkpt><trkpt lat="43.6058317" lon="12.4985717"><ele>415.0</ele><time>2026-04-25T09:14:03.541Z</time></trkpt><trkpt lat="43.6058267" lon="12.4987033"><ele>417.0</ele><time>2026-04-25T09:14:04.54Z</time></trkpt><trkpt lat="43.6058233" lon="12.4988117"><ele>419.00000000000006</ele><time>2026-04-25T09:14:05.54Z</time></trkpt><trkpt lat="43.6058233" lon="12.4989083"><ele>421.0</ele><time>2026-04-25T09:14:07.541Z</time></trkpt><trkpt lat="43.6057983" lon="12.4989983"><ele>422.6666666666667</ele><time>2026-04-25T09:14:09.541Z</time></trkpt><trkpt lat="43.6057667" lon="12.4991083"><ele>424.33333333333337</ele><time>2026-04-25T09:14:11.54Z</time></trkpt><trkpt lat="43.6057967" lon="12.4991917"><ele>426.0</ele><time>2026-04-25T09:14:19.541Z</time></trkpt><trkpt lat="43.60586" lon="12.4992783"><ele>427.66666666666663</ele><time>2026-04-25T09:14:21.54Z</time></trkpt><trkpt lat="43.6058867" lon="12.4994"><ele>429.3333333333333</ele><time>2026-04-25T09:14:23.541Z</time></trkpt><trkpt lat="43.60589" lon="12.499515"><ele>431.0</ele><time>2026-04-25T09:14:25.541Z</time></trkpt><trkpt lat="43.605905" lon="12.499645"><ele>434.0</ele><time>2026-04-25T09:14:27.541Z</time></trkpt><trkpt lat="43.6059583" lon="12.4997883"><ele>437.0</ele><time>2026-04-25T09:14:29.541Z</time></trkpt><trkpt lat="43.6060017" lon="12.49987"><ele>440.0</ele><time>2026-04-25T09:14:30.54Z</time></trkpt><trkpt lat="43.6060417" lon="12.49994"><ele>443.0</ele><time>2026-04-25T09:14:31.541Z</time></trkpt><trkpt lat="43.606055" lon="12.500055"><ele>446.0</ele><time>2026-04-25T09:14:33.54Z</time></trkpt><trkpt lat="43.6059517" lon="12.5001433"><ele>446.0</ele><time>2026-04-25T09:14:35.541Z</time></trkpt><trkpt lat="43.6058583" lon="12.50018"><ele>446.0</ele><time>2026-04-25T09:14:36.541Z</time></trkpt><trkpt lat="43.6057467" lon="12.5002183"><ele>446.0</ele><time>2026-04-25T09:14:37.541Z</time></trkpt><trkpt lat="43.6056217" lon="12.5002933"><ele>446.0</ele><time>2026-04-25T09:14:38.541Z</time></trkpt><trkpt lat="43.60551" lon="12.500385"><ele>449.0</ele><time>2026-04-25T09:14:39.541Z</time></trkpt><trkpt lat="43.6054183" lon="12.5005"><ele>452.0</ele><time>2026-04-25T09:14:40.541Z</time></trkpt><trkpt lat="43.60532" lon="12.5006333"><ele>455.0</ele><time>2026-04-25T09:14:41.54Z</time></trkpt><trkpt lat="43.6052317" lon="12.5007433"><ele>458.0</ele><time>2026-04-25T09:14:42.541Z</time></trkpt><trkpt lat="43.605135" lon="12.5008367"><ele>458.0</ele><time>2026-04-25T09:14:43.54Z</time></trkpt><trkpt lat="43.6050467" lon="12.5009017"><ele>458.0</ele><time>2026-04-25T09:14:44.541Z</time></trkpt><trkpt lat="43.6049417" lon="12.50095"><ele>458.0</ele><time>2026-04-25T09:14:45.54Z</time></trkpt><trkpt lat="43.6048267" lon="12.50101"><ele>458.0</ele><time>2026-04-25T09:14:46.541Z</time></trkpt><trkpt lat="43.6047117" lon="12.5010817"><ele>458.0</ele><time>2026-04-25T09:14:47.541Z</time></trkpt><trkpt lat="43.6046083" lon="12.5011367"><ele>458.0</ele><time>2026-04-25T09:14:48.54Z</time></trkpt><trkpt lat="43.604495" lon="12.50119"><ele>458.0</ele><time>2026-04-25T09:14:49.541Z</time></trkpt><trkpt lat="43.6043733" lon="12.5012033"><ele>458.0</ele><time>2026-04-25T09:14:50.541Z</time></trkpt><trkpt lat="43.604245" lon="12.5012133"><ele>460.2</ele><time>2026-04-25T09:14:51.541Z</time></trkpt><trkpt lat="43.6041367" lon="12.5012167"><ele>462.4</ele><time>2026-04-25T09:14:52.541Z</time></trkpt><trkpt lat="43.6040633" lon="12.5012083"><ele>464.59999999999997</ele><time>2026-04-25T09:14:53.541Z</time></trkpt><trkpt lat="43.6039483" lon="12.50124"><ele>466.79999999999995</ele><time>2026-04-25T09:14:55.541Z</time></trkpt><trkpt lat="43.6038767" lon="12.5013733"><ele>469.0</ele><time>2026-04-25T09:14:57.54Z</time></trkpt><trkpt lat="43.603845" lon="12.5014833"><ele>469.42857142857144</ele><time>2026-04-25T09:14:58.541Z</time></trkpt><trkpt lat="43.6038133" lon="12.501605"><ele>469.8571428571429</ele><time>2026-04-25T09:14:59.541Z</time></trkpt><trkpt lat="43.6037917" lon="12.5017133"><ele>470.2857142857143</ele><time>2026-04-25T09:15:00.541Z</time></trkpt><trkpt lat="43.6037683" lon="12.5018083"><ele>470.7142857142857</ele><time>2026-04-25T09:15:01.541Z</time></trkpt><trkpt lat="43.6037567" lon="12.5018983"><ele>471.14285714285717</ele><time>2026-04-25T09:15:02.541Z</time></trkpt><trkpt lat="43.603755" lon="12.5019883"><ele>471.57142857142856</ele><time>2026-04-25T09:15:03.54Z</time></trkpt><trkpt lat="43.603775" lon="12.502075"><ele>472.0</ele><time>2026-04-25T09:15:04.54Z</time></trkpt><trkpt lat="43.6037583" lon="12.50217"><ele>471.6</ele><time>2026-04-25T09:15:05.54Z</time></trkpt><trkpt lat="43.6037283" lon="12.5023"><ele>471.20000000000005</ele><time>2026-04-25T09:15:06.541Z</time></trkpt><trkpt lat="43.6036833" lon="12.50243"><ele>470.8</ele><time>2026-04-25T09:15:07.54Z</time></trkpt><trkpt lat="43.6036367" lon="12.502575"><ele>470.4</ele><time>2026-04-25T09:15:08.541Z</time></trkpt><trkpt lat="43.603615" lon="12.5027"><ele>470.0</ele><time>2026-04-25T09:15:09.541Z</time></trkpt><trkpt lat="43.603595" lon="12.50282"><ele>470.6</ele><time>2026-04-25T09:15:10.54Z</time></trkpt><trkpt lat="43.603585" lon="12.50294"><ele>471.2</ele><time>2026-04-25T09:15:11.54Z</time></trkpt><trkpt lat="43.603545" lon="12.50305"><ele>471.79999999999995</ele><time>2026-04-25T09:15:12.541Z</time></trkpt><trkpt lat="43.6034733" lon="12.503155"><ele>472.4</ele><time>2026-04-25T09:15:13.541Z</time></trkpt><trkpt lat="43.6034217" lon="12.5032633"><ele>473.0</ele><time>2026-04-25T09:15:14.54Z</time></trkpt><trkpt lat="43.6033917" lon="12.5033683"><ele>472.99999999999994</ele><time>2026-04-25T09:15:15.541Z</time></trkpt><trkpt lat="43.6033383" lon="12.5034567"><ele>473.0</ele><time>2026-04-25T09:15:16.541Z</time></trkpt><trkpt lat="43.6032817" lon="12.50354"><ele>473.0</ele><time>2026-04-25T09:15:17.541Z</time></trkpt><trkpt lat="43.6032033" lon="12.5036067"><ele>473.0</ele><time>2026-04-25T09:15:18.541Z</time></trkpt><trkpt lat="43.60312" lon="12.5036517"><ele>472.99999999999994</ele><time>2026-04-25T09:15:19.54Z</time></trkpt><trkpt lat="43.6030383" lon="12.5036883"><ele>473.0</ele><time>2026-04-25T09:15:20.54Z</time></trkpt><trkpt lat="43.6029467" lon="12.5037183"><ele>472.0</ele><time>2026-04-25T09:15:21.54Z</time></trkpt><trkpt lat="43.6028533" lon="12.50375"><ele>470.99999999999994</ele><time>2026-04-25T09:15:22.54Z</time></trkpt><trkpt lat="43.6027567" lon="12.503785"><ele>469.99999999999994</ele><time>2026-04-25T09:15:23.541Z</time></trkpt><trkpt lat="43.602675" lon="12.5038367"><ele>469.0</ele><time>2026-04-25T09:15:24.541Z</time></trkpt><trkpt lat="43.602605" lon="12.5038883"><ele>468.0</ele><time>2026-04-25T09:15:25.541Z</time></trkpt><trkpt lat="43.60253" lon="12.5039683"><ele>468.0</ele><time>2026-04-25T09:15:26.541Z</time></trkpt><trkpt lat="43.6024533" lon="12.5040667"><ele>467.99999999999994</ele><time>2026-04-25T09:15:27.541Z</time></trkpt><trkpt lat="43.60238" lon="12.5041883"><ele>467.99999999999994</ele><time>2026-04-25T09:15:28.541Z</time></trkpt><trkpt lat="43.6023033" lon="12.50431"><ele>468.0</ele><time>2026-04-25T09:15:29.541Z</time></trkpt><trkpt lat="43.6022167" lon="12.5044083"><ele>468.0</ele><time>2026-04-25T09:15:30.54Z</time></trkpt><trkpt lat="43.6021183" lon="12.5045"><ele>468.0</ele><time>2026-04-25T09:15:31.541Z</time></trkpt><trkpt lat="43.6020133" lon="12.504575"><ele>467.99999999999994</ele><time>2026-04-25T09:15:32.54Z</time></trkpt><trkpt lat="43.6019167" lon="12.5046417"><ele>467.99999999999994</ele><time>2026-04-25T09:15:33.541Z</time></trkpt><trkpt lat="43.601825" lon="12.5046867"><ele>468.0</ele><time>2026-04-25T09:15:34.54Z</time></trkpt><trkpt lat="43.6017083" lon="12.5047067"><ele>468.0</ele><time>2026-04-25T09:15:35.541Z</time></trkpt><trkpt lat="43.6016267" lon="12.5047167"><ele>468.1666666666667</ele><time>2026-04-25T09:15:36.54Z</time></trkpt><trkpt lat="43.6015567" lon="12.5047367"><ele>468.33333333333337</ele><time>2026-04-25T09:15:37.541Z</time></trkpt><trkpt lat="43.6014967" lon="12.5048283"><ele>468.5</ele><time>2026-04-25T09:15:39.54Z</time></trkpt><trkpt lat="43.6015317" lon="12.50498"><ele>468.6666666666667</ele><time>2026-04-25T09:15:41.54Z</time></trkpt><trkpt lat="43.6015517" lon="12.50508"><ele>468.83333333333337</ele><time>2026-04-25T09:15:42.541Z</time></trkpt><trkpt lat="43.60156" lon="12.50517"><ele>469.0</ele><time>2026-04-25T09:15:43.541Z</time></trkpt><trkpt lat="43.6015333" lon="12.5052533"><ele>469.00000000000006</ele><time>2026-04-25T09:15:44.541Z</time></trkpt><trkpt lat="43.6014717" lon="12.5053517"><ele>469.0</ele><time>2026-04-25T09:15:45.541Z</time></trkpt><trkpt lat="43.6014233" lon="12.50546"><ele>469.0</ele><time>2026-04-25T09:15:46.541Z</time></trkpt><trkpt lat="43.6013683" lon="12.5055517"><ele>469.0</ele><time>2026-04-25T09:15:47.541Z</time></trkpt><trkpt lat="43.601315" lon="12.5056167"><ele>469.00000000000006</ele><time>2026-04-25T09:15:48.541Z</time></trkpt><trkpt lat="43.60125" lon="12.5056633"><ele>469.0</ele><time>2026-04-25T09:15:49.541Z</time></trkpt><trkpt lat="43.601185" lon="12.5056783"><ele>468.6</ele><time>2026-04-25T09:15:50.541Z</time></trkpt><trkpt lat="43.60108" lon="12.5056583"><ele>468.2</ele><time>2026-04-25T09:15:51.54Z</time></trkpt><trkpt lat="43.6009667" lon="12.5056467"><ele>467.80000000000007</ele><time>2026-04-25T09:15:52.541Z</time></trkpt><trkpt lat="43.6008683" lon="12.5056367"><ele>467.40000000000003</ele><time>2026-04-25T09:15:53.541Z</time></trkpt><trkpt lat="43.6007717" lon="12.5056167"><ele>467.0</ele><time>2026-04-25T09:15:54.541Z</time></trkpt><trkpt lat="43.6006783" lon="12.50558"><ele>466.99999999999994</ele><time>2026-04-25T09:15:55.541Z</time></trkpt><trkpt lat="43.6005867" lon="12.5055233"><ele>467.0</ele><time>2026-04-25T09:15:56.54Z</time></trkpt><trkpt lat="43.6005267" lon="12.5054683"><ele>467.0</ele><time>2026-04-25T09:15:57.54Z</time></trkpt><trkpt lat="43.6004717" lon="12.5053917"><ele>467.0</ele><time>2026-04-25T09:15:58.54Z</time></trkpt><trkpt lat="43.6004183" lon="12.5053383"><ele>466.99999999999994</ele><time>2026-04-25T09:15:59.541Z</time></trkpt><trkpt lat="43.6003617" lon="12.5052933"><ele>467.0</ele><time>2026-04-25T09:16:00.541Z</time></trkpt><trkpt lat="43.6002617" lon="12.5052183"><ele>462.0</ele><time>2026-04-25T09:16:02.541Z</time></trkpt><trkpt lat="43.600185" lon="12.5051133"><ele>457.00000000000006</ele><time>2026-04-25T09:16:04.541Z</time></trkpt><trkpt lat="43.600095" lon="12.5050467"><ele>452.00000000000006</ele><time>2026-04-25T09:16:06.541Z</time></trkpt><trkpt lat="43.6000017" lon="12.505015"><ele>447.0</ele><time>2026-04-25T09:16:08.541Z</time></trkpt><trkpt lat="43.5999367" lon="12.5050583"><ele>442.0</ele><time>2026-04-25T09:16:11.541Z</time></trkpt><trkpt lat="43.6000317" lon="12.5050883"><ele>442.00000000000006</ele><time>2026-04-25T09:16:15.541Z</time></trkpt><trkpt lat="43.6001433" lon="12.5050933"><ele>442.0</ele><time>2026-04-25T09:16:17.54Z</time></trkpt><trkpt lat="43.6002" lon="12.5051417"><ele>442.0</ele><time>2026-04-25T09:16:18.541Z</time></trkpt><trkpt lat="43.6002517" lon="12.50522"><ele>442.0</ele><time>2026-04-25T09:16:19.541Z</time></trkpt><trkpt lat="43.6002917" lon="12.505295"><ele>442.00000000000006</ele><time>2026-04-25T09:16:20.541Z</time></trkpt><trkpt lat="43.6003033" lon="12.5054117"><ele>442.0</ele><time>2026-04-25T09:16:22.541Z</time></trkpt><trkpt lat="43.60024" lon="12.50558"><ele>443.40000000000003</ele><time>2026-04-25T09:16:24.541Z</time></trkpt><trkpt lat="43.6001783" lon="12.50569"><ele>444.80000000000007</ele><time>2026-04-25T09:16:25.54Z</time></trkpt><trkpt lat="43.6001133" lon="12.5058017"><ele>446.2</ele><time>2026-04-25T09:16:26.54Z</time></trkpt><trkpt lat="43.6000367" lon="12.505895"><ele>447.6</ele><time>2026-04-25T09:16:27.541Z</time></trkpt><trkpt lat="43.5999583" lon="12.5059917"><ele>449.0</ele><time>2026-04-25T09:16:28.541Z</time></trkpt><trkpt lat="43.5998717" lon="12.50608"><ele>448.99999999999994</ele><time>2026-04-25T09:16:29.541Z</time></trkpt><trkpt lat="43.59979" lon="12.5061483"><ele>449.0</ele><time>2026-04-25T09:16:30.54Z</time></trkpt><trkpt lat="43.5997133" lon="12.5062083"><ele>449.0</ele><time>2026-04-25T09:16:31.54Z</time></trkpt><trkpt lat="43.5996533" lon="12.506285"><ele>449.0</ele><time>2026-04-25T09:16:32.541Z</time></trkpt><trkpt lat="43.59959" lon="12.506365"><ele>448.99999999999994</ele><time>2026-04-25T09:16:33.541Z</time></trkpt><trkpt lat="43.5995417" lon="12.5064683"><ele>449.0</ele><time>2026-04-25T09:16:34.54Z</time></trkpt><trkpt lat="43.5994933" lon="12.50659"><ele>445.6</ele><time>2026-04-25T09:16:35.54Z</time></trkpt><trkpt lat="43.59947" lon="12.5067333"><ele>442.2</ele><time>2026-04-25T09:16:36.541Z</time></trkpt><trkpt lat="43.5994483" lon="12.5068817"><ele>438.80000000000007</ele><time>2026-04-25T09:16:37.54Z</time></trkpt><trkpt lat="43.5994583" lon="12.5070233"><ele>435.40000000000003</ele><time>2026-04-25T09:16:38.541Z</time></trkpt><trkpt lat="43.5994633" lon="12.5071617"><ele>432.0</ele><time>2026-04-25T09:16:39.54Z</time></trkpt><trkpt lat="43.599445" lon="12.50731"><ele>432.0</ele><time>2026-04-25T09:16:40.541Z</time></trkpt><trkpt lat="43.5994333" lon="12.5074633"><ele>432.00000000000006</ele><time>2026-04-25T09:16:41.541Z</time></trkpt><trkpt lat="43.5994233" lon="12.507625"><ele>432.00000000000006</ele><time>2026-04-25T09:16:42.54Z</time></trkpt><trkpt lat="43.5994367" lon="12.5077717"><ele>432.0</ele><time>2026-04-25T09:16:43.541Z</time></trkpt><trkpt lat="43.5994267" lon="12.5078883"><ele>432.0</ele><time>2026-04-25T09:16:44.541Z</time></trkpt><trkpt lat="43.5994417" lon="12.5080333"><ele>436.0</ele><time>2026-04-25T09:16:46.541Z</time></trkpt><trkpt lat="43.59951" lon="12.5080733"><ele>440.00000000000006</ele><time>2026-04-25T09:16:48.541Z</time></trkpt><trkpt lat="43.5996" lon="12.5080583"><ele>444.00000000000006</ele><time>2026-04-25T09:16:49.541Z</time></trkpt><trkpt lat="43.5997067" lon="12.5080383"><ele>448.0</ele><time>2026-04-25T09:16:50.541Z</time></trkpt><trkpt lat="43.5998167" lon="12.508"><ele>452.0</ele><time>2026-04-25T09:16:51.541Z</time></trkpt><trkpt lat="43.599925" lon="12.508005"><ele>452.0</ele><time>2026-04-25T09:16:52.541Z</time></trkpt><trkpt lat="43.6000433" lon="12.5080367"><ele>452.0</ele><time>2026-04-25T09:16:53.541Z</time></trkpt><trkpt lat="43.6001667" lon="12.50809"><ele>452.0</ele><time>2026-04-25T09:16:54.541Z</time></trkpt><trkpt lat="43.6002783" lon="12.5081517"><ele>452.0</ele><time>2026-04-25T09:16:55.54Z</time></trkpt><trkpt lat="43.6003667" lon="12.5082283"><ele>460.0</ele><time>2026-04-25T09:16:56.541Z</time></trkpt><trkpt lat="43.6004467" lon="12.5083533"><ele>468.0</ele><time>2026-04-25T09:16:57.541Z</time></trkpt><trkpt lat="43.6005183" lon="12.5084867"><ele>476.0</ele><time>2026-04-25T09:16:58.54Z</time></trkpt><trkpt lat="43.60059" lon="12.50862"><ele>484.0</ele><time>2026-04-25T09:16:59.54Z</time></trkpt><trkpt lat="43.6006667" lon="12.50873"><ele>481.0</ele><time>2026-04-25T09:17:00.541Z</time></trkpt><trkpt lat="43.6007533" lon="12.508825"><ele>478.0</ele><time>2026-04-25T09:17:01.541Z</time></trkpt><trkpt lat="43.6008417" lon="12.5089267"><ele>475.0</ele><time>2026-04-25T09:17:02.541Z</time></trkpt><trkpt lat="43.600925" lon="12.509"><ele>472.0</ele><time>2026-04-25T09:17:03.541Z</time></trkpt><trkpt lat="43.600975" lon="12.5090867"><ele>469.0</ele><time>2026-04-25T09:17:04.541Z</time></trkpt><trkpt lat="43.6009983" lon="12.5092167"><ele>469.0</ele><time>2026-04-25T09:17:06.541Z</time></trkpt><trkpt lat="43.60092" lon="12.5093367"><ele>469.0</ele><time>2026-04-25T09:17:08.541Z</time></trkpt><trkpt lat="43.60082" lon="12.5093433"><ele>469.0</ele><time>2026-04-25T09:17:09.541Z</time></trkpt><trkpt lat="43.60072" lon="12.5093417"><ele>469.0</ele><time>2026-04-25T09:17:10.541Z</time></trkpt><trkpt lat="43.6006117" lon="12.5093633"><ele>469.0</ele><time>2026-04-25T09:17:11.541Z</time></trkpt><trkpt lat="43.60051" lon="12.5094"><ele>469.00000000000006</ele><time>2026-04-25T09:17:12.54Z</time></trkpt><trkpt lat="43.6004283" lon="12.5094317"><ele>469.0</ele><time>2026-04-25T09:17:13.541Z</time></trkpt><trkpt lat="43.600355" lon="12.5094317"><ele>469.0</ele><time>2026-04-25T09:17:14.541Z</time></trkpt><trkpt lat="43.60028" lon="12.5093917"><ele>469.0</ele><time>2026-04-25T09:17:15.541Z</time></trkpt><trkpt lat="43.60021" lon="12.5093167"><ele>469.00000000000006</ele><time>2026-04-25T09:17:16.541Z</time></trkpt><trkpt lat="43.6001433" lon="12.5092383"><ele>469.0</ele><time>2026-04-25T09:17:17.54Z</time></trkpt><trkpt lat="43.60007" lon="12.5091767"><ele>467.0</ele><time>2026-04-25T09:17:18.541Z</time></trkpt><trkpt lat="43.5999767" lon="12.5091467"><ele>465.0</ele><time>2026-04-25T09:17:19.54Z</time></trkpt><trkpt lat="43.5998517" lon="12.5091317"><ele>463.0</ele><time>2026-04-25T09:17:20.541Z</time></trkpt><trkpt lat="43.5997183" lon="12.5091333"><ele>461.0</ele><time>2026-04-25T09:17:21.541Z</time></trkpt><trkpt lat="43.5995667" lon="12.5091483"><ele>462.25</ele><time>2026-04-25T09:17:22.541Z</time></trkpt><trkpt lat="43.5994267" lon="12.5091783"><ele>463.5</ele><time>2026-04-25T09:17:23.541Z</time></trkpt><trkpt lat="43.5993" lon="12.5092133"><ele>464.75</ele><time>2026-04-25T09:17:24.541Z</time></trkpt><trkpt lat="43.5991567" lon="12.509255"><ele>466.0</ele><time>2026-04-25T09:17:25.54Z</time></trkpt><trkpt lat="43.59903" lon="12.509275"><ele>466.0</ele><time>2026-04-25T09:17:26.541Z</time></trkpt><trkpt lat="43.5989133" lon="12.5092617"><ele>466.0</ele><time>2026-04-25T09:17:27.54Z</time></trkpt><trkpt lat="43.5988083" lon="12.5092367"><ele>466.0</ele><time>2026-04-25T09:17:28.541Z</time></trkpt><trkpt lat="43.5987283" lon="12.509215"><ele>466.0</ele><time>2026-04-25T09:17:29.54Z</time></trkpt><trkpt lat="43.59864" lon="12.5092317"><ele>466.0</ele><time>2026-04-25T09:17:31.541Z</time></trkpt><trkpt lat="43.5986567" lon="12.5093283"><ele>466.0</ele><time>2026-04-25T09:17:33.54Z</time></trkpt><trkpt lat="43.5987833" lon="12.5093983"><ele>466.0</ele><time>2026-04-25T09:17:35.541Z</time></trkpt><trkpt lat="43.59888" lon="12.5094267"><ele>466.0</ele><time>2026-04-25T09:17:36.54Z</time></trkpt><trkpt lat="43.5989917" lon="12.50945"><ele>466.0</ele><time>2026-04-25T09:17:37.541Z</time></trkpt><trkpt lat="43.5991283" lon="12.5094717"><ele>466.0</ele><time>2026-04-25T09:17:38.541Z</time></trkpt><trkpt lat="43.59925" lon="12.5094983"><ele>466.0</ele><time>2026-04-25T09:17:39.541Z</time></trkpt><trkpt lat="43.599395" lon="12.509515"><ele>466.0</ele><time>2026-04-25T09:17:40.54Z</time></trkpt><trkpt lat="43.5995067" lon="12.5095517"><ele>466.0</ele><time>2026-04-25T09:17:41.54Z</time></trkpt><trkpt lat="43.59961" lon="12.5096067"><ele>470.20000000000005</ele><time>2026-04-25T09:17:42.54Z</time></trkpt><trkpt lat="43.5997167" lon="12.5096667"><ele>474.40000000000003</ele><time>2026-04-25T09:17:43.541Z</time></trkpt><trkpt lat="43.5998167" lon="12.5097333"><ele>478.6</ele><time>2026-04-25T09:17:44.54Z</time></trkpt><trkpt lat="43.5999017" lon="12.5098"><ele>482.8</ele><time>2026-04-25T09:17:45.54Z</time></trkpt><trkpt lat="43.59997" lon="12.5098917"><ele>487.0</ele><time>2026-04-25T09:17:46.541Z</time></trkpt><trkpt lat="43.6000467" lon="12.51002"><ele>487.0</ele><time>2026-04-25T09:17:47.541Z</time></trkpt><trkpt lat="43.6001217" lon="12.5101433"><ele>487.0</ele><time>2026-04-25T09:17:48.541Z</time></trkpt><trkpt lat="43.6002033" lon="12.51026"><ele>487.0</ele><time>2026-04-25T09:17:49.541Z</time></trkpt><trkpt lat="43.6002917" lon="12.5103417"><ele>487.0</ele><time>2026-04-25T09:17:50.541Z</time></trkpt><trkpt lat="43.6003983" lon="12.510395"><ele>486.0</ele><time>2026-04-25T09:17:51.54Z</time></trkpt><trkpt lat="43.600505" lon="12.5104317"><ele>485.0</ele><time>2026-04-25T09:17:52.541Z</time></trkpt><trkpt lat="43.600645" lon="12.5104367"><ele>484.0</ele><time>2026-04-25T09:17:53.541Z</time></trkpt><trkpt lat="43.6007617" lon="12.5103983"><ele>483.0</ele><time>2026-04-25T09:17:54.541Z</time></trkpt><trkpt lat="43.6008717" lon="12.5103567"><ele>483.0</ele><time>2026-04-25T09:17:55.541Z</time></trkpt><trkpt lat="43.6009767" lon="12.51033"><ele>482.99999999999994</ele><time>2026-04-25T09:17:56.541Z</time></trkpt><trkpt lat="43.6010767" lon="12.5103183"><ele>482.99999999999994</ele><time>2026-04-25T09:17:57.54Z</time></trkpt><trkpt lat="43.6012" lon="12.5103133"><ele>483.0</ele><time>2026-04-25T09:17:58.541Z</time></trkpt><trkpt lat="43.6013167" lon="12.5103333"><ele>483.0</ele><time>2026-04-25T09:17:59.54Z</time></trkpt><trkpt lat="43.6014683" lon="12.51036"><ele>485.59999999999997</ele><time>2026-04-25T09:18:00.541Z</time></trkpt><trkpt lat="43.6016" lon="12.5103833"><ele>488.19999999999993</ele><time>2026-04-25T09:18:01.541Z</time></trkpt><trkpt lat="43.60171" lon="12.5104017"><ele>490.8</ele><time>2026-04-25T09:18:02.54Z</time></trkpt><trkpt lat="43.6018017" lon="12.510395"><ele>493.4</ele><time>2026-04-25T09:18:03.541Z</time></trkpt><trkpt lat="43.6018683" lon="12.510395"><ele>496.0</ele><time>2026-04-25T09:18:04.541Z</time></trkpt><trkpt lat="43.6019317" lon="12.5104933"><ele>501.20000000000005</ele><time>2026-04-25T09:18:06.541Z</time></trkpt><trkpt lat="43.60187" lon="12.5105867"><ele>506.40000000000003</ele><time>2026-04-25T09:18:08.541Z</time></trkpt><trkpt lat="43.6017983" lon="12.510615"><ele>511.6</ele><time>2026-04-25T09:18:09.541Z</time></trkpt><trkpt lat="43.601705" lon="12.510625"><ele>516.8000000000001</ele><time>2026-04-25T09:18:10.541Z</time></trkpt><trkpt lat="43.60158" lon="12.5106283"><ele>522.0</ele><time>2026-04-25T09:18:11.541Z</time></trkpt><trkpt lat="43.60144" lon="12.51064"><ele>522.0</ele><time>2026-04-25T09:18:12.541Z</time></trkpt><trkpt lat="43.6012917" lon="12.5106683"><ele>522.0</ele><time>2026-04-25T09:18:13.541Z</time></trkpt><trkpt lat="43.6011683" lon="12.5106917"><ele>522.0</ele><time>2026-04-25T09:18:14.541Z</time></trkpt><trkpt lat="43.6011" lon="12.5106933"><ele>522.0</ele><time>2026-04-25T09:18:15.541Z</time></trkpt><trkpt lat="43.6010283" lon="12.51071"><ele>522.0</ele><time>2026-04-25T09:18:16.54Z</time></trkpt><trkpt lat="43.600915" lon="12.5107967"><ele>521.1666666666666</ele><time>2026-04-25T09:18:18.541Z</time></trkpt><trkpt lat="43.6008583" lon="12.5108883"><ele>520.3333333333334</ele><time>2026-04-25T09:18:19.541Z</time></trkpt><trkpt lat="43.6007967" lon="12.5109717"><ele>519.5</ele><time>2026-04-25T09:18:20.541Z</time></trkpt><trkpt lat="43.6007333" lon="12.5110167"><ele>518.6666666666667</ele><time>2026-04-25T09:18:21.541Z</time></trkpt><trkpt lat="43.6006333" lon="12.511035"><ele>517.8333333333334</ele><time>2026-04-25T09:18:22.54Z</time></trkpt><trkpt lat="43.6005367" lon="12.5110233"><ele>517.0</ele><time>2026-04-25T09:18:23.541Z</time></trkpt><trkpt lat="43.6004467" lon="12.5109917"><ele>517.0</ele><time>2026-04-25T09:18:24.541Z</time></trkpt><trkpt lat="43.6003833" lon="12.51096"><ele>517.0</ele><time>2026-04-25T09:18:25.54Z</time></trkpt><trkpt lat="43.6003083" lon="12.5109667"><ele>517.0</ele><time>2026-04-25T09:18:27.54Z</time></trkpt><trkpt lat="43.600315" lon="12.511055"><ele>517.0</ele><time>2026-04-25T09:18:29.541Z</time></trkpt><trkpt lat="43.6003933" lon="12.5111467"><ele>517.0</ele><time>2026-04-25T09:18:31.541Z</time></trkpt><trkpt lat="43.600515" lon="12.5112217"><ele>517.0</ele><time>2026-04-25T09:18:33.541Z</time></trkpt><trkpt lat="43.6005967" lon="12.511255"><ele>517.0</ele><time>2026-04-25T09:18:34.541Z</time></trkpt><trkpt lat="43.6006883" lon="12.5112983"><ele>517.0</ele><time>2026-04-25T09:18:35.541Z</time></trkpt><trkpt lat="43.6007867" lon="12.5113367"><ele>517.0</ele><time>2026-04-25T09:18:36.541Z</time></trkpt><trkpt lat="43.600875" lon="12.5113467"><ele>517.0</ele><time>2026-04-25T09:18:37.54Z</time></trkpt><trkpt lat="43.6009467" lon="12.5113267"><ele>517.0</ele><time>2026-04-25T09:18:38.541Z</time></trkpt><trkpt lat="43.601015" lon="12.5112733"><ele>517.0</ele><time>2026-04-25T09:18:39.541Z</time></trkpt><trkpt lat="43.6010817" lon="12.5112017"><ele>517.0</ele><time>2026-04-25T09:18:40.541Z</time></trkpt><trkpt lat="43.6011417" lon="12.5111633"><ele>517.0</ele><time>2026-04-25T09:18:41.54Z</time></trkpt><trkpt lat="43.601205" lon="12.5111717"><ele>517.0</ele><time>2026-04-25T09:18:42.54Z</time></trkpt><trkpt lat="43.601285" lon="12.5111983"><ele>517.0</ele><time>2026-04-25T09:18:43.541Z</time></trkpt><trkpt lat="43.6013867" lon="12.5112267"><ele>517.0</ele><time>2026-04-25T09:18:44.541Z</time></trkpt><trkpt lat="43.6014933" lon="12.5112633"><ele>517.0</ele><time>2026-04-25T09:18:45.54Z</time></trkpt><trkpt lat="43.6016017" lon="12.5113167"><ele>524.4</ele><time>2026-04-25T09:18:46.541Z</time></trkpt><trkpt lat="43.6016967" lon="12.51138"><ele>531.8000000000001</ele><time>2026-04-25T09:18:47.54Z</time></trkpt><trkpt lat="43.6018" lon="12.511455"><ele>539.2</ele><time>2026-04-25T09:18:48.541Z</time></trkpt><trkpt lat="43.6018983" lon="12.5115533"><ele>546.6</ele><time>2026-04-25T09:18:49.54Z</time></trkpt><trkpt lat="43.60197" lon="12.5116383"><ele>554.0</ele><time>2026-04-25T09:18:50.541Z</time></trkpt><trkpt lat="43.60203" lon="12.5117167"><ele>554.0</ele><time>2026-04-25T09:18:51.541Z</time></trkpt><trkpt lat="43.6020817" lon="12.5118133"><ele>554.0</ele><time>2026-04-25T09:18:52.541Z</time></trkpt><trkpt lat="43.60213" lon="12.511935"><ele>554.0</ele><time>2026-04-25T09:18:53.54Z</time></trkpt><trkpt lat="43.6021717" lon="12.5120683"><ele>554.0</ele><time>2026-04-25T09:18:54.541Z</time></trkpt><trkpt lat="43.6022067" lon="12.51218"><ele>554.0</ele><time>2026-04-25T09:18:55.541Z</time></trkpt><trkpt lat="43.60224" lon="12.5122633"><ele>558.0</ele><time>2026-04-25T09:18:56.541Z</time></trkpt><trkpt lat="43.60231" lon="12.5123633"><ele>562.0</ele><time>2026-04-25T09:18:58.541Z</time></trkpt><trkpt lat="43.6024383" lon="12.5123417"><ele>566.0</ele><time>2026-04-25T09:19:00.541Z</time></trkpt><trkpt lat="43.6025167" lon="12.5123317"><ele>570.0</ele><time>2026-04-25T09:19:01.541Z</time></trkpt><trkpt lat="43.60259" lon="12.5123483"><ele>574.0</ele><time>2026-04-25T09:19:02.54Z</time></trkpt><trkpt lat="43.6026367" lon="12.512415"><ele>574.0</ele><time>2026-04-25T09:19:03.541Z</time></trkpt><trkpt lat="43.6026567" lon="12.5125017"><ele>574.0</ele><time>2026-04-25T09:19:04.541Z</time></trkpt><trkpt lat="43.6026483" lon="12.5125967"><ele>574.0</ele><time>2026-04-25T09:19:05.54Z</time></trkpt><trkpt lat="43.6026067" lon="12.512675"><ele>574.0</ele><time>2026-04-25T09:19:06.541Z</time></trkpt><trkpt lat="43.6025417" lon="12.5127317"><ele>574.0</ele><time>2026-04-25T09:19:07.541Z</time></trkpt><trkpt lat="43.6024517" lon="12.5127867"><ele>574.0</ele><time>2026-04-25T09:19:08.541Z</time></trkpt><trkpt lat="43.602385" lon="12.5128233"><ele>574.0</ele><time>2026-04-25T09:19:09.54Z</time></trkpt><trkpt lat="43.6023367" lon="12.5128833"><ele>574.0</ele><time>2026-04-25T09:19:10.54Z</time></trkpt><trkpt lat="43.6023317" lon="12.513035"><ele>574.0</ele><time>2026-04-25T09:19:12.541Z</time></trkpt><trkpt lat="43.6024383" lon="12.5131333"><ele>574.0</ele><time>2026-04-25T09:19:14.541Z</time></trkpt><trkpt lat="43.60252" lon="12.5131667"><ele>574.0</ele><time>2026-04-25T09:19:15.541Z</time></trkpt><trkpt lat="43.6026067" lon="12.5132217"><ele>576.8333333333334</ele><time>2026-04-25T09:19:16.54Z</time></trkpt><trkpt lat="43.6026767" lon="12.5132767"><ele>579.6666666666667</ele><time>2026-04-25T09:19:17.54Z</time></trkpt><trkpt lat="43.6027483" lon="12.5133017"><ele>582.5</ele><time>2026-04-25T09:19:18.541Z</time></trkpt><trkpt lat="43.6028183" lon="12.5132917"><ele>585.3333333333334</ele><time>2026-04-25T09:19:19.541Z</time></trkpt><trkpt lat="43.6028917" lon="12.5132133"><ele>588.1666666666666</ele><time>2026-04-25T09:19:20.541Z</time></trkpt><trkpt lat="43.6029617" lon="12.5130833"><ele>591.0</ele><time>2026-04-25T09:19:21.541Z</time></trkpt><trkpt lat="43.6030267" lon="12.5129217"><ele>592.25</ele><time>2026-04-25T09:19:22.541Z</time></trkpt><trkpt lat="43.6030917" lon="12.512755"><ele>593.5</ele><time>2026-04-25T09:19:23.541Z</time></trkpt><trkpt lat="43.6031617" lon="12.5125983"><ele>594.75</ele><time>2026-04-25T09:19:24.541Z</time></trkpt><trkpt lat="43.603225" lon="12.5124583"><ele>596.0</ele><time>2026-04-25T09:19:25.541Z</time></trkpt><trkpt lat="43.6032833" lon="12.5123517"><ele>596.0</ele><time>2026-04-25T09:19:26.541Z</time></trkpt><trkpt lat="43.6033617" lon="12.5122633"><ele>596.0</ele><time>2026-04-25T09:19:27.541Z</time></trkpt><trkpt lat="43.60347" lon="12.512185"><ele>596.0</ele><time>2026-04-25T09:19:28.54Z</time></trkpt><trkpt lat="43.6035917" lon="12.5121233"><ele>596.0</ele><time>2026-04-25T09:19:29.541Z</time></trkpt><trkpt lat="43.60372" lon="12.51206"><ele>597.25</ele><time>2026-04-25T09:19:30.541Z</time></trkpt><trkpt lat="43.6038383" lon="12.5120017"><ele>598.5</ele><time>2026-04-25T09:19:31.54Z</time></trkpt><trkpt lat="43.603965" lon="12.5119533"><ele>599.75</ele><time>2026-04-25T09:19:32.541Z</time></trkpt><trkpt lat="43.6040917" lon="12.511895"><ele>601.0</ele><time>2026-04-25T09:19:33.54Z</time></trkpt><trkpt lat="43.604215" lon="12.5118433"><ele>601.0</ele><time>2026-04-25T09:19:34.54Z</time></trkpt><trkpt lat="43.6043367" lon="12.5118117"><ele>601.0</ele><time>2026-04-25T09:19:35.541Z</time></trkpt><trkpt lat="43.6044633" lon="12.511805"><ele>601.0</ele><time>2026-04-25T09:19:36.54Z</time></trkpt><trkpt lat="43.6045983" lon="12.51182"><ele>601.0</ele><time>2026-04-25T09:19:37.54Z</time></trkpt><trkpt lat="43.60474" lon="12.5118317"><ele>603.0</ele><time>2026-04-25T09:19:38.54Z</time></trkpt><trkpt lat="43.6048883" lon="12.5118417"><ele>605.0</ele><time>2026-04-25T09:19:39.541Z</time></trkpt><trkpt lat="43.6050233" lon="12.51187"><ele>607.0</ele><time>2026-04-25T09:19:40.541Z</time></trkpt><trkpt lat="43.6051533" lon="12.5118917"><ele>609.0</ele><time>2026-04-25T09:19:41.541Z</time></trkpt><trkpt lat="43.6052717" lon="12.51192"><ele>608.25</ele><time>2026-04-25T09:19:42.541Z</time></trkpt><trkpt lat="43.6053967" lon="12.5119683"><ele>607.5</ele><time>2026-04-25T09:19:43.541Z</time></trkpt><trkpt lat="43.60552" lon="12.512035"><ele>606.75</ele><time>2026-04-25T09:19:44.541Z</time></trkpt><trkpt lat="43.6056517" lon="12.5121133"><ele>606.0</ele><time>2026-04-25T09:19:45.541Z</time></trkpt><trkpt lat="43.6057967" lon="12.51219"><ele>613.25</ele><time>2026-04-25T09:19:46.54Z</time></trkpt><trkpt lat="43.6059267" lon="12.51226"><ele>620.5</ele><time>2026-04-25T09:19:47.541Z</time></trkpt><trkpt lat="43.60605" lon="12.5123267"><ele>627.75</ele><time>2026-04-25T09:19:48.541Z</time></trkpt><trkpt lat="43.60615" lon="12.5123733"><ele>635.0</ele><time>2026-04-25T09:19:49.541Z</time></trkpt><trkpt lat="43.6062433" lon="12.512415"><ele>635.0</ele><time>2026-04-25T09:19:50.541Z</time></trkpt><trkpt lat="43.60631" lon="12.5124733"><ele>635.0</ele><time>2026-04-25T09:19:51.54Z</time></trkpt><trkpt lat="43.60636" lon="12.5125483"><ele>635.0</ele><time>2026-04-25T09:19:52.54Z</time></trkpt><trkpt lat="43.6063967" lon="12.5126383"><ele>635.0</ele><time>2026-04-25T09:19:53.54Z</time></trkpt><trkpt lat="43.606435" lon="12.5127417"><ele>635.0</ele><time>2026-04-25T09:19:54.54Z</time></trkpt><trkpt lat="43.6064817" lon="12.5128367"><ele>635.0</ele><time>2026-04-25T09:19:55.541Z</time></trkpt><trkpt lat="43.6065383" lon="12.5129033"><ele>640.8</ele><time>2026-04-25T09:19:56.541Z</time></trkpt><trkpt lat="43.606605" lon="12.5129467"><ele>646.6</ele><time>2026-04-25T09:19:57.541Z</time></trkpt><trkpt lat="43.6066967" lon="12.5129633"><ele>652.4000000000001</ele><time>2026-04-25T09:19:58.541Z</time></trkpt><trkpt lat="43.6068183" lon="12.51296"><ele>658.2</ele><time>2026-04-25T09:19:59.54Z</time></trkpt><trkpt lat="43.606965" lon="12.5129567"><ele>664.0</ele><time>2026-04-25T09:20:00.541Z</time></trkpt><trkpt lat="43.6071067" lon="12.51295"><ele>665.75</ele><time>2026-04-25T09:20:01.541Z</time></trkpt><trkpt lat="43.6072517" lon="12.512955"><ele>667.5</ele><time>2026-04-25T09:20:02.541Z</time></trkpt><trkpt lat="43.6073967" lon="12.51298"><ele>669.25</ele><time>2026-04-25T09:20:03.541Z</time></trkpt><trkpt lat="43.6075517" lon="12.5130167"><ele>671.0</ele><time>2026-04-25T09:20:04.541Z</time></trkpt><trkpt lat="43.6076917" lon="12.5130517"><ele>671.0</ele><time>2026-04-25T09:20:05.541Z</time></trkpt><trkpt lat="43.6078217" lon="12.5130883"><ele>671.0</ele><time>2026-04-25T09:20:06.541Z</time></trkpt><trkpt lat="43.6079267" lon="12.5131367"><ele>671.0</ele><time>2026-04-25T09:20:07.541Z</time></trkpt><trkpt lat="43.6080167" lon="12.5132117"><ele>671.0</ele><time>2026-04-25T09:20:08.54Z</time></trkpt><trkpt lat="43.6081133" lon="12.5133133"><ele>670.25</ele><time>2026-04-25T09:20:09.541Z</time></trkpt><trkpt lat="43.6082267" lon="12.513415"><ele>669.5</ele><time>2026-04-25T09:20:10.54Z</time></trkpt><trkpt lat="43.60834" lon="12.513545"><ele>668.75</ele><time>2026-04-25T09:20:11.54Z</time></trkpt><trkpt lat="43.608465" lon="12.5136817"><ele>668.0</ele><time>2026-04-25T09:20:12.541Z</time></trkpt><trkpt lat="43.6086017" lon="12.513815"><ele>672.25</ele><time>2026-04-25T09:20:13.54Z</time></trkpt><trkpt lat="43.60873" lon="12.5139317"><ele>676.5</ele><time>2026-04-25T09:20:14.541Z</time></trkpt><trkpt lat="43.6088333" lon="12.5140183"><ele>680.75</ele><time>2026-04-25T09:20:15.541Z</time></trkpt><trkpt lat="43.6089117" lon="12.51408"><ele>685.0</ele><time>2026-04-25T09:20:16.541Z</time></trkpt><trkpt lat="43.6089917" lon="12.5141333"><ele>685.0</ele><time>2026-04-25T09:20:18.541Z</time></trkpt><trkpt lat="43.6090783" lon="12.5142033"><ele>685.0</ele><time>2026-04-25T09:20:21.541Z</time></trkpt><trkpt lat="43.6091933" lon="12.5143083"><ele>685.0</ele><time>2026-04-25T09:20:23.541Z</time></trkpt><trkpt lat="43.60926" lon="12.5143833"><ele>685.0</ele><time>2026-04-25T09:20:24.541Z</time></trkpt><trkpt lat="43.609335" lon="12.51447"><ele>685.0</ele><time>2026-04-25T09:20:25.541Z</time></trkpt><trkpt lat="43.6094133" lon="12.5145683"><ele>686.0</ele><time>2026-04-25T09:20:26.541Z</time></trkpt><trkpt lat="43.6094917" lon="12.5146733"><ele>687.0</ele><time>2026-04-25T09:20:27.541Z</time></trkpt><trkpt lat="43.609565" lon="12.5147817"><ele>688.0</ele><time>2026-04-25T09:20:28.541Z</time></trkpt><trkpt lat="43.6096333" lon="12.51488"><ele>689.0</ele><time>2026-04-25T09:20:29.541Z</time></trkpt><trkpt lat="43.6097" lon="12.5149583"><ele>690.0</ele><time>2026-04-25T09:20:30.541Z</time></trkpt><trkpt lat="43.60978" lon="12.5150567"><ele>690.0</ele><time>2026-04-25T09:20:32.541Z</time></trkpt><trkpt lat="43.6097867" lon="12.5151433"><ele>690.0</ele><time>2026-04-25T09:20:34.54Z</time></trkpt><trkpt lat="43.6097283" lon="12.5151783"><ele>690.0</ele><time>2026-04-25T09:20:36.54Z</time></trkpt><trkpt lat="43.6096633" lon="12.5151067"><ele>690.0</ele><time>2026-04-25T09:20:39.541Z</time></trkpt><trkpt lat="43.6096817" lon="12.5151917"><ele>690.0</ele><time>2026-04-25T09:20:43.54Z</time></trkpt><trkpt lat="43.60977" lon="12.5151767"><ele>690.0</ele><time>2026-04-25T09:20:46.54Z</time></trkpt><trkpt lat="43.6098017" lon="12.5150883"><ele>690.0</ele><time>2026-04-25T09:20:48.541Z</time></trkpt><trkpt lat="43.6097433" lon="12.5149833"><ele>690.0</ele><time>2026-04-25T09:20:50.541Z</time></trkpt><trkpt lat="43.6096817" lon="12.514935"><ele>690.0</ele><time>2026-04-25T09:20:51.541Z</time></trkpt><trkpt lat="43.60963" lon="12.51488"><ele>690.0</ele><time>2026-04-25T09:20:52.541Z</time></trkpt><trkpt lat="43.6095533" lon="12.5147617"><ele>690.0</ele><time>2026-04-25T09:20:54.541Z</time></trkpt><trkpt lat="43.609485" lon="12.514665"><ele>690.0</ele><time>2026-04-25T09:20:56.541Z</time></trkpt><trkpt lat="43.6094333" lon="12.5145983"><ele>690.0</ele><time>2026-04-25T09:20:57.541Z</time></trkpt><trkpt lat="43.6093617" lon="12.5145117"><ele>689.1666666666666</ele><time>2026-04-25T09:20:58.54Z</time></trkpt><trkpt lat="43.6092867" lon="12.5144217"><ele>688.3333333333334</ele><time>2026-04-25T09:20:59.541Z</time></trkpt><trkpt lat="43.60922" lon="12.5143433"><ele>687.5</ele><time>2026-04-25T09:21:00.541Z</time></trkpt><trkpt lat="43.609155" lon="12.5142767"><ele>686.6666666666667</ele><time>2026-04-25T09:21:01.54Z</time></trkpt><trkpt lat="43.6090917" lon="12.5142383"><ele>685.8333333333334</ele><time>2026-04-25T09:21:02.541Z</time></trkpt><trkpt lat="43.60899" lon="12.514195"><ele>685.0</ele><time>2026-04-25T09:21:04.541Z</time></trkpt><trkpt lat="43.6090883" lon="12.5141333"><ele>685.0</ele><time>2026-04-25T09:21:09.541Z</time></trkpt><trkpt lat="43.60918" lon="12.5141483"><ele>685.0</ele><time>2026-04-25T09:21:10.541Z</time></trkpt><trkpt lat="43.6092883" lon="12.514155"><ele>685.0</ele><time>2026-04-25T09:21:11.541Z</time></trkpt><trkpt lat="43.6094033" lon="12.514145"><ele>685.0</ele><time>2026-04-25T09:21:12.541Z</time></trkpt><trkpt lat="43.6095083" lon="12.5141117"><ele>685.0</ele><time>2026-04-25T09:21:13.54Z</time></trkpt><trkpt lat="43.6096117" lon="12.514055"><ele>684.0</ele><time>2026-04-25T09:21:14.541Z</time></trkpt><trkpt lat="43.6097217" lon="12.5139833"><ele>683.0</ele><time>2026-04-25T09:21:15.54Z</time></trkpt><trkpt lat="43.6098333" lon="12.5138917"><ele>682.0</ele><time>2026-04-25T09:21:16.54Z</time></trkpt><trkpt lat="43.6099383" lon="12.5137867"><ele>681.0</ele><time>2026-04-25T09:21:17.54Z</time></trkpt><trkpt lat="43.6100333" lon="12.5137017"><ele>681.0</ele><time>2026-04-25T09:21:18.541Z</time></trkpt><trkpt lat="43.6101267" lon="12.51365"><ele>681.0</ele><time>2026-04-25T09:21:19.541Z</time></trkpt><trkpt lat="43.6102283" lon="12.51362"><ele>681.0</ele><time>2026-04-25T09:21:20.541Z</time></trkpt><trkpt lat="43.61034" lon="12.5136083"><ele>681.0</ele><time>2026-04-25T09:21:21.541Z</time></trkpt><trkpt lat="43.6104617" lon="12.5136233"><ele>681.0</ele><time>2026-04-25T09:21:22.54Z</time></trkpt><trkpt lat="43.6105817" lon="12.5136617"><ele>681.0</ele><time>2026-04-25T09:21:23.54Z</time></trkpt><trkpt lat="43.610705" lon="12.5137"><ele>681.0</ele><time>2026-04-25T09:21:24.54Z</time></trkpt><trkpt lat="43.6108167" lon="12.5137333"><ele>681.0</ele><time>2026-04-25T09:21:25.541Z</time></trkpt><trkpt lat="43.61093" lon="12.5137567"><ele>681.0</ele><time>2026-04-25T09:21:26.541Z</time></trkpt><trkpt lat="43.6110483" lon="12.5137817"><ele>681.5</ele><time>2026-04-25T09:21:27.541Z</time></trkpt><trkpt lat="43.611175" lon="12.5138083"><ele>682.0</ele><time>2026-04-25T09:21:28.54Z</time></trkpt><trkpt lat="43.6113" lon="12.513825"><ele>682.5</ele><time>2026-04-25T09:21:29.541Z</time></trkpt><trkpt lat="43.6114117" lon="12.5138467"><ele>683.0</ele><time>2026-04-25T09:21:30.541Z</time></trkpt><trkpt lat="43.6115117" lon="12.5138567"><ele>683.0</ele><time>2026-04-25T09:21:31.541Z</time></trkpt><trkpt lat="43.611615" lon="12.5138683"><ele>683.0</ele><time>2026-04-25T09:21:32.541Z</time></trkpt><trkpt lat="43.6117317" lon="12.51389"><ele>683.0</ele><time>2026-04-25T09:21:33.54Z</time></trkpt><trkpt lat="43.6118517" lon="12.51393"><ele>683.0</ele><time>2026-04-25T09:21:34.54Z</time></trkpt><trkpt lat="43.6119767" lon="12.513985"><ele>685.75</ele><time>2026-04-25T09:21:35.541Z</time></trkpt><trkpt lat="43.6121033" lon="12.514045"><ele>688.5</ele><time>2026-04-25T09:21:36.541Z</time></trkpt><trkpt lat="43.612225" lon="12.51409"><ele>691.25</ele><time>2026-04-25T09:21:37.54Z</time></trkpt><trkpt lat="43.6123333" lon="12.51412"><ele>694.0</ele><time>2026-04-25T09:21:38.541Z</time></trkpt><trkpt lat="43.612435" lon="12.5141333"><ele>694.0</ele><time>2026-04-25T09:21:39.541Z</time></trkpt><trkpt lat="43.612545" lon="12.5141433"><ele>694.0</ele><time>2026-04-25T09:21:40.541Z</time></trkpt><trkpt lat="43.61266" lon="12.5141433"><ele>694.0</ele><time>2026-04-25T09:21:41.541Z</time></trkpt><trkpt lat="43.612785" lon="12.5141267"><ele>694.0</ele><time>2026-04-25T09:21:42.541Z</time></trkpt><trkpt lat="43.61291" lon="12.51411"><ele>696.25</ele><time>2026-04-25T09:21:43.541Z</time></trkpt><trkpt lat="43.61304" lon="12.514115"><ele>698.5</ele><time>2026-04-25T09:21:44.54Z</time></trkpt><trkpt lat="43.6131733" lon="12.514125"><ele>700.75</ele><time>2026-04-25T09:21:45.54Z</time></trkpt><trkpt lat="43.6133017" lon="12.5141183"><ele>703.0</ele><time>2026-04-25T09:21:46.541Z</time></trkpt><trkpt lat="43.6134283" lon="12.5141"><ele>703.0</ele><time>2026-04-25T09:21:47.541Z</time></trkpt><trkpt lat="43.6135517" lon="12.5140833"><ele>703.0</ele><time>2026-04-25T09:21:48.541Z</time></trkpt><trkpt lat="43.6136567" lon="12.5140667"><ele>703.0</ele><time>2026-04-25T09:21:49.541Z</time></trkpt><trkpt lat="43.6137517" lon="12.5140367"><ele>703.0</ele><time>2026-04-25T09:21:50.54Z</time></trkpt><trkpt lat="43.6138533" lon="12.5139933"><ele>703.0</ele><time>2026-04-25T09:21:51.541Z</time></trkpt><trkpt lat="43.6139583" lon="12.5139367"><ele>704.4</ele><time>2026-04-25T09:21:52.541Z</time></trkpt><trkpt lat="43.6140667" lon="12.513885"><ele>705.8</ele><time>2026-04-25T09:21:53.541Z</time></trkpt><trkpt lat="43.6141817" lon="12.5138483"><ele>707.2</ele><time>2026-04-25T09:21:54.541Z</time></trkpt><trkpt lat="43.6142917" lon="12.513825"><ele>708.6</ele><time>2026-04-25T09:21:55.541Z</time></trkpt><trkpt lat="43.6143833" lon="12.51381"><ele>710.0</ele><time>2026-04-25T09:21:56.54Z</time></trkpt><trkpt lat="43.6144633" lon="12.5137833"><ele>708.8333333333333</ele><time>2026-04-25T09:21:57.541Z</time></trkpt><trkpt lat="43.6145383" lon="12.51376"><ele>707.6666666666666</ele><time>2026-04-25T09:21:58.541Z</time></trkpt><trkpt lat="43.6146083" lon="12.513745"><ele>706.5</ele><time>2026-04-25T09:21:59.541Z</time></trkpt><trkpt lat="43.6146683" lon="12.5137"><ele>705.3333333333334</ele><time>2026-04-25T09:22:00.541Z</time></trkpt><trkpt lat="43.6147183" lon="12.513635"><ele>704.1666666666667</ele><time>2026-04-25T09:22:01.541Z</time></trkpt><trkpt lat="43.6147517" lon="12.5134817"><ele>703.0</ele><time>2026-04-25T09:22:03.54Z</time></trkpt><trkpt lat="43.6147467" lon="12.513395"><ele>701.0</ele><time>2026-04-25T09:22:04.541Z</time></trkpt><trkpt lat="43.6147267" lon="12.5132917"><ele>699.0</ele><time>2026-04-25T09:22:05.54Z</time></trkpt><trkpt lat="43.6147" lon="12.5131883"><ele>697.0</ele><time>2026-04-25T09:22:06.541Z</time></trkpt><trkpt lat="43.6146783" lon="12.5130867"><ele>695.0</ele><time>2026-04-25T09:22:07.541Z</time></trkpt><trkpt lat="43.6146583" lon="12.5129933"><ele>693.0</ele><time>2026-04-25T09:22:08.54Z</time></trkpt><trkpt lat="43.6146367" lon="12.5129033"><ele>691.0</ele><time>2026-04-25T09:22:09.541Z</time></trkpt><trkpt lat="43.6146183" lon="12.5128117"><ele>689.0</ele><time>2026-04-25T09:22:10.541Z</time></trkpt><trkpt lat="43.6146" lon="12.5127167"><ele>692.0</ele><time>2026-04-25T09:22:11.54Z</time></trkpt><trkpt lat="43.6145767" lon="12.5126167"><ele>695.0</ele><time>2026-04-25T09:22:12.54Z</time></trkpt><trkpt lat="43.6145483" lon="12.5125133"><ele>698.0</ele><time>2026-04-25T09:22:13.541Z</time></trkpt><trkpt lat="43.6145217" lon="12.5123983"><ele>701.0</ele><time>2026-04-25T09:22:14.541Z</time></trkpt><trkpt lat="43.6144933" lon="12.5122917"><ele>704.0</ele><time>2026-04-25T09:22:15.541Z</time></trkpt><trkpt lat="43.6144633" lon="12.5121867"><ele>707.0</ele><time>2026-04-25T09:22:16.54Z</time></trkpt><trkpt lat="43.6144383" lon="12.5120767"><ele>705.4000000000001</ele><time>2026-04-25T09:22:17.541Z</time></trkpt><trkpt lat="43.6144117" lon="12.5119533"><ele>703.8000000000001</ele><time>2026-04-25T09:22:18.541Z</time></trkpt><trkpt lat="43.6143883" lon="12.5118217"><ele>702.2</ele><time>2026-04-25T09:22:19.541Z</time></trkpt><trkpt lat="43.61436" lon="12.511685"><ele>700.6</ele><time>2026-04-25T09:22:20.541Z</time></trkpt><trkpt lat="43.6143333" lon="12.5115517"><ele>699.0</ele><time>2026-04-25T09:22:21.541Z</time></trkpt><trkpt lat="43.614305" lon="12.51142"><ele>699.0</ele><time>2026-04-25T09:22:22.541Z</time></trkpt><trkpt lat="43.6142833" lon="12.5112933"><ele>699.0</ele><time>2026-04-25T09:22:23.541Z</time></trkpt><trkpt lat="43.61426" lon="12.5111683"><ele>699.0</ele><time>2026-04-25T09:22:24.541Z</time></trkpt><trkpt lat="43.6142367" lon="12.5110467"><ele>699.0</ele><time>2026-04-25T09:22:25.541Z</time></trkpt><trkpt lat="43.6142083" lon="12.5109317"><ele>699.0</ele><time>2026-04-25T09:22:26.54Z</time></trkpt><trkpt lat="43.61418" lon="12.5108233"><ele>696.0</ele><time>2026-04-25T09:22:27.541Z</time></trkpt><trkpt lat="43.6141567" lon="12.51072"><ele>693.0</ele><time>2026-04-25T09:22:28.541Z</time></trkpt><trkpt lat="43.6141417" lon="12.5106033"><ele>690.0</ele><time>2026-04-25T09:22:29.541Z</time></trkpt><trkpt lat="43.6141167" lon="12.5105017"><ele>687.0</ele><time>2026-04-25T09:22:30.54Z</time></trkpt><trkpt lat="43.6140933" lon="12.5103933"><ele>684.0</ele><time>2026-04-25T09:22:31.541Z</time></trkpt><trkpt lat="43.61407" lon="12.5102867"><ele>681.0</ele><time>2026-04-25T09:22:32.541Z</time></trkpt><trkpt lat="43.6140417" lon="12.5101717"><ele>678.0</ele><time>2026-04-25T09:22:33.541Z</time></trkpt><trkpt lat="43.6140117" lon="12.5100483"><ele>675.0</ele><time>2026-04-25T09:22:34.541Z</time></trkpt><trkpt lat="43.6139867" lon="12.509935"><ele>672.0</ele><time>2026-04-25T09:22:35.541Z</time></trkpt><trkpt lat="43.6139617" lon="12.5098317"><ele>669.0</ele><time>2026-04-25T09:22:36.541Z</time></trkpt><trkpt lat="43.6139317" lon="12.5097117"><ele>666.0</ele><time>2026-04-25T09:22:37.54Z</time></trkpt><trkpt lat="43.6138933" lon="12.509575"><ele>664.5999999999999</ele><time>2026-04-25T09:22:38.541Z</time></trkpt><trkpt lat="43.6138567" lon="12.50944"><ele>663.2</ele><time>2026-04-25T09:22:39.541Z</time></trkpt><trkpt lat="43.613815" lon="12.5093117"><ele>661.8</ele><time>2026-04-25T09:22:40.54Z</time></trkpt><trkpt lat="43.6137733" lon="12.5091783"><ele>660.4000000000001</ele><time>2026-04-25T09:22:41.54Z</time></trkpt><trkpt lat="43.61374" lon="12.5090583"><ele>659.0</ele><time>2026-04-25T09:22:42.541Z</time></trkpt><trkpt lat="43.613725" lon="12.508965"><ele>659.0</ele><time>2026-04-25T09:22:43.541Z</time></trkpt><trkpt lat="43.61375" lon="12.5088033"><ele>659.0</ele><time>2026-04-25T09:22:45.541Z</time></trkpt><trkpt lat="43.6137783" lon="12.50872"><ele>659.0</ele><time>2026-04-25T09:22:46.541Z</time></trkpt><trkpt lat="43.6137967" lon="12.5086367"><ele>659.0</ele><time>2026-04-25T09:22:47.54Z</time></trkpt><trkpt lat="43.613795" lon="12.5085383"><ele>659.0</ele><time>2026-04-25T09:22:48.54Z</time></trkpt><trkpt lat="43.613775" lon="12.508415"><ele>659.0</ele><time>2026-04-25T09:22:49.541Z</time></trkpt><trkpt lat="43.61376" lon="12.508305"><ele>658.5</ele><time>2026-04-25T09:22:50.541Z</time></trkpt><trkpt lat="43.61375" lon="12.5082117"><ele>658.0</ele><time>2026-04-25T09:22:51.54Z</time></trkpt><trkpt lat="43.6137317" lon="12.5081167"><ele>657.5</ele><time>2026-04-25T09:22:52.541Z</time></trkpt><trkpt lat="43.613705" lon="12.5080083"><ele>657.0</ele><time>2026-04-25T09:22:53.541Z</time></trkpt><trkpt lat="43.6136783" lon="12.50791"><ele>656.5</ele><time>2026-04-25T09:22:54.541Z</time></trkpt><trkpt lat="43.6136433" lon="12.5077683"><ele>656.0</ele><time>2026-04-25T09:22:56.541Z</time></trkpt><trkpt lat="43.6135983" lon="12.5076683"><ele>662.0</ele><time>2026-04-25T09:23:10.541Z</time></trkpt><trkpt lat="43.61356" lon="12.5075283"><ele>668.0</ele><time>2026-04-25T09:23:17.541Z</time></trkpt><trkpt lat="43.6135133" lon="12.507395"><ele>674.0</ele><time>2026-04-25T09:23:19.541Z</time></trkpt><trkpt lat="43.6134833" lon="12.5073083"><ele>680.0</ele><time>2026-04-25T09:23:20.54Z</time></trkpt><trkpt lat="43.6134283" lon="12.5071717"><ele>686.0</ele><time>2026-04-25T09:23:22.54Z</time></trkpt><trkpt lat="43.613375" lon="12.507045"><ele>687.2857142857143</ele><time>2026-04-25T09:23:24.541Z</time></trkpt><trkpt lat="43.6133267" lon="12.5069833"><ele>688.5714285714286</ele><time>2026-04-25T09:23:26.541Z</time></trkpt><trkpt lat="43.6132617" lon="12.5069883"><ele>689.8571428571429</ele><time>2026-04-25T09:23:48.54Z</time></trkpt><trkpt lat="43.61321" lon="12.5069183"><ele>691.1428571428571</ele><time>2026-04-25T09:23:50.541Z</time></trkpt><trkpt lat="43.61316" lon="12.50686"><ele>692.4285714285714</ele><time>2026-04-25T09:23:52.54Z</time></trkpt><trkpt lat="43.61316" lon="12.50695"><ele>693.7142857142858</ele><time>2026-04-25T09:23:57.541Z</time></trkpt><trkpt lat="43.6132317" lon="12.5069767"><ele>695.0</ele><time>2026-04-25T09:23:59.541Z</time></trkpt><trkpt lat="43.6133183" lon="12.5070133"><ele>695.0</ele><time>2026-04-25T09:24:01.541Z</time></trkpt><trkpt lat="43.6133817" lon="12.50705"><ele>695.0</ele><time>2026-04-25T09:24:03.54Z</time></trkpt><trkpt lat="43.613425" lon="12.50715"><ele>695.0</ele><time>2026-04-25T09:24:05.541Z</time></trkpt><trkpt lat="43.613465" lon="12.5072833"><ele>695.0</ele><time>2026-04-25T09:24:07.541Z</time></trkpt><trkpt lat="43.6135095" lon="12.5074226"><ele>695.0</ele><time>2026-04-25T09:24:09.54Z</time></trkpt><trkpt lat="43.6135512" lon="12.5075544"><ele>693.8333333333333</ele><time>2026-04-25T09:24:11.541Z</time></trkpt><trkpt lat="43.613585" lon="12.5076644"><ele>692.6666666666666</ele><time>2026-04-25T09:24:13.541Z</time></trkpt><trkpt lat="43.6136067" lon="12.5077833"><ele>691.5</ele><time>2026-04-25T09:24:15.541Z</time></trkpt><trkpt lat="43.6136417" lon="12.5079283"><ele>690.3333333333334</ele><time>2026-04-25T09:24:17.541Z</time></trkpt><trkpt lat="43.6136717" lon="12.508005"><ele>689.1666666666667</ele><time>2026-04-25T09:24:18.541Z</time></trkpt><trkpt lat="43.6136983" lon="12.508095"><ele>688.0</ele><time>2026-04-25T09:24:19.541Z</time></trkpt><trkpt lat="43.61372" lon="12.5081883"><ele>682.6666666666667</ele><time>2026-04-25T09:24:20.541Z</time></trkpt><trkpt lat="43.61373" lon="12.5082783"><ele>677.3333333333334</ele><time>2026-04-25T09:24:21.541Z</time></trkpt><trkpt lat="43.61373" lon="12.5084133"><ele>672.0</ele><time>2026-04-25T09:24:23.54Z</time></trkpt><trkpt lat="43.6138017" lon="12.5084033"><ele>666.6666666666666</ele><time>2026-04-25T09:24:27.54Z</time></trkpt><trkpt lat="43.6138" lon="12.508295"><ele>661.3333333333333</ele><time>2026-04-25T09:24:29.54Z</time></trkpt><trkpt lat="43.61379" lon="12.5081467"><ele>656.0</ele><time>2026-04-25T09:24:31.541Z</time></trkpt><trkpt lat="43.61378" lon="12.507995"><ele>657.8</ele><time>2026-04-25T09:24:33.541Z</time></trkpt><trkpt lat="43.6138" lon="12.50784"><ele>659.5999999999999</ele><time>2026-04-25T09:24:35.541Z</time></trkpt><trkpt lat="43.6138333" lon="12.5077167"><ele>661.4</ele><time>2026-04-25T09:24:37.541Z</time></trkpt><trkpt lat="43.6138533" lon="12.507595"><ele>663.2</ele><time>2026-04-25T09:24:39.541Z</time></trkpt><trkpt lat="43.6138833" lon="12.5074417"><ele>665.0</ele><time>2026-04-25T09:24:41.541Z</time></trkpt><trkpt lat="43.6139517" lon="12.50733"><ele>665.0</ele><time>2026-04-25T09:24:43.541Z</time></trkpt><trkpt lat="43.6140367" lon="12.5072733"><ele>665.0</ele><time>2026-04-25T09:24:45.541Z</time></trkpt><trkpt lat="43.6141617" lon="12.5072667"><ele>665.0</ele><time>2026-04-25T09:24:47.541Z</time></trkpt><trkpt lat="43.6142483" lon="12.5072733"><ele>665.0</ele><time>2026-04-25T09:24:48.541Z</time></trkpt><trkpt lat="43.61433" lon="12.507285"><ele>665.0</ele><time>2026-04-25T09:24:49.541Z</time></trkpt><trkpt lat="43.61441" lon="12.507285"><ele>662.4</ele><time>2026-04-25T09:24:50.541Z</time></trkpt><trkpt lat="43.6145067" lon="12.5072833"><ele>659.8</ele><time>2026-04-25T09:24:51.54Z</time></trkpt><trkpt lat="43.6145917" lon="12.507305"><ele>657.2</ele><time>2026-04-25T09:24:52.541Z</time></trkpt><trkpt lat="43.61468" lon="12.50732"><ele>654.6</ele><time>2026-04-25T09:24:53.54Z</time></trkpt><trkpt lat="43.614765" lon="12.507345"><ele>652.0</ele><time>2026-04-25T09:24:54.541Z</time></trkpt><trkpt lat="43.614855" lon="12.50737"><ele>652.0</ele><time>2026-04-25T09:24:55.541Z</time></trkpt><trkpt lat="43.6149483" lon="12.50739"><ele>652.0</ele><time>2026-04-25T09:24:56.54Z</time></trkpt><trkpt lat="43.61503" lon="12.507395"><ele>652.0</ele><time>2026-04-25T09:24:57.54Z</time></trkpt><trkpt lat="43.6151" lon="12.507395"><ele>652.0</ele><time>2026-04-25T09:24:58.54Z</time></trkpt><trkpt lat="43.6151683" lon="12.5073817"><ele>652.0</ele><time>2026-04-25T09:24:59.539Z</time></trkpt><trkpt lat="43.6152683" lon="12.5072967"><ele>652.0</ele><time>2026-04-25T09:25:01.54Z</time></trkpt><trkpt lat="43.615315" lon="12.5071167"><ele>654.1666666666667</ele><time>2026-04-25T09:25:03.54Z</time></trkpt><trkpt lat="43.61533" lon="12.5069967"><ele>656.3333333333334</ele><time>2026-04-25T09:25:04.539Z</time></trkpt><trkpt lat="43.6153483" lon="12.5068767"><ele>658.5</ele><time>2026-04-25T09:25:05.539Z</time></trkpt><trkpt lat="43.6153717" lon="12.5067867"><ele>660.6666666666666</ele><time>2026-04-25T09:25:06.54Z</time></trkpt><trkpt lat="43.615445" lon="12.5067083"><ele>662.8333333333333</ele><time>2026-04-25T09:25:08.54Z</time></trkpt><trkpt lat="43.6155133" lon="12.5067683"><ele>665.0</ele><time>2026-04-25T09:25:10.54Z</time></trkpt><trkpt lat="43.6154933" lon="12.506865"><ele>665.0</ele><time>2026-04-25T09:25:12.539Z</time></trkpt><trkpt lat="43.6154667" lon="12.5069483"><ele>665.0</ele><time>2026-04-25T09:25:13.539Z</time></trkpt><trkpt lat="43.6154417" lon="12.5070667"><ele>665.0</ele><time>2026-04-25T09:25:14.54Z</time></trkpt><trkpt lat="43.615435" lon="12.50723"><ele>665.0</ele><time>2026-04-25T09:25:15.54Z</time></trkpt><trkpt lat="43.6154417" lon="12.5073983"><ele>665.0</ele><time>2026-04-25T09:25:16.54Z</time></trkpt><trkpt lat="43.6154517" lon="12.5075333"><ele>662.4</ele><time>2026-04-25T09:25:17.54Z</time></trkpt><trkpt lat="43.61545" lon="12.507635"><ele>659.8</ele><time>2026-04-25T09:25:18.54Z</time></trkpt><trkpt lat="43.6154133" lon="12.5077517"><ele>657.2</ele><time>2026-04-25T09:25:20.54Z</time></trkpt><trkpt lat="43.6153317" lon="12.5078017"><ele>654.6</ele><time>2026-04-25T09:25:22.54Z</time></trkpt><trkpt lat="43.6152283" lon="12.50782"><ele>652.0</ele><time>2026-04-25T09:25:24.54Z</time></trkpt><trkpt lat="43.6151067" lon="12.5078"><ele>652.0</ele><time>2026-04-25T09:25:26.54Z</time></trkpt><trkpt lat="43.6150379" lon="12.5077772"><ele>652.0</ele><time>2026-04-25T09:25:27.539Z</time></trkpt><trkpt lat="43.6149646" lon="12.5077556"><ele>652.0</ele><time>2026-04-25T09:25:28.539Z</time></trkpt><trkpt lat="43.6148938" lon="12.5077378"><ele>652.0</ele><time>2026-04-25T09:25:29.54Z</time></trkpt><trkpt lat="43.6148266" lon="12.5077263"><ele>652.0</ele><time>2026-04-25T09:25:30.54Z</time></trkpt><trkpt lat="43.6147599" lon="12.5077185"><ele>652.0</ele><time>2026-04-25T09:25:31.54Z</time></trkpt><trkpt lat="43.6146919" lon="12.5077061"><ele>652.0</ele><time>2026-04-25T09:25:32.539Z</time></trkpt><trkpt lat="43.6146245" lon="12.5077047"><ele>652.0</ele><time>2026-04-25T09:25:33.539Z</time></trkpt><trkpt lat="43.6145135" lon="12.5077364"><ele>652.0</ele><time>2026-04-25T09:25:35.54Z</time></trkpt><trkpt lat="43.6144598" lon="12.5078489"><ele>652.0</ele><time>2026-04-25T09:25:37.54Z</time></trkpt><trkpt lat="43.6144635" lon="12.5080215"><ele>652.0</ele><time>2026-04-25T09:25:39.54Z</time></trkpt><trkpt lat="43.6144966" lon="12.5081124"><ele>652.0</ele><time>2026-04-25T09:25:40.539Z</time></trkpt><trkpt lat="43.6145427" lon="12.5081958"><ele>647.3333333333334</ele><time>2026-04-25T09:25:41.54Z</time></trkpt><trkpt lat="43.6145855" lon="12.5082768"><ele>642.6666666666667</ele><time>2026-04-25T09:25:42.54Z</time></trkpt><trkpt lat="43.6146493" lon="12.5084102"><ele>638.0</ele><time>2026-04-25T09:25:44.54Z</time></trkpt><trkpt lat="43.6146737" lon="12.508495"><ele>633.3333333333334</ele><time>2026-04-25T09:25:46.539Z</time></trkpt><trkpt lat="43.6146626" lon="12.5086137"><ele>628.6666666666666</ele><time>2026-04-25T09:25:49.54Z</time></trkpt><trkpt lat="43.6146084" lon="12.50869"><ele>624.0</ele><time>2026-04-25T09:25:51.54Z</time></trkpt><trkpt lat="43.6145012" lon="12.5087655"><ele>621.5</ele><time>2026-04-25T09:25:53.54Z</time></trkpt><trkpt lat="43.6144408" lon="12.5088861"><ele>619.0</ele><time>2026-04-25T09:25:55.54Z</time></trkpt><trkpt lat="43.6144742" lon="12.5090086"><ele>616.5</ele><time>2026-04-25T09:25:57.54Z</time></trkpt><trkpt lat="43.614528" lon="12.5090551"><ele>614.0</ele><time>2026-04-25T09:25:58.54Z</time></trkpt><trkpt lat="43.6145934" lon="12.5090996"><ele>611.5</ele><time>2026-04-25T09:25:59.54Z</time></trkpt><trkpt lat="43.6146583" lon="12.50914"><ele>609.0</ele><time>2026-04-25T09:26:00.54Z</time></trkpt><trkpt lat="43.6147367" lon="12.50927"><ele>609.0</ele><time>2026-04-25T09:26:02.54Z</time></trkpt><trkpt lat="43.6147683" lon="12.50936"><ele>609.0</ele><time>2026-04-25T09:26:03.539Z</time></trkpt><trkpt lat="43.614805" lon="12.509465"><ele>609.0</ele><time>2026-04-25T09:26:04.539Z</time></trkpt><trkpt lat="43.6148467" lon="12.509585"><ele>609.0</ele><time>2026-04-25T09:26:05.539Z</time></trkpt><trkpt lat="43.6148967" lon="12.5096967"><ele>609.0</ele><time>2026-04-25T09:26:06.54Z</time></trkpt><trkpt lat="43.6149417" lon="12.5098033"><ele>609.0</ele><time>2026-04-25T09:26:07.539Z</time></trkpt><trkpt lat="43.6149917" lon="12.5098983"><ele>610.4285714285714</ele><time>2026-04-25T09:26:08.54Z</time></trkpt><trkpt lat="43.6150367" lon="12.50998"><ele>611.8571428571429</ele><time>2026-04-25T09:26:09.54Z</time></trkpt><trkpt lat="43.6150817" lon="12.5100567"><ele>613.2857142857142</ele><time>2026-04-25T09:26:10.54Z</time></trkpt><trkpt lat="43.615125" lon="12.51013"><ele>614.7142857142858</ele><time>2026-04-25T09:26:11.539Z</time></trkpt><trkpt lat="43.6151667" lon="12.5102017"><ele>616.1428571428571</ele><time>2026-04-25T09:26:12.54Z</time></trkpt><trkpt lat="43.6152083" lon="12.5102733"><ele>617.5714285714286</ele><time>2026-04-25T09:26:13.54Z</time></trkpt><trkpt lat="43.615255" lon="12.5103467"><ele>619.0</ele><time>2026-04-25T09:26:14.539Z</time></trkpt><trkpt lat="43.6152967" lon="12.5104233"><ele>613.8571428571429</ele><time>2026-04-25T09:26:15.539Z</time></trkpt><trkpt lat="43.615335" lon="12.5104967"><ele>608.7142857142858</ele><time>2026-04-25T09:26:16.54Z</time></trkpt><trkpt lat="43.6153767" lon="12.510565"><ele>603.5714285714287</ele><time>2026-04-25T09:26:17.54Z</time></trkpt><trkpt lat="43.6154183" lon="12.5106333"><ele>598.4285714285714</ele><time>2026-04-25T09:26:18.539Z</time></trkpt><trkpt lat="43.6154567" lon="12.5107033"><ele>593.2857142857143</ele><time>2026-04-25T09:26:19.54Z</time></trkpt><trkpt lat="43.6155" lon="12.5107733"><ele>588.1428571428572</ele><time>2026-04-25T09:26:20.54Z</time></trkpt><trkpt lat="43.6155383" lon="12.510845"><ele>583.0</ele><time>2026-04-25T09:26:21.54Z</time></trkpt><trkpt lat="43.61562" lon="12.5109767"><ele>583.0</ele><time>2026-04-25T09:26:23.54Z</time></trkpt><trkpt lat="43.6156567" lon="12.511055"><ele>583.0</ele><time>2026-04-25T09:26:24.539Z</time></trkpt><trkpt lat="43.6156917" lon="12.5111417"><ele>583.0</ele><time>2026-04-25T09:26:25.539Z</time></trkpt><trkpt lat="43.61572" lon="12.5112283"><ele>583.0</ele><time>2026-04-25T09:26:26.54Z</time></trkpt><trkpt lat="43.6157333" lon="12.51137"><ele>583.0</ele><time>2026-04-25T09:26:28.54Z</time></trkpt><trkpt lat="43.6157367" lon="12.5114767"><ele>583.0</ele><time>2026-04-25T09:26:31.54Z</time></trkpt><trkpt lat="43.6157183" lon="12.51156"><ele>585.8</ele><time>2026-04-25T09:26:33.539Z</time></trkpt><trkpt lat="43.615725" lon="12.51168"><ele>588.5999999999999</ele><time>2026-04-25T09:26:35.539Z</time></trkpt><trkpt lat="43.6158" lon="12.511795"><ele>591.4000000000001</ele><time>2026-04-25T09:26:37.54Z</time></trkpt><trkpt lat="43.61586" lon="12.511845"><ele>594.2</ele><time>2026-04-25T09:26:38.54Z</time></trkpt><trkpt lat="43.6159217" lon="12.5118867"><ele>597.0</ele><time>2026-04-25T09:26:39.54Z</time></trkpt><trkpt lat="43.61601" lon="12.5119933"><ele>597.0</ele><time>2026-04-25T09:26:41.54Z</time></trkpt><trkpt lat="43.61605" lon="12.5120667"><ele>597.0</ele><time>2026-04-25T09:26:42.54Z</time></trkpt><trkpt lat="43.6160933" lon="12.512165"><ele>597.0</ele><time>2026-04-25T09:26:43.539Z</time></trkpt><trkpt lat="43.616145" lon="12.5122917"><ele>597.0</ele><time>2026-04-25T09:26:44.539Z</time></trkpt><trkpt lat="43.6162" lon="12.5124283"><ele>597.0</ele><time>2026-04-25T09:26:45.539Z</time></trkpt><trkpt lat="43.6162567" lon="12.5125567"><ele>594.1666666666666</ele><time>2026-04-25T09:26:46.539Z</time></trkpt><trkpt lat="43.616305" lon="12.512675"><ele>591.3333333333334</ele><time>2026-04-25T09:26:47.54Z</time></trkpt><trkpt lat="43.61635" lon="12.51278"><ele>588.5</ele><time>2026-04-25T09:26:48.54Z</time></trkpt><trkpt lat="43.6163933" lon="12.5128767"><ele>585.6666666666667</ele><time>2026-04-25T09:26:49.54Z</time></trkpt><trkpt lat="43.6164333" lon="12.5129683"><ele>582.8333333333334</ele><time>2026-04-25T09:26:50.54Z</time></trkpt><trkpt lat="43.6164683" lon="12.5130583"><ele>580.0</ele><time>2026-04-25T09:26:51.539Z</time></trkpt><trkpt lat="43.6165083" lon="12.51322"><ele>580.0</ele><time>2026-04-25T09:26:53.539Z</time></trkpt><trkpt lat="43.6165117" lon="12.5133183"><ele>580.0</ele><time>2026-04-25T09:26:54.54Z</time></trkpt><trkpt lat="43.6165183" lon="12.5134067"><ele>580.0</ele><time>2026-04-25T09:26:55.539Z</time></trkpt><trkpt lat="43.6165833" lon="12.5135433"><ele>580.0</ele><time>2026-04-25T09:26:57.54Z</time></trkpt><trkpt lat="43.616645" lon="12.5135833"><ele>580.0</ele><time>2026-04-25T09:26:58.539Z</time></trkpt><trkpt lat="43.6167083" lon="12.5136133"><ele>580.0</ele><time>2026-04-25T09:26:59.54Z</time></trkpt><trkpt lat="43.6168117" lon="12.513695"><ele>583.5</ele><time>2026-04-25T09:27:01.54Z</time></trkpt><trkpt lat="43.6168567" lon="12.5137633"><ele>587.0</ele><time>2026-04-25T09:27:02.539Z</time></trkpt><trkpt lat="43.6169" lon="12.513845"><ele>590.5</ele><time>2026-04-25T09:27:03.54Z</time></trkpt><trkpt lat="43.61694" lon="12.513925"><ele>594.0</ele><time>2026-04-25T09:27:04.54Z</time></trkpt><trkpt lat="43.6169817" lon="12.51401"><ele>597.5</ele><time>2026-04-25T09:27:05.54Z</time></trkpt><trkpt lat="43.617025" lon="12.5141017"><ele>601.0</ele><time>2026-04-25T09:27:06.54Z</time></trkpt><trkpt lat="43.61708" lon="12.5142"><ele>595.2</ele><time>2026-04-25T09:27:07.54Z</time></trkpt><trkpt lat="43.61714" lon="12.51431"><ele>589.4000000000001</ele><time>2026-04-25T09:27:08.539Z</time></trkpt><trkpt lat="43.6172017" lon="12.5144167"><ele>583.6</ele><time>2026-04-25T09:27:09.539Z</time></trkpt><trkpt lat="43.6172633" lon="12.51452"><ele>577.8000000000001</ele><time>2026-04-25T09:27:10.54Z</time></trkpt><trkpt lat="43.6173217" lon="12.5146167"><ele>572.0</ele><time>2026-04-25T09:27:11.54Z</time></trkpt><trkpt lat="43.617375" lon="12.514705"><ele>572.0</ele><time>2026-04-25T09:27:12.54Z</time></trkpt><trkpt lat="43.61743" lon="12.5147967"><ele>572.0</ele><time>2026-04-25T09:27:13.54Z</time></trkpt><trkpt lat="43.61749" lon="12.5148867"><ele>572.0</ele><time>2026-04-25T09:27:14.54Z</time></trkpt><trkpt lat="43.6175517" lon="12.5149767"><ele>572.0</ele><time>2026-04-25T09:27:15.54Z</time></trkpt><trkpt lat="43.6176083" lon="12.5150717"><ele>572.0</ele><time>2026-04-25T09:27:16.539Z</time></trkpt><trkpt lat="43.6176633" lon="12.5151817"><ele>572.0</ele><time>2026-04-25T09:27:17.539Z</time></trkpt><trkpt lat="43.6177167" lon="12.51529"><ele>572.0</ele><time>2026-04-25T09:27:18.539Z</time></trkpt><trkpt lat="43.6177667" lon="12.515395"><ele>572.0</ele><time>2026-04-25T09:27:19.539Z</time></trkpt><trkpt lat="43.6178083" lon="12.5154883"><ele>572.0</ele><time>2026-04-25T09:27:20.539Z</time></trkpt><trkpt lat="43.6178533" lon="12.5155767"><ele>572.0</ele><time>2026-04-25T09:27:21.54Z</time></trkpt><trkpt lat="43.6178917" lon="12.5156617"><ele>572.0</ele><time>2026-04-25T09:27:22.54Z</time></trkpt><trkpt lat="43.6179417" lon="12.5158183"><ele>567.8333333333333</ele><time>2026-04-25T09:27:24.54Z</time></trkpt><trkpt lat="43.6179833" lon="12.5159667"><ele>563.6666666666666</ele><time>2026-04-25T09:27:26.539Z</time></trkpt><trkpt lat="43.6180183" lon="12.51604"><ele>559.5</ele><time>2026-04-25T09:27:27.54Z</time></trkpt><trkpt lat="43.6180583" lon="12.5161217"><ele>555.3333333333334</ele><time>2026-04-25T09:27:28.539Z</time></trkpt><trkpt lat="43.6181083" lon="12.5162067"><ele>551.1666666666667</ele><time>2026-04-25T09:27:29.54Z</time></trkpt><trkpt lat="43.6181617" lon="12.5162883"><ele>547.0</ele><time>2026-04-25T09:27:30.54Z</time></trkpt><trkpt lat="43.6182133" lon="12.5163683"><ele>547.0</ele><time>2026-04-25T09:27:31.539Z</time></trkpt><trkpt lat="43.618255" lon="12.516455"><ele>547.0</ele><time>2026-04-25T09:27:32.54Z</time></trkpt><trkpt lat="43.6182967" lon="12.516545"><ele>547.0</ele><time>2026-04-25T09:27:33.54Z</time></trkpt><trkpt lat="43.618335" lon="12.5166483"><ele>547.0</ele><time>2026-04-25T09:27:34.54Z</time></trkpt><trkpt lat="43.6183667" lon="12.5167517"><ele>547.0</ele><time>2026-04-25T09:27:35.54Z</time></trkpt><trkpt lat="43.6183983" lon="12.5168517"><ele>547.0</ele><time>2026-04-25T09:27:36.54Z</time></trkpt><trkpt lat="43.6184233" lon="12.5169433"><ele>547.0</ele><time>2026-04-25T09:27:37.539Z</time></trkpt><trkpt lat="43.618435" lon="12.5170333"><ele>547.0</ele><time>2026-04-25T09:27:38.54Z</time></trkpt><trkpt lat="43.6184417" lon="12.5171233"><ele>547.0</ele><time>2026-04-25T09:27:39.54Z</time></trkpt><trkpt lat="43.6184467" lon="12.517265"><ele>547.0</ele><time>2026-04-25T09:27:41.54Z</time></trkpt><trkpt lat="43.61838" lon="12.5173533"><ele>547.0</ele><time>2026-04-25T09:27:44.539Z</time></trkpt><trkpt lat="43.6182733" lon="12.5173583"><ele>547.0</ele><time>2026-04-25T09:27:46.539Z</time></trkpt><trkpt lat="43.6182017" lon="12.517355"><ele>546.6666666666667</ele><time>2026-04-25T09:27:47.539Z</time></trkpt><trkpt lat="43.618125" lon="12.517355"><ele>546.3333333333334</ele><time>2026-04-25T09:27:48.54Z</time></trkpt><trkpt lat="43.6180467" lon="12.51735"><ele>546.0</ele><time>2026-04-25T09:27:49.54Z</time></trkpt><trkpt lat="43.6179733" lon="12.5173433"><ele>545.6666666666666</ele><time>2026-04-25T09:27:50.54Z</time></trkpt><trkpt lat="43.61789" lon="12.5173417"><ele>545.3333333333333</ele><time>2026-04-25T09:27:51.54Z</time></trkpt><trkpt lat="43.6178167" lon="12.517325"><ele>545.0</ele><time>2026-04-25T09:27:52.54Z</time></trkpt><trkpt lat="43.6177483" lon="12.5173083"><ele>545.0</ele><time>2026-04-25T09:27:53.539Z</time></trkpt><trkpt lat="43.6176417" lon="12.517285"><ele>545.0</ele><time>2026-04-25T09:27:55.54Z</time></trkpt><trkpt lat="43.6175617" lon="12.517345"><ele>545.0</ele><time>2026-04-25T09:27:57.539Z</time></trkpt><trkpt lat="43.61748" lon="12.51747"><ele>545.0</ele><time>2026-04-25T09:27:59.54Z</time></trkpt><trkpt lat="43.61743" lon="12.5175233"><ele>545.0</ele><time>2026-04-25T09:28:00.539Z</time></trkpt><trkpt lat="43.6173683" lon="12.51758"><ele>545.0</ele><time>2026-04-25T09:28:01.54Z</time></trkpt><trkpt lat="43.6173167" lon="12.51765"><ele>545.0</ele><time>2026-04-25T09:28:02.54Z</time></trkpt><trkpt lat="43.6172817" lon="12.5177333"><ele>545.0</ele><time>2026-04-25T09:28:03.54Z</time></trkpt><trkpt lat="43.61726" lon="12.5178333"><ele>545.0</ele><time>2026-04-25T09:28:04.54Z</time></trkpt><trkpt lat="43.6172467" lon="12.5179533"><ele>545.0</ele><time>2026-04-25T09:28:05.54Z</time></trkpt><trkpt lat="43.6172383" lon="12.5180717"><ele>545.0</ele><time>2026-04-25T09:28:06.539Z</time></trkpt><trkpt lat="43.6172233" lon="12.51816"><ele>539.6666666666666</ele><time>2026-04-25T09:28:07.54Z</time></trkpt><trkpt lat="43.617205" lon="12.5182667"><ele>534.3333333333333</ele><time>2026-04-25T09:28:09.54Z</time></trkpt><trkpt lat="43.6172617" lon="12.518305"><ele>529.0</ele><time>2026-04-25T09:28:12.54Z</time></trkpt><trkpt lat="43.6173117" lon="12.5182517"><ele>523.6666666666666</ele><time>2026-04-25T09:28:14.539Z</time></trkpt><trkpt lat="43.617345" lon="12.518135"><ele>518.3333333333334</ele><time>2026-04-25T09:28:16.54Z</time></trkpt><trkpt lat="43.6173567" lon="12.518035"><ele>513.0</ele><time>2026-04-25T09:28:17.539Z</time></trkpt><trkpt lat="43.6173667" lon="12.517925"><ele>518.3333333333334</ele><time>2026-04-25T09:28:18.54Z</time></trkpt><trkpt lat="43.6173833" lon="12.51784"><ele>523.6666666666666</ele><time>2026-04-25T09:28:19.54Z</time></trkpt><trkpt lat="43.6174417" lon="12.51773"><ele>529.0</ele><time>2026-04-25T09:28:21.54Z</time></trkpt><trkpt lat="43.6175483" lon="12.51765"><ele>534.3333333333333</ele><time>2026-04-25T09:28:23.539Z</time></trkpt><trkpt lat="43.6176083" lon="12.5176033"><ele>539.6666666666666</ele><time>2026-04-25T09:28:24.539Z</time></trkpt><trkpt lat="43.6176983" lon="12.51757"><ele>545.0</ele><time>2026-04-25T09:28:26.54Z</time></trkpt><trkpt lat="43.61778" lon="12.517635"><ele>543.3333333333333</ele><time>2026-04-25T09:28:28.54Z</time></trkpt><trkpt lat="43.6178333" lon="12.517685"><ele>541.6666666666666</ele><time>2026-04-25T09:28:29.54Z</time></trkpt><trkpt lat="43.617905" lon="12.517735"><ele>540.0</ele><time>2026-04-25T09:28:30.54Z</time></trkpt><trkpt lat="43.617995" lon="12.5177817"><ele>538.3333333333334</ele><time>2026-04-25T09:28:31.54Z</time></trkpt><trkpt lat="43.6180817" lon="12.5178283"><ele>536.6666666666667</ele><time>2026-04-25T09:28:32.539Z</time></trkpt><trkpt lat="43.6181583" lon="12.517875"><ele>535.0</ele><time>2026-04-25T09:28:33.539Z</time></trkpt><trkpt lat="43.6182283" lon="12.5179333"><ele>529.6666666666667</ele><time>2026-04-25T09:28:34.54Z</time></trkpt><trkpt lat="43.6182917" lon="12.5179983"><ele>524.3333333333334</ele><time>2026-04-25T09:28:35.54Z</time></trkpt><trkpt lat="43.61835" lon="12.51805"><ele>519.0</ele><time>2026-04-25T09:28:36.54Z</time></trkpt><trkpt lat="43.61846" lon="12.5181283"><ele>513.6666666666666</ele><time>2026-04-25T09:28:38.54Z</time></trkpt><trkpt lat="43.61853" lon="12.5181567"><ele>508.3333333333333</ele><time>2026-04-25T09:28:39.54Z</time></trkpt><trkpt lat="43.6186117" lon="12.51819"><ele>503.0</ele><time>2026-04-25T09:28:40.54Z</time></trkpt><trkpt lat="43.618695" lon="12.5182283"><ele>501.49999999999994</ele><time>2026-04-25T09:28:41.54Z</time></trkpt><trkpt lat="43.618775" lon="12.5182733"><ele>500.0</ele><time>2026-04-25T09:28:42.54Z</time></trkpt><trkpt lat="43.6188483" lon="12.518335"><ele>498.5</ele><time>2026-04-25T09:28:43.54Z</time></trkpt><trkpt lat="43.618915" lon="12.5184"><ele>497.0</ele><time>2026-04-25T09:28:44.54Z</time></trkpt><trkpt lat="43.6189717" lon="12.51846"><ele>495.49999999999994</ele><time>2026-04-25T09:28:45.54Z</time></trkpt><trkpt lat="43.619055" lon="12.5185583"><ele>494.0</ele><time>2026-04-25T09:28:47.54Z</time></trkpt><trkpt lat="43.619125" lon="12.5186283"><ele>493.99999999999994</ele><time>2026-04-25T09:28:49.54Z</time></trkpt><trkpt lat="43.6192017" lon="12.5186533"><ele>494.0</ele><time>2026-04-25T09:28:51.54Z</time></trkpt><trkpt lat="43.619275" lon="12.5185817"><ele>494.0</ele><time>2026-04-25T09:28:53.54Z</time></trkpt><trkpt lat="43.6193217" lon="12.5184683"><ele>494.0</ele><time>2026-04-25T09:28:55.54Z</time></trkpt><trkpt lat="43.6193367" lon="12.5183733"><ele>493.99999999999994</ele><time>2026-04-25T09:28:56.54Z</time></trkpt><trkpt lat="43.6193483" lon="12.5182617"><ele>494.0</ele><time>2026-04-25T09:28:57.54Z</time></trkpt><trkpt lat="43.61936" lon="12.5181483"><ele>493.99999999999994</ele><time>2026-04-25T09:28:58.539Z</time></trkpt><trkpt lat="43.6193633" lon="12.5180383"><ele>494.0</ele><time>2026-04-25T09:28:59.539Z</time></trkpt><trkpt lat="43.6193633" lon="12.51794"><ele>494.0</ele><time>2026-04-25T09:29:00.54Z</time></trkpt><trkpt lat="43.6193583" lon="12.5178367"><ele>494.0</ele><time>2026-04-25T09:29:01.54Z</time></trkpt><trkpt lat="43.61935" lon="12.5177433"><ele>493.99999999999994</ele><time>2026-04-25T09:29:02.54Z</time></trkpt><trkpt lat="43.61934" lon="12.5175883"><ele>494.0</ele><time>2026-04-25T09:29:04.54Z</time></trkpt><trkpt lat="43.6193283" lon="12.517495"><ele>494.14285714285717</ele><time>2026-04-25T09:29:05.539Z</time></trkpt><trkpt lat="43.6193067" lon="12.517405"><ele>494.2857142857142</ele><time>2026-04-25T09:29:06.54Z</time></trkpt><trkpt lat="43.6192933" lon="12.5173167"><ele>494.4285714285714</ele><time>2026-04-25T09:29:07.54Z</time></trkpt><trkpt lat="43.6192833" lon="12.5172267"><ele>494.57142857142856</ele><time>2026-04-25T09:29:08.54Z</time></trkpt><trkpt lat="43.6192867" lon="12.5171033"><ele>494.71428571428567</ele><time>2026-04-25T09:29:10.54Z</time></trkpt><trkpt lat="43.6193517" lon="12.5170617"><ele>494.8571428571428</ele><time>2026-04-25T09:29:13.539Z</time></trkpt><trkpt lat="43.6193783" lon="12.5171483"><ele>494.99999999999994</ele><time>2026-04-25T09:29:15.54Z</time></trkpt><trkpt lat="43.6194117" lon="12.5172667"><ele>495.0</ele><time>2026-04-25T09:29:17.54Z</time></trkpt><trkpt lat="43.6194817" lon="12.5174083"><ele>495.0</ele><time>2026-04-25T09:29:19.539Z</time></trkpt><trkpt lat="43.6195483" lon="12.5175483"><ele>495.0</ele><time>2026-04-25T09:29:21.54Z</time></trkpt><trkpt lat="43.6195783" lon="12.5176267"><ele>495.0</ele><time>2026-04-25T09:29:22.54Z</time></trkpt><trkpt lat="43.6196083" lon="12.5177083"><ele>495.0</ele><time>2026-04-25T09:29:23.539Z</time></trkpt><trkpt lat="43.61963" lon="12.5177917"><ele>495.0</ele><time>2026-04-25T09:29:24.54Z</time></trkpt><trkpt lat="43.61965" lon="12.517885"><ele>487.0</ele><time>2026-04-25T09:29:25.539Z</time></trkpt><trkpt lat="43.61967" lon="12.517975"><ele>479.0</ele><time>2026-04-25T09:29:26.54Z</time></trkpt><trkpt lat="43.6197067" lon="12.5181467"><ele>471.0</ele><time>2026-04-25T09:29:28.54Z</time></trkpt><trkpt lat="43.6197183" lon="12.51824"><ele>463.0</ele><time>2026-04-25T09:29:29.54Z</time></trkpt><trkpt lat="43.6197517" lon="12.5183183"><ele>455.0</ele><time>2026-04-25T09:29:30.54Z</time></trkpt><trkpt lat="43.6197883" lon="12.518395"><ele>447.0</ele><time>2026-04-25T09:29:31.54Z</time></trkpt><trkpt lat="43.6198317" lon="12.5184683"><ele>447.0</ele><time>2026-04-25T09:29:32.54Z</time></trkpt><trkpt lat="43.6198767" lon="12.518545"><ele>447.0</ele><time>2026-04-25T09:29:33.54Z</time></trkpt><trkpt lat="43.61992" lon="12.5186183"><ele>447.0</ele><time>2026-04-25T09:29:34.539Z</time></trkpt><trkpt lat="43.6199633" lon="12.5186883"><ele>447.0</ele><time>2026-04-25T09:29:35.54Z</time></trkpt><trkpt lat="43.62004" lon="12.5188117"><ele>447.0</ele><time>2026-04-25T09:29:37.54Z</time></trkpt><trkpt lat="43.6200617" lon="12.518945"><ele>447.0</ele><time>2026-04-25T09:29:39.539Z</time></trkpt><trkpt lat="43.620075" lon="12.5191183"><ele>447.0</ele><time>2026-04-25T09:29:41.54Z</time></trkpt><trkpt lat="43.6200833" lon="12.5192167"><ele>447.0</ele><time>2026-04-25T09:29:42.54Z</time></trkpt><trkpt lat="43.6200883" lon="12.519305"><ele>447.0</ele><time>2026-04-25T09:29:43.54Z</time></trkpt><trkpt lat="43.6200933" lon="12.5194583"><ele>447.0</ele><time>2026-04-25T09:29:45.54Z</time></trkpt><trkpt lat="43.6201217" lon="12.5195633"><ele>447.0</ele><time>2026-04-25T09:29:47.539Z</time></trkpt><trkpt lat="43.6201867" lon="12.5196167"><ele>447.0</ele><time>2026-04-25T09:29:49.54Z</time></trkpt><trkpt lat="43.6202517" lon="12.519575"><ele>447.0</ele><time>2026-04-25T09:29:51.539Z</time></trkpt><trkpt lat="43.6202967" lon="12.519495"><ele>447.0</ele><time>2026-04-25T09:29:53.539Z</time></trkpt><trkpt lat="43.6203633" lon="12.5194783"><ele>447.0</ele><time>2026-04-25T09:29:55.54Z</time></trkpt><trkpt lat="43.62045" lon="12.5195783"><ele>447.0</ele><time>2026-04-25T09:29:57.54Z</time></trkpt><trkpt lat="43.6205017" lon="12.51963"><ele>447.0</ele><time>2026-04-25T09:29:58.54Z</time></trkpt><trkpt lat="43.62059" lon="12.5197483"><ele>447.0</ele><time>2026-04-25T09:30:00.539Z</time></trkpt><trkpt lat="43.6206167" lon="12.5198317"><ele>446.40000000000003</ele><time>2026-04-25T09:30:01.539Z</time></trkpt><trkpt lat="43.6206517" lon="12.5199333"><ele>445.80000000000007</ele><time>2026-04-25T09:30:02.539Z</time></trkpt><trkpt lat="43.6206933" lon="12.5200617"><ele>445.2</ele><time>2026-04-25T09:30:03.539Z</time></trkpt><trkpt lat="43.6207433" lon="12.5202017"><ele>444.6</ele><time>2026-04-25T09:30:04.54Z</time></trkpt><trkpt lat="43.6207917" lon="12.52033"><ele>444.0</ele><time>2026-04-25T09:30:05.539Z</time></trkpt><trkpt lat="43.620845" lon="12.52044"><ele>441.79999999999995</ele><time>2026-04-25T09:30:06.54Z</time></trkpt><trkpt lat="43.6209067" lon="12.52055"><ele>439.59999999999997</ele><time>2026-04-25T09:30:07.54Z</time></trkpt><trkpt lat="43.6209767" lon="12.5206717"><ele>437.4</ele><time>2026-04-25T09:30:08.54Z</time></trkpt><trkpt lat="43.621045" lon="12.5207833"><ele>435.2</ele><time>2026-04-25T09:30:09.54Z</time></trkpt><trkpt lat="43.621095" lon="12.5208983"><ele>433.0</ele><time>2026-04-25T09:30:10.54Z</time></trkpt><trkpt lat="43.6211317" lon="12.5210033"><ele>432.2</ele><time>2026-04-25T09:30:11.54Z</time></trkpt><trkpt lat="43.62117" lon="12.5211017"><ele>431.4</ele><time>2026-04-25T09:30:12.54Z</time></trkpt><trkpt lat="43.621225" lon="12.52121"><ele>430.59999999999997</ele><time>2026-04-25T09:30:13.539Z</time></trkpt><trkpt lat="43.6212883" lon="12.52133"><ele>429.79999999999995</ele><time>2026-04-25T09:30:14.54Z</time></trkpt><trkpt lat="43.6213517" lon="12.5214383"><ele>429.0</ele><time>2026-04-25T09:30:15.54Z</time></trkpt><trkpt lat="43.62141" lon="12.5215383"><ele>429.0</ele><time>2026-04-25T09:30:16.54Z</time></trkpt><trkpt lat="43.6214667" lon="12.5216283"><ele>429.0</ele><time>2026-04-25T09:30:17.539Z</time></trkpt><trkpt lat="43.6215333" lon="12.5217233"><ele>429.0</ele><time>2026-04-25T09:30:18.539Z</time></trkpt><trkpt lat="43.6216067" lon="12.521815"><ele>429.0</ele><time>2026-04-25T09:30:19.539Z</time></trkpt><trkpt lat="43.6216733" lon="12.5219"><ele>429.0</ele><time>2026-04-25T09:30:20.54Z</time></trkpt><trkpt lat="43.621725" lon="12.5219867"><ele>427.8571428571429</ele><time>2026-04-25T09:30:21.54Z</time></trkpt><trkpt lat="43.6217533" lon="12.52207"><ele>426.7142857142857</ele><time>2026-04-25T09:30:22.539Z</time></trkpt><trkpt lat="43.62177" lon="12.52216"><ele>425.57142857142856</ele><time>2026-04-25T09:30:23.54Z</time></trkpt><trkpt lat="43.62179" lon="12.5222583"><ele>424.42857142857144</ele><time>2026-04-25T09:30:24.54Z</time></trkpt><trkpt lat="43.62181" lon="12.5223533"><ele>423.2857142857143</ele><time>2026-04-25T09:30:25.54Z</time></trkpt><trkpt lat="43.6218433" lon="12.5224433"><ele>422.14285714285717</ele><time>2026-04-25T09:30:26.539Z</time></trkpt><trkpt lat="43.62189" lon="12.522545"><ele>421.0</ele><time>2026-04-25T09:30:27.54Z</time></trkpt><trkpt lat="43.6219433" lon="12.5226433"><ele>422.1666666666667</ele><time>2026-04-25T09:30:28.54Z</time></trkpt><trkpt lat="43.6219983" lon="12.5227517"><ele>423.33333333333337</ele><time>2026-04-25T09:30:29.539Z</time></trkpt><trkpt lat="43.6220583" lon="12.5228617"><ele>424.5</ele><time>2026-04-25T09:30:30.539Z</time></trkpt><trkpt lat="43.6221117" lon="12.5229533"><ele>425.66666666666663</ele><time>2026-04-25T09:30:31.539Z</time></trkpt><trkpt lat="43.6221667" lon="12.523035"><ele>426.8333333333333</ele><time>2026-04-25T09:30:32.539Z</time></trkpt><trkpt lat="43.6222333" lon="12.5231033"><ele>428.0</ele><time>2026-04-25T09:30:33.539Z</time></trkpt><trkpt lat="43.622315" lon="12.5231533"><ele>425.59999999999997</ele><time>2026-04-25T09:30:34.539Z</time></trkpt><trkpt lat="43.6224117" lon="12.5231783"><ele>423.19999999999993</ele><time>2026-04-25T09:30:35.54Z</time></trkpt><trkpt lat="43.6225117" lon="12.5231833"><ele>420.8</ele><time>2026-04-25T09:30:36.54Z</time></trkpt><trkpt lat="43.6226233" lon="12.5231733"><ele>418.4</ele><time>2026-04-25T09:30:37.539Z</time></trkpt><trkpt lat="43.622745" lon="12.523155"><ele>416.0</ele><time>2026-04-25T09:30:38.54Z</time></trkpt><trkpt lat="43.6228717" lon="12.5231483"><ele>416.0</ele><time>2026-04-25T09:30:39.54Z</time></trkpt><trkpt lat="43.6229933" lon="12.5231533"><ele>416.0</ele><time>2026-04-25T09:30:40.54Z</time></trkpt><trkpt lat="43.6231233" lon="12.52316"><ele>416.0</ele><time>2026-04-25T09:30:41.539Z</time></trkpt><trkpt lat="43.6232533" lon="12.5231767"><ele>416.0</ele><time>2026-04-25T09:30:42.54Z</time></trkpt><trkpt lat="43.62337" lon="12.5231983"><ele>415.99999999999994</ele><time>2026-04-25T09:30:43.54Z</time></trkpt><trkpt lat="43.6234767" lon="12.5232217"><ele>416.0</ele><time>2026-04-25T09:30:44.54Z</time></trkpt><trkpt lat="43.6235717" lon="12.5232583"><ele>416.0</ele><time>2026-04-25T09:30:45.54Z</time></trkpt><trkpt lat="43.6236483" lon="12.523305"><ele>416.0</ele><time>2026-04-25T09:30:46.539Z</time></trkpt><trkpt lat="43.6237083" lon="12.5233633"><ele>415.99999999999994</ele><time>2026-04-25T09:30:47.54Z</time></trkpt><trkpt lat="43.62376" lon="12.5234283"><ele>416.0</ele><time>2026-04-25T09:30:48.539Z</time></trkpt><trkpt lat="43.6238217" lon="12.5235067"><ele>415.4</ele><time>2026-04-25T09:30:49.54Z</time></trkpt><trkpt lat="43.6238933" lon="12.5236033"><ele>414.8</ele><time>2026-04-25T09:30:50.539Z</time></trkpt><trkpt lat="43.6239483" lon="12.523705"><ele>414.2</ele><time>2026-04-25T09:30:51.54Z</time></trkpt><trkpt lat="43.624" lon="12.5237983"><ele>413.59999999999997</ele><time>2026-04-25T09:30:52.54Z</time></trkpt><trkpt lat="43.6240533" lon="12.52389"><ele>413.0</ele><time>2026-04-25T09:30:53.54Z</time></trkpt><trkpt lat="43.624115" lon="12.5239883"><ele>413.0</ele><time>2026-04-25T09:30:54.54Z</time></trkpt><trkpt lat="43.624185" lon="12.524075"><ele>413.0</ele><time>2026-04-25T09:30:55.539Z</time></trkpt><trkpt lat="43.6242717" lon="12.52416"><ele>413.0</ele><time>2026-04-25T09:30:56.539Z</time></trkpt><trkpt lat="43.6243533" lon="12.5242267"><ele>413.0</ele><time>2026-04-25T09:30:57.54Z</time></trkpt><trkpt lat="43.62443" lon="12.524275"><ele>413.0</ele><time>2026-04-25T09:30:58.539Z</time></trkpt><trkpt lat="43.6245233" lon="12.5243133"><ele>415.75</ele><time>2026-04-25T09:30:59.54Z</time></trkpt><trkpt lat="43.624635" lon="12.52435"><ele>418.5</ele><time>2026-04-25T09:31:00.539Z</time></trkpt><trkpt lat="43.624755" lon="12.5243983"><ele>421.25</ele><time>2026-04-25T09:31:01.539Z</time></trkpt><trkpt lat="43.6248683" lon="12.52446"><ele>424.0</ele><time>2026-04-25T09:31:02.539Z</time></trkpt><trkpt lat="43.62498" lon="12.524525"><ele>419.4</ele><time>2026-04-25T09:31:03.539Z</time></trkpt><trkpt lat="43.6250783" lon="12.524595"><ele>414.79999999999995</ele><time>2026-04-25T09:31:04.54Z</time></trkpt><trkpt lat="43.6251633" lon="12.52465"><ele>410.20000000000005</ele><time>2026-04-25T09:31:05.539Z</time></trkpt><trkpt lat="43.6252467" lon="12.5246983"><ele>405.6</ele><time>2026-04-25T09:31:06.54Z</time></trkpt><trkpt lat="43.62534" lon="12.524735"><ele>401.0</ele><time>2026-04-25T09:31:07.54Z</time></trkpt><trkpt lat="43.6254383" lon="12.524755"><ele>400.4</ele><time>2026-04-25T09:31:08.54Z</time></trkpt><trkpt lat="43.6255267" lon="12.5247883"><ele>399.8</ele><time>2026-04-25T09:31:09.54Z</time></trkpt><trkpt lat="43.6256083" lon="12.5248367"><ele>399.2</ele><time>2026-04-25T09:31:10.54Z</time></trkpt><trkpt lat="43.6256767" lon="12.5249017"><ele>398.59999999999997</ele><time>2026-04-25T09:31:11.54Z</time></trkpt><trkpt lat="43.625765" lon="12.52497"><ele>398.0</ele><time>2026-04-25T09:31:12.539Z</time></trkpt><trkpt lat="43.6258617" lon="12.52504"><ele>398.0</ele><time>2026-04-25T09:31:13.539Z</time></trkpt><trkpt lat="43.6259617" lon="12.5251067"><ele>398.0</ele><time>2026-04-25T09:31:14.54Z</time></trkpt><trkpt lat="43.6260617" lon="12.525155"><ele>398.0</ele><time>2026-04-25T09:31:15.54Z</time></trkpt><trkpt lat="43.6261567" lon="12.52519"><ele>398.0</ele><time>2026-04-25T09:31:16.54Z</time></trkpt><trkpt lat="43.626255" lon="12.525205"><ele>398.0</ele><time>2026-04-25T09:31:17.54Z</time></trkpt><trkpt lat="43.6263433" lon="12.52522"><ele>399.2</ele><time>2026-04-25T09:31:18.539Z</time></trkpt><trkpt lat="43.6264333" lon="12.5252383"><ele>400.4</ele><time>2026-04-25T09:31:19.539Z</time></trkpt><trkpt lat="43.6265267" lon="12.5252617"><ele>401.59999999999997</ele><time>2026-04-25T09:31:20.539Z</time></trkpt><trkpt lat="43.626635" lon="12.5252733"><ele>402.79999999999995</ele><time>2026-04-25T09:31:21.539Z</time></trkpt><trkpt lat="43.6267483" lon="12.5252783"><ele>404.0</ele><time>2026-04-25T09:31:22.539Z</time></trkpt><trkpt lat="43.62687" lon="12.5252783"><ele>404.0</ele><time>2026-04-25T09:31:23.539Z</time></trkpt><trkpt lat="43.626995" lon="12.525275"><ele>404.0</ele><time>2026-04-25T09:31:24.54Z</time></trkpt><trkpt lat="43.62713" lon="12.5252533"><ele>404.0</ele><time>2026-04-25T09:31:25.54Z</time></trkpt><trkpt lat="43.6272533" lon="12.5252417"><ele>404.0</ele><time>2026-04-25T09:31:26.54Z</time></trkpt><trkpt lat="43.6273733" lon="12.52523"><ele>404.0</ele><time>2026-04-25T09:31:27.54Z</time></trkpt><trkpt lat="43.6274883" lon="12.5252217"><ele>404.0</ele><time>2026-04-25T09:31:28.539Z</time></trkpt><trkpt lat="43.6275867" lon="12.5252317"><ele>404.0</ele><time>2026-04-25T09:31:29.54Z</time></trkpt><trkpt lat="43.6276917" lon="12.5252467"><ele>404.0</ele><time>2026-04-25T09:31:30.54Z</time></trkpt><trkpt lat="43.6278033" lon="12.525265"><ele>404.0</ele><time>2026-04-25T09:31:31.539Z</time></trkpt><trkpt lat="43.62791" lon="12.5253"><ele>403.16666666666663</ele><time>2026-04-25T09:31:32.539Z</time></trkpt><trkpt lat="43.6280117" lon="12.5253217"><ele>402.3333333333333</ele><time>2026-04-25T09:31:33.54Z</time></trkpt><trkpt lat="43.6280983" lon="12.5253433"><ele>401.5</ele><time>2026-04-25T09:31:34.54Z</time></trkpt><trkpt lat="43.6281717" lon="12.5253733"><ele>400.66666666666663</ele><time>2026-04-25T09:31:35.54Z</time></trkpt><trkpt lat="43.62825" lon="12.525415"><ele>399.8333333333333</ele><time>2026-04-25T09:31:36.54Z</time></trkpt><trkpt lat="43.6283267" lon="12.525455"><ele>399.0</ele><time>2026-04-25T09:31:37.539Z</time></trkpt><trkpt lat="43.6284017" lon="12.52549"><ele>399.0</ele><time>2026-04-25T09:31:38.539Z</time></trkpt><trkpt lat="43.6284683" lon="12.5255233"><ele>399.0</ele><time>2026-04-25T09:31:39.54Z</time></trkpt><trkpt lat="43.6285333" lon="12.525565"><ele>399.0</ele><time>2026-04-25T09:31:40.54Z</time></trkpt><trkpt lat="43.6285883" lon="12.525625"><ele>399.0</ele><time>2026-04-25T09:31:41.54Z</time></trkpt><trkpt lat="43.6286317" lon="12.5257017"><ele>399.0</ele><time>2026-04-25T09:31:42.54Z</time></trkpt><trkpt lat="43.6286433" lon="12.5257967"><ele>399.0</ele><time>2026-04-25T09:31:43.54Z</time></trkpt><trkpt lat="43.6286317" lon="12.5258867"><ele>399.0</ele><time>2026-04-25T09:31:44.54Z</time></trkpt><trkpt lat="43.6285967" lon="12.5259633"><ele>399.0</ele><time>2026-04-25T09:31:45.54Z</time></trkpt><trkpt lat="43.62854" lon="12.5260267"><ele>399.0</ele><time>2026-04-25T09:31:46.54Z</time></trkpt><trkpt lat="43.6284633" lon="12.5260667"><ele>399.0</ele><time>2026-04-25T09:31:47.539Z</time></trkpt><trkpt lat="43.628365" lon="12.5260967"><ele>399.0</ele><time>2026-04-25T09:31:48.54Z</time></trkpt><trkpt lat="43.6282683" lon="12.5261283"><ele>399.0</ele><time>2026-04-25T09:31:49.54Z</time></trkpt><trkpt lat="43.62817" lon="12.526165"><ele>399.0</ele><time>2026-04-25T09:31:50.54Z</time></trkpt><trkpt lat="43.6280883" lon="12.5262033"><ele>399.0</ele><time>2026-04-25T09:31:51.539Z</time></trkpt><trkpt lat="43.6280133" lon="12.5262533"><ele>399.0</ele><time>2026-04-25T09:31:52.54Z</time></trkpt><trkpt lat="43.6279517" lon="12.5263267"><ele>399.0</ele><time>2026-04-25T09:31:53.539Z</time></trkpt><trkpt lat="43.6279117" lon="12.5264433"><ele>399.0</ele><time>2026-04-25T09:31:54.54Z</time></trkpt><trkpt lat="43.627885" lon="12.52658"><ele>399.0</ele><time>2026-04-25T09:31:55.54Z</time></trkpt><trkpt lat="43.6278717" lon="12.5267367"><ele>397.0</ele><time>2026-04-25T09:31:56.54Z</time></trkpt><trkpt lat="43.6278533" lon="12.526915"><ele>395.0</ele><time>2026-04-25T09:31:57.54Z</time></trkpt><trkpt lat="43.6278317" lon="12.527115"><ele>393.0</ele><time>2026-04-25T09:31:58.54Z</time></trkpt><trkpt lat="43.6278233" lon="12.527305"><ele>391.0</ele><time>2026-04-25T09:31:59.54Z</time></trkpt><trkpt lat="43.6278133" lon="12.5274783"><ele>389.33333333333337</ele><time>2026-04-25T09:32:00.539Z</time></trkpt><trkpt lat="43.6278017" lon="12.52764"><ele>387.6666666666667</ele><time>2026-04-25T09:32:01.539Z</time></trkpt><trkpt lat="43.6278" lon="12.5277767"><ele>386.0</ele><time>2026-04-25T09:32:02.539Z</time></trkpt><trkpt lat="43.6278233" lon="12.527885"><ele>384.33333333333337</ele><time>2026-04-25T09:32:03.54Z</time></trkpt><trkpt lat="43.6278617" lon="12.5279717"><ele>382.6666666666667</ele><time>2026-04-25T09:32:04.54Z</time></trkpt><trkpt lat="43.6279117" lon="12.5280383"><ele>381.0</ele><time>2026-04-25T09:32:05.54Z</time></trkpt><trkpt lat="43.627975" lon="12.5280883"><ele>380.8333333333333</ele><time>2026-04-25T09:32:06.539Z</time></trkpt><trkpt lat="43.6280417" lon="12.52814"><ele>380.6666666666667</ele><time>2026-04-25T09:32:07.54Z</time></trkpt><trkpt lat="43.6281233" lon="12.5281967"><ele>380.5</ele><time>2026-04-25T09:32:08.54Z</time></trkpt><trkpt lat="43.6282067" lon="12.5282483"><ele>380.33333333333337</ele><time>2026-04-25T09:32:09.54Z</time></trkpt><trkpt lat="43.6282967" lon="12.5282917"><ele>380.1666666666667</ele><time>2026-04-25T09:32:10.54Z</time></trkpt><trkpt lat="43.62836" lon="12.5283633"><ele>380.0</ele><time>2026-04-25T09:32:11.54Z</time></trkpt><trkpt lat="43.628415" lon="12.5284333"><ele>380.0</ele><time>2026-04-25T09:32:12.54Z</time></trkpt><trkpt lat="43.6284567" lon="12.5285167"><ele>380.0</ele><time>2026-04-25T09:32:13.54Z</time></trkpt><trkpt lat="43.6284733" lon="12.52862"><ele>380.0</ele><time>2026-04-25T09:32:14.54Z</time></trkpt><trkpt lat="43.6284783" lon="12.5287433"><ele>380.0</ele><time>2026-04-25T09:32:15.54Z</time></trkpt><trkpt lat="43.6284717" lon="12.52889"><ele>380.0</ele><time>2026-04-25T09:32:16.54Z</time></trkpt><trkpt lat="43.6284496" lon="12.5290628"><ele>379.5</ele><time>2026-04-25T09:32:17.539Z</time></trkpt><trkpt lat="43.6284298" lon="12.5292392"><ele>379.0</ele><time>2026-04-25T09:32:18.539Z</time></trkpt><trkpt lat="43.6284183" lon="12.5294202"><ele>378.5</ele><time>2026-04-25T09:32:19.54Z</time></trkpt><trkpt lat="43.6284321" lon="12.5296003"><ele>378.0</ele><time>2026-04-25T09:32:20.54Z</time></trkpt><trkpt lat="43.6284843" lon="12.5298056"><ele>378.0</ele><time>2026-04-25T09:32:21.539Z</time></trkpt><trkpt lat="43.6285539" lon="12.5300345"><ele>378.0</ele><time>2026-04-25T09:32:22.54Z</time></trkpt><trkpt lat="43.6286202" lon="12.5302633"><ele>378.0</ele><time>2026-04-25T09:32:23.54Z</time></trkpt><trkpt lat="43.6286827" lon="12.5304779"><ele>373.6666666666667</ele><time>2026-04-25T09:32:24.539Z</time></trkpt><trkpt lat="43.6287475" lon="12.530691"><ele>369.33333333333337</ele><time>2026-04-25T09:32:25.54Z</time></trkpt><trkpt lat="43.6288067" lon="12.5309092"><ele>365.0</ele><time>2026-04-25T09:32:26.539Z</time></trkpt><trkpt lat="43.6288685" lon="12.5311159"><ele>370.33333333333337</ele><time>2026-04-25T09:32:27.539Z</time></trkpt><trkpt lat="43.6289297" lon="12.5313209"><ele>375.6666666666667</ele><time>2026-04-25T09:32:28.54Z</time></trkpt><trkpt lat="43.6290007" lon="12.5315023"><ele>381.0</ele><time>2026-04-25T09:32:29.54Z</time></trkpt><trkpt lat="43.6290852" lon="12.531668"><ele>381.0</ele><time>2026-04-25T09:32:30.54Z</time></trkpt><trkpt lat="43.6291924" lon="12.5318111"><ele>381.0</ele><time>2026-04-25T09:32:31.54Z</time></trkpt><trkpt lat="43.6293154" lon="12.5319243"><ele>381.0</ele><time>2026-04-25T09:32:32.539Z</time></trkpt><trkpt lat="43.629429" lon="12.5320159"><ele>381.0</ele><time>2026-04-25T09:32:33.54Z</time></trkpt><trkpt lat="43.6295106" lon="12.5321208"><ele>381.75</ele><time>2026-04-25T09:32:34.54Z</time></trkpt><trkpt lat="43.6295594" lon="12.5322594"><ele>382.5</ele><time>2026-04-25T09:32:35.54Z</time></trkpt><trkpt lat="43.6295835" lon="12.5324307"><ele>383.25</ele><time>2026-04-25T09:32:36.54Z</time></trkpt><trkpt lat="43.6295827" lon="12.5325923"><ele>384.0</ele><time>2026-04-25T09:32:37.54Z</time></trkpt><trkpt lat="43.6295607" lon="12.5327244"><ele>384.0</ele><time>2026-04-25T09:32:38.54Z</time></trkpt><trkpt lat="43.6295257" lon="12.532818"><ele>384.0</ele><time>2026-04-25T09:32:39.54Z</time></trkpt><trkpt lat="43.6294837" lon="12.5328927"><ele>384.0</ele><time>2026-04-25T09:32:40.539Z</time></trkpt><trkpt lat="43.6293848" lon="12.5329807"><ele>384.0</ele><time>2026-04-25T09:32:42.54Z</time></trkpt><trkpt lat="43.6293081" lon="12.5330398"><ele>384.0</ele><time>2026-04-25T09:32:43.54Z</time></trkpt><trkpt lat="43.6291909" lon="12.5331033"><ele>386.33333333333337</ele><time>2026-04-25T09:32:44.539Z</time></trkpt><trkpt lat="43.6290472" lon="12.5331703"><ele>388.6666666666667</ele><time>2026-04-25T09:32:45.539Z</time></trkpt><trkpt lat="43.6288811" lon="12.5332527"><ele>391.0</ele><time>2026-04-25T09:32:46.54Z</time></trkpt><trkpt lat="43.6287391" lon="12.5333307"><ele>390.0</ele><time>2026-04-25T09:32:47.54Z</time></trkpt><trkpt lat="43.628617" lon="12.5334189"><ele>389.0</ele><time>2026-04-25T09:32:48.54Z</time></trkpt><trkpt lat="43.6285171" lon="12.533515"><ele>388.0</ele><time>2026-04-25T09:32:49.54Z</time></trkpt><trkpt lat="43.6284387" lon="12.5336297"><ele>387.0</ele><time>2026-04-25T09:32:50.54Z</time></trkpt><trkpt lat="43.6283766" lon="12.5337665"><ele>383.6</ele><time>2026-04-25T09:32:51.539Z</time></trkpt><trkpt lat="43.6283246" lon="12.5339059"><ele>380.20000000000005</ele><time>2026-04-25T09:32:52.54Z</time></trkpt><trkpt lat="43.6282585" lon="12.5340205"><ele>376.8</ele><time>2026-04-25T09:32:53.54Z</time></trkpt><trkpt lat="43.6281802" lon="12.5341185"><ele>373.4</ele><time>2026-04-25T09:32:54.54Z</time></trkpt><trkpt lat="43.6281041" lon="12.5341891"><ele>370.0</ele><time>2026-04-25T09:32:55.54Z</time></trkpt><trkpt lat="43.6280425" lon="12.5342351"><ele>370.0</ele><time>2026-04-25T09:32:56.54Z</time></trkpt><trkpt lat="43.627989" lon="12.5342849"><ele>370.0</ele><time>2026-04-25T09:32:57.54Z</time></trkpt><trkpt lat="43.6279537" lon="12.5344353"><ele>370.0</ele><time>2026-04-25T09:32:59.54Z</time></trkpt><trkpt lat="43.6279726" lon="12.5345249"><ele>370.0</ele><time>2026-04-25T09:33:00.54Z</time></trkpt><trkpt lat="43.6280398" lon="12.5346456"><ele>370.0</ele><time>2026-04-25T09:33:01.54Z</time></trkpt><trkpt lat="43.6281305" lon="12.53479"><ele>367.0</ele><time>2026-04-25T09:33:02.54Z</time></trkpt><trkpt lat="43.6282494" lon="12.5349482"><ele>364.0</ele><time>2026-04-25T09:33:03.54Z</time></trkpt><trkpt lat="43.6283775" lon="12.5351067"><ele>361.0</ele><time>2026-04-25T09:33:04.54Z</time></trkpt><trkpt lat="43.6285089" lon="12.5352635"><ele>361.5</ele><time>2026-04-25T09:33:05.54Z</time></trkpt><trkpt lat="43.6286413" lon="12.5354001"><ele>362.0</ele><time>2026-04-25T09:33:06.539Z</time></trkpt><trkpt lat="43.6287489" lon="12.5355223"><ele>362.5</ele><time>2026-04-25T09:33:07.54Z</time></trkpt><trkpt lat="43.6288282" lon="12.5356245"><ele>363.0</ele><time>2026-04-25T09:33:08.54Z</time></trkpt><trkpt lat="43.6288962" lon="12.5357011"><ele>361.57142857142856</ele><time>2026-04-25T09:33:09.54Z</time></trkpt><trkpt lat="43.6289626" lon="12.5357603"><ele>360.1428571428571</ele><time>2026-04-25T09:33:10.539Z</time></trkpt><trkpt lat="43.6290208" lon="12.5358221"><ele>358.71428571428567</ele><time>2026-04-25T09:33:11.539Z</time></trkpt><trkpt lat="43.6290789" lon="12.5358781"><ele>357.2857142857143</ele><time>2026-04-25T09:33:12.54Z</time></trkpt><trkpt lat="43.6291278" lon="12.5359398"><ele>355.8571428571429</ele><time>2026-04-25T09:33:13.54Z</time></trkpt><trkpt lat="43.6291769" lon="12.536009"><ele>354.4285714285714</ele><time>2026-04-25T09:33:14.54Z</time></trkpt><trkpt lat="43.6292276" lon="12.5361017"><ele>353.0</ele><time>2026-04-25T09:33:15.54Z</time></trkpt><trkpt lat="43.6292843" lon="12.5362148"><ele>352.79999999999995</ele><time>2026-04-25T09:33:16.54Z</time></trkpt><trkpt lat="43.6293428" lon="12.5363409"><ele>352.6</ele><time>2026-04-25T09:33:17.54Z</time></trkpt><trkpt lat="43.6293993" lon="12.5364701"><ele>352.4</ele><time>2026-04-25T09:33:18.54Z</time></trkpt><trkpt lat="43.6294563" lon="12.5366034"><ele>352.20000000000005</ele><time>2026-04-25T09:33:19.54Z</time></trkpt><trkpt lat="43.6295143" lon="12.5367332"><ele>352.0</ele><time>2026-04-25T09:33:20.539Z</time></trkpt><trkpt lat="43.6295713" lon="12.536862"><ele>352.0</ele><time>2026-04-25T09:33:21.54Z</time></trkpt><trkpt lat="43.6296227" lon="12.53698"><ele>352.0</ele><time>2026-04-25T09:33:22.54Z</time></trkpt><trkpt lat="43.6296705" lon="12.5370955"><ele>352.0</ele><time>2026-04-25T09:33:23.54Z</time></trkpt><trkpt lat="43.6297088" lon="12.5372168"><ele>352.0</ele><time>2026-04-25T09:33:24.54Z</time></trkpt><trkpt lat="43.6297491" lon="12.5373285"><ele>352.0</ele><time>2026-04-25T09:33:25.54Z</time></trkpt><trkpt lat="43.6297865" lon="12.5374276"><ele>351.42857142857144</ele><time>2026-04-25T09:33:26.539Z</time></trkpt><trkpt lat="43.6298078" lon="12.5375127"><ele>350.85714285714283</ele><time>2026-04-25T09:33:27.539Z</time></trkpt><trkpt lat="43.6298364" lon="12.5376135"><ele>350.2857142857143</ele><time>2026-04-25T09:33:29.54Z</time></trkpt><trkpt lat="43.6299014" lon="12.5375636"><ele>349.7142857142857</ele><time>2026-04-25T09:33:33.54Z</time></trkpt><trkpt lat="43.6298519" lon="12.5374912"><ele>349.14285714285717</ele><time>2026-04-25T09:33:35.539Z</time></trkpt><trkpt lat="43.6298048" lon="12.5374176"><ele>348.57142857142856</ele><time>2026-04-25T09:33:36.54Z</time></trkpt><trkpt lat="43.6297606" lon="12.5373235"><ele>348.0</ele><time>2026-04-25T09:33:37.539Z</time></trkpt><trkpt lat="43.6297023" lon="12.5371959"><ele>348.0</ele><time>2026-04-25T09:33:38.54Z</time></trkpt><trkpt lat="43.6296465" lon="12.5370633"><ele>348.0</ele><time>2026-04-25T09:33:39.54Z</time></trkpt><trkpt lat="43.6295785" lon="12.5369144"><ele>348.0</ele><time>2026-04-25T09:33:40.54Z</time></trkpt><trkpt lat="43.629502" lon="12.5367477"><ele>348.0</ele><time>2026-04-25T09:33:41.54Z</time></trkpt><trkpt lat="43.6294239" lon="12.5365697"><ele>349.25</ele><time>2026-04-25T09:33:42.54Z</time></trkpt><trkpt lat="43.6293492" lon="12.5363835"><ele>350.5</ele><time>2026-04-25T09:33:43.54Z</time></trkpt><trkpt lat="43.6292758" lon="12.5362132"><ele>351.75</ele><time>2026-04-25T09:33:44.54Z</time></trkpt><trkpt lat="43.6291945" lon="12.536051"><ele>353.0</ele><time>2026-04-25T09:33:45.54Z</time></trkpt><trkpt lat="43.6290881" lon="12.5358866"><ele>353.0</ele><time>2026-04-25T09:33:46.54Z</time></trkpt><trkpt lat="43.6289715" lon="12.5357452"><ele>353.0</ele><time>2026-04-25T09:33:47.54Z</time></trkpt><trkpt lat="43.6288703" lon="12.5356218"><ele>353.0</ele><time>2026-04-25T09:33:48.54Z</time></trkpt><trkpt lat="43.6287818" lon="12.5355467"><ele>353.0</ele><time>2026-04-25T09:33:49.539Z</time></trkpt><trkpt lat="43.6287174" lon="12.5354864"><ele>355.5</ele><time>2026-04-25T09:33:50.54Z</time></trkpt><trkpt lat="43.6286316" lon="12.5354906"><ele>358.0</ele><time>2026-04-25T09:33:52.539Z</time></trkpt><trkpt lat="43.628523" lon="12.5356017"><ele>360.5</ele><time>2026-04-25T09:33:54.54Z</time></trkpt><trkpt lat="43.6284336" lon="12.5357028"><ele>363.0</ele><time>2026-04-25T09:33:55.539Z</time></trkpt><trkpt lat="43.6283408" lon="12.5358038"><ele>363.0</ele><time>2026-04-25T09:33:56.54Z</time></trkpt><trkpt lat="43.6282456" lon="12.5359342"><ele>363.0</ele><time>2026-04-25T09:33:57.539Z</time></trkpt><trkpt lat="43.6281406" lon="12.5360833"><ele>363.0</ele><time>2026-04-25T09:33:58.539Z</time></trkpt><trkpt lat="43.6280384" lon="12.5362297"><ele>363.0</ele><time>2026-04-25T09:33:59.539Z</time></trkpt><trkpt lat="43.6279366" lon="12.5363817"><ele>367.0</ele><time>2026-04-25T09:34:00.54Z</time></trkpt><trkpt lat="43.6278352" lon="12.5365596"><ele>371.0</ele><time>2026-04-25T09:34:01.54Z</time></trkpt><trkpt lat="43.627741" lon="12.5367435"><ele>375.0</ele><time>2026-04-25T09:34:02.539Z</time></trkpt><trkpt lat="43.6276436" lon="12.5369328"><ele>378.0</ele><time>2026-04-25T09:34:03.539Z</time></trkpt><trkpt lat="43.627544" lon="12.5371197"><ele>381.0</ele><time>2026-04-25T09:34:04.54Z</time></trkpt><trkpt lat="43.6274496" lon="12.5373023"><ele>384.0</ele><time>2026-04-25T09:34:05.539Z</time></trkpt><trkpt lat="43.6273571" lon="12.5374922"><ele>384.0</ele><time>2026-04-25T09:34:06.54Z</time></trkpt><trkpt lat="43.6272684" lon="12.5376903"><ele>384.0</ele><time>2026-04-25T09:34:07.539Z</time></trkpt><trkpt lat="43.6271913" lon="12.5379013"><ele>384.0</ele><time>2026-04-25T09:34:08.54Z</time></trkpt><trkpt lat="43.6271265" lon="12.5381156"><ele>383.75</ele><time>2026-04-25T09:34:09.54Z</time></trkpt><trkpt lat="43.6270702" lon="12.5383224"><ele>383.5</ele><time>2026-04-25T09:34:10.54Z</time></trkpt><trkpt lat="43.6270208" lon="12.5385076"><ele>383.25</ele><time>2026-04-25T09:34:11.54Z</time></trkpt><trkpt lat="43.6269732" lon="12.5386636"><ele>383.0</ele><time>2026-04-25T09:34:12.54Z</time></trkpt><trkpt lat="43.6269254" lon="12.5387864"><ele>386.0</ele><time>2026-04-25T09:34:13.54Z</time></trkpt><trkpt lat="43.6268698" lon="12.5388701"><ele>389.0</ele><time>2026-04-25T09:34:14.54Z</time></trkpt><trkpt lat="43.6267893" lon="12.538961"><ele>392.0</ele><time>2026-04-25T09:34:15.54Z</time></trkpt><trkpt lat="43.6266686" lon="12.5390607"><ele>395.0</ele><time>2026-04-25T09:34:16.539Z</time></trkpt><trkpt lat="43.6265387" lon="12.5391674"><ele>395.0</ele><time>2026-04-25T09:34:17.54Z</time></trkpt><trkpt lat="43.6264144" lon="12.5392864"><ele>395.0</ele><time>2026-04-25T09:34:18.54Z</time></trkpt><trkpt lat="43.6263003" lon="12.5394168"><ele>395.0</ele><time>2026-04-25T09:34:19.54Z</time></trkpt><trkpt lat="43.626184" lon="12.5395628"><ele>399.0</ele><time>2026-04-25T09:34:20.54Z</time></trkpt><trkpt lat="43.6260583" lon="12.5397265"><ele>403.0</ele><time>2026-04-25T09:34:21.539Z</time></trkpt><trkpt lat="43.6259292" lon="12.5398841"><ele>407.0</ele><time>2026-04-25T09:34:22.539Z</time></trkpt><trkpt lat="43.6258085" lon="12.5400209"><ele>407.0</ele><time>2026-04-25T09:34:23.54Z</time></trkpt><trkpt lat="43.6256991" lon="12.5401376"><ele>407.0</ele><time>2026-04-25T09:34:24.539Z</time></trkpt><trkpt lat="43.6255919" lon="12.5402262"><ele>407.0</ele><time>2026-04-25T09:34:25.539Z</time></trkpt><trkpt lat="43.6254905" lon="12.5403"><ele>407.0</ele><time>2026-04-25T09:34:26.539Z</time></trkpt><trkpt lat="43.6254029" lon="12.5403681"><ele>409.0</ele><time>2026-04-25T09:34:27.54Z</time></trkpt><trkpt lat="43.6253322" lon="12.5404531"><ele>411.0</ele><time>2026-04-25T09:34:28.539Z</time></trkpt><trkpt lat="43.6252701" lon="12.5405692"><ele>413.0</ele><time>2026-04-25T09:34:29.54Z</time></trkpt><trkpt lat="43.6252196" lon="12.5407215"><ele>415.0</ele><time>2026-04-25T09:34:30.54Z</time></trkpt><trkpt lat="43.6251533" lon="12.54091"><ele>420.0</ele><time>2026-04-25T09:34:31.54Z</time></trkpt><trkpt lat="43.6250783" lon="12.54108"><ele>425.0</ele><time>2026-04-25T09:34:32.539Z</time></trkpt><trkpt lat="43.6249833" lon="12.5412683"><ele>430.0</ele><time>2026-04-25T09:34:33.54Z</time></trkpt><trkpt lat="43.62489" lon="12.5414467"><ele>434.0</ele><time>2026-04-25T09:34:34.54Z</time></trkpt><trkpt lat="43.624795" lon="12.5416067"><ele>438.0</ele><time>2026-04-25T09:34:35.54Z</time></trkpt><trkpt lat="43.6246867" lon="12.54177"><ele>442.0</ele><time>2026-04-25T09:34:36.54Z</time></trkpt><trkpt lat="43.624575" lon="12.54192"><ele>445.5</ele><time>2026-04-25T09:34:37.539Z</time></trkpt><trkpt lat="43.6244733" lon="12.5420517"><ele>449.0</ele><time>2026-04-25T09:34:38.54Z</time></trkpt><trkpt lat="43.62437" lon="12.54218"><ele>452.5</ele><time>2026-04-25T09:34:39.54Z</time></trkpt><trkpt lat="43.6242633" lon="12.5422967"><ele>456.0</ele><time>2026-04-25T09:34:40.54Z</time></trkpt><trkpt lat="43.6241567" lon="12.5423817"><ele>456.0</ele><time>2026-04-25T09:34:41.54Z</time></trkpt><trkpt lat="43.6240583" lon="12.54244"><ele>456.0</ele><time>2026-04-25T09:34:42.54Z</time></trkpt><trkpt lat="43.6239583" lon="12.5424733"><ele>456.0</ele><time>2026-04-25T09:34:43.54Z</time></trkpt><trkpt lat="43.62386" lon="12.54248"><ele>456.0</ele><time>2026-04-25T09:34:44.54Z</time></trkpt><trkpt lat="43.623775" lon="12.5424733"><ele>456.0</ele><time>2026-04-25T09:34:45.54Z</time></trkpt><trkpt lat="43.62371" lon="12.5424667"><ele>456.5</ele><time>2026-04-25T09:34:46.54Z</time></trkpt><trkpt lat="43.623625" lon="12.5425667"><ele>457.0</ele><time>2026-04-25T09:34:48.54Z</time></trkpt><trkpt lat="43.6235917" lon="12.5427"><ele>457.5</ele><time>2026-04-25T09:34:49.539Z</time></trkpt><trkpt lat="43.6235433" lon="12.5428567"><ele>458.0</ele><time>2026-04-25T09:34:50.54Z</time></trkpt><trkpt lat="43.62348" lon="12.5430267"><ele>458.0</ele><time>2026-04-25T09:34:51.54Z</time></trkpt><trkpt lat="43.623405" lon="12.5432067"><ele>458.0</ele><time>2026-04-25T09:34:52.54Z</time></trkpt><trkpt lat="43.6233317" lon="12.5433833"><ele>458.0</ele><time>2026-04-25T09:34:53.54Z</time></trkpt><trkpt lat="43.6232467" lon="12.54358"><ele>456.66666666666663</ele><time>2026-04-25T09:34:54.54Z</time></trkpt><trkpt lat="43.6231533" lon="12.5437933"><ele>455.33333333333337</ele><time>2026-04-25T09:34:55.539Z</time></trkpt><trkpt lat="43.6230583" lon="12.5440033"><ele>454.0</ele><time>2026-04-25T09:34:56.54Z</time></trkpt><trkpt lat="43.6229617" lon="12.5441967"><ele>454.0</ele><time>2026-04-25T09:34:57.54Z</time></trkpt><trkpt lat="43.622875" lon="12.544385"><ele>454.0</ele><time>2026-04-25T09:34:58.54Z</time></trkpt><trkpt lat="43.6227917" lon="12.5445533"><ele>454.0</ele><time>2026-04-25T09:34:59.54Z</time></trkpt><trkpt lat="43.6227233" lon="12.5447167"><ele>454.0</ele><time>2026-04-25T09:35:00.54Z</time></trkpt><trkpt lat="43.6226517" lon="12.5448867"><ele>450.75</ele><time>2026-04-25T09:35:01.539Z</time></trkpt><trkpt lat="43.62258" lon="12.5450483"><ele>447.5</ele><time>2026-04-25T09:35:02.539Z</time></trkpt><trkpt lat="43.6225033" lon="12.5451983"><ele>444.25</ele><time>2026-04-25T09:35:03.54Z</time></trkpt><trkpt lat="43.6224283" lon="12.545335"><ele>441.0</ele><time>2026-04-25T09:35:04.54Z</time></trkpt><trkpt lat="43.6223433" lon="12.5454483"><ele>439.0</ele><time>2026-04-25T09:35:05.54Z</time></trkpt><trkpt lat="43.6222367" lon="12.5455517"><ele>437.0</ele><time>2026-04-25T09:35:06.539Z</time></trkpt><trkpt lat="43.62213" lon="12.5456217"><ele>435.0</ele><time>2026-04-25T09:35:07.54Z</time></trkpt><trkpt lat="43.62202" lon="12.5456833"><ele>433.0</ele><time>2026-04-25T09:35:08.54Z</time></trkpt><trkpt lat="43.6219217" lon="12.5457483"><ele>430.4</ele><time>2026-04-25T09:35:09.539Z</time></trkpt><trkpt lat="43.6218217" lon="12.5458133"><ele>427.79999999999995</ele><time>2026-04-25T09:35:10.539Z</time></trkpt><trkpt lat="43.6217283" lon="12.5458933"><ele>425.2</ele><time>2026-04-25T09:35:11.539Z</time></trkpt><trkpt lat="43.6216333" lon="12.545995"><ele>422.6</ele><time>2026-04-25T09:35:12.54Z</time></trkpt><trkpt lat="43.6215567" lon="12.54609"><ele>420.0</ele><time>2026-04-25T09:35:13.539Z</time></trkpt><trkpt lat="43.6214867" lon="12.5461783"><ele>419.4</ele><time>2026-04-25T09:35:14.539Z</time></trkpt><trkpt lat="43.621415" lon="12.54626"><ele>418.8</ele><time>2026-04-25T09:35:15.539Z</time></trkpt><trkpt lat="43.6213317" lon="12.5463267"><ele>418.20000000000005</ele><time>2026-04-25T09:35:16.539Z</time></trkpt><trkpt lat="43.62124" lon="12.546375"><ele>417.6</ele><time>2026-04-25T09:35:17.54Z</time></trkpt><trkpt lat="43.6211417" lon="12.5463833"><ele>417.0</ele><time>2026-04-25T09:35:18.54Z</time></trkpt><trkpt lat="43.6210417" lon="12.5463333"><ele>415.5</ele><time>2026-04-25T09:35:19.54Z</time></trkpt><trkpt lat="43.6209533" lon="12.546235"><ele>414.0</ele><time>2026-04-25T09:35:20.54Z</time></trkpt><trkpt lat="43.6208417" lon="12.5461083"><ele>412.5</ele><time>2026-04-25T09:35:21.54Z</time></trkpt><trkpt lat="43.6207267" lon="12.54598"><ele>411.0</ele><time>2026-04-25T09:35:22.539Z</time></trkpt><trkpt lat="43.620605" lon="12.5458567"><ele>411.0</ele><time>2026-04-25T09:35:23.54Z</time></trkpt><trkpt lat="43.6204967" lon="12.5457317"><ele>411.0</ele><time>2026-04-25T09:35:24.54Z</time></trkpt><trkpt lat="43.6204067" lon="12.5456217"><ele>411.0</ele><time>2026-04-25T09:35:25.54Z</time></trkpt><trkpt lat="43.6203233" lon="12.5455233"><ele>411.0</ele><time>2026-04-25T09:35:26.54Z</time></trkpt><trkpt lat="43.620225" lon="12.54545"><ele>410.6</ele><time>2026-04-25T09:35:27.54Z</time></trkpt><trkpt lat="43.6201433" lon="12.5454067"><ele>410.20000000000005</ele><time>2026-04-25T09:35:28.54Z</time></trkpt><trkpt lat="43.62005" lon="12.545385"><ele>409.79999999999995</ele><time>2026-04-25T09:35:29.539Z</time></trkpt><trkpt lat="43.6199383" lon="12.5453917"><ele>409.4</ele><time>2026-04-25T09:35:30.539Z</time></trkpt><trkpt lat="43.6198083" lon="12.54543"><ele>409.0</ele><time>2026-04-25T09:35:31.54Z</time></trkpt><trkpt lat="43.619695" lon="12.5454783"><ele>409.0</ele><time>2026-04-25T09:35:32.539Z</time></trkpt><trkpt lat="43.61957" lon="12.54554"><ele>409.0</ele><time>2026-04-25T09:35:33.539Z</time></trkpt><trkpt lat="43.6194683" lon="12.545595"><ele>409.0</ele><time>2026-04-25T09:35:34.54Z</time></trkpt><trkpt lat="43.6193667" lon="12.5456683"><ele>409.0</ele><time>2026-04-25T09:35:35.54Z</time></trkpt><trkpt lat="43.6192567" lon="12.545755"><ele>410.5</ele><time>2026-04-25T09:35:36.539Z</time></trkpt><trkpt lat="43.6191483" lon="12.5458383"><ele>412.0</ele><time>2026-04-25T09:35:37.539Z</time></trkpt><trkpt lat="43.6190283" lon="12.545935"><ele>413.5</ele><time>2026-04-25T09:35:38.54Z</time></trkpt><trkpt lat="43.6189017" lon="12.5460533"><ele>415.0</ele><time>2026-04-25T09:35:39.539Z</time></trkpt><trkpt lat="43.6187767" lon="12.54617"><ele>411.6666666666667</ele><time>2026-04-25T09:35:40.54Z</time></trkpt><trkpt lat="43.6186617" lon="12.5462933"><ele>408.33333333333337</ele><time>2026-04-25T09:35:41.54Z</time></trkpt><trkpt lat="43.618545" lon="12.5464417"><ele>405.0</ele><time>2026-04-25T09:35:42.54Z</time></trkpt><trkpt lat="43.6184317" lon="12.5465833"><ele>405.0</ele><time>2026-04-25T09:35:43.539Z</time></trkpt><trkpt lat="43.618335" lon="12.5467117"><ele>405.0</ele><time>2026-04-25T09:35:44.54Z</time></trkpt><trkpt lat="43.6182367" lon="12.546845"><ele>405.0</ele><time>2026-04-25T09:35:45.54Z</time></trkpt><trkpt lat="43.6181517" lon="12.546985"><ele>405.0</ele><time>2026-04-25T09:35:46.54Z</time></trkpt><trkpt lat="43.618095" lon="12.5471117"><ele>402.1666666666667</ele><time>2026-04-25T09:35:47.54Z</time></trkpt><trkpt lat="43.618065" lon="12.5472283"><ele>399.33333333333337</ele><time>2026-04-25T09:35:48.54Z</time></trkpt><trkpt lat="43.618035" lon="12.5473467"><ele>396.5</ele><time>2026-04-25T09:35:49.539Z</time></trkpt><trkpt lat="43.6180083" lon="12.5474633"><ele>393.6666666666667</ele><time>2026-04-25T09:35:50.54Z</time></trkpt><trkpt lat="43.6179783" lon="12.5475633"><ele>390.83333333333337</ele><time>2026-04-25T09:35:51.539Z</time></trkpt><trkpt lat="43.6179383" lon="12.547655"><ele>388.0</ele><time>2026-04-25T09:35:52.54Z</time></trkpt><trkpt lat="43.6178717" lon="12.54775"><ele>389.33333333333337</ele><time>2026-04-25T09:35:54.54Z</time></trkpt><trkpt lat="43.617775" lon="12.54778"><ele>390.6666666666667</ele><time>2026-04-25T09:35:56.54Z</time></trkpt><trkpt lat="43.61767" lon="12.5477033"><ele>392.0</ele><time>2026-04-25T09:35:58.539Z</time></trkpt><trkpt lat="43.617605" lon="12.5476767"><ele>393.33333333333337</ele><time>2026-04-25T09:35:59.54Z</time></trkpt><trkpt lat="43.61754" lon="12.5476617"><ele>394.6666666666667</ele><time>2026-04-25T09:36:00.539Z</time></trkpt><trkpt lat="43.617475" lon="12.5476683"><ele>396.0</ele><time>2026-04-25T09:36:01.54Z</time></trkpt><trkpt lat="43.61741" lon="12.5476567"><ele>396.0</ele><time>2026-04-25T09:36:02.539Z</time></trkpt><trkpt lat="43.617335" lon="12.547625"><ele>396.0</ele><time>2026-04-25T09:36:03.54Z</time></trkpt><trkpt lat="43.61727" lon="12.5475783"><ele>396.0</ele><time>2026-04-25T09:36:04.54Z</time></trkpt><trkpt lat="43.6172083" lon="12.54752"><ele>396.0</ele><time>2026-04-25T09:36:05.54Z</time></trkpt><trkpt lat="43.6171133" lon="12.5474417"><ele>396.0</ele><time>2026-04-25T09:36:07.54Z</time></trkpt><trkpt lat="43.61704" lon="12.5474267"><ele>396.0</ele><time>2026-04-25T09:36:09.54Z</time></trkpt><trkpt lat="43.6169783" lon="12.5475167"><ele>396.0</ele><time>2026-04-25T09:36:11.54Z</time></trkpt><trkpt lat="43.6170133" lon="12.547715"><ele>396.0</ele><time>2026-04-25T09:36:13.54Z</time></trkpt><trkpt lat="43.6170483" lon="12.5478667"><ele>396.0</ele><time>2026-04-25T09:36:14.54Z</time></trkpt><trkpt lat="43.6170717" lon="12.5480383"><ele>396.0</ele><time>2026-04-25T09:36:15.54Z</time></trkpt><trkpt lat="43.6170933" lon="12.5482"><ele>393.0</ele><time>2026-04-25T09:36:16.54Z</time></trkpt><trkpt lat="43.6171017" lon="12.5483783"><ele>390.0</ele><time>2026-04-25T09:36:17.54Z</time></trkpt><trkpt lat="43.6171133" lon="12.5485583"><ele>387.0</ele><time>2026-04-25T09:36:18.539Z</time></trkpt><trkpt lat="43.6171133" lon="12.5487633"><ele>384.0</ele><time>2026-04-25T09:36:19.54Z</time></trkpt><trkpt lat="43.6171083" lon="12.5489683"><ele>381.75</ele><time>2026-04-25T09:36:20.539Z</time></trkpt><trkpt lat="43.6170967" lon="12.5491567"><ele>379.5</ele><time>2026-04-25T09:36:21.54Z</time></trkpt><trkpt lat="43.6170917" lon="12.5493317"><ele>377.25</ele><time>2026-04-25T09:36:22.54Z</time></trkpt><trkpt lat="43.6170867" lon="12.5495083"><ele>375.0</ele><time>2026-04-25T09:36:23.54Z</time></trkpt><trkpt lat="43.6170767" lon="12.5496733"><ele>373.4</ele><time>2026-04-25T09:36:24.54Z</time></trkpt><trkpt lat="43.6170567" lon="12.5498283"><ele>371.8</ele><time>2026-04-25T09:36:25.54Z</time></trkpt><trkpt lat="43.61705" lon="12.549975"><ele>370.20000000000005</ele><time>2026-04-25T09:36:26.54Z</time></trkpt><trkpt lat="43.6170533" lon="12.5501233"><ele>368.6</ele><time>2026-04-25T09:36:27.54Z</time></trkpt><trkpt lat="43.6170633" lon="12.55026"><ele>367.0</ele><time>2026-04-25T09:36:28.54Z</time></trkpt><trkpt lat="43.61708" lon="12.5503967"><ele>363.5</ele><time>2026-04-25T09:36:29.54Z</time></trkpt><trkpt lat="43.6171183" lon="12.5505333"><ele>360.0</ele><time>2026-04-25T09:36:30.54Z</time></trkpt><trkpt lat="43.6171583" lon="12.5507117"><ele>356.5</ele><time>2026-04-25T09:36:31.54Z</time></trkpt><trkpt lat="43.61719" lon="12.550895"><ele>353.0</ele><time>2026-04-25T09:36:32.54Z</time></trkpt><trkpt lat="43.6172283" lon="12.5510617"><ele>353.0</ele><time>2026-04-25T09:36:33.54Z</time></trkpt><trkpt lat="43.61727" lon="12.5512067"><ele>353.0</ele><time>2026-04-25T09:36:34.539Z</time></trkpt><trkpt lat="43.61731" lon="12.5513467"><ele>353.0</ele><time>2026-04-25T09:36:35.54Z</time></trkpt><trkpt lat="43.6173333" lon="12.5515167"><ele>353.0</ele><time>2026-04-25T09:36:36.54Z</time></trkpt><trkpt lat="43.6173567" lon="12.5517017"><ele>352.25</ele><time>2026-04-25T09:36:37.54Z</time></trkpt><trkpt lat="43.6173733" lon="12.5519033"><ele>351.5</ele><time>2026-04-25T09:36:38.54Z</time></trkpt><trkpt lat="43.6173867" lon="12.5521033"><ele>350.75</ele><time>2026-04-25T09:36:39.539Z</time></trkpt><trkpt lat="43.6174017" lon="12.5522917"><ele>350.0</ele><time>2026-04-25T09:36:40.539Z</time></trkpt><trkpt lat="43.61743" lon="12.552455"><ele>350.0</ele><time>2026-04-25T09:36:41.54Z</time></trkpt><trkpt lat="43.617445" lon="12.5526067"><ele>350.0</ele><time>2026-04-25T09:36:42.54Z</time></trkpt><trkpt lat="43.617465" lon="12.5527133"><ele>350.0</ele><time>2026-04-25T09:36:43.54Z</time></trkpt><trkpt lat="43.6174983" lon="12.5527933"><ele>350.0</ele><time>2026-04-25T09:36:44.54Z</time></trkpt><trkpt lat="43.6175433" lon="12.5528583"><ele>350.0</ele><time>2026-04-25T09:36:45.54Z</time></trkpt><trkpt lat="43.6176083" lon="12.552885"><ele>350.0</ele><time>2026-04-25T09:36:46.54Z</time></trkpt><trkpt lat="43.6177" lon="12.5528933"><ele>351.25</ele><time>2026-04-25T09:36:47.539Z</time></trkpt><trkpt lat="43.6178067" lon="12.5529183"><ele>352.5</ele><time>2026-04-25T09:36:48.54Z</time></trkpt><trkpt lat="43.6179333" lon="12.552935"><ele>353.75</ele><time>2026-04-25T09:36:49.54Z</time></trkpt><trkpt lat="43.618075" lon="12.5529667"><ele>355.0</ele><time>2026-04-25T09:36:50.54Z</time></trkpt><trkpt lat="43.6182217" lon="12.55302"><ele>355.75</ele><time>2026-04-25T09:36:51.539Z</time></trkpt><trkpt lat="43.61835" lon="12.5531083"><ele>356.5</ele><time>2026-04-25T09:36:52.54Z</time></trkpt><trkpt lat="43.6184717" lon="12.55319"><ele>357.25</ele><time>2026-04-25T09:36:53.539Z</time></trkpt><trkpt lat="43.6186033" lon="12.55327"><ele>358.0</ele><time>2026-04-25T09:36:54.54Z</time></trkpt><trkpt lat="43.6187217" lon="12.553345"><ele>360.0</ele><time>2026-04-25T09:36:55.54Z</time></trkpt><trkpt lat="43.61883" lon="12.55344"><ele>362.0</ele><time>2026-04-25T09:36:56.54Z</time></trkpt><trkpt lat="43.6189367" lon="12.5535383"><ele>364.0</ele><time>2026-04-25T09:36:57.54Z</time></trkpt><trkpt lat="43.6190233" lon="12.55366"><ele>366.0</ele><time>2026-04-25T09:36:58.54Z</time></trkpt><trkpt lat="43.6190817" lon="12.5537733"><ele>366.20000000000005</ele><time>2026-04-25T09:36:59.54Z</time></trkpt><trkpt lat="43.61912" lon="12.5539033"><ele>366.40000000000003</ele><time>2026-04-25T09:37:00.54Z</time></trkpt><trkpt lat="43.6191433" lon="12.5540567"><ele>366.6</ele><time>2026-04-25T09:37:01.54Z</time></trkpt><trkpt lat="43.6191783" lon="12.55422"><ele>366.8</ele><time>2026-04-25T09:37:02.54Z</time></trkpt><trkpt lat="43.619205" lon="12.554325"><ele>367.0</ele><time>2026-04-25T09:37:03.539Z</time></trkpt><trkpt lat="43.6192383" lon="12.55448"><ele>366.5</ele><time>2026-04-25T09:37:05.54Z</time></trkpt><trkpt lat="43.6192017" lon="12.5545833"><ele>366.0</ele><time>2026-04-25T09:37:06.54Z</time></trkpt><trkpt lat="43.6191317" lon="12.5547033"><ele>365.5</ele><time>2026-04-25T09:37:07.54Z</time></trkpt><trkpt lat="43.6190217" lon="12.5548333"><ele>365.0</ele><time>2026-04-25T09:37:08.54Z</time></trkpt><trkpt lat="43.618905" lon="12.5549433"><ele>365.0</ele><time>2026-04-25T09:37:09.54Z</time></trkpt><trkpt lat="43.6188117" lon="12.5550467"><ele>365.0</ele><time>2026-04-25T09:37:10.539Z</time></trkpt><trkpt lat="43.6187183" lon="12.55516"><ele>365.0</ele><time>2026-04-25T09:37:11.54Z</time></trkpt><trkpt lat="43.6186133" lon="12.5553217"><ele>365.0</ele><time>2026-04-25T09:37:12.54Z</time></trkpt><trkpt lat="43.6185133" lon="12.555495"><ele>365.5</ele><time>2026-04-25T09:37:13.539Z</time></trkpt><trkpt lat="43.618415" lon="12.5556567"><ele>366.0</ele><time>2026-04-25T09:37:14.54Z</time></trkpt><trkpt lat="43.6183217" lon="12.5558167"><ele>366.5</ele><time>2026-04-25T09:37:15.54Z</time></trkpt><trkpt lat="43.6182417" lon="12.55598"><ele>367.0</ele><time>2026-04-25T09:37:16.54Z</time></trkpt><trkpt lat="43.6181783" lon="12.5561467"><ele>365.40000000000003</ele><time>2026-04-25T09:37:17.539Z</time></trkpt><trkpt lat="43.618125" lon="12.5563"><ele>363.8</ele><time>2026-04-25T09:37:18.54Z</time></trkpt><trkpt lat="43.6180767" lon="12.5564283"><ele>362.2</ele><time>2026-04-25T09:37:19.54Z</time></trkpt><trkpt lat="43.6180233" lon="12.556535"><ele>360.6</ele><time>2026-04-25T09:37:20.54Z</time></trkpt><trkpt lat="43.617955" lon="12.5566417"><ele>359.0</ele><time>2026-04-25T09:37:21.54Z</time></trkpt><trkpt lat="43.617885" lon="12.556735"><ele>359.0</ele><time>2026-04-25T09:37:22.54Z</time></trkpt><trkpt lat="43.6178283" lon="12.5568083"><ele>359.0</ele><time>2026-04-25T09:37:23.54Z</time></trkpt><trkpt lat="43.6177667" lon="12.5568633"><ele>359.0</ele><time>2026-04-25T09:37:24.54Z</time></trkpt><trkpt lat="43.61769" lon="12.5569067"><ele>359.0</ele><time>2026-04-25T09:37:25.54Z</time></trkpt><trkpt lat="43.6176" lon="12.5569133"><ele>359.0</ele><time>2026-04-25T09:37:26.539Z</time></trkpt><trkpt lat="43.6174917" lon="12.55687"><ele>359.0</ele><time>2026-04-25T09:37:27.539Z</time></trkpt><trkpt lat="43.617365" lon="12.5568233"><ele>362.0</ele><time>2026-04-25T09:37:28.54Z</time></trkpt><trkpt lat="43.6172483" lon="12.5567967"><ele>365.0</ele><time>2026-04-25T09:37:29.539Z</time></trkpt><trkpt lat="43.6171233" lon="12.5567933"><ele>368.0</ele><time>2026-04-25T09:37:30.54Z</time></trkpt><trkpt lat="43.6170017" lon="12.556815"><ele>371.0</ele><time>2026-04-25T09:37:31.539Z</time></trkpt><trkpt lat="43.6168833" lon="12.556875"><ele>372.6666666666667</ele><time>2026-04-25T09:37:32.54Z</time></trkpt><trkpt lat="43.6167733" lon="12.556985"><ele>374.3333333333333</ele><time>2026-04-25T09:37:33.54Z</time></trkpt><trkpt lat="43.616655" lon="12.5571367"><ele>376.0</ele><time>2026-04-25T09:37:34.54Z</time></trkpt><trkpt lat="43.6165367" lon="12.5573083"><ele>371.3333333333333</ele><time>2026-04-25T09:37:35.54Z</time></trkpt><trkpt lat="43.6164217" lon="12.557485"><ele>366.6666666666667</ele><time>2026-04-25T09:37:36.54Z</time></trkpt><trkpt lat="43.6163217" lon="12.5576633"><ele>362.0</ele><time>2026-04-25T09:37:37.54Z</time></trkpt><trkpt lat="43.6162317" lon="12.5578283"><ele>360.0</ele><time>2026-04-25T09:37:38.539Z</time></trkpt><trkpt lat="43.6161583" lon="12.5579617"><ele>358.0</ele><time>2026-04-25T09:37:39.539Z</time></trkpt><trkpt lat="43.616085" lon="12.55805"><ele>356.0</ele><time>2026-04-25T09:37:40.539Z</time></trkpt><trkpt lat="43.61601" lon="12.5581317"><ele>354.0</ele><time>2026-04-25T09:37:41.54Z</time></trkpt><trkpt lat="43.6159483" lon="12.558225"><ele>352.0</ele><time>2026-04-25T09:37:42.539Z</time></trkpt><trkpt lat="43.6158883" lon="12.5583633"><ele>352.0</ele><time>2026-04-25T09:37:43.539Z</time></trkpt><trkpt lat="43.6158417" lon="12.558535"><ele>352.0</ele><time>2026-04-25T09:37:44.54Z</time></trkpt><trkpt lat="43.6158017" lon="12.5587517"><ele>352.0</ele><time>2026-04-25T09:37:45.54Z</time></trkpt><trkpt lat="43.6157533" lon="12.5589867"><ele>352.66666666666663</ele><time>2026-04-25T09:37:46.54Z</time></trkpt><trkpt lat="43.6157017" lon="12.559205"><ele>353.3333333333333</ele><time>2026-04-25T09:37:47.54Z</time></trkpt><trkpt lat="43.6156517" lon="12.5594033"><ele>354.0</ele><time>2026-04-25T09:37:48.54Z</time></trkpt><trkpt lat="43.6156017" lon="12.5595883"><ele>352.25</ele><time>2026-04-25T09:37:49.54Z</time></trkpt><trkpt lat="43.6155483" lon="12.559775"><ele>350.5</ele><time>2026-04-25T09:37:50.54Z</time></trkpt><trkpt lat="43.615505" lon="12.5599233"><ele>348.75</ele><time>2026-04-25T09:37:51.539Z</time></trkpt><trkpt lat="43.6154433" lon="12.5600783"><ele>347.0</ele><time>2026-04-25T09:37:52.54Z</time></trkpt><trkpt lat="43.6153633" lon="12.560225"><ele>343.5</ele><time>2026-04-25T09:37:53.54Z</time></trkpt><trkpt lat="43.615275" lon="12.5603367"><ele>340.0</ele><time>2026-04-25T09:37:54.54Z</time></trkpt><trkpt lat="43.61516" lon="12.5604233"><ele>336.5</ele><time>2026-04-25T09:37:55.539Z</time></trkpt><trkpt lat="43.615025" lon="12.5604933"><ele>333.0</ele><time>2026-04-25T09:37:56.539Z</time></trkpt><trkpt lat="43.614875" lon="12.560535"><ele>333.0</ele><time>2026-04-25T09:37:57.539Z</time></trkpt><trkpt lat="43.6147117" lon="12.5605817"><ele>333.0</ele><time>2026-04-25T09:37:58.539Z</time></trkpt><trkpt lat="43.61457" lon="12.5606267"><ele>333.0</ele><time>2026-04-25T09:37:59.539Z</time></trkpt><trkpt lat="43.6144317" lon="12.560665"><ele>330.75</ele><time>2026-04-25T09:38:00.539Z</time></trkpt><trkpt lat="43.6143033" lon="12.5607067"><ele>328.5</ele><time>2026-04-25T09:38:01.54Z</time></trkpt><trkpt lat="43.6141733" lon="12.5607367"><ele>326.25</ele><time>2026-04-25T09:38:02.54Z</time></trkpt><trkpt lat="43.61404" lon="12.5607783"><ele>324.0</ele><time>2026-04-25T09:38:03.539Z</time></trkpt><trkpt lat="43.6139067" lon="12.5608333"><ele>324.0</ele><time>2026-04-25T09:38:04.54Z</time></trkpt><trkpt lat="43.61377" lon="12.5608933"><ele>324.0</ele><time>2026-04-25T09:38:05.54Z</time></trkpt><trkpt lat="43.6136367" lon="12.5609533"><ele>324.0</ele><time>2026-04-25T09:38:06.539Z</time></trkpt><trkpt lat="43.6135083" lon="12.5610283"><ele>324.0</ele><time>2026-04-25T09:38:07.539Z</time></trkpt><trkpt lat="43.6133917" lon="12.5610967"><ele>323.4</ele><time>2026-04-25T09:38:08.54Z</time></trkpt><trkpt lat="43.6132817" lon="12.56116"><ele>322.79999999999995</ele><time>2026-04-25T09:38:09.54Z</time></trkpt><trkpt lat="43.6131783" lon="12.561215"><ele>322.20000000000005</ele><time>2026-04-25T09:38:10.539Z</time></trkpt><trkpt lat="43.6130867" lon="12.5612567"><ele>321.6</ele><time>2026-04-25T09:38:11.539Z</time></trkpt><trkpt lat="43.61302" lon="12.56128"><ele>321.0</ele><time>2026-04-25T09:38:12.54Z</time></trkpt><trkpt lat="43.612935" lon="12.5612783"><ele>321.0</ele><time>2026-04-25T09:38:13.54Z</time></trkpt><trkpt lat="43.6128833" lon="12.5612133"><ele>321.0</ele><time>2026-04-25T09:38:14.539Z</time></trkpt><trkpt lat="43.6128467" lon="12.5611083"><ele>321.0</ele><time>2026-04-25T09:38:15.54Z</time></trkpt><trkpt lat="43.61283" lon="12.5609767"><ele>321.0</ele><time>2026-04-25T09:38:16.54Z</time></trkpt><trkpt lat="43.6127983" lon="12.5608633"><ele>321.0</ele><time>2026-04-25T09:38:17.539Z</time></trkpt><trkpt lat="43.6127467" lon="12.560795"><ele>321.0</ele><time>2026-04-25T09:38:18.54Z</time></trkpt><trkpt lat="43.6126417" lon="12.5607367"><ele>316.0</ele><time>2026-04-25T09:38:20.54Z</time></trkpt><trkpt lat="43.612555" lon="12.560745"><ele>311.0</ele><time>2026-04-25T09:38:21.54Z</time></trkpt><trkpt lat="43.6124567" lon="12.5607833"><ele>306.0</ele><time>2026-04-25T09:38:22.54Z</time></trkpt><trkpt lat="43.6123333" lon="12.56084"><ele>301.0</ele><time>2026-04-25T09:38:23.539Z</time></trkpt><trkpt lat="43.6122033" lon="12.5608817"><ele>301.0</ele><time>2026-04-25T09:38:24.54Z</time></trkpt><trkpt lat="43.612075" lon="12.5609083"><ele>301.0</ele><time>2026-04-25T09:38:25.54Z</time></trkpt><trkpt lat="43.611955" lon="12.5609217"><ele>301.0</ele><time>2026-04-25T09:38:26.54Z</time></trkpt><trkpt lat="43.6118333" lon="12.5609367"><ele>301.0</ele><time>2026-04-25T09:38:27.54Z</time></trkpt><trkpt lat="43.6117267" lon="12.560945"><ele>301.0</ele><time>2026-04-25T09:38:28.54Z</time></trkpt><trkpt lat="43.6116283" lon="12.5609617"><ele>301.0</ele><time>2026-04-25T09:38:29.539Z</time></trkpt><trkpt lat="43.61153" lon="12.5609867"><ele>301.0</ele><time>2026-04-25T09:38:30.54Z</time></trkpt><trkpt lat="43.611435" lon="12.5610333"><ele>301.0</ele><time>2026-04-25T09:38:31.54Z</time></trkpt><trkpt lat="43.6113217" lon="12.5610983"><ele>301.0</ele><time>2026-04-25T09:38:32.54Z</time></trkpt><trkpt lat="43.6111917" lon="12.5611883"><ele>296.5</ele><time>2026-04-25T09:38:33.54Z</time></trkpt><trkpt lat="43.6110633" lon="12.5612783"><ele>292.0</ele><time>2026-04-25T09:38:34.54Z</time></trkpt><trkpt lat="43.6109433" lon="12.5613683"><ele>287.5</ele><time>2026-04-25T09:38:35.54Z</time></trkpt><trkpt lat="43.6108467" lon="12.561435"><ele>283.0</ele><time>2026-04-25T09:38:36.54Z</time></trkpt><trkpt lat="43.6107733" lon="12.5614883"><ele>283.0</ele><time>2026-04-25T09:38:37.54Z</time></trkpt><trkpt lat="43.6107167" lon="12.5615367"><ele>283.0</ele><time>2026-04-25T09:38:38.54Z</time></trkpt><trkpt lat="43.6106467" lon="12.5616383"><ele>283.0</ele><time>2026-04-25T09:38:40.54Z</time></trkpt><trkpt lat="43.6106233" lon="12.5617233"><ele>283.0</ele><time>2026-04-25T09:38:41.54Z</time></trkpt><trkpt lat="43.6106183" lon="12.5618333"><ele>283.0</ele><time>2026-04-25T09:38:42.54Z</time></trkpt><trkpt lat="43.6106383" lon="12.5619717"><ele>283.0</ele><time>2026-04-25T09:38:43.54Z</time></trkpt><trkpt lat="43.6106767" lon="12.5621117"><ele>283.0</ele><time>2026-04-25T09:38:44.54Z</time></trkpt><trkpt lat="43.61074" lon="12.562245"><ele>283.0</ele><time>2026-04-25T09:38:45.539Z</time></trkpt><trkpt lat="43.6108167" lon="12.5623733"><ele>283.0</ele><time>2026-04-25T09:38:46.54Z</time></trkpt><trkpt lat="43.610895" lon="12.5625217"><ele>283.0</ele><time>2026-04-25T09:38:47.54Z</time></trkpt><trkpt lat="43.6109967" lon="12.5626517"><ele>283.0</ele><time>2026-04-25T09:38:48.54Z</time></trkpt><trkpt lat="43.6111183" lon="12.562775"><ele>283.0</ele><time>2026-04-25T09:38:49.54Z</time></trkpt><trkpt lat="43.6112383" lon="12.5628917"><ele>283.0</ele><time>2026-04-25T09:38:50.54Z</time></trkpt><trkpt lat="43.61136" lon="12.563005"><ele>283.0</ele><time>2026-04-25T09:38:51.54Z</time></trkpt><trkpt lat="43.6114783" lon="12.5631117"><ele>284.75</ele><time>2026-04-25T09:38:52.54Z</time></trkpt><trkpt lat="43.611585" lon="12.5632233"><ele>286.5</ele><time>2026-04-25T09:38:53.54Z</time></trkpt><trkpt lat="43.61169" lon="12.5633267"><ele>288.25</ele><time>2026-04-25T09:38:54.54Z</time></trkpt><trkpt lat="43.611805" lon="12.56342"><ele>290.0</ele><time>2026-04-25T09:38:55.54Z</time></trkpt><trkpt lat="43.6119517" lon="12.5634933"><ele>290.75</ele><time>2026-04-25T09:38:56.54Z</time></trkpt><trkpt lat="43.612095" lon="12.56354"><ele>291.5</ele><time>2026-04-25T09:38:57.54Z</time></trkpt><trkpt lat="43.6122183" lon="12.563595"><ele>292.25</ele><time>2026-04-25T09:38:58.54Z</time></trkpt><trkpt lat="43.6123383" lon="12.5636183"><ele>293.0</ele><time>2026-04-25T09:38:59.539Z</time></trkpt><trkpt lat="43.6124733" lon="12.563615"><ele>293.0</ele><time>2026-04-25T09:39:00.54Z</time></trkpt><trkpt lat="43.6126117" lon="12.563595"><ele>293.0</ele><time>2026-04-25T09:39:01.54Z</time></trkpt><trkpt lat="43.6127933" lon="12.563515"><ele>293.0</ele><time>2026-04-25T09:39:02.54Z</time></trkpt><trkpt lat="43.6129417" lon="12.5634567"><ele>294.75</ele><time>2026-04-25T09:39:03.539Z</time></trkpt><trkpt lat="43.613085" lon="12.5634133"><ele>296.5</ele><time>2026-04-25T09:39:04.54Z</time></trkpt><trkpt lat="43.6132333" lon="12.5633733"><ele>298.25</ele><time>2026-04-25T09:39:05.54Z</time></trkpt><trkpt lat="43.613345" lon="12.5633633"><ele>300.0</ele><time>2026-04-25T09:39:06.539Z</time></trkpt><trkpt lat="43.61343" lon="12.5633433"><ele>300.0</ele><time>2026-04-25T09:39:07.54Z</time></trkpt><trkpt lat="43.6135033" lon="12.5633517"><ele>300.0</ele><time>2026-04-25T09:39:08.54Z</time></trkpt><trkpt lat="43.6135833" lon="12.563425"><ele>300.0</ele><time>2026-04-25T09:39:10.538Z</time></trkpt><trkpt lat="43.61363" lon="12.5634867"><ele>300.0</ele><time>2026-04-25T09:39:11.538Z</time></trkpt><trkpt lat="43.6136417" lon="12.5636467"><ele>300.0</ele><time>2026-04-25T09:39:13.538Z</time></trkpt><trkpt lat="43.6136217" lon="12.56373"><ele>300.0</ele><time>2026-04-25T09:39:14.538Z</time></trkpt><trkpt lat="43.6135583" lon="12.5637883"><ele>302.0</ele><time>2026-04-25T09:39:15.539Z</time></trkpt><trkpt lat="43.6134817" lon="12.5638483"><ele>304.0</ele><time>2026-04-25T09:39:16.539Z</time></trkpt><trkpt lat="43.6134" lon="12.563925"><ele>306.0</ele><time>2026-04-25T09:39:17.538Z</time></trkpt><trkpt lat="43.61329" lon="12.564035"><ele>308.0</ele><time>2026-04-25T09:39:18.539Z</time></trkpt><trkpt lat="43.6131783" lon="12.564185"><ele>308.0</ele><time>2026-04-25T09:39:19.539Z</time></trkpt><trkpt lat="43.6130867" lon="12.5643467"><ele>308.0</ele><time>2026-04-25T09:39:20.539Z</time></trkpt><trkpt lat="43.6130167" lon="12.5644883"><ele>308.0</ele><time>2026-04-25T09:39:21.539Z</time></trkpt><trkpt lat="43.6129567" lon="12.5646133"><ele>308.0</ele><time>2026-04-25T09:39:22.539Z</time></trkpt><trkpt lat="43.6129167" lon="12.5647533"><ele>305.5</ele><time>2026-04-25T09:39:23.538Z</time></trkpt><trkpt lat="43.612885" lon="12.5649117"><ele>303.0</ele><time>2026-04-25T09:39:24.538Z</time></trkpt><trkpt lat="43.6128483" lon="12.5650933"><ele>300.5</ele><time>2026-04-25T09:39:25.539Z</time></trkpt><trkpt lat="43.61282" lon="12.5652583"><ele>298.0</ele><time>2026-04-25T09:39:26.539Z</time></trkpt><trkpt lat="43.6128" lon="12.5654133"><ele>298.0</ele><time>2026-04-25T09:39:27.539Z</time></trkpt><trkpt lat="43.6127733" lon="12.5656"><ele>298.0</ele><time>2026-04-25T09:39:28.539Z</time></trkpt><trkpt lat="43.61278" lon="12.5657983"><ele>298.0</ele><time>2026-04-25T09:39:29.539Z</time></trkpt><trkpt lat="43.6127933" lon="12.565975"><ele>298.0</ele><time>2026-04-25T09:39:30.539Z</time></trkpt><trkpt lat="43.61277" lon="12.5661683"><ele>297.75</ele><time>2026-04-25T09:39:31.538Z</time></trkpt><trkpt lat="43.6127417" lon="12.5663367"><ele>297.5</ele><time>2026-04-25T09:39:32.539Z</time></trkpt><trkpt lat="43.6126933" lon="12.5665"><ele>297.25</ele><time>2026-04-25T09:39:33.539Z</time></trkpt><trkpt lat="43.6126217" lon="12.5666517"><ele>297.0</ele><time>2026-04-25T09:39:34.539Z</time></trkpt><trkpt lat="43.6125633" lon="12.5667733"><ele>297.0</ele><time>2026-04-25T09:39:35.539Z</time></trkpt><trkpt lat="43.61251" lon="12.5669133"><ele>297.0</ele><time>2026-04-25T09:39:36.538Z</time></trkpt><trkpt lat="43.612435" lon="12.5670767"><ele>297.0</ele><time>2026-04-25T09:39:37.538Z</time></trkpt><trkpt lat="43.6123817" lon="12.5672333"><ele>297.0</ele><time>2026-04-25T09:39:38.538Z</time></trkpt><trkpt lat="43.6123283" lon="12.56738"><ele>298.5</ele><time>2026-04-25T09:39:39.539Z</time></trkpt><trkpt lat="43.612275" lon="12.5675"><ele>300.0</ele><time>2026-04-25T09:39:40.539Z</time></trkpt><trkpt lat="43.6122" lon="12.5676267"><ele>301.5</ele><time>2026-04-25T09:39:41.539Z</time></trkpt><trkpt lat="43.61211" lon="12.5677433"><ele>303.0</ele><time>2026-04-25T09:39:42.538Z</time></trkpt><trkpt lat="43.6119867" lon="12.5678817"><ele>303.0</ele><time>2026-04-25T09:39:43.539Z</time></trkpt><trkpt lat="43.6118567" lon="12.5680067"><ele>303.0</ele><time>2026-04-25T09:39:44.539Z</time></trkpt><trkpt lat="43.6117583" lon="12.5681167"><ele>303.0</ele><time>2026-04-25T09:39:45.539Z</time></trkpt><trkpt lat="43.6116633" lon="12.568225"><ele>303.0</ele><time>2026-04-25T09:39:46.539Z</time></trkpt><trkpt lat="43.6115617" lon="12.5683417"><ele>303.0</ele><time>2026-04-25T09:39:47.538Z</time></trkpt><trkpt lat="43.6114667" lon="12.5684783"><ele>303.0</ele><time>2026-04-25T09:39:48.538Z</time></trkpt><trkpt lat="43.6113783" lon="12.5686283"><ele>303.0</ele><time>2026-04-25T09:39:49.539Z</time></trkpt><trkpt lat="43.6113133" lon="12.5687783"><ele>303.0</ele><time>2026-04-25T09:39:50.539Z</time></trkpt><trkpt lat="43.6112667" lon="12.5689283"><ele>299.75</ele><time>2026-04-25T09:39:51.539Z</time></trkpt><trkpt lat="43.611235" lon="12.56911"><ele>296.5</ele><time>2026-04-25T09:39:52.539Z</time></trkpt><trkpt lat="43.6112183" lon="12.5692883"><ele>293.25</ele><time>2026-04-25T09:39:53.539Z</time></trkpt><trkpt lat="43.6111867" lon="12.5695217"><ele>290.0</ele><time>2026-04-25T09:39:54.539Z</time></trkpt><trkpt lat="43.6111433" lon="12.5697967"><ele>290.0</ele><time>2026-04-25T09:39:55.539Z</time></trkpt><trkpt lat="43.6111083" lon="12.5700483"><ele>290.0</ele><time>2026-04-25T09:39:56.539Z</time></trkpt><trkpt lat="43.61107" lon="12.5702933"><ele>290.0</ele><time>2026-04-25T09:39:57.538Z</time></trkpt><trkpt lat="43.611035" lon="12.5705833"><ele>291.0</ele><time>2026-04-25T09:39:58.539Z</time></trkpt><trkpt lat="43.611025" lon="12.57086"><ele>292.0</ele><time>2026-04-25T09:39:59.539Z</time></trkpt><trkpt lat="43.6110133" lon="12.5710983"><ele>293.0</ele><time>2026-04-25T09:40:00.538Z</time></trkpt><trkpt lat="43.6110183" lon="12.571295"><ele>291.0</ele><time>2026-04-25T09:40:01.539Z</time></trkpt><trkpt lat="43.6109933" lon="12.57151"><ele>289.0</ele><time>2026-04-25T09:40:02.539Z</time></trkpt><trkpt lat="43.6109583" lon="12.5717517"><ele>287.0</ele><time>2026-04-25T09:40:03.539Z</time></trkpt><trkpt lat="43.6109233" lon="12.5719817"><ele>286.75</ele><time>2026-04-25T09:40:04.539Z</time></trkpt><trkpt lat="43.6108783" lon="12.572205"><ele>286.5</ele><time>2026-04-25T09:40:05.538Z</time></trkpt><trkpt lat="43.6108467" lon="12.5723983"><ele>286.25</ele><time>2026-04-25T09:40:06.538Z</time></trkpt><trkpt lat="43.6108267" lon="12.5725633"><ele>286.0</ele><time>2026-04-25T09:40:07.538Z</time></trkpt><trkpt lat="43.6108083" lon="12.5727133"><ele>286.0</ele><time>2026-04-25T09:40:08.539Z</time></trkpt><trkpt lat="43.61082" lon="12.5728383"><ele>286.0</ele><time>2026-04-25T09:40:09.538Z</time></trkpt><trkpt lat="43.6108467" lon="12.57295"><ele>286.0</ele><time>2026-04-25T09:40:10.539Z</time></trkpt><trkpt lat="43.6109067" lon="12.5730783"><ele>286.0</ele><time>2026-04-25T09:40:11.539Z</time></trkpt><trkpt lat="43.6109583" lon="12.5732517"><ele>286.0</ele><time>2026-04-25T09:40:12.539Z</time></trkpt><trkpt lat="43.6110033" lon="12.573425"><ele>284.75</ele><time>2026-04-25T09:40:13.538Z</time></trkpt><trkpt lat="43.6110517" lon="12.5735483"><ele>283.5</ele><time>2026-04-25T09:40:14.538Z</time></trkpt><trkpt lat="43.61111" lon="12.5736767"><ele>282.25</ele><time>2026-04-25T09:40:15.538Z</time></trkpt><trkpt lat="43.6112" lon="12.5738167"><ele>281.0</ele><time>2026-04-25T09:40:16.538Z</time></trkpt><trkpt lat="43.6112917" lon="12.5739867"><ele>286.0</ele><time>2026-04-25T09:40:17.538Z</time></trkpt><trkpt lat="43.61141" lon="12.57414"><ele>291.0</ele><time>2026-04-25T09:40:18.538Z</time></trkpt><trkpt lat="43.6115067" lon="12.5743233"><ele>296.0</ele><time>2026-04-25T09:40:19.538Z</time></trkpt><trkpt lat="43.6116" lon="12.5744633"><ele>293.40000000000003</ele><time>2026-04-25T09:40:20.539Z</time></trkpt><trkpt lat="43.6116733" lon="12.5745717"><ele>290.8</ele><time>2026-04-25T09:40:21.538Z</time></trkpt><trkpt lat="43.6117183" lon="12.57469"><ele>288.20000000000005</ele><time>2026-04-25T09:40:22.538Z</time></trkpt><trkpt lat="43.611745" lon="12.5747917"><ele>285.6</ele><time>2026-04-25T09:40:23.539Z</time></trkpt><trkpt lat="43.6117433" lon="12.5749167"><ele>283.0</ele><time>2026-04-25T09:40:24.538Z</time></trkpt><trkpt lat="43.6117233" lon="12.5750583"><ele>283.0</ele><time>2026-04-25T09:40:25.539Z</time></trkpt><trkpt lat="43.6117183" lon="12.5751867"><ele>283.0</ele><time>2026-04-25T09:40:26.539Z</time></trkpt><trkpt lat="43.6117367" lon="12.5753417"><ele>283.0</ele><time>2026-04-25T09:40:27.539Z</time></trkpt><trkpt lat="43.6117983" lon="12.5755383"><ele>283.0</ele><time>2026-04-25T09:40:28.539Z</time></trkpt><trkpt lat="43.61186" lon="12.5757567"><ele>281.66666666666663</ele><time>2026-04-25T09:40:29.539Z</time></trkpt><trkpt lat="43.611905" lon="12.5759917"><ele>280.3333333333333</ele><time>2026-04-25T09:40:30.539Z</time></trkpt><trkpt lat="43.6119867" lon="12.5761733"><ele>279.0</ele><time>2026-04-25T09:40:31.539Z</time></trkpt><trkpt lat="43.6120467" lon="12.57632"><ele>286.25</ele><time>2026-04-25T09:40:32.539Z</time></trkpt><trkpt lat="43.6120733" lon="12.5764717"><ele>293.5</ele><time>2026-04-25T09:40:33.539Z</time></trkpt><trkpt lat="43.6120883" lon="12.5766517"><ele>300.75</ele><time>2026-04-25T09:40:34.538Z</time></trkpt><trkpt lat="43.612085" lon="12.5768667"><ele>308.0</ele><time>2026-04-25T09:40:35.539Z</time></trkpt><trkpt lat="43.6121017" lon="12.5771217"><ele>308.0</ele><time>2026-04-25T09:40:36.539Z</time></trkpt><trkpt lat="43.6121167" lon="12.577355"><ele>308.0</ele><time>2026-04-25T09:40:37.539Z</time></trkpt><trkpt lat="43.612145" lon="12.5775817"><ele>308.0</ele><time>2026-04-25T09:40:38.539Z</time></trkpt><trkpt lat="43.6121633" lon="12.5778183"><ele>305.0</ele><time>2026-04-25T09:40:39.539Z</time></trkpt><trkpt lat="43.612175" lon="12.5780617"><ele>302.0</ele><time>2026-04-25T09:40:40.539Z</time></trkpt><trkpt lat="43.6121817" lon="12.5782667"><ele>299.0</ele><time>2026-04-25T09:40:41.539Z</time></trkpt><trkpt lat="43.6121767" lon="12.5784533"><ele>299.0</ele><time>2026-04-25T09:40:42.539Z</time></trkpt><trkpt lat="43.6121717" lon="12.5786083"><ele>299.0</ele><time>2026-04-25T09:40:43.539Z</time></trkpt><trkpt lat="43.612165" lon="12.5787383"><ele>299.0</ele><time>2026-04-25T09:40:44.539Z</time></trkpt><trkpt lat="43.6121433" lon="12.5788483"><ele>299.0</ele><time>2026-04-25T09:40:45.539Z</time></trkpt><trkpt lat="43.612095" lon="12.5789217"><ele>299.0</ele><time>2026-04-25T09:40:46.539Z</time></trkpt><trkpt lat="43.6120267" lon="12.578965"><ele>299.0</ele><time>2026-04-25T09:40:47.539Z</time></trkpt><trkpt lat="43.6119383" lon="12.57899"><ele>293.5</ele><time>2026-04-25T09:40:48.539Z</time></trkpt><trkpt lat="43.6118317" lon="12.57902"><ele>288.0</ele><time>2026-04-25T09:40:49.539Z</time></trkpt><trkpt lat="43.6117033" lon="12.5790567"><ele>282.5</ele><time>2026-04-25T09:40:50.539Z</time></trkpt><trkpt lat="43.6115617" lon="12.5790817"><ele>277.0</ele><time>2026-04-25T09:40:51.539Z</time></trkpt><trkpt lat="43.6114317" lon="12.5790933"><ele>277.0</ele><time>2026-04-25T09:40:52.538Z</time></trkpt><trkpt lat="43.611335" lon="12.5790967"><ele>277.0</ele><time>2026-04-25T09:40:53.539Z</time></trkpt><trkpt lat="43.61125" lon="12.5791283"><ele>277.0</ele><time>2026-04-25T09:40:55.538Z</time></trkpt><trkpt lat="43.6113033" lon="12.5792133"><ele>277.0</ele><time>2026-04-25T09:40:58.539Z</time></trkpt><trkpt lat="43.61141" lon="12.579215"><ele>277.0</ele><time>2026-04-25T09:41:00.538Z</time></trkpt><trkpt lat="43.6114783" lon="12.5792217"><ele>277.0</ele><time>2026-04-25T09:41:01.539Z</time></trkpt><trkpt lat="43.611575" lon="12.5792533"><ele>277.0</ele><time>2026-04-25T09:41:02.538Z</time></trkpt><trkpt lat="43.6117067" lon="12.57933"><ele>277.0</ele><time>2026-04-25T09:41:03.539Z</time></trkpt><trkpt lat="43.6118483" lon="12.5794317"><ele>277.0</ele><time>2026-04-25T09:41:04.539Z</time></trkpt><trkpt lat="43.6120283" lon="12.5795233"><ele>280.3333333333333</ele><time>2026-04-25T09:41:05.539Z</time></trkpt><trkpt lat="43.6122233" lon="12.5796"><ele>283.6666666666667</ele><time>2026-04-25T09:41:06.539Z</time></trkpt><trkpt lat="43.612395" lon="12.579675"><ele>287.0</ele><time>2026-04-25T09:41:07.539Z</time></trkpt><trkpt lat="43.6125483" lon="12.5797383"><ele>287.0</ele><time>2026-04-25T09:41:08.538Z</time></trkpt><trkpt lat="43.6126867" lon="12.5797783"><ele>287.0</ele><time>2026-04-25T09:41:09.538Z</time></trkpt><trkpt lat="43.6128233" lon="12.5798033"><ele>287.0</ele><time>2026-04-25T09:41:10.539Z</time></trkpt><trkpt lat="43.6129533" lon="12.5798133"><ele>287.0</ele><time>2026-04-25T09:41:11.539Z</time></trkpt><trkpt lat="43.6130633" lon="12.5798133"><ele>289.0</ele><time>2026-04-25T09:41:12.539Z</time></trkpt><trkpt lat="43.613165" lon="12.5798083"><ele>291.0</ele><time>2026-04-25T09:41:13.539Z</time></trkpt><trkpt lat="43.61326" lon="12.5798"><ele>293.0</ele><time>2026-04-25T09:41:14.539Z</time></trkpt><trkpt lat="43.6133533" lon="12.5797717"><ele>295.0</ele><time>2026-04-25T09:41:15.539Z</time></trkpt><trkpt lat="43.6134483" lon="12.5797267"><ele>297.0</ele><time>2026-04-25T09:41:16.538Z</time></trkpt><trkpt lat="43.613545" lon="12.57966"><ele>297.0</ele><time>2026-04-25T09:41:17.539Z</time></trkpt><trkpt lat="43.6136357" lon="12.5795746"><ele>297.0</ele><time>2026-04-25T09:41:18.539Z</time></trkpt><trkpt lat="43.6137259" lon="12.5794922"><ele>297.0</ele><time>2026-04-25T09:41:19.538Z</time></trkpt><trkpt lat="43.6138255" lon="12.579427"><ele>297.0</ele><time>2026-04-25T09:41:20.538Z</time></trkpt><trkpt lat="43.6139419" lon="12.5793963"><ele>297.0</ele><time>2026-04-25T09:41:21.539Z</time></trkpt><trkpt lat="43.6140704" lon="12.579392"><ele>297.4</ele><time>2026-04-25T09:41:22.538Z</time></trkpt><trkpt lat="43.6141964" lon="12.5794065"><ele>297.79999999999995</ele><time>2026-04-25T09:41:23.539Z</time></trkpt><trkpt lat="43.6142966" lon="12.5794382"><ele>298.2</ele><time>2026-04-25T09:41:24.538Z</time></trkpt><trkpt lat="43.6143766" lon="12.579492"><ele>298.59999999999997</ele><time>2026-04-25T09:41:25.539Z</time></trkpt><trkpt lat="43.6144488" lon="12.5795911"><ele>299.0</ele><time>2026-04-25T09:41:26.538Z</time></trkpt><trkpt lat="43.6145147" lon="12.5797308"><ele>300.4</ele><time>2026-04-25T09:41:27.539Z</time></trkpt><trkpt lat="43.6145744" lon="12.5798668"><ele>301.79999999999995</ele><time>2026-04-25T09:41:28.538Z</time></trkpt><trkpt lat="43.6146431" lon="12.5799815"><ele>303.20000000000005</ele><time>2026-04-25T09:41:29.539Z</time></trkpt><trkpt lat="43.6147243" lon="12.580074"><ele>304.6</ele><time>2026-04-25T09:41:30.538Z</time></trkpt><trkpt lat="43.6148297" lon="12.5801359"><ele>306.0</ele><time>2026-04-25T09:41:31.539Z</time></trkpt><trkpt lat="43.6149417" lon="12.5801829"><ele>306.0</ele><time>2026-04-25T09:41:32.538Z</time></trkpt><trkpt lat="43.6150332" lon="12.5802463"><ele>306.0</ele><time>2026-04-25T09:41:33.539Z</time></trkpt><trkpt lat="43.6151097" lon="12.580339"><ele>306.0</ele><time>2026-04-25T09:41:34.539Z</time></trkpt><trkpt lat="43.6151793" lon="12.5804736"><ele>306.0</ele><time>2026-04-25T09:41:35.539Z</time></trkpt><trkpt lat="43.6152446" lon="12.5806555"><ele>310.6666666666667</ele><time>2026-04-25T09:41:36.538Z</time></trkpt><trkpt lat="43.6153244" lon="12.580846"><ele>315.33333333333337</ele><time>2026-04-25T09:41:37.538Z</time></trkpt><trkpt lat="43.6154152" lon="12.5810257"><ele>320.0</ele><time>2026-04-25T09:41:38.538Z</time></trkpt><trkpt lat="43.6155087" lon="12.5811744"><ele>321.5</ele><time>2026-04-25T09:41:39.539Z</time></trkpt><trkpt lat="43.6155964" lon="12.5812944"><ele>323.0</ele><time>2026-04-25T09:41:40.539Z</time></trkpt><trkpt lat="43.6156835" lon="12.5813808"><ele>324.5</ele><time>2026-04-25T09:41:41.539Z</time></trkpt><trkpt lat="43.6157806" lon="12.5814377"><ele>326.0</ele><time>2026-04-25T09:41:42.538Z</time></trkpt><trkpt lat="43.6158958" lon="12.5814605"><ele>326.0</ele><time>2026-04-25T09:41:43.539Z</time></trkpt><trkpt lat="43.6160117" lon="12.5814666"><ele>326.0</ele><time>2026-04-25T09:41:44.538Z</time></trkpt><trkpt lat="43.6161248" lon="12.5814787"><ele>326.0</ele><time>2026-04-25T09:41:45.539Z</time></trkpt><trkpt lat="43.6162407" lon="12.5815215"><ele>326.0</ele><time>2026-04-25T09:41:46.539Z</time></trkpt><trkpt lat="43.6163495" lon="12.5815832"><ele>328.6</ele><time>2026-04-25T09:41:47.539Z</time></trkpt><trkpt lat="43.6164415" lon="12.5816164"><ele>331.20000000000005</ele><time>2026-04-25T09:41:48.539Z</time></trkpt><trkpt lat="43.6165245" lon="12.5816145"><ele>333.79999999999995</ele><time>2026-04-25T09:41:49.539Z</time></trkpt><trkpt lat="43.6166222" lon="12.5815834"><ele>336.4</ele><time>2026-04-25T09:41:50.539Z</time></trkpt><trkpt lat="43.6167483" lon="12.5815217"><ele>339.0</ele><time>2026-04-25T09:41:51.539Z</time></trkpt><trkpt lat="43.616895" lon="12.5814533"><ele>342.3333333333333</ele><time>2026-04-25T09:41:52.539Z</time></trkpt><trkpt lat="43.6170583" lon="12.5813867"><ele>345.66666666666663</ele><time>2026-04-25T09:41:53.538Z</time></trkpt><trkpt lat="43.6172117" lon="12.581335"><ele>349.0</ele><time>2026-04-25T09:41:54.539Z</time></trkpt><trkpt lat="43.6173517" lon="12.5812983"><ele>349.0</ele><time>2026-04-25T09:41:55.539Z</time></trkpt><trkpt lat="43.6174833" lon="12.5812683"><ele>349.0</ele><time>2026-04-25T09:41:56.538Z</time></trkpt><trkpt lat="43.617625" lon="12.581255"><ele>349.0</ele><time>2026-04-25T09:41:57.539Z</time></trkpt><trkpt lat="43.6177883" lon="12.5812533"><ele>349.0</ele><time>2026-04-25T09:41:58.538Z</time></trkpt><trkpt lat="43.617965" lon="12.5812583"><ele>353.0</ele><time>2026-04-25T09:41:59.539Z</time></trkpt><trkpt lat="43.6181567" lon="12.5812717"><ele>357.0</ele><time>2026-04-25T09:42:00.538Z</time></trkpt><trkpt lat="43.6183517" lon="12.5812833"><ele>361.0</ele><time>2026-04-25T09:42:01.539Z</time></trkpt><trkpt lat="43.61851" lon="12.58129"><ele>361.0</ele><time>2026-04-25T09:42:02.539Z</time></trkpt><trkpt lat="43.6186367" lon="12.5812933"><ele>361.0</ele><time>2026-04-25T09:42:03.539Z</time></trkpt><trkpt lat="43.6187433" lon="12.5812983"><ele>361.0</ele><time>2026-04-25T09:42:04.538Z</time></trkpt><trkpt lat="43.61883" lon="12.5812833"><ele>361.0</ele><time>2026-04-25T09:42:05.538Z</time></trkpt><trkpt lat="43.6189" lon="12.5812817"><ele>361.0</ele><time>2026-04-25T09:42:06.539Z</time></trkpt><trkpt lat="43.6189583" lon="12.5813433"><ele>364.20000000000005</ele><time>2026-04-25T09:42:08.539Z</time></trkpt><trkpt lat="43.6189233" lon="12.5814983"><ele>367.40000000000003</ele><time>2026-04-25T09:42:10.539Z</time></trkpt><trkpt lat="43.6188783" lon="12.5816033"><ele>370.6</ele><time>2026-04-25T09:42:11.539Z</time></trkpt><trkpt lat="43.6188433" lon="12.5817267"><ele>373.8</ele><time>2026-04-25T09:42:12.538Z</time></trkpt><trkpt lat="43.61883" lon="12.58184"><ele>377.0</ele><time>2026-04-25T09:42:13.538Z</time></trkpt><trkpt lat="43.6188483" lon="12.5819583"><ele>377.0</ele><time>2026-04-25T09:42:14.539Z</time></trkpt><trkpt lat="43.6188867" lon="12.5820633"><ele>377.0</ele><time>2026-04-25T09:42:15.538Z</time></trkpt><trkpt lat="43.6189583" lon="12.582135"><ele>377.0</ele><time>2026-04-25T09:42:17.539Z</time></trkpt><trkpt lat="43.619015" lon="12.58204"><ele>377.0</ele><time>2026-04-25T09:42:19.539Z</time></trkpt><trkpt lat="43.6190433" lon="12.5819533"><ele>377.0</ele><time>2026-04-25T09:42:20.539Z</time></trkpt><trkpt lat="43.61909" lon="12.5818617"><ele>377.0</ele><time>2026-04-25T09:42:21.539Z</time></trkpt><trkpt lat="43.619155" lon="12.5817883"><ele>377.0</ele><time>2026-04-25T09:42:22.539Z</time></trkpt><trkpt lat="43.6192217" lon="12.58176"><ele>377.0</ele><time>2026-04-25T09:42:23.539Z</time></trkpt><trkpt lat="43.6192867" lon="12.5817817"><ele>377.0</ele><time>2026-04-25T09:42:24.539Z</time></trkpt><trkpt lat="43.619355" lon="12.5819333"><ele>377.0</ele><time>2026-04-25T09:42:26.538Z</time></trkpt><trkpt lat="43.61936" lon="12.582055"><ele>377.0</ele><time>2026-04-25T09:42:27.538Z</time></trkpt><trkpt lat="43.619365" lon="12.582205"><ele>380.25</ele><time>2026-04-25T09:42:28.539Z</time></trkpt><trkpt lat="43.6193633" lon="12.582395"><ele>383.5</ele><time>2026-04-25T09:42:29.539Z</time></trkpt><trkpt lat="43.6193683" lon="12.582605"><ele>386.75</ele><time>2026-04-25T09:42:30.539Z</time></trkpt><trkpt lat="43.61938" lon="12.5828067"><ele>390.0</ele><time>2026-04-25T09:42:31.539Z</time></trkpt><trkpt lat="43.6194" lon="12.583"><ele>391.75</ele><time>2026-04-25T09:42:32.539Z</time></trkpt><trkpt lat="43.6194267" lon="12.5831667"><ele>393.5</ele><time>2026-04-25T09:42:33.538Z</time></trkpt><trkpt lat="43.6194733" lon="12.5833367"><ele>395.25</ele><time>2026-04-25T09:42:34.539Z</time></trkpt><trkpt lat="43.619525" lon="12.5835117"><ele>397.0</ele><time>2026-04-25T09:42:35.539Z</time></trkpt><trkpt lat="43.619585" lon="12.5836983"><ele>398.6</ele><time>2026-04-25T09:42:36.539Z</time></trkpt><trkpt lat="43.6196317" lon="12.5838817"><ele>400.20000000000005</ele><time>2026-04-25T09:42:37.539Z</time></trkpt><trkpt lat="43.6196633" lon="12.5840467"><ele>401.8</ele><time>2026-04-25T09:42:38.539Z</time></trkpt><trkpt lat="43.619675" lon="12.5841883"><ele>403.4</ele><time>2026-04-25T09:42:39.539Z</time></trkpt><trkpt lat="43.6196733" lon="12.5842917"><ele>405.0</ele><time>2026-04-25T09:42:40.539Z</time></trkpt><trkpt lat="43.6196617" lon="12.58438"><ele>405.0</ele><time>2026-04-25T09:42:41.539Z</time></trkpt><trkpt lat="43.6196233" lon="12.584475"><ele>405.0</ele><time>2026-04-25T09:42:42.539Z</time></trkpt><trkpt lat="43.619565" lon="12.5845783"><ele>405.0</ele><time>2026-04-25T09:42:43.539Z</time></trkpt><trkpt lat="43.6194817" lon="12.5847083"><ele>405.0</ele><time>2026-04-25T09:42:44.539Z</time></trkpt><trkpt lat="43.6193767" lon="12.5848617"><ele>406.25</ele><time>2026-04-25T09:42:45.538Z</time></trkpt><trkpt lat="43.6192767" lon="12.5850133"><ele>407.5</ele><time>2026-04-25T09:42:46.538Z</time></trkpt><trkpt lat="43.6191933" lon="12.5851383"><ele>408.75</ele><time>2026-04-25T09:42:47.539Z</time></trkpt><trkpt lat="43.6191367" lon="12.5852417"><ele>410.0</ele><time>2026-04-25T09:42:48.539Z</time></trkpt><trkpt lat="43.619095" lon="12.585365"><ele>413.0</ele><time>2026-04-25T09:42:49.539Z</time></trkpt><trkpt lat="43.6190933" lon="12.5854917"><ele>416.0</ele><time>2026-04-25T09:42:50.538Z</time></trkpt><trkpt lat="43.6191267" lon="12.5856333"><ele>419.0</ele><time>2026-04-25T09:42:51.539Z</time></trkpt><trkpt lat="43.6191867" lon="12.5858033"><ele>422.0</ele><time>2026-04-25T09:42:52.539Z</time></trkpt><trkpt lat="43.6192583" lon="12.5860083"><ele>424.25</ele><time>2026-04-25T09:42:53.538Z</time></trkpt><trkpt lat="43.6193283" lon="12.58622"><ele>426.5</ele><time>2026-04-25T09:42:54.539Z</time></trkpt><trkpt lat="43.6193967" lon="12.586405"><ele>428.75</ele><time>2026-04-25T09:42:55.539Z</time></trkpt><trkpt lat="43.6194567" lon="12.586565"><ele>431.0</ele><time>2026-04-25T09:42:56.539Z</time></trkpt><trkpt lat="43.6195133" lon="12.586695"><ele>428.25</ele><time>2026-04-25T09:42:57.539Z</time></trkpt><trkpt lat="43.6195683" lon="12.5868167"><ele>425.5</ele><time>2026-04-25T09:42:58.538Z</time></trkpt><trkpt lat="43.6196367" lon="12.586955"><ele>422.75</ele><time>2026-04-25T09:42:59.539Z</time></trkpt><trkpt lat="43.619715" lon="12.58711"><ele>420.0</ele><time>2026-04-25T09:43:00.539Z</time></trkpt><trkpt lat="43.6198117" lon="12.5872817"><ele>420.0</ele><time>2026-04-25T09:43:01.539Z</time></trkpt><trkpt lat="43.619925" lon="12.5874633"><ele>420.0</ele><time>2026-04-25T09:43:02.538Z</time></trkpt><trkpt lat="43.6200383" lon="12.58763"><ele>420.0</ele><time>2026-04-25T09:43:03.539Z</time></trkpt><trkpt lat="43.6201567" lon="12.58779"><ele>419.0</ele><time>2026-04-25T09:43:04.539Z</time></trkpt><trkpt lat="43.6202733" lon="12.58793"><ele>418.0</ele><time>2026-04-25T09:43:05.538Z</time></trkpt><trkpt lat="43.6203783" lon="12.5880717"><ele>417.0</ele><time>2026-04-25T09:43:06.539Z</time></trkpt><trkpt lat="43.62046" lon="12.5881983"><ele>416.0</ele><time>2026-04-25T09:43:07.539Z</time></trkpt><trkpt lat="43.6205183" lon="12.588315"><ele>415.49999999999994</ele><time>2026-04-25T09:43:08.539Z</time></trkpt><trkpt lat="43.62057" lon="12.58841"><ele>415.0</ele><time>2026-04-25T09:43:09.538Z</time></trkpt><trkpt lat="43.6206133" lon="12.5884883"><ele>414.5</ele><time>2026-04-25T09:43:10.539Z</time></trkpt><trkpt lat="43.6206583" lon="12.588565"><ele>414.0</ele><time>2026-04-25T09:43:11.539Z</time></trkpt><trkpt lat="43.6206867" lon="12.5886533"><ele>413.49999999999994</ele><time>2026-04-25T09:43:12.538Z</time></trkpt><trkpt lat="43.620695" lon="12.58875"><ele>413.0</ele><time>2026-04-25T09:43:13.538Z</time></trkpt><trkpt lat="43.6206133" lon="12.5888817"><ele>411.25</ele><time>2026-04-25T09:43:15.538Z</time></trkpt><trkpt lat="43.6205333" lon="12.5889167"><ele>409.5</ele><time>2026-04-25T09:43:16.538Z</time></trkpt><trkpt lat="43.6204267" lon="12.5889467"><ele>407.75</ele><time>2026-04-25T09:43:17.538Z</time></trkpt><trkpt lat="43.6202867" lon="12.5889667"><ele>406.0</ele><time>2026-04-25T09:43:18.539Z</time></trkpt><trkpt lat="43.6201283" lon="12.5889933"><ele>405.0</ele><time>2026-04-25T09:43:19.539Z</time></trkpt><trkpt lat="43.6199717" lon="12.589035"><ele>404.0</ele><time>2026-04-25T09:43:20.539Z</time></trkpt><trkpt lat="43.6198267" lon="12.58908"><ele>403.0</ele><time>2026-04-25T09:43:21.539Z</time></trkpt><trkpt lat="43.6196933" lon="12.5891267"><ele>402.0</ele><time>2026-04-25T09:43:22.539Z</time></trkpt><trkpt lat="43.6195733" lon="12.5891833"><ele>403.0</ele><time>2026-04-25T09:43:23.539Z</time></trkpt><trkpt lat="43.61947" lon="12.5892517"><ele>404.0</ele><time>2026-04-25T09:43:24.539Z</time></trkpt><trkpt lat="43.6193883" lon="12.5893383"><ele>405.0</ele><time>2026-04-25T09:43:25.539Z</time></trkpt><trkpt lat="43.6193233" lon="12.5894517"><ele>406.0</ele><time>2026-04-25T09:43:26.539Z</time></trkpt><trkpt lat="43.6192617" lon="12.5895967"><ele>407.0</ele><time>2026-04-25T09:43:27.538Z</time></trkpt><trkpt lat="43.6191883" lon="12.5897583"><ele>403.25</ele><time>2026-04-25T09:43:28.538Z</time></trkpt><trkpt lat="43.619115" lon="12.589925"><ele>399.5</ele><time>2026-04-25T09:43:29.539Z</time></trkpt><trkpt lat="43.6190467" lon="12.590085"><ele>395.75</ele><time>2026-04-25T09:43:30.539Z</time></trkpt><trkpt lat="43.618985" lon="12.5902333"><ele>392.0</ele><time>2026-04-25T09:43:31.539Z</time></trkpt><trkpt lat="43.6189483" lon="12.590365"><ele>390.40000000000003</ele><time>2026-04-25T09:43:32.538Z</time></trkpt><trkpt lat="43.6189283" lon="12.5905017"><ele>388.8</ele><time>2026-04-25T09:43:33.538Z</time></trkpt><trkpt lat="43.6189417" lon="12.5906367"><ele>387.2</ele><time>2026-04-25T09:43:34.538Z</time></trkpt><trkpt lat="43.61898" lon="12.5907617"><ele>385.6</ele><time>2026-04-25T09:43:35.539Z</time></trkpt><trkpt lat="43.61904" lon="12.5909067"><ele>384.0</ele><time>2026-04-25T09:43:36.539Z</time></trkpt><trkpt lat="43.6191083" lon="12.591075"><ele>385.4</ele><time>2026-04-25T09:43:37.539Z</time></trkpt><trkpt lat="43.6191767" lon="12.5912183"><ele>386.79999999999995</ele><time>2026-04-25T09:43:38.539Z</time></trkpt><trkpt lat="43.61925" lon="12.591325"><ele>388.20000000000005</ele><time>2026-04-25T09:43:39.539Z</time></trkpt><trkpt lat="43.619325" lon="12.5913867"><ele>389.6</ele><time>2026-04-25T09:43:40.539Z</time></trkpt><trkpt lat="43.6194183" lon="12.59142"><ele>391.0</ele><time>2026-04-25T09:43:41.539Z</time></trkpt><trkpt lat="43.6195267" lon="12.591415"><ele>391.0</ele><time>2026-04-25T09:43:42.539Z</time></trkpt><trkpt lat="43.619645" lon="12.59138"><ele>391.0</ele><time>2026-04-25T09:43:43.539Z</time></trkpt><trkpt lat="43.6197383" lon="12.5913683"><ele>391.0</ele><time>2026-04-25T09:43:44.539Z</time></trkpt><trkpt lat="43.6198183" lon="12.5913883"><ele>391.0</ele><time>2026-04-25T09:43:45.539Z</time></trkpt><trkpt lat="43.61987" lon="12.5914967"><ele>391.0</ele><time>2026-04-25T09:43:47.539Z</time></trkpt><trkpt lat="43.61981" lon="12.5916617"><ele>391.0</ele><time>2026-04-25T09:43:49.538Z</time></trkpt><trkpt lat="43.6197433" lon="12.59177"><ele>391.0</ele><time>2026-04-25T09:43:50.538Z</time></trkpt><trkpt lat="43.6196567" lon="12.59192"><ele>391.0</ele><time>2026-04-25T09:43:51.539Z</time></trkpt><trkpt lat="43.6195633" lon="12.5920733"><ele>391.0</ele><time>2026-04-25T09:43:52.538Z</time></trkpt><trkpt lat="43.6194933" lon="12.5921933"><ele>391.0</ele><time>2026-04-25T09:43:53.539Z</time></trkpt><trkpt lat="43.619455" lon="12.5923217"><ele>391.0</ele><time>2026-04-25T09:43:54.539Z</time></trkpt><trkpt lat="43.6194483" lon="12.592465"><ele>391.0</ele><time>2026-04-25T09:43:55.538Z</time></trkpt><trkpt lat="43.6194667" lon="12.5926317"><ele>391.0</ele><time>2026-04-25T09:43:56.538Z</time></trkpt><trkpt lat="43.6195117" lon="12.5928283"><ele>391.5</ele><time>2026-04-25T09:43:57.538Z</time></trkpt><trkpt lat="43.619575" lon="12.5930367"><ele>392.0</ele><time>2026-04-25T09:43:58.539Z</time></trkpt><trkpt lat="43.6196283" lon="12.5932183"><ele>392.5</ele><time>2026-04-25T09:43:59.539Z</time></trkpt><trkpt lat="43.6196533" lon="12.59337"><ele>393.0</ele><time>2026-04-25T09:44:00.538Z</time></trkpt><trkpt lat="43.6196533" lon="12.5935267"><ele>392.5</ele><time>2026-04-25T09:44:01.539Z</time></trkpt><trkpt lat="43.6196317" lon="12.59373"><ele>392.0</ele><time>2026-04-25T09:44:02.539Z</time></trkpt><trkpt lat="43.6196183" lon="12.5939483"><ele>391.5</ele><time>2026-04-25T09:44:03.538Z</time></trkpt><trkpt lat="43.619605" lon="12.5941417"><ele>391.0</ele><time>2026-04-25T09:44:04.539Z</time></trkpt><trkpt lat="43.619595" lon="12.5943217"><ele>391.0</ele><time>2026-04-25T09:44:05.539Z</time></trkpt><trkpt lat="43.6195983" lon="12.594495"><ele>391.0</ele><time>2026-04-25T09:44:06.538Z</time></trkpt><trkpt lat="43.6196193" lon="12.5946689"><ele>391.0</ele><time>2026-04-25T09:44:07.539Z</time></trkpt><trkpt lat="43.6196665" lon="12.5948552"><ele>391.0</ele><time>2026-04-25T09:44:08.539Z</time></trkpt><trkpt lat="43.6197157" lon="12.5950448"><ele>391.0</ele><time>2026-04-25T09:44:09.539Z</time></trkpt><trkpt lat="43.6197724" lon="12.5952383"><ele>391.0</ele><time>2026-04-25T09:44:10.539Z</time></trkpt><trkpt lat="43.61983" lon="12.5954134"><ele>391.0</ele><time>2026-04-25T09:44:11.539Z</time></trkpt><trkpt lat="43.6198786" lon="12.5955661"><ele>391.0</ele><time>2026-04-25T09:44:12.539Z</time></trkpt><trkpt lat="43.6199128" lon="12.5956886"><ele>390.20000000000005</ele><time>2026-04-25T09:44:13.538Z</time></trkpt><trkpt lat="43.6199369" lon="12.5957736"><ele>389.40000000000003</ele><time>2026-04-25T09:44:14.539Z</time></trkpt><trkpt lat="43.620016" lon="12.5958761"><ele>388.6</ele><time>2026-04-25T09:44:16.539Z</time></trkpt><trkpt lat="43.620101" lon="12.5959134"><ele>387.8</ele><time>2026-04-25T09:44:17.538Z</time></trkpt><trkpt lat="43.6202182" lon="12.5959431"><ele>387.0</ele><time>2026-04-25T09:44:18.539Z</time></trkpt><trkpt lat="43.620359" lon="12.5959573"><ele>386.25</ele><time>2026-04-25T09:44:19.539Z</time></trkpt><trkpt lat="43.6205018" lon="12.595949"><ele>385.5</ele><time>2026-04-25T09:44:20.539Z</time></trkpt><trkpt lat="43.620625" lon="12.5959407"><ele>384.75</ele><time>2026-04-25T09:44:21.538Z</time></trkpt><trkpt lat="43.6207358" lon="12.595953"><ele>384.0</ele><time>2026-04-25T09:44:22.539Z</time></trkpt><trkpt lat="43.6208409" lon="12.5960031"><ele>384.0</ele><time>2026-04-25T09:44:23.539Z</time></trkpt><trkpt lat="43.6209422" lon="12.5960913"><ele>384.0</ele><time>2026-04-25T09:44:24.539Z</time></trkpt><trkpt lat="43.621041" lon="12.596209"><ele>384.0</ele><time>2026-04-25T09:44:25.539Z</time></trkpt><trkpt lat="43.6211462" lon="12.5963622"><ele>384.0</ele><time>2026-04-25T09:44:26.539Z</time></trkpt><trkpt lat="43.6212522" lon="12.5965179"><ele>384.0</ele><time>2026-04-25T09:44:27.539Z</time></trkpt><trkpt lat="43.6213638" lon="12.5966605"><ele>384.0</ele><time>2026-04-25T09:44:28.539Z</time></trkpt><trkpt lat="43.6214843" lon="12.5967948"><ele>384.0</ele><time>2026-04-25T09:44:29.539Z</time></trkpt><trkpt lat="43.6215966" lon="12.5969144"><ele>384.0</ele><time>2026-04-25T09:44:30.538Z</time></trkpt><trkpt lat="43.6216886" lon="12.5970267"><ele>384.25</ele><time>2026-04-25T09:44:31.538Z</time></trkpt><trkpt lat="43.6217622" lon="12.5971389"><ele>384.5</ele><time>2026-04-25T09:44:32.539Z</time></trkpt><trkpt lat="43.621829" lon="12.5972678"><ele>384.75</ele><time>2026-04-25T09:44:33.539Z</time></trkpt><trkpt lat="43.6219002" lon="12.5974261"><ele>385.0</ele><time>2026-04-25T09:44:34.538Z</time></trkpt><trkpt lat="43.6219708" lon="12.5975956"><ele>385.0</ele><time>2026-04-25T09:44:35.538Z</time></trkpt><trkpt lat="43.6220392" lon="12.5977571"><ele>385.0</ele><time>2026-04-25T09:44:36.538Z</time></trkpt><trkpt lat="43.6221106" lon="12.5979059"><ele>385.0</ele><time>2026-04-25T09:44:37.538Z</time></trkpt><trkpt lat="43.6221888" lon="12.5980361"><ele>385.0</ele><time>2026-04-25T09:44:38.539Z</time></trkpt><trkpt lat="43.6222715" lon="12.5981375"><ele>385.0</ele><time>2026-04-25T09:44:39.539Z</time></trkpt><trkpt lat="43.6223557" lon="12.5982067"><ele>385.0</ele><time>2026-04-25T09:44:40.539Z</time></trkpt><trkpt lat="43.6224466" lon="12.5982441"><ele>385.0</ele><time>2026-04-25T09:44:41.539Z</time></trkpt><trkpt lat="43.6225513" lon="12.5982406"><ele>385.0</ele><time>2026-04-25T09:44:42.538Z</time></trkpt><trkpt lat="43.6226871" lon="12.5981983"><ele>385.0</ele><time>2026-04-25T09:44:43.539Z</time></trkpt><trkpt lat="43.6228339" lon="12.5981346"><ele>384.75</ele><time>2026-04-25T09:44:44.538Z</time></trkpt><trkpt lat="43.6229696" lon="12.5980699"><ele>384.5</ele><time>2026-04-25T09:44:45.539Z</time></trkpt><trkpt lat="43.6230888" lon="12.5979987"><ele>384.25</ele><time>2026-04-25T09:44:46.539Z</time></trkpt><trkpt lat="43.6232034" lon="12.5978936"><ele>384.0</ele><time>2026-04-25T09:44:47.539Z</time></trkpt><trkpt lat="43.6233224" lon="12.5977612"><ele>380.25</ele><time>2026-04-25T09:44:48.539Z</time></trkpt><trkpt lat="43.6234267" lon="12.5976322"><ele>376.5</ele><time>2026-04-25T09:44:49.538Z</time></trkpt><trkpt lat="43.6235183" lon="12.5975123"><ele>372.75</ele><time>2026-04-25T09:44:50.539Z</time></trkpt><trkpt lat="43.6235981" lon="12.5973956"><ele>369.0</ele><time>2026-04-25T09:44:51.539Z</time></trkpt><trkpt lat="43.6236725" lon="12.5972893"><ele>368.0</ele><time>2026-04-25T09:44:52.538Z</time></trkpt><trkpt lat="43.623735" lon="12.5972048"><ele>367.0</ele><time>2026-04-25T09:44:53.539Z</time></trkpt><trkpt lat="43.6237938" lon="12.5971425"><ele>366.0</ele><time>2026-04-25T09:44:54.538Z</time></trkpt><trkpt lat="43.6238554" lon="12.5970868"><ele>365.0</ele><time>2026-04-25T09:44:55.539Z</time></trkpt><trkpt lat="43.6239177" lon="12.5970404"><ele>364.0</ele><time>2026-04-25T09:44:56.538Z</time></trkpt><trkpt lat="43.6239836" lon="12.5970291"><ele>363.0</ele><time>2026-04-25T09:44:57.539Z</time></trkpt><trkpt lat="43.6240481" lon="12.5970495"><ele>362.0</ele><time>2026-04-25T09:44:58.539Z</time></trkpt><trkpt lat="43.6241015" lon="12.5971034"><ele>362.0</ele><time>2026-04-25T09:44:59.539Z</time></trkpt><trkpt lat="43.6241331" lon="12.5971843"><ele>362.0</ele><time>2026-04-25T09:45:00.539Z</time></trkpt><trkpt lat="43.6241473" lon="12.5973692"><ele>362.0</ele><time>2026-04-25T09:45:02.539Z</time></trkpt><trkpt lat="43.6241339" lon="12.5974861"><ele>362.0</ele><time>2026-04-25T09:45:03.539Z</time></trkpt><trkpt lat="43.6241054" lon="12.5976217"><ele>362.0</ele><time>2026-04-25T09:45:04.539Z</time></trkpt><trkpt lat="43.6240753" lon="12.5977855"><ele>364.0</ele><time>2026-04-25T09:45:05.538Z</time></trkpt><trkpt lat="43.624046" lon="12.5979592"><ele>366.0</ele><time>2026-04-25T09:45:06.539Z</time></trkpt><trkpt lat="43.6240269" lon="12.5981295"><ele>368.0</ele><time>2026-04-25T09:45:07.539Z</time></trkpt><trkpt lat="43.6240276" lon="12.5982879"><ele>370.0</ele><time>2026-04-25T09:45:08.539Z</time></trkpt><trkpt lat="43.6240603" lon="12.5984215"><ele>370.0</ele><time>2026-04-25T09:45:09.539Z</time></trkpt><trkpt lat="43.6241215" lon="12.5985465"><ele>370.0</ele><time>2026-04-25T09:45:10.538Z</time></trkpt><trkpt lat="43.6242121" lon="12.5986789"><ele>370.0</ele><time>2026-04-25T09:45:11.538Z</time></trkpt><trkpt lat="43.624322" lon="12.5988339"><ele>370.0</ele><time>2026-04-25T09:45:12.538Z</time></trkpt><trkpt lat="43.6244239" lon="12.5990103"><ele>367.25</ele><time>2026-04-25T09:45:13.538Z</time></trkpt><trkpt lat="43.6245167" lon="12.5991767"><ele>364.5</ele><time>2026-04-25T09:45:14.539Z</time></trkpt><trkpt lat="43.6245883" lon="12.5993267"><ele>361.75</ele><time>2026-04-25T09:45:15.539Z</time></trkpt><trkpt lat="43.6246483" lon="12.5994733"><ele>359.0</ele><time>2026-04-25T09:45:16.538Z</time></trkpt><trkpt lat="43.624705" lon="12.5996217"><ele>359.0</ele><time>2026-04-25T09:45:17.539Z</time></trkpt><trkpt lat="43.6247483" lon="12.5998"><ele>359.0</ele><time>2026-04-25T09:45:18.539Z</time></trkpt><trkpt lat="43.624795" lon="12.59999"><ele>359.0</ele><time>2026-04-25T09:45:19.538Z</time></trkpt><trkpt lat="43.62483" lon="12.6001867"><ele>359.0</ele><time>2026-04-25T09:45:20.539Z</time></trkpt><trkpt lat="43.62486" lon="12.60039"><ele>359.6</ele><time>2026-04-25T09:45:21.539Z</time></trkpt><trkpt lat="43.6248833" lon="12.6005717"><ele>360.2</ele><time>2026-04-25T09:45:22.539Z</time></trkpt><trkpt lat="43.6248917" lon="12.6007283"><ele>360.8</ele><time>2026-04-25T09:45:23.539Z</time></trkpt><trkpt lat="43.6249117" lon="12.6008517"><ele>361.40000000000003</ele><time>2026-04-25T09:45:24.538Z</time></trkpt><trkpt lat="43.6249383" lon="12.6009433"><ele>362.0</ele><time>2026-04-25T09:45:25.539Z</time></trkpt><trkpt lat="43.62499" lon="12.6010067"><ele>362.0</ele><time>2026-04-25T09:45:26.538Z</time></trkpt><trkpt lat="43.6250567" lon="12.6010483"><ele>362.0</ele><time>2026-04-25T09:45:27.538Z</time></trkpt><trkpt lat="43.62515" lon="12.6010733"><ele>362.0</ele><time>2026-04-25T09:45:28.538Z</time></trkpt><trkpt lat="43.625245" lon="12.6010883"><ele>362.0</ele><time>2026-04-25T09:45:29.538Z</time></trkpt><trkpt lat="43.62533" lon="12.6010967"><ele>362.0</ele><time>2026-04-25T09:45:30.538Z</time></trkpt><trkpt lat="43.6254067" lon="12.60113"><ele>362.0</ele><time>2026-04-25T09:45:31.539Z</time></trkpt><trkpt lat="43.6254767" lon="12.6012017"><ele>361.5</ele><time>2026-04-25T09:45:32.538Z</time></trkpt><trkpt lat="43.62555" lon="12.6012917"><ele>361.0</ele><time>2026-04-25T09:45:33.539Z</time></trkpt><trkpt lat="43.6255917" lon="12.6014583"><ele>360.5</ele><time>2026-04-25T09:45:34.539Z</time></trkpt><trkpt lat="43.6256467" lon="12.601645"><ele>360.0</ele><time>2026-04-25T09:45:35.539Z</time></trkpt><trkpt lat="43.62571" lon="12.601795"><ele>360.0</ele><time>2026-04-25T09:45:36.539Z</time></trkpt><trkpt lat="43.6257617" lon="12.6019033"><ele>360.0</ele><time>2026-04-25T09:45:37.539Z</time></trkpt><trkpt lat="43.6258417" lon="12.6019983"><ele>360.0</ele><time>2026-04-25T09:45:38.538Z</time></trkpt><trkpt lat="43.625935" lon="12.6020817"><ele>360.0</ele><time>2026-04-25T09:45:39.539Z</time></trkpt><trkpt lat="43.6260083" lon="12.6021433"><ele>360.0</ele><time>2026-04-25T09:45:40.539Z</time></trkpt><trkpt lat="43.6260883" lon="12.602195"><ele>359.0</ele><time>2026-04-25T09:45:41.539Z</time></trkpt><trkpt lat="43.6261667" lon="12.6022767"><ele>358.0</ele><time>2026-04-25T09:45:42.539Z</time></trkpt><trkpt lat="43.6262517" lon="12.6023533"><ele>357.0</ele><time>2026-04-25T09:45:43.538Z</time></trkpt><trkpt lat="43.626345" lon="12.6024383"><ele>356.0</ele><time>2026-04-25T09:45:44.539Z</time></trkpt><trkpt lat="43.62643" lon="12.6025333"><ele>355.0</ele><time>2026-04-25T09:45:45.539Z</time></trkpt><trkpt lat="43.62651" lon="12.6026467"><ele>355.0</ele><time>2026-04-25T09:45:46.539Z</time></trkpt><trkpt lat="43.6265983" lon="12.6027467"><ele>355.0</ele><time>2026-04-25T09:45:47.539Z</time></trkpt><trkpt lat="43.6267133" lon="12.6028283"><ele>355.0</ele><time>2026-04-25T09:45:48.539Z</time></trkpt><trkpt lat="43.626835" lon="12.6028933"><ele>355.0</ele><time>2026-04-25T09:45:49.538Z</time></trkpt><trkpt lat="43.626945" lon="12.602955"><ele>352.5</ele><time>2026-04-25T09:45:50.539Z</time></trkpt><trkpt lat="43.6270667" lon="12.6030117"><ele>350.0</ele><time>2026-04-25T09:45:51.538Z</time></trkpt><trkpt lat="43.627185" lon="12.6030583"><ele>347.5</ele><time>2026-04-25T09:45:52.539Z</time></trkpt><trkpt lat="43.6272833" lon="12.60307"><ele>345.0</ele><time>2026-04-25T09:45:53.538Z</time></trkpt><trkpt lat="43.6273983" lon="12.6030683"><ele>345.0</ele><time>2026-04-25T09:45:54.539Z</time></trkpt><trkpt lat="43.6274933" lon="12.603105"><ele>345.0</ele><time>2026-04-25T09:45:55.539Z</time></trkpt><trkpt lat="43.62757" lon="12.6031733"><ele>345.0</ele><time>2026-04-25T09:45:56.539Z</time></trkpt><trkpt lat="43.6276667" lon="12.6032633"><ele>345.0</ele><time>2026-04-25T09:45:57.538Z</time></trkpt><trkpt lat="43.627755" lon="12.603375"><ele>345.0</ele><time>2026-04-25T09:45:58.539Z</time></trkpt><trkpt lat="43.6278333" lon="12.6034967"><ele>342.25</ele><time>2026-04-25T09:45:59.539Z</time></trkpt><trkpt lat="43.627895" lon="12.6036283"><ele>339.5</ele><time>2026-04-25T09:46:00.539Z</time></trkpt><trkpt lat="43.6279517" lon="12.6037767"><ele>336.75</ele><time>2026-04-25T09:46:01.539Z</time></trkpt><trkpt lat="43.6279917" lon="12.603935"><ele>334.0</ele><time>2026-04-25T09:46:02.539Z</time></trkpt><trkpt lat="43.6280133" lon="12.6041083"><ele>334.0</ele><time>2026-04-25T09:46:03.538Z</time></trkpt><trkpt lat="43.628025" lon="12.60428"><ele>334.0</ele><time>2026-04-25T09:46:04.539Z</time></trkpt><trkpt lat="43.62803" lon="12.6044517"><ele>334.0</ele><time>2026-04-25T09:46:05.539Z</time></trkpt><trkpt lat="43.62802" lon="12.6046217"><ele>334.0</ele><time>2026-04-25T09:46:06.538Z</time></trkpt><trkpt lat="43.627995" lon="12.60479"><ele>334.0</ele><time>2026-04-25T09:46:07.538Z</time></trkpt><trkpt lat="43.62797" lon="12.60494"><ele>334.0</ele><time>2026-04-25T09:46:08.539Z</time></trkpt><trkpt lat="43.6279517" lon="12.6050667"><ele>334.0</ele><time>2026-04-25T09:46:09.538Z</time></trkpt><trkpt lat="43.62793" lon="12.6051883"><ele>334.0</ele><time>2026-04-25T09:46:10.538Z</time></trkpt><trkpt lat="43.6279467" lon="12.60529"><ele>334.0</ele><time>2026-04-25T09:46:11.539Z</time></trkpt><trkpt lat="43.6279767" lon="12.605395"><ele>332.75</ele><time>2026-04-25T09:46:12.539Z</time></trkpt><trkpt lat="43.62803" lon="12.605525"><ele>331.5</ele><time>2026-04-25T09:46:13.539Z</time></trkpt><trkpt lat="43.628105" lon="12.605675"><ele>330.25</ele><time>2026-04-25T09:46:14.539Z</time></trkpt><trkpt lat="43.6281983" lon="12.60582"><ele>329.0</ele><time>2026-04-25T09:46:15.539Z</time></trkpt><trkpt lat="43.6283" lon="12.6059467"><ele>329.0</ele><time>2026-04-25T09:46:16.538Z</time></trkpt><trkpt lat="43.6283817" lon="12.6060667"><ele>329.0</ele><time>2026-04-25T09:46:17.539Z</time></trkpt><trkpt lat="43.6284583" lon="12.6061767"><ele>329.0</ele><time>2026-04-25T09:46:18.539Z</time></trkpt><trkpt lat="43.6285333" lon="12.6062633"><ele>329.0</ele><time>2026-04-25T09:46:19.538Z</time></trkpt><trkpt lat="43.628595" lon="12.6063333"><ele>329.0</ele><time>2026-04-25T09:46:20.539Z</time></trkpt><trkpt lat="43.6286929" lon="12.6064022"><ele>328.79999999999995</ele><time>2026-04-25T09:46:22.539Z</time></trkpt><trkpt lat="43.6287835" lon="12.6063904"><ele>328.59999999999997</ele><time>2026-04-25T09:46:25.539Z</time></trkpt><trkpt lat="43.6288378" lon="12.6063385"><ele>328.4</ele><time>2026-04-25T09:46:26.539Z</time></trkpt><trkpt lat="43.6288941" lon="12.606252"><ele>328.2</ele><time>2026-04-25T09:46:27.539Z</time></trkpt><trkpt lat="43.6289739" lon="12.6061102"><ele>328.0</ele><time>2026-04-25T09:46:28.539Z</time></trkpt><trkpt lat="43.6290571" lon="12.605905"><ele>328.0</ele><time>2026-04-25T09:46:29.539Z</time></trkpt><trkpt lat="43.6291403" lon="12.6056752"><ele>328.0</ele><time>2026-04-25T09:46:30.539Z</time></trkpt><trkpt lat="43.6292108" lon="12.6054943"><ele>328.0</ele><time>2026-04-25T09:46:31.538Z</time></trkpt><trkpt lat="43.6292647" lon="12.6053647"><ele>328.0</ele><time>2026-04-25T09:46:32.539Z</time></trkpt><trkpt lat="43.6293086" lon="12.6052717"><ele>326.25</ele><time>2026-04-25T09:46:33.539Z</time></trkpt><trkpt lat="43.6294235" lon="12.6051998"><ele>324.5</ele><time>2026-04-25T09:46:35.539Z</time></trkpt><trkpt lat="43.6295129" lon="12.6052074"><ele>322.75</ele><time>2026-04-25T09:46:36.538Z</time></trkpt><trkpt lat="43.6296335" lon="12.6052333"><ele>321.0</ele><time>2026-04-25T09:46:37.538Z</time></trkpt><trkpt lat="43.6297843" lon="12.605279"><ele>322.3333333333333</ele><time>2026-04-25T09:46:38.538Z</time></trkpt><trkpt lat="43.6299561" lon="12.6053359"><ele>323.66666666666663</ele><time>2026-04-25T09:46:39.539Z</time></trkpt><trkpt lat="43.6301322" lon="12.6053806"><ele>325.0</ele><time>2026-04-25T09:46:40.539Z</time></trkpt><trkpt lat="43.6302909" lon="12.6054253"><ele>323.66666666666663</ele><time>2026-04-25T09:46:41.539Z</time></trkpt><trkpt lat="43.6304388" lon="12.6054812"><ele>322.3333333333333</ele><time>2026-04-25T09:46:42.538Z</time></trkpt><trkpt lat="43.6305958" lon="12.6055525"><ele>321.0</ele><time>2026-04-25T09:46:43.539Z</time></trkpt><trkpt lat="43.6307608" lon="12.6056263"><ele>321.0</ele><time>2026-04-25T09:46:44.538Z</time></trkpt><trkpt lat="43.6309126" lon="12.6056909"><ele>321.0</ele><time>2026-04-25T09:46:45.538Z</time></trkpt><trkpt lat="43.631053" lon="12.6057452"><ele>321.0</ele><time>2026-04-25T09:46:46.538Z</time></trkpt><trkpt lat="43.6311827" lon="12.6057998"><ele>321.0</ele><time>2026-04-25T09:46:47.539Z</time></trkpt><trkpt lat="43.6312951" lon="12.6058436"><ele>321.4</ele><time>2026-04-25T09:46:48.539Z</time></trkpt><trkpt lat="43.6313875" lon="12.605877"><ele>321.8</ele><time>2026-04-25T09:46:49.539Z</time></trkpt><trkpt lat="43.6314613" lon="12.6059013"><ele>322.2</ele><time>2026-04-25T09:46:50.538Z</time></trkpt><trkpt lat="43.6315518" lon="12.6059504"><ele>322.59999999999997</ele><time>2026-04-25T09:46:52.539Z</time></trkpt><trkpt lat="43.631561" lon="12.6060568"><ele>323.0</ele><time>2026-04-25T09:46:54.539Z</time></trkpt><trkpt lat="43.631505" lon="12.6062183"><ele>323.0</ele><time>2026-04-25T09:46:56.539Z</time></trkpt><trkpt lat="43.6314617" lon="12.6063267"><ele>323.0</ele><time>2026-04-25T09:46:57.539Z</time></trkpt><trkpt lat="43.6314117" lon="12.60646"><ele>323.0</ele><time>2026-04-25T09:46:58.538Z</time></trkpt><trkpt lat="43.63135" lon="12.6066233"><ele>323.0</ele><time>2026-04-25T09:46:59.538Z</time></trkpt><trkpt lat="43.6312817" lon="12.60681"><ele>325.75</ele><time>2026-04-25T09:47:00.539Z</time></trkpt><trkpt lat="43.6312133" lon="12.60701"><ele>328.5</ele><time>2026-04-25T09:47:01.538Z</time></trkpt><trkpt lat="43.631145" lon="12.6071833"><ele>331.25</ele><time>2026-04-25T09:47:02.539Z</time></trkpt><trkpt lat="43.6310917" lon="12.60732"><ele>334.0</ele><time>2026-04-25T09:47:03.538Z</time></trkpt><trkpt lat="43.631025" lon="12.6074367"><ele>335.75</ele><time>2026-04-25T09:47:04.539Z</time></trkpt><trkpt lat="43.630935" lon="12.6075383"><ele>337.5</ele><time>2026-04-25T09:47:05.539Z</time></trkpt><trkpt lat="43.6308133" lon="12.6076233"><ele>339.25</ele><time>2026-04-25T09:47:06.539Z</time></trkpt><trkpt lat="43.6306967" lon="12.6077017"><ele>341.0</ele><time>2026-04-25T09:47:07.538Z</time></trkpt><trkpt lat="43.6306" lon="12.607775"><ele>342.5</ele><time>2026-04-25T09:47:08.539Z</time></trkpt><trkpt lat="43.6305183" lon="12.607845"><ele>344.0</ele><time>2026-04-25T09:47:09.539Z</time></trkpt><trkpt lat="43.6304417" lon="12.60793"><ele>345.5</ele><time>2026-04-25T09:47:10.539Z</time></trkpt><trkpt lat="43.6303567" lon="12.6080617"><ele>347.0</ele><time>2026-04-25T09:47:11.539Z</time></trkpt><trkpt lat="43.630265" lon="12.608215"><ele>347.0</ele><time>2026-04-25T09:47:12.538Z</time></trkpt><trkpt lat="43.6301717" lon="12.6083717"><ele>347.0</ele><time>2026-04-25T09:47:13.539Z</time></trkpt><trkpt lat="43.6301017" lon="12.6084983"><ele>347.0</ele><time>2026-04-25T09:47:14.538Z</time></trkpt><trkpt lat="43.6300417" lon="12.608615"><ele>347.0</ele><time>2026-04-25T09:47:15.539Z</time></trkpt><trkpt lat="43.63001" lon="12.6087267"><ele>349.6</ele><time>2026-04-25T09:47:16.539Z</time></trkpt><trkpt lat="43.6300067" lon="12.60882"><ele>352.20000000000005</ele><time>2026-04-25T09:47:17.539Z</time></trkpt><trkpt lat="43.6300333" lon="12.608925"><ele>354.8</ele><time>2026-04-25T09:47:18.539Z</time></trkpt><trkpt lat="43.6300817" lon="12.6090417"><ele>357.4</ele><time>2026-04-25T09:47:19.538Z</time></trkpt><trkpt lat="43.6301517" lon="12.6091783"><ele>360.0</ele><time>2026-04-25T09:47:20.538Z</time></trkpt><trkpt lat="43.6302483" lon="12.6093333"><ele>363.0</ele><time>2026-04-25T09:47:21.538Z</time></trkpt><trkpt lat="43.63035" lon="12.6095067"><ele>366.0</ele><time>2026-04-25T09:47:22.538Z</time></trkpt><trkpt lat="43.630445" lon="12.609675"><ele>369.0</ele><time>2026-04-25T09:47:23.539Z</time></trkpt><trkpt lat="43.6305317" lon="12.6098233"><ele>369.0</ele><time>2026-04-25T09:47:24.538Z</time></trkpt><trkpt lat="43.6306167" lon="12.6099367"><ele>369.0</ele><time>2026-04-25T09:47:25.539Z</time></trkpt><trkpt lat="43.6307133" lon="12.6100083"><ele>369.0</ele><time>2026-04-25T09:47:26.539Z</time></trkpt><trkpt lat="43.63082" lon="12.610055"><ele>369.0</ele><time>2026-04-25T09:47:27.539Z</time></trkpt><trkpt lat="43.630915" lon="12.610095"><ele>369.0</ele><time>2026-04-25T09:47:28.539Z</time></trkpt><trkpt lat="43.63098" lon="12.6101283"><ele>369.0</ele><time>2026-04-25T09:47:29.539Z</time></trkpt><trkpt lat="43.6309733" lon="12.61023"><ele>369.0</ele><time>2026-04-25T09:47:32.538Z</time></trkpt><trkpt lat="43.6308183" lon="12.610255"><ele>369.0</ele><time>2026-04-25T09:47:34.539Z</time></trkpt><trkpt lat="43.6306949" lon="12.6102692"><ele>369.0</ele><time>2026-04-25T09:47:35.539Z</time></trkpt><trkpt lat="43.6305591" lon="12.6103051"><ele>370.0</ele><time>2026-04-25T09:47:36.539Z</time></trkpt><trkpt lat="43.6304148" lon="12.6103744"><ele>371.0</ele><time>2026-04-25T09:47:37.539Z</time></trkpt><trkpt lat="43.6302833" lon="12.610448"><ele>372.0</ele><time>2026-04-25T09:47:38.538Z</time></trkpt><trkpt lat="43.6301724" lon="12.6105064"><ele>373.0</ele><time>2026-04-25T09:47:39.538Z</time></trkpt><trkpt lat="43.6300768" lon="12.6105426"><ele>375.0</ele><time>2026-04-25T09:47:40.539Z</time></trkpt><trkpt lat="43.6299889" lon="12.6105758"><ele>377.0</ele><time>2026-04-25T09:47:41.538Z</time></trkpt><trkpt lat="43.6298933" lon="12.6106188"><ele>379.0</ele><time>2026-04-25T09:47:42.538Z</time></trkpt><trkpt lat="43.6297691" lon="12.6106768"><ele>381.0</ele><time>2026-04-25T09:47:43.539Z</time></trkpt><trkpt lat="43.6296412" lon="12.6107335"><ele>381.0</ele><time>2026-04-25T09:47:44.539Z</time></trkpt><trkpt lat="43.6295371" lon="12.610775"><ele>381.0</ele><time>2026-04-25T09:47:45.539Z</time></trkpt><trkpt lat="43.6294716" lon="12.610804"><ele>381.0</ele><time>2026-04-25T09:47:46.539Z</time></trkpt><trkpt lat="43.6294551" lon="12.6108883"><ele>381.0</ele><time>2026-04-25T09:47:49.539Z</time></trkpt><trkpt lat="43.6295381" lon="12.6108448"><ele>381.0</ele><time>2026-04-25T09:47:51.539Z</time></trkpt><trkpt lat="43.6296054" lon="12.6107748"><ele>381.0</ele><time>2026-04-25T09:47:52.539Z</time></trkpt><trkpt lat="43.6297075" lon="12.6107033"><ele>381.0</ele><time>2026-04-25T09:47:53.539Z</time></trkpt><trkpt lat="43.6298462" lon="12.6106391"><ele>381.0</ele><time>2026-04-25T09:47:54.539Z</time></trkpt><trkpt lat="43.6300063" lon="12.6105686"><ele>381.0</ele><time>2026-04-25T09:47:55.538Z</time></trkpt><trkpt lat="43.6301589" lon="12.6105001"><ele>381.0</ele><time>2026-04-25T09:47:56.539Z</time></trkpt><trkpt lat="43.6302969" lon="12.610433"><ele>381.0</ele><time>2026-04-25T09:47:57.539Z</time></trkpt><trkpt lat="43.6304207" lon="12.6103712"><ele>381.0</ele><time>2026-04-25T09:47:58.539Z</time></trkpt><trkpt lat="43.6305327" lon="12.6103159"><ele>381.0</ele><time>2026-04-25T09:47:59.539Z</time></trkpt><trkpt lat="43.6306338" lon="12.6102767"><ele>379.6666666666667</ele><time>2026-04-25T09:48:00.539Z</time></trkpt><trkpt lat="43.6307255" lon="12.6102574"><ele>378.3333333333333</ele><time>2026-04-25T09:48:01.539Z</time></trkpt><trkpt lat="43.6308128" lon="12.6102511"><ele>377.0</ele><time>2026-04-25T09:48:02.538Z</time></trkpt><trkpt lat="43.6308969" lon="12.6102546"><ele>375.66666666666663</ele><time>2026-04-25T09:48:03.539Z</time></trkpt><trkpt lat="43.6309687" lon="12.6102772"><ele>374.3333333333333</ele><time>2026-04-25T09:48:04.539Z</time></trkpt><trkpt lat="43.6310293" lon="12.6103223"><ele>373.0</ele><time>2026-04-25T09:48:05.539Z</time></trkpt><trkpt lat="43.6310802" lon="12.6103991"><ele>373.0</ele><time>2026-04-25T09:48:06.539Z</time></trkpt><trkpt lat="43.6311336" lon="12.6105162"><ele>373.0</ele><time>2026-04-25T09:48:07.539Z</time></trkpt><trkpt lat="43.631201" lon="12.610671"><ele>373.0</ele><time>2026-04-25T09:48:08.539Z</time></trkpt><trkpt lat="43.6312662" lon="12.6108344"><ele>373.0</ele><time>2026-04-25T09:48:09.538Z</time></trkpt><trkpt lat="43.6313305" lon="12.6110102"><ele>368.0</ele><time>2026-04-25T09:48:10.539Z</time></trkpt><trkpt lat="43.6313965" lon="12.6112082"><ele>363.0</ele><time>2026-04-25T09:48:11.539Z</time></trkpt><trkpt lat="43.6314609" lon="12.6113993"><ele>358.0</ele><time>2026-04-25T09:48:12.539Z</time></trkpt><trkpt lat="43.6315224" lon="12.6115733"><ele>358.0</ele><time>2026-04-25T09:48:13.539Z</time></trkpt><trkpt lat="43.6315802" lon="12.6117351"><ele>358.0</ele><time>2026-04-25T09:48:14.539Z</time></trkpt><trkpt lat="43.6316354" lon="12.6118839"><ele>358.0</ele><time>2026-04-25T09:48:15.539Z</time></trkpt><trkpt lat="43.6316835" lon="12.6120262"><ele>358.0</ele><time>2026-04-25T09:48:16.539Z</time></trkpt><trkpt lat="43.6317358" lon="12.6121585"><ele>358.4</ele><time>2026-04-25T09:48:17.539Z</time></trkpt><trkpt lat="43.6317857" lon="12.612279"><ele>358.79999999999995</ele><time>2026-04-25T09:48:18.538Z</time></trkpt><trkpt lat="43.6318376" lon="12.6123883"><ele>359.2</ele><time>2026-04-25T09:48:19.538Z</time></trkpt><trkpt lat="43.6318875" lon="12.6125077"><ele>359.6</ele><time>2026-04-25T09:48:20.538Z</time></trkpt><trkpt lat="43.6319371" lon="12.6126257"><ele>360.0</ele><time>2026-04-25T09:48:21.538Z</time></trkpt><trkpt lat="43.6319854" lon="12.612752"><ele>355.75</ele><time>2026-04-25T09:48:22.539Z</time></trkpt><trkpt lat="43.6320359" lon="12.6128926"><ele>351.5</ele><time>2026-04-25T09:48:23.539Z</time></trkpt><trkpt lat="43.6320867" lon="12.6130432"><ele>347.25</ele><time>2026-04-25T09:48:24.538Z</time></trkpt><trkpt lat="43.6321466" lon="12.6131928"><ele>343.0</ele><time>2026-04-25T09:48:25.539Z</time></trkpt><trkpt lat="43.6322134" lon="12.6133368"><ele>343.0</ele><time>2026-04-25T09:48:26.539Z</time></trkpt><trkpt lat="43.6322844" lon="12.6134872"><ele>343.0</ele><time>2026-04-25T09:48:27.539Z</time></trkpt><trkpt lat="43.6323677" lon="12.6136435"><ele>343.0</ele><time>2026-04-25T09:48:28.539Z</time></trkpt><trkpt lat="43.6324632" lon="12.6138051"><ele>343.0</ele><time>2026-04-25T09:48:29.539Z</time></trkpt><trkpt lat="43.632562" lon="12.6139611"><ele>344.75</ele><time>2026-04-25T09:48:30.539Z</time></trkpt><trkpt lat="43.6326588" lon="12.6140998"><ele>346.5</ele><time>2026-04-25T09:48:31.539Z</time></trkpt><trkpt lat="43.6327419" lon="12.6142275"><ele>348.25</ele><time>2026-04-25T09:48:32.539Z</time></trkpt><trkpt lat="43.6328099" lon="12.6143463"><ele>350.0</ele><time>2026-04-25T09:48:33.539Z</time></trkpt><trkpt lat="43.6328656" lon="12.614457"><ele>347.8</ele><time>2026-04-25T09:48:34.539Z</time></trkpt><trkpt lat="43.632917" lon="12.6145768"><ele>345.6</ele><time>2026-04-25T09:48:35.538Z</time></trkpt><trkpt lat="43.632964" lon="12.6147099"><ele>343.4</ele><time>2026-04-25T09:48:36.539Z</time></trkpt><trkpt lat="43.6330002" lon="12.6148352"><ele>341.2</ele><time>2026-04-25T09:48:37.539Z</time></trkpt><trkpt lat="43.6330323" lon="12.6149454"><ele>339.0</ele><time>2026-04-25T09:48:38.539Z</time></trkpt><trkpt lat="43.6330744" lon="12.6150248"><ele>339.0</ele><time>2026-04-25T09:48:39.538Z</time></trkpt><trkpt lat="43.6331922" lon="12.6150849"><ele>339.0</ele><time>2026-04-25T09:48:41.538Z</time></trkpt><trkpt lat="43.6332867" lon="12.6150633"><ele>339.0</ele><time>2026-04-25T09:48:42.539Z</time></trkpt><trkpt lat="43.633375" lon="12.6150817"><ele>339.0</ele><time>2026-04-25T09:48:43.539Z</time></trkpt><trkpt lat="43.633445" lon="12.61513"><ele>339.0</ele><time>2026-04-25T09:48:44.539Z</time></trkpt><trkpt lat="43.6335167" lon="12.6152133"><ele>340.5</ele><time>2026-04-25T09:48:45.539Z</time></trkpt><trkpt lat="43.6335833" lon="12.6153233"><ele>342.0</ele><time>2026-04-25T09:48:46.538Z</time></trkpt><trkpt lat="43.6336533" lon="12.615455"><ele>343.5</ele><time>2026-04-25T09:48:47.538Z</time></trkpt><trkpt lat="43.63373" lon="12.6155917"><ele>345.0</ele><time>2026-04-25T09:48:48.539Z</time></trkpt><trkpt lat="43.6338033" lon="12.6157517"><ele>342.0</ele><time>2026-04-25T09:48:49.539Z</time></trkpt><trkpt lat="43.6338683" lon="12.61591"><ele>339.0</ele><time>2026-04-25T09:48:50.539Z</time></trkpt><trkpt lat="43.633925" lon="12.6160633"><ele>336.0</ele><time>2026-04-25T09:48:51.539Z</time></trkpt><trkpt lat="43.63398" lon="12.6162133"><ele>333.0</ele><time>2026-04-25T09:48:52.539Z</time></trkpt><trkpt lat="43.6340267" lon="12.6163683"><ele>333.0</ele><time>2026-04-25T09:48:53.539Z</time></trkpt><trkpt lat="43.6340833" lon="12.6165083"><ele>333.0</ele><time>2026-04-25T09:48:54.538Z</time></trkpt><trkpt lat="43.63414" lon="12.6166217"><ele>333.0</ele><time>2026-04-25T09:48:55.539Z</time></trkpt><trkpt lat="43.6341933" lon="12.6167283"><ele>333.0</ele><time>2026-04-25T09:48:56.539Z</time></trkpt><trkpt lat="43.6342533" lon="12.6168367"><ele>333.0</ele><time>2026-04-25T09:48:57.539Z</time></trkpt><trkpt lat="43.63432" lon="12.6169417"><ele>332.75</ele><time>2026-04-25T09:48:58.539Z</time></trkpt><trkpt lat="43.63441" lon="12.61704"><ele>332.5</ele><time>2026-04-25T09:48:59.539Z</time></trkpt><trkpt lat="43.6345117" lon="12.61715"><ele>332.25</ele><time>2026-04-25T09:49:00.539Z</time></trkpt><trkpt lat="43.6346283" lon="12.617285"><ele>332.0</ele><time>2026-04-25T09:49:01.539Z</time></trkpt><trkpt lat="43.63477" lon="12.617455"><ele>332.0</ele><time>2026-04-25T09:49:02.539Z</time></trkpt><trkpt lat="43.6349317" lon="12.61763"><ele>332.0</ele><time>2026-04-25T09:49:03.539Z</time></trkpt><trkpt lat="43.63509" lon="12.617815"><ele>332.0</ele><time>2026-04-25T09:49:04.539Z</time></trkpt><trkpt lat="43.6352417" lon="12.617995"><ele>334.0</ele><time>2026-04-25T09:49:05.539Z</time></trkpt><trkpt lat="43.6353833" lon="12.6181717"><ele>336.0</ele><time>2026-04-25T09:49:06.539Z</time></trkpt><trkpt lat="43.6355233" lon="12.6183567"><ele>338.0</ele><time>2026-04-25T09:49:07.538Z</time></trkpt><trkpt lat="43.63566" lon="12.6185417"><ele>340.0</ele><time>2026-04-25T09:49:08.538Z</time></trkpt><trkpt lat="43.6357833" lon="12.6187083"><ele>342.0</ele><time>2026-04-25T09:49:09.539Z</time></trkpt><trkpt lat="43.6358883" lon="12.6188633"><ele>344.0</ele><time>2026-04-25T09:49:10.538Z</time></trkpt><trkpt lat="43.6359983" lon="12.6190117"><ele>344.0</ele><time>2026-04-25T09:49:11.538Z</time></trkpt><trkpt lat="43.636105" lon="12.6191683"><ele>344.0</ele><time>2026-04-25T09:49:12.539Z</time></trkpt><trkpt lat="43.6362167" lon="12.619315"><ele>344.0</ele><time>2026-04-25T09:49:13.539Z</time></trkpt><trkpt lat="43.6363167" lon="12.61945"><ele>343.5</ele><time>2026-04-25T09:49:14.539Z</time></trkpt><trkpt lat="43.63643" lon="12.61956"><ele>343.0</ele><time>2026-04-25T09:49:15.539Z</time></trkpt><trkpt lat="43.636555" lon="12.619675"><ele>342.5</ele><time>2026-04-25T09:49:16.539Z</time></trkpt><trkpt lat="43.6366817" lon="12.6197917"><ele>342.0</ele><time>2026-04-25T09:49:17.539Z</time></trkpt><trkpt lat="43.6367967" lon="12.6198767"><ele>342.0</ele><time>2026-04-25T09:49:18.538Z</time></trkpt><trkpt lat="43.6368967" lon="12.6199583"><ele>342.0</ele><time>2026-04-25T09:49:19.538Z</time></trkpt><trkpt lat="43.6370017" lon="12.6200467"><ele>342.0</ele><time>2026-04-25T09:49:20.539Z</time></trkpt><trkpt lat="43.63709" lon="12.6201683"><ele>342.0</ele><time>2026-04-25T09:49:21.539Z</time></trkpt><trkpt lat="43.63717" lon="12.620315"><ele>340.25</ele><time>2026-04-25T09:49:22.539Z</time></trkpt><trkpt lat="43.6372433" lon="12.6204867"><ele>338.5</ele><time>2026-04-25T09:49:23.539Z</time></trkpt><trkpt lat="43.6372917" lon="12.6206717"><ele>336.75</ele><time>2026-04-25T09:49:24.538Z</time></trkpt><trkpt lat="43.63731" lon="12.620855"><ele>335.0</ele><time>2026-04-25T09:49:25.539Z</time></trkpt><trkpt lat="43.63734" lon="12.6210467"><ele>334.75</ele><time>2026-04-25T09:49:26.539Z</time></trkpt><trkpt lat="43.637345" lon="12.6212533"><ele>334.5</ele><time>2026-04-25T09:49:27.539Z</time></trkpt><trkpt lat="43.63734" lon="12.6214433"><ele>334.25</ele><time>2026-04-25T09:49:28.538Z</time></trkpt><trkpt lat="43.6373267" lon="12.6216317"><ele>334.0</ele><time>2026-04-25T09:49:29.539Z</time></trkpt><trkpt lat="43.6373167" lon="12.62179"><ele>334.0</ele><time>2026-04-25T09:49:30.539Z</time></trkpt><trkpt lat="43.6373267" lon="12.6219233"><ele>334.0</ele><time>2026-04-25T09:49:31.539Z</time></trkpt><trkpt lat="43.637345" lon="12.6220633"><ele>334.0</ele><time>2026-04-25T09:49:32.538Z</time></trkpt><trkpt lat="43.6373583" lon="12.6221917"><ele>334.0</ele><time>2026-04-25T09:49:33.539Z</time></trkpt><trkpt lat="43.6373767" lon="12.6223417"><ele>334.0</ele><time>2026-04-25T09:49:34.538Z</time></trkpt><trkpt lat="43.6374033" lon="12.6224917"><ele>334.75</ele><time>2026-04-25T09:49:35.539Z</time></trkpt><trkpt lat="43.6374633" lon="12.622645"><ele>335.5</ele><time>2026-04-25T09:49:36.539Z</time></trkpt><trkpt lat="43.63752" lon="12.622785"><ele>336.25</ele><time>2026-04-25T09:49:37.538Z</time></trkpt><trkpt lat="43.6375867" lon="12.6229467"><ele>337.0</ele><time>2026-04-25T09:49:38.539Z</time></trkpt><trkpt lat="43.6376633" lon="12.62311"><ele>337.25</ele><time>2026-04-25T09:49:39.539Z</time></trkpt><trkpt lat="43.6377433" lon="12.623275"><ele>337.5</ele><time>2026-04-25T09:49:40.539Z</time></trkpt><trkpt lat="43.637815" lon="12.6234233"><ele>337.75</ele><time>2026-04-25T09:49:41.539Z</time></trkpt><trkpt lat="43.6378733" lon="12.623575"><ele>338.0</ele><time>2026-04-25T09:49:42.539Z</time></trkpt><trkpt lat="43.637925" lon="12.62374"><ele>339.75</ele><time>2026-04-25T09:49:43.538Z</time></trkpt><trkpt lat="43.6379617" lon="12.6239133"><ele>341.5</ele><time>2026-04-25T09:49:44.538Z</time></trkpt><trkpt lat="43.63798" lon="12.6240917"><ele>343.25</ele><time>2026-04-25T09:49:45.539Z</time></trkpt><trkpt lat="43.6379833" lon="12.62429"><ele>345.0</ele><time>2026-04-25T09:49:46.538Z</time></trkpt><trkpt lat="43.63796" lon="12.6245083"><ele>346.25</ele><time>2026-04-25T09:49:47.539Z</time></trkpt><trkpt lat="43.637935" lon="12.6247133"><ele>347.5</ele><time>2026-04-25T09:49:48.539Z</time></trkpt><trkpt lat="43.6379217" lon="12.62489"><ele>348.75</ele><time>2026-04-25T09:49:49.539Z</time></trkpt><trkpt lat="43.637945" lon="12.62505"><ele>350.0</ele><time>2026-04-25T09:49:50.539Z</time></trkpt><trkpt lat="43.6379683" lon="12.6251983"><ele>348.0</ele><time>2026-04-25T09:49:51.538Z</time></trkpt><trkpt lat="43.637975" lon="12.6253583"><ele>346.0</ele><time>2026-04-25T09:49:52.539Z</time></trkpt><trkpt lat="43.6380033" lon="12.6255"><ele>344.0</ele><time>2026-04-25T09:49:53.539Z</time></trkpt><trkpt lat="43.63805" lon="12.625645"><ele>342.0</ele><time>2026-04-25T09:49:54.539Z</time></trkpt><trkpt lat="43.6381317" lon="12.6258167"><ele>342.0</ele><time>2026-04-25T09:49:55.538Z</time></trkpt><trkpt lat="43.638205" lon="12.6260217"><ele>342.0</ele><time>2026-04-25T09:49:56.539Z</time></trkpt><trkpt lat="43.6383067" lon="12.62623"><ele>342.0</ele><time>2026-04-25T09:49:57.539Z</time></trkpt><trkpt lat="43.638385" lon="12.6264433"><ele>339.6666666666667</ele><time>2026-04-25T09:49:58.539Z</time></trkpt><trkpt lat="43.6384667" lon="12.62664"><ele>337.33333333333337</ele><time>2026-04-25T09:49:59.539Z</time></trkpt><trkpt lat="43.6385517" lon="12.6268167"><ele>335.0</ele><time>2026-04-25T09:50:00.539Z</time></trkpt><trkpt lat="43.63862" lon="12.6270017"><ele>335.25</ele><time>2026-04-25T09:50:01.539Z</time></trkpt><trkpt lat="43.6386767" lon="12.6271733"><ele>335.5</ele><time>2026-04-25T09:50:02.538Z</time></trkpt><trkpt lat="43.6387" lon="12.6273533"><ele>335.75</ele><time>2026-04-25T09:50:03.539Z</time></trkpt><trkpt lat="43.6386883" lon="12.6275567"><ele>336.0</ele><time>2026-04-25T09:50:04.539Z</time></trkpt><trkpt lat="43.6386617" lon="12.6277983"><ele>337.6666666666667</ele><time>2026-04-25T09:50:05.538Z</time></trkpt><trkpt lat="43.6386483" lon="12.62807"><ele>339.33333333333337</ele><time>2026-04-25T09:50:06.538Z</time></trkpt><trkpt lat="43.6386317" lon="12.6283383"><ele>341.0</ele><time>2026-04-25T09:50:07.538Z</time></trkpt><trkpt lat="43.6386083" lon="12.6285867"><ele>342.6666666666667</ele><time>2026-04-25T09:50:08.538Z</time></trkpt><trkpt lat="43.6386233" lon="12.6288383"><ele>344.3333333333333</ele><time>2026-04-25T09:50:09.538Z</time></trkpt><trkpt lat="43.6386317" lon="12.6290867"><ele>346.0</ele><time>2026-04-25T09:50:10.538Z</time></trkpt><trkpt lat="43.63869" lon="12.62934"><ele>347.66666666666663</ele><time>2026-04-25T09:50:11.538Z</time></trkpt><trkpt lat="43.638735" lon="12.6295717"><ele>349.3333333333333</ele><time>2026-04-25T09:50:12.538Z</time></trkpt><trkpt lat="43.63877" lon="12.6297917"><ele>351.0</ele><time>2026-04-25T09:50:13.537Z</time></trkpt><trkpt lat="43.6388033" lon="12.6300033"><ele>351.0</ele><time>2026-04-25T09:50:14.538Z</time></trkpt><trkpt lat="43.6388117" lon="12.6302167"><ele>351.0</ele><time>2026-04-25T09:50:15.538Z</time></trkpt><trkpt lat="43.6387983" lon="12.6304267"><ele>351.0</ele><time>2026-04-25T09:50:16.538Z</time></trkpt><trkpt lat="43.63878" lon="12.630655"><ele>352.6666666666667</ele><time>2026-04-25T09:50:17.538Z</time></trkpt><trkpt lat="43.6387517" lon="12.630905"><ele>354.33333333333337</ele><time>2026-04-25T09:50:18.538Z</time></trkpt><trkpt lat="43.638715" lon="12.6311583"><ele>356.0</ele><time>2026-04-25T09:50:19.538Z</time></trkpt><trkpt lat="43.6386767" lon="12.631385"><ele>358.6666666666667</ele><time>2026-04-25T09:50:20.538Z</time></trkpt><trkpt lat="43.6386233" lon="12.6316017"><ele>361.3333333333333</ele><time>2026-04-25T09:50:21.538Z</time></trkpt><trkpt lat="43.6385817" lon="12.6318067"><ele>364.0</ele><time>2026-04-25T09:50:22.538Z</time></trkpt><trkpt lat="43.6385483" lon="12.6319967"><ele>365.5</ele><time>2026-04-25T09:50:23.538Z</time></trkpt><trkpt lat="43.6385283" lon="12.6321383"><ele>367.0</ele><time>2026-04-25T09:50:24.538Z</time></trkpt><trkpt lat="43.6384933" lon="12.6322967"><ele>368.5</ele><time>2026-04-25T09:50:25.538Z</time></trkpt><trkpt lat="43.6384633" lon="12.6324583"><ele>370.0</ele><time>2026-04-25T09:50:26.537Z</time></trkpt><trkpt lat="43.6384683" lon="12.632625"><ele>370.0</ele><time>2026-04-25T09:50:27.538Z</time></trkpt><trkpt lat="43.6384483" lon="12.63279"><ele>370.0</ele><time>2026-04-25T09:50:28.537Z</time></trkpt><trkpt lat="43.6384183" lon="12.6329683"><ele>370.0</ele><time>2026-04-25T09:50:29.537Z</time></trkpt><trkpt lat="43.6384183" lon="12.63314"><ele>370.0</ele><time>2026-04-25T09:50:30.538Z</time></trkpt><trkpt lat="43.638385" lon="12.6332983"><ele>370.6</ele><time>2026-04-25T09:50:31.537Z</time></trkpt><trkpt lat="43.6383783" lon="12.6334367"><ele>371.2</ele><time>2026-04-25T09:50:32.538Z</time></trkpt><trkpt lat="43.6383667" lon="12.6335583"><ele>371.79999999999995</ele><time>2026-04-25T09:50:33.538Z</time></trkpt><trkpt lat="43.63833" lon="12.6336683"><ele>372.4</ele><time>2026-04-25T09:50:34.538Z</time></trkpt><trkpt lat="43.6383067" lon="12.6338017"><ele>373.0</ele><time>2026-04-25T09:50:35.537Z</time></trkpt><trkpt lat="43.6382533" lon="12.6339633"><ele>373.66666666666663</ele><time>2026-04-25T09:50:36.538Z</time></trkpt><trkpt lat="43.6382333" lon="12.6341433"><ele>374.3333333333333</ele><time>2026-04-25T09:50:37.538Z</time></trkpt><trkpt lat="43.6381683" lon="12.6343717"><ele>375.0</ele><time>2026-04-25T09:50:38.538Z</time></trkpt><trkpt lat="43.6381083" lon="12.6346083"><ele>376.0</ele><time>2026-04-25T09:50:39.538Z</time></trkpt><trkpt lat="43.638045" lon="12.63486"><ele>377.0</ele><time>2026-04-25T09:50:40.538Z</time></trkpt><trkpt lat="43.6379883" lon="12.6350767"><ele>378.0</ele><time>2026-04-25T09:50:41.537Z</time></trkpt><trkpt lat="43.637935" lon="12.635275"><ele>379.5</ele><time>2026-04-25T09:50:42.537Z</time></trkpt><trkpt lat="43.637895" lon="12.6354467"><ele>381.0</ele><time>2026-04-25T09:50:43.537Z</time></trkpt><trkpt lat="43.6378667" lon="12.635615"><ele>382.5</ele><time>2026-04-25T09:50:44.538Z</time></trkpt><trkpt lat="43.63781" lon="12.6358"><ele>384.0</ele><time>2026-04-25T09:50:45.537Z</time></trkpt><trkpt lat="43.63775" lon="12.6359917"><ele>386.75</ele><time>2026-04-25T09:50:46.538Z</time></trkpt><trkpt lat="43.6376983" lon="12.6361767"><ele>389.5</ele><time>2026-04-25T09:50:47.538Z</time></trkpt><trkpt lat="43.6376483" lon="12.63634"><ele>392.25</ele><time>2026-04-25T09:50:48.537Z</time></trkpt><trkpt lat="43.63759" lon="12.6364883"><ele>395.0</ele><time>2026-04-25T09:50:49.538Z</time></trkpt><trkpt lat="43.6375483" lon="12.6365983"><ele>394.99999999999994</ele><time>2026-04-25T09:50:50.537Z</time></trkpt><trkpt lat="43.637515" lon="12.6367083"><ele>395.0</ele><time>2026-04-25T09:50:51.538Z</time></trkpt><trkpt lat="43.63751" lon="12.6368"><ele>395.0</ele><time>2026-04-25T09:50:52.538Z</time></trkpt><trkpt lat="43.6375933" lon="12.636925"><ele>395.0</ele><time>2026-04-25T09:50:54.538Z</time></trkpt><trkpt lat="43.637655" lon="12.6369783"><ele>394.99999999999994</ele><time>2026-04-25T09:50:55.537Z</time></trkpt><trkpt lat="43.6377333" lon="12.63702"><ele>395.0</ele><time>2026-04-25T09:50:56.537Z</time></trkpt><trkpt lat="43.6378467" lon="12.6370483"><ele>400.2</ele><time>2026-04-25T09:50:57.538Z</time></trkpt><trkpt lat="43.6379733" lon="12.6370783"><ele>405.4</ele><time>2026-04-25T09:50:58.537Z</time></trkpt><trkpt lat="43.63809" lon="12.6371233"><ele>410.6</ele><time>2026-04-25T09:50:59.537Z</time></trkpt><trkpt lat="43.638175" lon="12.637175"><ele>415.8</ele><time>2026-04-25T09:51:00.538Z</time></trkpt><trkpt lat="43.6382517" lon="12.6372483"><ele>421.0</ele><time>2026-04-25T09:51:01.537Z</time></trkpt><trkpt lat="43.6383317" lon="12.63733"><ele>421.00000000000006</ele><time>2026-04-25T09:51:02.538Z</time></trkpt><trkpt lat="43.6383967" lon="12.63742"><ele>421.0</ele><time>2026-04-25T09:51:03.538Z</time></trkpt><trkpt lat="43.6384483" lon="12.6375117"><ele>421.0</ele><time>2026-04-25T09:51:04.538Z</time></trkpt><trkpt lat="43.6384833" lon="12.6375883"><ele>421.0</ele><time>2026-04-25T09:51:05.538Z</time></trkpt><trkpt lat="43.6385267" lon="12.637655"><ele>421.00000000000006</ele><time>2026-04-25T09:51:06.538Z</time></trkpt><trkpt lat="43.6386217" lon="12.637725"><ele>421.0</ele><time>2026-04-25T09:51:08.538Z</time></trkpt><trkpt lat="43.638705" lon="12.6377517"><ele>421.25</ele><time>2026-04-25T09:51:09.538Z</time></trkpt><trkpt lat="43.6388117" lon="12.6377617"><ele>421.5</ele><time>2026-04-25T09:51:10.537Z</time></trkpt><trkpt lat="43.63895" lon="12.6377683"><ele>421.75</ele><time>2026-04-25T09:51:11.537Z</time></trkpt><trkpt lat="43.639105" lon="12.6377717"><ele>422.0</ele><time>2026-04-25T09:51:12.537Z</time></trkpt><trkpt lat="43.6392583" lon="12.6377533"><ele>422.0</ele><time>2026-04-25T09:51:13.538Z</time></trkpt><trkpt lat="43.6394167" lon="12.637705"><ele>422.0</ele><time>2026-04-25T09:51:14.538Z</time></trkpt><trkpt lat="43.6395717" lon="12.6376467"><ele>422.0</ele><time>2026-04-25T09:51:15.538Z</time></trkpt><trkpt lat="43.6397117" lon="12.6375883"><ele>422.8</ele><time>2026-04-25T09:51:16.537Z</time></trkpt><trkpt lat="43.6398317" lon="12.6375283"><ele>423.6</ele><time>2026-04-25T09:51:17.538Z</time></trkpt><trkpt lat="43.639935" lon="12.6375033"><ele>424.40000000000003</ele><time>2026-04-25T09:51:18.538Z</time></trkpt><trkpt lat="43.6400217" lon="12.6374983"><ele>425.20000000000005</ele><time>2026-04-25T09:51:19.538Z</time></trkpt><trkpt lat="43.6400883" lon="12.63751"><ele>426.0</ele><time>2026-04-25T09:51:20.538Z</time></trkpt><trkpt lat="43.6401567" lon="12.6375167"><ele>426.0</ele><time>2026-04-25T09:51:21.538Z</time></trkpt><trkpt lat="43.6402433" lon="12.637525"><ele>426.0</ele><time>2026-04-25T09:51:22.538Z</time></trkpt><trkpt lat="43.6403417" lon="12.63754"><ele>426.0</ele><time>2026-04-25T09:51:23.538Z</time></trkpt><trkpt lat="43.6404267" lon="12.63755"><ele>426.0</ele><time>2026-04-25T09:51:24.538Z</time></trkpt><trkpt lat="43.64049" lon="12.637565"><ele>426.0</ele><time>2026-04-25T09:51:25.537Z</time></trkpt><trkpt lat="43.6404817" lon="12.6376817"><ele>426.0</ele><time>2026-04-25T09:51:28.538Z</time></trkpt><trkpt lat="43.6403783" lon="12.63771"><ele>426.0</ele><time>2026-04-25T09:51:30.537Z</time></trkpt><trkpt lat="43.6402817" lon="12.637725"><ele>426.0</ele><time>2026-04-25T09:51:31.538Z</time></trkpt><trkpt lat="43.640155" lon="12.6377517"><ele>426.0</ele><time>2026-04-25T09:51:32.538Z</time></trkpt><trkpt lat="43.6400283" lon="12.6377817"><ele>426.0</ele><time>2026-04-25T09:51:33.538Z</time></trkpt><trkpt lat="43.6399083" lon="12.6378283"><ele>430.20000000000005</ele><time>2026-04-25T09:51:34.537Z</time></trkpt><trkpt lat="43.6398183" lon="12.6378533"><ele>434.40000000000003</ele><time>2026-04-25T09:51:35.538Z</time></trkpt><trkpt lat="43.639725" lon="12.6378917"><ele>438.6</ele><time>2026-04-25T09:51:36.537Z</time></trkpt><trkpt lat="43.6396317" lon="12.6379767"><ele>442.8</ele><time>2026-04-25T09:51:37.538Z</time></trkpt><trkpt lat="43.63952" lon="12.638105"><ele>447.0</ele><time>2026-04-25T09:51:38.538Z</time></trkpt><trkpt lat="43.639395" lon="12.638265"><ele>447.0</ele><time>2026-04-25T09:51:39.538Z</time></trkpt><trkpt lat="43.63928" lon="12.6384083"><ele>447.0</ele><time>2026-04-25T09:51:40.538Z</time></trkpt><trkpt lat="43.6391967" lon="12.6385333"><ele>447.0</ele><time>2026-04-25T09:51:41.538Z</time></trkpt><trkpt lat="43.6391" lon="12.6386267"><ele>447.0</ele><time>2026-04-25T09:51:42.538Z</time></trkpt><trkpt lat="43.638965" lon="12.6386983"><ele>451.5</ele><time>2026-04-25T09:51:43.538Z</time></trkpt><trkpt lat="43.6388133" lon="12.638755"><ele>456.0</ele><time>2026-04-25T09:51:44.537Z</time></trkpt><trkpt lat="43.6386767" lon="12.6387867"><ele>460.5</ele><time>2026-04-25T09:51:45.538Z</time></trkpt><trkpt lat="43.6385567" lon="12.6388333"><ele>465.0</ele><time>2026-04-25T09:51:46.538Z</time></trkpt><trkpt lat="43.63842" lon="12.6388883"><ele>465.0</ele><time>2026-04-25T09:51:47.538Z</time></trkpt><trkpt lat="43.6382633" lon="12.6389767"><ele>465.0</ele><time>2026-04-25T09:51:48.537Z</time></trkpt><trkpt lat="43.6381333" lon="12.6390867"><ele>465.0</ele><time>2026-04-25T09:51:49.538Z</time></trkpt><trkpt lat="43.63801" lon="12.639205"><ele>465.0</ele><time>2026-04-25T09:51:50.538Z</time></trkpt><trkpt lat="43.6379067" lon="12.6393767"><ele>465.0</ele><time>2026-04-25T09:51:51.538Z</time></trkpt><trkpt lat="43.6377967" lon="12.63959"><ele>465.0</ele><time>2026-04-25T09:51:52.538Z</time></trkpt><trkpt lat="43.6376833" lon="12.6397833"><ele>464.75</ele><time>2026-04-25T09:51:53.537Z</time></trkpt><trkpt lat="43.63758" lon="12.6399517"><ele>464.5</ele><time>2026-04-25T09:51:54.538Z</time></trkpt><trkpt lat="43.6374767" lon="12.6401"><ele>464.25</ele><time>2026-04-25T09:51:55.538Z</time></trkpt><trkpt lat="43.6373733" lon="12.6402317"><ele>464.0</ele><time>2026-04-25T09:51:56.538Z</time></trkpt><trkpt lat="43.6372717" lon="12.6403283"><ele>464.66666666666663</ele><time>2026-04-25T09:51:57.538Z</time></trkpt><trkpt lat="43.6371567" lon="12.6404117"><ele>465.33333333333337</ele><time>2026-04-25T09:51:58.537Z</time></trkpt><trkpt lat="43.636995" lon="12.6404817"><ele>466.0</ele><time>2026-04-25T09:51:59.538Z</time></trkpt><trkpt lat="43.6368233" lon="12.640525"><ele>468.5</ele><time>2026-04-25T09:52:00.538Z</time></trkpt><trkpt lat="43.63666" lon="12.64056"><ele>471.0</ele><time>2026-04-25T09:52:01.537Z</time></trkpt><trkpt lat="43.6365267" lon="12.640585"><ele>473.5</ele><time>2026-04-25T09:52:02.538Z</time></trkpt><trkpt lat="43.6363833" lon="12.64064"><ele>476.0</ele><time>2026-04-25T09:52:03.538Z</time></trkpt><trkpt lat="43.6362517" lon="12.6407333"><ele>474.3333333333333</ele><time>2026-04-25T09:52:04.538Z</time></trkpt><trkpt lat="43.6361217" lon="12.64084"><ele>472.66666666666663</ele><time>2026-04-25T09:52:05.538Z</time></trkpt><trkpt lat="43.6359783" lon="12.640975"><ele>471.0</ele><time>2026-04-25T09:52:06.538Z</time></trkpt><trkpt lat="43.6358533" lon="12.6411067"><ele>474.25</ele><time>2026-04-25T09:52:07.538Z</time></trkpt><trkpt lat="43.635745" lon="12.64121"><ele>477.5</ele><time>2026-04-25T09:52:08.538Z</time></trkpt><trkpt lat="43.6356433" lon="12.6413033"><ele>480.75</ele><time>2026-04-25T09:52:09.538Z</time></trkpt><trkpt lat="43.6355317" lon="12.6413717"><ele>484.0</ele><time>2026-04-25T09:52:10.538Z</time></trkpt><trkpt lat="43.6353933" lon="12.641435"><ele>485.25</ele><time>2026-04-25T09:52:11.537Z</time></trkpt><trkpt lat="43.6352317" lon="12.6414783"><ele>486.5</ele><time>2026-04-25T09:52:12.538Z</time></trkpt><trkpt lat="43.635085" lon="12.6415167"><ele>487.75</ele><time>2026-04-25T09:52:13.538Z</time></trkpt><trkpt lat="43.63496" lon="12.6415583"><ele>489.0</ele><time>2026-04-25T09:52:14.538Z</time></trkpt><trkpt lat="43.634845" lon="12.641605"><ele>489.0</ele><time>2026-04-25T09:52:15.538Z</time></trkpt><trkpt lat="43.6347533" lon="12.6416633"><ele>489.0</ele><time>2026-04-25T09:52:16.538Z</time></trkpt><trkpt lat="43.634675" lon="12.641755"><ele>489.0</ele><time>2026-04-25T09:52:17.538Z</time></trkpt><trkpt lat="43.6346133" lon="12.6418617"><ele>489.0</ele><time>2026-04-25T09:52:18.538Z</time></trkpt><trkpt lat="43.6345667" lon="12.6420067"><ele>489.0</ele><time>2026-04-25T09:52:19.538Z</time></trkpt><trkpt lat="43.6345467" lon="12.64217"><ele>489.33333333333337</ele><time>2026-04-25T09:52:20.538Z</time></trkpt><trkpt lat="43.6345233" lon="12.64239"><ele>489.6666666666667</ele><time>2026-04-25T09:52:21.537Z</time></trkpt><trkpt lat="43.6345" lon="12.64261"><ele>490.0</ele><time>2026-04-25T09:52:22.538Z</time></trkpt><trkpt lat="43.6344817" lon="12.6428017"><ele>493.25</ele><time>2026-04-25T09:52:23.538Z</time></trkpt><trkpt lat="43.6344617" lon="12.6429817"><ele>496.5</ele><time>2026-04-25T09:52:24.538Z</time></trkpt><trkpt lat="43.634435" lon="12.6431567"><ele>499.75</ele><time>2026-04-25T09:52:25.538Z</time></trkpt><trkpt lat="43.634395" lon="12.64334"><ele>503.0</ele><time>2026-04-25T09:52:26.537Z</time></trkpt><trkpt lat="43.6343367" lon="12.6435417"><ele>502.3333333333333</ele><time>2026-04-25T09:52:27.537Z</time></trkpt><trkpt lat="43.6342683" lon="12.6437483"><ele>501.66666666666663</ele><time>2026-04-25T09:52:28.537Z</time></trkpt><trkpt lat="43.6341833" lon="12.6439567"><ele>501.0</ele><time>2026-04-25T09:52:29.538Z</time></trkpt><trkpt lat="43.6340883" lon="12.6441583"><ele>501.0</ele><time>2026-04-25T09:52:30.538Z</time></trkpt><trkpt lat="43.633995" lon="12.6443467"><ele>501.0</ele><time>2026-04-25T09:52:31.537Z</time></trkpt><trkpt lat="43.6339217" lon="12.64452"><ele>501.0</ele><time>2026-04-25T09:52:32.538Z</time></trkpt><trkpt lat="43.6338533" lon="12.6446817"><ele>501.0</ele><time>2026-04-25T09:52:33.538Z</time></trkpt><trkpt lat="43.6337967" lon="12.6448583"><ele>501.0</ele><time>2026-04-25T09:52:34.537Z</time></trkpt><trkpt lat="43.6337667" lon="12.64508"><ele>501.0</ele><time>2026-04-25T09:52:35.538Z</time></trkpt><trkpt lat="43.6337333" lon="12.645315"><ele>501.0</ele><time>2026-04-25T09:52:36.538Z</time></trkpt><trkpt lat="43.633705" lon="12.6455267"><ele>501.0</ele><time>2026-04-25T09:52:37.538Z</time></trkpt><trkpt lat="43.6337" lon="12.6456983"><ele>501.0</ele><time>2026-04-25T09:52:38.537Z</time></trkpt><trkpt lat="43.6337167" lon="12.64585"><ele>501.0</ele><time>2026-04-25T09:52:39.538Z</time></trkpt><trkpt lat="43.6337811" lon="12.6460022"><ele>501.0</ele><time>2026-04-25T09:52:40.538Z</time></trkpt><trkpt lat="43.633861" lon="12.6461783"><ele>501.75</ele><time>2026-04-25T09:52:41.538Z</time></trkpt><trkpt lat="43.6339764" lon="12.6463622"><ele>502.5</ele><time>2026-04-25T09:52:42.538Z</time></trkpt><trkpt lat="43.6340644" lon="12.6465205"><ele>503.25</ele><time>2026-04-25T09:52:43.538Z</time></trkpt><trkpt lat="43.6341226" lon="12.6466702"><ele>504.0</ele><time>2026-04-25T09:52:44.538Z</time></trkpt><trkpt lat="43.6341599" lon="12.6468357"><ele>504.0</ele><time>2026-04-25T09:52:45.538Z</time></trkpt><trkpt lat="43.6341756" lon="12.647048"><ele>504.0</ele><time>2026-04-25T09:52:46.538Z</time></trkpt><trkpt lat="43.6341747" lon="12.6473237"><ele>504.0</ele><time>2026-04-25T09:52:47.537Z</time></trkpt><trkpt lat="43.6341683" lon="12.6476364"><ele>502.5</ele><time>2026-04-25T09:52:48.538Z</time></trkpt><trkpt lat="43.634187" lon="12.6479622"><ele>501.0</ele><time>2026-04-25T09:52:49.538Z</time></trkpt><trkpt lat="43.6342032" lon="12.6482772"><ele>501.0</ele><time>2026-04-25T09:52:50.538Z</time></trkpt><trkpt lat="43.6342148" lon="12.6485721"><ele>501.0</ele><time>2026-04-25T09:52:51.537Z</time></trkpt><trkpt lat="43.6342217" lon="12.6488437"><ele>501.0</ele><time>2026-04-25T09:52:52.538Z</time></trkpt><trkpt lat="43.6342205" lon="12.6491019"><ele>501.0</ele><time>2026-04-25T09:52:53.538Z</time></trkpt><trkpt lat="43.6342222" lon="12.6493634"><ele>501.0</ele><time>2026-04-25T09:52:54.538Z</time></trkpt><trkpt lat="43.6342421" lon="12.6496208"><ele>501.0</ele><time>2026-04-25T09:52:55.537Z</time></trkpt><trkpt lat="43.6342826" lon="12.6498948"><ele>502.5</ele><time>2026-04-25T09:52:56.537Z</time></trkpt><trkpt lat="43.6343478" lon="12.6501979"><ele>504.0</ele><time>2026-04-25T09:52:57.538Z</time></trkpt><trkpt lat="43.6344174" lon="12.6505315"><ele>508.5</ele><time>2026-04-25T09:52:58.538Z</time></trkpt><trkpt lat="43.6344815" lon="12.6508583"><ele>513.0</ele><time>2026-04-25T09:52:59.538Z</time></trkpt><trkpt lat="43.6345319" lon="12.6511609"><ele>513.0</ele><time>2026-04-25T09:53:00.537Z</time></trkpt><trkpt lat="43.6345608" lon="12.6514387"><ele>513.0</ele><time>2026-04-25T09:53:01.538Z</time></trkpt><trkpt lat="43.6346011" lon="12.6517023"><ele>513.0</ele><time>2026-04-25T09:53:02.537Z</time></trkpt><trkpt lat="43.634657" lon="12.6519415"><ele>511.0</ele><time>2026-04-25T09:53:03.538Z</time></trkpt><trkpt lat="43.6347201" lon="12.6521472"><ele>509.0</ele><time>2026-04-25T09:53:04.538Z</time></trkpt><trkpt lat="43.6347867" lon="12.6523631"><ele>507.0</ele><time>2026-04-25T09:53:05.537Z</time></trkpt><trkpt lat="43.6348526" lon="12.6526053"><ele>507.33333333333337</ele><time>2026-04-25T09:53:06.538Z</time></trkpt><trkpt lat="43.6349068" lon="12.6528634"><ele>507.6666666666667</ele><time>2026-04-25T09:53:07.538Z</time></trkpt><trkpt lat="43.6349384" lon="12.6530948"><ele>508.0</ele><time>2026-04-25T09:53:08.538Z</time></trkpt><trkpt lat="43.6349664" lon="12.6532851"><ele>508.0</ele><time>2026-04-25T09:53:09.538Z</time></trkpt><trkpt lat="43.6349814" lon="12.6534507"><ele>508.0</ele><time>2026-04-25T09:53:10.538Z</time></trkpt><trkpt lat="43.6349698" lon="12.6536035"><ele>508.0</ele><time>2026-04-25T09:53:11.538Z</time></trkpt><trkpt lat="43.6349388" lon="12.6537409"><ele>508.0</ele><time>2026-04-25T09:53:12.538Z</time></trkpt><trkpt lat="43.6348729" lon="12.6538836"><ele>510.25</ele><time>2026-04-25T09:53:13.538Z</time></trkpt><trkpt lat="43.6347802" lon="12.6540355"><ele>512.5</ele><time>2026-04-25T09:53:14.538Z</time></trkpt><trkpt lat="43.6346479" lon="12.654164"><ele>514.75</ele><time>2026-04-25T09:53:15.538Z</time></trkpt><trkpt lat="43.6345546" lon="12.654261"><ele>517.0</ele><time>2026-04-25T09:53:16.537Z</time></trkpt><trkpt lat="43.6344883" lon="12.65435"><ele>515.2</ele><time>2026-04-25T09:53:17.538Z</time></trkpt><trkpt lat="43.6344551" lon="12.6544471"><ele>513.4000000000001</ele><time>2026-04-25T09:53:18.537Z</time></trkpt><trkpt lat="43.6344468" lon="12.6545494"><ele>511.59999999999997</ele><time>2026-04-25T09:53:19.537Z</time></trkpt><trkpt lat="43.6344002" lon="12.6546731"><ele>509.79999999999995</ele><time>2026-04-25T09:53:21.538Z</time></trkpt><trkpt lat="43.6342631" lon="12.6547208"><ele>508.0</ele><time>2026-04-25T09:53:23.538Z</time></trkpt><trkpt lat="43.6341372" lon="12.654741"><ele>507.25</ele><time>2026-04-25T09:53:24.538Z</time></trkpt><trkpt lat="43.6339788" lon="12.6547541"><ele>506.5</ele><time>2026-04-25T09:53:25.537Z</time></trkpt><trkpt lat="43.6338462" lon="12.6547667"><ele>505.75</ele><time>2026-04-25T09:53:26.537Z</time></trkpt><trkpt lat="43.6337442" lon="12.6547784"><ele>505.0</ele><time>2026-04-25T09:53:27.538Z</time></trkpt><trkpt lat="43.6336533" lon="12.6547872"><ele>503.85714285714283</ele><time>2026-04-25T09:53:28.538Z</time></trkpt><trkpt lat="43.6335749" lon="12.6547759"><ele>502.71428571428567</ele><time>2026-04-25T09:53:29.538Z</time></trkpt><trkpt lat="43.6335095" lon="12.654731"><ele>501.57142857142856</ele><time>2026-04-25T09:53:30.538Z</time></trkpt><trkpt lat="43.6334678" lon="12.6546546"><ele>500.42857142857144</ele><time>2026-04-25T09:53:31.537Z</time></trkpt><trkpt lat="43.6334533" lon="12.6545667"><ele>499.2857142857143</ele><time>2026-04-25T09:53:32.538Z</time></trkpt><trkpt lat="43.6334724" lon="12.6544685"><ele>498.1428571428571</ele><time>2026-04-25T09:53:33.538Z</time></trkpt><trkpt lat="43.6335215" lon="12.6543706"><ele>497.0</ele><time>2026-04-25T09:53:34.538Z</time></trkpt><trkpt lat="43.6335935" lon="12.6542722"><ele>499.75</ele><time>2026-04-25T09:53:35.538Z</time></trkpt><trkpt lat="43.6336781" lon="12.6541849"><ele>502.5</ele><time>2026-04-25T09:53:36.538Z</time></trkpt><trkpt lat="43.6337761" lon="12.6541009"><ele>505.25</ele><time>2026-04-25T09:53:37.538Z</time></trkpt><trkpt lat="43.6338993" lon="12.6540128"><ele>508.0</ele><time>2026-04-25T09:53:38.538Z</time></trkpt><trkpt lat="43.6340139" lon="12.6539465"><ele>508.0</ele><time>2026-04-25T09:53:39.538Z</time></trkpt><trkpt lat="43.6341089" lon="12.653893"><ele>507.99999999999994</ele><time>2026-04-25T09:53:40.538Z</time></trkpt><trkpt lat="43.6341921" lon="12.6538268"><ele>507.99999999999994</ele><time>2026-04-25T09:53:41.538Z</time></trkpt><trkpt lat="43.6342571" lon="12.6537461"><ele>508.0</ele><time>2026-04-25T09:53:42.537Z</time></trkpt><trkpt lat="43.6343032" lon="12.6536564"><ele>508.0</ele><time>2026-04-25T09:53:43.538Z</time></trkpt><trkpt lat="43.6343416" lon="12.6535533"><ele>506.0</ele><time>2026-04-25T09:53:44.537Z</time></trkpt><trkpt lat="43.6343661" lon="12.6534506"><ele>503.99999999999994</ele><time>2026-04-25T09:53:45.538Z</time></trkpt><trkpt lat="43.6343783" lon="12.6533383"><ele>501.99999999999994</ele><time>2026-04-25T09:53:46.538Z</time></trkpt><trkpt lat="43.6343567" lon="12.6532233"><ele>500.0</ele><time>2026-04-25T09:53:47.538Z</time></trkpt><trkpt lat="43.6342833" lon="12.653105"><ele>498.0</ele><time>2026-04-25T09:53:48.537Z</time></trkpt><trkpt lat="43.63418" lon="12.6529733"><ele>498.0</ele><time>2026-04-25T09:53:49.538Z</time></trkpt><trkpt lat="43.6340917" lon="12.652825"><ele>498.0</ele><time>2026-04-25T09:53:50.538Z</time></trkpt><trkpt lat="43.6340217" lon="12.6526667"><ele>498.0</ele><time>2026-04-25T09:53:51.538Z</time></trkpt><trkpt lat="43.6339583" lon="12.6525233"><ele>498.0</ele><time>2026-04-25T09:53:52.538Z</time></trkpt><trkpt lat="43.6338883" lon="12.6523867"><ele>498.3333333333333</ele><time>2026-04-25T09:53:53.537Z</time></trkpt><trkpt lat="43.633825" lon="12.652265"><ele>498.66666666666663</ele><time>2026-04-25T09:53:54.538Z</time></trkpt><trkpt lat="43.6337733" lon="12.65215"><ele>499.0</ele><time>2026-04-25T09:53:55.537Z</time></trkpt><trkpt lat="43.63374" lon="12.6520583"><ele>499.3333333333333</ele><time>2026-04-25T09:53:56.537Z</time></trkpt><trkpt lat="43.6337083" lon="12.6519767"><ele>499.66666666666663</ele><time>2026-04-25T09:53:57.537Z</time></trkpt><trkpt lat="43.6336383" lon="12.651905"><ele>500.0</ele><time>2026-04-25T09:53:59.537Z</time></trkpt><trkpt lat="43.6335683" lon="12.65198"><ele>496.0</ele><time>2026-04-25T09:54:01.538Z</time></trkpt><trkpt lat="43.6335517" lon="12.6520683"><ele>492.0</ele><time>2026-04-25T09:54:02.537Z</time></trkpt><trkpt lat="43.633545" lon="12.65217"><ele>488.0</ele><time>2026-04-25T09:54:03.537Z</time></trkpt><trkpt lat="43.6335383" lon="12.65231"><ele>484.0</ele><time>2026-04-25T09:54:04.538Z</time></trkpt><trkpt lat="43.6335317" lon="12.6524717"><ele>480.0</ele><time>2026-04-25T09:54:05.537Z</time></trkpt><trkpt lat="43.6335" lon="12.6526283"><ele>481.75</ele><time>2026-04-25T09:54:06.537Z</time></trkpt><trkpt lat="43.63344" lon="12.6528"><ele>483.5</ele><time>2026-04-25T09:54:07.538Z</time></trkpt><trkpt lat="43.6333567" lon="12.65298"><ele>485.25</ele><time>2026-04-25T09:54:08.538Z</time></trkpt><trkpt lat="43.633265" lon="12.6531467"><ele>487.0</ele><time>2026-04-25T09:54:09.537Z</time></trkpt><trkpt lat="43.63317" lon="12.6532817"><ele>487.0</ele><time>2026-04-25T09:54:10.537Z</time></trkpt><trkpt lat="43.63306" lon="12.6533967"><ele>487.0</ele><time>2026-04-25T09:54:11.537Z</time></trkpt><trkpt lat="43.6329283" lon="12.6535017"><ele>487.0</ele><time>2026-04-25T09:54:12.538Z</time></trkpt><trkpt lat="43.6327917" lon="12.6536017"><ele>487.0</ele><time>2026-04-25T09:54:13.537Z</time></trkpt><trkpt lat="43.63267" lon="12.6536983"><ele>485.75</ele><time>2026-04-25T09:54:14.538Z</time></trkpt><trkpt lat="43.6325517" lon="12.6537867"><ele>484.5</ele><time>2026-04-25T09:54:15.538Z</time></trkpt><trkpt lat="43.63243" lon="12.6538667"><ele>483.25</ele><time>2026-04-25T09:54:16.537Z</time></trkpt><trkpt lat="43.6323183" lon="12.6539267"><ele>482.0</ele><time>2026-04-25T09:54:17.537Z</time></trkpt><trkpt lat="43.6322" lon="12.653955"><ele>482.0</ele><time>2026-04-25T09:54:18.538Z</time></trkpt><trkpt lat="43.6320633" lon="12.6539583"><ele>482.0</ele><time>2026-04-25T09:54:19.538Z</time></trkpt><trkpt lat="43.63191" lon="12.6539267"><ele>482.0</ele><time>2026-04-25T09:54:20.538Z</time></trkpt><trkpt lat="43.6317633" lon="12.6538767"><ele>482.0</ele><time>2026-04-25T09:54:21.538Z</time></trkpt><trkpt lat="43.63163" lon="12.6538167"><ele>479.0</ele><time>2026-04-25T09:54:22.538Z</time></trkpt><trkpt lat="43.6315033" lon="12.65375"><ele>476.0</ele><time>2026-04-25T09:54:23.538Z</time></trkpt><trkpt lat="43.63139" lon="12.6536967"><ele>473.0</ele><time>2026-04-25T09:54:24.537Z</time></trkpt><trkpt lat="43.6312833" lon="12.6536533"><ele>470.0</ele><time>2026-04-25T09:54:25.537Z</time></trkpt><trkpt lat="43.631175" lon="12.6536367"><ele>470.75</ele><time>2026-04-25T09:54:26.538Z</time></trkpt><trkpt lat="43.6310517" lon="12.6536467"><ele>471.5</ele><time>2026-04-25T09:54:27.537Z</time></trkpt><trkpt lat="43.6309083" lon="12.653665"><ele>472.25</ele><time>2026-04-25T09:54:28.538Z</time></trkpt><trkpt lat="43.6307667" lon="12.653685"><ele>473.0</ele><time>2026-04-25T09:54:29.538Z</time></trkpt><trkpt lat="43.63064" lon="12.6537117"><ele>473.0</ele><time>2026-04-25T09:54:30.538Z</time></trkpt><trkpt lat="43.6305267" lon="12.6537417"><ele>473.0</ele><time>2026-04-25T09:54:31.538Z</time></trkpt><trkpt lat="43.63041" lon="12.6537717"><ele>473.0</ele><time>2026-04-25T09:54:32.538Z</time></trkpt><trkpt lat="43.6302733" lon="12.653795"><ele>473.0</ele><time>2026-04-25T09:54:33.538Z</time></trkpt><trkpt lat="43.6301283" lon="12.6538167"><ele>475.0</ele><time>2026-04-25T09:54:34.537Z</time></trkpt><trkpt lat="43.6299883" lon="12.6538217"><ele>477.0</ele><time>2026-04-25T09:54:35.538Z</time></trkpt><trkpt lat="43.629855" lon="12.6538217"><ele>479.0</ele><time>2026-04-25T09:54:36.538Z</time></trkpt><trkpt lat="43.629725" lon="12.653825"><ele>481.0</ele><time>2026-04-25T09:54:37.537Z</time></trkpt><trkpt lat="43.6296133" lon="12.6538267"><ele>481.00000000000006</ele><time>2026-04-25T09:54:38.538Z</time></trkpt><trkpt lat="43.6295133" lon="12.6538217"><ele>481.0</ele><time>2026-04-25T09:54:39.537Z</time></trkpt><trkpt lat="43.6294267" lon="12.6538167"><ele>481.0</ele><time>2026-04-25T09:54:40.538Z</time></trkpt><trkpt lat="43.629355" lon="12.653825"><ele>481.0</ele><time>2026-04-25T09:54:41.538Z</time></trkpt><trkpt lat="43.6292583" lon="12.6539083"><ele>481.00000000000006</ele><time>2026-04-25T09:54:43.538Z</time></trkpt><trkpt lat="43.62923" lon="12.6540017"><ele>481.0</ele><time>2026-04-25T09:54:44.538Z</time></trkpt><trkpt lat="43.62922" lon="12.6541183"><ele>478.0</ele><time>2026-04-25T09:54:45.538Z</time></trkpt><trkpt lat="43.6292233" lon="12.65427"><ele>475.0</ele><time>2026-04-25T09:54:46.538Z</time></trkpt><trkpt lat="43.6292367" lon="12.654435"><ele>472.0</ele><time>2026-04-25T09:54:47.537Z</time></trkpt><trkpt lat="43.629235" lon="12.6545933"><ele>469.0</ele><time>2026-04-25T09:54:48.538Z</time></trkpt><trkpt lat="43.6292133" lon="12.654745"><ele>468.75</ele><time>2026-04-25T09:54:49.538Z</time></trkpt><trkpt lat="43.62918" lon="12.6549133"><ele>468.5</ele><time>2026-04-25T09:54:50.538Z</time></trkpt><trkpt lat="43.629135" lon="12.655095"><ele>468.25</ele><time>2026-04-25T09:54:51.538Z</time></trkpt><trkpt lat="43.6290783" lon="12.6552917"><ele>468.0</ele><time>2026-04-25T09:54:52.538Z</time></trkpt><trkpt lat="43.6290183" lon="12.6554967"><ele>467.33333333333337</ele><time>2026-04-25T09:54:53.538Z</time></trkpt><trkpt lat="43.62894" lon="12.6557133"><ele>466.6666666666667</ele><time>2026-04-25T09:54:54.538Z</time></trkpt><trkpt lat="43.6288583" lon="12.6559383"><ele>466.0</ele><time>2026-04-25T09:54:55.538Z</time></trkpt><trkpt lat="43.6287833" lon="12.6561483"><ele>465.0</ele><time>2026-04-25T09:54:56.538Z</time></trkpt><trkpt lat="43.6287183" lon="12.6563317"><ele>464.0</ele><time>2026-04-25T09:54:57.537Z</time></trkpt><trkpt lat="43.6286583" lon="12.6565017"><ele>463.0</ele><time>2026-04-25T09:54:58.537Z</time></trkpt><trkpt lat="43.6285967" lon="12.656665"><ele>462.0</ele><time>2026-04-25T09:54:59.538Z</time></trkpt><trkpt lat="43.6285267" lon="12.6568383"><ele>462.33333333333337</ele><time>2026-04-25T09:55:00.538Z</time></trkpt><trkpt lat="43.6284333" lon="12.65704"><ele>462.6666666666667</ele><time>2026-04-25T09:55:01.538Z</time></trkpt><trkpt lat="43.628325" lon="12.657255"><ele>463.0</ele><time>2026-04-25T09:55:02.538Z</time></trkpt><trkpt lat="43.6282133" lon="12.6574617"><ele>463.0</ele><time>2026-04-25T09:55:03.538Z</time></trkpt><trkpt lat="43.6281117" lon="12.6576483"><ele>463.0</ele><time>2026-04-25T09:55:04.538Z</time></trkpt><trkpt lat="43.62802" lon="12.6578267"><ele>463.0</ele><time>2026-04-25T09:55:05.538Z</time></trkpt><trkpt lat="43.6279367" lon="12.6579833"><ele>460.75</ele><time>2026-04-25T09:55:06.537Z</time></trkpt><trkpt lat="43.6278617" lon="12.6581267"><ele>458.5</ele><time>2026-04-25T09:55:07.537Z</time></trkpt><trkpt lat="43.6277883" lon="12.6582583"><ele>456.25</ele><time>2026-04-25T09:55:08.538Z</time></trkpt><trkpt lat="43.6276983" lon="12.6583817"><ele>454.0</ele><time>2026-04-25T09:55:09.538Z</time></trkpt><trkpt lat="43.62758" lon="12.6585133"><ele>456.0</ele><time>2026-04-25T09:55:10.538Z</time></trkpt><trkpt lat="43.627445" lon="12.6586717"><ele>458.0</ele><time>2026-04-25T09:55:11.537Z</time></trkpt><trkpt lat="43.6273033" lon="12.6588367"><ele>460.0</ele><time>2026-04-25T09:55:12.538Z</time></trkpt><trkpt lat="43.627175" lon="12.6589867"><ele>460.0</ele><time>2026-04-25T09:55:13.538Z</time></trkpt><trkpt lat="43.6270533" lon="12.65912"><ele>460.0</ele><time>2026-04-25T09:55:14.537Z</time></trkpt><trkpt lat="43.6269217" lon="12.6592417"><ele>460.0</ele><time>2026-04-25T09:55:15.537Z</time></trkpt><trkpt lat="43.62677" lon="12.6593667"><ele>462.33333333333337</ele><time>2026-04-25T09:55:16.538Z</time></trkpt><trkpt lat="43.6266067" lon="12.6594967"><ele>464.66666666666663</ele><time>2026-04-25T09:55:17.537Z</time></trkpt><trkpt lat="43.6264567" lon="12.6596183"><ele>467.0</ele><time>2026-04-25T09:55:18.538Z</time></trkpt><trkpt lat="43.6263217" lon="12.659735"><ele>467.0</ele><time>2026-04-25T09:55:19.538Z</time></trkpt><trkpt lat="43.6261933" lon="12.6598467"><ele>467.0</ele><time>2026-04-25T09:55:20.538Z</time></trkpt><trkpt lat="43.62607" lon="12.6599433"><ele>467.0</ele><time>2026-04-25T09:55:21.538Z</time></trkpt><trkpt lat="43.6259483" lon="12.6600233"><ele>467.0</ele><time>2026-04-25T09:55:22.538Z</time></trkpt><trkpt lat="43.6258533" lon="12.6600567"><ele>466.25</ele><time>2026-04-25T09:55:23.537Z</time></trkpt><trkpt lat="43.6257483" lon="12.6601083"><ele>465.5</ele><time>2026-04-25T09:55:24.537Z</time></trkpt><trkpt lat="43.6256433" lon="12.660175"><ele>464.75</ele><time>2026-04-25T09:55:25.538Z</time></trkpt><trkpt lat="43.62552" lon="12.6602783"><ele>464.0</ele><time>2026-04-25T09:55:26.538Z</time></trkpt><trkpt lat="43.6253883" lon="12.6604183"><ele>461.75</ele><time>2026-04-25T09:55:27.538Z</time></trkpt><trkpt lat="43.62526" lon="12.6605567"><ele>459.5</ele><time>2026-04-25T09:55:28.537Z</time></trkpt><trkpt lat="43.625162" lon="12.6606804"><ele>457.25</ele><time>2026-04-25T09:55:29.537Z</time></trkpt><trkpt lat="43.6250846" lon="12.6607877"><ele>455.0</ele><time>2026-04-25T09:55:30.538Z</time></trkpt><trkpt lat="43.6250276" lon="12.6608846"><ele>455.0</ele><time>2026-04-25T09:55:31.538Z</time></trkpt><trkpt lat="43.6249913" lon="12.6609699"><ele>455.0</ele><time>2026-04-25T09:55:32.538Z</time></trkpt><trkpt lat="43.6249929" lon="12.6611082"><ele>455.0</ele><time>2026-04-25T09:55:34.538Z</time></trkpt><trkpt lat="43.6250508" lon="12.6611649"><ele>455.0</ele><time>2026-04-25T09:55:35.537Z</time></trkpt><trkpt lat="43.625145" lon="12.6612293"><ele>455.0</ele><time>2026-04-25T09:55:36.538Z</time></trkpt><trkpt lat="43.6252796" lon="12.6613066"><ele>453.3333333333333</ele><time>2026-04-25T09:55:37.538Z</time></trkpt><trkpt lat="43.6254456" lon="12.6614034"><ele>451.66666666666663</ele><time>2026-04-25T09:55:38.538Z</time></trkpt><trkpt lat="43.6256291" lon="12.6615264"><ele>450.0</ele><time>2026-04-25T09:55:39.537Z</time></trkpt><trkpt lat="43.6258142" lon="12.6616542"><ele>450.0</ele><time>2026-04-25T09:55:40.538Z</time></trkpt><trkpt lat="43.6259831" lon="12.6617661"><ele>450.0</ele><time>2026-04-25T09:55:41.538Z</time></trkpt><trkpt lat="43.6261391" lon="12.661864"><ele>450.0</ele><time>2026-04-25T09:55:42.538Z</time></trkpt><trkpt lat="43.6262784" lon="12.6619583"><ele>446.5</ele><time>2026-04-25T09:55:43.538Z</time></trkpt><trkpt lat="43.6264031" lon="12.662047"><ele>443.0</ele><time>2026-04-25T09:55:44.538Z</time></trkpt><trkpt lat="43.6265117" lon="12.6621281"><ele>439.5</ele><time>2026-04-25T09:55:45.538Z</time></trkpt><trkpt lat="43.626615" lon="12.6621922"><ele>436.0</ele><time>2026-04-25T09:55:46.538Z</time></trkpt><trkpt lat="43.6267205" lon="12.6622297"><ele>436.0</ele><time>2026-04-25T09:55:47.538Z</time></trkpt><trkpt lat="43.6268214" lon="12.6622445"><ele>436.0</ele><time>2026-04-25T09:55:48.538Z</time></trkpt><trkpt lat="43.6269281" lon="12.6622214"><ele>436.0</ele><time>2026-04-25T09:55:49.538Z</time></trkpt><trkpt lat="43.6270256" lon="12.6621685"><ele>436.0</ele><time>2026-04-25T09:55:50.538Z</time></trkpt><trkpt lat="43.6271174" lon="12.662092"><ele>436.0</ele><time>2026-04-25T09:55:51.538Z</time></trkpt><trkpt lat="43.6271983" lon="12.6619836"><ele>434.0</ele><time>2026-04-25T09:55:52.537Z</time></trkpt><trkpt lat="43.6272913" lon="12.6618129"><ele>432.0</ele><time>2026-04-25T09:55:53.538Z</time></trkpt><trkpt lat="43.6273883" lon="12.6616193"><ele>430.0</ele><time>2026-04-25T09:55:54.538Z</time></trkpt><trkpt lat="43.6274872" lon="12.6614314"><ele>430.0</ele><time>2026-04-25T09:55:55.537Z</time></trkpt><trkpt lat="43.6275852" lon="12.661268"><ele>430.0</ele><time>2026-04-25T09:55:56.538Z</time></trkpt><trkpt lat="43.6276741" lon="12.6611347"><ele>430.0</ele><time>2026-04-25T09:55:57.538Z</time></trkpt><trkpt lat="43.6277438" lon="12.6610256"><ele>430.0</ele><time>2026-04-25T09:55:58.537Z</time></trkpt><trkpt lat="43.6277931" lon="12.6609482"><ele>426.2</ele><time>2026-04-25T09:55:59.538Z</time></trkpt><trkpt lat="43.6278985" lon="12.660919"><ele>422.4</ele><time>2026-04-25T09:56:01.537Z</time></trkpt><trkpt lat="43.6279383" lon="12.6609867"><ele>418.6</ele><time>2026-04-25T09:56:02.538Z</time></trkpt><trkpt lat="43.6279217" lon="12.66118"><ele>414.8</ele><time>2026-04-25T09:56:04.537Z</time></trkpt><trkpt lat="43.6278717" lon="12.661295"><ele>411.0</ele><time>2026-04-25T09:56:05.537Z</time></trkpt><trkpt lat="43.6278167" lon="12.661425"><ele>411.8</ele><time>2026-04-25T09:56:06.538Z</time></trkpt><trkpt lat="43.6277717" lon="12.6615767"><ele>412.6</ele><time>2026-04-25T09:56:07.538Z</time></trkpt><trkpt lat="43.6277517" lon="12.661735"><ele>413.4</ele><time>2026-04-25T09:56:08.538Z</time></trkpt><trkpt lat="43.6277417" lon="12.661885"><ele>414.2</ele><time>2026-04-25T09:56:09.538Z</time></trkpt><trkpt lat="43.627725" lon="12.6620183"><ele>415.0</ele><time>2026-04-25T09:56:10.538Z</time></trkpt><trkpt lat="43.627695" lon="12.6621183"><ele>415.0</ele><time>2026-04-25T09:56:11.538Z</time></trkpt><trkpt lat="43.62763" lon="12.6622"><ele>415.0</ele><time>2026-04-25T09:56:12.538Z</time></trkpt><trkpt lat="43.6275367" lon="12.6622867"><ele>415.0</ele><time>2026-04-25T09:56:13.538Z</time></trkpt><trkpt lat="43.6274333" lon="12.6623817"><ele>415.0</ele><time>2026-04-25T09:56:14.537Z</time></trkpt><trkpt lat="43.6273417" lon="12.662485"><ele>415.0</ele><time>2026-04-25T09:56:15.538Z</time></trkpt><trkpt lat="43.62726" lon="12.662615"><ele>415.0</ele><time>2026-04-25T09:56:16.538Z</time></trkpt><trkpt lat="43.6271867" lon="12.6627717"><ele>415.0</ele><time>2026-04-25T09:56:17.538Z</time></trkpt><trkpt lat="43.62713" lon="12.6629267"><ele>415.0</ele><time>2026-04-25T09:56:18.538Z</time></trkpt><trkpt lat="43.6270633" lon="12.66306"><ele>415.0</ele><time>2026-04-25T09:56:19.538Z</time></trkpt><trkpt lat="43.62702" lon="12.6631833"><ele>413.4</ele><time>2026-04-25T09:56:20.537Z</time></trkpt><trkpt lat="43.6269667" lon="12.66327"><ele>411.8</ele><time>2026-04-25T09:56:21.538Z</time></trkpt><trkpt lat="43.6269017" lon="12.6633283"><ele>410.20000000000005</ele><time>2026-04-25T09:56:22.538Z</time></trkpt><trkpt lat="43.6268" lon="12.6633733"><ele>408.6</ele><time>2026-04-25T09:56:23.538Z</time></trkpt><trkpt lat="43.6266733" lon="12.663395"><ele>407.0</ele><time>2026-04-25T09:56:24.538Z</time></trkpt><trkpt lat="43.626535" lon="12.6634033"><ele>407.0</ele><time>2026-04-25T09:56:25.538Z</time></trkpt><trkpt lat="43.6264033" lon="12.6634117"><ele>407.0</ele><time>2026-04-25T09:56:26.537Z</time></trkpt><trkpt lat="43.6262917" lon="12.6634083"><ele>407.0</ele><time>2026-04-25T09:56:27.538Z</time></trkpt><trkpt lat="43.62618" lon="12.6633867"><ele>407.0</ele><time>2026-04-25T09:56:28.537Z</time></trkpt><trkpt lat="43.6260683" lon="12.6633417"><ele>406.20000000000005</ele><time>2026-04-25T09:56:29.538Z</time></trkpt><trkpt lat="43.6259883" lon="12.6632917"><ele>405.4</ele><time>2026-04-25T09:56:30.538Z</time></trkpt><trkpt lat="43.6259133" lon="12.6632567"><ele>404.6</ele><time>2026-04-25T09:56:31.537Z</time></trkpt><trkpt lat="43.6258267" lon="12.6632483"><ele>403.79999999999995</ele><time>2026-04-25T09:56:32.538Z</time></trkpt><trkpt lat="43.6257383" lon="12.663285"><ele>403.0</ele><time>2026-04-25T09:56:33.538Z</time></trkpt><trkpt lat="43.6256367" lon="12.6633617"><ele>403.0</ele><time>2026-04-25T09:56:34.538Z</time></trkpt><trkpt lat="43.62553" lon="12.663455"><ele>403.0</ele><time>2026-04-25T09:56:35.538Z</time></trkpt><trkpt lat="43.625435" lon="12.663555"><ele>403.0</ele><time>2026-04-25T09:56:36.538Z</time></trkpt><trkpt lat="43.6253567" lon="12.663665"><ele>403.0</ele><time>2026-04-25T09:56:37.538Z</time></trkpt><trkpt lat="43.6252867" lon="12.6637883"><ele>400.5</ele><time>2026-04-25T09:56:38.538Z</time></trkpt><trkpt lat="43.6252333" lon="12.6639133"><ele>398.0</ele><time>2026-04-25T09:56:39.538Z</time></trkpt><trkpt lat="43.625175" lon="12.6640433"><ele>395.5</ele><time>2026-04-25T09:56:40.538Z</time></trkpt><trkpt lat="43.6251083" lon="12.6641617"><ele>393.0</ele><time>2026-04-25T09:56:41.538Z</time></trkpt><trkpt lat="43.6250133" lon="12.66429"><ele>393.0</ele><time>2026-04-25T09:56:42.538Z</time></trkpt><trkpt lat="43.6249217" lon="12.6644417"><ele>393.0</ele><time>2026-04-25T09:56:43.537Z</time></trkpt><trkpt lat="43.6248433" lon="12.6645967"><ele>393.0</ele><time>2026-04-25T09:56:44.537Z</time></trkpt><trkpt lat="43.6247633" lon="12.6647717"><ele>393.0</ele><time>2026-04-25T09:56:45.538Z</time></trkpt><trkpt lat="43.6246933" lon="12.6649617"><ele>385.0</ele><time>2026-04-25T09:56:46.538Z</time></trkpt><trkpt lat="43.624625" lon="12.6651583"><ele>377.0</ele><time>2026-04-25T09:56:47.538Z</time></trkpt><trkpt lat="43.6245567" lon="12.665365"><ele>369.0</ele><time>2026-04-25T09:56:48.538Z</time></trkpt><trkpt lat="43.6244833" lon="12.6655583"><ele>369.5</ele><time>2026-04-25T09:56:49.538Z</time></trkpt><trkpt lat="43.6244183" lon="12.6657367"><ele>370.0</ele><time>2026-04-25T09:56:50.538Z</time></trkpt><trkpt lat="43.6243483" lon="12.6659033"><ele>370.5</ele><time>2026-04-25T09:56:51.537Z</time></trkpt><trkpt lat="43.6242833" lon="12.6660467"><ele>371.0</ele><time>2026-04-25T09:56:52.538Z</time></trkpt><trkpt lat="43.62423" lon="12.666175"><ele>368.83333333333337</ele><time>2026-04-25T09:56:53.537Z</time></trkpt><trkpt lat="43.6241733" lon="12.666285"><ele>366.6666666666667</ele><time>2026-04-25T09:56:54.538Z</time></trkpt><trkpt lat="43.62413" lon="12.6663683"><ele>364.5</ele><time>2026-04-25T09:56:55.538Z</time></trkpt><trkpt lat="43.6240617" lon="12.666425"><ele>362.3333333333333</ele><time>2026-04-25T09:56:56.537Z</time></trkpt><trkpt lat="43.6239883" lon="12.666465"><ele>360.16666666666663</ele><time>2026-04-25T09:56:57.538Z</time></trkpt><trkpt lat="43.6238917" lon="12.66647"><ele>358.0</ele><time>2026-04-25T09:56:58.538Z</time></trkpt><trkpt lat="43.623755" lon="12.6664483"><ele>356.25</ele><time>2026-04-25T09:56:59.537Z</time></trkpt><trkpt lat="43.623635" lon="12.6663933"><ele>354.5</ele><time>2026-04-25T09:57:00.538Z</time></trkpt><trkpt lat="43.62352" lon="12.6663567"><ele>352.75</ele><time>2026-04-25T09:57:01.538Z</time></trkpt><trkpt lat="43.6234117" lon="12.66632"><ele>351.0</ele><time>2026-04-25T09:57:02.538Z</time></trkpt><trkpt lat="43.6232967" lon="12.6663033"><ele>351.0</ele><time>2026-04-25T09:57:03.538Z</time></trkpt><trkpt lat="43.6231833" lon="12.6663017"><ele>351.0</ele><time>2026-04-25T09:57:04.538Z</time></trkpt><trkpt lat="43.6230633" lon="12.66632"><ele>351.0</ele><time>2026-04-25T09:57:05.538Z</time></trkpt><trkpt lat="43.622955" lon="12.6663417"><ele>351.0</ele><time>2026-04-25T09:57:06.537Z</time></trkpt><trkpt lat="43.6228733" lon="12.6663617"><ele>351.0</ele><time>2026-04-25T09:57:07.538Z</time></trkpt><trkpt lat="43.6228083" lon="12.6663717"><ele>351.0</ele><time>2026-04-25T09:57:08.537Z</time></trkpt><trkpt lat="43.6227083" lon="12.666375"><ele>351.0</ele><time>2026-04-25T09:57:10.538Z</time></trkpt><trkpt lat="43.622735" lon="12.66627"><ele>351.0</ele><time>2026-04-25T09:57:12.538Z</time></trkpt><trkpt lat="43.622785" lon="12.666205"><ele>351.0</ele><time>2026-04-25T09:57:13.538Z</time></trkpt><trkpt lat="43.6228617" lon="12.666135"><ele>351.0</ele><time>2026-04-25T09:57:14.538Z</time></trkpt><trkpt lat="43.6229217" lon="12.6660667"><ele>351.0</ele><time>2026-04-25T09:57:15.538Z</time></trkpt><trkpt lat="43.622955" lon="12.66595"><ele>349.6</ele><time>2026-04-25T09:57:17.537Z</time></trkpt><trkpt lat="43.622875" lon="12.6659067"><ele>348.20000000000005</ele><time>2026-04-25T09:57:19.537Z</time></trkpt><trkpt lat="43.622805" lon="12.6659267"><ele>346.79999999999995</ele><time>2026-04-25T09:57:20.538Z</time></trkpt><trkpt lat="43.6227217" lon="12.6659717"><ele>345.4</ele><time>2026-04-25T09:57:21.538Z</time></trkpt><trkpt lat="43.6226" lon="12.6660433"><ele>344.0</ele><time>2026-04-25T09:57:22.537Z</time></trkpt><trkpt lat="43.6224583" lon="12.6661333"><ele>343.75</ele><time>2026-04-25T09:57:23.538Z</time></trkpt><trkpt lat="43.6223267" lon="12.666225"><ele>343.5</ele><time>2026-04-25T09:57:24.537Z</time></trkpt><trkpt lat="43.6222067" lon="12.666325"><ele>343.25</ele><time>2026-04-25T09:57:25.538Z</time></trkpt><trkpt lat="43.622095" lon="12.666435"><ele>343.0</ele><time>2026-04-25T09:57:26.538Z</time></trkpt><trkpt lat="43.6219767" lon="12.66656"><ele>339.0</ele><time>2026-04-25T09:57:27.537Z</time></trkpt><trkpt lat="43.6218767" lon="12.6666783"><ele>335.0</ele><time>2026-04-25T09:57:28.537Z</time></trkpt><trkpt lat="43.62178" lon="12.6667767"><ele>331.0</ele><time>2026-04-25T09:57:29.538Z</time></trkpt><trkpt lat="43.6216833" lon="12.6668833"><ele>327.0</ele><time>2026-04-25T09:57:30.538Z</time></trkpt><trkpt lat="43.6215917" lon="12.6669833"><ele>327.0</ele><time>2026-04-25T09:57:31.538Z</time></trkpt><trkpt lat="43.6215033" lon="12.6671067"><ele>327.0</ele><time>2026-04-25T09:57:32.538Z</time></trkpt><trkpt lat="43.621425" lon="12.6672383"><ele>327.0</ele><time>2026-04-25T09:57:33.538Z</time></trkpt><trkpt lat="43.62135" lon="12.6673817"><ele>327.0</ele><time>2026-04-25T09:57:34.538Z</time></trkpt><trkpt lat="43.6212683" lon="12.6675383"><ele>327.0</ele><time>2026-04-25T09:57:35.538Z</time></trkpt><trkpt lat="43.6211917" lon="12.6677033"><ele>327.0</ele><time>2026-04-25T09:57:36.538Z</time></trkpt><trkpt lat="43.6211267" lon="12.667875"><ele>327.0</ele><time>2026-04-25T09:57:37.538Z</time></trkpt><trkpt lat="43.6210667" lon="12.6680583"><ele>327.0</ele><time>2026-04-25T09:57:38.538Z</time></trkpt><trkpt lat="43.6209833" lon="12.6682617"><ele>317.0</ele><time>2026-04-25T09:57:39.538Z</time></trkpt><trkpt lat="43.6209233" lon="12.668455"><ele>307.0</ele><time>2026-04-25T09:57:40.538Z</time></trkpt><trkpt lat="43.620865" lon="12.668635"><ele>297.0</ele><time>2026-04-25T09:57:41.538Z</time></trkpt><trkpt lat="43.6208033" lon="12.6688133"><ele>287.0</ele><time>2026-04-25T09:57:42.538Z</time></trkpt><trkpt lat="43.620735" lon="12.6689917"><ele>286.5</ele><time>2026-04-25T09:57:43.537Z</time></trkpt><trkpt lat="43.6206617" lon="12.6691583"><ele>286.0</ele><time>2026-04-25T09:57:44.538Z</time></trkpt><trkpt lat="43.620585" lon="12.6693067"><ele>285.5</ele><time>2026-04-25T09:57:45.538Z</time></trkpt><trkpt lat="43.62052" lon="12.6694433"><ele>285.0</ele><time>2026-04-25T09:57:46.537Z</time></trkpt><trkpt lat="43.6204533" lon="12.66956"><ele>283.5</ele><time>2026-04-25T09:57:47.538Z</time></trkpt><trkpt lat="43.6204033" lon="12.6696667"><ele>282.0</ele><time>2026-04-25T09:57:48.537Z</time></trkpt><trkpt lat="43.6203633" lon="12.6697533"><ele>280.5</ele><time>2026-04-25T09:57:49.537Z</time></trkpt><trkpt lat="43.6203183" lon="12.6699083"><ele>279.0</ele><time>2026-04-25T09:57:51.538Z</time></trkpt><trkpt lat="43.6202633" lon="12.6699583"><ele>277.5</ele><time>2026-04-25T09:57:53.538Z</time></trkpt><trkpt lat="43.6202333" lon="12.6698733"><ele>276.0</ele><time>2026-04-25T09:57:55.537Z</time></trkpt><trkpt lat="43.6202517" lon="12.66977"><ele>278.25</ele><time>2026-04-25T09:57:56.537Z</time></trkpt><trkpt lat="43.6202767" lon="12.6696417"><ele>280.5</ele><time>2026-04-25T09:57:57.537Z</time></trkpt><trkpt lat="43.6203" lon="12.6694717"><ele>282.75</ele><time>2026-04-25T09:57:58.537Z</time></trkpt><trkpt lat="43.6203167" lon="12.66928"><ele>285.0</ele><time>2026-04-25T09:57:59.538Z</time></trkpt><trkpt lat="43.620355" lon="12.6690917"><ele>285.0</ele><time>2026-04-25T09:58:00.538Z</time></trkpt><trkpt lat="43.6203733" lon="12.6689233"><ele>285.0</ele><time>2026-04-25T09:58:01.538Z</time></trkpt><trkpt lat="43.6203883" lon="12.6687867"><ele>285.0</ele><time>2026-04-25T09:58:02.538Z</time></trkpt><trkpt lat="43.6203967" lon="12.668665"><ele>285.0</ele><time>2026-04-25T09:58:03.537Z</time></trkpt><trkpt lat="43.6203517" lon="12.6685117"><ele>285.0</ele><time>2026-04-25T09:58:05.537Z</time></trkpt><trkpt lat="43.6202883" lon="12.6684883"><ele>283.8</ele><time>2026-04-25T09:58:06.538Z</time></trkpt><trkpt lat="43.62022" lon="12.668505"><ele>282.6</ele><time>2026-04-25T09:58:07.537Z</time></trkpt><trkpt lat="43.6201633" lon="12.668585"><ele>281.4</ele><time>2026-04-25T09:58:08.537Z</time></trkpt><trkpt lat="43.620105" lon="12.6687067"><ele>280.2</ele><time>2026-04-25T09:58:09.538Z</time></trkpt><trkpt lat="43.6200233" lon="12.668885"><ele>279.0</ele><time>2026-04-25T09:58:10.537Z</time></trkpt><trkpt lat="43.6199367" lon="12.669075"><ele>274.0</ele><time>2026-04-25T09:58:11.537Z</time></trkpt><trkpt lat="43.61985" lon="12.66928"><ele>269.0</ele><time>2026-04-25T09:58:12.538Z</time></trkpt><trkpt lat="43.6197817" lon="12.6694667"><ele>264.0</ele><time>2026-04-25T09:58:13.538Z</time></trkpt><trkpt lat="43.6197367" lon="12.6696283"><ele>259.0</ele><time>2026-04-25T09:58:14.538Z</time></trkpt><trkpt lat="43.6197033" lon="12.6697733"><ele>257.0</ele><time>2026-04-25T09:58:15.537Z</time></trkpt><trkpt lat="43.6196817" lon="12.6699217"><ele>255.0</ele><time>2026-04-25T09:58:16.538Z</time></trkpt><trkpt lat="43.6197" lon="12.6700667"><ele>253.0</ele><time>2026-04-25T09:58:17.538Z</time></trkpt><trkpt lat="43.61974" lon="12.6702183"><ele>251.0</ele><time>2026-04-25T09:58:18.538Z</time></trkpt><trkpt lat="43.6198133" lon="12.6703617"><ele>248.20000000000002</ele><time>2026-04-25T09:58:19.538Z</time></trkpt><trkpt lat="43.619915" lon="12.670505"><ele>245.40000000000003</ele><time>2026-04-25T09:58:20.538Z</time></trkpt><trkpt lat="43.62" lon="12.6706117"><ele>242.6</ele><time>2026-04-25T09:58:21.537Z</time></trkpt><trkpt lat="43.620055" lon="12.6707233"><ele>239.8</ele><time>2026-04-25T09:58:22.538Z</time></trkpt><trkpt lat="43.6200833" lon="12.67084"><ele>237.0</ele><time>2026-04-25T09:58:23.538Z</time></trkpt><trkpt lat="43.6200933" lon="12.670945"><ele>237.0</ele><time>2026-04-25T09:58:24.538Z</time></trkpt><trkpt lat="43.620005" lon="12.6710433"><ele>237.0</ele><time>2026-04-25T09:58:26.538Z</time></trkpt><trkpt lat="43.6199167" lon="12.671045"><ele>237.0</ele><time>2026-04-25T09:58:27.537Z</time></trkpt><trkpt lat="43.61981" lon="12.6710067"><ele>237.0</ele><time>2026-04-25T09:58:28.538Z</time></trkpt><trkpt lat="43.6196767" lon="12.6709817"><ele>237.0</ele><time>2026-04-25T09:58:29.538Z</time></trkpt><trkpt lat="43.61954" lon="12.6709667"><ele>233.66666666666669</ele><time>2026-04-25T09:58:30.538Z</time></trkpt><trkpt lat="43.61938" lon="12.6710167"><ele>230.33333333333334</ele><time>2026-04-25T09:58:31.538Z</time></trkpt><trkpt lat="43.619215" lon="12.6710683"><ele>227.0</ele><time>2026-04-25T09:58:32.538Z</time></trkpt><trkpt lat="43.619045" lon="12.6711033"><ele>221.33333333333334</ele><time>2026-04-25T09:58:33.538Z</time></trkpt><trkpt lat="43.61889" lon="12.6711217"><ele>215.66666666666669</ele><time>2026-04-25T09:58:34.538Z</time></trkpt><trkpt lat="43.6187317" lon="12.6711333"><ele>210.0</ele><time>2026-04-25T09:58:35.537Z</time></trkpt><trkpt lat="43.618575" lon="12.6711483"><ele>209.0</ele><time>2026-04-25T09:58:36.537Z</time></trkpt><trkpt lat="43.618425" lon="12.6711617"><ele>208.0</ele><time>2026-04-25T09:58:37.538Z</time></trkpt><trkpt lat="43.6182967" lon="12.6711683"><ele>207.0</ele><time>2026-04-25T09:58:38.537Z</time></trkpt><trkpt lat="43.6181767" lon="12.67118"><ele>206.0</ele><time>2026-04-25T09:58:39.537Z</time></trkpt><trkpt lat="43.6180683" lon="12.6711683"><ele>206.00000000000003</ele><time>2026-04-25T09:58:40.538Z</time></trkpt><trkpt lat="43.617975" lon="12.67118"><ele>206.0</ele><time>2026-04-25T09:58:41.538Z</time></trkpt><trkpt lat="43.6178883" lon="12.671195"><ele>206.0</ele><time>2026-04-25T09:58:42.538Z</time></trkpt><trkpt lat="43.6178183" lon="12.67122"><ele>206.0</ele><time>2026-04-25T09:58:43.538Z</time></trkpt><trkpt lat="43.6177517" lon="12.6712283"><ele>206.00000000000003</ele><time>2026-04-25T09:58:44.538Z</time></trkpt><trkpt lat="43.6176433" lon="12.67125"><ele>206.0</ele><time>2026-04-25T09:58:46.538Z</time></trkpt><trkpt lat="43.617555" lon="12.6712233"><ele>205.66666666666669</ele><time>2026-04-25T09:58:49.538Z</time></trkpt><trkpt lat="43.61749" lon="12.6711867"><ele>205.33333333333334</ele><time>2026-04-25T09:58:52.538Z</time></trkpt><trkpt lat="43.6174283" lon="12.6710717"><ele>205.0</ele><time>2026-04-25T09:58:55.538Z</time></trkpt><trkpt lat="43.6173667" lon="12.67091"><ele>204.66666666666669</ele><time>2026-04-25T09:58:57.537Z</time></trkpt><trkpt lat="43.6173233" lon="12.670835"><ele>204.33333333333334</ele><time>2026-04-25T09:58:58.537Z</time></trkpt><trkpt lat="43.61728" lon="12.67077"><ele>204.0</ele><time>2026-04-25T09:58:59.538Z</time></trkpt><trkpt lat="43.617205" lon="12.6706567"><ele>204.2</ele><time>2026-04-25T09:59:01.538Z</time></trkpt><trkpt lat="43.61714" lon="12.670525"><ele>204.39999999999998</ele><time>2026-04-25T09:59:03.537Z</time></trkpt><trkpt lat="43.6170817" lon="12.6704033"><ele>204.6</ele><time>2026-04-25T09:59:05.538Z</time></trkpt><trkpt lat="43.6169817" lon="12.6703383"><ele>204.8</ele><time>2026-04-25T09:59:07.537Z</time></trkpt><trkpt lat="43.6169083" lon="12.6702917"><ele>205.0</ele><time>2026-04-25T09:59:10.537Z</time></trkpt><trkpt lat="43.6168717" lon="12.6704083"><ele>204.99999999999997</ele><time>2026-04-25T09:59:13.537Z</time></trkpt><trkpt lat="43.61687" lon="12.6705433"><ele>205.0</ele><time>2026-04-25T09:59:15.537Z</time></trkpt><trkpt lat="43.6168567" lon="12.67067"><ele>205.0</ele><time>2026-04-25T09:59:17.538Z</time></trkpt><trkpt lat="43.6167883" lon="12.6707267"><ele>205.0</ele><time>2026-04-25T10:00:58.537Z</time></trkpt><trkpt lat="43.6168033" lon="12.670825"><ele>204.99999999999997</ele><time>2026-04-25T10:01:50.536Z</time></trkpt><trkpt lat="43.6167983" lon="12.67092"><ele>205.0</ele><time>2026-04-25T10:01:57.536Z</time></trkpt><trkpt lat="43.6167876" lon="12.6710112"><ele>205.0</ele><time>2026-04-25T10:02:03.682Z</time></trkpt><trkpt lat="43.616792" lon="12.6710984"><ele>205.0</ele><time>2026-04-25T10:02:12.698Z</time></trkpt><trkpt lat="43.6167994" lon="12.6710035"><ele>205.0</ele><time>2026-04-25T10:03:34.661Z</time></trkpt><trkpt lat="43.6168024" lon="12.670907"><ele>205.0</ele><time>2026-04-25T10:03:40.622Z</time></trkpt><trkpt lat="43.6168139" lon="12.6708074"><ele>205.0</ele><time>2026-04-25T10:03:46.577Z</time></trkpt><trkpt lat="43.6168165" lon="12.6707199"><ele>205.0</ele><time>2026-04-25T10:03:53.686Z</time></trkpt><trkpt lat="43.6168115" lon="12.6708221"><ele>205.0</ele><time>2026-04-25T10:04:15.641Z</time></trkpt><trkpt lat="43.6168127" lon="12.6709171"><ele>205.0</ele><time>2026-04-25T10:04:21.599Z</time></trkpt><trkpt lat="43.6168042" lon="12.6710073"><ele>205.0</ele><time>2026-04-25T10:04:26.721Z</time></trkpt><trkpt lat="43.6168048" lon="12.6711084"><ele>204.0</ele><time>2026-04-25T10:04:33.62Z</time></trkpt></trkseg></trk></gpx>